JPL-Sats

  Home –  History –  Credit –  Support –  Last_Sats –  Future_Sats –  C95_Ephs –  M58_Ephs –  I98_Ephs(T18) –  Q62_Ephs(T33) –  U94_Ephs(T68) –  Q20_Ephs –  Legal –  Privacy
Home   
History   
Credit   
Support   
Last_Sats   
Future_Sats   
C95_Ephs   
M58_Ephs   
I98_Ephs(T18)   
Q62_Ephs(T33)   
U94_Ephs(T68)   
Q20_Ephs   
Legal   
Privacy   

Index of all used observable objects

Wind (-8) JUICE (-28) TESS (-95) Chandra Observatory (-151) James Webb Space Telescope (-170) INTEGRAL (-198) Spektr-R Observatory (-557) Euclid (-680) CAPSTONE (-1176) Titan-3C RB (-102770) Gaia (-139479) MMS-1 (-140482) MMS-2 (-140483) MMS-3 (-140484) MMS-4 (-140485)

Missions with actual ephemerides

The ephemeris are downloaded by JPL Horizont:

  • Start of interval: 2024-07-14 00:00:00.
  • End of interval: 2024-07-28 00:00:00.
  • Time of interval: 10 min.
  • Station: I98.
  • Created: 2024-Jul-14 03:21:21 UTC.

Wind (JPL-ID: -8)

   Date (UTC) HH:MM   RA              Dec         delta   r     elong SM  mag  '/hr    PA   alt  az moo ill
   ---- -- -- -----  -------------   -----------  ------ ------ ----- --  --- ------ ------ --- --- --- ---
   2024 07 20 04:00  07 09 56.67    +24 54 59.7   0.0112 1.0051  12.0 N   21?   1.82  63.0    0  56 173  97
   2024 07 20 04:10  07 09 57.82    +24 55 08.1   0.0112 1.0051  12.0 N   21?   1.74  60.9    2  58 173  97
   2024 07 20 04:20  07 09 58.90    +24 55 16.7   0.0112 1.0051  12.0 N   21?   1.66  58.6    3  59 173  97
   2024 07 20 04:30  07 09 59.89    +24 55 25.4   0.0112 1.0051  12.0 C   21?   1.57  56.1    5  61 173  97
   2024 07 20 04:40  07 10 00.81    +24 55 34.3   0.0112 1.0051  12.0 C   21?   1.49  53.4    6  62 173  97
   2024 07 20 04:50  07 10 01.65    +24 55 43.2   0.0112 1.0051  12.0 C   21?   1.41  50.4    8  64 174  97
   ................
   2024 07 21 04:00  07 11 03.02    +24 50 47.9   0.0112 1.0051  12.7 Nm  21?   1.82  63.1    0  57 171  99
   2024 07 21 04:10  07 11 04.17    +24 50 56.3   0.0112 1.0051  12.7 Nm  21?   1.73  61.0    2  58 171  99
   2024 07 21 04:20  07 11 05.25    +24 51 04.8   0.0112 1.0051  12.7 Nm  21?   1.65  58.7    4  60 171  99
   2024 07 21 04:30  07 11 06.24    +24 51 13.5   0.0112 1.0051  12.7 Cm  21?   1.56  56.3    5  61 171  99
   2024 07 21 04:40  07 11 07.16    +24 51 22.2   0.0112 1.0051  12.7 C   21?   1.48  53.5    7  63 171  99
   2024 07 21 04:50  07 11 07.99    +24 51 31.1   0.0112 1.0051  12.7 C   21?   1.40  50.5    9  64 170  99
   ................
   2024 07 22 03:50  07 12 11.25    +24 46 14.4   0.0112 1.0050  13.3 Ar  21?   1.91  65.3    0  56 157  99
   2024 07 22 04:00  07 12 12.48    +24 46 22.5   0.0112 1.0050  13.3 Nm  21?   1.82  63.4    1  57 157  99
   2024 07 22 04:10  07 12 13.64    +24 46 30.8   0.0112 1.0050  13.3 Nm  21?   1.73  61.3    2  59 157  99
   2024 07 22 04:20  07 12 14.71    +24 46 39.2   0.0112 1.0050  13.3 Nm  21?   1.65  59.1    4  60 157  99
   2024 07 22 04:30  07 12 15.71    +24 46 47.8   0.0112 1.0050  13.3 Cm  21?   1.56  56.6    6  62 157  99
   2024 07 22 04:40  07 12 16.62    +24 46 56.5   0.0112 1.0050  13.3 Cm  21?   1.48  53.9    7  63 157  99
   2024 07 22 04:50  07 12 17.46    +24 47 05.3   0.0112 1.0050  13.3 Cm  21?   1.39  50.9    9  65 157  99
   ................
   2024 07 23 03:50  07 13 24.50    +24 41 34.0   0.0112 1.0050  14.0 Am  21?   1.91  65.6    0  56 143  95
   2024 07 23 04:00  07 13 25.74    +24 41 42.1   0.0112 1.0050  14.0 Nm  21?   1.83  63.8    1  58 143  95
   2024 07 23 04:10  07 13 26.90    +24 41 50.2   0.0112 1.0050  14.0 Nm  21?   1.74  61.7    3  59 143  95
   2024 07 23 04:20  07 13 27.99    +24 41 58.6   0.0112 1.0050  14.0 Nm  21?   1.65  59.5    4  61 143  95
   2024 07 23 04:30  07 13 28.99    +24 42 07.1   0.0112 1.0050  14.0 Nm  21?   1.56  57.1    6  62 143  95
   2024 07 23 04:40  07 13 29.91    +24 42 15.6   0.0112 1.0050  14.0 Cm  21?   1.48  54.5    8  64 143  95
   2024 07 23 04:50  07 13 30.75    +24 42 24.3   0.0112 1.0050  14.0 Cm  21?   1.39  51.5    9  65 143  95
   ................
   2024 07 24 03:50  07 14 42.19    +24 36 37.0   0.0112 1.0050  14.6 Am  21?   1.93  66.1    0  56 129  90
   2024 07 24 04:00  07 14 43.44    +24 36 44.9   0.0112 1.0050  14.6 Nm  21?   1.84  64.3    1  58 129  90
   2024 07 24 04:10  07 14 44.62    +24 36 53.0   0.0112 1.0050  14.6 Nm  21?   1.75  62.3    3  60 128  90
   2024 07 24 04:20  07 14 45.71    +24 37 01.2   0.0112 1.0050  14.6 Nm  21?   1.66  60.2    5  61 128  90
   2024 07 24 04:30  07 14 46.72    +24 37 09.6   0.0112 1.0050  14.6 Nm  21?   1.57  57.8    6  63 128  90
   2024 07 24 04:40  07 14 47.66    +24 37 18.0   0.0112 1.0050  14.6 Cm  21?   1.48  55.2    8  64 128  89
   2024 07 24 04:50  07 14 48.51    +24 37 26.6   0.0112 1.0050  14.6 Cm  21?   1.40  52.4   10  66 128  89
   ................
   2024 07 25 03:50  07 16 04.87    +24 31 21.8   0.0112 1.0049  15.2 Am  21?   1.94  66.7    0  57 114  81
   2024 07 25 04:00  07 16 06.14    +24 31 29.6   0.0112 1.0049  15.2 Nm  21?   1.85  65.0    2  59 114  81
   2024 07 25 04:10  07 16 07.32    +24 31 37.5   0.0112 1.0049  15.2 Nm  21?   1.76  63.0    3  60 114  81
   2024 07 25 04:20  07 16 08.44    +24 31 45.6   0.0112 1.0049  15.2 Nm  21?   1.67  61.0    5  62 114  81
   2024 07 25 04:30  07 16 09.47    +24 31 53.9   0.0112 1.0049  15.2 Nm  21?   1.58  58.7    7  63 114  81
   2024 07 25 04:40  07 16 10.42    +24 32 02.2   0.0112 1.0049  15.2 Cm  21?   1.50  56.2    9  65 114  81
   2024 07 25 04:50  07 16 11.28    +24 32 10.6   0.0112 1.0049  15.2 Cm  21?   1.41  53.4   10  66 114  81
   ................
   2024 07 26 03:40  07 17 31.59    +24 25 39.3   0.0112 1.0049  15.8 Ar  21?   2.05  69.0    0  56 100  72
   2024 07 26 03:50  07 17 32.95    +24 25 46.8   0.0112 1.0049  15.8 Am  21?   1.96  67.4    1  57 100  72
   2024 07 26 04:00  07 17 34.24    +24 25 54.5   0.0112 1.0049  15.8 Nm  21?   1.87  65.7    2  59 100  71
   2024 07 26 04:10  07 17 35.45    +24 26 02.3   0.0112 1.0049  15.8 Nm  21?   1.78  63.8    4  61 100  71
   2024 07 26 04:20  07 17 36.58    +24 26 10.2   0.0112 1.0049  15.8 Nm  21?   1.69  61.8    5  62 100  71
   2024 07 26 04:30  07 17 37.63    +24 26 18.3   0.0112 1.0049  15.8 Nm  21?   1.60  59.6    7  64 100  71
   2024 07 26 04:40  07 17 38.59    +24 26 26.5   0.0112 1.0049  15.8 Cm  21?   1.51  57.2    9  65 100  71
   2024 07 26 04:50  07 17 39.48    +24 26 34.7   0.0112 1.0049  15.8 Cm  21?   1.42  54.5   11  67  99  71
   ................
   2024 07 27 03:40  07 19 05.32    +24 19 43.3   0.0112 1.0048  16.4 Ar  21?   2.08  69.6    0  56  86  61
   2024 07 27 03:50  07 19 06.71    +24 19 50.7   0.0112 1.0048  16.4 Am  21?   1.99  68.1    1  58  86  60
   2024 07 27 04:00  07 19 08.01    +24 19 58.2   0.0112 1.0048  16.4 Nm  21?   1.89  66.5    2  59  86  60
   2024 07 27 04:10  07 19 09.24    +24 20 05.9   0.0112 1.0048  16.4 Nm  21?   1.80  64.7    4  61  86  60
   2024 07 27 04:20  07 19 10.39    +24 20 13.7   0.0112 1.0048  16.4 Nm  21?   1.71  62.8    6  63  86  60
   2024 07 27 04:30  07 19 11.46    +24 20 21.6   0.0112 1.0048  16.4 Nm  21?   1.62  60.7    7  64  85  60
   2024 07 27 04:40  07 19 12.45    +24 20 29.6   0.0112 1.0048  16.4 Cm  21?   1.52  58.3    9  66  85  60
   2024 07 27 04:50  07 19 13.36    +24 20 37.6   0.0112 1.0048  16.4 Cm  21?   1.43  55.8   11  67  85  60
   2024 07 27 05:00  07 19 14.18    +24 20 45.7   0.0112 1.0048  16.4 Cm  21?   1.34  52.9   13  69  85  60
   ................
   

JUICE (JPL-ID: -28)

   Date (UTC) HH:MM   RA              Dec         delta   r     elong SM  mag  '/hr    PA   alt  az moo ill
   ---- -- -- -----  -------------   -----------  ------ ------ ----- --  --- ------ ------ --- --- --- ---
   2024 07 14 00:00  22 23 51.58    -10 16 57.8   0.0735 1.0720 137.7     20?   0.33  62.5   22 128 132  50
   2024 07 14 00:10  22 23 51.77    -10 16 56.2   0.0734 1.0720 137.7     20?   0.32  61.1   24 130 132  50
   2024 07 14 00:20  22 23 51.95    -10 16 54.7   0.0734 1.0720 137.7     20?   0.31  59.7   25 132 131  50
   2024 07 14 00:30  22 23 52.13    -10 16 53.1   0.0734 1.0720 137.7     20?   0.30  58.2   27 134 131  50
   2024 07 14 00:40  22 23 52.30    -10 16 51.5   0.0734 1.0720 137.7     20?   0.29  56.7   28 137 131  50
   2024 07 14 00:50  22 23 52.46    -10 16 49.9   0.0734 1.0720 137.7     20?   0.28  55.1   29 139 131  50
   2024 07 14 01:00  22 23 52.62    -10 16 48.3   0.0734 1.0720 137.7     20?   0.28  53.5   30 141 131  50
   2024 07 14 01:10  22 23 52.76    -10 16 46.6   0.0733 1.0720 137.7     20?   0.27  51.9   31 144 131  50
   2024 07 14 01:20  22 23 52.91    -10 16 44.9   0.0733 1.0720 137.7     20?   0.27  50.3   33 147 131  50
   2024 07 14 01:30  22 23 53.04    -10 16 43.2   0.0733 1.0720 137.7     20?   0.26  48.8   34 149 131  50
   2024 07 14 01:40  22 23 53.17    -10 16 41.5   0.0733 1.0719 137.7     20?   0.26  47.3   34 152 131  50
   2024 07 14 01:50  22 23 53.30    -10 16 39.7   0.0733 1.0719 137.7     20?   0.26  45.8   35 155 131  51
   2024 07 14 02:00  22 23 53.42    -10 16 37.9   0.0733 1.0719 137.8     20?   0.25  44.4   36 158 131  51
   2024 07 14 02:10  22 23 53.54    -10 16 36.1   0.0733 1.0719 137.8     20?   0.25  43.1   37 161 131  51
   2024 07 14 02:20  22 23 53.66    -10 16 34.2   0.0732 1.0719 137.8     20?   0.25  41.9   37 164 130  51
   2024 07 14 02:30  22 23 53.77    -10 16 32.3   0.0732 1.0719 137.8     20?   0.25  40.9   38 167 130  51
   2024 07 14 02:40  22 23 53.88    -10 16 30.4   0.0732 1.0719 137.8     20?   0.25  39.9   38 170 130  51
   2024 07 14 02:50  22 23 53.99    -10 16 28.5   0.0732 1.0719 137.8     20?   0.25  39.1   38 173 130  51
   2024 07 14 03:00  22 23 54.10    -10 16 26.5   0.0732 1.0719 137.8 A   20?   0.25  38.5   38 176 130  51
   2024 07 14 03:10  22 23 54.21    -10 16 24.5   0.0732 1.0719 137.8 At  20?   0.26  37.9   38 180 130  51
   2024 07 14 03:20  22 23 54.31    -10 16 22.4   0.0731 1.0719 137.8 A   20?   0.26  37.5   38 183 130  51
   2024 07 14 03:30  22 23 54.42    -10 16 20.4   0.0731 1.0719 137.8 A   20?   0.26  37.3   38 186 130  51
   2024 07 14 03:40  22 23 54.53    -10 16 18.3   0.0731 1.0719 137.8 A   20?   0.27  37.2   38 189 130  51
   2024 07 14 03:50  22 23 54.64    -10 16 16.2   0.0731 1.0718 137.8 N   20?   0.27  37.2   38 192 130  51
   2024 07 14 04:00  22 23 54.75    -10 16 14.0   0.0731 1.0718 137.8 N   20?   0.27  37.4   37 195 129  52
   2024 07 14 04:10  22 23 54.86    -10 16 11.8   0.0731 1.0718 137.8 N   20?   0.28  37.6   37 198 129  52
   2024 07 14 04:20  22 23 54.98    -10 16 09.6   0.0731 1.0718 137.8 N   20?   0.28  38.0   36 201 129  52
   2024 07 14 04:30  22 23 55.10    -10 16 07.4   0.0730 1.0718 137.8 C   20?   0.29  38.5   35 204 129  52
   2024 07 14 04:40  22 23 55.22    -10 16 05.1   0.0730 1.0718 137.9 C   20?   0.29  39.1   34 207 129  52
   ................
   2024 07 14 21:40  22 24 41.77    -10 12 29.7   0.0715 1.0710 138.3 Ar  20?   0.50  75.4    0 102 121  59
   2024 07 14 21:50  22 24 42.09    -10 12 28.4   0.0715 1.0710 138.3  m  20?   0.49  74.8    1 104 121  59
   2024 07 14 22:00  22 24 42.40    -10 12 27.1   0.0715 1.0710 138.3  m  20?   0.47  74.2    3 106 121  59
   2024 07 14 22:10  22 24 42.70    -10 12 25.9   0.0715 1.0710 138.3  m  20?   0.45  73.5    4 107 121  59
   2024 07 14 22:20  22 24 42.99    -10 12 24.6   0.0715 1.0710 138.3  m  20?   0.44  72.8    6 109 121  59
   2024 07 14 22:30  22 24 43.27    -10 12 23.3   0.0715 1.0710 138.4  m  20?   0.42  72.0    8 111 121  59
   2024 07 14 22:40  22 24 43.53    -10 12 22.0   0.0714 1.0710 138.4  m  20?   0.41  71.1   10 113 120  59
   2024 07 14 22:50  22 24 43.79    -10 12 20.7   0.0714 1.0709 138.4  m  20?   0.39  70.1   12 114 120  59
   2024 07 14 23:00  22 24 44.03    -10 12 19.3   0.0714 1.0709 138.4  m  20?   0.38  69.1   13 116 120  59
   2024 07 14 23:10  22 24 44.26    -10 12 18.0   0.0714 1.0709 138.4  m  20?   0.36  68.0   15 118 120  59
   2024 07 14 23:20  22 24 44.48    -10 12 16.6   0.0714 1.0709 138.4  m  20?   0.35  66.8   17 120 120  59
   2024 07 14 23:30  22 24 44.70    -10 12 15.3   0.0714 1.0709 138.4  m  20?   0.33  65.5   18 122 120  59
   2024 07 14 23:40  22 24 44.90    -10 12 13.9   0.0713 1.0709 138.4  m  20?   0.32  64.2   20 124 120  59
   2024 07 14 23:50  22 24 45.09    -10 12 12.5   0.0713 1.0709 138.4  m  20?   0.31  62.7   21 126 120  59
   2024 07 15 00:00  22 24 45.27    -10 12 11.0   0.0713 1.0709 138.4     20?   0.30  61.2   23 128 120  59
   2024 07 15 00:10  22 24 45.44    -10 12 09.6   0.0713 1.0709 138.4     20?   0.29  59.6   24 130 120  59
   2024 07 15 00:20  22 24 45.61    -10 12 08.1   0.0713 1.0709 138.4     20?   0.28  57.9   26 133 120  59
   2024 07 15 00:30  22 24 45.77    -10 12 06.6   0.0713 1.0709 138.4     20?   0.27  56.2   27 135 120  59
   2024 07 15 00:40  22 24 45.92    -10 12 05.1   0.0712 1.0709 138.4     20?   0.26  54.4   28 137 120  60
   2024 07 15 00:50  22 24 46.06    -10 12 03.5   0.0712 1.0708 138.4     20?   0.26  52.5   30 140 120  60
   2024 07 15 01:00  22 24 46.19    -10 12 02.0   0.0712 1.0708 138.4     20?   0.25  50.7   31 142 119  60
   2024 07 15 01:10  22 24 46.32    -10 12 00.4   0.0712 1.0708 138.4     20?   0.24  48.8   32 145 119  60
   2024 07 15 01:20  22 24 46.44    -10 11 58.8   0.0712 1.0708 138.5     20?   0.24  47.0   33 147 119  60
   2024 07 15 01:30  22 24 46.56    -10 11 57.1   0.0712 1.0708 138.5     20?   0.24  45.2   34 150 119  60
   2024 07 15 01:40  22 24 46.67    -10 11 55.4   0.0711 1.0708 138.5     20?   0.23  43.4   35 153 119  60
   2024 07 15 01:50  22 24 46.78    -10 11 53.7   0.0711 1.0708 138.5     20?   0.23  41.7   36 156 119  60
   2024 07 15 02:00  22 24 46.88    -10 11 52.0   0.0711 1.0708 138.5     20?   0.23  40.2   36 159 119  60
   2024 07 15 02:10  22 24 46.98    -10 11 50.2   0.0711 1.0708 138.5     20?   0.23  38.7   37 162 119  60
   2024 07 15 02:20  22 24 47.07    -10 11 48.4   0.0711 1.0708 138.5     20?   0.23  37.4   37 165 119  60
   2024 07 15 02:30  22 24 47.16    -10 11 46.6   0.0711 1.0708 138.5     20?   0.23  36.3   38 168 119  60
   2024 07 15 02:40  22 24 47.26    -10 11 44.7   0.0711 1.0708 138.5     20?   0.23  35.2   38 171 119  60
   2024 07 15 02:50  22 24 47.34    -10 11 42.8   0.0710 1.0707 138.5     20?   0.23  34.4   38 174 118  60
   2024 07 15 03:00  22 24 47.43    -10 11 40.9   0.0710 1.0707 138.5 A   20?   0.23  33.7   39 177 118  60
   2024 07 15 03:10  22 24 47.52    -10 11 39.0   0.0710 1.0707 138.5 At  20?   0.23  33.2   39 181 118  61
   2024 07 15 03:20  22 24 47.61    -10 11 37.0   0.0710 1.0707 138.5 A   20?   0.24  32.9   38 184 118  61
   2024 07 15 03:30  22 24 47.70    -10 11 35.0   0.0710 1.0707 138.5 A   20?   0.24  32.7   38 187 118  61
   2024 07 15 03:40  22 24 47.78    -10 11 33.0   0.0710 1.0707 138.5 A   20?   0.24  32.7   38 190 118  61
   2024 07 15 03:50  22 24 47.87    -10 11 30.9   0.0710 1.0707 138.5 N   20?   0.25  32.9   38 193 118  61
   2024 07 15 04:00  22 24 47.97    -10 11 28.8   0.0709 1.0707 138.6 N   20?   0.25  33.2   37 196 118  61
   2024 07 15 04:10  22 24 48.06    -10 11 26.6   0.0709 1.0707 138.6 N   20?   0.26  33.6   36 199 118  61
   2024 07 15 04:20  22 24 48.16    -10 11 24.5   0.0709 1.0707 138.6 N   20?   0.26  34.1   36 202 118  61
   2024 07 15 04:30  22 24 48.26    -10 11 22.3   0.0709 1.0707 138.6 C   20?   0.27  34.8   35 205 117  61
   2024 07 15 04:40  22 24 48.37    -10 11 20.1   0.0709 1.0707 138.6 C   20?   0.27  35.6   34 208 117  61
   ................
   2024 07 15 21:40  22 25 34.08    -10 07 51.4   0.0694 1.0698 139.1 Ar  20?   0.48  75.6    0 103 109  68
   2024 07 15 21:50  22 25 34.39    -10 07 50.3   0.0694 1.0698 139.1  m  20?   0.46  75.0    1 105 109  68
   2024 07 15 22:00  22 25 34.68    -10 07 49.1   0.0694 1.0698 139.1  m  20?   0.44  74.3    3 106 109  68
   2024 07 15 22:10  22 25 34.96    -10 07 47.9   0.0693 1.0698 139.1  m  20?   0.43  73.6    5 108 109  68
   2024 07 15 22:20  22 25 35.24    -10 07 46.7   0.0693 1.0698 139.1  m  20?   0.41  72.8    7 110 109  68
   2024 07 15 22:30  22 25 35.49    -10 07 45.4   0.0693 1.0698 139.1  m  20?   0.39  71.9    9 111 109  68
   2024 07 15 22:40  22 25 35.74    -10 07 44.2   0.0693 1.0698 139.1  m  20?   0.38  70.9   10 113 108  68
   2024 07 15 22:50  22 25 35.98    -10 07 43.0   0.0693 1.0698 139.1  m  20?   0.36  69.8   12 115 108  68
   2024 07 15 23:00  22 25 36.20    -10 07 41.7   0.0693 1.0698 139.1  m  20?   0.35  68.7   14 117 108  68
   2024 07 15 23:10  22 25 36.42    -10 07 40.5   0.0692 1.0698 139.1  m  20?   0.33  67.4   15 119 108  68
   2024 07 15 23:20  22 25 36.62    -10 07 39.2   0.0692 1.0698 139.1  m  20?   0.32  66.1   17 121 108  68
   2024 07 15 23:30  22 25 36.81    -10 07 37.9   0.0692 1.0697 139.1  m  20?   0.31  64.6   19 123 108  68
   2024 07 15 23:40  22 25 36.99    -10 07 36.6   0.0692 1.0697 139.1  m  20?   0.29  63.0   20 125 108  68
   2024 07 15 23:50  22 25 37.17    -10 07 35.2   0.0692 1.0697 139.1  m  20?   0.28  61.3   22 127 108  69
   2024 07 16 00:00  22 25 37.33    -10 07 33.9   0.0692 1.0697 139.1  m  20?   0.27  59.5   23 129 108  69
   2024 07 16 00:10  22 25 37.48    -10 07 32.5   0.0692 1.0697 139.1  m  20?   0.26  57.7   25 131 108  69
   2024 07 16 00:20  22 25 37.63    -10 07 31.1   0.0691 1.0697 139.1  m  20?   0.25  55.7   26 133 108  69
   2024 07 16 00:30  22 25 37.76    -10 07 29.6   0.0691 1.0697 139.1     20?   0.24  53.6   27 136 108  69
   2024 07 16 00:40  22 25 37.89    -10 07 28.2   0.0691 1.0697 139.2     20?   0.24  51.5   29 138 108  69
   2024 07 16 00:50  22 25 38.01    -10 07 26.7   0.0691 1.0697 139.2     20?   0.23  49.3   30 140 108  69
   2024 07 16 01:00  22 25 38.13    -10 07 25.2   0.0691 1.0697 139.2     20?   0.22  47.1   31 143 107  69
   2024 07 16 01:10  22 25 38.23    -10 07 23.7   0.0691 1.0697 139.2     20?   0.22  44.9   32 146 107  69
   2024 07 16 01:20  22 25 38.34    -10 07 22.1   0.0690 1.0697 139.2     20?   0.21  42.7   33 148 107  69
   2024 07 16 01:30  22 25 38.43    -10 07 20.5   0.0690 1.0696 139.2     20?   0.21  40.6   34 151 107  69
   2024 07 16 01:40  22 25 38.52    -10 07 18.9   0.0690 1.0696 139.2     20?   0.21  38.5   35 154 107  69
   2024 07 16 01:50  22 25 38.61    -10 07 17.3   0.0690 1.0696 139.2     20?   0.21  36.6   36 157 107  69
   2024 07 16 02:00  22 25 38.69    -10 07 15.6   0.0690 1.0696 139.2     20?   0.21  34.8   37 160 107  69
   2024 07 16 02:10  22 25 38.77    -10 07 13.9   0.0690 1.0696 139.2     20?   0.21  33.2   37 163 107  69
   2024 07 16 02:20  22 25 38.84    -10 07 12.2   0.0690 1.0696 139.2     20?   0.21  31.8   38 166 107  69
   2024 07 16 02:30  22 25 38.92    -10 07 10.4   0.0689 1.0696 139.2     20?   0.21  30.5   38 169 107  69
   2024 07 16 02:40  22 25 38.99    -10 07 08.6   0.0689 1.0696 139.2     20?   0.21  29.5   38 172 107  70
   2024 07 16 02:50  22 25 39.06    -10 07 06.8   0.0689 1.0696 139.2     20?   0.21  28.6   39 175 107  70
   2024 07 16 03:00  22 25 39.12    -10 07 04.9   0.0689 1.0696 139.2 A   20?   0.21  28.0   39 178 106  70
   2024 07 16 03:10  22 25 39.19    -10 07 03.0   0.0689 1.0696 139.2 At  20?   0.22  27.6   39 182 106  70
   2024 07 16 03:20  22 25 39.26    -10 07 01.1   0.0689 1.0696 139.3 A   20?   0.22  27.3   38 185 106  70
   2024 07 16 03:30  22 25 39.33    -10 06 59.1   0.0688 1.0695 139.3 A   20?   0.22  27.3   38 188 106  70
   2024 07 16 03:40  22 25 39.40    -10 06 57.1   0.0688 1.0695 139.3 A   20?   0.23  27.4   38 191 106  70
   2024 07 16 03:50  22 25 39.47    -10 06 55.1   0.0688 1.0695 139.3 N   20?   0.23  27.7   38 194 106  70
   2024 07 16 04:00  22 25 39.54    -10 06 53.1   0.0688 1.0695 139.3 N   20?   0.23  28.2   37 197 106  70
   2024 07 16 04:10  22 25 39.62    -10 06 51.0   0.0688 1.0695 139.3 N   20?   0.24  28.8   36 200 106  70
   2024 07 16 04:20  22 25 39.70    -10 06 48.9   0.0688 1.0695 139.3 N   20?   0.24  29.6   36 203 106  70
   2024 07 16 04:30  22 25 39.78    -10 06 46.7   0.0688 1.0695 139.3 C   20?   0.25  30.5   35 206 106  70
   2024 07 16 04:40  22 25 39.87    -10 06 44.6   0.0687 1.0695 139.3 C   20?   0.26  31.5   34 209 105  70
   2024 07 16 04:50  22 25 39.96    -10 06 42.4   0.0687 1.0695 139.3 C   20?   0.26  32.6   33 212 105  70
   ................
   2024 07 16 21:40  22 26 24.78    -10 03 22.6   0.0673 1.0686 139.8 Am  20?   0.45  75.9    0 103  97  77
   2024 07 16 21:50  22 26 25.07    -10 03 21.5   0.0673 1.0686 139.8  m  20?   0.43  75.2    2 105  96  77
   2024 07 16 22:00  22 26 25.35    -10 03 20.4   0.0672 1.0686 139.8  m  20?   0.42  74.5    4 107  96  77
   2024 07 16 22:10  22 26 25.62    -10 03 19.3   0.0672 1.0686 139.8  m  20?   0.40  73.6    6 108  96  77
   2024 07 16 22:20  22 26 25.87    -10 03 18.2   0.0672 1.0686 139.8  m  20?   0.38  72.7    7 110  96  77
   2024 07 16 22:30  22 26 26.11    -10 03 17.0   0.0672 1.0686 139.8  m  20?   0.37  71.7    9 112  96  77
   2024 07 16 22:40  22 26 26.34    -10 03 15.9   0.0672 1.0686 139.8  m  20?   0.35  70.6   11 114  96  77
   2024 07 16 22:50  22 26 26.56    -10 03 14.7   0.0672 1.0686 139.8  m  20?   0.33  69.4   13 115  96  77
   2024 07 16 23:00  22 26 26.76    -10 03 13.6   0.0671 1.0686 139.8  m  20?   0.32  68.1   14 117  96  77
   2024 07 16 23:10  22 26 26.96    -10 03 12.4   0.0671 1.0686 139.8  m  20?   0.30  66.7   16 119  96  77
   2024 07 16 23:20  22 26 27.14    -10 03 11.2   0.0671 1.0686 139.8  m  20?   0.29  65.1   18 121  96  77
   2024 07 16 23:30  22 26 27.31    -10 03 09.9   0.0671 1.0685 139.8  m  20?   0.28  63.4   19 123  96  77
   2024 07 16 23:40  22 26 27.48    -10 03 08.7   0.0671 1.0685 139.9  m  20?   0.26  61.6   21 125  96  77
   2024 07 16 23:50  22 26 27.63    -10 03 07.4   0.0671 1.0685 139.9  m  20?   0.25  59.6   22 127  96  77
   2024 07 17 00:00  22 26 27.77    -10 03 06.1   0.0670 1.0685 139.9  m  20?   0.24  57.4   24 129  96  77
   2024 07 17 00:10  22 26 27.91    -10 03 04.8   0.0670 1.0685 139.9  m  20?   0.23  55.2   25 132  96  77
   2024 07 17 00:20  22 26 28.03    -10 03 03.5   0.0670 1.0685 139.9  m  20?   0.22  52.8   27 134  96  77
   2024 07 17 00:30  22 26 28.15    -10 03 02.1   0.0670 1.0685 139.9  m  20?   0.21  50.3   28 136  95  78
   2024 07 17 00:40  22 26 28.25    -10 03 00.7   0.0670 1.0685 139.9  m  20?   0.21  47.7   29 139  95  78
   2024 07 17 00:50  22 26 28.35    -10 02 59.3   0.0670 1.0685 139.9  m  20?   0.20  45.0   30 141  95  78
   2024 07 17 01:00  22 26 28.45    -10 02 57.9   0.0670 1.0685 139.9     20?   0.20  42.4   32 144  95  78
   2024 07 17 01:10  22 26 28.53    -10 02 56.4   0.0669 1.0685 139.9     20?   0.19  39.7   33 146  95  78
   2024 07 17 01:20  22 26 28.62    -10 02 54.9   0.0669 1.0685 139.9     20?   0.19  37.1   34 149  95  78
   2024 07 17 01:30  22 26 28.69    -10 02 53.4   0.0669 1.0684 139.9     20?   0.19  34.6   35 152  95  78
   2024 07 17 01:40  22 26 28.76    -10 02 51.9   0.0669 1.0684 139.9     20?   0.19  32.3   35 155  95  78
   2024 07 17 01:50  22 26 28.82    -10 02 50.3   0.0669 1.0684 139.9     20?   0.18  30.1   36 158  95  78
   2024 07 17 02:00  22 26 28.89    -10 02 48.7   0.0669 1.0684 139.9     20?   0.18  28.1   37 161  95  78
   2024 07 17 02:10  22 26 28.94    -10 02 47.0   0.0668 1.0684 139.9     20?   0.19  26.3   37 164  95  78
   2024 07 17 02:20  22 26 29.00    -10 02 45.3   0.0668 1.0684 140.0     20?   0.19  24.7   38 167  95  78
   2024 07 17 02:30  22 26 29.05    -10 02 43.6   0.0668 1.0684 140.0     20?   0.19  23.4   38 170  95  78
   2024 07 17 02:40  22 26 29.10    -10 02 41.9   0.0668 1.0684 140.0     20?   0.19  22.4   38 173  94  78
   2024 07 17 02:50  22 26 29.15    -10 02 40.1   0.0668 1.0684 140.0     20?   0.19  21.6   39 176  94  78
   2024 07 17 03:00  22 26 29.19    -10 02 38.3   0.0668 1.0684 140.0 A   20?   0.20  21.0   39 179  94  78
   2024 07 17 03:10  22 26 29.24    -10 02 36.5   0.0668 1.0684 140.0 At  20?   0.20  20.7   39 183  94  78
   2024 07 17 03:20  22 26 29.29    -10 02 34.6   0.0667 1.0684 140.0 A   20?   0.20  20.6   38 186  94  78
   2024 07 17 03:30  22 26 29.34    -10 02 32.7   0.0667 1.0683 140.0 A   20?   0.21  20.8   38 189  94  79
   2024 07 17 03:40  22 26 29.39    -10 02 30.8   0.0667 1.0683 140.0 A   20?   0.21  21.1   38 192  94  79
   2024 07 17 03:50  22 26 29.44    -10 02 28.8   0.0667 1.0683 140.0 N   20?   0.21  21.6   37 195  94  79
   2024 07 17 04:00  22 26 29.50    -10 02 26.8   0.0667 1.0683 140.0 N   20?   0.22  22.4   37 198  94  79
   2024 07 17 04:10  22 26 29.55    -10 02 24.8   0.0667 1.0683 140.0 N   20?   0.22  23.3   36 201  94  79
   2024 07 17 04:20  22 26 29.62    -10 02 22.7   0.0667 1.0683 140.0 N   20?   0.23  24.3   35 204  94  79
   2024 07 17 04:30  22 26 29.68    -10 02 20.6   0.0666 1.0683 140.0 C   20?   0.23  25.5   35 207  93  79
   2024 07 17 04:40  22 26 29.75    -10 02 18.5   0.0666 1.0683 140.0 C   20?   0.24  26.8   34 210  93  79
   2024 07 17 04:50  22 26 29.83    -10 02 16.3   0.0666 1.0683 140.0 C   20?   0.25  28.2   33 212  93  79
   ................
   2024 07 17 21:30  22 27 13.61    -09 59 04.2   0.0652 1.0674 140.5 Ar  20?   0.45  76.8    0 102  84  85
   2024 07 17 21:40  22 27 13.90    -09 59 03.2   0.0652 1.0674 140.5 Am  20?   0.43  76.1    1 104  84  85
   2024 07 17 21:50  22 27 14.17    -09 59 02.2   0.0651 1.0674 140.5  m  20?   0.41  75.4    3 105  84  85
   2024 07 17 22:00  22 27 14.43    -09 59 01.2   0.0651 1.0674 140.5  m  20?   0.39  74.6    4 107  84  85
   2024 07 17 22:10  22 27 14.68    -09 59 00.1   0.0651 1.0674 140.5  m  20?   0.37  73.7    6 109  84  85
   2024 07 17 22:20  22 27 14.92    -09 58 59.1   0.0651 1.0674 140.5  m  20?   0.35  72.7    8 111  84  85
   2024 07 17 22:30  22 27 15.14    -09 58 58.0   0.0651 1.0674 140.6  m  20?   0.34  71.6   10 112  84  85
   2024 07 17 22:40  22 27 15.35    -09 58 56.9   0.0651 1.0674 140.6  m  20?   0.32  70.3   12 114  84  85
   2024 07 17 22:50  22 27 15.55    -09 58 55.9   0.0650 1.0674 140.6  m  20?   0.30  68.9   13 116  83  85
   2024 07 17 23:00  22 27 15.74    -09 58 54.8   0.0650 1.0674 140.6  m  20?   0.29  67.4   15 118  83  85
   2024 07 17 23:10  22 27 15.91    -09 58 53.6   0.0650 1.0673 140.6  m  20?   0.27  65.7   17 120  83  85
   2024 07 17 23:20  22 27 16.08    -09 58 52.5   0.0650 1.0673 140.6  m  20?   0.26  63.9   18 122  83  85
   2024 07 17 23:30  22 27 16.23    -09 58 51.3   0.0650 1.0673 140.6  m  20?   0.25  61.9   20 124  83  85
   2024 07 17 23:40  22 27 16.37    -09 58 50.2   0.0650 1.0673 140.6  m  20?   0.23  59.6   21 126  83  85
   2024 07 17 23:50  22 27 16.50    -09 58 49.0   0.0650 1.0673 140.6  m  20?   0.22  57.2   23 128  83  85
   2024 07 18 00:00  22 27 16.62    -09 58 47.8   0.0649 1.0673 140.6  m  20?   0.21  54.6   24 130  83  85
   2024 07 18 00:10  22 27 16.74    -09 58 46.5   0.0649 1.0673 140.6  m  20?   0.20  51.9   26 132  83  85
   2024 07 18 00:20  22 27 16.84    -09 58 45.3   0.0649 1.0673 140.6  m  20?   0.19  48.9   27 135  83  85
   2024 07 18 00:30  22 27 16.94    -09 58 44.0   0.0649 1.0673 140.6  m  20?   0.19  45.8   28 137  83  85
   2024 07 18 00:40  22 27 17.02    -09 58 42.6   0.0649 1.0673 140.6  m  20?   0.18  42.6   30 139  83  85
   2024 07 18 00:50  22 27 17.10    -09 58 41.3   0.0649 1.0673 140.6  m  20?   0.18  39.4   31 142  83  85
   2024 07 18 01:00  22 27 17.17    -09 58 39.9   0.0648 1.0673 140.6  m  20?   0.17  36.1   32 145  83  86
   2024 07 18 01:10  22 27 17.24    -09 58 38.5   0.0648 1.0672 140.6  m  20?   0.17  32.9   33 147  83  86
   2024 07 18 01:20  22 27 17.30    -09 58 37.1   0.0648 1.0672 140.7  m  20?   0.17  29.8   34 150  82  86
   2024 07 18 01:30  22 27 17.35    -09 58 35.6   0.0648 1.0672 140.7  m  20?   0.17  26.9   35 153  82  86
   2024 07 18 01:40  22 27 17.40    -09 58 34.1   0.0648 1.0672 140.7     20?   0.17  24.1   36 156  82  86
   2024 07 18 01:50  22 27 17.44    -09 58 32.6   0.0648 1.0672 140.7     20?   0.17  21.7   36 159  82  86
   2024 07 18 02:00  22 27 17.48    -09 58 31.1   0.0648 1.0672 140.7     20?   0.17  19.5   37 162  82  86
   2024 07 18 02:10  22 27 17.52    -09 58 29.5   0.0647 1.0672 140.7     20?   0.17  17.6   38 165  82  86
   2024 07 18 02:20  22 27 17.55    -09 58 27.9   0.0647 1.0672 140.7     20?   0.17  16.0   38 168  82  86
   2024 07 18 02:30  22 27 17.58    -09 58 26.2   0.0647 1.0672 140.7     20?   0.17  14.7   38 171  82  86
   2024 07 18 02:40  22 27 17.61    -09 58 24.5   0.0647 1.0672 140.7     20?   0.18  13.7   39 174  82  86
   2024 07 18 02:50  22 27 17.64    -09 58 22.8   0.0647 1.0672 140.7     20?   0.18  13.0   39 177  82  86
   2024 07 18 03:00  22 27 17.67    -09 58 21.1   0.0647 1.0672 140.7 At  20?   0.18  12.6   39 180  82  86
   2024 07 18 03:10  22 27 17.69    -09 58 19.3   0.0647 1.0671 140.7 A   20?   0.18  12.5   39 184  82  86
   2024 07 18 03:20  22 27 17.72    -09 58 17.5   0.0646 1.0671 140.7 A   20?   0.19  12.7   38 187  82  86
   2024 07 18 03:30  22 27 17.75    -09 58 15.6   0.0646 1.0671 140.7 A   20?   0.19  13.1   38 190  81  86
   2024 07 18 03:40  22 27 17.78    -09 58 13.7   0.0646 1.0671 140.7 A   20?   0.20  13.7   38 193  81  86
   2024 07 18 03:50  22 27 17.81    -09 58 11.8   0.0646 1.0671 140.8 N   20?   0.20  14.5   37 196  81  86
   2024 07 18 04:00  22 27 17.85    -09 58 09.9   0.0646 1.0671 140.8 N   20?   0.20  15.5   37 199  81  86
   2024 07 18 04:10  22 27 17.89    -09 58 07.9   0.0646 1.0671 140.8 N   20?   0.21  16.7   36 202  81  86
   2024 07 18 04:20  22 27 17.93    -09 58 05.9   0.0646 1.0671 140.8 N   20?   0.21  18.1   35 205  81  86
   2024 07 18 04:30  22 27 17.98    -09 58 03.8   0.0645 1.0671 140.8 C   20?   0.22  19.6   34 208  81  86
   2024 07 18 04:40  22 27 18.03    -09 58 01.7   0.0645 1.0671 140.8 C   20?   0.22  21.3   33 211  81  87
   2024 07 18 04:50  22 27 18.09    -09 57 59.6   0.0645 1.0671 140.8 C   20?   0.23  23.0   32 213  81  87
   ................
   2024 07 18 21:30  22 28 01.17    -09 54 54.0   0.0631 1.0662 141.3 Ar  20?   0.42  77.1    0 103  71  91
   2024 07 18 21:40  22 28 01.44    -09 54 53.1   0.0631 1.0662 141.3 Am  20?   0.40  76.4    1 104  71  91
   2024 07 18 21:50  22 28 01.70    -09 54 52.1   0.0630 1.0662 141.3  m  20?   0.38  75.6    3 106  71  91
   2024 07 18 22:00  22 28 01.94    -09 54 51.2   0.0630 1.0662 141.3  m  20?   0.36  74.7    5 108  71  92
   2024 07 18 22:10  22 28 02.17    -09 54 50.2   0.0630 1.0662 141.3  m  20?   0.34  73.7    7 109  71  92
   2024 07 18 22:20  22 28 02.39    -09 54 49.3   0.0630 1.0661 141.3  m  20?   0.33  72.6    9 111  71  92
   2024 07 18 22:30  22 28 02.59    -09 54 48.3   0.0630 1.0661 141.3  m  20?   0.31  71.3   10 113  71  92
   2024 07 18 22:40  22 28 02.79    -09 54 47.3   0.0630 1.0661 141.3  m  20?   0.29  69.9   12 115  71  92
   2024 07 18 22:50  22 28 02.97    -09 54 46.3   0.0630 1.0661 141.3  m  20?   0.28  68.3   14 116  70  92
   2024 07 18 23:00  22 28 03.13    -09 54 45.3   0.0629 1.0661 141.3  m  20?   0.26  66.5   16 118  70  92
   2024 07 18 23:10  22 28 03.29    -09 54 44.2   0.0629 1.0661 141.3  m  20?   0.24  64.5   17 120  70  92
   2024 07 18 23:20  22 28 03.43    -09 54 43.2   0.0629 1.0661 141.3  m  20?   0.23  62.3   19 122  70  92
   2024 07 18 23:30  22 28 03.56    -09 54 42.1   0.0629 1.0661 141.3  m  20?   0.22  59.8   20 124  70  92
   2024 07 18 23:40  22 28 03.69    -09 54 41.0   0.0629 1.0661 141.3  m  20?   0.20  57.1   22 126  70  92
   2024 07 18 23:50  22 28 03.80    -09 54 39.9   0.0629 1.0661 141.3  m  20?   0.19  54.1   23 128  70  92
   2024 07 19 00:00  22 28 03.90    -09 54 38.7   0.0628 1.0661 141.4  m  20?   0.18  50.8   25 131  70  92
   2024 07 19 00:10  22 28 03.99    -09 54 37.6   0.0628 1.0661 141.4  m  20?   0.17  47.3   26 133  70  92
   2024 07 19 00:20  22 28 04.07    -09 54 36.4   0.0628 1.0660 141.4  m  20?   0.17  43.6   28 135  70  92
   2024 07 19 00:30  22 28 04.15    -09 54 35.1   0.0628 1.0660 141.4  m  20?   0.16  39.6   29 138  70  92
   2024 07 19 00:40  22 28 04.21    -09 54 33.9   0.0628 1.0660 141.4  m  20?   0.16  35.6   30 140  70  92
   2024 07 19 00:50  22 28 04.27    -09 54 32.6   0.0628 1.0660 141.4  m  20?   0.15  31.6   31 143  70  92
   2024 07 19 01:00  22 28 04.32    -09 54 31.3   0.0628 1.0660 141.4  m  20?   0.15  27.6   32 145  70  92
   2024 07 19 01:10  22 28 04.36    -09 54 30.0   0.0627 1.0660 141.4  m  20?   0.15  23.7   33 148  70  92
   2024 07 19 01:20  22 28 04.40    -09 54 28.6   0.0627 1.0660 141.4  m  20?   0.15  20.1   34 151  69  92
   2024 07 19 01:30  22 28 04.43    -09 54 27.2   0.0627 1.0660 141.4  m  20?   0.15  16.7   35 154  69  92
   2024 07 19 01:40  22 28 04.46    -09 54 25.8   0.0627 1.0660 141.4  m  20?   0.15  13.7   36 156  69  92
   2024 07 19 01:50  22 28 04.48    -09 54 24.3   0.0627 1.0660 141.4  m  20?   0.15  11.1   37 159  69  92
   2024 07 19 02:00  22 28 04.50    -09 54 22.8   0.0627 1.0660 141.4  m  20?   0.15   8.8   37 162  69  92
   2024 07 19 02:10  22 28 04.51    -09 54 21.3   0.0626 1.0659 141.4  m  20?   0.16   6.9   38 166  69  92
   2024 07 19 02:20  22 28 04.52    -09 54 19.7   0.0626 1.0659 141.4  m  20?   0.16   5.4   38 169  69  92
   2024 07 19 02:30  22 28 04.53    -09 54 18.1   0.0626 1.0659 141.4     20?   0.16   4.3   39 172  69  92
   2024 07 19 02:40  22 28 04.54    -09 54 16.5   0.0626 1.0659 141.5     20?   0.16   3.5   39 175  69  92
   2024 07 19 02:50  22 28 04.55    -09 54 14.8   0.0626 1.0659 141.5     20?   0.17   3.0   39 178  69  92
   2024 07 19 03:00  22 28 04.55    -09 54 13.1   0.0626 1.0659 141.5  t  20?   0.17   2.9   39 181  69  92
   2024 07 19 03:10  22 28 04.56    -09 54 11.4   0.0626 1.0659 141.5 A   20?   0.18   3.0   39 185  69  92
   2024 07 19 03:20  22 28 04.57    -09 54 09.6   0.0625 1.0659 141.5 A   20?   0.18   3.5   38 188  69  92
   2024 07 19 03:30  22 28 04.57    -09 54 07.8   0.0625 1.0659 141.5 A   20?   0.18   4.2   38 191  68  92
   2024 07 19 03:40  22 28 04.58    -09 54 06.0   0.0625 1.0659 141.5 A   20?   0.19   5.1   38 194  68  93
   2024 07 19 03:50  22 28 04.60    -09 54 04.1   0.0625 1.0659 141.5 N   20?   0.19   6.3   37 197  68  93
   2024 07 19 04:00  22 28 04.61    -09 54 02.2   0.0625 1.0659 141.5 N   20?   0.19   7.6   37 200  68  93
   2024 07 19 04:10  22 28 04.63    -09 54 00.3   0.0625 1.0658 141.5 N   20?   0.20   9.2   36 203  68  93
   2024 07 19 04:20  22 28 04.66    -09 53 58.4   0.0625 1.0658 141.5 N   20?   0.20  11.0   35 206  68  93
   2024 07 19 04:30  22 28 04.68    -09 53 56.4   0.0624 1.0658 141.5 C   20?   0.21  12.9   34 209  68  93
   2024 07 19 04:40  22 28 04.72    -09 53 54.3   0.0624 1.0658 141.5 C   20?   0.21  14.9   33 211  68  93
   2024 07 19 04:50  22 28 04.76    -09 53 52.3   0.0624 1.0658 141.5 C   20?   0.22  17.1   32 214  68  93
   ................
   2024 07 19 21:30  22 28 47.16    -09 50 53.2   0.0610 1.0649 142.0 Am  20?   0.39  77.5    0 103  58  96
   2024 07 19 21:40  22 28 47.41    -09 50 52.3   0.0610 1.0649 142.0  m  20?   0.37  76.8    2 105  57  96
   2024 07 19 21:50  22 28 47.65    -09 50 51.5   0.0610 1.0649 142.0  m  20?   0.35  75.9    4 106  57  96
   2024 07 19 22:00  22 28 47.88    -09 50 50.6   0.0610 1.0649 142.0  m  20?   0.33  74.9    6 108  57  96
   2024 07 19 22:10  22 28 48.09    -09 50 49.7   0.0609 1.0649 142.0  m  20?   0.32  73.8    8 110  57  96
   2024 07 19 22:20  22 28 48.29    -09 50 48.9   0.0609 1.0649 142.0  m  20?   0.30  72.5    9 112  57  96
   2024 07 19 22:30  22 28 48.48    -09 50 48.0   0.0609 1.0649 142.1  m  20?   0.28  71.0   11 113  57  96
   2024 07 19 22:40  22 28 48.65    -09 50 47.0   0.0609 1.0649 142.1  m  20?   0.26  69.4   13 115  57  96
   2024 07 19 22:50  22 28 48.81    -09 50 46.1   0.0609 1.0649 142.1  m  20?   0.25  67.5   14 117  57  96
   2024 07 19 23:00  22 28 48.95    -09 50 45.2   0.0609 1.0648 142.1  m  20?   0.23  65.3   16 119  57  96
   2024 07 19 23:10  22 28 49.09    -09 50 44.2   0.0608 1.0648 142.1  m  20?   0.21  62.9   18 121  57  96
   2024 07 19 23:20  22 28 49.21    -09 50 43.2   0.0608 1.0648 142.1  m  20?   0.20  60.1   19 123  57  96
   2024 07 19 23:30  22 28 49.32    -09 50 42.2   0.0608 1.0648 142.1  m  20?   0.19  57.0   21 125  57  96
   2024 07 19 23:40  22 28 49.42    -09 50 41.2   0.0608 1.0648 142.1  m  20?   0.17  53.5   22 127  57  96
   2024 07 19 23:50  22 28 49.51    -09 50 40.1   0.0608 1.0648 142.1  m  20?   0.16  49.6   24 129  57  97
   2024 07 20 00:00  22 28 49.59    -09 50 39.1   0.0608 1.0648 142.1  m  20?   0.15  45.4   25 131  57  97
   2024 07 20 00:10  22 28 49.66    -09 50 38.0   0.0608 1.0648 142.1  m  20?   0.15  40.8   27 134  57  97
   2024 07 20 00:20  22 28 49.72    -09 50 36.8   0.0607 1.0648 142.1  m  20?   0.14  35.9   28 136  56  97
   2024 07 20 00:30  22 28 49.78    -09 50 35.7   0.0607 1.0648 142.1  m  20?   0.14  30.8   29 138  56  97
   2024 07 20 00:40  22 28 49.82    -09 50 34.5   0.0607 1.0648 142.1  m  20?   0.13  25.7   31 141  56  97
   2024 07 20 00:50  22 28 49.85    -09 50 33.3   0.0607 1.0647 142.1  m  20?   0.13  20.7   32 143  56  97
   2024 07 20 01:00  22 28 49.88    -09 50 32.1   0.0607 1.0647 142.1  m  20?   0.13  15.9   33 146  56  97
   2024 07 20 01:10  22 28 49.90    -09 50 30.8   0.0607 1.0647 142.2  m  20?   0.13  11.4   34 149  56  97
   2024 07 20 01:20  22 28 49.92    -09 50 29.5   0.0606 1.0647 142.2  m  20?   0.13   7.4   35 152  56  97
   2024 07 20 01:30  22 28 49.93    -09 50 28.2   0.0606 1.0647 142.2  m  20?   0.14   3.8   36 154  56  97
   2024 07 20 01:40  22 28 49.93    -09 50 26.8   0.0606 1.0647 142.2  m  20?   0.14   0.8   36 157  56  97
   2024 07 20 01:50  22 28 49.93    -09 50 25.4   0.0606 1.0647 142.2  m  20?   0.14 358.2   37 160  56  97
   2024 07 20 02:00  22 28 49.92    -09 50 24.0   0.0606 1.0647 142.2  m  20?   0.15 356.1   38 163  56  97
   2024 07 20 02:10  22 28 49.92    -09 50 22.5   0.0606 1.0647 142.2  m  20?   0.15 354.4   38 167  56  97
   2024 07 20 02:20  22 28 49.91    -09 50 21.0   0.0606 1.0647 142.2  m  20?   0.15 353.2   38 170  56  97
   2024 07 20 02:30  22 28 49.89    -09 50 19.4   0.0605 1.0647 142.2  m  20?   0.16 352.4   39 173  56  97
   2024 07 20 02:40  22 28 49.88    -09 50 17.9   0.0605 1.0647 142.2  m  20?   0.16 351.9   39 176  55  97
   2024 07 20 02:50  22 28 49.86    -09 50 16.3   0.0605 1.0646 142.2  m  20?   0.16 351.7   39 179  55  97
   2024 07 20 03:00  22 28 49.85    -09 50 14.6   0.0605 1.0646 142.2  t  20?   0.17 351.9   39 182  55  97
   2024 07 20 03:10  22 28 49.83    -09 50 12.9   0.0605 1.0646 142.2 Am  20?   0.17 352.4   39 186  55  97
   2024 07 20 03:20  22 28 49.82    -09 50 11.2   0.0605 1.0646 142.2 Am  20?   0.17 353.2   38 189  55  97
   2024 07 20 03:30  22 28 49.80    -09 50 09.5   0.0605 1.0646 142.2 A   20?   0.18 354.2   38 192  55  97
   2024 07 20 03:40  22 28 49.79    -09 50 07.7   0.0604 1.0646 142.3 A   20?   0.18 355.5   38 195  55  97
   2024 07 20 03:50  22 28 49.78    -09 50 05.9   0.0604 1.0646 142.3 N   20?   0.18 357.0   37 198  55  97
   2024 07 20 04:00  22 28 49.78    -09 50 04.0   0.0604 1.0646 142.3 N   20?   0.19 358.7   36 201  55  97
   2024 07 20 04:10  22 28 49.78    -09 50 02.2   0.0604 1.0646 142.3 N   20?   0.19   0.7   36 204  55  97
   2024 07 20 04:20  22 28 49.78    -09 50 00.2   0.0604 1.0646 142.3 N   20?   0.19   2.9   35 207  55  97
   2024 07 20 04:30  22 28 49.79    -09 49 58.3   0.0604 1.0646 142.3 C   20?   0.20   5.2   34 210  54  97
   2024 07 20 04:40  22 28 49.81    -09 49 56.3   0.0604 1.0645 142.3 C   20?   0.20   7.6   33 212  54  97
   2024 07 20 04:50  22 28 49.83    -09 49 54.3   0.0603 1.0645 142.3 C   20?   0.21  10.2   32 215  54  97
   ................
   2024 07 20 21:20  22 29 31.32    -09 47 02.6   0.0590 1.0636 142.8 Ar  20?   0.39  78.7    0 102  44  99
   2024 07 20 21:30  22 29 31.57    -09 47 01.9   0.0589 1.0636 142.8 Am  20?   0.37  78.0    1 104  44  99
   2024 07 20 21:40  22 29 31.80    -09 47 01.1   0.0589 1.0636 142.8  m  20?   0.35  77.2    3 105  44  99
   2024 07 20 21:50  22 29 32.03    -09 47 00.4   0.0589 1.0636 142.8  m  20?   0.33  76.2    5 107  44  99
   2024 07 20 22:00  22 29 32.23    -09 46 59.6   0.0589 1.0636 142.8  m  20?   0.31  75.1    6 109  44  99
   2024 07 20 22:10  22 29 32.43    -09 46 58.8   0.0589 1.0636 142.8  m  20?   0.29  73.8    8 110  43  99
   2024 07 20 22:20  22 29 32.60    -09 46 58.0   0.0589 1.0636 142.8  m  20?   0.27  72.3   10 112  43  99
   2024 07 20 22:30  22 29 32.77    -09 46 57.2   0.0588 1.0636 142.8  m  20?   0.25  70.6   12 114  43  99
   2024 07 20 22:40  22 29 32.92    -09 46 56.3   0.0588 1.0636 142.8  m  20?   0.23  68.6   13 116  43  99
   2024 07 20 22:50  22 29 33.06    -09 46 55.5   0.0588 1.0636 142.8  m  20?   0.21  66.3   15 118  43  99
   2024 07 20 23:00  22 29 33.19    -09 46 54.6   0.0588 1.0636 142.8  m  20?   0.20  63.7   17 119  43  99
   2024 07 20 23:10  22 29 33.30    -09 46 53.7   0.0588 1.0635 142.8  m  20?   0.18  60.6   18 121  43  99
   2024 07 20 23:20  22 29 33.40    -09 46 52.8   0.0588 1.0635 142.8  m  20?   0.17  57.0   20 123  43  99
   2024 07 20 23:30  22 29 33.49    -09 46 51.9   0.0587 1.0635 142.9  m  20?   0.16  52.9   21 126  43  99
   2024 07 20 23:40  22 29 33.57    -09 46 51.0   0.0587 1.0635 142.9  m  20?   0.14  48.2   23 128  43  99
   2024 07 20 23:50  22 29 33.64    -09 46 50.0   0.0587 1.0635 142.9  m  20?   0.13  43.0   24 130  43  99
   2024 07 21 00:00  22 29 33.69    -09 46 49.0   0.0587 1.0635 142.9  m  20?   0.13  37.2   26 132  43  99
   2024 07 21 00:10  22 29 33.74    -09 46 48.0   0.0587 1.0635 142.9  m  20?   0.12  30.9   27 134  43  99
   2024 07 21 00:20  22 29 33.78    -09 46 46.9   0.0587 1.0635 142.9  m  20?   0.12  24.4   29 137  43  99
   2024 07 21 00:30  22 29 33.81    -09 46 45.8   0.0587 1.0635 142.9  m  20?   0.12  17.9   30 139  43  99
   2024 07 21 00:40  22 29 33.83    -09 46 44.7   0.0586 1.0635 142.9  m  20?   0.11  11.6   31 142  42  99
   2024 07 21 00:50  22 29 33.84    -09 46 43.6   0.0586 1.0635 142.9  m  20?   0.12   5.8   32 144  42  99
   2024 07 21 01:00  22 29 33.84    -09 46 42.4   0.0586 1.0634 142.9  m  20?   0.12   0.5   33 147  42  99
   2024 07 21 01:10  22 29 33.84    -09 46 41.2   0.0586 1.0634 142.9  m  20?   0.12 355.9   34 150  42  99
   2024 07 21 01:20  22 29 33.83    -09 46 40.0   0.0586 1.0634 142.9  m  20?   0.13 352.0   35 153  42  99
   2024 07 21 01:30  22 29 33.82    -09 46 38.7   0.0586 1.0634 142.9  m  20?   0.13 348.7   36 155  42  99
   2024 07 21 01:40  22 29 33.80    -09 46 37.4   0.0586 1.0634 142.9  m  20?   0.14 346.0   37 158  42  99
   2024 07 21 01:50  22 29 33.77    -09 46 36.1   0.0585 1.0634 142.9  m  20?   0.14 343.9   37 161  42  99
   2024 07 21 02:00  22 29 33.75    -09 46 34.7   0.0585 1.0634 142.9  m  20?   0.15 342.2   38 164  42  99
   2024 07 21 02:10  22 29 33.71    -09 46 33.3   0.0585 1.0634 143.0  m  20?   0.15 341.1   38 168  42  99
   2024 07 21 02:20  22 29 33.68    -09 46 31.8   0.0585 1.0634 143.0  m  20?   0.16 340.3   39 171  42  99
   2024 07 21 02:30  22 29 33.64    -09 46 30.4   0.0585 1.0634 143.0  m  20?   0.16 339.8   39 174  42  99
   2024 07 21 02:40  22 29 33.61    -09 46 28.8   0.0585 1.0634 143.0  m  20?   0.16 339.8   39 177  42  99
   2024 07 21 02:50  22 29 33.57    -09 46 27.3   0.0585 1.0633 143.0  t  20?   0.17 340.0   39 180  42  99
   2024 07 21 03:00  22 29 33.53    -09 46 25.7   0.0584 1.0633 143.0  m  20?   0.17 340.5   39 183  41  99
   2024 07 21 03:10  22 29 33.49    -09 46 24.1   0.0584 1.0633 143.0 Am  20?   0.17 341.3   39 187  41  99
   2024 07 21 03:20  22 29 33.46    -09 46 22.4   0.0584 1.0633 143.0 Am  20?   0.18 342.4   38 190  41  99
   2024 07 21 03:30  22 29 33.42    -09 46 20.7   0.0584 1.0633 143.0 Am  20?   0.18 343.7   38 193  41  99
   2024 07 21 03:40  22 29 33.39    -09 46 19.0   0.0584 1.0633 143.0 Am  20?   0.18 345.3   38 196  41  99
   2024 07 21 03:50  22 29 33.36    -09 46 17.2   0.0584 1.0633 143.0 Nm  20?   0.18 347.1   37 199  41  99
   2024 07 21 04:00  22 29 33.33    -09 46 15.4   0.0584 1.0633 143.0 Nm  20?   0.18 349.1   36 202  41  99
   2024 07 21 04:10  22 29 33.31    -09 46 13.6   0.0583 1.0633 143.0 Nm  20?   0.19 351.4   36 205  41  99
   2024 07 21 04:20  22 29 33.30    -09 46 11.7   0.0583 1.0633 143.0 Nm  20?   0.19 353.9   35 208  41  99
   2024 07 21 04:30  22 29 33.29    -09 46 09.8   0.0583 1.0633 143.0 Cm  20?   0.19 356.6   34 211  41  99
   2024 07 21 04:40  22 29 33.28    -09 46 07.9   0.0583 1.0632 143.1 C   20?   0.20 359.4   33 213  41  99
   2024 07 21 04:50  22 29 33.28    -09 46 05.9   0.0583 1.0632 143.1 C   20?   0.20   2.5   32 216  41  99
   ................
   2024 07 21 21:20  22 30 14.12    -09 43 21.1   0.0569 1.0623 143.5 Ar  20?   0.36  79.3    0 102  30  99
   2024 07 21 21:30  22 30 14.36    -09 43 20.5   0.0569 1.0623 143.5 Am  20?   0.34  78.6    2 104  30  99
   2024 07 21 21:40  22 30 14.57    -09 43 19.8   0.0569 1.0623 143.6  m  20?   0.32  77.6    3 106  30  99
   2024 07 21 21:50  22 30 14.78    -09 43 19.1   0.0569 1.0623 143.6  m  20?   0.30  76.6    5 107  30  99
   2024 07 21 22:00  22 30 14.96    -09 43 18.4   0.0568 1.0623 143.6  m  20?   0.28  75.3    7 109  29  99
   2024 07 21 22:10  22 30 15.14    -09 43 17.7   0.0568 1.0623 143.6  m  20?   0.26  73.8    9 111  29  99
   2024 07 21 22:20  22 30 15.29    -09 43 17.0   0.0568 1.0623 143.6  m  20?   0.24  72.1   10 113  29  99
   2024 07 21 22:30  22 30 15.44    -09 43 16.3   0.0568 1.0623 143.6  m  20?   0.22  70.1   12 114  29  99
   2024 07 21 22:40  22 30 15.57    -09 43 15.5   0.0568 1.0623 143.6  m  20?   0.20  67.7   14 116  29  99
   2024 07 21 22:50  22 30 15.69    -09 43 14.8   0.0568 1.0622 143.6  m  20?   0.18  64.8   16 118  29  99
   2024 07 21 23:00  22 30 15.79    -09 43 14.0   0.0567 1.0622 143.6  m  20?   0.16  61.3   17 120  29  99
   2024 07 21 23:10  22 30 15.88    -09 43 13.2   0.0567 1.0622 143.6  m  20?   0.15  57.2   19 122  29  99
   2024 07 21 23:20  22 30 15.96    -09 43 12.4   0.0567 1.0622 143.6  m  20?   0.14  52.3   20 124  29  99
   2024 07 21 23:30  22 30 16.03    -09 43 11.5   0.0567 1.0622 143.6  m  20?   0.12  46.5   22 126  29  99
   2024 07 21 23:40  22 30 16.08    -09 43 10.7   0.0567 1.0622 143.6  m  20?   0.11  39.8   23 128  29  99
   2024 07 21 23:50  22 30 16.13    -09 43 09.8   0.0567 1.0622 143.6  m  20?   0.11  32.2   25 130  29  99
   2024 07 22 00:00  22 30 16.16    -09 43 08.8   0.0567 1.0622 143.6  m  20?   0.10  24.0   26 133  29  99
   2024 07 22 00:10  22 30 16.19    -09 43 07.9   0.0566 1.0622 143.6  m  20?   0.10  15.6   28 135  29  99
   2024 07 22 00:20  22 30 16.20    -09 43 06.9   0.0566 1.0622 143.7  m  20?   0.10   7.4   29 137  29  99
   2024 07 22 00:30  22 30 16.20    -09 43 05.9   0.0566 1.0622 143.7  m  20?   0.10 359.7   30 140  28  99
   2024 07 22 00:40  22 30 16.20    -09 43 04.9   0.0566 1.0621 143.7  m  20?   0.11 353.0   31 142  28  99
   2024 07 22 00:50  22 30 16.19    -09 43 03.8   0.0566 1.0621 143.7  m  20?   0.11 347.2   33 145  28  99
   2024 07 22 01:00  22 30 16.17    -09 43 02.7   0.0566 1.0621 143.7  m  20?   0.12 342.5   34 148  28  99
   2024 07 22 01:10  22 30 16.14    -09 43 01.6   0.0565 1.0621 143.7  m  20?   0.12 338.6   35 151  28  99
   2024 07 22 01:20  22 30 16.11    -09 43 00.4   0.0565 1.0621 143.7  m  20?   0.13 335.4   35 153  28  99
   2024 07 22 01:30  22 30 16.07    -09 42 59.2   0.0565 1.0621 143.7  m  20?   0.14 333.0   36 156  28  99
   2024 07 22 01:40  22 30 16.02    -09 42 58.0   0.0565 1.0621 143.7  m  20?   0.14 331.1   37 159  28  99
   2024 07 22 01:50  22 30 15.97    -09 42 56.7   0.0565 1.0621 143.7  m  20?   0.15 329.6   37 162  28  99
   2024 07 22 02:00  22 30 15.92    -09 42 55.4   0.0565 1.0621 143.7  m  20?   0.16 328.7   38 165  28  99
   2024 07 22 02:10  22 30 15.86    -09 42 54.0   0.0565 1.0621 143.7  m  20?   0.16 328.0   38 169  28  99
   2024 07 22 02:20  22 30 15.81    -09 42 52.7   0.0564 1.0621 143.7  m  20?   0.17 327.7   39 172  28  99
   2024 07 22 02:30  22 30 15.75    -09 42 51.2   0.0564 1.0620 143.7  m  20?   0.17 327.7   39 175  28  99
   2024 07 22 02:40  22 30 15.68    -09 42 49.8   0.0564 1.0620 143.7  m  20?   0.17 328.0   39 178  28  99
   2024 07 22 02:50  22 30 15.62    -09 42 48.3   0.0564 1.0620 143.8  t  20?   0.18 328.6   39 181  27  99
   2024 07 22 03:00  22 30 15.56    -09 42 46.8   0.0564 1.0620 143.8  m  20?   0.18 329.4   39 184  27  99
   2024 07 22 03:10  22 30 15.50    -09 42 45.2   0.0564 1.0620 143.8 Am  20?   0.18 330.4   39 188  27  99
   2024 07 22 03:20  22 30 15.44    -09 42 43.6   0.0564 1.0620 143.8 Am  20?   0.18 331.7   38 191  27  99
   2024 07 22 03:30  22 30 15.38    -09 42 42.0   0.0563 1.0620 143.8 Am  20?   0.19 333.2   38 194  27  99
   2024 07 22 03:40  22 30 15.33    -09 42 40.3   0.0563 1.0620 143.8 Am  20?   0.19 334.9   37 197  27  99
   2024 07 22 03:50  22 30 15.27    -09 42 38.6   0.0563 1.0620 143.8 Am  20?   0.19 336.9   37 200  27  99
   2024 07 22 04:00  22 30 15.23    -09 42 36.8   0.0563 1.0620 143.8 Nm  20?   0.19 339.2   36 203  27  99
   2024 07 22 04:10  22 30 15.18    -09 42 35.0   0.0563 1.0620 143.8 Nm  20?   0.19 341.7   35 206  27  99
   2024 07 22 04:20  22 30 15.15    -09 42 33.2   0.0563 1.0619 143.8 Nm  20?   0.19 344.4   34 209  27  99
   2024 07 22 04:30  22 30 15.12    -09 42 31.4   0.0563 1.0619 143.8 Cm  20?   0.19 347.3   33 211  27  99
   2024 07 22 04:40  22 30 15.09    -09 42 29.5   0.0563 1.0619 143.8 Cm  20?   0.19 350.5   32 214  27  99
   2024 07 22 04:50  22 30 15.07    -09 42 27.6   0.0562 1.0619 143.8 Cm  20?   0.19 353.9   31 217  26  99
   ................
   2024 07 22 21:20  22 30 55.25    -09 39 50.0   0.0549 1.0610 144.3 Am  20?   0.33  80.1    0 103  16  96
   2024 07 22 21:30  22 30 55.46    -09 39 49.4   0.0548 1.0610 144.3 Am  20?   0.31  79.3    2 105  16  96
   2024 07 22 21:40  22 30 55.66    -09 39 48.9   0.0548 1.0610 144.3  m  20?   0.29  78.3    4 106  15  96
   2024 07 22 21:50  22 30 55.84    -09 39 48.3   0.0548 1.0610 144.3  m  20?   0.26  77.1    6 108  15  96
   2024 07 22 22:00  22 30 56.01    -09 39 47.7   0.0548 1.0610 144.3  m  20?   0.24  75.7    8 110  15  96
   2024 07 22 22:10  22 30 56.16    -09 39 47.1   0.0548 1.0609 144.3  m  20?   0.22  73.9    9 111  15  96
   2024 07 22 22:20  22 30 56.30    -09 39 46.5   0.0548 1.0609 144.4  m  20?   0.20  71.9   11 113  15  96
   2024 07 22 22:30  22 30 56.42    -09 39 45.8   0.0548 1.0609 144.4  m  20?   0.18  69.3   13 115  15  96
   2024 07 22 22:40  22 30 56.53    -09 39 45.2   0.0547 1.0609 144.4  m  20?   0.16  66.2   15 117  15  96
   2024 07 22 22:50  22 30 56.62    -09 39 44.5   0.0547 1.0609 144.4  m  20?   0.15  62.3   16 119  15  96
   2024 07 22 23:00  22 30 56.70    -09 39 43.8   0.0547 1.0609 144.4  m  20?   0.13  57.5   18 121  15  96
   2024 07 22 23:10  22 30 56.77    -09 39 43.1   0.0547 1.0609 144.4  m  20?   0.12  51.5   19 123  15  96
   2024 07 22 23:20  22 30 56.83    -09 39 42.4   0.0547 1.0609 144.4  m  20?   0.10  44.1   21 125  15  96
   2024 07 22 23:30  22 30 56.87    -09 39 41.6   0.0547 1.0609 144.4  m  20?   0.09  35.1   23 127  15  96
   2024 07 22 23:40  22 30 56.90    -09 39 40.8   0.0546 1.0609 144.4  m  20?   0.09  24.9   24 129  15  96
   2024 07 22 23:50  22 30 56.92    -09 39 40.0   0.0546 1.0608 144.4  m  20?   0.08  13.9   25 131  14  96
   2024 07 23 00:00  22 30 56.93    -09 39 39.2   0.0546 1.0608 144.4  m  20?   0.09   3.0   27 133  14  96
   2024 07 23 00:10  22 30 56.93    -09 39 38.3   0.0546 1.0608 144.4  m  20?   0.09 353.1   28 136  14  96
   2024 07 23 00:20  22 30 56.91    -09 39 37.4   0.0546 1.0608 144.4  m  20?   0.09 344.6   29 138  14  96
   2024 07 23 00:30  22 30 56.89    -09 39 36.5   0.0546 1.0608 144.4  m  20?   0.10 337.8   31 141  14  96
   2024 07 23 00:40  22 30 56.86    -09 39 35.5   0.0546 1.0608 144.4  m  20?   0.11 332.3   32 143  14  96
   2024 07 23 00:50  22 30 56.82    -09 39 34.6   0.0545 1.0608 144.5  m  20?   0.12 328.0   33 146  14  96
   2024 07 23 01:00  22 30 56.78    -09 39 33.5   0.0545 1.0608 144.5  m  20?   0.13 324.7   34 149  14  96
   2024 07 23 01:10  22 30 56.72    -09 39 32.5   0.0545 1.0608 144.5  m  20?   0.14 322.1   35 151  14  96
   2024 07 23 01:20  22 30 56.66    -09 39 31.4   0.0545 1.0608 144.5  m  20?   0.14 320.1   36 154  14  96
   2024 07 23 01:30  22 30 56.60    -09 39 30.2   0.0545 1.0608 144.5  m  20?   0.15 318.7   36 157  14  96
   2024 07 23 01:40  22 30 56.53    -09 39 29.1   0.0545 1.0607 144.5  m  20?   0.16 317.6   37 160  14  96
   2024 07 23 01:50  22 30 56.45    -09 39 27.9   0.0545 1.0607 144.5  m  20?   0.17 316.9   38 163  14  96
   2024 07 23 02:00  22 30 56.38    -09 39 26.6   0.0544 1.0607 144.5  m  20?   0.17 316.5   38 166  14  96
   2024 07 23 02:10  22 30 56.29    -09 39 25.4   0.0544 1.0607 144.5  m  20?   0.18 316.4   39 170  13  96
   2024 07 23 02:20  22 30 56.21    -09 39 24.1   0.0544 1.0607 144.5  m  20?   0.18 316.5   39 173  13  96
   2024 07 23 02:30  22 30 56.12    -09 39 22.7   0.0544 1.0607 144.5  m  20?   0.19 316.9   39 176  13  96
   2024 07 23 02:40  22 30 56.04    -09 39 21.3   0.0544 1.0607 144.5  m  20?   0.19 317.4   39 179  13  96
   2024 07 23 02:50  22 30 55.95    -09 39 19.9   0.0544 1.0607 144.5  t  20?   0.19 318.2   39 182  13  96
   2024 07 23 03:00  22 30 55.86    -09 39 18.4   0.0544 1.0607 144.5  m  20?   0.20 319.2   39 186  13  96
   2024 07 23 03:10  22 30 55.78    -09 39 16.9   0.0543 1.0607 144.5 Am  20?   0.20 320.3   39 189  13  96
   2024 07 23 03:20  22 30 55.69    -09 39 15.4   0.0543 1.0607 144.6 Am  20?   0.20 321.7   38 192  13  96
   2024 07 23 03:30  22 30 55.61    -09 39 13.8   0.0543 1.0606 144.6 Am  20?   0.20 323.3   38 195  13  96
   2024 07 23 03:40  22 30 55.53    -09 39 12.2   0.0543 1.0606 144.6 Am  20?   0.20 325.1   37 198  13  96
   2024 07 23 03:50  22 30 55.46    -09 39 10.5   0.0543 1.0606 144.6 Am  20?   0.20 327.1   37 201  13  95
   2024 07 23 04:00  22 30 55.39    -09 39 08.8   0.0543 1.0606 144.6 Nm  20?   0.20 329.4   36 204  13  95
   2024 07 23 04:10  22 30 55.32    -09 39 07.1   0.0543 1.0606 144.6 Nm  20?   0.20 331.9   35 207  13  95
   2024 07 23 04:20  22 30 55.26    -09 39 05.3   0.0542 1.0606 144.6 Nm  20?   0.20 334.7   34 210  12  95
   2024 07 23 04:30  22 30 55.21    -09 39 03.5   0.0542 1.0606 144.6 Nm  20?   0.20 337.8   33 212  12  95
   2024 07 23 04:40  22 30 55.16    -09 39 01.7   0.0542 1.0606 144.6 Cm  20?   0.20 341.1   32 215  12  95
   2024 07 23 04:50  22 30 55.12    -09 38 59.8   0.0542 1.0606 144.6 Cm  20?   0.20 344.7   31 218  12  95
   ................
   2024 07 23 21:10  22 31 34.40    -09 36 30.5   0.0529 1.0596 145.1 Ar  20?   0.32  81.9    0 102   4  91
   2024 07 23 21:20  22 31 34.61    -09 36 30.0   0.0528 1.0596 145.1 Am  20?   0.30  81.2    1 103   4  91
   2024 07 23 21:30  22 31 34.80    -09 36 29.5   0.0528 1.0596 145.1 Am  20?   0.28  80.3    3 105   4  91
   2024 07 23 21:40  22 31 34.98    -09 36 29.1   0.0528 1.0596 145.1  m  20?   0.25  79.2    5 107   4  91
   2024 07 23 21:50  22 31 35.14    -09 36 28.6   0.0528 1.0596 145.1  m  20?   0.23  77.8    6 108   3  91
   2024 07 23 22:00  22 31 35.28    -09 36 28.1   0.0528 1.0596 145.1  m  20?   0.21  76.2    8 110   3  91
   2024 07 23 22:10  22 31 35.41    -09 36 27.6   0.0528 1.0596 145.1  m  20?   0.19  74.1   10 112   3  91
   2024 07 23 22:20  22 31 35.53    -09 36 27.1   0.0527 1.0596 145.1  m  20?   0.17  71.5   12 114   3  91
   2024 07 23 22:30  22 31 35.63    -09 36 26.5   0.0527 1.0596 145.1  m  20?   0.15  68.2   13 116   3  91
   2024 07 23 22:40  22 31 35.71    -09 36 26.0   0.0527 1.0596 145.1  m  20?   0.13  63.8   15 117   3  91
   2024 07 23 22:50  22 31 35.78    -09 36 25.4   0.0527 1.0595 145.2  m  20?   0.11  58.1   17 119   3  91
   2024 07 23 23:00  22 31 35.84    -09 36 24.8   0.0527 1.0595 145.2  m  20?   0.09  50.5   18 121   3  91
   2024 07 23 23:10  22 31 35.88    -09 36 24.2   0.0527 1.0595 145.2  m  20?   0.08  40.5   20 123   3  91
   2024 07 23 23:20  22 31 35.91    -09 36 23.6   0.0527 1.0595 145.2  m  20?   0.07  27.8   22 125   3  91
   2024 07 23 23:30  22 31 35.93    -09 36 22.9   0.0526 1.0595 145.2  m  20?   0.07  13.2   23 127   3  91
   2024 07 23 23:40  22 31 35.93    -09 36 22.2   0.0526 1.0595 145.2  m  20?   0.07 358.5   25 130   3  90
   2024 07 23 23:50  22 31 35.92    -09 36 21.5   0.0526 1.0595 145.2  m  20?   0.08 345.5   26 132   3  90
   2024 07 24 00:00  22 31 35.91    -09 36 20.8   0.0526 1.0595 145.2  m  20?   0.08 335.2   27 134   3  90
   2024 07 24 00:10  22 31 35.88    -09 36 20.0   0.0526 1.0595 145.2  m  20?   0.09 327.4   29 137   3  90
   2024 07 24 00:20  22 31 35.84    -09 36 19.2   0.0526 1.0595 145.2  m  20?   0.10 321.6   30 139   3  90
   2024 07 24 00:30  22 31 35.79    -09 36 18.3   0.0525 1.0594 145.2  m  20?   0.12 317.3   31 142   3  90
   2024 07 24 00:40  22 31 35.73    -09 36 17.5   0.0525 1.0594 145.2  m  20?   0.13 314.1   32 144   3  90
   2024 07 24 00:50  22 31 35.67    -09 36 16.6   0.0525 1.0594 145.2  m  20?   0.14 311.7   33 147   3  90
   2024 07 24 01:00  22 31 35.59    -09 36 15.6   0.0525 1.0594 145.2  m  20?   0.15 309.9   34 150   3  90
   2024 07 24 01:10  22 31 35.51    -09 36 14.6   0.0525 1.0594 145.3  m  20?   0.16 308.6   35 152   3  90
   2024 07 24 01:20  22 31 35.42    -09 36 13.6   0.0525 1.0594 145.3  m  20?   0.17 307.6   36 155   3  90
   2024 07 24 01:30  22 31 35.33    -09 36 12.6   0.0525 1.0594 145.3  m  20?   0.18 307.0   37 158   3  90
   2024 07 24 01:40  22 31 35.23    -09 36 11.5   0.0524 1.0594 145.3  m  20?   0.19 306.6   37 161   3  90
   2024 07 24 01:50  22 31 35.13    -09 36 10.4   0.0524 1.0594 145.3  m  20?   0.19 306.5   38 164   3  90
   2024 07 24 02:00  22 31 35.03    -09 36 09.2   0.0524 1.0594 145.3  m  20?   0.20 306.5   38 167   3  90
   2024 07 24 02:10  22 31 34.92    -09 36 08.0   0.0524 1.0593 145.3  m  20?   0.20 306.7   39 171   3  90
   2024 07 24 02:20  22 31 34.80    -09 36 06.8   0.0524 1.0593 145.3  m  20?   0.21 307.1   39 174   3  90
   2024 07 24 02:30  22 31 34.69    -09 36 05.5   0.0524 1.0593 145.3  m  20?   0.21 307.7   39 177   3  90
   2024 07 24 02:40  22 31 34.58    -09 36 04.2   0.0524 1.0593 145.3  t  20?   0.22 308.4   39 180   3  90
   2024 07 24 02:50  22 31 34.46    -09 36 02.8   0.0523 1.0593 145.3  m  20?   0.22 309.2   39 183   3  90
   2024 07 24 03:00  22 31 34.35    -09 36 01.4   0.0523 1.0593 145.3  m  20?   0.22 310.3   39 187   3  90
   2024 07 24 03:10  22 31 34.24    -09 36 00.0   0.0523 1.0593 145.3 Am  20?   0.22 311.5   39 190   3  90
   2024 07 24 03:20  22 31 34.13    -09 35 58.5   0.0523 1.0593 145.3 Am  20?   0.22 312.8   38 193   3  90
   2024 07 24 03:30  22 31 34.02    -09 35 57.0   0.0523 1.0593 145.3 Am  20?   0.22 314.4   38 196   3  90
   2024 07 24 03:40  22 31 33.92    -09 35 55.4   0.0523 1.0593 145.4 Am  20?   0.22 316.1   37 199   3  90
   2024 07 24 03:50  22 31 33.82    -09 35 53.8   0.0523 1.0593 145.4 Am  20?   0.22 318.1   36 202   3  90
   2024 07 24 04:00  22 31 33.72    -09 35 52.2   0.0523 1.0592 145.4 Nm  20?   0.21 320.3   36 205   4  90
   2024 07 24 04:10  22 31 33.63    -09 35 50.5   0.0522 1.0592 145.4 Nm  20?   0.21 322.7   35 208   4  90
   2024 07 24 04:20  22 31 33.55    -09 35 48.8   0.0522 1.0592 145.4 Nm  20?   0.21 325.4   34 211   4  90
   2024 07 24 04:30  22 31 33.47    -09 35 47.1   0.0522 1.0592 145.4 Nm  20?   0.21 328.4   33 213   4  90
   2024 07 24 04:40  22 31 33.40    -09 35 45.3   0.0522 1.0592 145.4 Cm  20?   0.20 331.7   32 216   4  89
   2024 07 24 04:50  22 31 33.34    -09 35 43.5   0.0522 1.0592 145.4 Cm  20?   0.20 335.3   31 219   4  89
   ................
   2024 07 24 21:10  22 32 11.91    -09 33 22.4   0.0508 1.0582 145.9 A   19?   0.29  83.3    0 102  13  83
   2024 07 24 21:20  22 32 12.10    -09 33 22.1   0.0508 1.0582 145.9 A   19?   0.27  82.6    2 104  13  83
   2024 07 24 21:30  22 32 12.27    -09 33 21.7   0.0508 1.0582 145.9 A   19?   0.24  81.6    3 106  13  83
   2024 07 24 21:40  22 32 12.42    -09 33 21.4   0.0508 1.0582 145.9     19?   0.22  80.5    5 107  13  83
   2024 07 24 21:50  22 32 12.56    -09 33 21.0   0.0508 1.0582 145.9  m  19?   0.19  78.9    7 109  13  83
   2024 07 24 22:00  22 32 12.68    -09 33 20.6   0.0508 1.0582 145.9  m  19?   0.17  77.0    9 111  13  83
   2024 07 24 22:10  22 32 12.79    -09 33 20.2   0.0507 1.0582 145.9  m  19?   0.15  74.4   11 112  14  83
   2024 07 24 22:20  22 32 12.88    -09 33 19.8   0.0507 1.0582 145.9  m  19?   0.13  71.0   12 114  14  83
   2024 07 24 22:30  22 32 12.95    -09 33 19.4   0.0507 1.0582 145.9  m  19?   0.11  66.1   14 116  14  83
   2024 07 24 22:40  22 32 13.01    -09 33 18.9   0.0507 1.0582 145.9  m  19?   0.09  59.2   16 118  14  83
   2024 07 24 22:50  22 32 13.05    -09 33 18.5   0.0507 1.0582 145.9  m  19?   0.07  49.0   17 120  14  83
   2024 07 24 23:00  22 32 13.08    -09 33 18.0   0.0507 1.0581 146.0  m  19?   0.06  34.2   19 122  14  83
   2024 07 24 23:10  22 32 13.10    -09 33 17.5   0.0507 1.0581 146.0  m  19?   0.05  14.5   21 124  14  83
   2024 07 24 23:20  22 32 13.10    -09 33 17.0   0.0506 1.0581 146.0  m  19?   0.06 353.6   22 126  14  83
   2024 07 24 23:30  22 32 13.09    -09 33 16.4   0.0506 1.0581 146.0  m  19?   0.06 336.4   24 128  14  83
   2024 07 24 23:40  22 32 13.07    -09 33 15.8   0.0506 1.0581 146.0  m  19?   0.07 324.3   25 130  14  83
   2024 07 24 23:50  22 32 13.03    -09 33 15.2   0.0506 1.0581 146.0  m  19?   0.09 316.1   26 133  14  83
   2024 07 25 00:00  22 32 12.99    -09 33 14.5   0.0506 1.0581 146.0  m  19?   0.10 310.6   28 135  14  83
   2024 07 25 00:10  22 32 12.93    -09 33 13.9   0.0506 1.0581 146.0  m  19?   0.12 306.7   29 137  15  82
   2024 07 25 00:20  22 32 12.86    -09 33 13.1   0.0506 1.0581 146.0  m  19?   0.13 303.9   30 140  15  82
   2024 07 25 00:30  22 32 12.78    -09 33 12.4   0.0505 1.0581 146.0  m  19?   0.14 302.0   32 142  15  82
   2024 07 25 00:40  22 32 12.70    -09 33 11.6   0.0505 1.0580 146.0  m  19?   0.16 300.5   33 145  15  82
   2024 07 25 00:50  22 32 12.60    -09 33 10.8   0.0505 1.0580 146.0  m  19?   0.17 299.5   34 148  15  82
   2024 07 25 01:00  22 32 12.50    -09 33 10.0   0.0505 1.0580 146.0  m  19?   0.18 298.7   35 150  15  82
   2024 07 25 01:10  22 32 12.39    -09 33 09.1   0.0505 1.0580 146.0  m  19?   0.19 298.3   36 153  15  82
   2024 07 25 01:20  22 32 12.27    -09 33 08.1   0.0505 1.0580 146.1  m  19?   0.20 298.0   36 156  15  82
   2024 07 25 01:30  22 32 12.15    -09 33 07.2   0.0505 1.0580 146.1  m  19?   0.21 297.9   37 159  15  82
   2024 07 25 01:40  22 32 12.02    -09 33 06.2   0.0504 1.0580 146.1  m  19?   0.22 298.0   38 162  15  82
   2024 07 25 01:50  22 32 11.89    -09 33 05.1   0.0504 1.0580 146.1  m  19?   0.22 298.1   38 165  15  82
   2024 07 25 02:00  22 32 11.75    -09 33 04.0   0.0504 1.0580 146.1  m  19?   0.23 298.4   39 168  15  82
   2024 07 25 02:10  22 32 11.62    -09 33 02.9   0.0504 1.0580 146.1  m  19?   0.24 298.9   39 172  15  82
   2024 07 25 02:20  22 32 11.48    -09 33 01.8   0.0504 1.0579 146.1  m  19?   0.24 299.4   39 175  16  82
   2024 07 25 02:30  22 32 11.33    -09 33 00.5   0.0504 1.0579 146.1  m  19?   0.24 300.1   39 178  16  82
   2024 07 25 02:40  22 32 11.19    -09 32 59.3   0.0504 1.0579 146.1  t  19?   0.25 300.8   39 181  16  82
   2024 07 25 02:50  22 32 11.05    -09 32 58.0   0.0503 1.0579 146.1  m  19?   0.25 301.7   39 184  16  82
   2024 07 25 03:00  22 32 10.91    -09 32 56.7   0.0503 1.0579 146.1  m  19?   0.25 302.8   39 188  16  82
   2024 07 25 03:10  22 32 10.77    -09 32 55.3   0.0503 1.0579 146.1 Am  19?   0.25 303.9   39 191  16  82
   2024 07 25 03:20  22 32 10.63    -09 32 53.9   0.0503 1.0579 146.1 Am  19?   0.25 305.2   38 194  16  82
   2024 07 25 03:30  22 32 10.49    -09 32 52.5   0.0503 1.0579 146.1 Am  19?   0.25 306.6   38 197  16  82
   2024 07 25 03:40  22 32 10.36    -09 32 51.0   0.0503 1.0579 146.2 Am  19?   0.24 308.3   37 200  16  82
   2024 07 25 03:50  22 32 10.24    -09 32 49.4   0.0503 1.0579 146.2 Am  19?   0.24 310.1   36 203  16  81
   2024 07 25 04:00  22 32 10.12    -09 32 47.9   0.0502 1.0578 146.2 Nm  19?   0.24 312.1   35 206  16  81
   2024 07 25 04:10  22 32 10.00    -09 32 46.3   0.0502 1.0578 146.2 Nm  19?   0.23 314.3   35 209  16  81
   2024 07 25 04:20  22 32 09.89    -09 32 44.6   0.0502 1.0578 146.2 Nm  19?   0.23 316.8   34 212  16  81
   2024 07 25 04:30  22 32 09.79    -09 32 43.0   0.0502 1.0578 146.2 Nm  19?   0.22 319.6   33 214  16  81
   2024 07 25 04:40  22 32 09.70    -09 32 41.2   0.0502 1.0578 146.2 Cm  19?   0.22 322.7   31 217  17  81
   2024 07 25 04:50  22 32 09.61    -09 32 39.5   0.0502 1.0578 146.2 Cm  19?   0.21 326.1   30 219  17  81
   ................
   2024 07 25 21:10  22 32 47.43    -09 30 27.5   0.0488 1.0568 146.7 A   19?   0.26  85.2    0 103  27  74
   2024 07 25 21:20  22 32 47.59    -09 30 27.3   0.0488 1.0568 146.7 A   19?   0.23  84.6    2 104  27  74
   2024 07 25 21:30  22 32 47.74    -09 30 27.0   0.0488 1.0568 146.7 A   19?   0.21  83.6    4 106  27  74
   2024 07 25 21:40  22 32 47.87    -09 30 26.8   0.0488 1.0568 146.7     19?   0.18  82.4    6 108  27  74
   2024 07 25 21:50  22 32 47.98    -09 30 26.6   0.0488 1.0568 146.7     19?   0.16  80.8    8 109  28  74
   2024 07 25 22:00  22 32 48.08    -09 30 26.3   0.0488 1.0568 146.7     19?   0.13  78.5    9 111  28  74
   2024 07 25 22:10  22 32 48.16    -09 30 26.0   0.0488 1.0568 146.7  m  19?   0.11  75.1   11 113  28  74
   2024 07 25 22:20  22 32 48.22    -09 30 25.8   0.0487 1.0568 146.7  m  19?   0.09  70.0   13 115  28  73
   2024 07 25 22:30  22 32 48.27    -09 30 25.5   0.0487 1.0568 146.7  m  19?   0.07  61.5   15 117  28  73
   2024 07 25 22:40  22 32 48.30    -09 30 25.1   0.0487 1.0567 146.7  m  19?   0.05  46.4   16 119  28  73
   2024 07 25 22:50  22 32 48.32    -09 30 24.8   0.0487 1.0567 146.8  m  19?   0.04  20.2   18 121  28  73
   2024 07 25 23:00  22 32 48.32    -09 30 24.4   0.0487 1.0567 146.8  m  19?   0.04 347.6   20 123  28  73
   2024 07 25 23:10  22 32 48.31    -09 30 24.0   0.0487 1.0567 146.8  m  19?   0.05 324.3   21 125  28  73
   2024 07 25 23:20  22 32 48.28    -09 30 23.6   0.0486 1.0567 146.8  m  19?   0.07 311.3   23 127  28  73
   2024 07 25 23:30  22 32 48.24    -09 30 23.1   0.0486 1.0567 146.8  m  19?   0.08 303.9   24 129  28  73
   2024 07 25 23:40  22 32 48.19    -09 30 22.7   0.0486 1.0567 146.8  m  19?   0.10 299.3   26 131  29  73
   2024 07 25 23:50  22 32 48.12    -09 30 22.2   0.0486 1.0567 146.8  m  19?   0.12 296.4   27 133  29  73
   2024 07 26 00:00  22 32 48.04    -09 30 21.6   0.0486 1.0567 146.8  m  19?   0.13 294.4   28 136  29  73
   2024 07 26 00:10  22 32 47.96    -09 30 21.0   0.0486 1.0567 146.8  m  19?   0.15 293.0   30 138  29  73
   2024 07 26 00:20  22 32 47.86    -09 30 20.4   0.0486 1.0566 146.8  m  19?   0.17 292.0   31 141  29  73
   2024 07 26 00:30  22 32 47.75    -09 30 19.8   0.0485 1.0566 146.8  m  19?   0.18 291.4   32 143  29  73
   2024 07 26 00:40  22 32 47.63    -09 30 19.1   0.0485 1.0566 146.8  m  19?   0.19 290.9   33 146  29  73
   2024 07 26 00:50  22 32 47.50    -09 30 18.4   0.0485 1.0566 146.8  m  19?   0.21 290.7   34 149  29  72
   2024 07 26 01:00  22 32 47.37    -09 30 17.6   0.0485 1.0566 146.8  m  19?   0.22 290.6   35 151  29  72
   2024 07 26 01:10  22 32 47.23    -09 30 16.8   0.0485 1.0566 146.8  m  19?   0.23 290.6   36 154  29  72
   2024 07 26 01:20  22 32 47.08    -09 30 16.0   0.0485 1.0566 146.9  m  19?   0.24 290.7   37 157  29  72
   2024 07 26 01:30  22 32 46.92    -09 30 15.1   0.0485 1.0566 146.9  m  19?   0.25 290.9   37 160  30  72
   2024 07 26 01:40  22 32 46.77    -09 30 14.2   0.0484 1.0566 146.9  m  19?   0.26 291.2   38 163  30  72
   2024 07 26 01:50  22 32 46.60    -09 30 13.3   0.0484 1.0566 146.9  m  19?   0.26 291.6   38 166  30  72
   2024 07 26 02:00  22 32 46.43    -09 30 12.3   0.0484 1.0566 146.9  m  19?   0.27 292.1   39 169  30  72
   2024 07 26 02:10  22 32 46.27    -09 30 11.2   0.0484 1.0565 146.9  m  19?   0.27 292.6   39 173  30  72
   2024 07 26 02:20  22 32 46.09    -09 30 10.2   0.0484 1.0565 146.9  m  19?   0.28 293.2   39 176  30  72
   2024 07 26 02:30  22 32 45.92    -09 30 09.0   0.0484 1.0565 146.9  m  19?   0.28 293.9   39 179  30  72
   2024 07 26 02:40  22 32 45.75    -09 30 07.9   0.0484 1.0565 146.9  t  19?   0.28 294.7   39 182  30  72
   2024 07 26 02:50  22 32 45.57    -09 30 06.7   0.0483 1.0565 146.9  m  19?   0.28 295.5   39 186  30  72
   2024 07 26 03:00  22 32 45.40    -09 30 05.4   0.0483 1.0565 146.9  m  19?   0.28 296.5   39 189  30  72
   2024 07 26 03:10  22 32 45.23    -09 30 04.1   0.0483 1.0565 146.9  m  19?   0.28 297.6   38 192  30  72
   2024 07 26 03:20  22 32 45.06    -09 30 02.8   0.0483 1.0565 146.9 Am  19?   0.28 298.8   38 195  30  72
   2024 07 26 03:30  22 32 44.90    -09 30 01.4   0.0483 1.0565 147.0 Am  19?   0.28 300.1   37 198  30  72
   2024 07 26 03:40  22 32 44.74    -09 30 00.0   0.0483 1.0565 147.0 Am  19?   0.27 301.5   37 201  30  72
   2024 07 26 03:50  22 32 44.59    -09 29 58.6   0.0483 1.0564 147.0 Am  19?   0.27 303.1   36 204  31  72
   2024 07 26 04:00  22 32 44.44    -09 29 57.1   0.0483 1.0564 147.0 Nm  19?   0.26 304.9   35 207  31  71
   2024 07 26 04:10  22 32 44.29    -09 29 55.5   0.0482 1.0564 147.0 Nm  19?   0.26 306.9   34 210  31  71
   2024 07 26 04:20  22 32 44.16    -09 29 54.0   0.0482 1.0564 147.0 Nm  19?   0.25 309.1   33 212  31  71
   2024 07 26 04:30  22 32 44.03    -09 29 52.4   0.0482 1.0564 147.0 Nm  19?   0.24 311.6   32 215  31  71
   2024 07 26 04:40  22 32 43.91    -09 29 50.7   0.0482 1.0564 147.0 Cm  19?   0.24 314.4   31 218  31  71
   2024 07 26 04:50  22 32 43.80    -09 29 49.0   0.0482 1.0564 147.0 Cm  19?   0.23 317.5   30 220  31  71
   ................
   2024 07 26 21:00  22 33 20.66    -09 27 47.0   0.0469 1.0554 147.5 Ar  19?   0.25  88.4    0 102  41  63
   2024 07 26 21:10  22 33 20.82    -09 27 46.9   0.0469 1.0554 147.5 A   19?   0.22  88.0    1 103  41  63
   2024 07 26 21:20  22 33 20.96    -09 27 46.9   0.0468 1.0554 147.5 A   19?   0.19  87.5    3 105  41  63
   2024 07 26 21:30  22 33 21.08    -09 27 46.8   0.0468 1.0554 147.5     19?   0.17  86.8    5 107  41  63
   2024 07 26 21:40  22 33 21.19    -09 27 46.7   0.0468 1.0554 147.5     19?   0.14  85.8    7 108  42  63
   2024 07 26 21:50  22 33 21.27    -09 27 46.6   0.0468 1.0554 147.5     19?   0.12  84.2    8 110  42  63
   2024 07 26 22:00  22 33 21.34    -09 27 46.4   0.0468 1.0554 147.5     19?   0.09  81.6   10 112  42  63
   2024 07 26 22:10  22 33 21.39    -09 27 46.3   0.0468 1.0553 147.5     19?   0.07  76.9   12 114  42  63
   2024 07 26 22:20  22 33 21.43    -09 27 46.1   0.0468 1.0553 147.5     19?   0.04  67.0   14 115  42  63
   2024 07 26 22:30  22 33 21.45    -09 27 46.0   0.0467 1.0553 147.6  m  19?   0.02  39.0   15 117  42  63
   2024 07 26 22:40  22 33 21.45    -09 27 45.8   0.0467 1.0553 147.6  m  19?   0.02 338.0   17 119  42  63
   2024 07 26 22:50  22 33 21.43    -09 27 45.5   0.0467 1.0553 147.6  m  19?   0.04 306.5   19 121  42  62
   2024 07 26 23:00  22 33 21.41    -09 27 45.3   0.0467 1.0553 147.6  m  19?   0.06 295.6   20 123  42  62
   2024 07 26 23:10  22 33 21.36    -09 27 45.0   0.0467 1.0553 147.6  m  19?   0.08 290.7   22 125  42  62
   2024 07 26 23:20  22 33 21.30    -09 27 44.7   0.0467 1.0553 147.6  m  19?   0.10 288.0   23 127  43  62
   2024 07 26 23:30  22 33 21.23    -09 27 44.4   0.0466 1.0553 147.6  m  19?   0.12 286.4   25 130  43  62
   2024 07 26 23:40  22 33 21.15    -09 27 44.0   0.0466 1.0553 147.6  m  19?   0.14 285.4   26 132  43  62
   2024 07 26 23:50  22 33 21.05    -09 27 43.7   0.0466 1.0552 147.6  m  19?   0.16 284.8   27 134  43  62
   2024 07 27 00:00  22 33 20.94    -09 27 43.2   0.0466 1.0552 147.6  m  19?   0.18 284.4   29 136  43  62
   2024 07 27 00:10  22 33 20.82    -09 27 42.8   0.0466 1.0552 147.6  m  19?   0.19 284.1   30 139  43  62
   2024 07 27 00:20  22 33 20.69    -09 27 42.3   0.0466 1.0552 147.6  m  19?   0.21 284.1   31 141  43  62
   2024 07 27 00:30  22 33 20.54    -09 27 41.7   0.0466 1.0552 147.6  m  19?   0.22 284.1   32 144  43  62
   2024 07 27 00:40  22 33 20.39    -09 27 41.2   0.0465 1.0552 147.6  m  19?   0.24 284.2   33 147  43  62
   2024 07 27 00:50  22 33 20.23    -09 27 40.6   0.0465 1.0552 147.6  m  19?   0.25 284.3   34 150  43  62
   2024 07 27 01:00  22 33 20.06    -09 27 39.9   0.0465 1.0552 147.7  m  19?   0.26 284.6   35 152  44  61
   2024 07 27 01:10  22 33 19.89    -09 27 39.2   0.0465 1.0552 147.7  m  19?   0.27 284.8   36 155  44  61
   2024 07 27 01:20  22 33 19.71    -09 27 38.5   0.0465 1.0552 147.7  m  19?   0.28 285.2   37 158  44  61
   2024 07 27 01:30  22 33 19.52    -09 27 37.7   0.0465 1.0551 147.7  m  19?   0.29 285.6   38 161  44  61
   2024 07 27 01:40  22 33 19.33    -09 27 36.9   0.0465 1.0551 147.7  m  19?   0.30 286.0   38 164  44  61
   2024 07 27 01:50  22 33 19.13    -09 27 36.1   0.0464 1.0551 147.7  m  19?   0.31 286.5   39 167  44  61
   2024 07 27 02:00  22 33 18.93    -09 27 35.2   0.0464 1.0551 147.7  m  19?   0.31 287.0   39 171  44  61
   2024 07 27 02:10  22 33 18.72    -09 27 34.2   0.0464 1.0551 147.7  m  19?   0.32 287.6   39 174  44  61
   2024 07 27 02:20  22 33 18.52    -09 27 33.2   0.0464 1.0551 147.7  m  19?   0.32 288.2   39 177  44  61
   2024 07 27 02:30  22 33 18.31    -09 27 32.2   0.0464 1.0551 147.7  t  19?   0.32 288.9   39 180  44  61
   2024 07 27 02:40  22 33 18.11    -09 27 31.1   0.0464 1.0551 147.7  m  19?   0.32 289.6   39 183  44  61
   2024 07 27 02:50  22 33 17.90    -09 27 30.0   0.0464 1.0551 147.7  m  19?   0.32 290.5   39 187  44  61
   2024 07 27 03:00  22 33 17.70    -09 27 28.9   0.0464 1.0551 147.7  m  19?   0.32 291.3   39 190  44  61
   2024 07 27 03:10  22 33 17.49    -09 27 27.7   0.0463 1.0550 147.8  m  19?   0.32 292.3   38 193  45  61
   2024 07 27 03:20  22 33 17.30    -09 27 26.4   0.0463 1.0550 147.8 Am  19?   0.32 293.4   38 196  45  61
   2024 07 27 03:30  22 33 17.10    -09 27 25.1   0.0463 1.0550 147.8 Am  19?   0.31 294.6   37 199  45  61
   2024 07 27 03:40  22 33 16.91    -09 27 23.8   0.0463 1.0550 147.8 Am  19?   0.31 295.8   37 202  45  61
   2024 07 27 03:50  22 33 16.73    -09 27 22.4   0.0463 1.0550 147.8 Am  19?   0.30 297.3   36 205  45  60
   2024 07 27 04:00  22 33 16.55    -09 27 21.0   0.0463 1.0550 147.8 Nm  19?   0.30 298.8   35 208  45  60
   2024 07 27 04:10  22 33 16.38    -09 27 19.6   0.0463 1.0550 147.8 Nm  19?   0.29 300.6   34 211  45  60
   2024 07 27 04:20  22 33 16.21    -09 27 18.1   0.0462 1.0550 147.8 Nm  19?   0.28 302.5   33 213  45  60
   2024 07 27 04:30  22 33 16.06    -09 27 16.5   0.0462 1.0550 147.8 Nm  19?   0.27 304.6   32 216  45  60
   2024 07 27 04:40  22 33 15.91    -09 27 15.0   0.0462 1.0549 147.8 Cm  19?   0.26 307.1   31 219  45  60
   2024 07 27 04:50  22 33 15.77    -09 27 13.4   0.0462 1.0549 147.8 Cm  19?   0.25 309.8   30 221  45  60
   2024 07 27 05:00  22 33 15.65    -09 27 11.7   0.0462 1.0549 147.8 Cm  19?   0.24 312.8   28 224  45  60
   ................
   2024 07 27 21:00  22 33 51.81    -09 25 22.0   0.0449 1.0540 148.3 A   19?   0.21  92.2    0 102  55  52
   2024 07 27 21:10  22 33 51.95    -09 25 22.0   0.0449 1.0539 148.3 A   19?   0.18  92.3    2 104  55  52
   2024 07 27 21:20  22 33 52.06    -09 25 22.1   0.0449 1.0539 148.3 A   19?   0.15  92.4    4 105  55  52
   2024 07 27 21:30  22 33 52.16    -09 25 22.2   0.0449 1.0539 148.3     19?   0.13  92.5    5 107  55  52
   2024 07 27 21:40  22 33 52.23    -09 25 22.2   0.0448 1.0539 148.3     19?   0.10  92.5    7 109  55  52
   2024 07 27 21:50  22 33 52.29    -09 25 22.3   0.0448 1.0539 148.3     19?   0.07  92.3    9 111  56  52
   2024 07 27 22:00  22 33 52.33    -09 25 22.3   0.0448 1.0539 148.4     19?   0.05  91.6   11 112  56  52
   2024 07 27 22:10  22 33 52.35    -09 25 22.3   0.0448 1.0539 148.4     19?   0.02  88.5   12 114  56  52
   2024 07 27 22:20  22 33 52.36    -09 25 22.3   0.0448 1.0539 148.4     19?   0.01 292.2   14 116  56  51
   2024 07 27 22:30  22 33 52.34    -09 25 22.2   0.0448 1.0539 148.4     19?   0.03 278.4   16 118  56  51
   2024 07 27 22:40  22 33 52.31    -09 25 22.2   0.0448 1.0539 148.4     19?   0.06 277.1   17 120  56  51
   2024 07 27 22:50  22 33 52.27    -09 25 22.1   0.0447 1.0538 148.4     19?   0.08 276.8   19 122  56  51
   2024 07 27 23:00  22 33 52.21    -09 25 22.0   0.0447 1.0538 148.4  m  19?   0.10 276.7   21 124  56  51
   2024 07 27 23:10  22 33 52.13    -09 25 21.9   0.0447 1.0538 148.4  m  19?   0.13 276.8   22 126  56  51
   2024 07 27 23:20  22 33 52.04    -09 25 21.7   0.0447 1.0538 148.4  m  19?   0.15 277.0   24 128  57  51
   2024 07 27 23:30  22 33 51.93    -09 25 21.5   0.0447 1.0538 148.4  m  19?   0.17 277.2   25 130  57  51
   2024 07 27 23:40  22 33 51.81    -09 25 21.3   0.0447 1.0538 148.4  m  19?   0.19 277.4   27 133  57  51
   2024 07 27 23:50  22 33 51.68    -09 25 21.0   0.0446 1.0538 148.4  m  19?   0.21 277.7   28 135  57  51
   2024 07 28 00:00  22 33 51.54    -09 25 20.7   0.0446 1.0538 148.4  m  19?   0.23 277.9   29 137  57  51
   

TESS (JPL-ID: -95)

   Date (UTC) HH:MM   RA              Dec         delta   r     elong SM  mag  '/hr    PA   alt  az moo ill
   ---- -- -- -----  -------------   -----------  ------ ------ ----- --  --- ------ ------ --- --- --- ---
   2024 07 14 03:10  07 29 10.16    +39 29 25.6   171843 1.0154  17.8 A   14? 139.33  60.2    0  32  96  51
   2024 07 14 03:20  07 30 54.65    +39 41 03.2   171390 1.0154  18.0 A   14? 139.63  60.1    0  33  95  51
   2024 07 14 03:30  07 32 39.59    +39 52 43.4   170936 1.0154  18.2 A   14? 139.92  60.1    1  34  95  51
   2024 07 14 03:40  07 34 24.99    +40 04 26.0   170479 1.0154  18.4 A   14? 140.17  60.0    2  35  95  51
   2024 07 14 03:50  07 36 10.82    +40 16 10.8   170020 1.0154  18.6 N   14? 140.40  60.0    3  37  95  51
   2024 07 14 04:00  07 37 57.07    +40 27 57.6   169561 1.0154  18.8 N   14? 140.61  59.9    4  38  95  52
   2024 07 14 04:10  07 39 43.74    +40 39 46.3   169099 1.0154  19.0 N   14? 140.79  59.9    6  39  94  52
   2024 07 14 04:20  07 41 30.81    +40 51 36.6   168637 1.0154  19.2 N   14? 140.94  59.9    7  40  94  52
   2024 07 14 04:30  07 43 18.27    +41 03 28.2   168174 1.0154  19.4 C   14? 141.07  59.8    8  41  94  52
   2024 07 14 04:40  07 45 06.11    +41 15 21.1   167711 1.0154  19.7 C   13? 141.17  59.8    9  42  94  52
   ................
   2024 07 14 20:00  11 01 45.52    +48 46 40.3   139417 1.0158  48.6 Cm  12? 163.76 107.3   45 302  74  58
   2024 07 14 20:10  11 04 23.97    +48 38 24.0   139331 1.0158  49.0 Cm  12? 165.25 107.8   44 302  74  58
   2024 07 14 20:20  11 07 02.96    +48 29 49.1   139250 1.0159  49.3 Nm  12? 166.74 108.3   42 303  73  58
   2024 07 14 20:30  11 09 42.46    +48 20 55.9   139173 1.0159  49.7 Nm  12? 168.23 108.8   41 303  73  58
   2024 07 14 20:40  11 12 22.45    +48 11 44.5   139100 1.0159  50.1 Nm  12? 169.72 109.3   40 303  73  58
   2024 07 14 20:50  11 15 02.89    +48 02 15.3   139032 1.0159  50.5 Nm  12? 171.19 109.7   39 304  72  58
   2024 07 14 21:00  11 17 43.76    +47 52 28.4   138968 1.0159  50.9 Am  12? 172.66 110.2   38 304  72  58
   2024 07 14 21:10  11 20 25.03    +47 42 24.1   138908 1.0159  51.3 Am  12? 174.12 110.6   36 304  71  58
   2024 07 14 21:20  11 23 06.68    +47 32 02.6   138852 1.0159  51.8 Am  12? 175.57 111.0   35 305  71  58
   2024 07 14 21:30  11 25 48.66    +47 21 24.3   138801 1.0159  52.2 Am  12? 177.00 111.4   34 305  71  58
   2024 07 14 21:40  11 28 30.96    +47 10 29.3   138754 1.0159  52.6 Am  12? 178.42 111.8   33 306  70  59
   2024 07 14 21:50  11 31 13.54    +46 59 18.1   138711 1.0159  53.0  m  12? 179.82 112.2   32 306  70  59
   2024 07 14 22:00  11 33 56.38    +46 47 50.8   138672 1.0159  53.5  m  12? 181.19 112.5   30 307  70  59
   2024 07 14 22:10  11 36 39.43    +46 36 07.8   138637 1.0159  53.9  m  12? 182.55 112.9   29 307  69  59
   2024 07 14 22:20  11 39 22.67    +46 24 09.3   138606 1.0159  54.3  m  12? 183.89 113.2   28 308  69  59
   2024 07 14 22:30  11 42 06.08    +46 11 55.7   138579 1.0159  54.8  m  12? 185.20 113.6   27 308  68  59
   2024 07 14 22:40  11 44 49.61    +45 59 27.2   138556 1.0159  55.2  m  12? 186.48 113.9   26 309  68  59
   2024 07 14 22:50  11 47 33.24    +45 46 44.3   138536 1.0159  55.7  m  12? 187.74 114.2   24 309  68  59
   2024 07 14 23:00  11 50 16.93    +45 33 47.1   138520 1.0160  56.1  m  12? 188.97 114.5   23 310  67  59
   2024 07 14 23:10  11 53 00.65    +45 20 36.1   138508 1.0160  56.6  m  12? 190.17 114.8   22 311  67  59
   2024 07 14 23:20  11 55 44.38    +45 07 11.6   138499 1.0160  57.1  m  12? 191.34 115.0   21 311  66  59
   2024 07 14 23:30  11 58 28.09    +44 53 33.9   138494 1.0160  57.5  m  12? 192.47 115.3   20 312  66  59
   2024 07 14 23:40  12 01 11.73    +44 39 43.2   138492 1.0160  58.0  m  12? 193.57 115.6   19 312  66  59
   2024 07 14 23:50  12 03 55.28    +44 25 40.1   138493 1.0160  58.5  m  12? 194.64 115.8   17 313  65  59
   2024 07 15 00:00  12 06 38.71    +44 11 24.7   138497 1.0160  59.0     12? 195.68 116.1   16 314  65  59
   2024 07 15 00:10  12 09 21.99    +43 56 57.5   138505 1.0160  59.5     12? 196.68 116.3   15 315  64  59
   2024 07 15 00:20  12 12 05.08    +43 42 18.8   138515 1.0160  60.0     12? 197.64 116.5   14 315  64  59
   2024 07 15 00:30  12 14 47.97    +43 27 28.8   138529 1.0160  60.5     12? 198.56 116.7   13 316  64  59
   2024 07 15 00:40  12 17 30.61    +43 12 28.1   138545 1.0160  61.0     12? 199.45 117.0   12 317  63  60
   2024 07 15 00:50  12 20 12.99    +42 57 16.8   138564 1.0160  61.5     12? 200.29 117.2   11 318  63  60
   2024 07 15 01:00  12 22 55.06    +42 41 55.4   138586 1.0160  62.0     12? 201.10 117.4   10 319  62  60
   2024 07 15 01:10  12 25 36.80    +42 26 24.1   138610 1.0160  62.5     12? 201.87 117.6    8 319  62  60
   2024 07 15 01:20  12 28 18.19    +42 10 43.3   138636 1.0160  63.0     12? 202.60 117.7    7 320  62  60
   2024 07 15 01:30  12 30 59.19    +41 54 53.4   138665 1.0161  63.5     12? 203.28 117.9    6 321  61  60
   2024 07 15 01:40  12 33 39.78    +41 38 54.6   138696 1.0161  64.0     12? 203.93 118.1    5 322  61  60
   2024 07 15 01:50  12 36 19.93    +41 22 47.3   138729 1.0161  64.6     12? 204.54 118.3    4 323  60  60
   2024 07 15 02:00  12 38 59.62    +41 06 31.9   138764 1.0161  65.1     12? 205.10 118.4    3 324  60  60
   2024 07 15 02:10  12 41 38.81    +40 50 08.5   138800 1.0161  65.6     12? 205.62 118.6    2 325  60  60
   2024 07 15 02:20  12 44 17.49    +40 33 37.6   138839 1.0161  66.1     12? 206.10 118.8    1 326  59  60
   2024 07 15 02:30  12 46 55.61    +40 16 59.4   138879 1.0161  66.7     12? 206.54 118.9    0 327  59  60
   2024 07 15 02:40  12 49 33.18    +40 00 14.3   138920 1.0161  67.2     12? 206.94 119.1    0 328  58  60
   ................
   2024 07 15 20:00  15 47 37.55    +06 46 15.9   143255 1.0168 116.1 Cm  12? 144.56 148.4   55 168  30  68
   2024 07 15 20:10  15 48 27.97    +06 25 43.2   143492 1.0168 116.5 Ce  12? 144.17 148.5   55 172  30  68
   2024 07 15 20:20  15 49 18.09    +06 05 12.6   143738 1.0168 116.8 Nm  12? 143.78 148.6   55 176  30  68
   2024 07 15 20:30  15 50 07.94    +05 44 44.4   143993 1.0168 117.1 Nt  12? 143.40 148.7   54 180  30  68
   2024 07 15 20:40  15 50 57.56    +05 24 18.7   144258 1.0169 117.5 Nm  12? 143.02 148.7   54 184  30  68
   2024 07 15 20:50  15 51 46.97    +05 03 56.0   144533 1.0169 117.8 Nm  12? 142.64 148.7   53 188  29  68
   2024 07 15 21:00  15 52 36.21    +04 43 36.3   144818 1.0169 118.1 Am  12? 142.26 148.7   53 191  29  68
   2024 07 15 21:10  15 53 25.31    +04 23 20.0   145112 1.0169 118.5 Am  12? 141.89 148.7   52 195  29  68
   2024 07 15 21:20  15 54 14.31    +04 03 07.2   145416 1.0169 118.8 Am  12? 141.52 148.7   51 199  29  68
   2024 07 15 21:30  15 55 03.24    +03 42 58.3   145730 1.0169 119.1 Am  12? 141.15 148.6   50 202  29  68
   2024 07 15 21:40  15 55 52.12    +03 22 53.4   146052 1.0169 119.5 Am  12? 140.79 148.5   49 205  29  68
   2024 07 15 21:50  15 56 40.99    +03 02 52.8   146385 1.0169 119.8  m  12? 140.43 148.4   48 208  28  68
   2024 07 15 22:00  15 57 29.87    +02 42 56.6   146726 1.0169 120.1  m  12? 140.08 148.3   47 211  28  68
   2024 07 15 22:10  15 58 18.81    +02 23 05.2   147077 1.0169 120.4  m  12? 139.73 148.2   46 214  28  68
   2024 07 15 22:20  15 59 07.81    +02 03 18.6   147436 1.0169 120.8  m  12? 139.38 148.0   44 217  28  68
   2024 07 15 22:30  15 59 56.92    +01 43 37.1   147804 1.0169 121.1  m  12? 139.04 147.8   43 220  28  68
   2024 07 15 22:40  16 00 46.16    +01 24 00.9   148181 1.0169 121.4  m  12? 138.71 147.6   41 222  28  68
   2024 07 15 22:50  16 01 35.56    +01 04 30.2   148567 1.0169 121.7  m  12? 138.38 147.4   40 224  27  68
   2024 07 15 23:00  16 02 25.13    +00 45 05.0   148961 1.0169 122.1  m  12? 138.05 147.2   38 227  27  68
   2024 07 15 23:10  16 03 14.91    +00 25 45.7   149363 1.0169 122.4  m  12? 137.74 146.9   37 229  27  68
   2024 07 15 23:20  16 04 04.92    +00 06 32.3   149773 1.0170 122.7  m  12? 137.43 146.7   35 231  27  68
   2024 07 15 23:30  16 04 55.17    -00 12 35.0   150190 1.0170 123.0  m  12? 137.13 146.4   34 233  27  68
   2024 07 15 23:40  16 05 45.70    -00 31 36.1   150615 1.0170 123.3  m  12? 136.84 146.1   32 235  27  68
   2024 07 15 23:50  16 06 36.52    -00 50 30.8   151048 1.0170 123.7  m  12? 136.56 145.8   30 237  27  69
   2024 07 16 00:00  16 07 27.65    -01 09 19.1   151487 1.0170 124.0  m  12? 136.29 145.5   29 239  27  69
   2024 07 16 00:10  16 08 19.11    -01 28 00.9   151933 1.0170 124.3  m  12? 136.03 145.1   27 240  26  69
   2024 07 16 00:20  16 09 10.92    -01 46 36.0   152385 1.0170 124.6  m  12? 135.77 144.8   25 242  26  69
   2024 07 16 00:30  16 10 03.09    -02 05 04.3   152844 1.0170 124.9     12? 135.53 144.4   23 244  26  69
   2024 07 16 00:40  16 10 55.63    -02 23 25.9   153308 1.0170 125.3     12? 135.30 144.1   22 245  26  69
   2024 07 16 00:50  16 11 48.57    -02 41 40.7   153778 1.0170 125.6     12? 135.08 143.7   20 247  26  69
   2024 07 16 01:00  16 12 41.91    -02 59 48.5   154254 1.0170 125.9     12? 134.88 143.3   18 248  26  69
   2024 07 16 01:10  16 13 35.66    -03 17 49.4   154734 1.0170 126.2     12? 134.68 143.0   16 250  26  69
   2024 07 16 01:20  16 14 29.84    -03 35 43.3   155219 1.0170 126.5     12? 134.50 142.6   14 251  26  69
   2024 07 16 01:30  16 15 24.46    -03 53 30.3   155708 1.0170 126.9     12? 134.33 142.2   12 253  26  69
   2024 07 16 01:40  16 16 19.52    -04 11 10.2   156202 1.0170 127.2     12? 134.17 141.8   11 254  26  69
   2024 07 16 01:50  16 17 15.03    -04 28 43.2   156699 1.0170 127.5     12? 134.02 141.4    9 255  26  69
   2024 07 16 02:00  16 18 10.99    -04 46 09.2   157200 1.0170 127.8     12? 133.88 141.0    7 257  26  69
   2024 07 16 02:10  16 19 07.42    -05 03 28.2   157704 1.0171 128.2     12? 133.76 140.6    5 258  25  69
   2024 07 16 02:20  16 20 04.32    -05 20 40.3   158210 1.0171 128.5     12? 133.65 140.2    3 259  25  69
   2024 07 16 02:30  16 21 01.68    -05 37 45.5   158719 1.0171 128.8     12? 133.54 139.7    1 260  25  69
   2024 07 16 02:40  16 21 59.52    -05 54 43.9   159230 1.0171 129.1     13? 133.45 139.3    0 262  25  70
   ................
   2024 07 16 20:00  18 05 34.61    -30 01 46.3   193885 1.0175 155.9 Cm  14?  84.66 144.0    9 145  34  76
   2024 07 16 20:10  18 06 12.56    -30 13 09.4   194159 1.0175 156.0 Cm  14?  83.76 144.1   10 147  34  76
   2024 07 16 20:20  18 06 50.09    -30 24 26.2   194439 1.0175 156.0 Nm  14?  82.87 144.2   11 149  34  77
   2024 07 16 20:30  18 07 27.21    -30 35 36.3   194725 1.0175 156.1 Nm  14?  81.98 144.2   12 151  34  77
   2024 07 16 20:40  18 08 03.96    -30 46 39.8   195017 1.0175 156.2 Nm  14?  81.10 144.3   12 153  34  77
   2024 07 16 20:50  18 08 40.34    -30 57 36.4   195315 1.0175 156.2 Nm  14?  80.22 144.3   13 155  34  77
   2024 07 16 21:00  18 09 16.39    -31 08 26.0   195619 1.0175 156.3 Am  14?  79.36 144.3   14 157  34  77
   2024 07 16 21:10  18 09 52.13    -31 19 08.5   195930 1.0175 156.3 Am  14?  78.51 144.3   14 159  34  77
   2024 07 16 21:20  18 10 27.59    -31 29 43.9   196247 1.0175 156.4 Am  14?  77.66 144.2   14 161  34  77
   2024 07 16 21:30  18 11 02.79    -31 40 11.9   196570 1.0176 156.4 Am  14?  76.84 144.1   15 163  34  77
   2024 07 16 21:40  18 11 37.76    -31 50 32.5   196900 1.0176 156.5 Am  14?  76.02 144.0   15 165  34  77
   2024 07 16 21:50  18 12 12.52    -32 00 45.7   197237 1.0176 156.5  m  14?  75.22 143.9   15 167  34  77
   2024 07 16 22:00  18 12 47.11    -32 10 51.3   197580 1.0176 156.6  m  14?  74.43 143.7   16 169  35  77
   2024 07 16 22:10  18 13 21.54    -32 20 49.2   197930 1.0176 156.6  m  14?  73.67 143.5   16 171  35  77
   2024 07 16 22:20  18 13 55.85    -32 30 39.5   198286 1.0176 156.7  m  14?  72.92 143.3   16 173  35  77
   2024 07 16 22:30  18 14 30.07    -32 40 22.1   198649 1.0176 156.7  e  14?  72.18 143.1   16 175  35  77
   2024 07 16 22:40  18 15 04.21    -32 49 56.8   199019 1.0176 156.7  m  14?  71.47 142.8   16 177  35  77
   2024 07 16 22:50  18 15 38.32    -32 59 23.8   199395 1.0176 156.8  m  14?  70.79 142.5   16 179  35  77
   2024 07 16 23:00  18 16 12.42    -33 08 42.9   199778 1.0176 156.8  t  14?  70.12 142.1   15 181  35  77
   2024 07 16 23:10  18 16 46.54    -33 17 54.1   200167 1.0176 156.8  m  14?  69.48 141.8   15 183  35  77
   2024 07 16 23:20  18 17 20.70    -33 26 57.6   200563 1.0176 156.9  m  14?  68.86 141.4   15 186  35  77
   2024 07 16 23:30  18 17 54.93    -33 35 53.2   200965 1.0176 156.9  m  14?  68.27 140.9   15 188  35  77
   2024 07 16 23:40  18 18 29.27    -33 44 40.9   201373 1.0176 156.9  m  14?  67.71 140.5   14 190  35  77
   2024 07 16 23:50  18 19 03.73    -33 53 20.9   201788 1.0176 157.0  m  14?  67.18 140.0   14 191  35  77
   2024 07 17 00:00  18 19 38.35    -34 01 53.1   202209 1.0176 157.0  m  14?  66.68 139.5   13 193  35  77
   2024 07 17 00:10  18 20 13.16    -34 10 17.7   202635 1.0176 157.0  m  14?  66.21 138.9   12 195  35  77
   2024 07 17 00:20  18 20 48.17    -34 18 34.5   203068 1.0176 157.1  m  14?  65.77 138.3   12 197  35  77
   2024 07 17 00:30  18 21 23.41    -34 26 43.8   203507 1.0176 157.1  m  14?  65.36 137.8   11 199  36  78
   2024 07 17 00:40  18 21 58.92    -34 34 45.6   203951 1.0176 157.1  m  14?  64.99 137.1   10 201  36  78
   2024 07 17 00:50  18 22 34.72    -34 42 40.0   204400 1.0176 157.2  m  14?  64.65 136.5   10 203  36  78
   2024 07 17 01:00  18 23 10.82    -34 50 27.0   204855 1.0176 157.2     14?  64.35 135.8    9 205  36  78
   2024 07 17 01:10  18 23 47.26    -34 58 06.9   205315 1.0176 157.2     14?  64.08 135.2    8 206  36  78
   2024 07 17 01:20  18 24 24.05    -35 05 39.6   205780 1.0176 157.3     14?  63.85 134.5    7 208  36  78
   2024 07 17 01:30  18 25 01.22    -35 13 05.3   206250 1.0176 157.3     14?  63.66 133.8    6 210  36  78
   2024 07 17 01:40  18 25 38.79    -35 20 24.1   206724 1.0176 157.3     14?  63.50 133.1    5 211  36  78
   2024 07 17 01:50  18 26 16.79    -35 27 36.2   207203 1.0176 157.4     14?  63.39 132.3    4 213  36  78
   2024 07 17 02:00  18 26 55.22    -35 34 41.7   207686 1.0176 157.4     14?  63.30 131.6    3 214  36  78
   2024 07 17 02:10  18 27 34.11    -35 41 40.7   208173 1.0176 157.4     14?  63.25 130.9    2 216  36  78
   2024 07 17 02:20  18 28 13.47    -35 48 33.5   208663 1.0176 157.5     14?  63.24 130.2    0 217  36  78
   2024 07 17 02:30  18 28 53.33    -35 55 20.1   209158 1.0176 157.5     14?  63.27 129.4    0 219  36  78
   ................
   2024 07 17 23:30  20 20 17.84    -47 49 53.3   251843 1.0178 152.5  m  14?  41.85 124.6    0 166  47  85
   2024 07 17 23:40  20 20 51.86    -47 53 48.9   252117 1.0178 152.4  m  14?  41.26 124.1    0 168  47  85
   2024 07 17 23:50  20 21 25.65    -47 57 38.1   252395 1.0178 152.3  m  14?  40.69 123.5    0 169  47  85
   2024 07 18 00:00  20 21 59.25    -48 01 20.8   252677 1.0178 152.2  m  14?  40.15 122.9    0 171  47  85
   2024 07 18 00:10  20 22 32.68    -48 04 57.0   252965 1.0178 152.1  m  14?  39.63 122.3    0 172  48  85
   2024 07 18 00:20  20 23 05.97    -48 08 26.6   253257 1.0178 152.0  m  14?  39.14 121.6    0 174  48  85
   2024 07 18 00:30  20 23 39.15    -48 11 49.6   253554 1.0178 152.0  m  14?  38.68 120.9    0 175  48  85
   2024 07 18 00:40  20 24 12.24    -48 15 06.0   253855 1.0178 151.9  m  14?  38.25 120.1    0 177  48  85
   2024 07 18 00:50  20 24 45.27    -48 18 15.7   254162 1.0178 151.8  e  14?  37.85 119.3    0 179  48  85
   2024 07 18 01:00  20 25 18.28    -48 21 18.9   254473 1.0178 151.7  t  14?  37.49 118.5    0 180  48  86
   2024 07 18 01:10  20 25 51.28    -48 24 15.5   254789 1.0178 151.6  m  14?  37.16 117.6    0 182  48  86
   2024 07 18 01:20  20 26 24.30    -48 27 05.4   255110 1.0178 151.6  m  14?  36.86 116.7    0 183  48  86
   2024 07 18 01:30  20 26 57.37    -48 29 48.9   255436 1.0178 151.5  m  14?  36.60 115.7    0 185  48  86
   2024 07 18 01:40  20 27 30.53    -48 32 25.8   255766 1.0178 151.4     14?  36.38 114.8    0 186  48  86
   2024 07 18 01:50  20 28 03.79    -48 34 56.3   256101 1.0178 151.4     14?  36.20 113.8    0 188  48  86
   2024 07 18 02:00  20 28 37.18    -48 37 20.4   256440 1.0178 151.3     14?  36.05 112.8    0 189  48  86
   ................
   2024 07 20 03:20  23 53 13.41    -48 43 56.2   321311 1.0174 125.8 Am  14?  20.23  65.2    0 170  60  97
   2024 07 20 03:30  23 53 31.88    -48 42 29.1   321413 1.0174 125.8 A   14?  20.28  63.9    0 172  60  97
   2024 07 20 03:40  23 53 50.21    -48 40 57.6   321520 1.0174 125.7 A   14?  20.37  62.6    0 174  60  97
   2024 07 20 03:50  23 54 08.41    -48 39 21.5   321631 1.0174 125.7 N   14?  20.49  61.3    0 175  60  97
   2024 07 20 04:00  23 54 26.51    -48 37 40.9   321748 1.0174 125.7 N   14?  20.65  60.1    0 177  60  97
   2024 07 20 04:10  23 54 44.53    -48 35 55.8   321869 1.0174 125.6 N   14?  20.83  59.0    0 178  60  97
   2024 07 20 04:20  23 55 02.50    -48 34 06.2   321996 1.0174 125.6 Nt  14?  21.04  57.9    0 180  60  97
   2024 07 20 04:30  23 55 20.44    -48 32 12.1   322128 1.0174 125.5 Ce  14?  21.28  56.8    0 182  60  97
   2024 07 20 04:40  23 55 38.38    -48 30 13.5   322265 1.0174 125.5 C   14?  21.54  55.9    0 183  60  97
   2024 07 20 04:50  23 55 56.33    -48 28 10.4   322407 1.0174 125.5 C   14?  21.83  55.0    0 185  60  97
   ................
   2024 07 21 02:50  00 59 05.72    -43 24 49.2   334621 1.0170 115.2  m  14?  19.01  57.3    0 154  63  99
   2024 07 21 03:00  00 59 20.23    -43 23 04.8   334585 1.0170 115.1  m  14?  18.91  55.9    0 155  63  99
   2024 07 21 03:10  00 59 34.44    -43 21 16.9   334553 1.0170 115.1 Am  14?  18.84  54.5    1 157  63  99
   2024 07 21 03:20  00 59 48.35    -43 19 25.7   334526 1.0170 115.0 Am  14?  18.81  53.1    1 158  63  99
   2024 07 21 03:30  01 00 02.00    -43 17 30.9   334504 1.0170 115.0 Am  14?  18.81  51.8    2 160  63  99
   2024 07 21 03:40  01 00 15.40    -43 15 32.6   334487 1.0170 115.0 Am  14?  18.84  50.4    3 162  63  99
   2024 07 21 03:50  01 00 28.57    -43 13 30.6   334475 1.0170 114.9 Nm  14?  18.90  49.1    3 164  63  99
   2024 07 21 04:00  01 00 41.52    -43 11 24.9   334468 1.0170 114.9 Nm  14?  18.99  47.8    4 165  63  99
   2024 07 21 04:10  01 00 54.29    -43 09 15.4   334467 1.0170 114.9 Nm  14?  19.10  46.6    4 167  63  99
   2024 07 21 04:20  01 01 06.89    -43 07 02.2   334471 1.0170 114.8 Nm  14?  19.25  45.4    5 169  63  99
   2024 07 21 04:30  01 01 19.33    -43 04 45.1   334480 1.0170 114.8 Cm  14?  19.42  44.3    5 171  63  99
   2024 07 21 04:40  01 01 31.65    -43 02 24.2   334496 1.0170 114.7 C   14?  19.62  43.3    5 172  63  99
   2024 07 21 04:50  01 01 43.87    -42 59 59.4   334517 1.0170 114.7 C   14?  19.84  42.3    5 174  63  99
   ................
   2024 07 22 02:40  01 50 58.43    -36 31 13.0   336661 1.0166 104.8  r  13?  20.23  50.4    0 141  65  99
   2024 07 22 02:50  01 51 11.17    -36 29 02.8   336504 1.0166 104.8  m  13?  20.05  49.1    0 142  65  99
   2024 07 22 03:00  01 51 23.56    -36 26 50.3   336350 1.0166 104.7  m  13?  19.91  47.8    1 144  65  99
   2024 07 22 03:10  01 51 35.60    -36 24 35.2   336201 1.0165 104.7 Am  13?  19.79  46.5    2 145  65  99
   2024 07 22 03:20  01 51 47.32    -36 22 17.5   336056 1.0165 104.7 Am  13?  19.70  45.2    4 147  65  99
   2024 07 22 03:30  01 51 58.73    -36 19 57.1   335916 1.0165 104.6 Am  13?  19.64  43.9    5 149  65  99
   2024 07 22 03:40  01 52 09.83    -36 17 33.9   335780 1.0165 104.6 Am  13?  19.61  42.6    5 151  65  99
   2024 07 22 03:50  01 52 20.66    -36 15 07.9   335650 1.0165 104.5 Am  13?  19.61  41.3    6 152  65  99
   2024 07 22 04:00  01 52 31.22    -36 12 39.0   335525 1.0165 104.5 Nm  13?  19.64  40.1    7 154  65  99
   2024 07 22 04:10  01 52 41.52    -36 10 07.0   335405 1.0165 104.5 Nm  13?  19.69  38.9    8 156  65  99
   2024 07 22 04:20  01 52 51.60    -36 07 32.0   335290 1.0165 104.4 Nm  13?  19.77  37.7    9 158  65  99
   2024 07 22 04:30  01 53 01.46    -36 04 53.8   335182 1.0165 104.4 Cm  13?  19.88  36.6   10 160  65  99
   2024 07 22 04:40  01 53 11.12    -36 02 12.4   335079 1.0165 104.3 Cm  13?  20.01  35.5   10 162  65  99
   2024 07 22 04:50  01 53 20.60    -35 59 27.9   334983 1.0165 104.3 Cm  13?  20.16  34.5   11 164  65  99
   ................
   2024 07 23 02:40  02 35 02.71    -28 17 46.5   326939 1.0161  94.2  m  13?  23.66  44.8    0 129  66  96
   2024 07 23 02:50  02 35 15.13    -28 14 57.4   326668 1.0161  94.1  m  13?  23.45  43.7    2 130  66  96
   2024 07 23 03:00  02 35 27.17    -28 12 06.7   326401 1.0161  94.1  m  13?  23.26  42.5    3 132  66  96
   2024 07 23 03:10  02 35 38.86    -28 09 14.0   326138 1.0161  94.0 Am  13?  23.09  41.3    4 134  66  96
   2024 07 23 03:20  02 35 50.20    -28 06 19.5   325878 1.0160  94.0 Am  13?  22.95  40.2    6 135  66  96
   2024 07 23 03:30  02 36 01.20    -28 03 22.9   325623 1.0160  93.9 Am  13?  22.83  39.0    7 137  66  96
   2024 07 23 03:40  02 36 11.87    -28 00 24.2   325371 1.0160  93.9 Am  13?  22.74  37.8    8 139  66  96
   2024 07 23 03:50  02 36 22.22    -27 57 23.3   325125 1.0160  93.8 Am  13?  22.67  36.7   10 141  66  95
   2024 07 23 04:00  02 36 32.28    -27 54 20.1   324883 1.0160  93.8 Nm  13?  22.63  35.6   11 143  66  95
   2024 07 23 04:10  02 36 42.04    -27 51 14.5   324647 1.0160  93.7 Nm  13?  22.62  34.5   12 145  66  95
   2024 07 23 04:20  02 36 51.53    -27 48 06.6   324416 1.0160  93.7 Nm  13?  22.63  33.4   13 147  66  95
   2024 07 23 04:30  02 37 00.76    -27 44 56.2   324190 1.0160  93.6 Nm  13?  22.66  32.3   14 149  66  95
   2024 07 23 04:40  02 37 09.74    -27 41 43.2   323971 1.0160  93.6 Cm  13?  22.72  31.3   15 151  66  95
   2024 07 23 04:50  02 37 18.50    -27 38 27.6   323757 1.0160  93.6 Cm  13?  22.79  30.4   16 153  66  95
   ................
   2024 07 24 02:30  03 16 09.43    -18 30 36.6   305661 1.0156  82.5  r  13?  30.77  42.0    0 114  66  90
   2024 07 24 02:40  03 16 23.69    -18 26 47.0   305278 1.0156  82.4  m  13?  30.50  41.1    1 116  66  90
   2024 07 24 02:50  03 16 37.56    -18 22 56.2   304897 1.0155  82.4  m  13?  30.25  40.2    3 117  66  90
   2024 07 24 03:00  03 16 51.05    -18 19 04.1   304519 1.0155  82.3  m  13?  30.01  39.2    5 119  66  90
   2024 07 24 03:10  03 17 04.16    -18 15 10.6   304143 1.0155  82.2 Am  13?  29.79  38.3    6 121  66  90
   2024 07 24 03:20  03 17 16.90    -18 11 15.5   303770 1.0155  82.1 Am  13?  29.60  37.3    8 122  66  90
   2024 07 24 03:30  03 17 29.27    -18 07 19.0   303401 1.0155  82.1 Am  13?  29.42  36.3   10 124  66  90
   2024 07 24 03:40  03 17 41.29    -18 03 20.7   303035 1.0155  82.0 Am  13?  29.27  35.4   11 126  66  90
   2024 07 24 03:50  03 17 52.97    -17 59 20.9   302673 1.0155  82.0 Am  13?  29.14  34.4   13 128  66  90
   2024 07 24 04:00  03 18 04.30    -17 55 19.2   302316 1.0155  81.9 Nm  13?  29.02  33.4   14 130  66  90
   2024 07 24 04:10  03 18 15.31    -17 51 15.8   301963 1.0155  81.8 Nm  13?  28.93  32.5   16 132  66  90
   2024 07 24 04:20  03 18 26.01    -17 47 10.5   301615 1.0155  81.8 Nm  13?  28.86  31.6   17 133  66  90
   2024 07 24 04:30  03 18 36.40    -17 43 03.3   301272 1.0155  81.7 Nm  13?  28.81  30.6   18 135  66  90
   2024 07 24 04:40  03 18 46.51    -17 38 54.2   300935 1.0155  81.6 Cm  13?  28.78  29.8   20 138  66  89
   2024 07 24 04:50  03 18 56.33    -17 34 43.0   300603 1.0155  81.6 Cm  13?  28.78  28.9   21 140  66  89
   ................
   2024 07 25 02:30  04 00 26.94    -06 08 44.1   271875 1.0151  68.4  m  13?  43.95  40.1    1  99  66  82
   2024 07 25 02:40  04 00 45.67    -06 03 06.6   271389 1.0151  68.3  m  13?  43.67  39.4    3 100  66  82
   2024 07 25 02:50  04 01 03.99    -05 57 27.7   270904 1.0151  68.2  m  13?  43.40  38.6    4 102  66  82
   2024 07 25 03:00  04 01 21.91    -05 51 47.4   270420 1.0151  68.1  m  13?  43.14  37.9    6 103  66  82
   2024 07 25 03:10  04 01 39.43    -05 46 05.8   269938 1.0151  68.0 Am  13?  42.90  37.2    8 105  66  82
   2024 07 25 03:20  04 01 56.55    -05 40 22.7   269457 1.0150  67.9 Am  13?  42.66  36.4   10 106  66  82
   2024 07 25 03:30  04 02 13.28    -05 34 38.3   268979 1.0150  67.8 Am  13?  42.44  35.7   12 108  66  82
   2024 07 25 03:40  04 02 29.62    -05 28 52.3   268503 1.0150  67.7 Am  13?  42.23  34.9   14 110  66  82
   2024 07 25 03:50  04 02 45.58    -05 23 04.8   268030 1.0150  67.6 Am  13?  42.03  34.2   15 111  66  81
   2024 07 25 04:00  04 03 01.16    -05 17 15.9   267560 1.0150  67.5 Nm  13?  41.85  33.4   17 113  66  81
   2024 07 25 04:10  04 03 16.37    -05 11 25.4   267094 1.0150  67.4 Nm  13?  41.69  32.7   19 115  66  81
   2024 07 25 04:20  04 03 31.22    -05 05 33.4   266631 1.0150  67.3 Nm  13?  41.54  32.0   21 117  66  81
   2024 07 25 04:30  04 03 45.72    -04 59 39.8   266173 1.0150  67.2 Nm  13?  41.40  31.3   22 119  66  81
   2024 07 25 04:40  04 03 59.88    -04 53 44.7   265719 1.0150  67.1 Cm  13?  41.28  30.6   24 121  66  81
   2024 07 25 04:50  04 04 13.71    -04 47 48.0   265270 1.0150  67.1 Cm  13?  41.17  29.9   26 123  66  81
   ................
   2024 07 26 02:20  04 58 04.07    +10 30 59.4   226726 1.0147  49.9  r  13?  71.54  41.8    0  76  68  72
   2024 07 26 02:30  04 58 36.15    +10 39 54.9   226167 1.0147  49.7  m  13?  71.35  41.3    1  77  68  72
   2024 07 26 02:40  04 59 07.85    +10 48 53.0   225606 1.0147  49.6  m  13?  71.17  40.9    3  78  68  72
   2024 07 26 02:50  04 59 39.17    +10 57 53.5   225045 1.0147  49.4  m  13?  70.98  40.4    5  80  68  72
   2024 07 26 03:00  05 00 10.11    +11 06 56.6   224483 1.0147  49.2  m  13?  70.78  39.9    7  81  68  72
   2024 07 26 03:10  05 00 40.65    +11 16 02.2   223920 1.0147  49.1  m  13?  70.59  39.4    9  83  68  72
   2024 07 26 03:20  05 01 10.81    +11 25 10.1   223358 1.0147  48.9 Am  13?  70.40  38.9   11  84  68  72
   2024 07 26 03:30  05 01 40.57    +11 34 20.5   222797 1.0147  48.8 Am  13?  70.21  38.4   13  85  68  72
   2024 07 26 03:40  05 02 09.94    +11 43 33.1   222236 1.0146  48.6 Am  13?  70.01  37.9   15  87  68  72
   2024 07 26 03:50  05 02 38.92    +11 52 47.9   221677 1.0146  48.5 Am  13?  69.82  37.4   16  88  68  72
   2024 07 26 04:00  05 03 07.50    +12 02 04.9   221119 1.0146  48.3 Nm  13?  69.63  36.9   18  90  68  71
   2024 07 26 04:10  05 03 35.69    +12 11 24.1   220564 1.0146  48.2 Nm  13?  69.45  36.4   20  91  68  71
   2024 07 26 04:20  05 04 03.50    +12 20 45.3   220010 1.0146  48.1 Nm  13?  69.26  35.9   22  93  68  71
   2024 07 26 04:30  05 04 30.92    +12 30 08.4   219459 1.0146  47.9 Nm  13?  69.08  35.4   24  94  68  71
   2024 07 26 04:40  05 04 57.97    +12 39 33.4   218911 1.0146  47.8 Cm  13?  68.90  34.9   26  96  68  71
   2024 07 26 04:50  05 05 24.64    +12 49 00.3   218366 1.0146  47.6 Cm  13?  68.73  34.4   28  97  69  71
   ................
   2024 07 27 02:20  06 49 41.92    +34 28 17.7   173375 1.0145  26.2  m  13? 133.25  53.9    0  41  79  61
   2024 07 27 02:30  06 51 08.97    +34 41 27.4   172868 1.0145  26.1  m  13? 133.52  53.8    1  43  79  61
   2024 07 27 02:40  06 52 36.26    +34 54 41.1   172360 1.0145  25.9  m  13? 133.76  53.7    2  44  79  61
   2024 07 27 02:50  06 54 03.78    +35 07 58.8   171850 1.0145  25.8  m  13? 133.98  53.5    3  45  80  61
   2024 07 27 03:00  06 55 31.53    +35 21 20.3   171338 1.0145  25.7  m  13? 134.18  53.4    5  46  80  61
   2024 07 27 03:10  06 56 59.49    +35 34 45.4   170826 1.0145  25.6  m  13? 134.36  53.3    6  47  80  61
   2024 07 27 03:20  06 58 27.65    +35 48 14.0   170312 1.0145  25.4 Am  13? 134.52  53.1    8  48  80  61
   2024 07 27 03:30  06 59 56.02    +36 01 45.8   169798 1.0145  25.3 Am  13? 134.65  53.0    9  49  80  61
   2024 07 27 03:40  07 01 24.57    +36 15 20.7   169283 1.0145  25.2 Am  13? 134.77  52.9   10  50  81  61
   2024 07 27 03:50  07 02 53.31    +36 28 58.5   168769 1.0145  25.1 Am  13? 134.86  52.8   12  51  81  60
   2024 07 27 04:00  07 04 22.23    +36 42 38.9   168254 1.0145  25.1 Nm  13? 134.93  52.6   13  52  81  60
   2024 07 27 04:10  07 05 51.32    +36 56 21.8   167740 1.0145  25.0 Nm  13? 134.98  52.5   15  53  81  60
   2024 07 27 04:20  07 07 20.58    +37 10 06.8   167226 1.0145  24.9 Nm  13? 135.01  52.4   16  54  81  60
   2024 07 27 04:30  07 08 50.00    +37 23 53.8   166713 1.0145  24.8 Nm  13? 135.02  52.3   18  55  82  60
   2024 07 27 04:40  07 10 19.59    +37 37 42.6   166200 1.0145  24.8 Cm  13? 135.01  52.3   19  56  82  60
   2024 07 27 04:50  07 11 49.34    +37 51 32.8   165690 1.0145  24.7 Cm  13? 134.98  52.2   21  57  82  60
   2024 07 27 05:00  07 13 19.24    +38 05 24.1   165180 1.0145  24.7 Cm  13? 134.93  52.1   22  58  82  60
   ................
   2024 07 27 19:50  10 12 23.95    +49 14 54.4   137853 1.0147  36.6 C   13? 175.21  97.9   31 309 101  53
   2024 07 27 20:00  10 15 21.81    +49 10 47.3   137743 1.0147  36.9 C   13? 176.83  98.4   30 310 101  53
   2024 07 27 20:10  10 18 20.82    +49 06 22.2   137636 1.0147  37.2 N   13? 178.45  98.9   29 310 101  53
   2024 07 27 20:20  10 21 20.93    +49 01 39.0   137531 1.0147  37.5 N   13? 180.06  99.4   28 311 102  53
   2024 07 27 20:30  10 24 22.10    +48 56 37.9   137430 1.0147  37.8 N   13? 181.66  99.9   27 312 102  52
   2024 07 27 20:40  10 27 24.27    +48 51 18.8   137331 1.0147  38.1 N   13? 183.24 100.3   26 312 102  52
   2024 07 27 20:50  10 30 27.40    +48 45 42.1   137236 1.0147  38.4 A   13? 184.80 100.8   25 313 103  52
   2024 07 27 21:00  10 33 31.45    +48 39 47.6   137143 1.0147  38.7 A   13? 186.35 101.3   24 314 103  52
   2024 07 27 21:10  10 36 36.35    +48 33 35.6   137054 1.0148  39.1 A   12? 187.87 101.7   23 314 103  52
   2024 07 27 21:20  10 39 42.06    +48 27 06.1   136967 1.0148  39.4 A   12? 189.38 102.2   22 315 104  52
   2024 07 27 21:30  10 42 48.53    +48 20 19.3   136883 1.0148  39.8     12? 190.86 102.6   21 315 104  52
   2024 07 27 21:40  10 45 55.70    +48 13 15.3   136802 1.0148  40.1     12? 192.31 103.0   20 316 104  52
   2024 07 27 21:50  10 49 03.51    +48 05 54.2   136723 1.0148  40.5     12? 193.74 103.4   19 317 105  52
   2024 07 27 22:00  10 52 11.92    +47 58 16.3   136648 1.0148  40.8     12? 195.14 103.8   18 317 105  52
   2024 07 27 22:10  10 55 20.87    +47 50 21.6   136575 1.0148  41.2     12? 196.52 104.2   17 318 106  52
   2024 07 27 22:20  10 58 30.30    +47 42 10.3   136504 1.0148  41.6     12? 197.86 104.6   16 319 106  51
   2024 07 27 22:30  11 01 40.15    +47 33 42.6   136437 1.0148  42.0     12? 199.17 105.0   15 320 106  51
   2024 07 27 22:40  11 04 50.38    +47 24 58.6   136371 1.0148  42.4     12? 200.44 105.4   14 320 107  51
   2024 07 27 22:50  11 08 00.93    +47 15 58.6   136309 1.0148  42.8     12? 201.68 105.8   13 321 107  51
   2024 07 27 23:00  11 11 11.73    +47 06 42.8   136249 1.0148  43.2  m  12? 202.89 106.1   13 322 108  51
   2024 07 27 23:10  11 14 22.74    +46 57 11.3   136191 1.0148  43.6  m  12? 204.05 106.5   12 323 108  51
   2024 07 27 23:20  11 17 33.90    +46 47 24.3   136136 1.0148  44.0  m  12? 205.19 106.8   11 323 108  51
   2024 07 27 23:30  11 20 45.16    +46 37 22.1   136083 1.0148  44.4  m  12? 206.28 107.2   10 324 109  51
   2024 07 27 23:40  11 23 56.45    +46 27 04.9   136033 1.0148  44.9  m  12? 207.33 107.5    9 325 109  51
   2024 07 27 23:50  11 27 07.72    +46 16 32.8   135984 1.0148  45.3  m  12? 208.34 107.8    8 326 110  51
   2024 07 28 00:00  11 30 18.93    +46 05 46.2   135939 1.0148  45.8  m  12? 209.31 108.2    7 327 110  51
   

Chandra Observatory (JPL-ID: -151)

   Date (UTC) HH:MM   RA              Dec         delta   r     elong SM  mag  '/hr    PA   alt  az moo ill
   ---- -- -- -----  -------------   -----------  ------ ------ ----- --  --- ------ ------ --- --- --- ---
   2024 07 14 00:00  18 56 27.55    +32 35 38.5   138652 1.0170 124.9     15?  28.65 151.1   81 204  91  50
   2024 07 14 00:10  18 56 38.49    +32 31 22.9   138362 1.0170 125.0     15?  29.49 151.6   80 215  91  50
   2024 07 14 00:20  18 56 49.59    +32 26 58.7   138075 1.0170 125.1     15?  30.36 152.0   78 224  91  50
   2024 07 14 00:30  18 57 00.89    +32 22 25.8   137788 1.0170 125.2     15?  31.26 152.2   77 231  91  50
   2024 07 14 00:40  18 57 12.43    +32 17 44.4   137502 1.0170 125.3     15?  32.18 152.4   75 237  91  50
   2024 07 14 00:50  18 57 24.27    +32 12 54.5   137217 1.0170 125.4     15?  33.12 152.4   74 242  91  50
   2024 07 14 01:00  18 57 36.43    +32 07 56.0   136933 1.0170 125.4     15?  34.09 152.4   72 246  90  50
   2024 07 14 01:10  18 57 48.98    +32 02 49.1   136649 1.0170 125.5     15?  35.08 152.3   70 249  90  50
   2024 07 14 01:20  18 58 01.95    +31 57 33.9   136366 1.0170 125.6     15?  36.09 152.1   68 252  90  50
   2024 07 14 01:30  18 58 15.39    +31 52 10.3   136084 1.0170 125.7     15?  37.12 151.8   66 255  90  50
   2024 07 14 01:40  18 58 29.33    +31 46 38.5   135802 1.0170 125.8     15?  38.16 151.4   65 257  90  50
   2024 07 14 01:50  18 58 43.82    +31 40 58.6   135520 1.0170 125.9     15?  39.23 151.0   63 260  90  51
   2024 07 14 02:00  18 58 58.91    +31 35 10.7   135238 1.0170 126.0     15?  40.31 150.6   61 262  90  51
   2024 07 14 02:10  18 59 14.62    +31 29 15.0   134956 1.0170 126.1     15?  41.41 150.1   59 263  90  51
   2024 07 14 02:20  18 59 31.01    +31 23 11.5   134673 1.0170 126.2     15?  42.53 149.5   57 265  90  51
   2024 07 14 02:30  18 59 48.10    +31 17 00.4   134390 1.0170 126.4     15?  43.66 149.0   55 267  90  51
   2024 07 14 02:40  19 00 05.94    +31 10 41.8   134106 1.0170 126.5     15?  44.81 148.3   53 268  90  51
   2024 07 14 02:50  19 00 24.55    +31 04 15.9   133821 1.0170 126.6     15?  45.98 147.7   51 270  90  51
   2024 07 14 03:00  19 00 43.99    +30 57 42.9   133534 1.0170 126.7 A   15?  47.16 147.0   50 271  90  51
   2024 07 14 03:10  19 01 04.27    +30 51 02.9   133246 1.0170 126.8 A   15?  48.37 146.3   48 272  90  51
   2024 07 14 03:20  19 01 25.43    +30 44 16.1   132956 1.0170 127.0 A   15?  49.58 145.6   46 274  90  51
   2024 07 14 03:30  19 01 47.50    +30 37 22.7   132664 1.0170 127.1 A   15?  50.82 144.9   44 275  90  51
   2024 07 14 03:40  19 02 10.52    +30 30 22.8   132370 1.0170 127.2 A   15?  52.07 144.1   42 276  90  51
   2024 07 14 03:50  19 02 34.50    +30 23 16.6   132073 1.0170 127.3 N   15?  53.34 143.4   40 277  90  51
   2024 07 14 04:00  19 02 59.48    +30 16 04.4   131772 1.0170 127.5 N   15?  54.63 142.6   38 279  90  52
   2024 07 14 04:10  19 03 25.47    +30 08 46.3   131469 1.0170 127.6 N   15?  55.93 141.8   36 280  90  52
   2024 07 14 04:20  19 03 52.52    +30 01 22.5   131162 1.0170 127.7 N   15?  57.24 141.1   35 281  90  52
   2024 07 14 04:30  19 04 20.63    +29 53 53.1   130851 1.0170 127.9 C   15?  58.58 140.3   33 282  90  52
   2024 07 14 04:40  19 04 49.83    +29 46 18.5   130536 1.0170 128.0 C   15?  59.93 139.5   31 283  90  52
   ................
   2024 07 15 00:10  12 10 44.88    +22 47 47.3    25707 1.0164  62.5  r  11? 1919.1  56.2    1 299  47  59
   2024 07 15 00:20  12 28 48.55    +25 27 03.4    27750 1.0164  65.9     11? 1622.4  58.3    4 300  47  59
   2024 07 15 00:30  12 44 51.17    +27 34 44.1    29794 1.0164  68.9     11? 1390.8  60.4    6 300  47  59
   2024 07 15 00:40  12 59 13.60    +29 18 10.3    31826 1.0164  71.5     11? 1207.5  62.4    8 301  47  60
   2024 07 15 00:50  13 12 12.06    +30 42 47.3    33838 1.0164  73.8     11? 1060.5  64.3   10 301  48  60
   2024 07 15 01:00  13 23 59.42    +31 52 37.4    35825 1.0164  75.9     11? 941.00  66.1   11 302  48  60
   2024 07 15 01:10  13 34 46.02    +32 50 42.4    37784 1.0164  77.8     11? 842.64  67.8   11 303  49  60
   2024 07 15 01:20  13 44 40.25    +33 39 20.9    39713 1.0164  79.5     12? 760.78  69.4   12 303  49  60
   2024 07 15 01:30  13 53 49.04    +34 20 19.4    41611 1.0164  81.1     12? 691.94  70.9   12 304  50  60
   2024 07 15 01:40  14 02 18.15    +34 55 00.7    43479 1.0164  82.5     12? 633.50  72.3   12 305  50  60
   2024 07 15 01:50  14 10 12.38    +35 24 30.2    45316 1.0164  83.8  e  12? 583.47  73.7   12 305  51  60
   2024 07 15 02:00  14 17 35.80    +35 49 39.8    47123 1.0164  85.0     12? 540.30  75.0   12 306  51  60
   2024 07 15 02:10  14 24 31.86    +36 11 11.2    48900 1.0164  86.2     12? 502.77  76.2   12 307  52  60
   2024 07 15 02:20  14 31 03.51    +36 29 38.2    50649 1.0164  87.2     12? 469.95  77.3   12 307  52  60
   2024 07 15 02:30  14 37 13.31    +36 45 28.4    52369 1.0164  88.2     12? 441.05  78.4   11 308  53  60
   2024 07 15 02:40  14 43 03.45    +36 59 04.8    54061 1.0165  89.2     12? 415.48  79.4   11 309  53  60
   2024 07 15 02:50  14 48 35.84    +37 10 46.1    55727 1.0165  90.1     12? 392.73  80.4   10 310  54  60
   2024 07 15 03:00  14 53 52.15    +37 20 48.2    57367 1.0165  90.9 A   12? 372.40  81.3   10 311  54  60
   2024 07 15 03:10  14 58 53.84    +37 29 24.4    58981 1.0165  91.7 A   12? 354.14  82.1    9 311  54  61
   2024 07 15 03:20  15 03 42.21    +37 36 46.1    60570 1.0165  92.5 A   12? 337.67  82.9    9 312  55  61
   2024 07 15 03:30  15 08 18.40    +37 43 02.8    62134 1.0165  93.2 A   12? 322.77  83.7    8 313  55  61
   2024 07 15 03:40  15 12 43.41    +37 48 22.8    63676 1.0165  93.9 A   12? 309.23  84.4    7 314  55  61
   2024 07 15 03:50  15 16 58.16    +37 52 53.1    65193 1.0165  94.6 N   12? 296.88  85.1    6 315  56  61
   2024 07 15 04:00  15 21 03.43    +37 56 39.9    66688 1.0165  95.2 N   13? 285.58  85.7    6 316  56  61
   2024 07 15 04:10  15 24 59.96    +37 59 48.5    68161 1.0165  95.8 N   13? 275.22  86.3    5 317  56  61
   2024 07 15 04:20  15 28 48.38    +38 02 23.6    69612 1.0165  96.4 N   13? 265.67  86.8    4 318  57  61
   2024 07 15 04:30  15 32 29.29    +38 04 29.1    71042 1.0165  97.0 C   13? 256.86  87.4    3 319  57  61
   2024 07 15 04:40  15 36 03.19    +38 06 08.8    72450 1.0165  97.6 C   13? 248.70  87.8    3 320  57  61
   ................
   2024 07 15 20:00  17 55 27.33    +38 21 27.3   136038 1.0168 115.2 Cm  15?  24.60  99.8   60  82  73  68
   2024 07 15 20:10  17 55 47.53    +38 20 41.4   136307 1.0168 115.3 Cm  15?  23.82 101.8   62  83  73  68
   2024 07 15 20:20  17 56 06.96    +38 19 48.4   136575 1.0168 115.3 Nm  15?  23.13 103.9   64  84  73  68
   2024 07 15 20:30  17 56 25.66    +38 18 48.2   136841 1.0168 115.4 Nm  15?  22.53 106.3   65  85  73  68
   2024 07 15 20:40  17 56 43.68    +38 17 40.6   137107 1.0168 115.4 Nm  15?  22.02 108.7   67  87  73  68
   2024 07 15 20:50  17 57 01.06    +38 16 25.6   137373 1.0168 115.5 Nm  15?  21.61 111.2   69  88  73  68
   2024 07 15 21:00  17 57 17.86    +38 15 02.9   137638 1.0168 115.5 Am  15?  21.29 113.8   71  90  73  68
   2024 07 15 21:10  17 57 34.11    +38 13 32.5   137903 1.0168 115.5 Am  15?  21.08 116.3   73  92  73  68
   2024 07 15 21:20  17 57 49.87    +38 11 54.3   138168 1.0168 115.6 Am  15?  20.96 118.9   75  94  73  68
   2024 07 15 21:30  17 58 05.18    +38 10 08.3   138433 1.0168 115.6 Am  15?  20.93 121.5   76  96  73  68
   2024 07 15 21:40  17 58 20.09    +38 08 14.4   138698 1.0168 115.7 Am  15?  21.00 123.9   78  99  73  68
   2024 07 15 21:50  17 58 34.65    +38 06 12.5   138963 1.0168 115.7  m  15?  21.15 126.3   80 103  73  68
   2024 07 15 22:00  17 58 48.91    +38 04 02.7   139229 1.0168 115.8  m  15?  21.38 128.5   82 108  73  68
   2024 07 15 22:10  17 59 02.91    +38 01 44.9   139496 1.0168 115.8  m  15?  21.69 130.6   84 116  73  68
   2024 07 15 22:20  17 59 16.72    +37 59 19.1   139763 1.0168 115.9  m  15?  22.07 132.5   85 129  73  68
   2024 07 15 22:30  17 59 30.36    +37 56 45.4   140031 1.0168 116.0  m  15?  22.51 134.2   86 152  73  68
   2024 07 15 22:40  17 59 43.90    +37 54 03.8   140299 1.0168 116.0  t  15?  23.01 135.8   86 188  73  68
   2024 07 15 22:50  17 59 57.38    +37 51 14.4   140568 1.0168 116.1  m  15?  23.56 137.2   86 218  73  68
   2024 07 15 23:00  18 00 10.84    +37 48 17.1   140838 1.0168 116.1  m  15?  24.15 138.4   84 235  73  68
   2024 07 15 23:10  18 00 24.34    +37 45 12.1   141109 1.0168 116.2  m  15?  24.78 139.4   83 245  73  68
   2024 07 15 23:20  18 00 37.92    +37 41 59.5   141381 1.0168 116.3  m  15?  25.44 140.3   81 251  73  68
   2024 07 15 23:30  18 00 51.62    +37 38 39.4   141653 1.0168 116.3  m  15?  26.14 141.0   79 256  73  68
   2024 07 15 23:40  18 01 05.49    +37 35 11.9   141926 1.0168 116.4  m  15?  26.86 141.6   77 259  73  68
   2024 07 15 23:50  18 01 19.58    +37 31 37.1   142200 1.0168 116.5  m  15?  27.61 142.0   75 261  73  69
   2024 07 16 00:00  18 01 33.92    +37 27 55.2   142474 1.0168 116.5  m  15?  28.38 142.4   74 264  73  69
   2024 07 16 00:10  18 01 48.56    +37 24 06.4   142750 1.0168 116.6  m  15?  29.16 142.6   72 266  73  69
   2024 07 16 00:20  18 02 03.53    +37 20 10.7   143025 1.0168 116.7  m  15?  29.96 142.7   70 267  73  69
   2024 07 16 00:30  18 02 18.88    +37 16 08.5   143302 1.0168 116.8     15?  30.78 142.7   68 269  73  69
   2024 07 16 00:40  18 02 34.65    +37 11 59.8   143578 1.0168 116.9     15?  31.60 142.6   66 270  73  69
   2024 07 16 00:50  18 02 50.86    +37 07 45.0   143855 1.0168 117.0     15?  32.44 142.4   64 272  73  69
   2024 07 16 01:00  18 03 07.56    +37 03 24.1   144132 1.0168 117.0     15?  33.28 142.2   62 273  73  69
   2024 07 16 01:10  18 03 24.78    +36 58 57.4   144409 1.0168 117.1     15?  34.14 141.9   61 274  73  69
   2024 07 16 01:20  18 03 42.55    +36 54 25.2   144686 1.0168 117.2     15?  35.00 141.6   59 275  73  69
   2024 07 16 01:30  18 04 00.90    +36 49 47.7   144962 1.0169 117.3     15?  35.86 141.1   57 276  73  69
   2024 07 16 01:40  18 04 19.86    +36 45 05.0   145238 1.0169 117.4     15?  36.73 140.7   55 277  73  69
   2024 07 16 01:50  18 04 39.45    +36 40 17.6   145514 1.0169 117.5     15?  37.61 140.2   53 279  72  69
   2024 07 16 02:00  18 04 59.71    +36 35 25.5   145788 1.0169 117.6     15?  38.49 139.7   51 280  72  69
   2024 07 16 02:10  18 05 20.65    +36 30 29.1   146062 1.0169 117.7     15?  39.37 139.1   49 281  72  69
   2024 07 16 02:20  18 05 42.30    +36 25 28.7   146335 1.0169 117.8     15?  40.25 138.5   48 282  72  69
   2024 07 16 02:30  18 06 04.68    +36 20 24.4   146606 1.0169 117.9     15?  41.14 137.9   46 283  72  69
   2024 07 16 02:40  18 06 27.81    +36 15 16.6   146875 1.0169 118.0     15?  42.02 137.2   44 284  72  70
   2024 07 16 02:50  18 06 51.70    +36 10 05.6   147142 1.0169 118.2     15?  42.91 136.5   42 285  72  70
   2024 07 16 03:00  18 07 16.36    +36 04 51.5   147408 1.0169 118.3 A   15?  43.80 135.9   40 286  72  70
   2024 07 16 03:10  18 07 41.82    +35 59 34.8   147671 1.0169 118.4 A   15?  44.68 135.2   39 287  72  70
   2024 07 16 03:20  18 08 08.09    +35 54 15.5   147932 1.0169 118.5 A   15?  45.57 134.5   37 288  72  70
   2024 07 16 03:30  18 08 35.17    +35 48 54.1   148189 1.0169 118.6 A   15?  46.45 133.7   35 289  72  70
   2024 07 16 03:40  18 09 03.07    +35 43 30.8   148444 1.0169 118.7 A   15?  47.33 133.0   33 290  72  70
   2024 07 16 03:50  18 09 31.81    +35 38 05.8   148695 1.0169 118.9 N   15?  48.21 132.3   32 291  72  70
   2024 07 16 04:00  18 10 01.38    +35 32 39.5   148943 1.0169 119.0 N   15?  49.08 131.6   30 292  72  70
   2024 07 16 04:10  18 10 31.79    +35 27 12.0   149187 1.0169 119.1 N   15?  49.95 130.8   28 293  72  70
   2024 07 16 04:20  18 11 03.05    +35 21 43.7   149427 1.0169 119.2 N   15?  50.81 130.1   27 294  72  70
   2024 07 16 04:30  18 11 35.14    +35 16 14.8   149662 1.0169 119.4 C   15?  51.66 129.4   25 295  72  70
   2024 07 16 04:40  18 12 08.08    +35 10 45.5   149893 1.0169 119.5 C   15?  52.51 128.6   23 296  72  70
   2024 07 16 04:50  18 12 41.86    +35 05 16.2   150119 1.0169 119.6 C   15?  53.35 127.9   22 297  72  70
   ................
   2024 07 16 20:00  19 21 42.04    +30 00 02.3   130008 1.0169 128.4 Cm  15?  39.49 115.5   41  83  76  76
   2024 07 16 20:10  19 22 09.07    +29 57 07.8   129382 1.0169 128.5 Cm  15?  38.97 116.9   43  84  76  76
   2024 07 16 20:20  19 22 35.42    +29 54 06.9   128753 1.0169 128.5 Nm  15?  38.50 118.4   45  86  76  77
   2024 07 16 20:30  19 23 01.09    +29 50 59.4   128121 1.0169 128.6 Nm  15?  38.10 119.9   46  87  76  77
   2024 07 16 20:40  19 23 26.11    +29 47 44.9   127487 1.0169 128.7 Nm  15?  37.77 121.4   48  89  76  77
   2024 07 16 20:50  19 23 50.50    +29 44 23.1   126849 1.0169 128.7 Nm  15?  37.50 123.0   50  90  76  77
   2024 07 16 21:00  19 24 14.28    +29 40 53.7   126210 1.0169 128.8 Am  15?  37.31 124.7   52  92  76  77
   2024 07 16 21:10  19 24 37.49    +29 37 16.4   125568 1.0169 128.9 Am  15?  37.20 126.3   54  94  76  77
   2024 07 16 21:20  19 25 00.14    +29 33 30.7   124924 1.0169 128.9 Am  15?  37.17 128.0   55  96  76  77
   2024 07 16 21:30  19 25 22.27    +29 29 36.6   124278 1.0169 129.0 Am  15?  37.21 129.7   57  98  76  77
   2024 07 16 21:40  19 25 43.90    +29 25 33.5   123630 1.0169 129.1 Am  15?  37.35 131.3   59 100  76  77
   2024 07 16 21:50  19 26 05.07    +29 21 21.1   122980 1.0169 129.2  m  15?  37.56 133.0   61 103  76  77
   2024 07 16 22:00  19 26 25.81    +29 16 59.3   122329 1.0169 129.2  m  15?  37.86 134.6   62 105  76  77
   2024 07 16 22:10  19 26 46.16    +29 12 27.7   121677 1.0169 129.3  m  15?  38.24 136.1   64 108  76  77
   2024 07 16 22:20  19 27 06.16    +29 07 45.9   121023 1.0169 129.4  m  15?  38.71 137.6   66 111  76  77
   2024 07 16 22:30  19 27 25.84    +29 02 53.7   120368 1.0169 129.5  m  15?  39.26 139.1   67 115  76  77
   2024 07 16 22:40  19 27 45.25    +28 57 50.8   119712 1.0169 129.6  m  15?  39.89 140.4   69 118  76  77
   2024 07 16 22:50  19 28 04.42    +28 52 36.9   119055 1.0169 129.7  m  15?  40.60 141.7   71 123  76  77
   2024 07 16 23:00  19 28 23.41    +28 47 11.8   118396 1.0169 129.8  m  15?  41.38 142.9   72 128  76  77
   2024 07 16 23:10  19 28 42.25    +28 41 35.1   117737 1.0169 129.9  m  15?  42.24 144.0   73 134  76  77
   2024 07 16 23:20  19 29 01.00    +28 35 46.7   117076 1.0169 130.0  m  15?  43.17 145.0   74 140  76  77
   2024 07 16 23:30  19 29 19.70    +28 29 46.2   116415 1.0169 130.1  m  15?  44.17 145.9   75 148  76  77
   2024 07 16 23:40  19 29 38.40    +28 23 33.4   115752 1.0168 130.2  m  15?  45.24 146.7   76 156  76  77
   2024 07 16 23:50  19 29 57.15    +28 17 08.1   115089 1.0168 130.3  m  15?  46.37 147.4   77 165  76  77
   2024 07 17 00:00  19 30 16.00    +28 10 30.1   114424 1.0168 130.4  m  15?  47.56 148.1   77 175  76  77
   2024 07 17 00:10  19 30 35.01    +28 03 39.0   113758 1.0168 130.5  t  15?  48.82 148.6   77 185  76  77
   2024 07 17 00:20  19 30 54.23    +27 56 34.8   113091 1.0168 130.7  m  15?  50.13 149.1   76 194  76  77
   2024 07 17 00:30  19 31 13.71    +27 49 17.2   112423 1.0168 130.8  m  15?  51.51 149.4   76 203  76  78
   2024 07 17 00:40  19 31 33.51    +27 41 46.0   111753 1.0168 130.9  m  15?  52.94 149.7   75 210  76  78
   2024 07 17 00:50  19 31 53.69    +27 34 01.0   111082 1.0168 131.1  m  15?  54.43 149.9   73 217  76  78
   2024 07 17 01:00  19 32 14.30    +27 26 01.9   110409 1.0168 131.2     15?  55.97 150.1   72 223  75  78
   2024 07 17 01:10  19 32 35.40    +27 17 48.7   109734 1.0168 131.3     15?  57.57 150.2   71 228  75  78
   2024 07 17 01:20  19 32 57.05    +27 09 21.2   109057 1.0168 131.5     15?  59.23 150.2   69 233  75  78
   2024 07 17 01:30  19 33 19.31    +27 00 39.1   108378 1.0168 131.6     15?  60.94 150.1   68 237  75  78
   2024 07 17 01:40  19 33 42.23    +26 51 42.3   107696 1.0168 131.8     15?  62.70 150.0   66 240  75  78
   2024 07 17 01:50  19 34 05.88    +26 42 30.7   107012 1.0168 132.0     15?  64.52 149.9   64 244  75  78
   2024 07 17 02:00  19 34 30.31    +26 33 04.0   106325 1.0168 132.1     15?  66.40 149.7   62 246  75  78
   2024 07 17 02:10  19 34 55.59    +26 23 22.0   105635 1.0168 132.3     15?  68.34 149.4   61 249  75  78
   2024 07 17 02:20  19 35 21.77    +26 13 24.8   104942 1.0168 132.5     14?  70.34 149.2   59 251  75  78
   2024 07 17 02:30  19 35 48.92    +26 03 11.9   104245 1.0168 132.6     14?  72.39 148.8   57 254  75  78
   2024 07 17 02:40  19 36 17.09    +25 52 43.4   103544 1.0168 132.8     14?  74.51 148.5   55 256  75  78
   2024 07 17 02:50  19 36 46.35    +25 41 58.9   102839 1.0168 133.0     14?  76.69 148.1   53 257  75  78
   2024 07 17 03:00  19 37 16.76    +25 30 58.4   102129 1.0168 133.2 A   14?  78.94 147.7   51 259  74  78
   2024 07 17 03:10  19 37 48.38    +25 19 41.6   101414 1.0168 133.4 A   14?  81.26 147.3   50 261  74  78
   2024 07 17 03:20  19 38 21.26    +25 08 08.3   100694 1.0168 133.6 A   14?  83.65 146.8   48 262  74  78
   2024 07 17 03:30  19 38 55.48    +24 56 18.4    99969 1.0168 133.8 A   14?  86.11 146.4   46 264  74  79
   2024 07 17 03:40  19 39 31.09    +24 44 11.5    99237 1.0168 134.0 A   14?  88.64 145.9   44 265  74  79
   2024 07 17 03:50  19 40 08.15    +24 31 47.5    98499 1.0168 134.2 N   14?  91.25 145.4   42 267  74  79
   2024 07 17 04:00  19 40 46.73    +24 19 06.0    97755 1.0168 134.4 N   14?  93.95 144.9   40 268  74  79
   2024 07 17 04:10  19 41 26.88    +24 06 06.9    97003 1.0168 134.7 N   14?  96.73 144.4   38 269  74  79
   2024 07 17 04:20  19 42 08.67    +23 52 49.7    96243 1.0168 134.9 N   14?  99.60 143.9   36 271  74  79
   2024 07 17 04:30  19 42 52.16    +23 39 14.2    95476 1.0168 135.1 C   14? 102.56 143.4   34 272  74  79
   2024 07 17 04:40  19 43 37.41    +23 25 20.0    94700 1.0168 135.4 C   14? 105.62 142.8   33 273  74  79
   2024 07 17 04:50  19 44 24.50    +23 11 06.6    93915 1.0168 135.6 C   14? 108.77 142.3   31 274  74  79
   ................
   2024 07 17 19:50  15 50 05.94    +42 06 08.3    64364 1.0163  96.1 Cm  12? 155.08  85.3   84  76  69  84
   2024 07 17 20:00  15 52 21.98    +42 07 53.9    65685 1.0163  96.4 Cm  13? 148.50  86.4   85  72  69  84
   2024 07 17 20:10  15 54 32.58    +42 09 07.0    66989 1.0163  96.7 Cm  13? 142.49  87.5   86  65  69  85
   2024 07 17 20:20  15 56 38.15    +42 09 50.1    68276 1.0163  97.0 Nm  13? 136.99  88.6   88  47  69  85
   2024 07 17 20:30  15 58 39.07    +42 10 05.2    69546 1.0163  97.3 Nt  13? 131.98  89.8   88 353  69  85
   2024 07 17 20:40  16 00 35.68    +42 09 54.3    70802 1.0163  97.6 Nm  13? 127.40  90.9   87 307  69  85
   2024 07 17 20:50  16 02 28.30    +42 09 19.2    72042 1.0163  97.9 Nm  13? 123.22  92.0   86 292  69  85
   2024 07 17 21:00  16 04 17.23    +42 08 21.3    73269 1.0164  98.2 Am  13? 119.40  93.1   85 286  69  85
   2024 07 17 21:10  16 06 02.73    +42 07 02.2    74482 1.0164  98.4 Am  13? 115.93  94.3   83 283  69  85
   2024 07 17 21:20  16 07 45.07    +42 05 23.2    75682 1.0164  98.7 Am  13? 112.77  95.4   82 281  69  85
   2024 07 17 21:30  16 09 24.49    +42 03 25.5    76870 1.0164  98.9 Am  13? 109.91  96.5   80 280  69  85
   2024 07 17 21:40  16 11 01.20    +42 01 10.2    78045 1.0164  99.2 Am  13? 107.31  97.5   78 280  69  85
   2024 07 17 21:50  16 12 35.41    +41 58 38.5    79209 1.0164  99.5  m  13? 104.96  98.6   77 280  69  85
   2024 07 17 22:00  16 14 07.31    +41 55 51.2    80362 1.0164  99.7  m  13? 102.83  99.6   75 280  69  85
   2024 07 17 22:10  16 15 37.09    +41 52 49.4    81504 1.0164  99.9  m  13? 100.92 100.6   74 280  69  85
   2024 07 17 22:20  16 17 04.91    +41 49 33.9    82635 1.0164 100.2  m  13?  99.21 101.5   72 280  69  85
   2024 07 17 22:30  16 18 30.93    +41 46 05.6    83757 1.0164 100.4  m  13?  97.67 102.5   71 280  69  85
   2024 07 17 22:40  16 19 55.30    +41 42 25.2    84869 1.0164 100.6  m  13?  96.30 103.4   69 281  69  85
   2024 07 17 22:50  16 21 18.16    +41 38 33.4    85971 1.0164 100.9  m  13?  95.09 104.2   67 281  69  85
   2024 07 17 23:00  16 22 39.63    +41 34 31.0    87064 1.0164 101.1  m  13?  94.01 105.0   66 282  69  85
   2024 07 17 23:10  16 23 59.84    +41 30 18.7    88148 1.0164 101.3  m  13?  93.06 105.8   64 282  68  85
   2024 07 17 23:20  16 25 18.90    +41 25 57.1    89223 1.0164 101.6  m  13?  92.23 106.6   62 283  68  85
   2024 07 17 23:30  16 26 36.92    +41 21 26.9    90289 1.0164 101.8  m  13?  91.50 107.2   61 283  68  85
   2024 07 17 23:40  16 27 54.00    +41 16 48.6    91347 1.0164 102.0  m  13?  90.88 107.9   59 284  68  85
   2024 07 17 23:50  16 29 10.22    +41 12 02.9    92397 1.0164 102.3  m  13?  90.34 108.5   58 284  68  85
   2024 07 18 00:00  16 30 25.69    +41 07 10.3    93438 1.0164 102.5  m  13?  89.89 109.0   56 285  68  85
   2024 07 18 00:10  16 31 40.48    +41 02 11.4    94471 1.0164 102.7  m  13?  89.51 109.5   54 286  68  85
   2024 07 18 00:20  16 32 54.66    +40 57 06.6    95497 1.0164 102.9  m  13?  89.19 110.0   53 286  68  85
   2024 07 18 00:30  16 34 08.30    +40 51 56.5    96514 1.0164 103.2  m  14?  88.94 110.4   51 287  68  85
   2024 07 18 00:40  16 35 21.48    +40 46 41.6    97524 1.0164 103.4  m  14?  88.74 110.7   50 288  68  85
   2024 07 18 00:50  16 36 34.25    +40 41 22.4    98526 1.0164 103.6  m  14?  88.59 111.0   48 288  68  85
   2024 07 18 01:00  16 37 46.67    +40 35 59.4    99520 1.0164 103.8  m  14?  88.48 111.3   46 289  68  86
   2024 07 18 01:10  16 38 58.80    +40 30 32.9   100506 1.0164 104.1  m  14?  88.41 111.6   45 290  68  86
   2024 07 18 01:20  16 40 10.67    +40 25 03.5   101484 1.0164 104.3  m  14?  88.38 111.8   43 291  67  86
   2024 07 18 01:30  16 41 22.33    +40 19 31.6   102455 1.0165 104.5  m  14?  88.37 111.9   42 291  67  86
   2024 07 18 01:40  16 42 33.84    +40 13 57.5   103418 1.0165 104.7     14?  88.39 112.1   40 292  67  86
   2024 07 18 01:50  16 43 45.21    +40 08 21.7   104374 1.0165 104.9     14?  88.44 112.2   38 293  67  86
   2024 07 18 02:00  16 44 56.49    +40 02 44.6   105321 1.0165 105.2     14?  88.51 112.2   37 294  67  86
   2024 07 18 02:10  16 46 07.71    +39 57 06.5   106260 1.0165 105.4     14?  88.59 112.2   35 294  67  86
   2024 07 18 02:20  16 47 18.90    +39 51 27.9   107192 1.0165 105.6     14?  88.68 112.2   34 295  67  86
   2024 07 18 02:30  16 48 30.07    +39 45 49.1   108115 1.0165 105.8     14?  88.79 112.2   32 296  67  86
   2024 07 18 02:40  16 49 41.26    +39 40 10.4   109031 1.0165 106.1     14?  88.91 112.2   31 297  67  86
   2024 07 18 02:50  16 50 52.48    +39 34 32.1   109938 1.0165 106.3     14?  89.03 112.1   29 298  67  86
   2024 07 18 03:00  16 52 03.75    +39 28 54.7   110837 1.0165 106.5 A   14?  89.16 112.0   28 299  67  86
   2024 07 18 03:10  16 53 15.09    +39 23 18.3   111728 1.0165 106.7 A   14?  89.29 111.9   26 300  66  86
   2024 07 18 03:20  16 54 26.50    +39 17 43.4   112610 1.0165 107.0 A   14?  89.42 111.7   25 301  66  86
   2024 07 18 03:30  16 55 38.00    +39 12 10.1   113483 1.0165 107.2 A   14?  89.56 111.6   23 302  66  86
   2024 07 18 03:40  16 56 49.59    +39 06 38.8   114348 1.0165 107.4 A   14?  89.69 111.4   22 303  66  86
   2024 07 18 03:50  16 58 01.28    +39 01 09.8   115204 1.0165 107.6 N   14?  89.81 111.2   20 304  66  86
   2024 07 18 04:00  16 59 13.09    +38 55 43.3   116051 1.0165 107.8 N   14?  89.93 111.0   19 305  66  86
   2024 07 18 04:10  17 00 25.00    +38 50 19.5   116888 1.0165 108.1 N   14?  90.05 110.8   17 306  66  86
   2024 07 18 04:20  17 01 37.02    +38 44 58.7   117717 1.0165 108.3 N   14?  90.16 110.5   16 307  66  86
   2024 07 18 04:30  17 02 49.15    +38 39 41.2   118536 1.0165 108.5 C   14?  90.25 110.3   15 308  66  86
   2024 07 18 04:40  17 04 01.38    +38 34 27.2   119346 1.0165 108.7 C   14?  90.34 110.0   13 309  66  87
   2024 07 18 04:50  17 05 13.73    +38 29 16.7   120146 1.0165 108.9 C   14?  90.42 109.7   12 310  66  87
   ................
   2024 07 18 19:50  18 26 38.29    +35 56 28.5   147206 1.0167 119.5 Cm  15?  21.89 104.9   54  82  66  91
   2024 07 18 20:00  18 26 55.32    +35 55 28.6   147162 1.0167 119.6 Cm  15?  21.20 107.0   55  83  66  91
   2024 07 18 20:10  18 27 11.64    +35 54 22.9   147118 1.0167 119.6 Cm  15?  20.58 109.3   57  85  66  91
   2024 07 18 20:20  18 27 27.27    +35 53 11.3   147074 1.0167 119.6 Nm  15?  20.04 111.7   59  86  66  91
   2024 07 18 20:30  18 27 42.25    +35 51 53.5   147029 1.0167 119.7 Nm  15?  19.58 114.2   61  88  66  91
   2024 07 18 20:40  18 27 56.61    +35 50 29.3   146985 1.0167 119.7 Nm  15?  19.21 116.9   63  89  66  91
   2024 07 18 20:50  18 28 10.39    +35 48 58.6   146940 1.0167 119.8 Nm  15?  18.92 119.6   65  91  66  91
   2024 07 18 21:00  18 28 23.62    +35 47 21.1   146896 1.0167 119.8 Am  15?  18.73 122.4   66  93  66  91
   2024 07 18 21:10  18 28 36.35    +35 45 36.8   146853 1.0167 119.9 Am  15?  18.63 125.1   68  95  66  91
   2024 07 18 21:20  18 28 48.60    +35 43 45.5   146810 1.0167 119.9 Am  15?  18.62 127.9   70  97  66  91
   2024 07 18 21:30  18 29 00.44    +35 41 47.0   146768 1.0167 119.9 Am  15?  18.70 130.5   72 100  66  91
   2024 07 18 21:40  18 29 11.88    +35 39 41.3   146727 1.0167 120.0 Am  15?  18.87 133.1   74 103  66  91
   2024 07 18 21:50  18 29 22.98    +35 37 28.3   146687 1.0167 120.0  m  15?  19.11 135.5   76 106  66  91
   2024 07 18 22:00  18 29 33.78    +35 35 07.7   146648 1.0167 120.1  m  15?  19.42 137.8   77 111  66  92
   2024 07 18 22:10  18 29 44.32    +35 32 39.7   146610 1.0167 120.1  m  15?  19.81 139.8   79 116  66  92
   2024 07 18 22:20  18 29 54.64    +35 30 04.0   146574 1.0167 120.2  m  15?  20.26 141.7   81 124  65  92
   2024 07 18 22:30  18 30 04.79    +35 27 20.7   146539 1.0167 120.2  m  15?  20.76 143.4   82 134  65  92
   2024 07 18 22:40  18 30 14.81    +35 24 29.7   146506 1.0167 120.3  m  15?  21.31 144.9   83 147  65  92
   2024 07 18 22:50  18 30 24.74    +35 21 30.9   146474 1.0167 120.4  m  15?  21.91 146.2   84 165  65  92
   2024 07 18 23:00  18 30 34.63    +35 18 24.5   146443 1.0167 120.4  t  15?  22.55 147.3   84 186  65  92
   2024 07 18 23:10  18 30 44.53    +35 15 10.3   146414 1.0167 120.5  m  15?  23.23 148.3   83 205  65  92
   2024 07 18 23:20  18 30 54.48    +35 11 48.5   146387 1.0167 120.5  m  15?  23.94 149.0   82 220  65  92
   2024 07 18 23:30  18 31 04.51    +35 08 18.9   146361 1.0167 120.6  m  15?  24.67 149.7   81 230  65  92
   2024 07 18 23:40  18 31 14.69    +35 04 41.8   146337 1.0167 120.7  m  15?  25.43 150.1   79 238  65  92
   2024 07 18 23:50  18 31 25.04    +35 00 57.1   146314 1.0167 120.7  m  15?  26.21 150.4   78 244  65  92
   2024 07 19 00:00  18 31 35.61    +34 57 04.8   146292 1.0167 120.8  m  15?  27.01 150.7   76 249  65  92
   2024 07 19 00:10  18 31 46.44    +34 53 05.2   146272 1.0167 120.9  m  15?  27.83 150.7   74 252  65  92
   2024 07 19 00:20  18 31 57.59    +34 48 58.3   146253 1.0167 121.0  m  15?  28.66 150.7   72 256  65  92
   2024 07 19 00:30  18 32 09.07    +34 44 44.2   146236 1.0167 121.0  m  15?  29.51 150.6   70 258  65  92
   2024 07 19 00:40  18 32 20.94    +34 40 23.0   146219 1.0167 121.1  m  15?  30.37 150.4   69 261  65  92
   2024 07 19 00:50  18 32 33.24    +34 35 54.9   146203 1.0167 121.2  m  15?  31.25 150.1   67 263  65  92
   2024 07 19 01:00  18 32 46.00    +34 31 20.0   146188 1.0167 121.3  m  15?  32.13 149.8   65 264  64  92
   2024 07 19 01:10  18 32 59.26    +34 26 38.5   146174 1.0167 121.4  m  15?  33.03 149.4   63 266  64  92
   2024 07 19 01:20  18 33 13.06    +34 21 50.5   146161 1.0167 121.5  m  15?  33.93 148.9   61 268  64  92
   2024 07 19 01:30  18 33 27.42    +34 16 56.3   146147 1.0167 121.6  m  15?  34.85 148.4   59 269  64  92
   2024 07 19 01:40  18 33 42.39    +34 11 55.9   146134 1.0167 121.7  m  15?  35.77 147.8   57 271  64  92
   2024 07 19 01:50  18 33 57.99    +34 06 49.6   146121 1.0167 121.8  m  15?  36.71 147.2   55 272  64  92
   2024 07 19 02:00  18 34 14.26    +34 01 37.6   146108 1.0167 121.9  m  15?  37.65 146.5   54 273  64  92
   2024 07 19 02:10  18 34 31.23    +33 56 20.0   146094 1.0167 122.0  m  15?  38.60 145.8   52 275  64  92
   2024 07 19 02:20  18 34 48.92    +33 50 57.2   146080 1.0167 122.1  m  15?  39.56 145.1   50 276  64  92
   2024 07 19 02:30  18 35 07.36    +33 45 29.4   146065 1.0167 122.2     15?  40.52 144.4   48 277  64  92
   2024 07 19 02:40  18 35 26.57    +33 39 56.6   146049 1.0167 122.3     15?  41.50 143.6   46 278  64  92
   2024 07 19 02:50  18 35 46.58    +33 34 19.3   146031 1.0167 122.4     15?  42.48 142.9   44 279  63  92
   2024 07 19 03:00  18 36 07.42    +33 28 37.6   146012 1.0167 122.5     15?  43.46 142.1   42 281  63  92
   2024 07 19 03:10  18 36 29.09    +33 22 51.7   145991 1.0167 122.6 A   15?  44.46 141.3   41 282  63  92
   2024 07 19 03:20  18 36 51.62    +33 17 01.9   145968 1.0167 122.8 A   15?  45.45 140.5   39 283  63  92
   2024 07 19 03:30  18 37 15.03    +33 11 08.5   145942 1.0167 122.9 A   15?  46.46 139.7   37 284  63  92
   2024 07 19 03:40  18 37 39.33    +33 05 11.6   145914 1.0167 123.0 A   15?  47.47 138.8   35 285  63  93
   2024 07 19 03:50  18 38 04.53    +32 59 11.5   145883 1.0167 123.1 N   15?  48.48 138.0   33 286  63  93
   2024 07 19 04:00  18 38 30.66    +32 53 08.5   145849 1.0167 123.2 N   15?  49.49 137.2   32 287  63  93
   2024 07 19 04:10  18 38 57.71    +32 47 02.7   145811 1.0167 123.4 N   15?  50.51 136.4   30 288  63  93
   2024 07 19 04:20  18 39 25.70    +32 40 54.5   145770 1.0167 123.5 N   15?  51.53 135.6   28 290  62  93
   2024 07 19 04:30  18 39 54.64    +32 34 44.1   145724 1.0167 123.6 C   15?  52.56 134.8   26 291  62  93
   2024 07 19 04:40  18 40 24.54    +32 28 31.6   145674 1.0167 123.8 C   15?  53.58 134.0   25 292  62  93
   2024 07 19 04:50  18 40 55.39    +32 22 17.4   145620 1.0167 123.9 C   15?  54.61 133.2   23 293  62  93
   ................
   2024 07 19 19:50  20 04 31.08    +23 33 38.9    96577 1.0166 135.7 Cm  14?  94.70 123.1   30  83  57  96
   2024 07 19 20:00  20 05 28.62    +23 24 50.6    95493 1.0166 135.8 Cm  14?  95.65 124.0   32  85  57  96
   2024 07 19 20:10  20 06 26.10    +23 15 44.7    94399 1.0166 135.9 Cm  14?  96.71 124.8   33  86  57  96
   2024 07 19 20:20  20 07 23.57    +23 06 20.2    93295 1.0166 136.1 Nm  14?  97.89 125.7   35  88  57  96
   2024 07 19 20:30  20 08 21.05    +22 56 36.0    92183 1.0166 136.2 Nm  14?  99.21 126.6   36  90  57  96
   2024 07 19 20:40  20 09 18.59    +22 46 31.1    91061 1.0166 136.4 Nm  14? 100.67 127.5   38  91  56  96
   2024 07 19 20:50  20 10 16.24    +22 36 04.2    89930 1.0166 136.5 Nm  14? 102.28 128.4   40  93  56  96
   2024 07 19 21:00  20 11 14.03    +22 25 14.2    88790 1.0166 136.7 Am  14? 104.05 129.3   41  95  56  96
   2024 07 19 21:10  20 12 12.04    +22 13 59.9    87640 1.0166 136.9 Am  14? 105.99 130.2   43  97  56  96
   2024 07 19 21:20  20 13 10.31    +22 02 19.8    86481 1.0166 137.1 Am  14? 108.11 131.1   44  99  56  96
   2024 07 19 21:30  20 14 08.91    +21 50 12.6    85313 1.0166 137.2 Am  14? 110.43 132.0   46 101  56  96
   2024 07 19 21:40  20 15 07.90    +21 37 36.6    84135 1.0166 137.4  m  14? 112.95 132.9   48 103  56  96
   2024 07 19 21:50  20 16 07.36    +21 24 30.5    82947 1.0166 137.6  m  14? 115.70 133.7   49 105  56  96
   2024 07 19 22:00  20 17 07.37    +21 10 52.3    81750 1.0166 137.8  m  14? 118.68 134.5   51 107  56  96
   2024 07 19 22:10  20 18 08.01    +20 56 40.3    80543 1.0165 138.0  m  14? 121.90 135.3   52 110  55  96
   2024 07 19 22:20  20 19 09.38    +20 41 52.6    79326 1.0165 138.2  m  14? 125.39 136.1   53 113  55  96
   2024 07 19 22:30  20 20 11.58    +20 26 27.1    78099 1.0165 138.5  m  14? 129.17 136.9   55 115  55  96
   2024 07 19 22:40  20 21 14.70    +20 10 21.6    76861 1.0165 138.7  m  14? 133.25 137.6   56 118  55  96
   2024 07 19 22:50  20 22 18.88    +19 53 33.6    75613 1.0165 138.9  m  14? 137.65 138.3   57 121  55  96
   2024 07 19 23:00  20 23 24.22    +19 36 00.5    74354 1.0165 139.2  m  14? 142.40 138.9   59 125  55  96
   2024 07 19 23:10  20 24 30.87    +19 17 39.7    73083 1.0165 139.5  m  14? 147.53 139.6   60 128  54  96
   2024 07 19 23:20  20 25 38.98    +18 58 27.9    71801 1.0165 139.7  m  14? 153.07 140.2   61 132  54  96
   2024 07 19 23:30  20 26 48.69    +18 38 22.1    70507 1.0165 140.0  m  14? 159.04 140.7   62 136  54  96
   2024 07 19 23:40  20 28 00.19    +18 17 18.4    69200 1.0165 140.3  m  14? 165.48 141.3   62 140  54  96
   2024 07 19 23:50  20 29 13.65    +17 55 13.1    67881 1.0165 140.6  m  14? 172.45 141.8   63 145  54  97
   2024 07 20 00:00  20 30 29.28    +17 32 01.7    66548 1.0165 140.9  m  14? 179.98 142.2   64 150  53  97
   2024 07 20 00:10  20 31 47.30    +17 07 39.6    65201 1.0165 141.3  m  14? 188.14 142.7   64 154  53  97
   2024 07 20 00:20  20 33 07.95    +16 42 01.4    63839 1.0165 141.6  m  14? 196.98 143.1   64 159  53  97
   2024 07 20 00:30  20 34 31.49    +16 15 01.3    62463 1.0165 142.0  e  14? 206.57 143.5   64 164  53  97
   2024 07 20 00:40  20 35 58.21    +15 46 32.8    61070 1.0165 142.3  m  14? 217.01 143.8   64 169  52  97
   2024 07 20 00:50  20 37 28.43    +15 16 28.5    59661 1.0165 142.7  m  14? 228.38 144.1   64 174  52  97
   2024 07 20 01:00  20 39 02.51    +14 44 40.2    58235 1.0165 143.2  m  14? 240.81 144.5   63 179  52  97
   2024 07 20 01:10  20 40 40.84    +14 10 58.8    56790 1.0164 143.6  t  13? 254.42 144.7   63 183  52  97
   2024 07 20 01:20  20 42 23.86    +13 35 13.5    55325 1.0164 144.0  m  13? 269.36 145.0   62 188  51  97
   2024 07 20 01:30  20 44 12.07    +12 57 12.5    53841 1.0164 144.5  m  13? 285.84 145.3   61 192  51  97
   2024 07 20 01:40  20 46 06.02    +12 16 41.9    52335 1.0164 145.0  m  13? 304.05 145.5   60 195  51  97
   2024 07 20 01:50  20 48 06.35    +11 33 25.7    50806 1.0164 145.5  m  13? 324.28 145.7   59 199  50  97
   2024 07 20 02:00  20 50 13.79    +10 47 05.5    49254 1.0164 146.0  m  13? 346.84 146.0   58 202  50  97
   2024 07 20 02:10  20 52 29.17    +09 57 19.6    47676 1.0164 146.6  m  13? 372.13 146.2   56 205  49  97
   2024 07 20 02:20  20 54 53.47    +09 03 42.5    46072 1.0164 147.2  m  13? 400.63 146.4   55 208  49  97
   2024 07 20 02:30  20 57 27.83    +08 05 44.0    44439 1.0164 147.8  m  13? 432.93 146.6   53 210  49  97
   2024 07 20 02:40  21 00 13.59    +07 02 47.7    42776 1.0164 148.4  m  13? 469.79 146.8   52 212  48  97
   2024 07 20 02:50  21 03 12.38    +05 54 09.9    41082 1.0164 149.0  m  13? 512.18 147.1   50 214  48  97
   2024 07 20 03:00  21 06 26.15    +04 38 56.9    39354 1.0164 149.7  m  13? 561.31 147.3   48 215  47  97
   2024 07 20 03:10  21 09 57.30    +03 16 02.6    37590 1.0163 150.3 Am  13? 618.81 147.6   46 216  47  97
   2024 07 20 03:20  21 13 48.82    +01 44 04.3    35789 1.0163 151.0 Am  13? 686.79 147.8   44 217  46  97
   2024 07 20 03:30  21 18 04.51    +00 01 17.2    33948 1.0163 151.6 A   13? 768.13 148.1   42 218  46  97
   2024 07 20 03:40  21 22 49.28    -01 54 33.6    32066 1.0163 152.2 A   12? 866.75 148.4   39 218  46  97
   2024 07 20 03:50  21 28 09.67    -04 06 24.5    30141 1.0163 152.6 N   12? 988.14 148.8   37 218  45  97
   2024 07 20 04:00  21 34 14.57    -06 38 10.6    28173 1.0163 152.9 N   12? 1140.2 149.1   34 218  45  97
   2024 07 20 04:10  21 41 16.55    -09 35 11.2    26161 1.0163 152.9 N   12? 1334.3 149.5   31 217  45  97
   2024 07 20 04:20  21 49 34.11    -13 04 49.3    24110 1.0163 152.4 N   12? 1587.7 149.8   28 216  45  97
   2024 07 20 04:30  21 59 35.99    -17 17 32.4    22025 1.0162 151.2 C   12? 1926.8 150.1   24 214  45  97
   2024 07 20 04:40  22 12 09.97    -22 28 23.6    19923 1.0162 148.9 C   11? 2392.3 150.2   20 211  46  97
   2024 07 20 04:50  22 28 43.19    -28 59 06.4    17834 1.0162 145.1 C   11? 3047.3 149.9   14 206  47  97
   ................
   2024 07 20 19:50  17 19 12.91    +40 27 47.1   113786 1.0163 108.3 Cm  14?  37.54  98.5   69  82  74  99
   2024 07 20 20:00  17 19 44.93    +40 26 45.8   114393 1.0163 108.3 Cm  14?  36.61 100.2   71  83  74  99
   2024 07 20 20:10  17 20 16.02    +40 25 34.9   114998 1.0163 108.4 Cm  14?  35.80 102.0   73  84  74  99
   2024 07 20 20:20  17 20 46.24    +40 24 14.2   115599 1.0163 108.5 Nm  14?  35.10 103.9   74  85  74  99
   2024 07 20 20:30  17 21 15.65    +40 22 43.8   116198 1.0163 108.6 Nm  14?  34.51 105.8   76  86  74  99
   2024 07 20 20:40  17 21 44.32    +40 21 03.8   116794 1.0163 108.6 Nm  14?  34.03 107.7   78  87  74  99
   2024 07 20 20:50  17 22 12.32    +40 19 14.2   117388 1.0163 108.7 Nm  14?  33.66 109.6   80  89  74  99
   2024 07 20 21:00  17 22 39.71    +40 17 15.0   117980 1.0163 108.8 Am  14?  33.40 111.6   82  91  74  99
   2024 07 20 21:10  17 23 06.56    +40 15 06.4   118569 1.0163 108.9 Am  14?  33.24 113.4   83  93  74  99
   2024 07 20 21:20  17 23 32.92    +40 12 48.3   119156 1.0163 109.0 Am  14?  33.17 115.3   85  97  74  99
   2024 07 20 21:30  17 23 58.86    +40 10 21.0   119742 1.0163 109.0 Am  14?  33.20 117.0   87 106  74  99
   2024 07 20 21:40  17 24 24.44    +40 07 44.6   120326 1.0163 109.1  m  14?  33.31 118.7   89 143  74  99
   2024 07 20 21:50  17 24 49.73    +40 04 59.1   120908 1.0163 109.2  t  14?  33.50 120.3   88 237  74  99
   2024 07 20 22:00  17 25 14.77    +40 02 04.7   121489 1.0163 109.3  m  14?  33.77 121.7   86 255  74  99
   2024 07 20 22:10  17 25 39.63    +39 59 01.5   122068 1.0163 109.4  m  14?  34.10 123.1   84 261  74  99
   2024 07 20 22:20  17 26 04.36    +39 55 49.8   122646 1.0163 109.5  m  14?  34.50 124.4   83 264  74  99
   2024 07 20 22:30  17 26 29.02    +39 52 29.7   123223 1.0163 109.6  m  14?  34.95 125.5   81 266  74  99
   2024 07 20 22:40  17 26 53.66    +39 49 01.5   123798 1.0164 109.7  m  14?  35.46 126.6   79 268  73  99
   2024 07 20 22:50  17 27 18.33    +39 45 25.2   124372 1.0164 109.8  m  14?  36.01 127.5   77 269  73  99
   2024 07 20 23:00  17 27 43.09    +39 41 41.1   124945 1.0164 109.8  m  14?  36.60 128.3   75 271  73  99
   2024 07 20 23:10  17 28 07.98    +39 37 49.5   125516 1.0164 109.9  m  14?  37.23 129.0   74 272  73  99
   2024 07 20 23:20  17 28 33.04    +39 33 50.5   126086 1.0164 110.0  m  14?  37.89 129.6   72 273  73  99
   2024 07 20 23:30  17 28 58.33    +39 29 44.5   126655 1.0164 110.1  m  14?  38.57 130.1   70 274  73  99
   2024 07 20 23:40  17 29 23.88    +39 25 31.6   127223 1.0164 110.2  m  14?  39.28 130.5   68 275  73  99
   2024 07 20 23:50  17 29 49.75    +39 21 12.2   127789 1.0164 110.4  m  14?  40.01 130.8   66 276  73  99
   2024 07 21 00:00  17 30 15.96    +39 16 46.5   128354 1.0164 110.5  m  14?  40.76 131.0   64 277  73  99
   2024 07 21 00:10  17 30 42.55    +39 12 14.8   128917 1.0164 110.6  m  14?  41.53 131.2   63 278  73  99
   2024 07 21 00:20  17 31 09.57    +39 07 37.3   129479 1.0164 110.7  m  14?  42.31 131.3   61 278  73  99
   2024 07 21 00:30  17 31 37.03    +39 02 54.4   130039 1.0164 110.8  m  14?  43.09 131.3   59 279  73  99
   2024 07 21 00:40  17 32 04.99    +38 58 06.3   130597 1.0164 110.9  m  14?  43.89 131.2   57 280  72  99
   2024 07 21 00:50  17 32 33.46    +38 53 13.4   131153 1.0164 111.0  m  14?  44.69 131.1   55 281  72  99
   2024 07 21 01:00  17 33 02.47    +38 48 15.9   131708 1.0164 111.2  m  14?  45.50 131.0   54 282  72  99
   2024 07 21 01:10  17 33 32.06    +38 43 14.2   132260 1.0164 111.3  m  14?  46.32 130.8   52 283  72  99
   2024 07 21 01:20  17 34 02.23    +38 38 08.5   132809 1.0164 111.4  m  14?  47.13 130.5   50 284  72  99
   2024 07 21 01:30  17 34 33.02    +38 32 59.1   133357 1.0164 111.5  m  14?  47.95 130.2   48 285  72  99
   2024 07 21 01:40  17 35 04.45    +38 27 46.5   133901 1.0164 111.7  m  14?  48.76 129.9   47 286  72  99
   2024 07 21 01:50  17 35 36.52    +38 22 30.8   134443 1.0164 111.8  m  14?  49.58 129.5   45 287  72  99
   2024 07 21 02:00  17 36 09.27    +38 17 12.4   134982 1.0164 111.9  m  14?  50.39 129.2   43 287  71  99
   2024 07 21 02:10  17 36 42.69    +38 11 51.5   135518 1.0164 112.1  m  14?  51.20 128.7   41 288  71  99
   2024 07 21 02:20  17 37 16.82    +38 06 28.6   136050 1.0164 112.2  m  15?  52.01 128.3   40 289  71  99
   2024 07 21 02:30  17 37 51.65    +38 01 03.8   136579 1.0164 112.3  m  15?  52.81 127.8   38 290  71  99
   2024 07 21 02:40  17 38 27.19    +37 55 37.6   137104 1.0164 112.5  m  15?  53.60 127.4   36 291  71  99
   2024 07 21 02:50  17 39 03.45    +37 50 10.1   137625 1.0164 112.6  m  15?  54.39 126.9   34 292  71  99
   2024 07 21 03:00  17 39 40.44    +37 44 41.7   138142 1.0164 112.8  m  15?  55.17 126.4   33 293  71  99
   2024 07 21 03:10  17 40 18.16    +37 39 12.7   138655 1.0164 112.9 Am  15?  55.94 125.8   31 294  71  99
   2024 07 21 03:20  17 40 56.61    +37 33 43.4   139162 1.0164 113.1 Am  15?  56.70 125.3   29 295  70  99
   2024 07 21 03:30  17 41 35.79    +37 28 14.0   139665 1.0164 113.2 Am  15?  57.46 124.8   28 296  70  99
   2024 07 21 03:40  17 42 15.70    +37 22 44.8   140163 1.0164 113.3 Am  15?  58.20 124.2   26 297  70  99
   2024 07 21 03:50  17 42 56.34    +37 17 16.1   140656 1.0164 113.5 Nm  15?  58.93 123.6   25 298  70  99
   2024 07 21 04:00  17 43 37.71    +37 11 48.2   141143 1.0164 113.7 Nm  15?  59.65 123.1   23 299  70  99
   2024 07 21 04:10  17 44 19.79    +37 06 21.2   141625 1.0164 113.8 Nm  15?  60.35 122.5   21 300  70  99
   2024 07 21 04:20  17 45 02.59    +37 00 55.6   142100 1.0164 114.0 Nm  15?  61.05 121.9   20 301  70  99
   2024 07 21 04:30  17 45 46.08    +36 55 31.4   142569 1.0164 114.1 Cm  15?  61.72 121.4   18 302  69  99
   2024 07 21 04:40  17 46 30.27    +36 50 09.0   143031 1.0164 114.3 C   15?  62.39 120.8   17 304  69  99
   2024 07 21 04:50  17 47 15.15    +36 44 48.6   143487 1.0164 114.4 C   15?  63.03 120.2   15 305  69  99
   ................
   2024 07 21 19:50  18 55 15.60    +33 05 42.3   143873 1.0165 124.0 C   15?  25.95 112.9   49  84  62  99
   2024 07 21 20:00  18 55 34.24    +33 03 57.8   143533 1.0165 124.0 C   15?  25.37 114.8   51  85  62  99
   2024 07 21 20:10  18 55 52.19    +33 02 07.7   143191 1.0165 124.1 C   15?  24.87 116.8   53  87  62  99
   2024 07 21 20:20  18 56 09.47    +33 00 11.6   142848 1.0165 124.1 Nm  15?  24.44 119.0   55  89  62  99
   2024 07 21 20:30  18 56 26.12    +32 58 09.4   142505 1.0165 124.2 Nm  15?  24.08 121.2   57  90  61  99
   2024 07 21 20:40  18 56 42.16    +32 56 00.7   142161 1.0165 124.2 Nm  15?  23.81 123.4   58  92  61  99
   2024 07 21 20:50  18 56 57.61    +32 53 45.5   141817 1.0165 124.3 Nm  15?  23.62 125.7   60  94  61  99
   2024 07 21 21:00  18 57 12.53    +32 51 23.4   141473 1.0165 124.3 Am  15?  23.51 128.1   62  96  61  99
   2024 07 21 21:10  18 57 26.93    +32 48 54.3   141129 1.0165 124.4 Am  15?  23.49 130.4   64  98  61  99
   2024 07 21 21:20  18 57 40.85    +32 46 17.9   140785 1.0165 124.5 Am  15?  23.55 132.6   66 100  61  99
   2024 07 21 21:30  18 57 54.32    +32 43 34.1   140441 1.0165 124.5 Am  15?  23.69 134.8   68 103  61  99
   2024 07 21 21:40  18 58 07.39    +32 40 42.6   140098 1.0165 124.6  m  15?  23.91 136.9   69 106  61  99
   2024 07 21 21:50  18 58 20.10    +32 37 43.4   139755 1.0165 124.6  m  15?  24.21 139.0   71 109  61  99
   2024 07 21 22:00  18 58 32.47    +32 34 36.2   139413 1.0165 124.7  m  15?  24.58 140.9   73 113  61  99
   2024 07 21 22:10  18 58 44.56    +32 31 20.9   139072 1.0165 124.8  m  15?  25.02 142.6   74 118  61  99
   2024 07 21 22:20  18 58 56.40    +32 27 57.4   138731 1.0165 124.8  m  15?  25.53 144.2   76 123  61  99
   2024 07 21 22:30  18 59 08.03    +32 24 25.6   138392 1.0165 124.9  m  15?  26.09 145.7   77 130  61  99
   2024 07 21 22:40  18 59 19.51    +32 20 45.2   138054 1.0165 125.0  m  15?  26.71 147.0   79 138  61  99
   2024 07 21 22:50  18 59 30.86    +32 16 56.3   137716 1.0165 125.0  m  15?  27.38 148.2   80 148  61  99
   2024 07 21 23:00  18 59 42.15    +32 12 58.7   137380 1.0165 125.1  m  15?  28.10 149.2   80 160  61  99
   2024 07 21 23:10  18 59 53.40    +32 08 52.4   137045 1.0165 125.2  m  15?  28.86 150.1   81 173  61  99
   2024 07 21 23:20  19 00 04.67    +32 04 37.3   136710 1.0165 125.3  t  15?  29.66 150.9   81 187  61  99
   2024 07 21 23:30  19 00 16.00    +32 00 13.3   136377 1.0165 125.3  m  15?  30.49 151.5   80 200  60  99
   2024 07 21 23:40  19 00 27.44    +31 55 40.5   136045 1.0165 125.4  m  15?  31.36 151.9   79 211  60  99
   2024 07 21 23:50  19 00 39.03    +31 50 58.7   135714 1.0165 125.5  m  15?  32.26 152.3   78 220  60  99
   2024 07 22 00:00  19 00 50.82    +31 46 08.1   135384 1.0165 125.6  m  15?  33.19 152.6   77 228  60  99
   2024 07 22 00:10  19 01 02.86    +31 41 08.5   135054 1.0165 125.7  m  15?  34.14 152.7   75 234  60  99
   2024 07 22 00:20  19 01 15.19    +31 36 00.0   134726 1.0165 125.8  m  15?  35.12 152.8   74 239  60  99
   2024 07 22 00:30  19 01 27.85    +31 30 42.7   134398 1.0165 125.9  m  15?  36.13 152.7   72 243  60  99
   2024 07 22 00:40  19 01 40.90    +31 25 16.6   134071 1.0165 126.0  m  15?  37.15 152.6   70 247  60  99
   2024 07 22 00:50  19 01 54.37    +31 19 41.7   133744 1.0165 126.1  m  15?  38.20 152.4   68 250  60  99
   2024 07 22 01:00  19 02 08.31    +31 13 58.1   133417 1.0165 126.2  m  15?  39.27 152.2   67 253  60  99
   2024 07 22 01:10  19 02 22.77    +31 08 05.9   133091 1.0165 126.3  m  15?  40.36 151.9   65 255  59  99
   2024 07 22 01:20  19 02 37.78    +31 02 05.1   132764 1.0165 126.4  m  15?  41.46 151.5   63 258  59  99
   2024 07 22 01:30  19 02 53.40    +30 55 55.9   132438 1.0165 126.5  m  15?  42.59 151.0   61 260  59  99
   2024 07 22 01:40  19 03 09.65    +30 49 38.3   132111 1.0165 126.7  m  15?  43.74 150.6   59 262  59  99
   2024 07 22 01:50  19 03 26.59    +30 43 12.6   131783 1.0165 126.8  m  15?  44.91 150.0   57 263  59  99
   2024 07 22 02:00  19 03 44.24    +30 36 38.7   131455 1.0165 126.9  m  15?  46.09 149.5   55 265  59  99
   2024 07 22 02:10  19 04 02.66    +30 29 56.9   131125 1.0165 127.0  m  15?  47.30 148.9   53 267  59  99
   2024 07 22 02:20  19 04 21.87    +30 23 07.2   130795 1.0165 127.2  m  15?  48.53 148.3   52 268  59  99
   2024 07 22 02:30  19 04 41.91    +30 16 09.9   130463 1.0165 127.3  m  15?  49.77 147.6   50 270  58  99
   2024 07 22 02:40  19 05 02.83    +30 09 05.0   130129 1.0165 127.4  m  15?  51.03 146.9   48 271  58  99
   2024 07 22 02:50  19 05 24.64    +30 01 52.7   129793 1.0165 127.6  m  15?  52.32 146.2   46 272  58  99
   2024 07 22 03:00  19 05 47.39    +29 54 33.2   129455 1.0165 127.7  m  15?  53.62 145.5   44 274  58  99
   2024 07 22 03:10  19 06 11.11    +29 47 06.7   129114 1.0165 127.8 Am  15?  54.94 144.8   42 275  58  99
   2024 07 22 03:20  19 06 35.82    +29 39 33.3   128770 1.0165 128.0 Am  15?  56.28 144.1   40 276  58  99
   2024 07 22 03:30  19 07 01.55    +29 31 53.2   128423 1.0165 128.1 Am  15?  57.64 143.3   38 278  58  99
   2024 07 22 03:40  19 07 28.34    +29 24 06.5   128073 1.0165 128.3 Am  15?  59.02 142.6   37 279  57  99
   2024 07 22 03:50  19 07 56.21    +29 16 13.4   127719 1.0165 128.4 Am  15?  60.42 141.8   35 280  57  99
   2024 07 22 04:00  19 08 25.18    +29 08 14.1   127361 1.0165 128.6 Nm  15?  61.83 141.1   33 281  57  99
   2024 07 22 04:10  19 08 55.28    +29 00 08.8   126998 1.0165 128.8 Nm  15?  63.27 140.3   31 282  57  99
   2024 07 22 04:20  19 09 26.53    +28 51 57.6   126631 1.0165 128.9 Nm  15?  64.73 139.6   29 283  57  99
   2024 07 22 04:30  19 09 58.95    +28 43 40.7   126258 1.0165 129.1 Cm  15?  66.20 138.8   27 285  57  99
   2024 07 22 04:40  19 10 32.55    +28 35 18.2   125880 1.0165 129.3 Cm  15?  67.69 138.1   26 286  56  99
   2024 07 22 04:50  19 11 07.37    +28 26 50.4   125496 1.0165 129.4 Cm  15?  69.20 137.3   24 287  56  99
   ................
   2024 07 22 22:10  11 09 39.55    +14 38 46.1    19962 1.0158  43.1  r  11? 3140.2  51.1    0 288 157  96
   2024 07 22 22:20  11 35 36.01    +19 28 24.6    21888 1.0158  48.2  m  11? 2543.1  53.2    6 290 152  96
   2024 07 22 22:30  11 57 56.74    +23 12 45.8    23895 1.0158  52.7  m  11? 2090.2  55.5   11 291 147  96
   2024 07 22 22:40  12 17 26.41    +26 08 09.7    25938 1.0158  56.7  m  11? 1745.3  57.7   14 291 143  96
   2024 07 22 22:50  12 34 37.79    +28 26 50.0    27990 1.0158  60.2  m  11? 1479.7  59.9   17 292 139  96
   2024 07 22 23:00  12 49 55.64    +30 17 42.9    30034 1.0158  63.2  m  11? 1272.2  62.0   19 293 135  96
   2024 07 22 23:10  13 03 39.07    +31 47 19.1    32059 1.0158  65.8  m  11? 1107.8  64.0   20 294 132  96
   2024 07 22 23:20  13 16 03.10    +33 00 25.1    34060 1.0158  68.2  m  11? 975.57  66.0   21 295 130  96
   2024 07 22 23:30  13 27 19.71    +34 00 33.2    36033 1.0158  70.3  m  12? 867.83  67.8   22 295 127  96
   2024 07 22 23:40  13 37 38.60    +34 50 22.7    37976 1.0158  72.2  m  12? 778.95  69.5   23 296 125  96
   2024 07 22 23:50  13 47 07.67    +35 31 54.5    39887 1.0158  74.0  m  12? 704.80  71.1   23 297 123  96
   2024 07 23 00:00  13 55 53.46    +36 06 41.9    41768 1.0158  75.5  m  12? 642.31  72.6   23 297 122  96
   2024 07 23 00:10  14 04 01.40    +36 35 57.3    43617 1.0158  77.0  e  12? 589.15  74.1   23 298 120  96
   2024 07 23 00:20  14 11 36.08    +37 00 37.9    45436 1.0159  78.3  m  12? 543.55  75.4   23 299 119  96
   2024 07 23 00:30  14 18 41.34    +37 21 29.0    47225 1.0159  79.6  m  12? 504.14  76.7   23 300 117  96
   2024 07 23 00:40  14 25 20.48    +37 39 07.4    48985 1.0159  80.7  m  12? 469.84  78.0   22 300 116  96
   2024 07 23 00:50  14 31 36.31    +37 54 02.7    50717 1.0159  81.8  m  12? 439.80  79.1   22 301 115  96
   2024 07 23 01:00  14 37 31.27    +38 06 39.2    52421 1.0159  82.8  m  12? 413.33  80.2   21 302 114  96
   2024 07 23 01:10  14 43 07.44    +38 17 17.0    54098 1.0159  83.8  m  12? 389.89  81.3   21 302 113  96
   2024 07 23 01:20  14 48 26.67    +38 26 12.6    55749 1.0159  84.7  m  12? 369.03  82.3   20 303 112  96
   2024 07 23 01:30  14 53 30.54    +38 33 40.2    57376 1.0159  85.6  m  12? 350.37  83.2   19 304 111  96
   2024 07 23 01:40  14 58 20.47    +38 39 51.5    58977 1.0159  86.4  m  12? 333.61  84.1   19 304 110  96
   2024 07 23 01:50  15 02 57.70    +38 44 56.5    60555 1.0159  87.2  m  12? 318.51  84.9   18 305 109  96
   2024 07 23 02:00  15 07 23.32    +38 49 03.7    62110 1.0159  88.0  m  12? 304.84  85.7   17 306 108  96
   2024 07 23 02:10  15 11 38.30    +38 52 20.3    63642 1.0159  88.7  m  12? 292.42  86.5   16 307 107  96
   2024 07 23 02:20  15 15 43.51    +38 54 52.8    65152 1.0159  89.4  m  12? 281.11  87.2   15 308 107  96
   2024 07 23 02:30  15 19 39.72    +38 56 46.6    66641 1.0159  90.1  m  12? 270.77  87.8   14 308 106  96
   2024 07 23 02:40  15 23 27.63    +38 58 06.4    68108 1.0159  90.7  m  13? 261.29  88.5   14 309 105  96
   2024 07 23 02:50  15 27 07.86    +38 58 56.4    69555 1.0159  91.3  m  13? 252.57  89.0   13 310 104  96
   2024 07 23 03:00  15 30 40.97    +38 59 20.2    70982 1.0159  91.9  m  13? 244.52  89.6   12 311 104  96
   2024 07 23 03:10  15 34 07.47    +38 59 21.0    72388 1.0159  92.5 Am  13? 237.09  90.1   11 312 103  96
   2024 07 23 03:20  15 37 27.81    +38 59 01.7    73776 1.0159  93.1 Am  13? 230.19  90.6   10 313 103  96
   2024 07 23 03:30  15 40 42.42    +38 58 24.8    75144 1.0159  93.6 Am  13? 223.79  91.0    9 314 102  96
   2024 07 23 03:40  15 43 51.66    +38 57 32.5    76493 1.0159  94.2 Am  13? 217.82  91.4    8 315 101  96
   2024 07 23 03:50  15 46 55.88    +38 56 26.8    77824 1.0159  94.7 Am  13? 212.24  91.8    7 316 101  95
   2024 07 23 04:00  15 49 55.39    +38 55 09.5    79136 1.0159  95.2 Nm  13? 207.03  92.1    6 317 100  95
   2024 07 23 04:10  15 52 50.47    +38 53 42.3    80430 1.0159  95.7 Nm  13? 202.13  92.5    5 318 100  95
   2024 07 23 04:20  15 55 41.39    +38 52 06.5    81707 1.0159  96.2 Nm  13? 197.52  92.7    4 319  99  95
   2024 07 23 04:30  15 58 28.37    +38 50 23.4    82965 1.0159  96.6 Nm  13? 193.18  93.0    3 320  99  95
   2024 07 23 04:40  16 01 11.65    +38 48 34.3    84206 1.0160  97.1 Cm  13? 189.08  93.2    2 321  98  95
   2024 07 23 04:50  16 03 51.41    +38 46 40.2    85430 1.0160  97.5 Cm  13? 185.20  93.5    2 322  98  95
   ................
   2024 07 23 19:50  18 00 13.03    +38 06 42.5   138700 1.0162 114.1 C   15?  22.54 106.2   63  84  81  91
   2024 07 23 20:00  18 00 30.99    +38 05 35.1   138923 1.0162 114.1 C   15?  21.98 108.6   65  86  81  91
   2024 07 23 20:10  18 00 48.29    +38 04 20.5   139145 1.0162 114.1 C   15?  21.52 111.1   67  87  81  91
   2024 07 23 20:20  18 01 04.97    +38 02 58.7   139368 1.0162 114.2 N   15?  21.15 113.6   69  88  81  91
   2024 07 23 20:30  18 01 21.06    +38 01 29.4   139590 1.0162 114.2 N   15?  20.88 116.2   70  90  81  91
   2024 07 23 20:40  18 01 36.62    +37 59 52.5   139812 1.0162 114.3 N   15?  20.71 118.9   72  92  81  91
   2024 07 23 20:50  18 01 51.70    +37 58 08.1   140034 1.0162 114.3 A   15?  20.63 121.4   74  94  81  91
   2024 07 23 21:00  18 02 06.33    +37 56 15.9   140257 1.0162 114.4 A   15?  20.64 124.0   76  96  81  91
   2024 07 23 21:10  18 02 20.57    +37 54 16.0   140479 1.0162 114.4 A   15?  20.74 126.4   78  99  81  91
   2024 07 23 21:20  18 02 34.47    +37 52 08.3   140703 1.0162 114.5 Am  15?  20.93 128.8   80 103  81  91
   2024 07 23 21:30  18 02 48.06    +37 49 52.7   140927 1.0162 114.6 Am  15?  21.19 131.0   81 108  81  91
   2024 07 23 21:40  18 03 01.40    +37 47 29.2   141151 1.0162 114.6  m  15?  21.53 133.0   83 115  81  91
   2024 07 23 21:50  18 03 14.55    +37 44 57.9   141376 1.0162 114.7  m  15?  21.93 134.9   85 127  81  91
   2024 07 23 22:00  18 03 27.53    +37 42 18.7   141603 1.0162 114.7  m  15?  22.39 136.5   86 147  81  91
   2024 07 23 22:10  18 03 40.41    +37 39 31.6   141830 1.0162 114.8  e  15?  22.91 138.1   86 178  81  91
   2024 07 23 22:20  18 03 53.22    +37 36 36.8   142058 1.0162 114.8  t  15?  23.47 139.4   86 210  81  91
   2024 07 23 22:30  18 04 06.02    +37 33 34.2   142286 1.0162 114.9  m  15?  24.07 140.5   85 229  81  91
   2024 07 23 22:40  18 04 18.85    +37 30 23.9   142516 1.0162 115.0  m  15?  24.72 141.5   83 241  81  91
   2024 07 23 22:50  18 04 31.76    +37 27 06.1   142747 1.0162 115.0  m  15?  25.39 142.3   81 248  80  91
   2024 07 23 23:00  18 04 44.80    +37 23 40.7   142979 1.0162 115.1  m  15?  26.10 143.0   79 253  80  91
   2024 07 23 23:10  18 04 58.00    +37 20 08.0   143212 1.0162 115.2  m  15?  26.83 143.5   78 257  80  91
   2024 07 23 23:20  18 05 11.40    +37 16 28.0   143445 1.0162 115.3  m  15?  27.58 143.9   76 260  80  91
   2024 07 23 23:30  18 05 25.06    +37 12 40.8   143680 1.0162 115.3  m  15?  28.35 144.2   74 262  80  91
   2024 07 23 23:40  18 05 39.02    +37 08 46.7   143915 1.0162 115.4  m  15?  29.14 144.4   72 264  80  90
   2024 07 23 23:50  18 05 53.31    +37 04 45.8   144151 1.0162 115.5  m  15?  29.94 144.5   70 266  80  90
   2024 07 24 00:00  18 06 07.97    +37 00 38.2   144387 1.0162 115.6  m  15?  30.76 144.4   68 268  80  90
   2024 07 24 00:10  18 06 23.04    +36 56 24.1   144625 1.0162 115.7  m  15?  31.59 144.3   66 269  80  90
   2024 07 24 00:20  18 06 38.56    +36 52 03.8   144862 1.0162 115.8  m  15?  32.42 144.1   65 271  80  90
   2024 07 24 00:30  18 06 54.56    +36 47 37.4   145100 1.0163 115.8  m  15?  33.27 143.8   63 272  80  90
   2024 07 24 00:40  18 07 11.08    +36 43 05.1   145338 1.0163 115.9  m  15?  34.12 143.5   61 273  80  90
   2024 07 24 00:50  18 07 28.15    +36 38 27.2   145576 1.0163 116.0  m  15?  34.98 143.1   59 274  80  90
   2024 07 24 01:00  18 07 45.80    +36 33 43.9   145813 1.0163 116.1  m  15?  35.85 142.7   57 276  80  90
   2024 07 24 01:10  18 08 04.06    +36 28 55.4   146051 1.0163 116.2  m  15?  36.72 142.2   55 277  80  90
   2024 07 24 01:20  18 08 22.95    +36 24 01.9   146288 1.0163 116.3  m  15?  37.60 141.7   53 278  80  90
   2024 07 24 01:30  18 08 42.50    +36 19 03.8   146524 1.0163 116.4  m  15?  38.48 141.1   52 279  80  90
   2024 07 24 01:40  18 09 02.74    +36 14 01.2   146760 1.0163 116.5  m  15?  39.36 140.5   50 280  80  90
   2024 07 24 01:50  18 09 23.70    +36 08 54.4   146994 1.0163 116.6  m  15?  40.25 139.9   48 281  79  90
   2024 07 24 02:00  18 09 45.38    +36 03 43.6   147227 1.0163 116.7  m  15?  41.14 139.2   46 282  79  90
   2024 07 24 02:10  18 10 07.81    +35 58 29.2   147459 1.0163 116.9  m  15?  42.03 138.6   44 283  79  90
   2024 07 24 02:20  18 10 31.01    +35 53 11.4   147688 1.0163 117.0  m  15?  42.92 137.9   42 284  79  90
   2024 07 24 02:30  18 10 54.99    +35 47 50.5   147916 1.0163 117.1  m  15?  43.81 137.2   41 285  79  90
   2024 07 24 02:40  18 11 19.77    +35 42 26.6   148142 1.0163 117.2  m  15?  44.70 136.5   39 286  79  90
   2024 07 24 02:50  18 11 45.36    +35 37 00.2   148365 1.0163 117.3  m  15?  45.59 135.7   37 287  79  90
   2024 07 24 03:00  18 12 11.78    +35 31 31.4   148586 1.0163 117.5  m  15?  46.48 135.0   35 288  79  90
   2024 07 24 03:10  18 12 39.02    +35 26 00.5   148803 1.0163 117.6 Am  15?  47.37 134.2   34 289  79  90
   2024 07 24 03:20  18 13 07.11    +35 20 27.9   149018 1.0163 117.7 Am  15?  48.26 133.5   32 290  79  90
   2024 07 24 03:30  18 13 36.04    +35 14 53.7   149229 1.0163 117.8 Am  15?  49.14 132.8   30 291  78  90
   2024 07 24 03:40  18 14 05.82    +35 09 18.2   149436 1.0163 118.0 Am  15?  50.02 132.0   28 293  78  90
   2024 07 24 03:50  18 14 36.45    +35 03 41.7   149639 1.0163 118.1 Am  15?  50.89 131.2   27 294  78  90
   2024 07 24 04:00  18 15 07.94    +34 58 04.4   149838 1.0163 118.2 Nm  15?  51.76 130.5   25 295  78  90
   2024 07 24 04:10  18 15 40.28    +34 52 26.6   150032 1.0163 118.4 Nm  15?  52.62 129.8   23 296  78  90
   2024 07 24 04:20  18 16 13.48    +34 46 48.5   150221 1.0163 118.5 Nm  15?  53.47 129.0   22 297  78  90
   2024 07 24 04:30  18 16 47.53    +34 41 10.4   150406 1.0163 118.7 Nm  15?  54.32 128.3   20 298  78  90
   2024 07 24 04:40  18 17 22.42    +34 35 32.5   150584 1.0163 118.8 Cm  15?  55.16 127.5   19 299  78  89
   2024 07 24 04:50  18 17 58.16    +34 29 55.1   150758 1.0163 118.9 Cm  15?  55.99 126.8   17 300  77  89
   ................
   2024 07 24 19:50  19 27 09.43    +29 07 28.9   125177 1.0163 129.7 C   15?  42.57 120.2   44  86  66  84
   2024 07 24 20:00  19 27 37.12    +29 03 49.6   124494 1.0163 129.7 C   15?  42.25 121.7   45  88  66  84
   2024 07 24 20:10  19 28 04.19    +29 00 02.8   123808 1.0163 129.8 N   15?  42.00 123.1   47  89  66  84
   2024 07 24 20:20  19 28 30.64    +28 56 08.1   123119 1.0163 129.9 N   15?  41.82 124.6   49  91  66  84
   2024 07 24 20:30  19 28 56.50    +28 52 05.1   122427 1.0163 130.0 N   15?  41.72 126.2   51  93  66  84
   2024 07 24 20:40  19 29 21.81    +28 47 53.5   121732 1.0163 130.1 N   15?  41.69 127.7   53  95  66  84
   2024 07 24 20:50  19 29 46.57    +28 43 33.0   121035 1.0163 130.2 A   15?  41.74 129.2   54  97  66  84
   2024 07 24 21:00  19 30 10.84    +28 39 03.1   120335 1.0163 130.3 A   15?  41.88 130.8   56  99  66  83
   2024 07 24 21:10  19 30 34.62    +28 34 23.6   119633 1.0163 130.4 A   15?  42.10 132.3   58 101  66  83
   2024 07 24 21:20  19 30 57.97    +28 29 34.0   118929 1.0163 130.5 A   15?  42.41 133.8   60 103  66  83
   2024 07 24 21:30  19 31 20.90    +28 24 34.1   118223 1.0163 130.6 A   15?  42.80 135.3   61 106  66  83
   2024 07 24 21:40  19 31 43.46    +28 19 23.5   117515 1.0163 130.7     15?  43.28 136.7   63 109  66  83
   2024 07 24 21:50  19 32 05.69    +28 14 01.9   116805 1.0163 130.8  m  15?  43.84 138.1   65 112  66  83
   2024 07 24 22:00  19 32 27.62    +28 08 28.9   116093 1.0163 130.9  m  15?  44.49 139.4   66 115  66  83
   2024 07 24 22:10  19 32 49.30    +28 02 44.2   115380 1.0162 131.0  m  15?  45.22 140.7   68 119  66  83
   2024 07 24 22:20  19 33 10.77    +27 56 47.4   114665 1.0162 131.1  m  15?  46.03 141.8   69 123  66  83
   2024 07 24 22:30  19 33 32.07    +27 50 38.3   113948 1.0162 131.2  m  15?  46.93 142.9   71 128  66  83
   2024 07 24 22:40  19 33 53.25    +27 44 16.5   113230 1.0162 131.4  m  15?  47.90 143.9   72 133  65  83
   2024 07 24 22:50  19 34 14.36    +27 37 41.7   112510 1.0162 131.5  m  15?  48.96 144.9   73 140  65  83
   2024 07 24 23:00  19 34 35.45    +27 30 53.6   111788 1.0162 131.6  m  15?  50.08 145.7   74 147  65  83
   2024 07 24 23:10  19 34 56.56    +27 23 51.9   111065 1.0162 131.8  m  15?  51.29 146.5   75 154  65  83
   2024 07 24 23:20  19 35 17.76    +27 16 36.3   110340 1.0162 131.9  m  15?  52.56 147.2   75 163  65  83
   2024 07 24 23:30  19 35 39.09    +27 09 06.5   109614 1.0162 132.0  m  15?  53.91 147.8   76 172  65  83
   2024 07 24 23:40  19 36 00.61    +27 01 22.1   108885 1.0162 132.2  t  15?  55.32 148.3   76 181  65  83
   2024 07 24 23:50  19 36 22.38    +26 53 23.0   108155 1.0162 132.3  m  15?  56.81 148.8   75 190  65  83
   2024 07 25 00:00  19 36 44.45    +26 45 08.8   107423 1.0162 132.5  m  15?  58.36 149.1   75 198  65  83
   2024 07 25 00:10  19 37 06.88    +26 36 39.2   106689 1.0162 132.6  m  15?  59.98 149.4   74 206  65  82
   2024 07 25 00:20  19 37 29.74    +26 27 54.0   105952 1.0162 132.8  m  15?  61.67 149.6   73 212  65  82
   2024 07 25 00:30  19 37 53.07    +26 18 52.8   105213 1.0162 133.0  m  15?  63.43 149.8   72 219  64  82
   2024 07 25 00:40  19 38 16.95    +26 09 35.4   104471 1.0162 133.1  m  15?  65.25 149.9   70 224  64  82
   2024 07 25 00:50  19 38 41.44    +26 00 01.6   103727 1.0162 133.3  m  14?  67.14 149.9   69 229  64  82
   2024 07 25 01:00  19 39 06.59    +25 50 11.0   102980 1.0162 133.5  m  14?  69.10 149.9   67 233  64  82
   2024 07 25 01:10  19 39 32.48    +25 40 03.3   102229 1.0162 133.7  m  14?  71.13 149.9   66 237  64  82
   2024 07 25 01:20  19 39 59.16    +25 29 38.4   101476 1.0162 133.9  m  14?  73.23 149.7   64 240  64  82
   2024 07 25 01:30  19 40 26.71    +25 18 55.8   100718 1.0162 134.1  m  14?  75.41 149.6   62 243  64  82
   2024 07 25 01:40  19 40 55.19    +25 07 55.2    99957 1.0162 134.3  m  14?  77.66 149.4   61 246  64  82
   2024 07 25 01:50  19 41 24.66    +24 56 36.5    99191 1.0162 134.5  m  14?  79.98 149.1   59 248  63  82
   2024 07 25 02:00  19 41 55.20    +24 44 59.2    98421 1.0162 134.7  m  14?  82.39 148.9   57 250  63  82
   2024 07 25 02:10  19 42 26.87    +24 33 03.1    97646 1.0162 134.9  m  14?  84.87 148.6   55 253  63  82
   2024 07 25 02:20  19 42 59.75    +24 20 47.8    96865 1.0162 135.1  m  14?  87.44 148.2   53 254  63  82
   2024 07 25 02:30  19 43 33.89    +24 08 12.9    96079 1.0162 135.4  m  14?  90.10 147.9   52 256  63  82
   2024 07 25 02:40  19 44 09.37    +23 55 18.1    95288 1.0162 135.6  m  14?  92.85 147.5   50 258  63  82
   2024 07 25 02:50  19 44 46.27    +23 42 03.0    94490 1.0162 135.8  m  14?  95.69 147.1   48 260  63  82
   2024 07 25 03:00  19 45 24.64    +23 28 27.1    93685 1.0162 136.1  m  14?  98.64 146.7   46 261  62  82
   2024 07 25 03:10  19 46 04.58    +23 14 30.1    92873 1.0162 136.4 Am  14? 101.69 146.3   44 263  62  82
   2024 07 25 03:20  19 46 46.14    +23 00 11.3    92054 1.0162 136.6 Am  14? 104.84 145.9   42 264  62  82
   2024 07 25 03:30  19 47 29.41    +22 45 30.4    91226 1.0162 136.9 Am  14? 108.12 145.4   40 266  62  82
   2024 07 25 03:40  19 48 14.45    +22 30 26.7    90391 1.0162 137.2 Am  14? 111.51 145.0   38 267  62  82
   2024 07 25 03:50  19 49 01.35    +22 14 59.6    89546 1.0162 137.5 Am  14? 115.02 144.5   36 268  61  81
   2024 07 25 04:00  19 49 50.19    +21 59 08.5    88692 1.0162 137.7 Nm  14? 118.68 144.1   35 269  61  81
   2024 07 25 04:10  19 50 41.05    +21 42 52.7    87828 1.0161 138.1 Nm  14? 122.47 143.6   33 271  61  81
   2024 07 25 04:20  19 51 34.00    +21 26 11.4    86953 1.0161 138.4 Nm  14? 126.41 143.2   31 272  61  81
   2024 07 25 04:30  19 52 29.13    +21 09 03.8    86068 1.0161 138.7 Nm  14? 130.51 142.7   29 273  60  81
   2024 07 25 04:40  19 53 26.54    +20 51 28.9    85171 1.0161 139.0 Cm  14? 134.77 142.3   27 274  60  81
   2024 07 25 04:50  19 54 26.30    +20 33 25.8    84262 1.0161 139.3 Cm  14? 139.22 141.9   25 275  60  81
   ................
   2024 07 25 19:50  16 12 39.79    +42 21 44.0    76413 1.0157  95.7 C   13? 105.06  92.1   85  69 111  75
   2024 07 25 20:00  16 14 13.01    +42 20 52.2    77553 1.0157  96.0 C   13? 101.91  93.3   87  59 111  75
   2024 07 25 20:10  16 15 43.37    +42 19 41.1    78682 1.0157  96.2 N   13?  99.03  94.5   88  32 111  74
   2024 07 25 20:20  16 17 11.08    +42 18 11.8    79800 1.0157  96.5 Nt  13?  96.41  95.7   88 332 111  74
   2024 07 25 20:30  16 18 36.33    +42 16 25.1    80906 1.0157  96.7 N   13?  94.03  96.9   87 300 110  74
   2024 07 25 20:40  16 19 59.31    +42 14 22.0    82002 1.0157  96.9 N   13?  91.88  98.0   85 290 110  74
   2024 07 25 20:50  16 21 20.17    +42 12 03.2    83089 1.0157  97.1 A   13?  89.95  99.2   84 285 110  74
   2024 07 25 21:00  16 22 39.09    +42 09 29.4    84165 1.0157  97.4 A   13?  88.21 100.3   82 282 110  74
   2024 07 25 21:10  16 23 56.22    +42 06 41.5    85232 1.0157  97.6 A   13?  86.66 101.4   81 281 110  74
   2024 07 25 21:20  16 25 11.69    +42 03 40.1    86290 1.0157  97.8 A   13?  85.28 102.5   79 280 110  74
   2024 07 25 21:30  16 26 25.64    +42 00 25.8    87340 1.0157  98.0 A   13?  84.06 103.6   77 280 109  74
   2024 07 25 21:40  16 27 38.21    +41 56 59.4    88381 1.0157  98.2     13?  82.99 104.6   76 280 109  74
   2024 07 25 21:50  16 28 49.51    +41 53 21.4    89413 1.0157  98.4     13?  82.06 105.6   74 280 109  74
   2024 07 25 22:00  16 29 59.65    +41 49 32.4    90438 1.0157  98.7     13?  81.25 106.5   72 280 109  74
   2024 07 25 22:10  16 31 08.75    +41 45 33.1    91455 1.0157  98.9  m  13?  80.57 107.4   71 280 109  74
   2024 07 25 22:20  16 32 16.91    +41 41 23.8    92465 1.0158  99.1  m  13?  79.99 108.3   69 281 109  73
   2024 07 25 22:30  16 33 24.22    +41 37 05.3    93467 1.0158  99.3  m  13?  79.51 109.1   67 281 109  73
   2024 07 25 22:40  16 34 30.77    +41 32 38.1    94462 1.0158  99.5  m  13?  79.13 109.8   66 282 108  73
   2024 07 25 22:50  16 35 36.65    +41 28 02.6    95449 1.0158  99.7  m  13?  78.82 110.5   64 282 108  73
   2024 07 25 23:00  16 36 41.94    +41 23 19.4    96430 1.0158  99.9  m  13?  78.60 111.2   62 283 108  73
   2024 07 25 23:10  16 37 46.71    +41 18 28.9    97404 1.0158 100.1  m  13?  78.44 111.8   61 283 108  73
   2024 07 25 23:20  16 38 51.04    +41 13 31.7    98372 1.0158 100.3  m  13?  78.34 112.3   59 284 108  73
   2024 07 25 23:30  16 39 55.00    +41 08 28.2    99332 1.0158 100.5  m  14?  78.30 112.8   57 284 108  73
   2024 07 25 23:40  16 40 58.63    +41 03 18.8   100286 1.0158 100.7  m  14?  78.31 113.3   56 285 108  73
   2024 07 25 23:50  16 42 02.02    +40 58 04.2   101234 1.0158 100.9  m  14?  78.37 113.7   54 286 107  73
   2024 07 26 00:00  16 43 05.20    +40 52 44.6   102174 1.0158 101.1  m  14?  78.47 114.0   52 286 107  73
   2024 07 26 00:10  16 44 08.23    +40 47 20.5   103109 1.0158 101.4  m  14?  78.60 114.3   51 287 107  73
   2024 07 26 00:20  16 45 11.15    +40 41 52.4   104037 1.0158 101.6  m  14?  78.76 114.6   49 288 107  73
   2024 07 26 00:30  16 46 14.02    +40 36 20.7   104958 1.0158 101.8  m  14?  78.96 114.8   48 288 107  73
   2024 07 26 00:40  16 47 16.86    +40 30 45.7   105873 1.0158 102.0  m  14?  79.17 114.9   46 289 107  73
   2024 07 26 00:50  16 48 19.72    +40 25 08.0   106781 1.0158 102.2  m  14?  79.41 115.1   44 290 106  72
   2024 07 26 01:00  16 49 22.63    +40 19 27.8   107682 1.0158 102.4  m  14?  79.67 115.1   43 291 106  72
   2024 07 26 01:10  16 50 25.63    +40 13 45.6   108577 1.0158 102.6  m  14?  79.93 115.2   41 291 106  72
   2024 07 26 01:20  16 51 28.73    +40 08 01.8   109465 1.0158 102.8  m  14?  80.22 115.2   39 292 106  72
   2024 07 26 01:30  16 52 31.97    +40 02 16.6   110346 1.0158 103.0  m  14?  80.51 115.2   38 293 106  72
   2024 07 26 01:40  16 53 35.36    +39 56 30.5   111221 1.0158 103.3  m  14?  80.81 115.2   36 294 106  72
   2024 07 26 01:50  16 54 38.93    +39 50 43.9   112088 1.0158 103.5  m  14?  81.11 115.1   35 295 106  72
   2024 07 26 02:00  16 55 42.70    +39 44 57.0   112948 1.0158 103.7  m  14?  81.42 115.0   33 296 105  72
   2024 07 26 02:10  16 56 46.68    +39 39 10.2   113801 1.0158 103.9  m  14?  81.73 114.9   32 296 105  72
   2024 07 26 02:20  16 57 50.88    +39 33 23.8   114647 1.0158 104.1  m  14?  82.04 114.7   30 297 105  72
   2024 07 26 02:30  16 58 55.32    +39 27 38.2   115485 1.0158 104.3  m  14?  82.35 114.6   28 298 105  72
   2024 07 26 02:40  17 00 00.00    +39 21 53.5   116316 1.0158 104.6  m  14?  82.65 114.4   27 299 105  72
   2024 07 26 02:50  17 01 04.93    +39 16 10.2   117138 1.0158 104.8  m  14?  82.95 114.2   25 300 105  72
   2024 07 26 03:00  17 02 10.12    +39 10 28.5   117954 1.0158 105.0  m  14?  83.25 113.9   24 301 104  72
   2024 07 26 03:10  17 03 15.57    +39 04 48.7   118761 1.0158 105.2  m  14?  83.54 113.7   22 302 104  72
   2024 07 26 03:20  17 04 21.28    +38 59 11.1   119560 1.0158 105.4 Am  14?  83.82 113.5   21 303 104  72
   2024 07 26 03:30  17 05 27.25    +38 53 35.9   120350 1.0158 105.6 Am  14?  84.09 113.2   20 304 104  72
   2024 07 26 03:40  17 06 33.48    +38 48 03.3   121132 1.0158 105.9 Am  14?  84.35 112.9   18 305 104  72
   2024 07 26 03:50  17 07 39.96    +38 42 33.6   121906 1.0159 106.1 Am  14?  84.59 112.6   17 306 104  72
   2024 07 26 04:00  17 08 46.70    +38 37 07.1   122671 1.0159 106.3 Nm  14?  84.83 112.3   15 307 103  71
   2024 07 26 04:10  17 09 53.68    +38 31 43.9   123427 1.0159 106.5 Nm  14?  85.05 112.0   14 308 103  71
   2024 07 26 04:20  17 11 00.91    +38 26 24.2   124174 1.0159 106.7 Nm  14?  85.26 111.7   13 310 103  71
   2024 07 26 04:30  17 12 08.36    +38 21 08.4   124911 1.0159 107.0 Nm  14?  85.45 111.3   11 311 103  71
   2024 07 26 04:40  17 13 16.04    +38 15 56.5   125639 1.0159 107.2 Cm  14?  85.63 111.0   10 312 103  71
   2024 07 26 04:50  17 14 23.92    +38 10 48.7   126358 1.0159 107.4 Cm  14?  85.79 110.7    9 313 103  71
   ................
   2024 07 26 19:50  18 30 44.60    +35 34 09.9   147221 1.0160 118.8 C   15?  20.49 113.7   59  87  92  64
   2024 07 26 20:00  18 30 59.62    +35 32 43.6   147138 1.0160 118.8 C   15?  20.06 116.3   61  88  92  64
   2024 07 26 20:10  18 31 14.03    +35 31 11.0   147054 1.0160 118.9 N   15?  19.72 118.9   62  90  92  64
   2024 07 26 20:20  18 31 27.87    +35 29 31.9   146972 1.0160 118.9 N   15?  19.47 121.5   64  91  92  64
   2024 07 26 20:30  18 31 41.16    +35 27 46.1   146889 1.0160 119.0 N   15?  19.30 124.2   66  93  92  64
   2024 07 26 20:40  18 31 53.94    +35 25 53.4   146807 1.0160 119.0 N   15?  19.23 126.9   68  95  92  64
   2024 07 26 20:50  18 32 06.25    +35 23 53.8   146726 1.0160 119.1 A   15?  19.25 129.6   70  98  92  63
   2024 07 26 21:00  18 32 18.14    +35 21 47.0   146645 1.0160 119.1 A   15?  19.35 132.2   72 100  92  63
   2024 07 26 21:10  18 32 29.64    +35 19 33.0   146566 1.0160 119.2 A   15?  19.53 134.6   73 103  92  63
   2024 07 26 21:20  18 32 40.79    +35 17 11.6   146487 1.0160 119.2 A   15?  19.79 136.9   75 107  92  63
   2024 07 26 21:30  18 32 51.64    +35 14 42.8   146410 1.0160 119.3     15?  20.13 139.1   77 111  92  63
   2024 07 26 21:40  18 33 02.23    +35 12 06.3   146334 1.0160 119.3     15?  20.53 141.1   78 117  92  63
   2024 07 26 21:50  18 33 12.60    +35 09 22.3   146259 1.0160 119.4     15?  20.99 142.9   80 124  93  63
   2024 07 26 22:00  18 33 22.79    +35 06 30.6   146186 1.0160 119.4     15?  21.50 144.5   81 133  93  63
   2024 07 26 22:10  18 33 32.84    +35 03 31.1   146114 1.0160 119.5     15?  22.07 146.0   83 146  93  63
   2024 07 26 22:20  18 33 42.81    +35 00 23.9   146043 1.0160 119.6     15?  22.68 147.2   83 163  93  63
   2024 07 26 22:30  18 33 52.74    +34 57 08.9   145974 1.0160 119.6  t  15?  23.33 148.3   84 182  93  63
   2024 07 26 22:40  18 34 02.67    +34 53 46.1   145907 1.0160 119.7  m  15?  24.01 149.2   83 201  93  63
   2024 07 26 22:50  18 34 12.63    +34 50 15.5   145841 1.0160 119.8  m  15?  24.73 149.9   82 216  93  62
   2024 07 26 23:00  18 34 22.69    +34 46 37.2   145777 1.0160 119.8  m  15?  25.47 150.5   81 227  93  62
   2024 07 26 23:10  18 34 32.88    +34 42 51.2   145714 1.0160 119.9  m  15?  26.24 150.9   79 235  93  62
   2024 07 26 23:20  18 34 43.24    +34 38 57.5   145653 1.0160 120.0  m  15?  27.03 151.3   78 242  93  62
   2024 07 26 23:30  18 34 53.83    +34 34 56.2   145593 1.0160 120.0  m  15?  27.84 151.4   76 247  93  62
   2024 07 26 23:40  18 35 04.67    +34 30 47.4   145534 1.0160 120.1  m  15?  28.67 151.5   74 251  93  62
   2024 07 26 23:50  18 35 15.81    +34 26 31.2   145477 1.0160 120.2  m  15?  29.52 151.5   72 254  93  62
   2024 07 27 00:00  18 35 27.30    +34 22 07.6   145421 1.0160 120.3  m  15?  30.38 151.4   71 257  93  62
   2024 07 27 00:10  18 35 39.17    +34 17 36.9   145366 1.0160 120.4  m  15?  31.25 151.2   69 259  93  62
   2024 07 27 00:20  18 35 51.47    +34 12 59.1   145312 1.0160 120.4  m  15?  32.13 150.9   67 261  93  62
   2024 07 27 00:30  18 36 04.23    +34 08 14.3   145259 1.0160 120.5  m  15?  33.03 150.5   65 263  93  62
   2024 07 27 00:40  18 36 17.48    +34 03 22.7   145206 1.0160 120.6  m  15?  33.94 150.1   63 265  93  62
   2024 07 27 00:50  18 36 31.27    +33 58 24.5   145154 1.0160 120.7  m  15?  34.86 149.6   61 267  93  62
   2024 07 27 01:00  18 36 45.64    +33 53 19.9   145103 1.0160 120.8  m  15?  35.79 149.1   59 268  93  61
   2024 07 27 01:10  18 37 00.61    +33 48 08.9   145051 1.0161 120.9  m  15?  36.73 148.6   57 270  93  61
   2024 07 27 01:20  18 37 16.21    +33 42 51.9   145000 1.0161 121.0  m  15?  37.68 147.9   56 271  93  61
   2024 07 27 01:30  18 37 32.49    +33 37 28.9   144948 1.0161 121.1  m  15?  38.64 147.3   54 272  93  61
   2024 07 27 01:40  18 37 49.46    +33 32 00.3   144896 1.0161 121.2  m  15?  39.60 146.6   52 274  93  61
   2024 07 27 01:50  18 38 07.17    +33 26 26.1   144844 1.0161 121.3  m  15?  40.58 145.9   50 275  93  61
   2024 07 27 02:00  18 38 25.63    +33 20 46.7   144790 1.0161 121.5  m  15?  41.56 145.2   48 276  93  61
   2024 07 27 02:10  18 38 44.87    +33 15 02.1   144735 1.0161 121.6  m  15?  42.55 144.4   46 277  93  61
   2024 07 27 02:20  18 39 04.91    +33 09 12.8   144679 1.0161 121.7  m  15?  43.55 143.6   44 279  93  61
   2024 07 27 02:30  18 39 25.79    +33 03 18.8   144622 1.0161 121.8  m  15?  44.56 142.9   43 280  93  61
   2024 07 27 02:40  18 39 47.52    +32 57 20.4   144563 1.0161 121.9  m  15?  45.58 142.1   41 281  93  61
   2024 07 27 02:50  18 40 10.11    +32 51 17.9   144501 1.0161 122.1  m  15?  46.60 141.3   39 282  93  61
   2024 07 27 03:00  18 40 33.59    +32 45 11.5   144437 1.0161 122.2  m  15?  47.63 140.5   37 283  93  61
   2024 07 27 03:10  18 40 57.98    +32 39 01.3   144371 1.0161 122.3  m  15?  48.66 139.6   35 284  93  61
   2024 07 27 03:20  18 41 23.29    +32 32 47.8   144301 1.0161 122.4 Am  15?  49.70 138.8   33 286  93  61
   2024 07 27 03:30  18 41 49.53    +32 26 31.0   144228 1.0161 122.6 Am  15?  50.74 138.0   32 287  93  61
   2024 07 27 03:40  18 42 16.72    +32 20 11.2   144152 1.0161 122.7 Am  15?  51.79 137.2   30 288  92  61
   2024 07 27 03:50  18 42 44.86    +32 13 48.7   144072 1.0161 122.9 Am  15?  52.84 136.4   28 289  92  60
   2024 07 27 04:00  18 43 13.96    +32 07 23.7   143988 1.0161 123.0 Nm  15?  53.90 135.6   26 290  92  60
   2024 07 27 04:10  18 43 44.04    +32 00 56.4   143899 1.0161 123.1 Nm  15?  54.95 134.8   25 291  92  60
   2024 07 27 04:20  18 44 15.10    +31 54 27.0   143805 1.0161 123.3 Nm  15?  56.01 134.0   23 292  92  60
   2024 07 27 04:30  18 44 47.14    +31 47 55.9   143707 1.0161 123.4 Nm  15?  57.07 133.2   21 293  92  60
   2024 07 27 04:40  18 45 20.17    +31 41 23.1   143603 1.0161 123.6 Cm  15?  58.13 132.4   19 295  92  60
   2024 07 27 04:50  18 45 54.19    +31 34 48.9   143493 1.0161 123.7 Cm  15?  59.19 131.6   18 296  92  60
   2024 07 27 05:00  18 46 29.19    +31 28 13.6   143378 1.0161 123.9 Cm  15?  60.25 130.9   16 297  92  60
   ................
   2024 07 27 19:50  20 15 52.42    +21 21 49.9    86559 1.0159 139.4 C   14? 119.90 127.2   32  89  80  53
   2024 07 27 20:00  20 17 00.86    +21 09 28.6    85356 1.0159 139.7 C   14? 122.19 128.0   34  90  80  53
   2024 07 27 20:10  20 18 09.78    +20 56 38.8    84141 1.0159 139.9 N   14? 124.69 128.8   36  92  80  53
   2024 07 27 20:20  20 19 19.26    +20 43 19.0    82916 1.0159 140.1 N   14? 127.42 129.6   37  94  80  53
   2024 07 27 20:30  20 20 29.37    +20 29 27.2    81679 1.0159 140.4 N   14? 130.38 130.4   39  96  79  52
   2024 07 27 20:40  20 21 40.20    +20 15 01.5    80431 1.0159 140.6 N   14? 133.60 131.2   40  97  79  52
   2024 07 27 20:50  20 22 51.84    +19 59 59.7    79171 1.0159 140.9 A   14? 137.09 132.0   42  99  79  52
   2024 07 27 21:00  20 24 04.38    +19 44 19.6    77900 1.0159 141.2 A   14? 140.89 132.8   43 101  79  52
   2024 07 27 21:10  20 25 17.95    +19 27 58.8    76616 1.0159 141.5 A   14? 145.01 133.5   45 103  79  52
   2024 07 27 21:20  20 26 32.65    +19 10 54.7    75321 1.0159 141.7 A   14? 149.47 134.3   46 106  79  52
   2024 07 27 21:30  20 27 48.62    +18 53 04.3    74013 1.0159 142.0     14? 154.32 135.0   47 108  79  52
   2024 07 27 21:40  20 29 06.00    +18 34 24.6    72693 1.0158 142.4     14? 159.57 135.7   49 110  78  52
   2024 07 27 21:50  20 30 24.94    +18 14 52.2    71359 1.0158 142.7     14? 165.27 136.4   50 113  78  52
   2024 07 27 22:00  20 31 45.61    +17 54 23.4    70013 1.0158 143.0     14? 171.45 137.1   51 116  78  52
   2024 07 27 22:10  20 33 08.19    +17 32 54.3    68653 1.0158 143.4     14? 178.16 137.7   52 118  78  52
   2024 07 27 22:20  20 34 32.89    +17 10 20.3    67279 1.0158 143.7     14? 185.45 138.3   54 121  78  51
   2024 07 27 22:30  20 35 59.93    +16 46 36.7    65890 1.0158 144.1     14? 193.38 138.9   55 124  78  51
   2024 07 27 22:40  20 37 29.55    +16 21 38.1    64487 1.0158 144.5     14? 202.02 139.4   56 128  77  51
   2024 07 27 22:50  20 39 02.02    +15 55 18.4    63068 1.0158 144.9     14? 211.43 140.0   57 131  77  51
   2024 07 27 23:00  20 40 37.64    +15 27 31.0    61633 1.0158 145.4  m  14? 221.71 140.5   57 135  77  51
   2024 07 27 23:10  20 42 16.76    +14 58 08.5    60181 1.0158 145.8  m  14? 232.96 140.9   58 138  77  51
   2024 07 27 23:20  20 43 59.72    +14 27 02.4    58712 1.0158 146.3  m  14? 245.30 141.4   59 142  77  51
   2024 07 27 23:30  20 45 46.96    +13 54 03.4    57224 1.0158 146.8  m  14? 258.85 141.8   59 146  76  51
   2024 07 27 23:40  20 47 38.93    +13 19 00.6    55718 1.0158 147.3  m  14? 273.80 142.2   59 150  76  51
   2024 07 27 23:50  20 49 36.18    +12 41 42.0    54192 1.0158 147.9  m  13? 290.32 142.6   59 154  76  51
   2024 07 28 00:00  20 51 39.29    +12 01 53.3    52645 1.0158 148.5  e  13? 308.65 143.0   59 158  76  51
   

James Webb Space Telescope (JPL-ID: -170)

   Date (UTC) HH:MM   RA              Dec         delta   r     elong SM  mag  '/hr    PA   alt  az moo ill
   ---- -- -- -----  -------------   -----------  ------ ------ ----- --  --- ------ ------ --- --- --- ---
   2024 07 14 00:00  18 24 45.53    -36 06 05.8   0.0116 1.0274 159.1     16?   2.03 291.7   12 190  73  50
   2024 07 14 00:10  18 24 43.98    -36 05 57.9   0.0116 1.0274 159.1     16?   2.03 293.6   11 192  73  50
   2024 07 14 00:20  18 24 42.47    -36 05 49.4   0.0116 1.0274 159.1     16?   2.03 295.6   11 194  73  50
   2024 07 14 00:30  18 24 40.97    -36 05 40.3   0.0116 1.0274 159.1     16?   2.02 297.6   10 196  73  50
   2024 07 14 00:40  18 24 39.51    -36 05 30.6   0.0116 1.0274 159.1     16?   2.02 299.7   10 198  72  50
   2024 07 14 00:50  18 24 38.09    -36 05 20.2   0.0116 1.0274 159.1     16?   2.01 301.8    9 200  72  50
   2024 07 14 01:00  18 24 36.70    -36 05 09.3   0.0116 1.0274 159.1     16?   2.00 303.9    9 201  72  50
   2024 07 14 01:10  18 24 35.36    -36 04 57.8   0.0116 1.0274 159.1     16?   1.99 306.1    8 203  72  50
   2024 07 14 01:20  18 24 34.06    -36 04 45.7   0.0116 1.0274 159.1     16?   1.98 308.4    7 205  72  50
   2024 07 14 01:30  18 24 32.81    -36 04 33.1   0.0116 1.0274 159.1     16?   1.97 310.8    6 207  72  50
   2024 07 14 01:40  18 24 31.61    -36 04 19.9   0.0116 1.0274 159.1     16?   1.95 313.2    5 209  72  50
   2024 07 14 01:50  18 24 30.47    -36 04 06.3   0.0116 1.0274 159.0     16?   1.94 315.7    4 211  72  51
   2024 07 14 02:00  18 24 29.39    -36 03 52.1   0.0116 1.0274 159.0     16?   1.92 318.2    3 213  72  51
   2024 07 14 02:10  18 24 28.37    -36 03 37.5   0.0116 1.0274 159.0     16?   1.91 320.9    2 214  72  51
   2024 07 14 02:20  18 24 27.41    -36 03 22.4   0.0116 1.0274 159.0     16?   1.90 323.6    1 216  72  51
   2024 07 14 02:30  18 24 26.52    -36 03 06.8   0.0116 1.0274 159.0     16?   1.88 326.4    0 218  71  51
   ................
   2024 07 14 20:00  18 26 28.80    -35 55 27.0   0.0116 1.0273 158.9 Cm  16?   1.25 240.2    1 143  63  58
   2024 07 14 20:10  18 26 27.87    -35 55 33.0   0.0116 1.0273 158.9 Cm  16?   1.30 243.6    2 145  63  58
   2024 07 14 20:20  18 26 26.87    -35 55 38.5   0.0116 1.0273 158.9 Nm  16?   1.35 246.8    3 146  63  58
   2024 07 14 20:30  18 26 25.82    -35 55 43.5   0.0116 1.0273 158.9 Nm  16?   1.40 249.8    4 148  63  58
   2024 07 14 20:40  18 26 24.71    -35 55 48.1   0.0116 1.0273 158.8 Nm  16?   1.45 252.6    5 150  63  58
   2024 07 14 20:50  18 26 23.54    -35 55 52.1   0.0116 1.0273 158.8 Nm  16?   1.50 255.3    6 152  63  58
   2024 07 14 21:00  18 26 22.32    -35 55 55.6   0.0116 1.0273 158.8 Am  16?   1.54 257.8    7 154  62  58
   2024 07 14 21:10  18 26 21.05    -35 55 58.5   0.0116 1.0273 158.8 Am  16?   1.59 260.1    8 155  62  58
   2024 07 14 21:20  18 26 19.74    -35 56 00.9   0.0116 1.0273 158.8 Am  16?   1.63 262.4    9 157  62  58
   2024 07 14 21:30  18 26 18.39    -35 56 02.7   0.0116 1.0273 158.8 Am  16?   1.67 264.6    9 159  62  58
   2024 07 14 21:40  18 26 17.00    -35 56 03.9   0.0116 1.0273 158.8 Am  16?   1.71 266.7   10 161  62  59
   2024 07 14 21:50  18 26 15.57    -35 56 04.5   0.0116 1.0273 158.8  m  16?   1.75 268.8   11 163  62  59
   2024 07 14 22:00  18 26 14.12    -35 56 04.5   0.0116 1.0273 158.8  m  16?   1.78 270.8   11 165  62  59
   2024 07 14 22:10  18 26 12.64    -35 56 03.9   0.0116 1.0273 158.8  m  16?   1.82 272.7   12 167  62  59
   2024 07 14 22:20  18 26 11.13    -35 56 02.6   0.0116 1.0273 158.8  m  16?   1.85 274.6   12 169  62  59
   2024 07 14 22:30  18 26 09.61    -35 56 00.7   0.0116 1.0273 158.7  m  16?   1.87 276.5   12 171  62  59
   2024 07 14 22:40  18 26 08.07    -35 55 58.2   0.0116 1.0273 158.7  m  16?   1.90 278.4   12 173  62  59
   2024 07 14 22:50  18 26 06.52    -35 55 55.0   0.0116 1.0273 158.7  m  16?   1.92 280.3   13 176  62  59
   2024 07 14 23:00  18 26 04.97    -35 55 51.2   0.0116 1.0273 158.7  m  16?   1.94 282.1   13 178  62  59
   2024 07 14 23:10  18 26 03.41    -35 55 46.7   0.0116 1.0273 158.7  t  16?   1.95 284.0   13 180  62  59
   2024 07 14 23:20  18 26 01.85    -35 55 41.6   0.0116 1.0273 158.7  m  16?   1.97 285.8   13 182  62  59
   2024 07 14 23:30  18 26 00.29    -35 55 35.9   0.0116 1.0273 158.7  m  16?   1.98 287.7   13 184  61  59
   2024 07 14 23:40  18 25 58.75    -35 55 29.5   0.0116 1.0273 158.7  m  16?   1.99 289.6   12 186  61  59
   2024 07 14 23:50  18 25 57.22    -35 55 22.4   0.0116 1.0273 158.7  m  16?   1.99 291.5   12 188  61  59
   2024 07 15 00:00  18 25 55.70    -35 55 14.7   0.0116 1.0273 158.7     16?   2.00 293.4   12 190  61  59
   2024 07 15 00:10  18 25 54.21    -35 55 06.4   0.0116 1.0273 158.7     16?   2.00 295.4   11 192  61  59
   2024 07 15 00:20  18 25 52.74    -35 54 57.5   0.0116 1.0273 158.6     16?   2.00 297.4   11 194  61  59
   2024 07 15 00:30  18 25 51.30    -35 54 47.9   0.0116 1.0273 158.6     16?   1.99 299.4   10 196  61  59
   2024 07 15 00:40  18 25 49.89    -35 54 37.8   0.0116 1.0273 158.6     16?   1.99 301.5   10 198  61  60
   2024 07 15 00:50  18 25 48.51    -35 54 27.0   0.0116 1.0273 158.6     16?   1.98 303.6    9 200  61  60
   2024 07 15 01:00  18 25 47.18    -35 54 15.7   0.0116 1.0273 158.6     16?   1.97 305.8    9 202  61  60
   2024 07 15 01:10  18 25 45.89    -35 54 03.8   0.0116 1.0273 158.6     16?   1.96 308.1    8 204  61  60
   2024 07 15 01:20  18 25 44.64    -35 53 51.3   0.0116 1.0273 158.6     16?   1.95 310.4    7 206  61  60
   2024 07 15 01:30  18 25 43.45    -35 53 38.3   0.0116 1.0273 158.6     16?   1.94 312.8    6 208  60  60
   2024 07 15 01:40  18 25 42.31    -35 53 24.8   0.0116 1.0273 158.6     16?   1.93 315.3    5 210  60  60
   2024 07 15 01:50  18 25 41.22    -35 53 10.8   0.0116 1.0273 158.6     16?   1.92 317.8    4 211  60  60
   2024 07 15 02:00  18 25 40.20    -35 52 56.3   0.0116 1.0273 158.6     16?   1.91 320.4    3 213  60  60
   2024 07 15 02:10  18 25 39.23    -35 52 41.3   0.0116 1.0273 158.6     16?   1.90 323.1    2 215  60  60
   2024 07 15 02:20  18 25 38.33    -35 52 25.8   0.0116 1.0273 158.6     16?   1.89 325.9    1 217  60  60
   2024 07 15 02:30  18 25 37.50    -35 52 10.0   0.0116 1.0273 158.6     16?   1.88 328.7    0 218  60  60
   ................
   2024 07 15 20:00  18 27 43.64    -35 44 08.4   0.0116 1.0272 158.4 Cm  16?   1.21 241.3    2 143  51  68
   2024 07 15 20:10  18 27 42.73    -35 44 13.9   0.0116 1.0272 158.4 Cm  16?   1.26 244.8    3 145  51  68
   2024 07 15 20:20  18 27 41.76    -35 44 19.0   0.0116 1.0272 158.4 Nm  16?   1.31 248.1    4 147  51  68
   2024 07 15 20:30  18 27 40.73    -35 44 23.6   0.0116 1.0272 158.4 Nm  16?   1.36 251.1    5 148  51  68
   2024 07 15 20:40  18 27 39.64    -35 44 27.7   0.0116 1.0272 158.4 Nm  16?   1.41 254.0    6 150  51  68
   2024 07 15 20:50  18 27 38.50    -35 44 31.3   0.0116 1.0272 158.4 Nm  16?   1.46 256.6    7 152  51  68
   2024 07 15 21:00  18 27 37.31    -35 44 34.4   0.0116 1.0272 158.4 Am  16?   1.51 259.2    8 154  51  68
   2024 07 15 21:10  18 27 36.07    -35 44 36.9   0.0116 1.0272 158.4 Am  16?   1.55 261.6    8 156  51  68
   2024 07 15 21:20  18 27 34.79    -35 44 38.8   0.0116 1.0272 158.4 Am  16?   1.60 263.9    9 158  50  68
   2024 07 15 21:30  18 27 33.47    -35 44 40.1   0.0116 1.0272 158.3 Am  16?   1.64 266.1   10 160  50  68
   2024 07 15 21:40  18 27 32.11    -35 44 40.9   0.0116 1.0272 158.3 Am  16?   1.68 268.2   10 162  50  68
   2024 07 15 21:50  18 27 30.71    -35 44 41.1   0.0116 1.0272 158.3  m  16?   1.71 270.3   11 164  50  68
   2024 07 15 22:00  18 27 29.29    -35 44 40.6   0.0116 1.0272 158.3  m  16?   1.75 272.3   11 166  50  68
   2024 07 15 22:10  18 27 27.84    -35 44 39.6   0.0116 1.0272 158.3  m  16?   1.78 274.2   12 168  50  68
   2024 07 15 22:20  18 27 26.37    -35 44 37.9   0.0116 1.0272 158.3  m  16?   1.81 276.2   12 170  50  68
   2024 07 15 22:30  18 27 24.89    -35 44 35.5   0.0116 1.0272 158.3  m  16?   1.84 278.1   12 172  50  68
   2024 07 15 22:40  18 27 23.39    -35 44 32.6   0.0116 1.0272 158.3  m  16?   1.86 279.9   13 174  50  68
   2024 07 15 22:50  18 27 21.88    -35 44 29.0   0.0116 1.0272 158.3  m  16?   1.89 281.8   13 176  50  68
   2024 07 15 23:00  18 27 20.36    -35 44 24.7   0.0116 1.0272 158.3  m  16?   1.90 283.7   13 178  50  68
   2024 07 15 23:10  18 27 18.84    -35 44 19.8   0.0116 1.0272 158.3  t  16?   1.92 285.5   13 180  50  68
   2024 07 15 23:20  18 27 17.32    -35 44 14.3   0.0116 1.0272 158.2  m  16?   1.94 287.4   13 182  50  68
   2024 07 15 23:30  18 27 15.81    -35 44 08.1   0.0116 1.0272 158.2  m  16?   1.95 289.3   13 184  50  68
   2024 07 15 23:40  18 27 14.31    -35 44 01.3   0.0116 1.0272 158.2  m  16?   1.96 291.2   13 187  50  68
   2024 07 15 23:50  18 27 12.82    -35 43 53.8   0.0116 1.0272 158.2  m  16?   1.96 293.2   12 189  49  69
   2024 07 16 00:00  18 27 11.35    -35 43 45.7   0.0116 1.0272 158.2  m  16?   1.97 295.1   12 191  49  69
   2024 07 16 00:10  18 27 09.91    -35 43 37.0   0.0116 1.0272 158.2  m  16?   1.97 297.1   12 193  49  69
   2024 07 16 00:20  18 27 08.48    -35 43 27.6   0.0116 1.0272 158.2  m  16?   1.97 299.2   11 195  49  69
   2024 07 16 00:30  18 27 07.09    -35 43 17.7   0.0116 1.0272 158.2     16?   1.97 301.2   11 197  49  69
   2024 07 16 00:40  18 27 05.73    -35 43 07.1   0.0116 1.0272 158.2     16?   1.96 303.4   10 199  49  69
   2024 07 16 00:50  18 27 04.41    -35 42 55.9   0.0116 1.0272 158.2     16?   1.96 305.6    9 201  49  69
   2024 07 16 01:00  18 27 03.13    -35 42 44.2   0.0116 1.0272 158.2     16?   1.95 307.8    9 203  49  69
   2024 07 16 01:10  18 27 01.89    -35 42 31.9   0.0116 1.0272 158.2     16?   1.94 310.1    8 205  49  69
   2024 07 16 01:20  18 27 00.70    -35 42 19.1   0.0116 1.0272 158.2     16?   1.93 312.5    7 206  49  69
   2024 07 16 01:30  18 26 59.56    -35 42 05.7   0.0116 1.0272 158.1     16?   1.92 314.9    6 208  49  69
   2024 07 16 01:40  18 26 58.47    -35 41 51.8   0.0116 1.0272 158.1     16?   1.91 317.4    5 210  49  69
   2024 07 16 01:50  18 26 57.44    -35 41 37.5   0.0116 1.0272 158.1     16?   1.90 320.0    4 212  48  69
   2024 07 16 02:00  18 26 56.47    -35 41 22.6   0.0116 1.0272 158.1     16?   1.89 322.6    3 214  48  69
   2024 07 16 02:10  18 26 55.56    -35 41 07.3   0.0116 1.0272 158.1     16?   1.89 325.4    2 215  48  69
   2024 07 16 02:20  18 26 54.72    -35 40 51.5   0.0116 1.0272 158.1     16?   1.88 328.2    1 217  48  69
   2024 07 16 02:30  18 26 53.95    -35 40 35.3   0.0116 1.0272 158.1     16?   1.87 331.1    0 219  48  69
   ................
   2024 07 16 20:00  18 29 03.85    -35 32 12.0   0.0116 1.0271 158.0 Cm  16?   1.17 242.5    2 144  39  76
   2024 07 16 20:10  18 29 02.97    -35 32 17.2   0.0116 1.0271 158.0 Cm  16?   1.22 246.1    3 145  39  76
   2024 07 16 20:20  18 29 02.02    -35 32 21.8   0.0116 1.0271 158.0 Nm  16?   1.27 249.4    4 147  39  77
   2024 07 16 20:30  18 29 01.02    -35 32 26.0   0.0116 1.0271 158.0 Nm  16?   1.32 252.5    5 149  39  77
   2024 07 16 20:40  18 28 59.95    -35 32 29.7   0.0116 1.0271 158.0 Nm  16?   1.37 255.4    6 151  39  77
   2024 07 16 20:50  18 28 58.84    -35 32 32.8   0.0116 1.0271 157.9 Nm  16?   1.42 258.1    7 152  39  77
   2024 07 16 21:00  18 28 57.67    -35 32 35.4   0.0116 1.0271 157.9 Am  16?   1.47 260.6    8 154  38  77
   2024 07 16 21:10  18 28 56.46    -35 32 37.5   0.0116 1.0271 157.9 Am  16?   1.52 263.0    9 156  38  77
   2024 07 16 21:20  18 28 55.21    -35 32 39.0   0.0116 1.0271 157.9 Am  16?   1.56 265.3    9 158  38  77
   2024 07 16 21:30  18 28 53.92    -35 32 39.9   0.0116 1.0271 157.9 Am  16?   1.60 267.5   10 160  38  77
   2024 07 16 21:40  18 28 52.59    -35 32 40.3   0.0116 1.0271 157.9 Am  16?   1.64 269.7   11 162  38  77
   2024 07 16 21:50  18 28 51.23    -35 32 40.0   0.0116 1.0271 157.9  m  16?   1.68 271.7   11 164  38  77
   2024 07 16 22:00  18 28 49.84    -35 32 39.1   0.0116 1.0271 157.9  m  16?   1.72 273.8   12 166  38  77
   2024 07 16 22:10  18 28 48.42    -35 32 37.6   0.0116 1.0271 157.9  m  16?   1.75 275.7   12 168  38  77
   2024 07 16 22:20  18 28 46.99    -35 32 35.5   0.0116 1.0271 157.9  m  16?   1.78 277.7   12 170  38  77
   2024 07 16 22:30  18 28 45.54    -35 32 32.7   0.0116 1.0271 157.8  m  16?   1.81 279.6   13 172  38  77
   2024 07 16 22:40  18 28 44.07    -35 32 29.3   0.0116 1.0271 157.8  m  16?   1.83 281.5   13 175  38  77
   2024 07 16 22:50  18 28 42.60    -35 32 25.3   0.0116 1.0271 157.8  m  16?   1.85 283.4   13 177  38  77
   2024 07 16 23:00  18 28 41.12    -35 32 20.6   0.0116 1.0271 157.8  m  16?   1.87 285.3   13 179  38  77
   2024 07 16 23:10  18 28 39.64    -35 32 15.3   0.0116 1.0271 157.8  t  16?   1.89 287.2   13 181  38  77
   2024 07 16 23:20  18 28 38.16    -35 32 09.3   0.0116 1.0271 157.8  m  16?   1.91 289.0   13 183  38  77
   2024 07 16 23:30  18 28 36.69    -35 32 02.7   0.0116 1.0271 157.8  m  16?   1.92 291.0   13 185  38  77
   2024 07 16 23:40  18 28 35.24    -35 31 55.4   0.0116 1.0271 157.8  m  16?   1.93 292.9   13 187  37  77
   2024 07 16 23:50  18 28 33.79    -35 31 47.6   0.0116 1.0271 157.8  m  16?   1.93 294.9   12 189  37  77
   2024 07 17 00:00  18 28 32.37    -35 31 39.0   0.0116 1.0271 157.8  m  16?   1.94 296.8   12 191  37  77
   2024 07 17 00:10  18 28 30.97    -35 31 29.9   0.0116 1.0271 157.8  m  16?   1.94 298.9   12 193  37  77
   2024 07 17 00:20  18 28 29.59    -35 31 20.2   0.0116 1.0271 157.8  m  16?   1.94 300.9   11 195  37  77
   2024 07 17 00:30  18 28 28.24    -35 31 09.8   0.0116 1.0271 157.7  m  16?   1.94 303.1   11 197  37  78
   2024 07 17 00:40  18 28 26.93    -35 30 58.9   0.0116 1.0271 157.7  m  16?   1.94 305.2   10 199  37  78
   2024 07 17 00:50  18 28 25.66    -35 30 47.3   0.0116 1.0271 157.7  m  16?   1.93 307.4    9 201  37  78
   2024 07 17 01:00  18 28 24.43    -35 30 35.2   0.0116 1.0271 157.7     16?   1.93 309.7    9 203  37  78
   2024 07 17 01:10  18 28 23.24    -35 30 22.6   0.0116 1.0271 157.7     16?   1.92 312.1    8 205  37  78
   2024 07 17 01:20  18 28 22.10    -35 30 09.4   0.0116 1.0271 157.7     16?   1.92 314.5    7 207  37  78
   2024 07 17 01:30  18 28 21.01    -35 29 55.6   0.0116 1.0271 157.7     16?   1.91 317.0    6 209  37  78
   2024 07 17 01:40  18 28 19.98    -35 29 41.4   0.0116 1.0271 157.7     16?   1.90 319.5    5 211  37  78
   2024 07 17 01:50  18 28 19.00    -35 29 26.7   0.0116 1.0271 157.7     16?   1.89 322.1    4 212  36  78
   2024 07 17 02:00  18 28 18.08    -35 29 11.5   0.0116 1.0271 157.7     16?   1.88 324.8    3 214  36  78
   2024 07 17 02:10  18 28 17.23    -35 28 55.8   0.0116 1.0271 157.7     16?   1.88 327.6    2 216  36  78
   2024 07 17 02:20  18 28 16.45    -35 28 39.7   0.0116 1.0271 157.7     16?   1.87 330.4    1 218  36  78
   2024 07 17 02:30  18 28 15.73    -35 28 23.2   0.0116 1.0271 157.7     16?   1.87 333.3    0 219  36  78
   ................
   2024 07 17 19:50  18 30 30.06    -35 19 33.0   0.0116 1.0270 157.6 Cm  16?   1.08 239.9    1 142  27  84
   2024 07 17 20:00  18 30 29.26    -35 19 38.2   0.0116 1.0270 157.6 Cm  16?   1.13 243.9    3 144  27  84
   2024 07 17 20:10  18 30 28.40    -35 19 42.9   0.0116 1.0270 157.5 Cm  16?   1.18 247.5    4 146  26  85
   2024 07 17 20:20  18 30 27.48    -35 19 47.2   0.0116 1.0270 157.5 Nm  16?   1.23 250.8    5 147  26  85
   2024 07 17 20:30  18 30 26.49    -35 19 50.9   0.0116 1.0270 157.5 Nm  16?   1.29 253.9    6 149  26  85
   2024 07 17 20:40  18 30 25.45    -35 19 54.2   0.0116 1.0270 157.5 Nm  16?   1.34 256.8    7 151  26  85
   2024 07 17 20:50  18 30 24.36    -35 19 56.9   0.0116 1.0270 157.5 Nm  16?   1.39 259.5    8 153  26  85
   2024 07 17 21:00  18 30 23.22    -35 19 59.1   0.0116 1.0270 157.5 Am  16?   1.44 262.1    8 155  26  85
   2024 07 17 21:10  18 30 22.04    -35 20 00.7   0.0116 1.0270 157.5 Am  16?   1.48 264.5    9 157  26  85
   2024 07 17 21:20  18 30 20.81    -35 20 01.8   0.0116 1.0270 157.5 Am  16?   1.53 266.8   10 159  26  85
   2024 07 17 21:30  18 30 19.55    -35 20 02.3   0.0116 1.0270 157.5 Am  16?   1.57 269.1   10 161  26  85
   2024 07 17 21:40  18 30 18.25    -35 20 02.2   0.0116 1.0270 157.5 Am  16?   1.61 271.2   11 163  26  85
   2024 07 17 21:50  18 30 16.92    -35 20 01.5   0.0116 1.0270 157.5  m  16?   1.65 273.3   12 165  26  85
   2024 07 17 22:00  18 30 15.56    -35 20 00.2   0.0115 1.0270 157.4  m  16?   1.69 275.3   12 167  26  85
   2024 07 17 22:10  18 30 14.18    -35 19 58.3   0.0115 1.0270 157.4  m  16?   1.72 277.3   12 169  26  85
   2024 07 17 22:20  18 30 12.78    -35 19 55.7   0.0115 1.0270 157.4  m  16?   1.75 279.2   13 171  26  85
   2024 07 17 22:30  18 30 11.36    -35 19 52.5   0.0115 1.0270 157.4  m  16?   1.78 281.1   13 173  26  85
   2024 07 17 22:40  18 30 09.93    -35 19 48.7   0.0115 1.0270 157.4  m  16?   1.80 283.1   13 175  26  85
   2024 07 17 22:50  18 30 08.49    -35 19 44.2   0.0115 1.0270 157.4  m  16?   1.83 285.0   13 177  25  85
   2024 07 17 23:00  18 30 07.05    -35 19 39.1   0.0115 1.0270 157.4  m  16?   1.85 286.9   13 179  25  85
   2024 07 17 23:10  18 30 05.61    -35 19 33.4   0.0115 1.0270 157.4  t  16?   1.86 288.8   13 181  25  85
   2024 07 17 23:20  18 30 04.17    -35 19 27.0   0.0115 1.0270 157.4  m  16?   1.88 290.7   13 183  25  85
   2024 07 17 23:30  18 30 02.74    -35 19 20.0   0.0115 1.0270 157.4  m  16?   1.89 292.6   13 186  25  85
   2024 07 17 23:40  18 30 01.32    -35 19 12.3   0.0115 1.0270 157.4  m  16?   1.90 294.6   13 188  25  85
   2024 07 17 23:50  18 29 59.92    -35 19 04.1   0.0115 1.0270 157.3  m  16?   1.91 296.6   12 190  25  85
   2024 07 18 00:00  18 29 58.54    -35 18 55.1   0.0115 1.0270 157.3  m  16?   1.91 298.6   12 192  25  85
   2024 07 18 00:10  18 29 57.18    -35 18 45.6   0.0115 1.0270 157.3  m  16?   1.92 300.6   12 194  25  85
   2024 07 18 00:20  18 29 55.85    -35 18 35.5   0.0115 1.0270 157.3  m  16?   1.92 302.7   11 196  25  85
   2024 07 18 00:30  18 29 54.55    -35 18 24.7   0.0115 1.0270 157.3  m  16?   1.92 304.9   11 198  25  85
   2024 07 18 00:40  18 29 53.29    -35 18 13.4   0.0115 1.0270 157.3  m  16?   1.92 307.1   10 200  25  85
   2024 07 18 00:50  18 29 52.06    -35 18 01.5   0.0115 1.0270 157.3  m  16?   1.91 309.3    9 202  25  85
   2024 07 18 01:00  18 29 50.87    -35 17 49.0   0.0116 1.0270 157.3  m  16?   1.91 311.6    9 204  25  86
   2024 07 18 01:10  18 29 49.74    -35 17 36.0   0.0116 1.0269 157.3  m  16?   1.91 314.0    8 206  25  86
   2024 07 18 01:20  18 29 48.64    -35 17 22.5   0.0116 1.0269 157.3  m  16?   1.90 316.5    7 208  24  86
   2024 07 18 01:30  18 29 47.61    -35 17 08.4   0.0116 1.0269 157.3  m  16?   1.89 319.0    6 209  24  86
   2024 07 18 01:40  18 29 46.62    -35 16 53.8   0.0116 1.0269 157.3     16?   1.89 321.6    5 211  24  86
   2024 07 18 01:50  18 29 45.70    -35 16 38.7   0.0116 1.0269 157.3     16?   1.88 324.2    4 213  24  86
   2024 07 18 02:00  18 29 44.84    -35 16 23.2   0.0116 1.0269 157.3     16?   1.88 326.9    3 215  24  86
   2024 07 18 02:10  18 29 44.04    -35 16 07.2   0.0116 1.0269 157.2     16?   1.87 329.7    2 217  24  86
   2024 07 18 02:20  18 29 43.30    -35 15 50.7   0.0116 1.0269 157.2     16?   1.87 332.6    1 218  24  86
   2024 07 18 02:30  18 29 42.64    -35 15 33.9   0.0116 1.0269 157.2     16?   1.87 335.5    0 220  24  86
   ................
   2024 07 18 19:50  18 32 00.38    -35 06 22.4   0.0115 1.0269 157.1 Cm  16?   1.04 241.3    2 142  14  91
   2024 07 18 20:00  18 31 59.60    -35 06 27.2   0.0115 1.0269 157.1 Cm  16?   1.10 245.3    3 144  14  91
   2024 07 18 20:10  18 31 58.75    -35 06 31.5   0.0115 1.0269 157.1 Cm  16?   1.15 249.0    4 146  14  91
   2024 07 18 20:20  18 31 57.85    -35 06 35.3   0.0115 1.0269 157.1 Nm  16?   1.20 252.4    5 148  14  91
   2024 07 18 20:30  18 31 56.89    -35 06 38.7   0.0115 1.0269 157.1 Nm  16?   1.25 255.5    6 150  14  91
   2024 07 18 20:40  18 31 55.87    -35 06 41.5   0.0115 1.0269 157.1 Nm  16?   1.30 258.4    7 151  14  91
   2024 07 18 20:50  18 31 54.80    -35 06 43.8   0.0115 1.0269 157.1 Nm  16?   1.36 261.1    8 153  14  91
   2024 07 18 21:00  18 31 53.69    -35 06 45.6   0.0115 1.0269 157.1 Am  16?   1.40 263.7    9 155  14  91
   2024 07 18 21:10  18 31 52.53    -35 06 46.8   0.0115 1.0269 157.1 Am  16?   1.45 266.1    9 157  14  91
   2024 07 18 21:20  18 31 51.33    -35 06 47.5   0.0115 1.0269 157.1 Am  16?   1.50 268.4   10 159  14  91
   2024 07 18 21:30  18 31 50.09    -35 06 47.5   0.0115 1.0269 157.0 Am  16?   1.54 270.6   11 161  14  91
   2024 07 18 21:40  18 31 48.82    -35 06 47.0   0.0115 1.0268 157.0 Am  16?   1.58 272.8   11 163  14  91
   2024 07 18 21:50  18 31 47.51    -35 06 45.9   0.0115 1.0268 157.0  m  16?   1.62 274.8   12 165  14  91
   2024 07 18 22:00  18 31 46.18    -35 06 44.1   0.0115 1.0268 157.0  m  16?   1.66 276.9   12 167  13  92
   2024 07 18 22:10  18 31 44.83    -35 06 41.8   0.0115 1.0268 157.0  m  16?   1.69 278.8   13 169  13  92
   2024 07 18 22:20  18 31 43.46    -35 06 38.8   0.0115 1.0268 157.0  m  16?   1.72 280.8   13 171  13  92
   2024 07 18 22:30  18 31 42.08    -35 06 35.2   0.0115 1.0268 157.0  m  16?   1.75 282.7   13 173  13  92
   2024 07 18 22:40  18 31 40.68    -35 06 31.0   0.0115 1.0268 157.0  m  16?   1.78 284.6   13 176  13  92
   2024 07 18 22:50  18 31 39.28    -35 06 26.1   0.0115 1.0268 157.0  m  16?   1.80 286.5   13 178  13  92
   2024 07 18 23:00  18 31 37.87    -35 06 20.6   0.0115 1.0268 157.0  t  16?   1.82 288.4   14 180  13  92
   2024 07 18 23:10  18 31 36.46    -35 06 14.4   0.0115 1.0268 157.0  m  16?   1.84 290.4   13 182  13  92
   2024 07 18 23:20  18 31 35.06    -35 06 07.6   0.0115 1.0268 156.9  m  16?   1.86 292.3   13 184  13  92
   2024 07 18 23:30  18 31 33.67    -35 06 00.2   0.0115 1.0268 156.9  m  16?   1.87 294.2   13 186  13  92
   2024 07 18 23:40  18 31 32.29    -35 05 52.2   0.0115 1.0268 156.9  m  16?   1.88 296.2   13 188  13  92
   2024 07 18 23:50  18 31 30.93    -35 05 43.5   0.0115 1.0268 156.9  m  16?   1.89 298.2   13 190  13  92
   2024 07 19 00:00  18 31 29.59    -35 05 34.2   0.0115 1.0268 156.9  m  16?   1.89 300.3   12 192  13  92
   2024 07 19 00:10  18 31 28.27    -35 05 24.3   0.0115 1.0268 156.9  m  16?   1.90 302.3   12 194  13  92
   2024 07 19 00:20  18 31 26.98    -35 05 13.8   0.0115 1.0268 156.9  m  16?   1.90 304.5   11 196  13  92
   2024 07 19 00:30  18 31 25.73    -35 05 02.6   0.0115 1.0268 156.9  m  16?   1.90 306.6   11 198  13  92
   2024 07 19 00:40  18 31 24.50    -35 04 50.9   0.0115 1.0268 156.9  m  16?   1.90 308.9   10 200  13  92
   2024 07 19 00:50  18 31 23.32    -35 04 38.7   0.0115 1.0268 156.9  m  16?   1.90 311.2    9 202  12  92
   2024 07 19 01:00  18 31 22.18    -35 04 25.8   0.0115 1.0268 156.9  m  16?   1.90 313.5    9 204  12  92
   2024 07 19 01:10  18 31 21.09    -35 04 12.4   0.0115 1.0268 156.9  m  16?   1.89 315.9    8 206  12  92
   2024 07 19 01:20  18 31 20.05    -35 03 58.5   0.0115 1.0268 156.9  m  16?   1.89 318.4    7 208  12  92
   2024 07 19 01:30  18 31 19.05    -35 03 44.1   0.0115 1.0268 156.8  m  16?   1.89 320.9    6 210  12  92
   2024 07 19 01:40  18 31 18.12    -35 03 29.2   0.0115 1.0268 156.8  m  16?   1.88 323.5    5 212  12  92
   2024 07 19 01:50  18 31 17.24    -35 03 13.8   0.0115 1.0268 156.8  m  16?   1.88 326.2    4 214  12  92
   2024 07 19 02:00  18 31 16.43    -35 02 57.9   0.0115 1.0268 156.8  m  16?   1.87 329.0    3 215  12  92
   2024 07 19 02:10  18 31 15.68    -35 02 41.6   0.0115 1.0268 156.8  m  16?   1.87 331.8    2 217  12  92
   2024 07 19 02:20  18 31 15.00    -35 02 24.9   0.0115 1.0268 156.8  m  16?   1.87 334.6    1 219  12  92
   2024 07 19 02:30  18 31 14.39    -35 02 07.7   0.0115 1.0268 156.8     16?   1.87 337.6    0 220  12  92
   ................
   2024 07 19 19:50  18 33 35.27    -34 52 34.7   0.0115 1.0267 156.7 Cm  16?   1.01 242.8    2 143   6  96
   2024 07 19 20:00  18 33 34.51    -34 52 39.0   0.0115 1.0267 156.7 Cm  16?   1.06 246.9    4 144   6  96
   2024 07 19 20:10  18 33 33.68    -34 52 42.9   0.0115 1.0267 156.7 Cm  16?   1.12 250.6    5 146   6  96
   2024 07 19 20:20  18 33 32.79    -34 52 46.4   0.0115 1.0267 156.7 Nm  16?   1.17 254.0    6 148   6  96
   2024 07 19 20:30  18 33 31.85    -34 52 49.3   0.0115 1.0267 156.7 Nm  16?   1.22 257.1    7 150   6  96
   2024 07 19 20:40  18 33 30.86    -34 52 51.7   0.0115 1.0267 156.7 Nm  16?   1.28 260.0    7 152   6  96
   2024 07 19 20:50  18 33 29.81    -34 52 53.6   0.0115 1.0267 156.7 Nm  16?   1.33 262.7    8 154   6  96
   2024 07 19 21:00  18 33 28.71    -34 52 55.0   0.0115 1.0267 156.7 Am  16?   1.38 265.3    9 156   6  96
   2024 07 19 21:10  18 33 27.58    -34 52 55.8   0.0115 1.0267 156.6 Am  16?   1.43 267.7   10 157   6  96
   2024 07 19 21:20  18 33 26.40    -34 52 56.0   0.0115 1.0267 156.6 Am  16?   1.47 270.0   11 159   6  96
   2024 07 19 21:30  18 33 25.18    -34 52 55.7   0.0115 1.0267 156.6 Am  16?   1.52 272.2   11 161   6  96
   2024 07 19 21:40  18 33 23.94    -34 52 54.7   0.0115 1.0267 156.6  m  16?   1.56 274.3   12 163   6  96
   2024 07 19 21:50  18 33 22.66    -34 52 53.2   0.0115 1.0267 156.6  m  16?   1.60 276.4   12 166   6  96
   2024 07 19 22:00  18 33 21.36    -34 52 51.0   0.0115 1.0267 156.6  m  16?   1.64 278.4   13 168   6  96
   2024 07 19 22:10  18 33 20.03    -34 52 48.3   0.0115 1.0267 156.6  m  16?   1.67 280.4   13 170   6  96
   2024 07 19 22:20  18 33 18.69    -34 52 44.9   0.0115 1.0267 156.6  m  16?   1.70 282.4   13 172   6  96
   2024 07 19 22:30  18 33 17.33    -34 52 40.9   0.0115 1.0267 156.6  m  16?   1.73 284.3   14 174   6  96
   2024 07 19 22:40  18 33 15.97    -34 52 36.2   0.0115 1.0267 156.6  m  16?   1.76 286.2   14 176   6  96
   2024 07 19 22:50  18 33 14.59    -34 52 30.9   0.0115 1.0267 156.6  m  16?   1.78 288.1   14 178   6  96
   2024 07 19 23:00  18 33 13.22    -34 52 25.0   0.0115 1.0267 156.5  t  16?   1.80 290.0   14 180   6  96
   2024 07 19 23:10  18 33 11.85    -34 52 18.4   0.0115 1.0267 156.5  m  16?   1.82 292.0   14 182   6  96
   2024 07 19 23:20  18 33 10.48    -34 52 11.3   0.0115 1.0267 156.5  m  16?   1.84 293.9   14 185   6  96
   2024 07 19 23:30  18 33 09.12    -34 52 03.4   0.0115 1.0267 156.5  m  16?   1.85 295.9   13 187   6  96
   2024 07 19 23:40  18 33 07.78    -34 51 55.0   0.0115 1.0267 156.5  m  16?   1.86 297.8   13 189   6  96
   2024 07 19 23:50  18 33 06.45    -34 51 45.9   0.0115 1.0267 156.5  m  16?   1.87 299.9   13 191   6  97
   2024 07 20 00:00  18 33 05.15    -34 51 36.2   0.0115 1.0267 156.5  m  16?   1.88 301.9   12 193   6  97
   2024 07 20 00:10  18 33 03.87    -34 51 25.9   0.0115 1.0267 156.5  m  16?   1.88 304.0   12 195   6  97
   2024 07 20 00:20  18 33 02.62    -34 51 15.0   0.0115 1.0267 156.5  m  16?   1.89 306.2   11 197   6  97
   2024 07 20 00:30  18 33 01.40    -34 51 03.6   0.0115 1.0267 156.5  m  16?   1.89 308.4   11 199   6  97
   2024 07 20 00:40  18 33 00.22    -34 50 51.5   0.0115 1.0267 156.5  m  16?   1.89 310.6   10 201   6  97
   2024 07 20 00:50  18 32 59.08    -34 50 38.8   0.0115 1.0267 156.5  m  16?   1.89 312.9    9 203   6  97
   2024 07 20 01:00  18 32 57.98    -34 50 25.7   0.0115 1.0267 156.4  m  16?   1.89 315.3    9 205   6  97
   2024 07 20 01:10  18 32 56.93    -34 50 11.9   0.0115 1.0267 156.4  m  16?   1.89 317.7    8 207   6  97
   2024 07 20 01:20  18 32 55.93    -34 49 57.7   0.0115 1.0267 156.4  m  16?   1.88 320.2    7 209   6  97
   2024 07 20 01:30  18 32 54.98    -34 49 42.9   0.0115 1.0267 156.4  m  16?   1.88 322.8    6 211   6  97
   2024 07 20 01:40  18 32 54.09    -34 49 27.6   0.0115 1.0267 156.4  m  16?   1.88 325.4    5 212   6  97
   2024 07 20 01:50  18 32 53.26    -34 49 11.9   0.0115 1.0267 156.4  m  16?   1.88 328.1    4 214   6  97
   2024 07 20 02:00  18 32 52.50    -34 48 55.7   0.0115 1.0267 156.4  m  16?   1.87 330.9    3 216   6  97
   2024 07 20 02:10  18 32 51.79    -34 48 39.1   0.0115 1.0267 156.4  m  16?   1.87 333.7    2 218   6  97
   2024 07 20 02:20  18 32 51.16    -34 48 22.1   0.0115 1.0267 156.4  m  16?   1.88 336.6    0 219   6  97
   2024 07 20 02:30  18 32 50.59    -34 48 04.6   0.0115 1.0267 156.4  m  16?   1.88 339.5    0 221   6  97
   ................
   2024 07 20 19:50  18 35 14.32    -34 38 09.8   0.0115 1.0266 156.3 Cm  16?   0.98 244.5    3 143  14  99
   2024 07 20 20:00  18 35 13.57    -34 38 13.7   0.0115 1.0266 156.3 Cm  16?   1.03 248.6    4 145  14  99
   2024 07 20 20:10  18 35 12.76    -34 38 17.2   0.0115 1.0266 156.3 Cm  16?   1.09 252.3    5 146  14  99
   2024 07 20 20:20  18 35 11.89    -34 38 20.3   0.0115 1.0266 156.3 Nm  16?   1.14 255.7    6 148  14  99
   2024 07 20 20:30  18 35 10.96    -34 38 22.8   0.0115 1.0266 156.3 Nm  16?   1.20 258.8    7 150  14  99
   2024 07 20 20:40  18 35 09.98    -34 38 24.8   0.0115 1.0266 156.3 Nm  16?   1.25 261.7    8 152  14  99
   2024 07 20 20:50  18 35 08.95    -34 38 26.3   0.0115 1.0266 156.3 Nm  16?   1.31 264.4    9 154  14  99
   2024 07 20 21:00  18 35 07.88    -34 38 27.2   0.0115 1.0266 156.2 Am  16?   1.36 267.0   10 156  14  99
   2024 07 20 21:10  18 35 06.76    -34 38 27.6   0.0115 1.0266 156.2 Am  16?   1.41 269.4   10 158  14  99
   2024 07 20 21:20  18 35 05.60    -34 38 27.5   0.0115 1.0266 156.2 Am  16?   1.45 271.6   11 160  15  99
   2024 07 20 21:30  18 35 04.41    -34 38 26.7   0.0115 1.0266 156.2 Am  16?   1.50 273.8   12 162  15  99
   2024 07 20 21:40  18 35 03.18    -34 38 25.3   0.0115 1.0266 156.2  m  16?   1.54 275.9   12 164  15  99
   2024 07 20 21:50  18 35 01.93    -34 38 23.4   0.0115 1.0266 156.2  m  16?   1.58 278.0   13 166  15  99
   2024 07 20 22:00  18 35 00.65    -34 38 20.8   0.0115 1.0266 156.2  m  16?   1.62 280.0   13 168  15  99
   2024 07 20 22:10  18 34 59.35    -34 38 17.6   0.0115 1.0266 156.2  m  16?   1.65 282.0   13 170  15  99
   2024 07 20 22:20  18 34 58.03    -34 38 13.8   0.0115 1.0266 156.2  m  16?   1.69 283.9   14 172  15  99
   2024 07 20 22:30  18 34 56.70    -34 38 09.4   0.0115 1.0266 156.2  m  16?   1.72 285.8   14 174  15  99
   2024 07 20 22:40  18 34 55.36    -34 38 04.4   0.0115 1.0266 156.2  m  16?   1.74 287.7   14 176  15  99
   2024 07 20 22:50  18 34 54.02    -34 37 58.7   0.0115 1.0266 156.1  m  16?   1.77 289.7   14 179  15  99
   2024 07 20 23:00  18 34 52.67    -34 37 52.4   0.0115 1.0266 156.1  t  16?   1.79 291.6   14 181  15  99
   2024 07 20 23:10  18 34 51.33    -34 37 45.4   0.0115 1.0266 156.1  m  16?   1.81 293.5   14 183  15  99
   2024 07 20 23:20  18 34 49.99    -34 37 37.8   0.0115 1.0266 156.1  m  16?   1.82 295.4   14 185  15  99
   2024 07 20 23:30  18 34 48.66    -34 37 29.6   0.0115 1.0266 156.1  m  16?   1.84 297.4   14 187  15  99
   2024 07 20 23:40  18 34 47.35    -34 37 20.8   0.0115 1.0266 156.1  m  16?   1.85 299.4   13 189  15  99
   2024 07 20 23:50  18 34 46.06    -34 37 11.3   0.0115 1.0266 156.1  m  16?   1.86 301.4   13 191  16  99
   2024 07 21 00:00  18 34 44.79    -34 37 01.2   0.0115 1.0266 156.1  m  16?   1.87 303.5   12 193  16  99
   2024 07 21 00:10  18 34 43.54    -34 36 50.6   0.0115 1.0266 156.1  m  16?   1.87 305.6   12 195  16  99
   2024 07 21 00:20  18 34 42.33    -34 36 39.3   0.0115 1.0266 156.1  m  16?   1.88 307.8   11 198  16  99
   2024 07 21 00:30  18 34 41.15    -34 36 27.4   0.0115 1.0266 156.1  m  16?   1.88 310.0   11 200  16  99
   2024 07 21 00:40  18 34 40.00    -34 36 15.0   0.0115 1.0266 156.1  m  16?   1.88 312.3   10 202  16  99
   2024 07 21 00:50  18 34 38.90    -34 36 02.0   0.0115 1.0266 156.0  m  16?   1.88 314.6    9 204  16  99
   2024 07 21 01:00  18 34 37.84    -34 35 48.5   0.0115 1.0266 156.0  m  16?   1.88 317.0    9 205  16  99
   2024 07 21 01:10  18 34 36.83    -34 35 34.4   0.0115 1.0266 156.0  m  16?   1.88 319.4    8 207  16  99
   2024 07 21 01:20  18 34 35.87    -34 35 19.8   0.0115 1.0266 156.0  m  16?   1.88 322.0    7 209  16  99
   2024 07 21 01:30  18 34 34.96    -34 35 04.7   0.0115 1.0266 156.0  m  16?   1.88 324.5    6 211  16  99
   2024 07 21 01:40  18 34 34.11    -34 34 49.1   0.0115 1.0266 156.0  m  16?   1.88 327.2    5 213  16  99
   2024 07 21 01:50  18 34 33.33    -34 34 33.1   0.0115 1.0266 156.0  m  16?   1.88 329.9    4 215  16  99
   2024 07 21 02:00  18 34 32.60    -34 34 16.5   0.0115 1.0266 156.0  m  16?   1.88 332.7    3 216  16  99
   2024 07 21 02:10  18 34 31.94    -34 33 59.6   0.0115 1.0266 156.0  m  16?   1.88 335.5    2 218  17  99
   2024 07 21 02:20  18 34 31.35    -34 33 42.3   0.0115 1.0266 156.0  m  16?   1.88 338.4    0 220  17  99
   2024 07 21 02:30  18 34 30.83    -34 33 24.5   0.0115 1.0266 156.0  m  16?   1.89 341.3    0 221  17  99
   ................
   2024 07 21 19:50  18 36 57.07    -34 23 07.6   0.0115 1.0265 155.9 C   16?   0.95 246.4    3 143  27  99
   2024 07 21 20:00  18 36 56.33    -34 23 11.2   0.0115 1.0265 155.9 C   16?   1.01 250.5    4 145  27  99
   2024 07 21 20:10  18 36 55.53    -34 23 14.3   0.0115 1.0265 155.9 C   16?   1.07 254.2    5 147  27  99
   2024 07 21 20:20  18 36 54.67    -34 23 16.9   0.0115 1.0265 155.9 Nm  16?   1.12 257.6    6 149  27  99
   2024 07 21 20:30  18 36 53.76    -34 23 19.0   0.0115 1.0265 155.9 Nm  16?   1.18 260.7    7 150  27  99
   2024 07 21 20:40  18 36 52.79    -34 23 20.6   0.0115 1.0265 155.9 Nm  16?   1.23 263.5    8 152  28  99
   2024 07 21 20:50  18 36 51.78    -34 23 21.7   0.0115 1.0265 155.9 Nm  16?   1.29 266.2    9 154  28  99
   2024 07 21 21:00  18 36 50.72    -34 23 22.2   0.0115 1.0265 155.8 Am  16?   1.34 268.7   10 156  28  99
   2024 07 21 21:10  18 36 49.61    -34 23 22.2   0.0115 1.0265 155.8 Am  16?   1.39 271.0   11 158  28  99
   2024 07 21 21:20  18 36 48.47    -34 23 21.6   0.0115 1.0265 155.8 Am  16?   1.44 273.3   11 160  28  99
   2024 07 21 21:30  18 36 47.30    -34 23 20.4   0.0115 1.0265 155.8 Am  16?   1.48 275.5   12 162  28  99
   2024 07 21 21:40  18 36 46.09    -34 23 18.7   0.0115 1.0265 155.8  m  16?   1.53 277.5   12 164  28  99
   2024 07 21 21:50  18 36 44.85    -34 23 16.3   0.0115 1.0265 155.8  m  16?   1.57 279.6   13 166  28  99
   2024 07 21 22:00  18 36 43.59    -34 23 13.3   0.0115 1.0265 155.8  m  16?   1.61 281.6   13 168  28  99
   2024 07 21 22:10  18 36 42.31    -34 23 09.7   0.0115 1.0265 155.8  m  16?   1.64 283.5   14 171  28  99
   2024 07 21 22:20  18 36 41.02    -34 23 05.5   0.0115 1.0265 155.8  m  16?   1.67 285.4   14 173  28  99
   2024 07 21 22:30  18 36 39.71    -34 23 00.7   0.0115 1.0265 155.8  m  16?   1.70 287.4   14 175  28  99
   2024 07 21 22:40  18 36 38.40    -34 22 55.2   0.0115 1.0265 155.8  m  16?   1.73 289.3   14 177  29  99
   2024 07 21 22:50  18 36 37.08    -34 22 49.2   0.0115 1.0265 155.7  m  16?   1.76 291.2   14 179  29  99
   2024 07 21 23:00  18 36 35.76    -34 22 42.4   0.0115 1.0265 155.7  t  16?   1.78 293.1   14 181  29  99
   2024 07 21 23:10  18 36 34.44    -34 22 35.1   0.0115 1.0265 155.7  m  16?   1.80 295.0   14 183  29  99
   2024 07 21 23:20  18 36 33.13    -34 22 27.1   0.0115 1.0265 155.7  m  16?   1.82 297.0   14 186  29  99
   2024 07 21 23:30  18 36 31.83    -34 22 18.5   0.0115 1.0265 155.7  m  16?   1.83 298.9   14 188  29  99
   2024 07 21 23:40  18 36 30.55    -34 22 09.3   0.0115 1.0265 155.7  m  16?   1.84 300.9   13 190  29  99
   2024 07 21 23:50  18 36 29.28    -34 21 59.5   0.0115 1.0265 155.7  m  16?   1.85 303.0   13 192  29  99
   2024 07 22 00:00  18 36 28.04    -34 21 49.0   0.0115 1.0265 155.7  m  16?   1.86 305.0   13 194  29  99
   2024 07 22 00:10  18 36 26.83    -34 21 38.0   0.0115 1.0264 155.7  m  16?   1.87 307.2   12 196  29  99
   2024 07 22 00:20  18 36 25.65    -34 21 26.3   0.0115 1.0264 155.7  m  16?   1.87 309.3   12 198  29  99
   2024 07 22 00:30  18 36 24.50    -34 21 14.1   0.0115 1.0264 155.7  m  16?   1.88 311.6   11 200  29  99
   2024 07 22 00:40  18 36 23.39    -34 21 01.3   0.0115 1.0264 155.7  m  16?   1.88 313.8   10 202  29  99
   2024 07 22 00:50  18 36 22.32    -34 20 48.0   0.0115 1.0264 155.6  m  16?   1.88 316.2    9 204  29  99
   2024 07 22 01:00  18 36 21.29    -34 20 34.1   0.0115 1.0264 155.6  m  16?   1.88 318.6    9 206  30  99
   2024 07 22 01:10  18 36 20.32    -34 20 19.7   0.0115 1.0264 155.6  m  16?   1.88 321.0    8 208  30  99
   2024 07 22 01:20  18 36 19.39    -34 20 04.7   0.0115 1.0264 155.6  m  16?   1.88 323.6    7 210  30  99
   2024 07 22 01:30  18 36 18.52    -34 19 49.3   0.0115 1.0264 155.6  m  16?   1.88 326.2    6 212  30  99
   2024 07 22 01:40  18 36 17.71    -34 19 33.4   0.0115 1.0264 155.6  m  16?   1.88 328.8    5 213  30  99
   2024 07 22 01:50  18 36 16.96    -34 19 17.0   0.0115 1.0264 155.6  m  16?   1.88 331.5    4 215  30  99
   2024 07 22 02:00  18 36 16.27    -34 19 00.2   0.0115 1.0264 155.6  m  16?   1.89 334.3    3 217  30  99
   2024 07 22 02:10  18 36 15.65    -34 18 42.9   0.0115 1.0264 155.6  m  16?   1.89 337.1    1 219  30  99
   2024 07 22 02:20  18 36 15.10    -34 18 25.3   0.0115 1.0264 155.6  m  16?   1.90 340.0    0 220  30  99
   2024 07 22 02:30  18 36 14.62    -34 18 07.3   0.0115 1.0264 155.6  m  16?   1.90 342.9    0 222  30  99
   ................
   2024 07 22 19:50  18 38 43.04    -34 07 27.8   0.0114 1.0263 155.5 C   16?   0.93 248.5    4 143  41  97
   2024 07 22 20:00  18 38 42.31    -34 07 31.0   0.0114 1.0263 155.5 C   16?   0.99 252.6    5 145  41  96
   2024 07 22 20:10  18 38 41.52    -34 07 33.7   0.0114 1.0263 155.5 C   16?   1.05 256.2    6 147  41  96
   2024 07 22 20:20  18 38 40.67    -34 07 35.9   0.0114 1.0263 155.5 N   16?   1.11 259.6    7 149  41  96
   2024 07 22 20:30  18 38 39.77    -34 07 37.6   0.0114 1.0263 155.5 N   16?   1.16 262.6    8 151  41  96
   2024 07 22 20:40  18 38 38.81    -34 07 38.8   0.0114 1.0263 155.5 N   16?   1.22 265.4    9 153  41  96
   2024 07 22 20:50  18 38 37.81    -34 07 39.5   0.0114 1.0263 155.5 Nm  16?   1.28 268.0   10 155  42  96
   2024 07 22 21:00  18 38 36.76    -34 07 39.6   0.0114 1.0263 155.4 Am  16?   1.33 270.4   10 157  42  96
   2024 07 22 21:10  18 38 35.67    -34 07 39.2   0.0114 1.0263 155.4 Am  16?   1.38 272.8   11 159  42  96
   2024 07 22 21:20  18 38 34.54    -34 07 38.2   0.0114 1.0263 155.4 Am  16?   1.43 275.0   12 161  42  96
   2024 07 22 21:30  18 38 33.38    -34 07 36.6   0.0114 1.0263 155.4 Am  16?   1.47 277.1   12 163  42  96
   2024 07 22 21:40  18 38 32.19    -34 07 34.4   0.0114 1.0263 155.4  m  16?   1.52 279.2   13 165  42  96
   2024 07 22 21:50  18 38 30.97    -34 07 31.6   0.0114 1.0263 155.4  m  16?   1.56 281.2   13 167  42  96
   2024 07 22 22:00  18 38 29.73    -34 07 28.2   0.0114 1.0263 155.4  m  16?   1.60 283.1   14 169  42  96
   2024 07 22 22:10  18 38 28.47    -34 07 24.2   0.0114 1.0263 155.4  m  16?   1.63 285.0   14 171  42  96
   2024 07 22 22:20  18 38 27.19    -34 07 19.6   0.0114 1.0263 155.4  m  16?   1.67 287.0   14 173  42  96
   2024 07 22 22:30  18 38 25.90    -34 07 14.4   0.0114 1.0263 155.4  m  16?   1.70 288.9   14 175  42  96
   2024 07 22 22:40  18 38 24.60    -34 07 08.5   0.0114 1.0263 155.4  m  16?   1.73 290.7   14 177  42  96
   2024 07 22 22:50  18 38 23.31    -34 07 02.0   0.0114 1.0263 155.3  t  16?   1.75 292.6   15 180  43  96
   2024 07 22 23:00  18 38 22.01    -34 06 54.9   0.0114 1.0263 155.3  m  16?   1.77 294.5   14 182  43  96
   2024 07 22 23:10  18 38 20.71    -34 06 47.2   0.0114 1.0263 155.3  m  16?   1.79 296.5   14 184  43  96
   2024 07 22 23:20  18 38 19.43    -34 06 38.8   0.0114 1.0263 155.3  m  16?   1.81 298.4   14 186  43  96
   2024 07 22 23:30  18 38 18.15    -34 06 29.8   0.0114 1.0263 155.3  m  16?   1.83 300.4   14 188  43  96
   2024 07 22 23:40  18 38 16.90    -34 06 20.2   0.0114 1.0263 155.3  m  16?   1.84 302.4   14 190  43  96
   2024 07 22 23:50  18 38 15.66    -34 06 10.0   0.0114 1.0263 155.3  m  16?   1.85 304.4   13 192  43  96
   2024 07 23 00:00  18 38 14.44    -34 05 59.2   0.0114 1.0263 155.3  m  16?   1.86 306.5   13 194  43  96
   2024 07 23 00:10  18 38 13.26    -34 05 47.8   0.0114 1.0263 155.3  m  16?   1.87 308.6   12 197  43  96
   2024 07 23 00:20  18 38 12.10    -34 05 35.8   0.0114 1.0263 155.3  m  16?   1.87 310.8   12 199  43  96
   2024 07 23 00:30  18 38 10.98    -34 05 23.2   0.0114 1.0263 155.3  m  16?   1.88 313.0   11 201  43  96
   2024 07 23 00:40  18 38 09.90    -34 05 10.0   0.0114 1.0263 155.3  m  16?   1.88 315.3   10 203  43  96
   2024 07 23 00:50  18 38 08.86    -34 04 56.3   0.0114 1.0263 155.2  m  16?   1.88 317.7   10 205  43  96
   2024 07 23 01:00  18 38 07.87    -34 04 42.1   0.0114 1.0263 155.2  m  16?   1.89 320.1    9 206  44  96
   2024 07 23 01:10  18 38 06.93    -34 04 27.3   0.0114 1.0263 155.2  m  16?   1.89 322.5    8 208  44  96
   2024 07 23 01:20  18 38 06.03    -34 04 12.1   0.0114 1.0263 155.2  m  16?   1.89 325.1    7 210  44  96
   2024 07 23 01:30  18 38 05.20    -34 03 56.3   0.0114 1.0263 155.2  m  16?   1.89 327.7    6 212  44  96
   2024 07 23 01:40  18 38 04.42    -34 03 40.1   0.0114 1.0263 155.2  m  16?   1.89 330.3    5 214  44  96
   2024 07 23 01:50  18 38 03.70    -34 03 23.4   0.0114 1.0263 155.2  m  16?   1.89 333.1    4 216  44  96
   2024 07 23 02:00  18 38 03.05    -34 03 06.2   0.0114 1.0263 155.2  m  16?   1.90 335.8    3 217  44  96
   2024 07 23 02:10  18 38 02.46    -34 02 48.7   0.0114 1.0263 155.2  m  16?   1.90 338.7    1 219  44  96
   2024 07 23 02:20  18 38 01.94    -34 02 30.7   0.0114 1.0263 155.2  m  16?   1.91 341.5    0 221  44  96
   2024 07 23 02:30  18 38 01.50    -34 02 12.4   0.0114 1.0263 155.2  m  16?   1.92 344.4    0 222  44  96
   ................
   2024 07 23 19:50  18 40 31.81    -33 51 10.0   0.0114 1.0262 155.1 C   16?   0.91 250.8    4 144  55  91
   2024 07 23 20:00  18 40 31.08    -33 51 12.7   0.0114 1.0262 155.1 C   16?   0.97 254.8    5 145  55  91
   2024 07 23 20:10  18 40 30.30    -33 51 15.0   0.0114 1.0262 155.1 C   16?   1.03 258.4    6 147  55  91
   2024 07 23 20:20  18 40 29.46    -33 51 16.8   0.0114 1.0262 155.1 N   16?   1.09 261.6    7 149  55  91
   2024 07 23 20:30  18 40 28.56    -33 51 18.1   0.0114 1.0262 155.1 N   16?   1.15 264.6    8 151  55  91
   2024 07 23 20:40  18 40 27.61    -33 51 18.9   0.0114 1.0262 155.1 N   16?   1.21 267.3    9 153  55  91
   2024 07 23 20:50  18 40 26.62    -33 51 19.2   0.0114 1.0262 155.1 A   16?   1.27 269.8   10 155  56  91
   2024 07 23 21:00  18 40 25.58    -33 51 18.9   0.0114 1.0262 155.1 A   16?   1.32 272.2   11 157  56  91
   2024 07 23 21:10  18 40 24.50    -33 51 18.0   0.0114 1.0262 155.0 A   16?   1.37 274.5   11 159  56  91
   2024 07 23 21:20  18 40 23.39    -33 51 16.6   0.0114 1.0262 155.0 Am  16?   1.42 276.7   12 161  56  91
   2024 07 23 21:30  18 40 22.24    -33 51 14.6   0.0114 1.0262 155.0 Am  16?   1.47 278.7   13 163  56  91
   2024 07 23 21:40  18 40 21.06    -33 51 12.0   0.0114 1.0262 155.0  m  16?   1.51 280.8   13 165  56  91
   2024 07 23 21:50  18 40 19.85    -33 51 08.8   0.0114 1.0262 155.0  m  16?   1.56 282.7   14 167  56  91
   2024 07 23 22:00  18 40 18.62    -33 51 05.0   0.0114 1.0262 155.0  m  16?   1.60 284.7   14 169  56  91
   2024 07 23 22:10  18 40 17.38    -33 51 00.6   0.0114 1.0262 155.0  m  16?   1.63 286.6   14 171  56  91
   2024 07 23 22:20  18 40 16.11    -33 50 55.6   0.0114 1.0262 155.0  m  16?   1.67 288.4   15 174  56  91
   2024 07 23 22:30  18 40 14.84    -33 50 50.0   0.0114 1.0262 155.0  m  16?   1.70 290.3   15 176  57  91
   2024 07 23 22:40  18 40 13.57    -33 50 43.7   0.0114 1.0262 155.0  m  16?   1.73 292.2   15 178  57  91
   2024 07 23 22:50  18 40 12.28    -33 50 36.8   0.0114 1.0262 155.0  t  16?   1.75 294.1   15 180  57  91
   2024 07 23 23:00  18 40 11.00    -33 50 29.3   0.0114 1.0262 154.9  m  16?   1.77 296.0   15 182  57  91
   2024 07 23 23:10  18 40 09.73    -33 50 21.2   0.0114 1.0262 154.9  m  16?   1.79 297.9   15 184  57  91
   2024 07 23 23:20  18 40 08.47    -33 50 12.4   0.0114 1.0262 154.9  m  16?   1.81 299.8   14 187  57  91
   2024 07 23 23:30  18 40 07.21    -33 50 03.0   0.0114 1.0262 154.9  m  16?   1.83 301.8   14 189  57  91
   2024 07 23 23:40  18 40 05.98    -33 49 53.1   0.0114 1.0262 154.9  m  16?   1.84 303.8   14 191  57  90
   2024 07 23 23:50  18 40 04.76    -33 49 42.5   0.0114 1.0262 154.9  m  16?   1.85 305.8   13 193  57  90
   2024 07 24 00:00  18 40 03.57    -33 49 31.3   0.0114 1.0262 154.9  m  16?   1.86 307.9   13 195  57  90
   2024 07 24 00:10  18 40 02.41    -33 49 19.5   0.0114 1.0262 154.9  m  16?   1.87 310.0   12 197  57  90
   2024 07 24 00:20  18 40 01.28    -33 49 07.1   0.0114 1.0262 154.9  m  16?   1.88 312.2   12 199  57  90
   2024 07 24 00:30  18 40 00.19    -33 48 54.2   0.0114 1.0262 154.9  m  16?   1.88 314.4   11 201  58  90
   2024 07 24 00:40  18 39 59.13    -33 48 40.7   0.0114 1.0262 154.9  m  16?   1.89 316.7   10 203  58  90
   2024 07 24 00:50  18 39 58.12    -33 48 26.6   0.0114 1.0262 154.9  m  16?   1.89 319.1   10 205  58  90
   2024 07 24 01:00  18 39 57.16    -33 48 12.0   0.0114 1.0262 154.8  m  16?   1.89 321.5    9 207  58  90
   2024 07 24 01:10  18 39 56.24    -33 47 56.9   0.0114 1.0262 154.8  m  16?   1.89 324.0    8 209  58  90
   2024 07 24 01:20  18 39 55.38    -33 47 41.3   0.0114 1.0262 154.8  m  16?   1.90 326.5    7 211  58  90
   2024 07 24 01:30  18 39 54.57    -33 47 25.2   0.0114 1.0262 154.8  m  16?   1.90 329.1    6 213  58  90
   2024 07 24 01:40  18 39 53.83    -33 47 08.7   0.0114 1.0262 154.8  m  16?   1.90 331.7    5 214  58  90
   2024 07 24 01:50  18 39 53.14    -33 46 51.6   0.0114 1.0262 154.8  m  16?   1.91 334.5    4 216  58  90
   2024 07 24 02:00  18 39 52.52    -33 46 34.2   0.0114 1.0262 154.8  m  16?   1.91 337.2    3 218  58  90
   2024 07 24 02:10  18 39 51.97    -33 46 16.4   0.0114 1.0262 154.8  m  16?   1.92 340.0    1 220  58  90
   2024 07 24 02:20  18 39 51.48    -33 45 58.1   0.0114 1.0261 154.8  m  16?   1.93 342.9    0 221  58  90
   ................
   2024 07 24 19:50  18 42 23.04    -33 34 13.4   0.0114 1.0260 154.7 C   16?   0.90 253.2    5 144  69  84
   2024 07 24 20:00  18 42 22.32    -33 34 15.8   0.0114 1.0260 154.7 C   16?   0.96 257.1    6 146  69  84
   2024 07 24 20:10  18 42 21.54    -33 34 17.6   0.0114 1.0260 154.7 N   16?   1.02 260.6    7 148  69  84
   2024 07 24 20:20  18 42 20.70    -33 34 19.0   0.0114 1.0260 154.7 N   16?   1.09 263.7    8 149  69  84
   2024 07 24 20:30  18 42 19.81    -33 34 19.9   0.0114 1.0260 154.7 N   16?   1.15 266.6    9 151  69  84
   2024 07 24 20:40  18 42 18.87    -33 34 20.3   0.0114 1.0260 154.7 N   16?   1.21 269.3   10 153  70  84
   2024 07 24 20:50  18 42 17.88    -33 34 20.1   0.0114 1.0260 154.7 A   16?   1.26 271.7   10 155  70  84
   2024 07 24 21:00  18 42 16.85    -33 34 19.4   0.0114 1.0260 154.7 A   16?   1.32 274.0   11 157  70  83
   2024 07 24 21:10  18 42 15.78    -33 34 18.2   0.0114 1.0260 154.7 A   16?   1.37 276.3   12 159  70  83
   2024 07 24 21:20  18 42 14.67    -33 34 16.3   0.0114 1.0260 154.6 A   16?   1.42 278.4   12 161  70  83
   2024 07 24 21:30  18 42 13.53    -33 34 13.9   0.0114 1.0260 154.6 A   16?   1.47 280.4   13 163  70  83
   2024 07 24 21:40  18 42 12.36    -33 34 10.9   0.0114 1.0260 154.6     16?   1.51 282.4   14 165  70  83
   2024 07 24 21:50  18 42 11.17    -33 34 07.3   0.0114 1.0260 154.6  m  16?   1.56 284.3   14 168  70  83
   2024 07 24 22:00  18 42 09.95    -33 34 03.1   0.0114 1.0260 154.6  m  16?   1.60 286.2   14 170  70  83
   2024 07 24 22:10  18 42 08.72    -33 33 58.3   0.0114 1.0260 154.6  m  16?   1.63 288.1   15 172  70  83
   2024 07 24 22:20  18 42 07.47    -33 33 52.9   0.0114 1.0260 154.6  m  16?   1.67 289.9   15 174  71  83
   2024 07 24 22:30  18 42 06.22    -33 33 46.8   0.0114 1.0260 154.6  m  16?   1.70 291.8   15 176  71  83
   2024 07 24 22:40  18 42 04.96    -33 33 40.2   0.0114 1.0260 154.6  m  16?   1.73 293.6   15 178  71  83
   2024 07 24 22:50  18 42 03.69    -33 33 32.9   0.0114 1.0260 154.6  t  16?   1.75 295.5   15 180  71  83
   2024 07 24 23:00  18 42 02.43    -33 33 25.0   0.0114 1.0260 154.6  m  16?   1.78 297.4   15 183  71  83
   2024 07 24 23:10  18 42 01.17    -33 33 16.4   0.0114 1.0260 154.5  m  16?   1.80 299.2   15 185  71  83
   2024 07 24 23:20  18 41 59.93    -33 33 07.3   0.0114 1.0260 154.5  m  16?   1.82 301.2   15 187  71  83
   2024 07 24 23:30  18 41 58.69    -33 32 57.5   0.0114 1.0260 154.5  m  16?   1.83 303.1   14 189  71  83
   2024 07 24 23:40  18 41 57.48    -33 32 47.2   0.0114 1.0260 154.5  m  16?   1.85 305.1   14 191  71  83
   2024 07 24 23:50  18 41 56.28    -33 32 36.2   0.0114 1.0260 154.5  m  16?   1.86 307.1   14 193  71  83
   2024 07 25 00:00  18 41 55.12    -33 32 24.6   0.0114 1.0260 154.5  m  16?   1.87 309.2   13 195  72  83
   2024 07 25 00:10  18 41 53.98    -33 32 12.4   0.0114 1.0260 154.5  m  16?   1.88 311.4   13 198  72  82
   2024 07 25 00:20  18 41 52.87    -33 31 59.7   0.0114 1.0260 154.5  m  16?   1.88 313.5   12 200  72  82
   2024 07 25 00:30  18 41 51.80    -33 31 46.4   0.0114 1.0260 154.5  m  16?   1.89 315.8   11 202  72  82
   2024 07 25 00:40  18 41 50.77    -33 31 32.5   0.0114 1.0260 154.5  m  16?   1.89 318.1   11 204  72  82
   2024 07 25 00:50  18 41 49.79    -33 31 18.1   0.0114 1.0260 154.5  m  16?   1.90 320.4   10 206  72  82
   2024 07 25 01:00  18 41 48.85    -33 31 03.2   0.0114 1.0260 154.5  m  16?   1.90 322.8    9 208  72  82
   2024 07 25 01:10  18 41 47.96    -33 30 47.8   0.0114 1.0260 154.5  m  16?   1.90 325.3    8 209  72  82
   2024 07 25 01:20  18 41 47.13    -33 30 31.8   0.0114 1.0260 154.4  m  16?   1.91 327.8    7 211  72  82
   2024 07 25 01:30  18 41 46.35    -33 30 15.4   0.0114 1.0260 154.4  m  16?   1.91 330.4    6 213  72  82
   2024 07 25 01:40  18 41 45.63    -33 29 58.5   0.0114 1.0260 154.4  m  16?   1.92 333.1    5 215  72  82
   2024 07 25 01:50  18 41 44.97    -33 29 41.2   0.0114 1.0260 154.4  m  16?   1.92 335.8    4 217  72  82
   2024 07 25 02:00  18 41 44.38    -33 29 23.4   0.0114 1.0260 154.4  m  16?   1.93 338.6    3 218  72  82
   2024 07 25 02:10  18 41 43.86    -33 29 05.3   0.0114 1.0260 154.4  m  16?   1.93 341.4    1 220  73  82
   2024 07 25 02:20  18 41 43.40    -33 28 46.7   0.0114 1.0260 154.4  m  16?   1.94 344.2    0 222  73  82
   ................
   2024 07 25 19:50  18 44 16.52    -33 16 37.4   0.0113 1.0259 154.3 C   16?   0.89 255.7    5 144  83  75
   2024 07 25 20:00  18 44 15.81    -33 16 39.4   0.0113 1.0259 154.3 C   16?   0.95 259.5    6 146  83  75
   2024 07 25 20:10  18 44 15.03    -33 16 40.8   0.0113 1.0259 154.3 N   16?   1.02 262.9    7 148  83  74
   2024 07 25 20:20  18 44 14.20    -33 16 41.8   0.0113 1.0259 154.3 N   16?   1.08 265.9    8 150  83  74
   2024 07 25 20:30  18 44 13.31    -33 16 42.3   0.0113 1.0259 154.3 N   16?   1.14 268.7    9 152  83  74
   2024 07 25 20:40  18 44 12.37    -33 16 42.3   0.0113 1.0259 154.3 N   16?   1.20 271.2   10 154  84  74
   2024 07 25 20:50  18 44 11.39    -33 16 41.7   0.0113 1.0259 154.3 A   16?   1.26 273.6   11 155  84  74
   2024 07 25 21:00  18 44 10.37    -33 16 40.6   0.0113 1.0259 154.3 A   16?   1.32 275.9   12 157  84  74
   2024 07 25 21:10  18 44 09.31    -33 16 38.9   0.0113 1.0259 154.3 A   16?   1.37 278.0   12 160  84  74
   2024 07 25 21:20  18 44 08.21    -33 16 36.6   0.0113 1.0259 154.3 A   16?   1.42 280.1   13 162  84  74
   2024 07 25 21:30  18 44 07.08    -33 16 33.8   0.0113 1.0259 154.3 A   16?   1.47 282.0   13 164  84  74
   2024 07 25 21:40  18 44 05.92    -33 16 30.4   0.0113 1.0259 154.2     16?   1.52 284.0   14 166  84  74
   2024 07 25 21:50  18 44 04.74    -33 16 26.4   0.0113 1.0259 154.2     16?   1.56 285.9   14 168  84  74
   2024 07 25 22:00  18 44 03.53    -33 16 21.8   0.0113 1.0259 154.2     16?   1.60 287.7   15 170  84  74
   2024 07 25 22:10  18 44 02.31    -33 16 16.5   0.0113 1.0259 154.2  m  16?   1.64 289.5   15 172  85  74
   2024 07 25 22:20  18 44 01.08    -33 16 10.7   0.0113 1.0259 154.2  m  16?   1.67 291.4   15 174  85  73
   2024 07 25 22:30  18 43 59.84    -33 16 04.2   0.0113 1.0259 154.2  m  16?   1.70 293.2   15 177  85  73
   2024 07 25 22:40  18 43 58.59    -33 15 57.2   0.0113 1.0259 154.2  m  16?   1.73 295.0   15 179  85  73
   2024 07 25 22:50  18 43 57.34    -33 15 49.5   0.0113 1.0259 154.2  t  16?   1.76 296.9   15 181  85  73
   2024 07 25 23:00  18 43 56.09    -33 15 41.2   0.0113 1.0259 154.2  m  16?   1.78 298.7   15 183  85  73
   2024 07 25 23:10  18 43 54.85    -33 15 32.2   0.0113 1.0259 154.2  m  16?   1.80 300.6   15 185  85  73
   2024 07 25 23:20  18 43 53.62    -33 15 22.7   0.0113 1.0259 154.2  m  16?   1.82 302.5   15 187  85  73
   2024 07 25 23:30  18 43 52.41    -33 15 12.5   0.0113 1.0259 154.1  m  16?   1.84 304.5   15 190  85  73
   2024 07 25 23:40  18 43 51.22    -33 15 01.8   0.0113 1.0259 154.1  m  16?   1.85 306.4   14 192  85  73
   2024 07 25 23:50  18 43 50.04    -33 14 50.4   0.0113 1.0259 154.1  m  16?   1.86 308.5   14 194  86  73
   2024 07 26 00:00  18 43 48.90    -33 14 38.5   0.0113 1.0259 154.1  m  16?   1.88 310.5   13 196  86  73
   2024 07 26 00:10  18 43 47.78    -33 14 25.9   0.0113 1.0259 154.1  m  16?   1.88 312.7   13 198  86  73
   2024 07 26 00:20  18 43 46.70    -33 14 12.8   0.0113 1.0259 154.1  m  16?   1.89 314.8   12 200  86  73
   2024 07 26 00:30  18 43 45.65    -33 13 59.2   0.0113 1.0259 154.1  m  16?   1.90 317.1   11 202  86  73
   2024 07 26 00:40  18 43 44.64    -33 13 44.9   0.0113 1.0259 154.1  m  16?   1.90 319.4   11 204  86  73
   2024 07 26 00:50  18 43 43.68    -33 13 30.2   0.0113 1.0258 154.1  m  16?   1.91 321.7   10 206  86  72
   2024 07 26 01:00  18 43 42.77    -33 13 14.9   0.0113 1.0258 154.1  m  16?   1.91 324.1    9 208  86  72
   2024 07 26 01:10  18 43 41.91    -33 12 59.1   0.0113 1.0258 154.1  m  16?   1.92 326.6    8 210  86  72
   2024 07 26 01:20  18 43 41.10    -33 12 42.9   0.0113 1.0258 154.1  m  16?   1.92 329.1    7 212  86  72
   2024 07 26 01:30  18 43 40.35    -33 12 26.1   0.0113 1.0258 154.1  m  16?   1.92 331.7    6 214  86  72
   2024 07 26 01:40  18 43 39.66    -33 12 08.9   0.0113 1.0258 154.0  m  16?   1.93 334.4    5 215  86  72
   2024 07 26 01:50  18 43 39.03    -33 11 51.2   0.0113 1.0258 154.0  m  16?   1.94 337.1    4 217  87  72
   2024 07 26 02:00  18 43 38.47    -33 11 33.2   0.0113 1.0258 154.0  m  16?   1.94 339.8    3 219  87  72
   2024 07 26 02:10  18 43 37.97    -33 11 14.7   0.0113 1.0258 154.0  m  16?   1.95 342.6    1 221  87  72
   2024 07 26 02:20  18 43 37.55    -33 10 55.9   0.0113 1.0258 154.0  m  16?   1.96 345.5    0 222  87  72
   ................
   2024 07 26 19:50  18 46 12.21    -32 58 21.3   0.0113 1.0257 154.0 C   16?   0.88 258.4    6 144  97  64
   2024 07 26 20:00  18 46 11.50    -32 58 22.8   0.0113 1.0257 154.0 C   16?   0.95 262.0    7 146  97  64
   2024 07 26 20:10  18 46 10.72    -32 58 23.8   0.0113 1.0257 154.0 N   16?   1.01 265.2    8 148  97  64
   2024 07 26 20:20  18 46 09.90    -32 58 24.4   0.0113 1.0257 153.9 N   16?   1.08 268.2    9 150  97  64
   2024 07 26 20:30  18 46 09.02    -32 58 24.4   0.0113 1.0257 153.9 N   16?   1.14 270.8   10 152  97  64
   2024 07 26 20:40  18 46 08.09    -32 58 24.0   0.0113 1.0257 153.9 N   16?   1.20 273.3   10 154  97  64
   2024 07 26 20:50  18 46 07.11    -32 58 23.0   0.0113 1.0257 153.9 A   16?   1.26 275.6   11 156  97  63
   2024 07 26 21:00  18 46 06.10    -32 58 21.4   0.0113 1.0257 153.9 A   16?   1.32 277.7   12 158  98  63
   2024 07 26 21:10  18 46 05.04    -32 58 19.3   0.0113 1.0257 153.9 A   16?   1.37 279.8   13 160  98  63
   2024 07 26 21:20  18 46 03.95    -32 58 16.6   0.0113 1.0257 153.9 A   16?   1.42 281.8   13 162  98  63
   2024 07 26 21:30  18 46 02.83    -32 58 13.4   0.0113 1.0257 153.9     16?   1.47 283.7   14 164  98  63
   2024 07 26 21:40  18 46 01.68    -32 58 09.6   0.0113 1.0257 153.9     16?   1.52 285.6   14 166  98  63
   2024 07 26 21:50  18 46 00.51    -32 58 05.1   0.0113 1.0257 153.9     16?   1.56 287.4   15 168  98  63
   2024 07 26 22:00  18 45 59.32    -32 58 00.1   0.0113 1.0257 153.8     16?   1.60 289.2   15 170  98  63
   2024 07 26 22:10  18 45 58.11    -32 57 54.5   0.0113 1.0257 153.8     16?   1.64 291.0   15 173  98  63
   2024 07 26 22:20  18 45 56.89    -32 57 48.2   0.0113 1.0257 153.8     16?   1.68 292.8   16 175  99  63
   2024 07 26 22:30  18 45 55.66    -32 57 41.3   0.0113 1.0257 153.8  m  16?   1.71 294.6   16 177  99  63
   2024 07 26 22:40  18 45 54.43    -32 57 33.9   0.0113 1.0257 153.8  m  16?   1.74 296.4   16 179  99  63
   2024 07 26 22:50  18 45 53.20    -32 57 25.8   0.0113 1.0257 153.8  t  16?   1.76 298.3   16 181  99  62
   2024 07 26 23:00  18 45 51.97    -32 57 17.0   0.0113 1.0257 153.8  m  16?   1.79 300.1   16 184  99  62
   2024 07 26 23:10  18 45 50.75    -32 57 07.7   0.0113 1.0257 153.8  m  16?   1.81 302.0   15 186  99  62
   2024 07 26 23:20  18 45 49.54    -32 56 57.8   0.0113 1.0257 153.8  m  16?   1.83 303.9   15 188  99  62
   2024 07 26 23:30  18 45 48.34    -32 56 47.2   0.0113 1.0257 153.8  m  16?   1.85 305.8   15 190  99  62
   2024 07 26 23:40  18 45 47.17    -32 56 36.1   0.0113 1.0257 153.8  m  16?   1.86 307.8   14 192  99  62
   2024 07 26 23:50  18 45 46.01    -32 56 24.3   0.0113 1.0257 153.8  m  16?   1.87 309.8   14 194  99  62
   2024 07 27 00:00  18 45 44.89    -32 56 12.0   0.0113 1.0257 153.7  m  16?   1.88 311.9   13 196 100  62
   2024 07 27 00:10  18 45 43.79    -32 55 59.1   0.0113 1.0257 153.7  m  16?   1.89 314.0   13 199 100  62
   2024 07 27 00:20  18 45 42.73    -32 55 45.6   0.0113 1.0257 153.7  m  16?   1.90 316.1   12 201 100  62
   2024 07 27 00:30  18 45 41.71    -32 55 31.6   0.0113 1.0257 153.7  m  16?   1.91 318.4   12 203 100  62
   2024 07 27 00:40  18 45 40.73    -32 55 17.0   0.0113 1.0257 153.7  m  16?   1.91 320.7   11 205 100  62
   2024 07 27 00:50  18 45 39.79    -32 55 01.9   0.0113 1.0257 153.7  m  16?   1.92 323.0   10 207 100  62
   2024 07 27 01:00  18 45 38.91    -32 54 46.3   0.0113 1.0257 153.7  m  16?   1.92 325.4    9 209 100  61
   2024 07 27 01:10  18 45 38.07    -32 54 30.2   0.0113 1.0257 153.7  m  16?   1.93 327.9    8 210 100  61
   2024 07 27 01:20  18 45 37.29    -32 54 13.6   0.0113 1.0257 153.7  m  16?   1.93 330.4    7 212 100  61
   2024 07 27 01:30  18 45 36.56    -32 53 56.5   0.0113 1.0257 153.7  m  16?   1.94 333.0    6 214 100  61
   2024 07 27 01:40  18 45 35.90    -32 53 38.9   0.0113 1.0257 153.7  m  16?   1.95 335.6    5 216 100  61
   2024 07 27 01:50  18 45 35.30    -32 53 21.0   0.0113 1.0257 153.7  m  16?   1.95 338.3    4 218 101  61
   2024 07 27 02:00  18 45 34.77    -32 53 02.6   0.0113 1.0257 153.7  m  16?   1.96 341.1    3 220 101  61
   2024 07 27 02:10  18 45 34.30    -32 52 43.8   0.0113 1.0257 153.7  m  16?   1.97 343.9    1 221 101  61
   2024 07 27 02:20  18 45 33.91    -32 52 24.7   0.0113 1.0257 153.6  m  16?   1.98 346.7    0 223 101  61
   ................
   2024 07 27 19:50  18 48 10.21    -32 39 24.0   0.0113 1.0256 153.6 C   16?   0.87 261.1    6 145 110  53
   2024 07 27 20:00  18 48 09.50    -32 39 25.1   0.0113 1.0256 153.6 C   16?   0.94 264.6    7 146 110  53
   2024 07 27 20:10  18 48 08.74    -32 39 25.7   0.0113 1.0256 153.6 N   16?   1.00 267.7    8 148 111  53
   2024 07 27 20:20  18 48 07.91    -32 39 25.8   0.0113 1.0256 153.6 N   16?   1.07 270.4    9 150 111  53
   2024 07 27 20:30  18 48 07.04    -32 39 25.4   0.0113 1.0256 153.6 N   16?   1.14 273.0   10 152 111  52
   2024 07 27 20:40  18 48 06.12    -32 39 24.5   0.0113 1.0255 153.6 N   16?   1.20 275.3   11 154 111  52
   2024 07 27 20:50  18 48 05.15    -32 39 23.1   0.0113 1.0255 153.5 A   16?   1.26 277.5   12 156 111  52
   2024 07 27 21:00  18 48 04.15    -32 39 21.1   0.0113 1.0255 153.5 A   16?   1.32 279.6   12 158 111  52
   2024 07 27 21:10  18 48 03.10    -32 39 18.6   0.0112 1.0255 153.5 A   16?   1.37 281.6   13 160 111  52
   2024 07 27 21:20  18 48 02.02    -32 39 15.5   0.0112 1.0255 153.5 A   16?   1.42 283.5   14 162 111  52
   2024 07 27 21:30  18 48 00.91    -32 39 11.8   0.0112 1.0255 153.5     16?   1.47 285.4   14 164 112  52
   2024 07 27 21:40  18 47 59.78    -32 39 07.6   0.0112 1.0255 153.5     16?   1.52 287.2   15 167 112  52
   2024 07 27 21:50  18 47 58.62    -32 39 02.7   0.0112 1.0255 153.5     16?   1.56 289.0   15 169 112  52
   2024 07 27 22:00  18 47 57.44    -32 38 57.3   0.0112 1.0255 153.5     16?   1.61 290.8   15 171 112  52
   2024 07 27 22:10  18 47 56.25    -32 38 51.2   0.0112 1.0255 153.5     16?   1.64 292.6   16 173 112  52
   2024 07 27 22:20  18 47 55.04    -32 38 44.5   0.0112 1.0255 153.5     16?   1.68 294.3   16 175 112  51
   2024 07 27 22:30  18 47 53.83    -32 38 37.3   0.0112 1.0255 153.4     16?   1.71 296.1   16 177 112  51
   2024 07 27 22:40  18 47 52.61    -32 38 29.4   0.0112 1.0255 153.4  t  16?   1.74 297.9   16 180 112  51
   2024 07 27 22:50  18 47 51.40    -32 38 20.9   0.0112 1.0255 153.4     16?   1.77 299.7   16 182 113  51
   2024 07 27 23:00  18 47 50.19    -32 38 11.7   0.0112 1.0255 153.4  m  16?   1.79 301.5   16 184 113  51
   2024 07 27 23:10  18 47 48.98    -32 38 02.0   0.0112 1.0255 153.4  m  16?   1.81 303.3   16 186 113  51
   2024 07 27 23:20  18 47 47.79    -32 37 51.7   0.0112 1.0255 153.4  m  16?   1.83 305.2   15 188 113  51
   2024 07 27 23:30  18 47 46.62    -32 37 40.7   0.0112 1.0255 153.4  m  16?   1.85 307.2   15 191 113  51
   2024 07 27 23:40  18 47 45.46    -32 37 29.2   0.0112 1.0255 153.4  m  16?   1.87 309.1   15 193 113  51
   2024 07 27 23:50  18 47 44.33    -32 37 17.1   0.0112 1.0255 153.4  m  16?   1.88 311.1   14 195 113  51
   2024 07 28 00:00  18 47 43.23    -32 37 04.4   0.0112 1.0255 153.4  m  16?   1.89 313.2   14 197 113  51
   

INTEGRAL (JPL-ID: -198)

   Date (UTC) HH:MM   RA              Dec         delta   r     elong SM  mag  '/hr    PA   alt  az moo ill
   ---- -- -- -----  -------------   -----------  ------ ------ ----- --  --- ------ ------ --- --- --- ---
   2024 07 14 00:00  02 27 45.34    +79 04 23.0   102166 1.0162  66.1     17? 147.01  15.2   36  12 110  50
   2024 07 14 00:10  02 29 57.52    +79 27 54.5   102948 1.0162  66.1     17? 144.84  15.0   37  12 110  50
   2024 07 14 00:20  02 32 11.31    +79 51 06.0   103722 1.0162  66.1     17? 142.70  14.9   37  12 110  50
   2024 07 14 00:30  02 34 26.84    +80 13 57.7   104488 1.0162  66.0     17? 140.57  14.8   38  11 109  50
   2024 07 14 00:40  02 36 44.25    +80 36 29.6   105246 1.0162  66.0     17? 138.45  14.7   38  11 109  50
   2024 07 14 00:50  02 39 03.69    +80 58 42.0   105997 1.0162  66.0     18? 136.35  14.6   38  11 108  50
   2024 07 14 01:00  02 41 25.35    +81 20 34.7   106740 1.0162  66.0     18? 134.26  14.5   39  10 108  50
   2024 07 14 01:10  02 43 49.45    +81 42 08.0   107475 1.0162  66.0     18? 132.19  14.4   39  10 108  50
   2024 07 14 01:20  02 46 16.24    +82 03 21.8   108204 1.0162  66.0     18? 130.12  14.3   39  10 107  50
   2024 07 14 01:30  02 48 46.01    +82 24 16.1   108925 1.0162  66.0     18? 128.06  14.2   40   9 107  50
   2024 07 14 01:40  02 51 19.09    +82 44 51.0   109639 1.0162  66.1     18? 126.01  14.2   40   9 107  50
   2024 07 14 01:50  02 53 55.90    +83 05 06.5   110345 1.0162  66.1     18? 123.97  14.2   40   9 107  51
   2024 07 14 02:00  02 56 36.89    +83 25 02.4   111045 1.0162  66.1     18? 121.93  14.1   40   8 106  51
   2024 07 14 02:10  02 59 22.62    +83 44 38.8   111738 1.0162  66.1     18? 119.90  14.1   41   8 106  51
   2024 07 14 02:20  03 02 13.75    +84 03 55.7   112424 1.0162  66.2     18? 117.87  14.2   41   7 106  51
   2024 07 14 02:30  03 05 11.07    +84 22 52.8   113104 1.0162  66.2     18? 115.85  14.2   41   7 105  51
   2024 07 14 02:40  03 08 15.50    +84 41 30.3   113776 1.0162  66.3     18? 113.83  14.4   41   6 105  51
   2024 07 14 02:50  03 11 28.18    +84 59 47.8   114442 1.0162  66.3     18? 111.81  14.5   41   6 105  51
   2024 07 14 03:00  03 14 50.49    +85 17 45.5   115101 1.0162  66.4 A   18? 109.80  14.7   41   6 105  51
   2024 07 14 03:10  03 18 24.12    +85 35 22.9   115753 1.0162  66.4 A   18? 107.80  15.0   41   5 104  51
   2024 07 14 03:20  03 22 11.15    +85 52 40.1   116399 1.0162  66.5 A   18? 105.79  15.3   41   5 104  51
   2024 07 14 03:30  03 26 14.19    +86 09 36.7   117038 1.0162  66.5 A   18? 103.79  15.7   41   4 104  51
   2024 07 14 03:40  03 30 36.54    +86 26 12.5   117670 1.0162  66.6 Ae  18? 101.80  16.2   41   4 104  51
   2024 07 14 03:50  03 35 22.39    +86 42 27.1   118295 1.0162  66.7 N   18?  99.81  16.9   41   4 103  51
   2024 07 14 04:00  03 40 37.21    +86 58 20.0   118914 1.0162  66.7 N   18?  97.82  17.7   41   3 103  52
   2024 07 14 04:10  03 46 28.16    +87 13 50.6   119527 1.0162  66.8 N   18?  95.83  18.7   41   3 103  52
   2024 07 14 04:20  03 53 04.88    +87 28 58.2   120132 1.0162  66.9 N   18?  93.85  19.9   41   3 103  52
   2024 07 14 04:30  04 00 40.48    +87 43 41.6   120731 1.0162  67.0 C   18?  91.87  21.5   41   2 102  52
   2024 07 14 04:40  04 09 33.27    +87 57 59.2   121323 1.0162  67.0 C   18?  89.90  23.5   41   2 102  52
   ................
   2024 07 14 20:00  12 39 59.26    +80 32 19.9   146892 1.0161  66.4 Cm  18?  69.91 192.1   47 350  95  58
   2024 07 14 20:10  12 39 01.47    +80 20 52.4   146923 1.0161  66.3 Cm  18?  70.65 191.1   47 350  95  58
   2024 07 14 20:20  12 38 09.25    +80 09 15.3   146949 1.0161  66.2 Nm  18?  71.36 190.1   47 349  95  58
   2024 07 14 20:30  12 37 22.49    +79 57 29.1   146973 1.0161  66.1 Nm  18?  72.05 189.0   47 348  95  58
   2024 07 14 20:40  12 36 41.04    +79 45 34.1   146993 1.0161  66.1 Nm  18?  72.70 188.0   46 348  95  58
   2024 07 14 20:50  12 36 04.75    +79 33 31.0   147009 1.0161  66.0 Nm  18?  73.33 187.0   46 347  95  58
   2024 07 14 21:00  12 35 33.49    +79 21 20.2   147022 1.0161  65.9 Am  18?  73.93 186.0   46 347  95  58
   2024 07 14 21:10  12 35 07.11    +79 09 02.3   147032 1.0161  65.9 Am  18?  74.50 185.1   45 346  94  58
   2024 07 14 21:20  12 34 45.45    +78 56 37.6   147038 1.0161  65.8 Am  18?  75.04 184.1   45 346  94  58
   2024 07 14 21:30  12 34 28.36    +78 44 06.7   147041 1.0161  65.8 Am  18?  75.56 183.1   45 345  94  58
   2024 07 14 21:40  12 34 15.69    +78 31 30.1   147040 1.0161  65.7 Am  18?  76.04 182.2   44 345  94  59
   2024 07 14 21:50  12 34 07.29    +78 18 48.3   147036 1.0161  65.7  m  18?  76.50 181.3   44 344  94  59
   2024 07 14 22:00  12 34 03.01    +78 06 01.8   147028 1.0161  65.6  m  18?  76.93 180.4   43 344  94  59
   2024 07 14 22:10  12 34 02.69    +77 53 11.1   147017 1.0161  65.6  m  18?  77.32 179.5   43 343  93  59
   2024 07 14 22:20  12 34 06.19    +77 40 16.6   147002 1.0161  65.6  m  18?  77.69 178.6   42 343  93  59
   2024 07 14 22:30  12 34 13.35    +77 27 18.8   146983 1.0161  65.5  m  18?  78.03 177.7   42 343  93  59
   2024 07 14 22:40  12 34 24.04    +77 14 18.2   146960 1.0161  65.5  m  18?  78.35 176.8   41 342  93  59
   2024 07 14 22:50  12 34 38.10    +77 01 15.2   146933 1.0161  65.5  m  18?  78.63 176.0   41 342  93  59
   2024 07 14 23:00  12 34 55.41    +76 48 10.4   146903 1.0161  65.4  m  18?  78.88 175.1   40 342  93  59
   2024 07 14 23:10  12 35 15.81    +76 35 04.2   146868 1.0161  65.4  m  18?  79.10 174.3   39 342  92  59
   2024 07 14 23:20  12 35 39.18    +76 21 56.9   146830 1.0161  65.4  m  18?  79.30 173.5   39 342  92  59
   2024 07 14 23:30  12 36 05.39    +76 08 49.2   146787 1.0161  65.4  m  18?  79.46 172.7   38 341  92  59
   2024 07 14 23:40  12 36 34.30    +75 55 41.3   146740 1.0161  65.4  m  18?  79.60 171.9   38 341  92  59
   2024 07 14 23:50  12 37 05.79    +75 42 33.7   146688 1.0161  65.4  m  18?  79.71 171.1   37 341  92  59
   2024 07 15 00:00  12 37 39.73    +75 29 26.8   146632 1.0161  65.4     18?  79.79 170.3   36 341  91  59
   2024 07 15 00:10  12 38 16.00    +75 16 21.1   146571 1.0161  65.4     18?  79.84 169.6   36 341  91  59
   2024 07 15 00:20  12 38 54.50    +75 03 16.9   146506 1.0161  65.4     18?  79.87 168.8   35 341  91  59
   2024 07 15 00:30  12 39 35.09    +74 50 14.6   146436 1.0161  65.4     18?  79.86 168.1   34 342  91  59
   2024 07 15 00:40  12 40 17.67    +74 37 14.6   146361 1.0161  65.4     18?  79.83 167.3   34 342  91  60
   2024 07 15 00:50  12 41 02.13    +74 24 17.3   146280 1.0161  65.4     18?  79.77 166.6   33 342  91  60
   2024 07 15 01:00  12 41 48.36    +74 11 23.0   146195 1.0161  65.5     18?  79.68 165.9   32 342  90  60
   2024 07 15 01:10  12 42 36.25    +73 58 32.0   146104 1.0161  65.5     18?  79.57 165.2   32 342  90  60
   2024 07 15 01:20  12 43 25.72    +73 45 44.8   146008 1.0161  65.5     18?  79.43 164.5   31 343  90  60
   2024 07 15 01:30  12 44 16.65    +73 33 01.6   145906 1.0161  65.5     18?  79.26 163.8   31 343  90  60
   2024 07 15 01:40  12 45 08.95    +73 20 22.8   145799 1.0161  65.6     18?  79.07 163.1   30 343  90  60
   2024 07 15 01:50  12 46 02.52    +73 07 48.6   145686 1.0161  65.6     18?  78.84 162.4   29 344  89  60
   2024 07 15 02:00  12 46 57.27    +72 55 19.3   145567 1.0161  65.7     18?  78.60 161.8   29 344  89  60
   2024 07 15 02:10  12 47 53.12    +72 42 55.3   145441 1.0161  65.7     18?  78.32 161.1   28 344  89  60
   2024 07 15 02:20  12 48 49.97    +72 30 36.9   145310 1.0161  65.8     18?  78.03 160.5   28 345  89  60
   2024 07 15 02:30  12 49 47.73    +72 18 24.2   145172 1.0161  65.8     18?  77.70 159.9   27 345  89  60
   2024 07 15 02:40  12 50 46.33    +72 06 17.5   145027 1.0161  65.9     18?  77.35 159.3   26 346  89  60
   2024 07 15 02:50  12 51 45.68    +71 54 17.1   144876 1.0161  65.9     18?  76.98 158.7   26 346  88  60
   2024 07 15 03:00  12 52 45.69    +71 42 23.1   144718 1.0161  66.0 A   18?  76.58 158.1   25 347  88  60
   2024 07 15 03:10  12 53 46.29    +71 30 35.9   144553 1.0161  66.1 A   18?  76.16 157.5   25 347  88  61
   2024 07 15 03:20  12 54 47.40    +71 18 55.6   144381 1.0161  66.1 A   18?  75.71 156.9   24 348  88  61
   2024 07 15 03:30  12 55 48.94    +71 07 22.4   144202 1.0161  66.2 A   18?  75.24 156.4   24 349  88  61
   2024 07 15 03:40  12 56 50.83    +70 55 56.5   144015 1.0161  66.3 A   18?  74.75 155.8   23 349  88  61
   2024 07 15 03:50  12 57 53.01    +70 44 38.0   143821 1.0161  66.4 N   18?  74.23 155.3   23 350  87  61
   2024 07 15 04:00  12 58 55.41    +70 33 27.2   143620 1.0161  66.4 N   18?  73.69 154.8   22 351  87  61
   2024 07 15 04:10  12 59 57.93    +70 22 24.0   143410 1.0161  66.5 N   18?  73.13 154.3   22 351  87  61
   2024 07 15 04:20  13 01 00.53    +70 11 28.8   143193 1.0161  66.6 N   18?  72.54 153.8   21 352  87  61
   2024 07 15 04:30  13 02 03.12    +70 00 41.5   142968 1.0161  66.7 C   18?  71.94 153.3   21 353  87  61
   2024 07 15 04:40  13 03 05.65    +69 50 02.3   142734 1.0161  66.8 C   18?  71.31 152.9   21 354  87  61
   ................
   2024 07 15 20:00  13 02 32.10    +52 35 09.5    84008 1.0162  67.3 Cm  17? 175.32 193.9   63 308  75  68
   2024 07 15 20:10  13 01 46.11    +52 06 21.0    83035 1.0162  67.2 Cm  17? 180.58 193.3   62 306  75  68
   2024 07 15 20:20  13 01 01.39    +51 36 35.8    82054 1.0162  67.2 Nm  17? 186.01 192.6   60 304  74  68
   2024 07 15 20:30  13 00 18.03    +51 05 52.2    81066 1.0162  67.1 Nm  17? 191.62 192.0   59 303  74  68
   2024 07 15 20:40  12 59 36.07    +50 34 08.3    80069 1.0162  67.1 Nm  17? 197.42 191.4   57 302  74  68
   2024 07 15 20:50  12 58 55.60    +50 01 22.2    79064 1.0162  67.0 Nm  17? 203.44 190.7   55 301  73  68
   2024 07 15 21:00  12 58 16.66    +49 27 31.7    78051 1.0162  67.0 Am  17? 209.68 190.1   53 301  73  68
   2024 07 15 21:10  12 57 39.31    +48 52 34.6    77028 1.0162  66.9 Am  17? 216.17 189.5   52 300  72  68
   2024 07 15 21:20  12 57 03.60    +48 16 28.3    75997 1.0162  66.9 Am  17? 222.92 188.9   50 299  72  68
   2024 07 15 21:30  12 56 29.56    +47 39 10.2    74955 1.0162  66.9 Am  17? 229.96 188.3   48 299  71  68
   2024 07 15 21:40  12 55 57.23    +47 00 37.4    73904 1.0162  66.9 Am  17? 237.31 187.7   46 299  71  68
   2024 07 15 21:50  12 55 26.65    +46 20 46.7    72841 1.0162  66.8  m  17? 245.01 187.1   44 299  70  68
   2024 07 15 22:00  12 54 57.84    +45 39 34.8    71768 1.0162  66.8  m  17? 253.08 186.5   42 299  70  68
   2024 07 15 22:10  12 54 30.82    +44 56 57.8    70684 1.0162  66.9  m  17? 261.56 186.0   40 299  69  68
   2024 07 15 22:20  12 54 05.61    +44 12 51.6    69587 1.0162  66.9  m  17? 270.49 185.4   38 299  69  68
   2024 07 15 22:30  12 53 42.21    +43 27 11.6    68478 1.0162  66.9  m  17? 279.91 184.9   36 299  68  68
   2024 07 15 22:40  12 53 20.64    +42 39 52.7    67356 1.0162  67.0  m  16? 289.88 184.4   34 299  68  68
   2024 07 15 22:50  12 53 00.89    +41 50 49.5    66220 1.0162  67.0  m  16? 300.46 183.9   32 299  67  68
   2024 07 15 23:00  12 52 42.96    +40 59 55.8    65069 1.0162  67.1  m  16? 311.70 183.4   30 299  66  68
   2024 07 15 23:10  12 52 26.83    +40 07 04.5    63904 1.0162  67.2  m  16? 323.69 183.0   28 299  66  68
   2024 07 15 23:20  12 52 12.50    +39 12 08.1    62724 1.0163  67.3  m  16? 336.50 182.6   26 300  65  68
   2024 07 15 23:30  12 51 59.94    +38 14 58.0    61526 1.0163  67.4  m  16? 350.24 182.1   23 300  64  68
   2024 07 15 23:40  12 51 49.13    +37 15 24.6    60312 1.0163  67.5  m  16? 365.01 181.8   21 301  63  68
   2024 07 15 23:50  12 51 40.03    +36 13 16.9    59080 1.0163  67.7  m  16? 380.95 181.4   19 301  63  69
   2024 07 16 00:00  12 51 32.60    +35 08 22.7    57830 1.0163  67.9  m  16? 398.20 181.1   17 301  62  69
   2024 07 16 00:10  12 51 26.80    +34 00 28.3    56560 1.0163  68.1  m  16? 416.94 180.8   14 302  61  69
   2024 07 16 00:20  12 51 22.58    +32 49 17.8    55269 1.0163  68.3  m  16? 437.37 180.5   12 302  60  69
   2024 07 16 00:30  12 51 19.87    +31 34 33.3    53958 1.0163  68.5     16? 459.73 180.2    9 303  59  69
   2024 07 16 00:40  12 51 18.61    +30 15 54.1    52624 1.0163  68.8     16? 484.30 180.0    7 303  58  69
   2024 07 16 00:50  12 51 18.71    +28 52 56.8    51268 1.0163  69.1     16? 511.41 179.8    4 304  57  69
   2024 07 16 01:00  12 51 20.08    +27 25 13.8    49887 1.0163  69.5     16? 541.47 179.6    2 304  56  69
   2024 07 16 01:10  12 51 22.61    +25 52 13.5    48481 1.0163  69.9     16? 574.95 179.5    0 305  54  69
   ................
   2024 07 16 20:00  02 20 41.16    +83 28 47.3   120148 1.0160  67.9 Cm  18? 102.37  32.9   34   2 120  76
   2024 07 16 20:10  02 26 10.73    +83 43 10.1   120726 1.0160  67.7 Cm  18? 102.38  33.7   34   2 119  76
   2024 07 16 20:20  02 32 00.03    +83 57 25.4   121296 1.0160  67.6 Nm  18? 102.35  34.5   35   2 119  77
   2024 07 16 20:30  02 38 11.03    +84 11 32.2   121859 1.0160  67.5 Nm  18? 102.31  35.4   35   2 119  77
   2024 07 16 20:40  02 44 46.00    +84 25 29.4   122415 1.0160  67.4 Nm  18? 102.24  36.5   35   2 119  77
   2024 07 16 20:50  02 51 47.46    +84 39 15.4   122964 1.0160  67.3 Nm  18? 102.14  37.6   35   2 119  77
   2024 07 16 21:00  02 59 18.29    +84 52 48.8   123507 1.0160  67.2 Am  18? 102.02  38.8   36   2 119  77
   2024 07 16 21:10  03 07 21.74    +85 06 07.9   124042 1.0160  67.1 Am  18? 101.87  40.2   36   2 118  77
   2024 07 16 21:20  03 16 01.43    +85 19 10.5   124572 1.0160  67.0 Am  18? 101.70  41.7   36   2 118  77
   2024 07 16 21:30  03 25 21.41    +85 31 54.4   125094 1.0160  66.9 Am  18? 101.49  43.4   36   1 118  77
   2024 07 16 21:40  03 35 26.17    +85 44 16.9   125611 1.0160  66.8 Am  18? 101.27  45.3   36   1 118  77
   2024 07 16 21:50  03 46 20.56    +85 56 14.9   126121 1.0160  66.7  m  18? 101.01  47.3   37   1 118  77
   2024 07 16 22:00  03 58 09.78    +86 07 44.9   126625 1.0160  66.7  m  18? 100.73  49.7   37   1 118  77
   2024 07 16 22:10  04 10 59.21    +86 18 42.9   127123 1.0160  66.6  m  18? 100.42  52.2   37   1 117  77
   2024 07 16 22:20  04 24 54.16    +86 29 04.5   127615 1.0160  66.5  m  18? 100.08  55.0   37   1 117  77
   2024 07 16 22:30  04 39 59.51    +86 38 44.5   128101 1.0160  66.4  m  18?  99.72  58.2   37   1 117  77
   2024 07 16 22:40  04 56 19.15    +86 47 37.3   128582 1.0160  66.4  m  18?  99.33  61.6   37   1 117  77
   2024 07 16 22:50  05 13 55.27    +86 55 36.9   129056 1.0160  66.3  m  18?  98.91  65.3   37   0 117  77
   2024 07 16 23:00  05 32 47.51    +87 02 37.0   129525 1.0160  66.3  m  18?  98.46  69.3   37   0 116  77
   2024 07 16 23:10  05 52 52.00    +87 08 31.4   129989 1.0160  66.2  m  18?  97.98  73.6   38   0 116  77
   2024 07 16 23:20  06 14 00.66    +87 13 14.3   130446 1.0160  66.2  m  18?  97.48  78.1   38   0 116  77
   2024 07 16 23:30  06 36 00.79    +87 16 40.8   130899 1.0160  66.2  m  18?  96.95  82.8   38   0 116  77
   2024 07 16 23:40  06 58 35.37    +87 18 47.4   131345 1.0160  66.1  t  18?  96.40  87.6   38 359 116  77
   2024 07 16 23:50  07 21 24.22    +87 19 32.4   131787 1.0160  66.1  e  18?  95.81  92.3   38 359 115  77
   2024 07 17 00:00  07 44 05.70    +87 18 56.3   132222 1.0160  66.1  m  18?  95.21  97.0   38 359 115  77
   2024 07 17 00:10  08 06 18.97    +87 17 01.7   132653 1.0160  66.0  m  18?  94.57 101.5   38 359 115  77
   2024 07 17 00:20  08 27 45.81    +87 13 53.1   133078 1.0160  66.0  m  18?  93.91 105.9   38 359 115  77
   2024 07 17 00:30  08 48 12.09    +87 09 36.3   133497 1.0160  66.0  m  18?  93.22 109.9   38 359 115  78
   2024 07 17 00:40  09 07 28.24    +87 04 18.1   133912 1.0160  66.0  m  18?  92.51 113.7   37 358 114  78
   2024 07 17 00:50  09 25 29.12    +86 58 05.6   134320 1.0160  66.0  m  18?  91.77 117.1   37 358 114  78
   2024 07 17 01:00  09 42 13.34    +86 51 06.0   134724 1.0160  66.0     18?  91.00 120.2   37 358 114  78
   2024 07 17 01:10  09 57 42.37    +86 43 26.2   135122 1.0160  66.0     18?  90.21 123.1   37 358 114  78
   2024 07 17 01:20  10 11 59.63    +86 35 12.4   135515 1.0160  66.0     18?  89.40 125.6   37 358 114  78
   2024 07 17 01:30  10 25 09.76    +86 26 30.3   135902 1.0160  66.0     18?  88.56 127.9   37 358 113  78
   2024 07 17 01:40  10 37 17.98    +86 17 24.9   136284 1.0160  66.1     18?  87.70 130.0   37 358 113  78
   2024 07 17 01:50  10 48 29.68    +86 08 00.7   136660 1.0160  66.1     18?  86.82 131.8   37 357 113  78
   2024 07 17 02:00  10 58 50.13    +85 58 21.5   137031 1.0160  66.1     18?  85.91 133.4   37 357 113  78
   2024 07 17 02:10  11 08 24.30    +85 48 30.6   137396 1.0160  66.1     18?  84.99 134.9   36 357 113  78
   2024 07 17 02:20  11 17 16.81    +85 38 30.9   137756 1.0160  66.2     18?  84.04 136.2   36 357 112  78
   2024 07 17 02:30  11 25 31.83    +85 28 25.0   138110 1.0160  66.2     18?  83.06 137.3   36 357 112  78
   2024 07 17 02:40  11 33 13.13    +85 18 14.9   138459 1.0160  66.2     18?  82.07 138.3   36 357 112  78
   2024 07 17 02:50  11 40 24.08    +85 08 02.7   138801 1.0160  66.3     18?  81.06 139.2   36 357 112  78
   2024 07 17 03:00  11 47 07.64    +84 57 49.9   139139 1.0160  66.3 A   18?  80.03 140.0   36 357 112  78
   2024 07 17 03:10  11 53 26.47    +84 47 37.9   139470 1.0160  66.4 A   18?  78.97 140.7   35 357 111  78
   2024 07 17 03:20  11 59 22.91    +84 37 28.0   139796 1.0160  66.4 A   18?  77.90 141.3   35 357 111  78
   2024 07 17 03:30  12 04 59.01    +84 27 21.3   140115 1.0160  66.5 A   18?  76.81 141.9   35 357 111  79
   2024 07 17 03:40  12 10 16.60    +84 17 18.8   140429 1.0160  66.5 A   18?  75.70 142.4   35 358 111  79
   2024 07 17 03:50  12 15 17.27    +84 07 21.3   140737 1.0160  66.6 N   18?  74.58 142.8   35 358 111  79
   2024 07 17 04:00  12 20 02.46    +83 57 29.5   141039 1.0160  66.7 N   18?  73.44 143.2   34 358 110  79
   2024 07 17 04:10  12 24 33.41    +83 47 44.2   141334 1.0160  66.7 N   18?  72.28 143.5   34 358 110  79
   2024 07 17 04:20  12 28 51.24    +83 38 05.9   141624 1.0160  66.8 N   18?  71.10 143.8   34 358 110  79
   2024 07 17 04:30  12 32 56.94    +83 28 35.1   141907 1.0160  66.9 C   18?  69.91 144.0   34 358 110  79
   2024 07 17 04:40  12 36 51.36    +83 19 12.3   142184 1.0160  66.9 C   18?  68.71 144.2   34 358 110  79
   2024 07 17 04:50  12 40 35.29    +83 09 58.0   142455 1.0159  67.0 C   18?  67.49 144.4   33 359 110  79
   ................
   2024 07 17 19:50  12 54 15.33    +73 50 38.7   141082 1.0159  65.9 Cm  18?  73.86 196.0   53 343 106  84
   2024 07 17 20:00  12 53 27.44    +73 38 43.1   140860 1.0159  65.9 Cm  18?  74.85 195.0   52 342 106  84
   2024 07 17 20:10  12 52 42.48    +73 26 34.7   140634 1.0159  65.8 Cm  18?  75.83 194.0   52 341 106  85
   2024 07 17 20:20  12 52 00.47    +73 14 13.8   140406 1.0159  65.7 Nm  18?  76.77 193.0   51 340 106  85
   2024 07 17 20:30  12 51 21.44    +73 01 40.7   140174 1.0159  65.6 Nm  18?  77.70 192.0   51 340 106  85
   2024 07 17 20:40  12 50 45.42    +72 48 55.9   139940 1.0159  65.6 Nm  18?  78.59 191.1   50 339 106  85
   2024 07 17 20:50  12 50 12.39    +72 35 59.7   139702 1.0159  65.5 Nm  18?  79.47 190.1   49 338 106  85
   2024 07 17 21:00  12 49 42.37    +72 22 52.8   139462 1.0159  65.4 Am  18?  80.32 189.1   49 337 106  85
   2024 07 17 21:10  12 49 15.34    +72 09 35.3   139218 1.0159  65.4 Am  18?  81.14 188.1   48 336 106  85
   2024 07 17 21:20  12 48 51.30    +71 56 08.0   138971 1.0159  65.3 Am  18?  81.94 187.2   47 336 106  85
   2024 07 17 21:30  12 48 30.21    +71 42 31.0   138720 1.0159  65.2 Am  18?  82.71 186.2   46 335 106  85
   2024 07 17 21:40  12 48 12.06    +71 28 45.1   138466 1.0159  65.2 Am  18?  83.46 185.3   46 335 106  85
   2024 07 17 21:50  12 47 56.81    +71 14 50.5   138209 1.0159  65.1  m  18?  84.18 184.4   45 334 105  85
   2024 07 17 22:00  12 47 44.43    +71 00 47.8   137948 1.0159  65.1  m  18?  84.87 183.5   44 334 105  85
   2024 07 17 22:10  12 47 34.87    +70 46 37.5   137683 1.0159  65.0  m  18?  85.54 182.5   43 334 105  85
   2024 07 17 22:20  12 47 28.08    +70 32 19.9   137414 1.0159  65.0  m  18?  86.18 181.6   42 333 105  85
   2024 07 17 22:30  12 47 24.03    +70 17 55.7   137141 1.0159  65.0  m  18?  86.80 180.7   41 333 105  85
   2024 07 17 22:40  12 47 22.65    +70 03 25.2   136864 1.0159  64.9  m  18?  87.39 179.9   41 333 105  85
   2024 07 17 22:50  12 47 23.89    +69 48 48.9   136583 1.0159  64.9  m  18?  87.96 179.0   40 333 105  85
   2024 07 17 23:00  12 47 27.69    +69 34 07.3   136297 1.0159  64.9  m  18?  88.50 178.1   39 333 105  85
   2024 07 17 23:10  12 47 34.00    +69 19 20.8   136007 1.0159  64.8  m  18?  89.01 177.3   38 333 105  85
   2024 07 17 23:20  12 47 42.74    +69 04 29.9   135712 1.0159  64.8  m  18?  89.50 176.4   37 333 104  85
   2024 07 17 23:30  12 47 53.86    +68 49 35.0   135412 1.0159  64.8  m  18?  89.97 175.6   36 333 104  85
   2024 07 17 23:40  12 48 07.28    +68 34 36.6   135107 1.0159  64.8  m  18?  90.41 174.8   35 333 104  85
   2024 07 17 23:50  12 48 22.95    +68 19 35.1   134797 1.0159  64.8  m  18?  90.82 174.0   34 333 104  85
   2024 07 18 00:00  12 48 40.78    +68 04 30.9   134481 1.0159  64.8  m  18?  91.21 173.2   33 333 104  85
   2024 07 18 00:10  12 49 00.72    +67 49 24.4   134160 1.0159  64.8  m  18?  91.58 172.4   32 333 104  85
   2024 07 18 00:20  12 49 22.70    +67 34 16.0   133833 1.0159  64.8  m  18?  91.92 171.6   31 334 103  85
   2024 07 18 00:30  12 49 46.63    +67 19 06.1   133500 1.0159  64.8  m  18?  92.24 170.9   30 334 103  85
   2024 07 18 00:40  12 50 12.45    +67 03 55.1   133161 1.0159  64.8  m  18?  92.53 170.1   30 334 103  85
   2024 07 18 00:50  12 50 40.10    +66 48 43.3   132816 1.0159  64.9  m  18?  92.80 169.4   29 335 103  85
   2024 07 18 01:00  12 51 09.49    +66 33 31.1   132464 1.0159  64.9  m  18?  93.05 168.7   28 335 103  86
   2024 07 18 01:10  12 51 40.55    +66 18 18.9   132105 1.0159  64.9  m  18?  93.27 168.0   27 336 103  86
   2024 07 18 01:20  12 52 13.23    +66 03 07.0   131740 1.0159  64.9  m  18?  93.48 167.3   26 336 102  86
   2024 07 18 01:30  12 52 47.43    +65 47 55.6   131367 1.0159  65.0  m  18?  93.66 166.6   25 337 102  86
   2024 07 18 01:40  12 53 23.10    +65 32 45.1   130987 1.0159  65.0     18?  93.82 165.9   24 337 102  86
   2024 07 18 01:50  12 54 00.15    +65 17 35.7   130600 1.0159  65.1     18?  93.95 165.3   23 338 102  86
   2024 07 18 02:00  12 54 38.53    +65 02 27.8   130204 1.0159  65.1     18?  94.07 164.6   23 338 102  86
   2024 07 18 02:10  12 55 18.16    +64 47 21.6   129801 1.0159  65.2     18?  94.17 164.0   22 339 102  86
   2024 07 18 02:20  12 55 58.97    +64 32 17.4   129390 1.0159  65.2     18?  94.24 163.4   21 340 101  86
   2024 07 18 02:30  12 56 40.89    +64 17 15.2   128970 1.0159  65.3     18?  94.30 162.8   20 341 101  86
   2024 07 18 02:40  12 57 23.85    +64 02 15.5   128541 1.0159  65.4     18?  94.34 162.2   19 341 101  86
   2024 07 18 02:50  12 58 07.79    +63 47 18.3   128104 1.0159  65.4     18?  94.35 161.7   19 342 101  86
   2024 07 18 03:00  12 58 52.63    +63 32 23.9   127658 1.0159  65.5 A   18?  94.35 161.1   18 343 101  86
   2024 07 18 03:10  12 59 38.31    +63 17 32.3   127203 1.0159  65.6 A   18?  94.33 160.6   17 344 100  86
   2024 07 18 03:20  13 00 24.77    +63 02 43.8   126738 1.0159  65.7 A   18?  94.30 160.1   17 345 100  86
   2024 07 18 03:30  13 01 11.93    +62 47 58.5   126263 1.0159  65.7 A   18?  94.25 159.6   16 346 100  86
   2024 07 18 03:40  13 01 59.73    +62 33 16.4   125779 1.0159  65.8 A   18?  94.18 159.2   15 347 100  86
   2024 07 18 03:50  13 02 48.11    +62 18 37.7   125285 1.0159  65.9 N   18?  94.09 158.7   15 347 100  86
   2024 07 18 04:00  13 03 37.00    +62 04 02.4   124780 1.0159  66.0 N   18?  93.99 158.3   14 348  99  86
   2024 07 18 04:10  13 04 26.33    +61 49 30.6   124265 1.0159  66.1 N   18?  93.88 157.9   13 349  99  86
   2024 07 18 04:20  13 05 16.06    +61 35 02.4   123739 1.0159  66.2 N   18?  93.75 157.5   13 350  99  86
   2024 07 18 04:30  13 06 06.10    +61 20 37.6   123203 1.0159  66.3 C   18?  93.61 157.1   12 351  99  86
   2024 07 18 04:40  13 06 56.40    +61 06 16.4   122655 1.0159  66.4 C   18?  93.46 156.8   12 353  99  87
   2024 07 18 04:50  13 07 46.90    +60 51 58.8   122096 1.0159  66.5 C   18?  93.29 156.5   12 354  98  87
   ................
   2024 07 18 22:20  01 53 46.66    +32 17 27.9    34278 1.0162  79.0  r  15? 1145.2   1.2    1  46 133  92
   2024 07 18 22:30  01 54 05.68    +35 19 04.9    35910 1.0162  78.0  m  15? 1036.7   1.4    5  46 133  92
   2024 07 18 22:40  01 54 26.21    +38 03 58.6    37525 1.0162  77.1  m  15? 944.16   1.6    8  45 134  92
   2024 07 18 22:50  01 54 47.53    +40 34 33.8    39122 1.0162  76.4  m  15? 864.67   1.7   11  45 134  92
   2024 07 18 23:00  01 55 09.08    +42 52 48.8    40700 1.0162  75.7  m  15? 795.86   1.8   14  45 134  92
   2024 07 18 23:10  01 55 30.39    +45 00 20.8    42257 1.0161  75.1  m  15? 735.86   1.8   17  44 134  92
   2024 07 18 23:20  01 55 51.07    +46 58 30.7    43794 1.0161  74.5  m  15? 683.21   1.8   19  44 134  92
   2024 07 18 23:30  01 56 10.79    +48 48 25.6    45311 1.0161  74.1  m  15? 636.70   1.8   22  43 134  92
   2024 07 18 23:40  01 56 29.26    +50 31 02.4    46807 1.0161  73.6  m  16? 595.39   1.7   24  43 134  92
   2024 07 18 23:50  01 56 46.21    +52 07 08.9    48283 1.0161  73.2  m  16? 558.48   1.6   26  42 133  92
   2024 07 19 00:00  01 57 01.41    +53 37 25.9    49740 1.0161  72.9  m  16? 525.35   1.5   28  42 133  92
   2024 07 19 00:10  01 57 14.64    +55 02 28.4    51177 1.0161  72.5  m  16? 495.44   1.3   30  41 133  92
   2024 07 19 00:20  01 57 25.70    +56 22 46.5    52595 1.0161  72.3  m  16? 468.34   1.1   32  40 133  92
   2024 07 19 00:30  01 57 34.37    +57 38 46.2    53995 1.0161  72.0  m  16? 443.66   0.9   34  40 132  92
   2024 07 19 00:40  01 57 40.49    +58 50 50.2    55377 1.0161  71.8  m  16? 421.10   0.6   35  39 132  92
   2024 07 19 00:50  01 57 43.85    +59 59 18.1    56742 1.0161  71.6  m  16? 400.40   0.4   37  38 132  92
   2024 07 19 01:00  01 57 44.29    +61 04 27.4    58089 1.0161  71.4  m  16? 381.34   0.0   39  37 131  92
   2024 07 19 01:10  01 57 41.63    +62 06 33.2    59419 1.0161  71.2  m  16? 363.72 359.6   40  36 131  92
   2024 07 19 01:20  01 57 35.68    +63 05 49.2    60734 1.0161  71.1  m  16? 347.38 359.3   41  35 131  92
   2024 07 19 01:30  01 57 26.29    +64 02 27.2    62033 1.0161  71.0  m  16? 332.19 358.9   43  34 130  92
   2024 07 19 01:40  01 57 13.28    +64 56 37.8    63316 1.0161  70.8  m  16? 318.01 358.4   44  33 130  92
   2024 07 19 01:50  01 56 56.48    +65 48 30.6    64584 1.0161  70.8  m  16? 304.76 358.0   45  32 130  92
   2024 07 19 02:00  01 56 35.73    +66 38 14.2    65838 1.0161  70.7  m  16? 292.32 357.5   46  31 129  92
   2024 07 19 02:10  01 56 10.84    +67 25 56.0    67078 1.0161  70.6  m  16? 280.63 357.0   47  30 129  92
   2024 07 19 02:20  01 55 41.67    +68 11 43.1    68303 1.0161  70.6  m  16? 269.62 356.4   48  28 129  92
   2024 07 19 02:30  01 55 08.04    +68 55 41.6    69515 1.0161  70.5     16? 259.21 355.9   48  27 128  92
   2024 07 19 02:40  01 54 29.80    +69 37 57.2    70714 1.0160  70.5     17? 249.36 355.3   49  26 128  92
   2024 07 19 02:50  01 53 46.78    +70 18 34.9    71899 1.0160  70.5     17? 240.02 354.7   50  24 128  92
   2024 07 19 03:00  01 52 58.83    +70 57 39.5    73072 1.0160  70.4     17? 231.15 354.0   50  23 127  92
   2024 07 19 03:10  01 52 05.79    +71 35 15.1    74232 1.0160  70.4 A   17? 222.70 353.4   51  21 127  92
   2024 07 19 03:20  01 51 07.53    +72 11 25.6    75380 1.0160  70.4 A   17? 214.64 352.7   51  20 127  92
   2024 07 19 03:30  01 50 03.90    +72 46 14.7    76516 1.0160  70.4 A   17? 206.95 352.0   52  18 126  92
   2024 07 19 03:40  01 48 54.77    +73 19 45.6    77639 1.0160  70.4 A   17? 199.59 351.3   52  17 126  93
   2024 07 19 03:50  01 47 40.01    +73 52 01.3    78751 1.0160  70.5 N   17? 192.54 350.5   52  15 126  93
   2024 07 19 04:00  01 46 19.52    +74 23 04.7    79852 1.0160  70.5 N   17? 185.78 349.8   53  14 125  93
   2024 07 19 04:10  01 44 53.19    +74 52 58.3    80941 1.0160  70.5 N   17? 179.29 349.0   53  12 125  93
   2024 07 19 04:20  01 43 20.95    +75 21 44.5    82018 1.0160  70.6 N   17? 173.05 348.2   53  11 125  93
   2024 07 19 04:30  01 41 42.70    +75 49 25.7    83085 1.0160  70.6 Ce  17? 167.04 347.4   53   9 124  93
   2024 07 19 04:40  01 39 58.42    +76 16 04.0    84140 1.0160  70.6 C   17? 161.25 346.5   53   8 124  93
   2024 07 19 04:50  01 38 08.06    +76 41 41.4    85185 1.0160  70.7 C   17? 155.67 345.7   53   7 124  93
   ................
   2024 07 19 19:50  11 01 12.50    +87 06 13.0   140448 1.0158  67.3 Cm  18?  77.21 166.1   42 356 120  96
   2024 07 19 20:00  11 05 16.64    +86 53 42.6   140727 1.0158  67.2 Ce  18?  77.71 166.3   42 355 120  96
   2024 07 19 20:10  11 09 03.27    +86 41 06.9   141002 1.0158  67.1 Cm  18?  78.17 166.4   42 355 120  96
   2024 07 19 20:20  11 12 35.48    +86 28 26.4   141272 1.0158  67.0 Nm  18?  78.61 166.4   42 355 120  96
   2024 07 19 20:30  11 15 55.68    +86 15 41.8   141537 1.0158  66.9 Nm  18?  79.01 166.4   41 355 120  96
   2024 07 19 20:40  11 19 05.82    +86 02 53.3   141798 1.0158  66.8 Nm  18?  79.39 166.3   41 354 120  96
   2024 07 19 20:50  11 22 07.44    +85 50 01.5   142054 1.0158  66.7 Nm  18?  79.73 166.2   41 354 120  96
   2024 07 19 21:00  11 25 01.80    +85 37 06.9   142306 1.0158  66.6 Am  18?  80.05 166.0   41 354 120  96
   2024 07 19 21:10  11 27 49.92    +85 24 09.8   142554 1.0158  66.5 Am  18?  80.33 165.9   41 353 120  96
   2024 07 19 21:20  11 30 32.66    +85 11 10.6   142797 1.0158  66.4 Am  18?  80.58 165.7   41 353 120  96
   2024 07 19 21:30  11 33 10.72    +84 58 09.8   143036 1.0158  66.4 Am  18?  80.81 165.4   41 353 120  96
   2024 07 19 21:40  11 35 44.69    +84 45 07.8   143270 1.0158  66.3  m  18?  81.00 165.2   41 352 120  96
   2024 07 19 21:50  11 38 15.05    +84 32 05.0   143500 1.0158  66.2  m  18?  81.16 164.9   40 352 120  96
   2024 07 19 22:00  11 40 42.22    +84 19 01.6   143726 1.0158  66.1  m  18?  81.29 164.6   40 352 120  96
   2024 07 19 22:10  11 43 06.55    +84 05 58.2   143947 1.0158  66.1  m  18?  81.39 164.3   40 352 120  96
   2024 07 19 22:20  11 45 28.34    +83 52 55.2   144164 1.0158  66.0  m  18?  81.46 164.0   40 351 120  96
   2024 07 19 22:30  11 47 47.83    +83 39 52.7   144377 1.0158  66.0  m  18?  81.50 163.7   40 351 120  96
   2024 07 19 22:40  11 50 05.25    +83 26 51.4   144585 1.0158  65.9  m  18?  81.51 163.4   39 351 120  96
   2024 07 19 22:50  11 52 20.78    +83 13 51.4   144789 1.0158  65.9  m  18?  81.48 163.0   39 351 120  96
   2024 07 19 23:00  11 54 34.56    +83 00 53.2   144988 1.0158  65.8  m  18?  81.43 162.6   39 350 120  96
   2024 07 19 23:10  11 56 46.74    +82 47 57.1   145183 1.0158  65.8  m  18?  81.35 162.3   38 350 120  96
   2024 07 19 23:20  11 58 57.43    +82 35 03.5   145373 1.0158  65.7  m  18?  81.24 161.9   38 350 120  96
   2024 07 19 23:30  12 01 06.73    +82 22 12.8   145559 1.0157  65.7  m  18?  81.09 161.5   38 350 120  96
   2024 07 19 23:40  12 03 14.71    +82 09 25.1   145740 1.0157  65.7  m  18?  80.92 161.1   37 350 120  96
   2024 07 19 23:50  12 05 21.44    +81 56 41.0   145917 1.0157  65.7  m  18?  80.72 160.8   37 350 119  97
   2024 07 20 00:00  12 07 26.99    +81 44 00.7   146089 1.0157  65.6  m  18?  80.49 160.4   37 350 119  97
   2024 07 20 00:10  12 09 31.40    +81 31 24.5   146256 1.0157  65.6  m  18?  80.23 160.0   36 350 119  97
   2024 07 20 00:20  12 11 34.71    +81 18 52.8   146419 1.0157  65.6  m  18?  79.94 159.6   36 350 119  97
   2024 07 20 00:30  12 13 36.95    +81 06 25.9   146576 1.0157  65.6  m  18?  79.63 159.1   36 350 119  97
   2024 07 20 00:40  12 15 38.14    +80 54 04.0   146729 1.0157  65.6  m  18?  79.29 158.7   35 350 119  97
   2024 07 20 00:50  12 17 38.31    +80 41 47.5   146877 1.0157  65.6  m  18?  78.91 158.3   35 350 119  97
   2024 07 20 01:00  12 19 37.48    +80 29 36.7   147019 1.0157  65.6  m  18?  78.52 157.9   34 350 119  97
   2024 07 20 01:10  12 21 35.64    +80 17 31.8   147157 1.0157  65.6  m  18?  78.09 157.5   34 350 119  97
   2024 07 20 01:20  12 23 32.80    +80 05 33.2   147289 1.0157  65.6  m  18?  77.64 157.1   34 350 119  97
   2024 07 20 01:30  12 25 28.97    +79 53 41.0   147417 1.0157  65.6  m  18?  77.16 156.6   33 350 119  97
   2024 07 20 01:40  12 27 24.14    +79 41 55.6   147538 1.0157  65.6  m  18?  76.65 156.2   33 350 119  97
   2024 07 20 01:50  12 29 18.30    +79 30 17.2   147655 1.0157  65.7  m  18?  76.12 155.8   33 351 119  97
   2024 07 20 02:00  12 31 11.46    +79 18 46.0   147766 1.0157  65.7  m  18?  75.57 155.4   32 351 118  97
   2024 07 20 02:10  12 33 03.59    +79 07 22.3   147871 1.0157  65.7  m  18?  74.98 154.9   32 351 118  97
   2024 07 20 02:20  12 34 54.68    +78 56 06.3   147970 1.0157  65.7  m  18?  74.38 154.5   31 351 118  97
   2024 07 20 02:30  12 36 44.71    +78 44 58.3   148064 1.0157  65.8  m  18?  73.75 154.1   31 351 118  97
   2024 07 20 02:40  12 38 33.68    +78 33 58.3   148152 1.0157  65.8  m  18?  73.09 153.7   31 352 118  97
   2024 07 20 02:50  12 40 21.55    +78 23 06.7   148234 1.0157  65.8  m  18?  72.41 153.2   30 352 118  97
   2024 07 20 03:00  12 42 08.31    +78 12 23.6   148310 1.0157  65.9  m  18?  71.71 152.8   30 352 118  97
   2024 07 20 03:10  12 43 53.93    +78 01 49.2   148379 1.0157  65.9 Am  18?  70.99 152.4   30 353 118  97
   2024 07 20 03:20  12 45 38.39    +77 51 23.6   148443 1.0157  66.0 Am  18?  70.24 152.0   29 353 118  97
   2024 07 20 03:30  12 47 21.66    +77 41 07.1   148500 1.0157  66.0 A   18?  69.47 151.6   29 354 117  97
   2024 07 20 03:40  12 49 03.72    +77 30 59.7   148551 1.0157  66.1 A   18?  68.68 151.2   29 354 117  97
   2024 07 20 03:50  12 50 44.53    +77 21 01.6   148595 1.0157  66.1 N   18?  67.87 150.8   28 354 117  97
   2024 07 20 04:00  12 52 24.07    +77 11 12.9   148633 1.0157  66.2 N   18?  67.04 150.4   28 355 117  97
   2024 07 20 04:10  12 54 02.30    +77 01 33.8   148664 1.0157  66.3 N   18?  66.18 150.0   28 355 117  97
   2024 07 20 04:20  12 55 39.20    +76 52 04.3   148688 1.0157  66.3 N   18?  65.31 149.7   27 356 117  97
   2024 07 20 04:30  12 57 14.72    +76 42 44.6   148705 1.0157  66.4 C   18?  64.42 149.3   27 356 117  97
   2024 07 20 04:40  12 58 48.83    +76 33 34.6   148716 1.0157  66.4 C   18?  63.51 149.0   27 357 117  97
   2024 07 20 04:50  13 00 21.50    +76 24 34.6   148719 1.0157  66.5 C   18?  62.58 148.6   27 357 117  97
   ................
   2024 07 20 19:50  12 58 24.46    +65 37 15.3   121156 1.0157  64.9 Cm  18?  95.15 195.4   57 331 118  99
   2024 07 20 20:00  12 57 44.12    +65 21 48.9   120633 1.0157  64.8 Cm  18?  96.78 194.6   56 330 118  99
   2024 07 20 20:10  12 57 05.80    +65 06 03.0   120107 1.0157  64.7 Cm  18?  98.40 193.7   55 328 118  99
   2024 07 20 20:20  12 56 29.56    +64 49 57.8   119577 1.0157  64.6 Nm  18? 100.01 192.8   54 327 118  99
   2024 07 20 20:30  12 55 55.45    +64 33 33.6   119043 1.0157  64.5 Nm  18? 101.61 191.9   53 326 118  99
   2024 07 20 20:40  12 55 23.51    +64 16 50.5   118505 1.0157  64.4 Nm  18? 103.20 191.1   52 325 118  99
   2024 07 20 20:50  12 54 53.77    +63 59 48.8   117964 1.0157  64.3 Nm  18? 104.78 190.2   51 325 119  99
   2024 07 20 21:00  12 54 26.27    +63 42 28.9   117418 1.0157  64.2 Am  18? 106.35 189.3   50 324 119  99
   2024 07 20 21:10  12 54 01.03    +63 24 50.8   116868 1.0157  64.2 Am  18? 107.91 188.5   49 323 119  99
   2024 07 20 21:20  12 53 38.05    +63 06 55.0   116314 1.0157  64.1 Am  18? 109.46 187.6   48 323 119  99
   2024 07 20 21:30  12 53 17.37    +62 48 41.7   115755 1.0157  64.0 Am  18? 111.00 186.8   46 322 119  99
   2024 07 20 21:40  12 52 58.98    +62 30 11.2   115191 1.0157  64.0  m  18? 112.53 185.9   45 322 119  99
   2024 07 20 21:50  12 52 42.89    +62 11 23.8   114622 1.0157  63.9  m  18? 114.05 185.1   44 321 119  99
   2024 07 20 22:00  12 52 29.10    +61 52 19.7   114048 1.0157  63.8  m  18? 115.57 184.3   43 321 119  99
   2024 07 20 22:10  12 52 17.59    +61 32 59.3   113469 1.0157  63.8  m  18? 117.08 183.5   42 321 119  99
   2024 07 20 22:20  12 52 08.36    +61 13 22.8   112884 1.0157  63.7  m  18? 118.59 182.7   40 321 119  99
   2024 07 20 22:30  12 52 01.40    +60 53 30.4   112293 1.0157  63.7  m  18? 120.09 181.9   39 321 119  99
   2024 07 20 22:40  12 51 56.68    +60 33 22.5   111697 1.0157  63.7  m  18? 121.59 181.1   38 321 119  99
   2024 07 20 22:50  12 51 54.19    +60 12 59.2   111094 1.0157  63.6  m  18? 123.08 180.3   36 321 119  99
   2024 07 20 23:00  12 51 53.89    +59 52 20.9   110484 1.0157  63.6  m  18? 124.58 179.6   35 321 119  99
   2024 07 20 23:10  12 51 55.76    +59 31 27.7   109867 1.0157  63.6  m  18? 126.08 178.8   34 321 119  99
   2024 07 20 23:20  12 51 59.78    +59 10 19.8   109244 1.0157  63.5  m  18? 127.57 178.1   33 322 119  99
   2024 07 20 23:30  12 52 05.90    +58 48 57.4   108613 1.0158  63.5  m  18? 129.08 177.4   31 322 119  99
   2024 07 20 23:40  12 52 14.09    +58 27 20.6   107974 1.0158  63.5  m  18? 130.58 176.7   30 322 119  99
   2024 07 20 23:50  12 52 24.32    +58 05 29.7   107328 1.0158  63.5  m  18? 132.10 176.0   29 323 119  99
   2024 07 21 00:00  12 52 36.54    +57 43 24.6   106673 1.0158  63.5  m  18? 133.62 175.3   27 323 119  99
   2024 07 21 00:10  12 52 50.72    +57 21 05.5   106010 1.0158  63.5  m  18? 135.16 174.7   26 324 119  99
   2024 07 21 00:20  12 53 06.81    +56 58 32.5   105337 1.0158  63.6  m  18? 136.71 174.0   25 324 119  99
   2024 07 21 00:30  12 53 24.77    +56 35 45.5   104656 1.0158  63.6  m  18? 138.28 173.4   23 325 119  99
   2024 07 21 00:40  12 53 44.55    +56 12 44.6   103965 1.0158  63.6  m  18? 139.86 172.8   22 325 119  99
   2024 07 21 00:50  12 54 06.10    +55 49 29.6   103264 1.0158  63.6  m  18? 141.47 172.2   21 326 118  99
   2024 07 21 01:00  12 54 29.39    +55 26 00.5   102553 1.0158  63.7  m  18? 143.10 171.6   20 327 118  99
   2024 07 21 01:10  12 54 54.36    +55 02 17.2   101831 1.0158  63.7  m  17? 144.76 171.0   18 327 118  99
   2024 07 21 01:20  12 55 20.97    +54 38 19.5   101099 1.0158  63.8  m  17? 146.45 170.5   17 328 118  99
   2024 07 21 01:30  12 55 49.16    +54 14 07.1   100355 1.0158  63.8  m  17? 148.17 170.0   16 329 118  99
   2024 07 21 01:40  12 56 18.89    +53 49 39.8    99599 1.0158  63.9  m  17? 149.94 169.5   15 330 118  99
   2024 07 21 01:50  12 56 50.11    +53 24 57.2    98831 1.0158  64.0  m  17? 151.75 169.0   13 331 118  99
   2024 07 21 02:00  12 57 22.77    +52 59 58.9    98051 1.0158  64.0  m  17? 153.60 168.5   12 332 118  99
   2024 07 21 02:10  12 57 56.82    +52 34 44.6    97258 1.0158  64.1  m  17? 155.51 168.1   11 333 118  99
   2024 07 21 02:20  12 58 32.22    +52 09 13.7    96452 1.0158  64.2  m  17? 157.48 167.7   10 334 118  99
   2024 07 21 02:30  12 59 08.91    +51 43 25.5    95633 1.0158  64.3  m  17? 159.51 167.3    9 335 117  99
   2024 07 21 02:40  12 59 46.84    +51 17 19.5    94799 1.0158  64.4  m  17? 161.61 166.9    8 336 117  99
   2024 07 21 02:50  13 00 25.97    +50 50 54.9    93951 1.0158  64.5  m  17? 163.79 166.6    7 337 117  99
   2024 07 21 03:00  13 01 06.26    +50 24 10.9    93089 1.0158  64.6  m  17? 166.06 166.3    6 338 117  99
   2024 07 21 03:10  13 01 47.65    +49 57 06.5    92211 1.0158  64.8 Am  17? 168.42 166.0    5 339 117  99
   2024 07 21 03:20  13 02 30.10    +49 29 40.8    91317 1.0158  64.9 Am  17? 170.88 165.7    4 340 117  99
   2024 07 21 03:30  13 03 13.56    +49 01 52.6    90408 1.0158  65.0 Am  17? 173.45 165.4    3 342 117  99
   2024 07 21 03:40  13 03 57.99    +48 33 40.8    89481 1.0158  65.2 Am  17? 176.15 165.2    2 343 116  99
   2024 07 21 03:50  13 04 43.35    +48 05 03.9    88539 1.0158  65.3 Nm  17? 178.98 165.0    1 344 116  99
   2024 07 21 04:00  13 05 29.59    +47 36 00.4    87578 1.0158  65.5 Nm  17? 181.95 164.8    0 346 116  99
   ................
   2024 07 21 19:50  01 41 29.60    +68 43 37.8    82417 1.0158  73.2 C   17? 207.75  16.1   21  10 107  99
   2024 07 21 20:00  01 43 14.87    +69 16 36.5    83437 1.0158  72.9 C   17? 203.92  16.2   22  11 108  99
   2024 07 21 20:10  01 45 00.96    +69 48 59.0    84442 1.0158  72.7 C   17? 200.26  16.2   23  11 108  99
   2024 07 21 20:20  01 46 47.87    +70 20 47.1    85434 1.0158  72.4 Nm  17? 196.76  16.2   24  11 108  99
   2024 07 21 20:30  01 48 35.57    +70 52 02.4    86412 1.0158  72.2 Nm  17? 193.40  16.2   24  12 108  99
   2024 07 21 20:40  01 50 24.07    +71 22 46.2    87377 1.0158  71.9 Nm  17? 190.17  16.2   25  12 109  99
   2024 07 21 20:50  01 52 13.35    +71 53 00.0    88329 1.0158  71.7 Nm  17? 187.06  16.1   26  12 109  99
   2024 07 21 21:00  01 54 03.40    +72 22 44.7    89270 1.0158  71.5 Am  17? 184.05  16.1   27  13 109  99
   2024 07 21 21:10  01 55 54.22    +72 52 01.6    90198 1.0158  71.3 Am  17? 181.14  16.0   27  13 109  99
   2024 07 21 21:20  01 57 45.80    +73 20 51.6    91115 1.0158  71.1 Am  17? 178.32  15.9   28  13 110  99
   2024 07 21 21:30  01 59 38.13    +73 49 15.5    92021 1.0158  70.9 Am  17? 175.58  15.8   29  13 110  99
   2024 07 21 21:40  02 01 31.22    +74 17 14.2    92915 1.0158  70.7  m  17? 172.91  15.8   30  13 110  99
   2024 07 21 21:50  02 03 25.06    +74 44 48.4    93799 1.0158  70.5  m  17? 170.30  15.6   30  13 110  99
   2024 07 21 22:00  02 05 19.64    +75 11 58.6    94673 1.0158  70.4  m  17? 167.76  15.5   31  14 111  99
   2024 07 21 22:10  02 07 14.98    +75 38 45.6    95537 1.0158  70.2  m  17? 165.27  15.4   32  14 111  99
   2024 07 21 22:20  02 09 11.07    +76 05 09.8    96391 1.0158  70.1  m  17? 162.83  15.3   32  14 111  99
   2024 07 21 22:30  02 11 07.93    +76 31 11.7    97235 1.0158  69.9  m  17? 160.43  15.2   33  13 111  99
   2024 07 21 22:40  02 13 05.56    +76 56 51.7    98069 1.0158  69.8  m  17? 158.08  15.0   34  13 111  99
   2024 07 21 22:50  02 15 03.99    +77 22 10.2    98895 1.0158  69.7  m  17? 155.76  14.9   34  13 111  99
   2024 07 21 23:00  02 17 03.22    +77 47 07.5    99712 1.0158  69.5  m  17? 153.47  14.7   35  13 112  99
   2024 07 21 23:10  02 19 03.30    +78 11 43.9   100520 1.0158  69.4  m  17? 151.21  14.6   35  13 112  99
   2024 07 21 23:20  02 21 04.24    +78 35 59.7   101319 1.0158  69.3  m  17? 148.98  14.4   36  13 112  99
   2024 07 21 23:30  02 23 06.09    +78 59 55.1   102110 1.0158  69.2  m  17? 146.78  14.3   36  13 112  99
   2024 07 21 23:40  02 25 08.89    +79 23 30.3   102893 1.0158  69.1  m  17? 144.59  14.1   37  12 112  99
   2024 07 21 23:50  02 27 12.69    +79 46 45.5   103668 1.0157  69.1  m  17? 142.43  13.9   37  12 112  99
   2024 07 22 00:00  02 29 17.57    +80 09 40.7   104435 1.0157  69.0  m  17? 140.28  13.8   38  12 112  99
   2024 07 22 00:10  02 31 23.60    +80 32 16.2   105194 1.0157  68.9  m  17? 138.15  13.6   38  11 112  99
   2024 07 22 00:20  02 33 30.87    +80 54 32.0   105945 1.0157  68.9  m  17? 136.03  13.4   39  11 112  99
   2024 07 22 00:30  02 35 39.49    +81 16 28.2   106689 1.0157  68.8  m  17? 133.93  13.3   39  11 113  99
   2024 07 22 00:40  02 37 49.58    +81 38 04.9   107426 1.0157  68.7  m  17? 131.83  13.1   39  10 113  99
   2024 07 22 00:50  02 40 01.29    +81 59 22.1   108155 1.0157  68.7  m  17? 129.75  13.0   40  10 113  99
   2024 07 22 01:00  02 42 14.81    +82 20 19.8   108877 1.0157  68.7  m  17? 127.68  12.9   40   9 113  99
   2024 07 22 01:10  02 44 30.33    +82 40 58.2   109592 1.0157  68.6  m  18? 125.61  12.7   40   9 113  99
   2024 07 22 01:20  02 46 48.11    +83 01 17.1   110300 1.0157  68.6  m  18? 123.55  12.6   41   9 113  99
   2024 07 22 01:30  02 49 08.43    +83 21 16.5   111001 1.0157  68.6  m  18? 121.50  12.5   41   8 113  99
   2024 07 22 01:40  02 51 31.64    +83 40 56.6   111695 1.0157  68.6  m  18? 119.45  12.4   41   8 113  99
   2024 07 22 01:50  02 53 58.14    +84 00 17.2   112382 1.0157  68.6  m  18? 117.41  12.3   41   7 113  99
   2024 07 22 02:00  02 56 28.45    +84 19 18.2   113062 1.0157  68.6  m  18? 115.38  12.3   41   7 113  99
   2024 07 22 02:10  02 59 03.14    +84 37 59.8   113735 1.0157  68.6  m  18? 113.34  12.3   41   6 113  99
   2024 07 22 02:20  03 01 42.95    +84 56 21.8   114402 1.0157  68.6  m  18? 111.32  12.3   41   6 113  99
   2024 07 22 02:30  03 04 28.74    +85 14 24.1   115062 1.0157  68.6  m  18? 109.30  12.3   42   6 113  99
   2024 07 22 02:40  03 07 21.61    +85 32 06.7   115716 1.0157  68.6  m  18? 107.28  12.4   42   5 113  99
   2024 07 22 02:50  03 10 22.89    +85 49 29.4   116362 1.0157  68.6  m  18? 105.26  12.5   42   5 113  99
   2024 07 22 03:00  03 13 34.27    +86 06 32.3   117002 1.0157  68.6  m  18? 103.25  12.7   42   4 113  99
   2024 07 22 03:10  03 16 57.87    +86 23 15.0   117636 1.0157  68.6 Ae  18? 101.24  13.0   42   4 113  99
   2024 07 22 03:20  03 20 36.42    +86 39 37.6   118262 1.0157  68.7 Am  18?  99.24  13.4   42   3 113  99
   2024 07 22 03:30  03 24 33.47    +86 55 39.7   118882 1.0157  68.7 Am  18?  97.24  13.8   42   3 113  99
   2024 07 22 03:40  03 28 53.72    +87 11 21.1   119496 1.0157  68.7 Am  18?  95.25  14.4   42   3 113  99
   2024 07 22 03:50  03 33 43.50    +87 26 41.5   120102 1.0157  68.8 Am  18?  93.26  15.2   42   2 113  99
   2024 07 22 04:00  03 39 11.51    +87 41 40.3   120702 1.0157  68.8 Nm  18?  91.27  16.2   41   2 113  99
   2024 07 22 04:10  03 45 30.07    +87 56 16.9   121295 1.0157  68.9 Nm  18?  89.29  17.5   41   2 113  99
   2024 07 22 04:20  03 52 57.07    +88 10 30.2   121882 1.0157  68.9 Nm  18?  87.31  19.2   41   2 113  99
   2024 07 22 04:30  04 01 59.45    +88 24 18.9   122462 1.0157  68.9 Cm  18?  85.34  21.5   41   1 113  99
   2024 07 22 04:40  04 13 19.38    +88 37 40.4   123035 1.0157  69.0 Cm  18?  83.38  24.5   41   1 113  99
   2024 07 22 04:50  04 28 06.09    +88 50 30.7   123601 1.0157  69.0 Cm  18?  81.42  28.7   41   1 113  99
   ................
   2024 07 22 19:50  12 36 53.68    +80 20 20.5   147013 1.0155  66.3 C   18?  71.52 190.1   47 349 116  97
   2024 07 22 20:00  12 36 06.06    +80 08 32.5   147037 1.0155  66.2 C   18?  72.19 189.0   47 349 116  96
   2024 07 22 20:10  12 35 23.92    +79 56 35.9   147057 1.0155  66.1 C   18?  72.83 188.0   46 348 116  96
   2024 07 22 20:20  12 34 47.11    +79 44 31.3   147074 1.0155  66.0 N   18?  73.45 187.0   46 347 116  96
   2024 07 22 20:30  12 34 15.46    +79 32 19.1   147087 1.0155  65.9 N   18?  74.03 186.0   46 347 116  96
   2024 07 22 20:40  12 33 48.82    +79 19 59.8   147098 1.0155  65.9 N   18?  74.59 185.0   45 346 116  96
   2024 07 22 20:50  12 33 27.02    +79 07 34.0   147104 1.0155  65.8 Nm  18?  75.12 184.1   45 346 116  96
   2024 07 22 21:00  12 33 09.89    +78 55 02.0   147107 1.0155  65.7 Am  18?  75.62 183.1   44 345 116  96
   2024 07 22 21:10  12 32 57.27    +78 42 24.6   147107 1.0155  65.6 Am  18?  76.09 182.2   44 345 117  96
   2024 07 22 21:20  12 32 49.01    +78 29 42.0   147103 1.0155  65.5 Am  18?  76.54 181.2   44 344 117  96
   2024 07 22 21:30  12 32 44.93    +78 16 54.8   147095 1.0155  65.4 Am  18?  76.95 180.3   43 344 117  96
   2024 07 22 21:40  12 32 44.88    +78 04 03.6   147084 1.0155  65.4  m  18?  77.34 179.4   43 344 117  96
   2024 07 22 21:50  12 32 48.70    +77 51 08.7   147069 1.0155  65.3  m  18?  77.69 178.5   42 343 117  96
   2024 07 22 22:00  12 32 56.25    +77 38 10.7   147051 1.0155  65.2  m  18?  78.02 177.7   42 343 117  96
   2024 07 22 22:10  12 33 07.35    +77 25 10.0   147028 1.0155  65.2  m  18?  78.32 176.8   41 343 117  96
   2024 07 22 22:20  12 33 21.87    +77 12 07.2   147002 1.0155  65.1  m  18?  78.58 175.9   40 342 118  96
   2024 07 22 22:30  12 33 39.67    +76 59 02.5   146971 1.0155  65.1  m  18?  78.82 175.1   40 342 118  96
   2024 07 22 22:40  12 34 00.59    +76 45 56.6   146937 1.0155  65.0  m  18?  79.03 174.3   39 342 118  96
   2024 07 22 22:50  12 34 24.49    +76 32 49.9   146898 1.0155  65.0  m  18?  79.22 173.5   39 342 118  96
   2024 07 22 23:00  12 34 51.25    +76 19 42.7   146856 1.0155  64.9  m  18?  79.37 172.6   38 342 118  96
   2024 07 22 23:10  12 35 20.72    +76 06 35.6   146808 1.0155  64.9  m  18?  79.49 171.8   38 342 118  96
   2024 07 22 23:20  12 35 52.78    +75 53 28.9   146757 1.0155  64.8  m  18?  79.59 171.1   37 342 118  96
   2024 07 22 23:30  12 36 27.30    +75 40 23.0   146701 1.0155  64.8  m  18?  79.65 170.3   36 342 118  96
   2024 07 22 23:40  12 37 04.15    +75 27 18.4   146640 1.0155  64.8  m  18?  79.69 169.5   36 342 118  96
   2024 07 22 23:50  12 37 43.22    +75 14 15.5   146575 1.0155  64.8  m  18?  79.70 168.8   35 342 118  96
   2024 07 23 00:00  12 38 24.39    +75 01 14.6   146505 1.0155  64.7  m  18?  79.68 168.0   34 342 119  96
   2024 07 23 00:10  12 39 07.54    +74 48 16.1   146429 1.0155  64.7  m  18?  79.64 167.3   34 342 119  96
   2024 07 23 00:20  12 39 52.56    +74 35 20.5   146349 1.0155  64.7  m  18?  79.57 166.6   33 342 119  96
   2024 07 23 00:30  12 40 39.35    +74 22 27.9   146263 1.0155  64.7  m  18?  79.47 165.8   32 342 119  96
   2024 07 23 00:40  12 41 27.79    +74 09 38.8   146173 1.0155  64.7  m  18?  79.34 165.1   32 343 119  96
   2024 07 23 00:50  12 42 17.78    +73 56 53.6   146076 1.0155  64.7  m  18?  79.18 164.4   31 343 119  96
   2024 07 23 01:00  12 43 09.23    +73 44 12.5   145974 1.0155  64.7  m  18?  79.00 163.8   31 343 119  96
   2024 07 23 01:10  12 44 02.03    +73 31 35.9   145867 1.0155  64.7  m  18?  78.79 163.1   30 344 119  96
   2024 07 23 01:20  12 44 56.08    +73 19 04.0   145753 1.0155  64.7  m  18?  78.56 162.4   29 344 119  96
   2024 07 23 01:30  12 45 51.30    +73 06 37.2   145634 1.0155  64.7  m  18?  78.30 161.8   29 344 119  96
   2024 07 23 01:40  12 46 47.60    +72 54 15.8   145508 1.0155  64.7  m  18?  78.01 161.1   28 345 119  96
   2024 07 23 01:50  12 47 44.88    +72 41 59.9   145377 1.0155  64.7  m  18?  77.70 160.5   28 345 119  96
   2024 07 23 02:00  12 48 43.05    +72 29 49.9   145238 1.0155  64.8  m  18?  77.36 159.9   27 346 119  96
   2024 07 23 02:10  12 49 42.03    +72 17 46.1   145094 1.0155  64.8  m  18?  77.00 159.3   26 346 119  96
   2024 07 23 02:20  12 50 41.74    +72 05 48.6   144942 1.0155  64.8  m  18?  76.61 158.7   26 347 119  96
   2024 07 23 02:30  12 51 42.09    +71 53 57.7   144784 1.0155  64.8  m  18?  76.20 158.1   25 347 119  96
   2024 07 23 02:40  12 52 43.01    +71 42 13.6   144619 1.0155  64.9  m  18?  75.77 157.5   25 348 120  96
   2024 07 23 02:50  12 53 44.41    +71 30 36.4   144447 1.0155  64.9  m  18?  75.31 156.9   24 348 120  96
   2024 07 23 03:00  12 54 46.23    +71 19 06.5   144267 1.0155  65.0  m  18?  74.82 156.4   24 349 120  96
   2024 07 23 03:10  12 55 48.37    +71 07 43.9   144080 1.0155  65.0 Am  18?  74.32 155.8   23 350 120  96
   2024 07 23 03:20  12 56 50.77    +70 56 28.9   143886 1.0155  65.0 Am  18?  73.79 155.3   23 350 120  96
   2024 07 23 03:30  12 57 53.36    +70 45 21.5   143684 1.0155  65.1 Am  18?  73.23 154.8   22 351 120  96
   2024 07 23 03:40  12 58 56.05    +70 34 21.9   143474 1.0155  65.2 Am  18?  72.66 154.3   22 352 120  96
   2024 07 23 03:50  12 59 58.79    +70 23 30.3   143257 1.0155  65.2 Am  18?  72.06 153.8   22 352 120  95
   2024 07 23 04:00  13 01 01.51    +70 12 46.7   143031 1.0155  65.3 Nm  18?  71.44 153.4   21 353 120  95
   2024 07 23 04:10  13 02 04.12    +70 02 11.3   142797 1.0155  65.3 Nm  18?  70.80 152.9   21 354 120  95
   2024 07 23 04:20  13 03 06.57    +69 51 44.1   142555 1.0155  65.4 Nm  18?  70.14 152.5   21 355 120  95
   2024 07 23 04:30  13 04 08.78    +69 41 25.2   142305 1.0155  65.4 Nm  18?  69.46 152.1   20 355 120  95
   2024 07 23 04:40  13 05 10.70    +69 31 14.7   142046 1.0155  65.5 Cm  18?  68.76 151.7   20 356 120  95
   2024 07 23 04:50  13 06 12.26    +69 21 12.6   141779 1.0155  65.6 Cm  18?  68.03 151.3   20 357 120  95
   ................
   2024 07 23 19:50  12 58 40.74    +51 51 29.9    82257 1.0156  63.0 C   17? 185.74 192.6   60 305 131  91
   2024 07 23 20:00  12 57 57.32    +51 20 47.5    81272 1.0156  62.9 C   17? 191.30 191.9   58 304 131  91
   2024 07 23 20:10  12 57 15.35    +50 49 05.3    80278 1.0156  62.7 C   17? 197.05 191.3   56 303 132  91
   2024 07 23 20:20  12 56 34.91    +50 16 21.3    79276 1.0156  62.6 N   17? 203.01 190.7   55 302 132  91
   2024 07 23 20:30  12 55 56.05    +49 42 33.6    78266 1.0156  62.5 N   17? 209.18 190.0   53 301 133  91
   2024 07 23 20:40  12 55 18.81    +49 07 39.7    77247 1.0156  62.4 N   17? 215.60 189.4   51 301 133  91
   2024 07 23 20:50  12 54 43.25    +48 31 37.5    76218 1.0156  62.3 A   17? 222.28 188.8   49 300 134  91
   2024 07 23 21:00  12 54 09.40    +47 54 24.1    75180 1.0156  62.2 A   17? 229.24 188.2   47 300 134  91
   2024 07 23 21:10  12 53 37.30    +47 15 56.8    74131 1.0156  62.1 A   17? 236.52 187.6   45 299 135  91
   2024 07 23 21:20  12 53 06.97    +46 36 12.4    73072 1.0156  62.0 Am  17? 244.12 187.0   44 299 135  91
   2024 07 23 21:30  12 52 38.45    +45 55 07.7    72002 1.0156  61.9 Am  17? 252.10 186.4   42 299 136  91
   2024 07 23 21:40  12 52 11.75    +45 12 38.8    70920 1.0156  61.8  m  17? 260.48 185.9   40 299 136  91
   2024 07 23 21:50  12 51 46.88    +44 28 41.8    69826 1.0156  61.7  m  17? 269.30 185.3   38 299 137  91
   2024 07 23 22:00  12 51 23.85    +43 43 12.1    68720 1.0156  61.7  m  17? 278.61 184.8   36 299 137  91
   2024 07 23 22:10  12 51 02.68    +42 56 04.9    67601 1.0156  61.6  m  17? 288.45 184.3   34 299 138  91
   2024 07 23 22:20  12 50 43.34    +42 07 14.5    66468 1.0156  61.6  m  17? 298.89 183.8   31 300 138  91
   2024 07 23 22:30  12 50 25.85    +41 16 35.0    65320 1.0156  61.6  m  17? 309.99 183.3   29 300 139  91
   2024 07 23 22:40  12 50 10.19    +40 23 59.6    64158 1.0156  61.5  m  17? 321.81 182.9   27 300 139  91
   2024 07 23 22:50  12 49 56.33    +39 29 20.7    62980 1.0156  61.5  m  17? 334.45 182.5   25 301 140  91
   2024 07 23 23:00  12 49 44.27    +38 32 29.9    61785 1.0156  61.5  m  16? 347.99 182.1   23 301 140  91
   2024 07 23 23:10  12 49 33.96    +37 33 17.8    60574 1.0156  61.6  m  16? 362.55 181.7   21 301 141  91
   2024 07 23 23:20  12 49 25.39    +36 31 33.7    59344 1.0156  61.6  m  16? 378.26 181.3   18 302 141  91
   2024 07 23 23:30  12 49 18.50    +35 27 05.7    58096 1.0156  61.7  m  16? 395.25 181.0   16 302 142  91
   2024 07 23 23:40  12 49 13.27    +34 19 40.0    56829 1.0157  61.8  m  16? 413.70 180.7   14 303 143  90
   2024 07 23 23:50  12 49 09.62    +33 09 01.4    55541 1.0157  61.9  m  16? 433.81 180.4   12 303 143  90
   2024 07 24 00:00  12 49 07.51    +31 54 52.1    54232 1.0157  62.0  m  16? 455.80 180.1    9 304 144  90
   2024 07 24 00:10  12 49 06.86    +30 36 52.1    52901 1.0157  62.2  m  16? 479.96 179.9    7 304 144  90
   2024 07 24 00:20  12 49 07.60    +29 14 38.2    51547 1.0157  62.4  m  16? 506.61 179.7    4 305 145  90
   2024 07 24 00:30  12 49 09.63    +27 47 43.6    50169 1.0157  62.6  m  16? 536.13 179.5    2 305 145  90
   2024 07 24 00:40  12 49 12.84    +26 15 37.4    48765 1.0157  62.8  m  16? 569.00 179.4    0 306 146  90
   ................
   2024 07 24 04:30  01 37 58.82    -37 56 39.9    12538 1.0158 109.0 Nr  13? 6812.5 353.4    9 165  46  90
   2024 07 24 04:40  01 29 40.16    -20 27 50.8    13265 1.0158 106.9 Cm  13? 5776.7 354.7   27 165  40  89
   2024 07 24 04:50  01 24 29.71    -06 05 15.9    14578 1.0158 103.8 Cm  13? 4620.4 355.2   42 166  39  89
   ................
   2024 07 24 19:50  02 23 33.56    +83 49 53.6   121214 1.0155  70.2 C   18? 102.83  32.7   35   2  92  84
   2024 07 24 20:00  02 29 21.22    +84 04 21.6   121777 1.0155  70.0 C   18? 102.77  33.5   35   2  92  84
   2024 07 24 20:10  02 35 30.91    +84 18 41.2   122333 1.0155  69.9 N   18? 102.68  34.4   35   2  93  84
   2024 07 24 20:20  02 42 05.02    +84 32 51.1   122882 1.0155  69.8 N   18? 102.56  35.4   35   2  93  84
   2024 07 24 20:30  02 49 06.27    +84 46 50.0   123425 1.0155  69.6 N   18? 102.42  36.5   36   2  93  84
   2024 07 24 20:40  02 56 37.77    +85 00 36.3   123960 1.0155  69.5 N   18? 102.26  37.8   36   2  93  84
   2024 07 24 20:50  03 04 43.05    +85 14 08.3   124490 1.0155  69.4 A   18? 102.06  39.1   36   2  93  84
   2024 07 24 21:00  03 13 26.11    +85 27 23.8   125012 1.0154  69.2 A   18? 101.84  40.7   36   2  94  83
   2024 07 24 21:10  03 22 51.45    +85 40 20.6   125529 1.0154  69.1 A   18? 101.60  42.4   37   2  94  83
   2024 07 24 21:20  03 33 04.09    +85 52 55.8   126039 1.0154  69.0 A   18? 101.32  44.3   37   2  94  83
   2024 07 24 21:30  03 44 09.59    +86 05 06.2   126543 1.0154  68.9 A   18? 101.02  46.4   37   1  94  83
   2024 07 24 21:40  03 56 13.95    +86 16 48.3   127041 1.0154  68.8     18? 100.69  48.8   37   1  95  83
   2024 07 24 21:50  04 09 23.45    +86 27 57.7   127533 1.0154  68.6  m  18? 100.34  51.4   37   1  95  83
   2024 07 24 22:00  04 23 44.46    +86 38 29.7   128020 1.0154  68.5  m  18?  99.95  54.4   37   1  95  83
   2024 07 24 22:10  04 39 22.91    +86 48 18.6   128500 1.0154  68.4  m  18?  99.54  57.6   37   1  95  83
   2024 07 24 22:20  04 56 23.66    +86 57 18.5   128975 1.0154  68.3  m  18?  99.11  61.2   38   1  95  83
   2024 07 24 22:30  05 14 49.62    +87 05 22.6   129444 1.0154  68.3  m  18?  98.64  65.2   38   0  96  83
   2024 07 24 22:40  05 34 40.60    +87 12 23.9   129907 1.0154  68.2  m  18?  98.15  69.4   38   0  96  83
   2024 07 24 22:50  05 55 52.11    +87 18 15.7   130365 1.0154  68.1  m  18?  97.63  74.0   38   0  96  83
   2024 07 24 23:00  06 18 14.36    +87 22 51.3   130817 1.0154  68.0  m  18?  97.08  78.8   38   0  96  83
   2024 07 24 23:10  06 41 31.85    +87 26 05.5   131264 1.0154  67.9  m  18?  96.51  83.8   38   0  96  83
   2024 07 24 23:20  07 05 23.80    +87 27 54.7   131706 1.0154  67.9  m  18?  95.91  88.9   38   0  97  83
   2024 07 24 23:30  07 29 25.85    +87 28 17.7   132142 1.0154  67.8  t  18?  95.28  93.9   38 359  97  83
   2024 07 24 23:40  07 53 12.49    +87 27 15.4   132572 1.0154  67.8  m  18?  94.63  98.9   38 359  97  83
   2024 07 24 23:50  08 16 19.92    +87 24 51.6   132998 1.0154  67.7  m  18?  93.95 103.6   38 359  97  83
   2024 07 25 00:00  08 38 28.35    +87 21 11.9   133417 1.0154  67.7  m  18?  93.24 108.0   38 359  97  83
   2024 07 25 00:10  08 59 23.47    +87 16 23.3   133832 1.0154  67.6  m  18?  92.51 112.2   38 359  97  82
   2024 07 25 00:20  09 18 56.64    +87 10 33.6   134241 1.0154  67.6  m  18?  91.75 116.0   38 358  98  82
   2024 07 25 00:30  09 37 04.37    +87 03 50.8   134645 1.0154  67.5  m  18?  90.97 119.4   37 358  98  82
   2024 07 25 00:40  09 53 47.20    +86 56 22.7   135043 1.0154  67.5  m  18?  90.17 122.5   37 358  98  82
   2024 07 25 00:50  10 09 08.53    +86 48 16.5   135436 1.0154  67.5  m  18?  89.34 125.3   37 358  98  82
   2024 07 25 01:00  10 23 13.51    +86 39 38.7   135824 1.0154  67.5  m  18?  88.49 127.8   37 358  98  82
   2024 07 25 01:10  10 36 08.20    +86 30 35.1   136206 1.0154  67.4  m  18?  87.61 130.0   37 358  98  82
   2024 07 25 01:20  10 47 58.98    +86 21 10.6   136583 1.0154  67.4  m  18?  86.71 132.0   37 358  99  82
   2024 07 25 01:30  10 58 52.10    +86 11 29.6   136954 1.0154  67.4  m  18?  85.79 133.8   37 358  99  82
   2024 07 25 01:40  11 08 53.46    +86 01 35.9   137320 1.0154  67.4  m  18?  84.84 135.3   37 357  99  82
   2024 07 25 01:50  11 18 08.52    +85 51 32.5   137680 1.0154  67.4  m  18?  83.88 136.7   36 357  99  82
   2024 07 25 02:00  11 26 42.17    +85 41 22.4   138034 1.0154  67.4  m  18?  82.89 137.9   36 357  99  82
   2024 07 25 02:10  11 34 38.82    +85 31 07.7   138383 1.0154  67.4  m  18?  81.89 139.0   36 357  99  82
   2024 07 25 02:20  11 42 02.36    +85 20 50.6   138727 1.0154  67.4  m  18?  80.86 140.0   36 357  99  82
   2024 07 25 02:30  11 48 56.22    +85 10 32.8   139064 1.0154  67.4  m  18?  79.81 140.8   36 357  99  82
   2024 07 25 02:40  11 55 23.42    +85 00 15.8   139396 1.0154  67.4  m  18?  78.74 141.5   36 357 100  82
   2024 07 25 02:50  12 01 26.61    +84 50 00.9   139722 1.0154  67.5  m  18?  77.66 142.2   35 357 100  82
   2024 07 25 03:00  12 07 08.12    +84 39 49.3   140043 1.0154  67.5  m  18?  76.55 142.8   35 358 100  82
   2024 07 25 03:10  12 12 29.98    +84 29 42.0   140357 1.0154  67.5 Am  18?  75.43 143.3   35 358 100  82
   2024 07 25 03:20  12 17 33.97    +84 19 39.8   140665 1.0154  67.5 Am  18?  74.29 143.7   35 358 100  82
   2024 07 25 03:30  12 22 21.68    +84 09 43.5   140968 1.0154  67.6 Am  18?  73.14 144.1   35 358 100  82
   2024 07 25 03:40  12 26 54.48    +83 59 53.9   141264 1.0154  67.6 Am  18?  71.97 144.4   34 358 100  82
   2024 07 25 03:50  12 31 13.58    +83 50 11.4   141554 1.0154  67.6 Am  18?  70.78 144.7   34 358 100  81
   2024 07 25 04:00  12 35 20.05    +83 40 36.7   141838 1.0154  67.7 Nm  18?  69.58 145.0   34 358 100  81
   2024 07 25 04:10  12 39 14.85    +83 31 10.2   142116 1.0154  67.7 Nm  18?  68.36 145.2   34 358 100  81
   2024 07 25 04:20  12 42 58.81    +83 21 52.3   142387 1.0154  67.8 Nm  18?  67.13 145.4   34 359 100  81
   2024 07 25 04:30  12 46 32.67    +83 12 43.4   142652 1.0154  67.8 Nm  18?  65.89 145.5   33 359 101  81
   2024 07 25 04:40  12 49 57.08    +83 03 43.8   142911 1.0153  67.8 Cm  18?  64.63 145.7   33 359 101  81
   2024 07 25 04:50  12 53 12.62    +82 54 53.8   143163 1.0153  67.9 Cm  18?  63.37 145.8   33 359 101  81
   ................
   2024 07 25 19:50  12 50 43.59    +73 23 42.4   140415 1.0153  64.9 C   18?  77.18 193.0   51 340 106  75
   2024 07 25 20:00  12 50 04.10    +73 11 05.2   140184 1.0153  64.8 C   18?  78.10 192.0   50 340 106  75
   2024 07 25 20:10  12 49 27.67    +72 58 16.4   139950 1.0153  64.7 N   18?  78.98 191.0   50 339 106  74
   2024 07 25 20:20  12 48 54.31    +72 45 16.4   139713 1.0153  64.6 N   18?  79.84 190.1   49 338 107  74
   2024 07 25 20:30  12 48 24.02    +72 32 05.6   139473 1.0153  64.5 N   18?  80.68 189.1   48 337 107  74
   2024 07 25 20:40  12 47 56.78    +72 18 44.5   139230 1.0153  64.4 N   18?  81.49 188.1   48 337 107  74
   2024 07 25 20:50  12 47 32.57    +72 05 13.5   138983 1.0153  64.3 A   18?  82.28 187.2   47 336 107  74
   2024 07 25 21:00  12 47 11.37    +71 51 33.1   138733 1.0153  64.2 A   18?  83.04 186.2   46 335 107  74
   2024 07 25 21:10  12 46 53.15    +71 37 43.8   138480 1.0153  64.1 A   18?  83.77 185.3   45 335 107  74
   2024 07 25 21:20  12 46 37.87    +71 23 46.0   138223 1.0153  64.1 A   18?  84.48 184.4   45 334 108  74
   2024 07 25 21:30  12 46 25.50    +71 09 40.1   137962 1.0153  64.0 A   18?  85.16 183.4   44 334 108  74
   2024 07 25 21:40  12 46 15.98    +70 55 26.8   137697 1.0153  63.9     18?  85.81 182.5   43 334 108  74
   2024 07 25 21:50  12 46 09.27    +70 41 06.4   137429 1.0153  63.8     18?  86.44 181.6   42 333 108  74
   2024 07 25 22:00  12 46 05.32    +70 26 39.4   137156 1.0153  63.7     18?  87.05 180.7   41 333 108  74
   2024 07 25 22:10  12 46 04.06    +70 12 06.3   136879 1.0153  63.7  m  18?  87.63 179.8   40 333 109  74
   2024 07 25 22:20  12 46 05.45    +69 57 27.6   136598 1.0153  63.6  m  18?  88.18 179.0   39 333 109  73
   2024 07 25 22:30  12 46 09.42    +69 42 43.6   136313 1.0153  63.5  m  18?  88.71 178.1   39 333 109  73
   2024 07 25 22:40  12 46 15.90    +69 27 54.9   136023 1.0153  63.5  m  18?  89.21 177.3   38 333 109  73
   2024 07 25 22:50  12 46 24.84    +69 13 02.0   135728 1.0153  63.4  m  18?  89.68 176.4   37 333 109  73
   2024 07 25 23:00  12 46 36.16    +68 58 05.2   135428 1.0153  63.4  m  18?  90.13 175.6   36 333 110  73
   2024 07 25 23:10  12 46 49.80    +68 43 05.0   135123 1.0153  63.3  m  18?  90.56 174.8   35 333 110  73
   2024 07 25 23:20  12 47 05.69    +68 28 01.8   134813 1.0153  63.3  m  18?  90.96 174.0   34 333 110  73
   2024 07 25 23:30  12 47 23.75    +68 12 56.1   134497 1.0153  63.3  m  18?  91.33 173.2   33 333 110  73
   2024 07 25 23:40  12 47 43.91    +67 57 48.2   134176 1.0153  63.2  m  18?  91.68 172.4   32 334 110  73
   2024 07 25 23:50  12 48 06.11    +67 42 38.6   133849 1.0153  63.2  m  18?  92.01 171.6   31 334 111  73
   2024 07 26 00:00  12 48 30.27    +67 27 27.6   133516 1.0153  63.2  m  18?  92.31 170.9   30 334 111  73
   2024 07 26 00:10  12 48 56.32    +67 12 15.6   133177 1.0153  63.1  m  18?  92.59 170.1   29 335 111  73
   2024 07 26 00:20  12 49 24.18    +66 57 03.0   132832 1.0153  63.1  m  18?  92.85 169.4   29 335 111  73
   2024 07 26 00:30  12 49 53.78    +66 41 50.1   132480 1.0153  63.1  m  18?  93.08 168.7   28 335 111  73
   2024 07 26 00:40  12 50 25.05    +66 26 37.3   132121 1.0153  63.1  m  18?  93.29 168.0   27 336 112  73
   2024 07 26 00:50  12 50 57.92    +66 11 24.8   131755 1.0153  63.1  m  18?  93.48 167.3   26 336 112  72
   2024 07 26 01:00  12 51 32.31    +65 56 13.1   131382 1.0153  63.1  m  18?  93.64 166.6   25 337 112  72
   2024 07 26 01:10  12 52 08.16    +65 41 02.4   131002 1.0153  63.1  m  18?  93.79 165.9   24 338 112  72
   2024 07 26 01:20  12 52 45.38    +65 25 52.9   130614 1.0153  63.1  m  18?  93.91 165.3   23 338 112  72
   2024 07 26 01:30  12 53 23.91    +65 10 45.0   130219 1.0153  63.1  m  18?  94.01 164.7   22 339 113  72
   2024 07 26 01:40  12 54 03.67    +64 55 38.9   129815 1.0153  63.1  m  18?  94.09 164.0   22 339 113  72
   2024 07 26 01:50  12 54 44.61    +64 40 34.8   129403 1.0153  63.2  m  18?  94.15 163.4   21 340 113  72
   2024 07 26 02:00  12 55 26.63    +64 25 33.0   128983 1.0153  63.2  m  18?  94.19 162.9   20 341 113  72
   2024 07 26 02:10  12 56 09.69    +64 10 33.7   128554 1.0153  63.2  m  18?  94.22 162.3   19 342 113  72
   2024 07 26 02:20  12 56 53.70    +63 55 37.1   128116 1.0153  63.2  m  18?  94.22 161.7   19 342 114  72
   2024 07 26 02:30  12 57 38.60    +63 40 43.2   127670 1.0153  63.3  m  18?  94.20 161.2   18 343 114  72
   2024 07 26 02:40  12 58 24.32    +63 25 52.4   127214 1.0153  63.3  m  18?  94.17 160.7   17 344 114  72
   2024 07 26 02:50  12 59 10.80    +63 11 04.7   126748 1.0153  63.4  m  18?  94.12 160.2   17 345 114  72
   2024 07 26 03:00  12 59 57.96    +62 56 20.2   126273 1.0153  63.4  m  18?  94.05 159.7   16 346 114  72
   2024 07 26 03:10  13 00 45.75    +62 41 39.1   125789 1.0153  63.4  m  18?  93.96 159.3   15 347 114  72
   2024 07 26 03:20  13 01 34.08    +62 27 01.5   125294 1.0153  63.5 Am  18?  93.86 158.8   15 348 115  72
   2024 07 26 03:30  13 02 22.91    +62 12 27.3   124788 1.0153  63.6 Am  18?  93.75 158.4   14 349 115  72
   2024 07 26 03:40  13 03 12.17    +61 57 56.8   124273 1.0153  63.6 Am  18?  93.62 158.0   14 350 115  72
   2024 07 26 03:50  13 04 01.79    +61 43 29.8   123746 1.0153  63.7 Am  18?  93.48 157.6   13 351 115  72
   2024 07 26 04:00  13 04 51.71    +61 29 06.4   123209 1.0153  63.7 Nm  18?  93.32 157.3   13 352 115  71
   2024 07 26 04:10  13 05 41.86    +61 14 46.6   122661 1.0153  63.8 Nm  18?  93.15 157.0   12 353 116  71
   2024 07 26 04:20  13 06 32.19    +61 00 30.4   122101 1.0153  63.9 Nm  18?  92.97 156.7   12 354 116  71
   2024 07 26 04:30  13 07 22.64    +60 46 17.7   121530 1.0153  63.9 Nm  18?  92.78 156.4   11 355 116  71
   2024 07 26 04:40  13 08 13.13    +60 32 08.5   120948 1.0153  64.0 Cm  18?  92.59 156.1   11 356 116  71
   2024 07 26 04:50  13 09 03.62    +60 18 02.6   120354 1.0153  64.1 Cm  18?  92.38 155.9   11 357 116  71
   ................
   2024 07 26 21:50  01 51 01.85    +31 41 13.8    34078 1.0155  86.9  r  15? 1158.9   0.9    1  47  26  63
   2024 07 26 22:00  01 51 15.30    +34 45 00.9    35707 1.0155  85.8     15? 1048.6   1.1    5  47  29  63
   2024 07 26 22:10  01 51 30.47    +37 31 48.0    37320 1.0155  84.8     15? 954.61   1.2    8  46  31  63
   2024 07 26 22:20  01 51 46.57    +40 04 02.6    38916 1.0155  83.9     15? 873.85   1.3   11  46  34  63
   2024 07 26 22:30  01 52 02.99    +42 23 45.1    40492 1.0155  83.0  m  15? 803.96   1.4   14  46  36  63
   2024 07 26 22:40  01 52 19.24    +44 32 34.5    42049 1.0155  82.3  m  15? 743.05   1.4   17  45  38  63
   2024 07 26 22:50  01 52 34.90    +46 31 53.1    43586 1.0155  81.6  m  15? 689.60   1.4   20  45  40  62
   2024 07 26 23:00  01 52 49.62    +48 22 49.4    45102 1.0155  80.9  m  15? 642.42   1.4   22  44  41  62
   2024 07 26 23:10  01 53 03.08    +50 06 20.9    46599 1.0155  80.3  m  15? 600.52   1.3   24  44  43  62
   2024 07 26 23:20  01 53 15.02    +51 43 16.6    48075 1.0155  79.8  m  15? 563.10   1.2   27  43  44  62
   2024 07 26 23:30  01 53 25.18    +53 14 17.7    49532 1.0155  79.3  m  15? 529.52   1.0   29  42  46  62
   2024 07 26 23:40  01 53 33.34    +54 39 59.9    50970 1.0155  78.9  m  16? 499.22   0.8   31  42  47  62
   2024 07 26 23:50  01 53 39.27    +56 00 53.8    52389 1.0155  78.5  m  16? 471.76   0.6   33  41  48  62
   2024 07 27 00:00  01 53 42.79    +57 17 25.7    53790 1.0155  78.1  m  16? 446.77   0.4   34  40  50  62
   2024 07 27 00:10  01 53 43.68    +58 29 58.6    55173 1.0155  77.7  m  16? 423.93   0.1   36  40  51  62
   2024 07 27 00:20  01 53 41.77    +59 38 52.7    56539 1.0155  77.4  m  16? 402.98 359.7   38  39  52  62
   2024 07 27 00:30  01 53 36.88    +60 44 25.4    57887 1.0155  77.1  m  16? 383.68 359.4   39  38  53  62
   2024 07 27 00:40  01 53 28.82    +61 46 52.3    59219 1.0155  76.8  m  16? 365.86 359.0   41  37  54  62
   2024 07 27 00:50  01 53 17.42    +62 46 27.0    60535 1.0155  76.6  m  16? 349.33 358.6   42  36  55  62
   2024 07 27 01:00  01 53 02.50    +63 43 21.7    61835 1.0155  76.3  m  16? 333.97 358.2   43  35  55  61
   2024 07 27 01:10  01 52 43.91    +64 37 47.2    63120 1.0155  76.1  m  16? 319.64 357.7   44  34  56  61
   2024 07 27 01:20  01 52 21.46    +65 29 53.1    64390 1.0154  75.9  m  16? 306.24 357.3   45  33  57  61
   2024 07 27 01:30  01 51 55.01    +66 19 48.0    65646 1.0154  75.8  m  16? 293.67 356.8   46  31  58  61
   2024 07 27 01:40  01 51 24.37    +67 07 39.7    66887 1.0154  75.6  m  16? 281.86 356.2   47  30  59  61
   2024 07 27 01:50  01 50 49.40    +67 53 35.1    68114 1.0154  75.5  m  16? 270.73 355.7   48  29  59  61
   2024 07 27 02:00  01 50 09.94    +68 37 40.6    69328 1.0154  75.3  m  16? 260.22 355.1   49  27  60  61
   2024 07 27 02:10  01 49 25.83    +69 20 01.8    70528 1.0154  75.2  m  16? 250.28 354.5   50  26  61  61
   2024 07 27 02:20  01 48 36.92    +70 00 44.0    71716 1.0154  75.1  m  16? 240.85 353.9   51  24  61  61
   2024 07 27 02:30  01 47 43.06    +70 39 51.8    72891 1.0154  75.0  m  16? 231.89 353.2   51  23  62  61
   2024 07 27 02:40  01 46 44.13    +71 17 29.5    74053 1.0154  74.9  m  16? 223.37 352.5   52  21  62  61
   2024 07 27 02:50  01 45 39.98    +71 53 41.2    75203 1.0154  74.8  m  17? 215.24 351.8   52  20  63  61
   2024 07 27 03:00  01 44 30.50    +72 28 30.4    76340 1.0154  74.8  m  17? 207.48 351.1   52  18  63  61
   2024 07 27 03:10  01 43 15.56    +73 02 00.4    77466 1.0154  74.7  m  17? 200.06 350.4   53  16  64  61
   2024 07 27 03:20  01 41 55.07    +73 34 14.3    78580 1.0154  74.7 Am  17? 192.95 349.6   53  15  64  61
   2024 07 27 03:30  01 40 28.93    +74 05 15.0    79683 1.0154  74.6 Am  17? 186.14 348.8   53  13  65  61
   2024 07 27 03:40  01 38 57.07    +74 35 05.2    80774 1.0154  74.6 Am  17? 179.60 348.0   53  12  65  61
   2024 07 27 03:50  01 37 19.43    +75 03 47.3    81853 1.0154  74.5 Am  17? 173.31 347.2   53  10  66  60
   2024 07 27 04:00  01 35 35.96    +75 31 23.6    82922 1.0154  74.5 Ne  17? 167.26 346.4   53   9  66  60
   2024 07 27 04:10  01 33 46.64    +75 57 56.4    83980 1.0154  74.5 Nm  17? 161.43 345.5   53   7  66  60
   2024 07 27 04:20  01 31 51.47    +76 23 27.6    85026 1.0154  74.5 Nm  17? 155.81 344.7   53   6  67  60
   2024 07 27 04:30  01 29 50.46    +76 47 59.3    86062 1.0154  74.5 Nm  17? 150.38 343.8   53   5  67  60
   2024 07 27 04:40  01 27 43.67    +77 11 33.3    87087 1.0154  74.5 Cm  17? 145.15 342.9   53   3  67  60
   2024 07 27 04:50  01 25 31.18    +77 34 11.5    88101 1.0154  74.5 Cm  17? 140.09 342.0   53   2  68  60
   2024 07 27 05:00  01 23 13.07    +77 55 55.5    89105 1.0154  74.4 Cm  17? 135.19 341.1   52   1  68  60
   ................
   2024 07 27 19:50  11 09 29.53    +86 43 11.8   141191 1.0151  68.4 C   18?  79.13 165.9   41 355  79  53
   2024 07 27 20:00  11 13 13.18    +86 30 24.2   141456 1.0151  68.3 C   18?  79.53 165.9   41 355  79  53
   2024 07 27 20:10  11 16 43.35    +86 17 32.6   141716 1.0151  68.2 N   18?  79.89 165.9   41 355  79  53
   2024 07 27 20:20  11 20 02.25    +86 04 37.6   141972 1.0151  68.1 N   18?  80.22 165.9   41 354  80  53
   2024 07 27 20:30  11 23 11.61    +85 51 39.6   142224 1.0151  67.9 N   18?  80.52 165.8   41 354  80  52
   2024 07 27 20:40  11 26 12.87    +85 38 39.1   142471 1.0151  67.8 N   18?  80.80 165.7   41 354  80  52
   2024 07 27 20:50  11 29 07.16    +85 25 36.5   142713 1.0151  67.7 A   18?  81.04 165.5   41 353  80  52
   2024 07 27 21:00  11 31 55.45    +85 12 32.2   142951 1.0151  67.6 A   18?  81.25 165.3   41 353  80  52
   2024 07 27 21:10  11 34 38.51    +84 59 26.7   143185 1.0151  67.5 A   18?  81.43 165.1   41 353  80  52
   2024 07 27 21:20  11 37 17.00    +84 46 20.4   143414 1.0151  67.4 A   18?  81.57 164.9   40 352  80  52
   2024 07 27 21:30  11 39 51.47    +84 33 13.6   143640 1.0151  67.3     18?  81.69 164.6   40 352  81  52
   2024 07 27 21:40  11 42 22.37    +84 20 06.8   143860 1.0151  67.2     18?  81.78 164.4   40 352  81  52
   2024 07 27 21:50  11 44 50.10    +84 07 00.2   144077 1.0151  67.1     18?  81.83 164.1   40 352  81  52
   2024 07 27 22:00  11 47 14.99    +83 53 54.4   144289 1.0151  67.0     18?  81.86 163.8   40 351  81  52
   2024 07 27 22:10  11 49 37.30    +83 40 49.7   144496 1.0151  67.0     18?  81.85 163.4   39 351  81  52
   2024 07 27 22:20  11 51 57.30    +83 27 46.4   144699 1.0151  66.9     18?  81.82 163.1   39 351  81  51
   2024 07 27 22:30  11 54 15.17    +83 14 44.9   144898 1.0151  66.8     18?  81.75 162.8   39 351  82  51
   2024 07 27 22:40  11 56 31.09    +83 01 45.6   145092 1.0151  66.7     18?  81.66 162.4   38 351  82  51
   2024 07 27 22:50  11 58 45.21    +82 48 48.8   145282 1.0151  66.7     18?  81.53 162.1   38 350  82  51
   2024 07 27 23:00  12 00 57.66    +82 35 54.9   145467 1.0151  66.6  m  18?  81.38 161.7   38 350  82  51
   2024 07 27 23:10  12 03 08.54    +82 23 04.2   145648 1.0151  66.5  m  18?  81.19 161.3   37 350  82  51
   2024 07 27 23:20  12 05 17.95    +82 10 17.1   145824 1.0151  66.5  m  18?  80.98 161.0   37 350  82  51
   2024 07 27 23:30  12 07 25.97    +81 57 33.8   145995 1.0151  66.4  m  18?  80.73 160.6   37 350  83  51
   2024 07 27 23:40  12 09 32.65    +81 44 54.7   146162 1.0151  66.4  m  18?  80.46 160.2   36 350  83  51
   2024 07 27 23:50  12 11 38.07    +81 32 20.2   146324 1.0151  66.3  m  18?  80.16 159.8   36 350  83  51
   2024 07 28 00:00  12 13 42.25    +81 19 50.5   146481 1.0151  66.3  m  18?  79.83 159.4   36 350  83  51
   

Spektr-R Observatory (JPL-ID: -557)

   Date (UTC) HH:MM   RA              Dec         delta   r     elong SM  mag  '/hr    PA   alt  az moo ill
   ---- -- -- -----  -------------   -----------  ------ ------ ----- --  --- ------ ------ --- --- --- ---
   2024 07 14 03:00  07 27 17.92    +40 11 28.4   175336 1.0154  18.5 A   16?  61.49  71.8    0  30  96  51
   2024 07 14 03:10  07 28 08.23    +40 14 44.6   176106 1.0154  18.6 A   16?  60.42  71.3    0  32  96  51
   2024 07 14 03:20  07 28 57.53    +40 18 02.6   176867 1.0154  18.6 A   16?  59.34  70.8    1  33  96  51
   2024 07 14 03:30  07 29 45.82    +40 21 22.3   177621 1.0154  18.7 A   16?  58.26  70.2    2  34  96  51
   2024 07 14 03:40  07 30 33.09    +40 24 43.5   178366 1.0154  18.7 A   16?  57.16  69.7    3  36  96  51
   2024 07 14 03:50  07 31 19.33    +40 28 06.1   179104 1.0154  18.8 N   16?  56.06  69.1    4  37  96  51
   2024 07 14 04:00  07 32 04.53    +40 31 29.8   179835 1.0154  18.8 N   16?  54.95  68.6    5  39  96  52
   2024 07 14 04:10  07 32 48.69    +40 34 54.6   180558 1.0154  18.9 N   16?  53.84  68.0    6  40  96  52
   2024 07 14 04:20  07 33 31.80    +40 38 20.2   181275 1.0154  18.9 N   16?  52.72  67.4    8  41  96  52
   2024 07 14 04:30  07 34 13.85    +40 41 46.4   181985 1.0153  19.0 C   16?  51.59  66.8    9  42  96  52
   2024 07 14 04:40  07 34 54.85    +40 45 13.2   182688 1.0153  19.1 C   16?  50.46  66.2   10  44  96  52
   ................
   2024 07 14 20:00  08 00 04.92    +41 42 56.1   246988 1.0149  20.7 Cm  17?  29.41 109.3   14 313  99  58
   2024 07 14 20:10  08 00 29.95    +41 41 21.7   247721 1.0149  20.7 Cm  17?  29.86 108.6   13 314  99  58
   2024 07 14 20:20  08 00 55.45    +41 39 49.4   248450 1.0149  20.7 Nm  17?  30.30 107.9   11 315  99  58
   2024 07 14 20:30  08 01 21.40    +41 38 19.3   249174 1.0149  20.7 Nm  17?  30.72 107.2   10 317  99  58
   2024 07 14 20:40  08 01 47.79    +41 36 51.6   249893 1.0149  20.7 Nm  17?  31.12 106.5    9 318  99  58
   2024 07 14 20:50  08 02 14.60    +41 35 26.5   250607 1.0149  20.7 Nm  17?  31.50 105.8    8 319  99  58
   2024 07 14 21:00  08 02 41.82    +41 34 04.0   251316 1.0149  20.7 Am  17?  31.87 105.1    6 321  99  58
   2024 07 14 21:10  08 03 09.43    +41 32 44.3   252019 1.0149  20.7 Am  17?  32.22 104.4    5 322  98  58
   2024 07 14 21:20  08 03 37.41    +41 31 27.6   252716 1.0149  20.7 Am  17?  32.55 103.7    4 323  98  58
   2024 07 14 21:30  08 04 05.75    +41 30 13.9   253408 1.0149  20.7 Am  17?  32.86 103.0    3 325  98  58
   2024 07 14 21:40  08 04 34.41    +41 29 03.4   254094 1.0149  20.7 Am  17?  33.16 102.3    2 326  98  59
   2024 07 14 21:50  08 05 03.39    +41 27 56.2   254773 1.0149  20.7  m  17?  33.43 101.6    1 328  98  59
   2024 07 14 22:00  08 05 32.67    +41 26 52.4   255445 1.0149  20.7  m  17?  33.69 100.9    0 329  98  59
   2024 07 14 22:10  08 06 02.22    +41 25 52.1   256111 1.0149  20.7  m  17?  33.92 100.3    0 331  98  59
   ................
   2024 07 15 03:40  08 22 26.84    +41 29 40.5   273735 1.0148  22.0 A   17?  30.00  77.1    0  28  98  61
   2024 07 15 03:50  08 22 52.64    +41 30 50.8   274138 1.0148  22.0 N   17?  29.55  76.3    0  29  98  61
   2024 07 15 04:00  08 23 17.96    +41 32 04.0   274534 1.0147  22.1 N   17?  29.10  75.5    1  31  98  61
   2024 07 15 04:10  08 23 42.80    +41 33 20.0   274923 1.0147  22.1 N   17?  28.63  74.7    2  32  98  61
   2024 07 15 04:20  08 24 07.15    +41 34 38.5   275307 1.0147  22.2 N   17?  28.14  73.9    3  34  98  61
   2024 07 15 04:30  08 24 30.98    +41 35 59.5   275684 1.0147  22.2 C   17?  27.64  73.1    4  35  98  61
   2024 07 15 04:40  08 24 54.29    +41 37 22.9   276056 1.0147  22.3 C   17?  27.13  72.2    5  37  98  61
   ................
   2024 07 15 20:00  08 36 14.34    +41 46 01.7   313356 1.0145  23.4 Cm  17?  18.86 121.7   19 309 104  68
   2024 07 15 20:10  08 36 28.98    +41 44 24.1   313863 1.0145  23.4 Cm  17?  19.26 120.6   17 310 104  68
   2024 07 15 20:20  08 36 44.09    +41 42 47.7   314366 1.0145  23.4 Nm  17?  19.66 119.5   16 311 104  68
   2024 07 15 20:30  08 36 59.66    +41 41 12.6   314867 1.0145  23.4 Nm  17?  20.04 118.4   14 312 104  68
   2024 07 15 20:40  08 37 15.68    +41 39 38.9   315365 1.0145  23.4 Nm  17?  20.42 117.4   13 314 104  68
   2024 07 15 20:50  08 37 32.14    +41 38 06.8   315858 1.0145  23.4 Nm  17?  20.79 116.3   12 315 104  68
   2024 07 15 21:00  08 37 49.02    +41 36 36.4   316348 1.0145  23.4 Am  17?  21.14 115.3   10 316 104  68
   2024 07 15 21:10  08 38 06.33    +41 35 07.9   316834 1.0145  23.4 Am  17?  21.49 114.3    9 317 104  68
   2024 07 15 21:20  08 38 24.04    +41 33 41.4   317315 1.0145  23.4 Am  17?  21.82 113.3    8 319 104  68
   2024 07 15 21:30  08 38 42.14    +41 32 16.9   317792 1.0145  23.4 Am  17?  22.15 112.4    7 320 104  68
   2024 07 15 21:40  08 39 00.63    +41 30 54.7   318264 1.0145  23.4 Am  17?  22.46 111.4    5 322 104  68
   2024 07 15 21:50  08 39 19.48    +41 29 34.9   318731 1.0145  23.5  m  17?  22.75 110.5    4 323 104  68
   2024 07 15 22:00  08 39 38.68    +41 28 17.5   319192 1.0145  23.5  m  17?  23.04 109.5    3 325 104  68
   2024 07 15 22:10  08 39 58.21    +41 27 02.7   319649 1.0145  23.5  m  17?  23.31 108.6    2 326 104  68
   2024 07 15 22:20  08 40 18.07    +41 25 50.6   320099 1.0145  23.5  m  17?  23.56 107.7    1 328 104  68
   2024 07 15 22:30  08 40 38.23    +41 24 41.2   320543 1.0145  23.5  m  17?  23.80 106.8    0 329 104  68
   2024 07 15 22:40  08 40 58.68    +41 23 34.7   320981 1.0145  23.5  m  17?  24.03 105.9    0 331 104  68
   ................
   2024 07 16 04:10  08 52 52.55    +41 18 19.3   331354 1.0144  24.8 N   17?  22.02  78.7    0  28 104  70
   2024 07 16 04:20  08 53 11.58    +41 19 04.8   331545 1.0144  24.9 N   17?  21.68  77.8    0  30 104  70
   2024 07 16 04:30  08 53 30.26    +41 19 52.8   331729 1.0144  24.9 C   17?  21.33  76.9    1  31 104  70
   2024 07 16 04:40  08 53 48.56    +41 20 43.2   331907 1.0144  24.9 C   17?  20.97  76.0    2  33 104  70
   2024 07 16 04:50  08 54 06.47    +41 21 36.0   332080 1.0144  25.0 C   17?  20.60  75.1    3  34 104  70
   ................
   2024 07 16 20:00  09 01 12.90    +41 18 12.9   351603 1.0142  25.6 Cm  17?  15.10 129.8   21 306 111  76
   2024 07 16 20:10  09 01 23.48    +41 16 37.0   351944 1.0142  25.6 Cm  17?  15.46 128.4   20 307 111  76
   2024 07 16 20:20  09 01 34.51    +41 15 01.7   352284 1.0142  25.6 Nm  17?  15.82 127.1   18 308 111  77
   2024 07 16 20:30  09 01 45.98    +41 13 27.2   352621 1.0142  25.6 Nm  17?  16.17 125.8   17 309 111  77
   2024 07 16 20:40  09 01 57.88    +41 11 53.7   352956 1.0142  25.6 Nm  17?  16.52 124.5   16 310 111  77
   2024 07 16 20:50  09 02 10.22    +41 10 21.2   353288 1.0142  25.7 Nm  17?  16.86 123.2   14 312 111  77
   2024 07 16 21:00  09 02 22.97    +41 08 49.9   353617 1.0142  25.7 Am  17?  17.19 122.0   13 313 111  77
   2024 07 16 21:10  09 02 36.13    +41 07 20.0   353942 1.0142  25.7 Am  17?  17.52 120.8   11 314 111  77
   2024 07 16 21:20  09 02 49.70    +41 05 51.5   354264 1.0142  25.7 Am  17?  17.84 119.6   10 316 111  77
   2024 07 16 21:30  09 03 03.67    +41 04 24.5   354582 1.0142  25.7 Am  17?  18.15 118.5    9 317 111  77
   2024 07 16 21:40  09 03 18.01    +41 02 59.3   354896 1.0142  25.7 Am  17?  18.45 117.4    8 318 111  77
   2024 07 16 21:50  09 03 32.74    +41 01 35.9   355206 1.0142  25.7  m  17?  18.74 116.3    6 320 111  77
   2024 07 16 22:00  09 03 47.82    +41 00 14.4   355511 1.0142  25.7  m  17?  19.02 115.2    5 321 111  77
   2024 07 16 22:10  09 04 03.25    +40 58 55.0   355811 1.0142  25.7  m  17?  19.29 114.1    4 323 111  77
   2024 07 16 22:20  09 04 19.02    +40 57 37.8   356105 1.0142  25.8  m  17?  19.56 113.1    3 324 111  77
   2024 07 16 22:30  09 04 35.11    +40 56 22.7   356395 1.0142  25.8  m  17?  19.81 112.1    2 326 111  77
   2024 07 16 22:40  09 04 51.52    +40 55 10.1   356679 1.0142  25.8  m  17?  20.04 111.0    1 327 111  77
   2024 07 16 22:50  09 05 08.22    +40 53 59.8   356957 1.0142  25.8  m  17?  20.27 110.0    0 329 111  77
   ................
   2024 07 17 04:40  09 15 49.07    +40 44 28.3   362216 1.0142  27.1 C   17?  18.70  79.3    0  30 112  79
   2024 07 17 04:50  09 16 05.11    +40 45 04.8   362238 1.0142  27.2 C   17?  18.39  78.4    1  32 112  79
   ................
   2024 07 17 19:50  09 21 35.79    +40 37 33.8   367337 1.0141  27.6 Cm  17?  13.28 137.2   25 302 119  84
   2024 07 17 20:00  09 21 43.95    +40 35 56.5   367537 1.0141  27.6 Cm  17?  13.63 135.6   24 303 119  84
   2024 07 17 20:10  09 21 52.56    +40 34 19.4   367736 1.0141  27.6 Cm  17?  13.97 134.1   22 304 119  85
   2024 07 17 20:20  09 22 01.60    +40 32 42.6   367934 1.0141  27.6 Nm  17?  14.30 132.6   20 305 119  85
   2024 07 17 20:30  09 22 11.07    +40 31 06.3   368130 1.0141  27.6 Nm  17?  14.64 131.1   19 307 119  85
   2024 07 17 20:40  09 22 20.98    +40 29 30.6   368324 1.0141  27.6 Nm  17?  14.97 129.7   17 308 119  85
   2024 07 17 20:50  09 22 31.30    +40 27 55.6   368516 1.0141  27.6 Nm  17?  15.30 128.3   16 309 119  85
   2024 07 17 21:00  09 22 42.05    +40 26 21.4   368705 1.0141  27.7 Am  17?  15.63 126.9   15 310 119  85
   2024 07 17 21:10  09 22 53.22    +40 24 48.2   368892 1.0141  27.7 Am  17?  15.95 125.6   13 312 119  85
   2024 07 17 21:20  09 23 04.79    +40 23 16.2   369075 1.0141  27.7 Am  17?  16.26 124.3   12 313 119  85
   2024 07 17 21:30  09 23 16.76    +40 21 45.4   369255 1.0141  27.7 Am  17?  16.57 123.0   10 314 119  85
   2024 07 17 21:40  09 23 29.12    +40 20 15.9   369431 1.0141  27.7 Am  17?  16.88 121.8    9 316 119  85
   2024 07 17 21:50  09 23 41.86    +40 18 48.0   369603 1.0141  27.7  m  17?  17.17 120.6    8 317 119  85
   2024 07 17 22:00  09 23 54.98    +40 17 21.6   369771 1.0141  27.7  m  17?  17.46 119.4    7 318 119  85
   2024 07 17 22:10  09 24 08.46    +40 15 57.0   369935 1.0141  27.7  m  17?  17.74 118.3    5 320 119  85
   2024 07 17 22:20  09 24 22.30    +40 14 34.1   370094 1.0141  27.8  m  17?  18.01 117.1    4 321 119  85
   2024 07 17 22:30  09 24 36.47    +40 13 13.2   370248 1.0141  27.8  m  17?  18.27 116.0    3 323 119  85
   2024 07 17 22:40  09 24 50.98    +40 11 54.3   370397 1.0141  27.8  m  17?  18.52 114.9    2 324 119  85
   2024 07 17 22:50  09 25 05.80    +40 10 37.6   370540 1.0141  27.8  m  17?  18.76 113.9    1 326 119  85
   2024 07 17 23:00  09 25 20.92    +40 09 23.1   370678 1.0141  27.8  m  17?  18.99 112.8    0 327 119  85
   ................
   2024 07 18 19:50  09 40 27.48    +39 41 59.3   363049 1.0141  29.6 Cm  17?  13.10 141.7   27 299 128  91
   2024 07 18 20:00  09 40 34.69    +39 40 16.4   363111 1.0141  29.6 Cm  17?  13.44 140.0   25 301 128  91
   2024 07 18 20:10  09 40 42.34    +39 38 33.4   363173 1.0141  29.6 Cm  17?  13.78 138.4   24 302 128  91
   2024 07 18 20:20  09 40 50.44    +39 36 50.4   363233 1.0141  29.6 Nm  17?  14.13 136.8   22 303 128  91
   2024 07 18 20:30  09 40 58.98    +39 35 07.6   363292 1.0141  29.6 Nm  17?  14.47 135.2   21 304 128  91
   2024 07 18 20:40  09 41 07.96    +39 33 25.2   363350 1.0141  29.6 Nm  17?  14.81 133.7   19 305 128  91
   2024 07 18 20:50  09 41 17.38    +39 31 43.1   363406 1.0141  29.6 Nm  17?  15.15 132.2   18 306 128  91
   2024 07 18 21:00  09 41 27.23    +39 30 01.7   363459 1.0141  29.6 Am  17?  15.48 130.8   16 308 128  91
   2024 07 18 21:10  09 41 37.51    +39 28 20.9   363511 1.0141  29.6 Am  17?  15.81 129.4   15 309 128  91
   2024 07 18 21:20  09 41 48.22    +39 26 41.0   363559 1.0141  29.6 Am  17?  16.14 128.0   13 310 128  91
   2024 07 18 21:30  09 41 59.35    +39 25 02.1   363604 1.0141  29.6 Am  17?  16.47 126.7   12 312 128  91
   2024 07 18 21:40  09 42 10.89    +39 23 24.3   363646 1.0141  29.6 Am  17?  16.79 125.4   10 313 128  91
   2024 07 18 21:50  09 42 22.83    +39 21 47.8   363685 1.0141  29.7  m  17?  17.10 124.1    9 314 128  91
   2024 07 18 22:00  09 42 35.18    +39 20 12.5   363720 1.0141  29.7  m  17?  17.41 122.9    8 316 128  92
   2024 07 18 22:10  09 42 47.90    +39 18 38.8   363750 1.0141  29.7  m  17?  17.71 121.7    6 317 128  92
   2024 07 18 22:20  09 43 01.01    +39 17 06.6   363776 1.0141  29.7  m  17?  18.00 120.5    5 318 128  92
   2024 07 18 22:30  09 43 14.49    +39 15 36.2   363797 1.0141  29.7  m  17?  18.28 119.4    4 320 128  92
   2024 07 18 22:40  09 43 28.32    +39 14 07.5   363814 1.0141  29.8  m  17?  18.56 118.2    3 321 128  92
   2024 07 18 22:50  09 43 42.50    +39 12 40.8   363825 1.0141  29.8  m  17?  18.82 117.1    2 323 128  92
   2024 07 18 23:00  09 43 57.01    +39 11 16.0   363831 1.0141  29.8  m  17?  19.08 116.0    1 324 128  92
   2024 07 18 23:10  09 44 11.85    +39 09 53.4   363832 1.0141  29.8  m  17?  19.32 115.0    0 326 128  92
   ................
   2024 07 19 19:50  09 59 37.12    +38 27 05.0   338048 1.0142  31.7 Cm  17?  14.17 145.0   29 296 136  96
   2024 07 19 20:00  09 59 44.14    +38 25 08.5   337961 1.0142  31.7 Cm  17?  14.54 143.3   27 298 136  96
   2024 07 19 20:10  09 59 51.64    +38 23 11.5   337875 1.0142  31.7 Cm  17?  14.92 141.6   26 299 136  96
   2024 07 19 20:20  09 59 59.61    +38 21 14.3   337787 1.0142  31.7 Nm  17?  15.29 140.0   24 300 136  96
   2024 07 19 20:30  10 00 08.06    +38 19 16.9   337699 1.0142  31.7 Nm  17?  15.67 138.4   22 301 136  96
   2024 07 19 20:40  10 00 16.98    +38 17 19.6   337609 1.0142  31.7 Nm  17?  16.04 136.9   21 302 136  96
   2024 07 19 20:50  10 00 26.38    +38 15 22.3   337518 1.0142  31.7 Nm  17?  16.42 135.4   19 303 136  96
   2024 07 19 21:00  10 00 36.25    +38 13 25.4   337425 1.0142  31.7 Am  17?  16.79 134.0   18 305 136  96
   2024 07 19 21:10  10 00 46.59    +38 11 28.9   337330 1.0142  31.7 Am  17?  17.16 132.6   16 306 136  96
   2024 07 19 21:20  10 00 57.40    +38 09 32.9   337233 1.0142  31.8 Am  17?  17.53 131.2   15 307 136  96
   2024 07 19 21:30  10 01 08.66    +38 07 37.6   337132 1.0142  31.8 Am  17?  17.90 129.9   13 308 136  96
   2024 07 19 21:40  10 01 20.38    +38 05 43.2   337029 1.0142  31.8  m  17?  18.26 128.5   12 310 136  96
   2024 07 19 21:50  10 01 32.55    +38 03 49.8   336922 1.0142  31.8  m  17?  18.61 127.3   10 311 136  96
   2024 07 19 22:00  10 01 45.17    +38 01 57.5   336812 1.0142  31.8  m  17?  18.97 126.0    9 312 136  96
   2024 07 19 22:10  10 01 58.22    +38 00 06.4   336698 1.0142  31.8  m  17?  19.31 124.8    7 314 136  96
   2024 07 19 22:20  10 02 11.69    +37 58 16.7   336579 1.0142  31.9  m  17?  19.65 123.6    6 315 136  96
   2024 07 19 22:30  10 02 25.59    +37 56 28.5   336456 1.0142  31.9  m  17?  19.98 122.5    5 317 136  96
   2024 07 19 22:40  10 02 39.89    +37 54 41.9   336329 1.0142  31.9  m  17?  20.31 121.3    4 318 136  96
   2024 07 19 22:50  10 02 54.58    +37 52 57.0   336196 1.0142  32.0  m  17?  20.62 120.2    2 320 136  96
   2024 07 19 23:00  10 03 09.67    +37 51 14.0   336059 1.0142  32.0  m  17?  20.92 119.2    1 321 136  96
   2024 07 19 23:10  10 03 25.13    +37 49 32.9   335915 1.0143  32.0  m  17?  21.22 118.1    0 323 136  96
   ................
   2024 07 20 19:50  10 21 43.55    +36 34 37.4   289316 1.0145  34.4 Cm  17?  17.54 146.9   31 292 143  99
   2024 07 20 20:00  10 21 51.51    +36 32 09.3   289046 1.0145  34.5 Cm  17?  18.00 145.4   29 294 143  99
   2024 07 20 20:10  10 22 00.02    +36 29 40.2   288776 1.0145  34.5 Cm  17?  18.46 143.8   28 295 143  99
   2024 07 20 20:20  10 22 09.07    +36 27 10.2   288506 1.0145  34.5 Nm  17?  18.93 142.3   26 296 143  99
   2024 07 20 20:30  10 22 18.68    +36 24 39.5   288236 1.0145  34.5 Nm  17?  19.39 140.9   24 297 143  99
   2024 07 20 20:40  10 22 28.84    +36 22 08.2   287964 1.0145  34.5 Nm  17?  19.86 139.4   23 298 143  99
   2024 07 20 20:50  10 22 39.56    +36 19 36.6   287691 1.0145  34.5 Nm  17?  20.34 138.0   21 299 143  99
   2024 07 20 21:00  10 22 50.83    +36 17 04.8   287416 1.0145  34.5 Am  17?  20.81 136.7   19 301 143  99
   2024 07 20 21:10  10 23 02.66    +36 14 32.8   287139 1.0145  34.6 Am  17?  21.28 135.3   18 302 143  99
   2024 07 20 21:20  10 23 15.04    +36 12 01.0   286860 1.0145  34.6 Am  17?  21.75 134.0   16 303 143  99
   2024 07 20 21:30  10 23 27.97    +36 09 29.4   286579 1.0145  34.6 Am  17?  22.22 132.8   15 304 143  99
   2024 07 20 21:40  10 23 41.45    +36 06 58.2   286294 1.0145  34.6  m  17?  22.68 131.5   13 306 143  99
   2024 07 20 21:50  10 23 55.48    +36 04 27.6   286007 1.0145  34.7  m  17?  23.15 130.3   12 307 143  99
   2024 07 20 22:00  10 24 10.04    +36 01 57.7   285715 1.0145  34.7  m  17?  23.60 129.1   10 308 143  99
   2024 07 20 22:10  10 24 25.14    +35 59 28.6   285420 1.0145  34.7  m  17?  24.06 128.0    9 310 144  99
   2024 07 20 22:20  10 24 40.76    +35 57 00.6   285121 1.0145  34.8  m  17?  24.51 126.9    7 311 144  99
   2024 07 20 22:30  10 24 56.90    +35 54 33.7   284818 1.0145  34.8  m  17?  24.95 125.8    6 313 144  99
   2024 07 20 22:40  10 25 13.55    +35 52 08.0   284510 1.0145  34.8  m  17?  25.38 124.7    4 314 144  99
   2024 07 20 22:50  10 25 30.70    +35 49 43.8   284196 1.0145  34.9  m  16?  25.81 123.6    3 316 144  99
   2024 07 20 23:00  10 25 48.35    +35 47 21.1   283878 1.0145  34.9  m  16?  26.22 122.6    2 317 144  99
   2024 07 20 23:10  10 26 06.47    +35 45 00.1   283554 1.0145  35.0  m  16?  26.63 121.6    1 319 143  99
   2024 07 20 23:20  10 26 25.06    +35 42 40.9   283225 1.0145  35.0  m  16?  27.02 120.6    0 320 143  99
   ................
   2024 07 21 19:50  10 53 33.70    +32 58 22.8   208043 1.0149  39.3 C   16?  29.29 147.2   34 285 148  99
   2024 07 21 20:00  10 53 46.24    +32 54 14.4   207487 1.0149  39.3 C   16?  30.06 146.0   32 287 148  99
   2024 07 21 20:10  10 53 59.53    +32 50 03.0   206931 1.0149  39.4 C   16?  30.84 144.8   31 288 148  99
   2024 07 21 20:20  10 54 13.57    +32 45 48.8   206374 1.0149  39.4 Nm  16?  31.63 143.6   29 289 148  99
   2024 07 21 20:30  10 54 28.38    +32 41 32.1   205816 1.0149  39.4 Nm  16?  32.43 142.5   27 290 148  99
   2024 07 21 20:40  10 54 43.96    +32 37 12.9   205257 1.0149  39.5 Nm  16?  33.23 141.4   25 291 148  99
   2024 07 21 20:50  10 55 00.33    +32 32 51.5   204696 1.0149  39.5 Nm  16?  34.04 140.2   24 292 148  99
   2024 07 21 21:00  10 55 17.49    +32 28 28.0   204133 1.0149  39.6 Am  16?  34.86 139.2   22 294 148  99
   2024 07 21 21:10  10 55 35.46    +32 24 02.6   203568 1.0149  39.6 Am  16?  35.68 138.1   20 295 148  99
   2024 07 21 21:20  10 55 54.23    +32 19 35.5   202999 1.0150  39.7 Am  16?  36.51 137.0   18 296 148  99
   2024 07 21 21:30  10 56 13.81    +32 15 06.9   202428 1.0150  39.7 Am  16?  37.34 136.0   17 297 148  99
   2024 07 21 21:40  10 56 34.21    +32 10 36.9   201854 1.0150  39.8  m  16?  38.18 135.0   15 299 148  99
   2024 07 21 21:50  10 56 55.42    +32 06 05.7   201276 1.0150  39.8  m  16?  39.02 134.0   13 300 148  99
   2024 07 21 22:00  10 57 17.46    +32 01 33.4   200694 1.0150  39.9  m  16?  39.86 133.0   12 301 148  99
   2024 07 21 22:10  10 57 40.31    +31 57 00.3   200108 1.0150  40.0  m  16?  40.70 132.1   10 303 148  99
   2024 07 21 22:20  10 58 03.99    +31 52 26.5   199517 1.0150  40.0  m  16?  41.54 131.2    9 304 148  99
   2024 07 21 22:30  10 58 28.48    +31 47 52.2   198921 1.0150  40.1  m  16?  42.38 130.3    7 305 148  99
   2024 07 21 22:40  10 58 53.78    +31 43 17.5   198319 1.0150  40.2  m  16?  43.22 129.4    6 307 148  99
   2024 07 21 22:50  10 59 19.89    +31 38 42.6   197713 1.0150  40.3  m  16?  44.06 128.5    4 308 148  99
   2024 07 21 23:00  10 59 46.81    +31 34 07.6   197100 1.0150  40.4  m  16?  44.89 127.7    3 310 148  99
   2024 07 21 23:10  11 00 14.53    +31 29 32.7   196481 1.0150  40.4  m  16?  45.72 126.9    1 311 148  99
   2024 07 21 23:20  11 00 43.04    +31 24 58.0   195856 1.0150  40.5  m  16?  46.54 126.1    0 312 148  99
   ................
   2024 07 22 19:50  12 39 03.77    +11 41 24.8    55511 1.0158  65.0 C   12? 340.58 146.8   40 246 134  97
   2024 07 22 20:00  12 41 11.46    +10 52 55.3    53912 1.0158  65.7 C   12? 363.16 146.8   39 247 134  96
   2024 07 22 20:10  12 43 27.39    +10 01 09.1    52295 1.0158  66.5 C   12? 388.16 146.8   37 248 133  96
   2024 07 22 20:20  12 45 52.41    +09 05 44.2    50657 1.0158  67.3 N   12? 415.96 146.9   35 249 132  96
   2024 07 22 20:30  12 48 27.50    +08 06 15.0    48998 1.0158  68.2 N   12? 447.02 146.9   33 249 132  96
   2024 07 22 20:40  12 51 13.77    +07 02 11.1    47317 1.0158  69.2 N   12? 481.90 147.0   31 250 131  96
   2024 07 22 20:50  12 54 12.57    +05 52 57.1    45613 1.0158  70.3 Nm  12? 521.29 147.1   28 250 130  96
   2024 07 22 21:00  12 57 25.45    +04 37 50.4    43883 1.0158  71.5 Am  11? 566.08 147.2   26 251 129  96
   2024 07 22 21:10  13 00 54.31    +03 15 59.9    42128 1.0158  72.7 Am  11? 617.34 147.3   24 251 127  96
   2024 07 22 21:20  13 04 41.41    +01 46 23.8    40347 1.0158  74.1 Am  11? 676.45 147.5   22 251 126  96
   2024 07 22 21:30  13 08 49.56    +00 07 46.3    38537 1.0159  75.7 Am  11? 745.20 147.7   20 251 124  96
   2024 07 22 21:40  13 13 22.21    -01 41 25.9    36698 1.0159  77.4  m  11? 825.87 147.9   18 250 123  96
   2024 07 22 21:50  13 18 23.80    -03 43 09.6    34831 1.0159  79.3  m  11? 921.51 148.2   15 250 121  96
   2024 07 22 22:00  13 24 00.02    -05 59 52.3    32934 1.0159  81.4  m  11? 1036.1 148.5   13 249 119  96
   2024 07 22 22:10  13 30 18.43    -08 34 42.3    31008 1.0159  83.8  m  10? 1175.2 148.7   11 248 116  96
   2024 07 22 22:20  13 37 29.33    -11 31 43.4    29056 1.0159  86.5  m  10? 1346.2 149.0    8 246 113  96
   2024 07 22 22:30  13 45 47.20    -14 56 14.4    27081 1.0159  89.6  m  10? 1559.5 149.3    5 244 110  96
   2024 07 22 22:40  13 55 33.33    -18 55 16.1    25091 1.0159  93.2  m  10? 1829.3 149.6    2 241 106  96
   2024 07 22 22:50  14 07 20.66    -23 38 05.8    23098 1.0159  97.3  m  10? 2175.7 149.7    0 238 102  96
   ................
   2024 07 23 01:40  04 13 12.15    +13 38 03.0    30506 1.0158  56.8  m  11? 1290.5  40.1    0  72 100  96
   2024 07 23 01:50  04 22 06.66    +16 08 56.3    32513 1.0158  54.1  m  11? 1132.1  41.3    2  70 103  96
   2024 07 23 02:00  04 30 14.37    +18 19 40.4    34491 1.0158  51.7  m  11? 1002.6  42.4    4  69 105  96
   2024 07 23 02:10  04 37 42.24    +20 14 01.7    36438 1.0157  49.6  m  12? 895.24  43.5    6  68 108  96
   2024 07 23 02:20  04 44 35.72    +21 54 54.6    38352 1.0157  47.8  m  12? 805.27  44.4    7  67 109  96
   2024 07 23 02:30  04 50 59.18    +23 24 35.3    40235 1.0157  46.2  m  12? 729.03  45.3    9  67 111  96
   2024 07 23 02:40  04 56 56.21    +24 44 51.3    42085 1.0157  44.7  m  12? 663.78  46.1   11  66 113  96
   2024 07 23 02:50  05 02 29.76    +25 57 08.6    43905 1.0157  43.4  m  12? 607.44  46.8   12  66 114  96
   2024 07 23 03:00  05 07 42.28    +27 02 36.6    45694 1.0157  42.2  m  12? 558.40  47.5   14  66 115  96
   2024 07 23 03:10  05 12 35.88    +28 02 11.8    47453 1.0157  41.1 Am  12? 515.38  48.1   15  66 116  96
   2024 07 23 03:20  05 17 12.32    +28 56 40.9    49185 1.0156  40.1 Am  13? 477.40  48.7   17  66 117  96
   2024 07 23 03:30  05 21 33.15    +29 46 42.6    50889 1.0156  39.3 Am  13? 443.65  49.2   18  66 118  96
   2024 07 23 03:40  05 25 39.68    +30 32 49.2    52567 1.0156  38.5 Am  13? 413.48  49.7   20  66 119  96
   2024 07 23 03:50  05 29 33.08    +31 15 27.8    54219 1.0156  37.7 Am  13? 386.37  50.1   21  66 120  95
   2024 07 23 04:00  05 33 14.37    +31 55 01.8    55848 1.0156  37.0 Nm  13? 361.90  50.6   23  66 121  95
   2024 07 23 04:10  05 36 44.45    +32 31 50.6    57453 1.0156  36.4 Nm  13? 339.70  50.9   24  67 121  95
   2024 07 23 04:20  05 40 04.13    +33 06 11.3    59035 1.0156  35.8 Nm  13? 319.48  51.3   26  67 122  95
   2024 07 23 04:30  05 43 14.10    +33 38 18.3    60597 1.0156  35.3 Nm  13? 300.99  51.6   27  67 123  95
   2024 07 23 04:40  05 46 15.03    +34 08 24.3    62137 1.0155  34.8 Cm  13? 284.03  51.9   29  68 123  95
   2024 07 23 04:50  05 49 07.50    +34 36 40.3    63658 1.0155  34.4 Cm  13? 268.41  52.1   30  68 124  95
   ................
   2024 07 23 19:50  07 21 34.06    +41 32 26.7   171417 1.0148  24.2 C   16?  58.63  96.5    6 321 130  91
   2024 07 23 20:00  07 22 25.51    +41 31 27.5   172422 1.0148  24.1 C   16?  58.78  96.1    5 323 130  91
   2024 07 23 20:10  07 23 17.12    +41 30 31.8   173418 1.0148  24.0 C   16?  58.90  95.8    4 324 130  91
   2024 07 23 20:20  07 24 08.85    +41 29 39.8   174407 1.0148  23.9 N   16?  59.00  95.4    3 326 130  91
   2024 07 23 20:30  07 25 00.69    +41 28 51.6   175388 1.0148  23.8 N   16?  59.08  95.0    2 327 130  91
   2024 07 23 20:40  07 25 52.62    +41 28 07.4   176361 1.0148  23.8 N   16?  59.13  94.6    1 328 131  91
   2024 07 23 20:50  07 26 44.61    +41 27 27.2   177326 1.0147  23.7 A   16?  59.16  94.2    0 330 131  91
   2024 07 23 21:00  07 27 36.64    +41 26 51.2   178283 1.0147  23.6 A   16?  59.17  93.8    0 331 131  91
   ................
   2024 07 24 02:40  07 54 41.82    +41 51 54.5   205449 1.0145  22.4  m  16?  45.51  75.9    0  28 132  90
   2024 07 24 02:50  07 55 20.62    +41 53 51.4   206095 1.0145  22.4  m  16?  44.76  75.3    1  29 132  90
   2024 07 24 03:00  07 55 58.67    +41 55 51.2   206733 1.0145  22.4  m  16?  43.99  74.6    1  31 133  90
   2024 07 24 03:10  07 56 35.95    +41 57 53.8   207364 1.0145  22.4 Am  16?  43.21  74.0    2  32 133  90
   2024 07 24 03:20  07 57 12.45    +41 59 59.0   207988 1.0145  22.4 Am  16?  42.42  73.3    3  34 133  90
   2024 07 24 03:30  07 57 48.16    +42 02 06.7   208605 1.0145  22.4 Am  16?  41.61  72.6    4  35 133  90
   2024 07 24 03:40  07 58 23.06    +42 04 16.7   209215 1.0145  22.4 Am  16?  40.79  71.9    6  37 133  90
   2024 07 24 03:50  07 58 57.15    +42 06 28.8   209819 1.0145  22.5 Am  16?  39.97  71.2    7  38 133  90
   2024 07 24 04:00  07 59 30.41    +42 08 42.8   210417 1.0145  22.5 Nm  16?  39.13  70.5    8  39 133  90
   2024 07 24 04:10  08 00 02.83    +42 10 58.5   211008 1.0145  22.5 Nm  16?  38.28  69.8    9  41 133  90
   2024 07 24 04:20  08 00 34.40    +42 13 15.8   211594 1.0145  22.5 Nm  16?  37.43  69.1   10  42 133  90
   2024 07 24 04:30  08 01 05.12    +42 15 34.5   212175 1.0145  22.6 Nm  16?  36.56  68.3   12  43 133  90
   2024 07 24 04:40  08 01 34.97    +42 17 54.3   212750 1.0145  22.6 Cm  16?  35.69  67.6   13  44 132  89
   2024 07 24 04:50  08 02 03.96    +42 20 15.0   213320 1.0145  22.6 Cm  16?  34.82  66.8   14  46 132  89
   ................
   2024 07 24 19:50  08 18 24.75    +42 21 31.3   268019 1.0141  22.6 C   17?  26.04 114.6   13 315 126  84
   2024 07 24 20:00  08 18 46.16    +42 19 46.7   268675 1.0141  22.6 C   17?  26.43 113.7   12 316 126  84
   2024 07 24 20:10  08 19 08.03    +42 18 04.3   269326 1.0141  22.6 N   17?  26.81 112.8   10 317 126  84
   2024 07 24 20:20  08 19 30.34    +42 16 24.3   269973 1.0141  22.5 N   17?  27.18 111.9    9 319 126  84
   2024 07 24 20:30  08 19 53.09    +42 14 46.7   270615 1.0141  22.5 N   17?  27.52 111.1    8 320 126  84
   2024 07 24 20:40  08 20 16.24    +42 13 11.8   271252 1.0141  22.5 N   17?  27.86 110.2    7 321 126  84
   2024 07 24 20:50  08 20 39.79    +42 11 39.7   271884 1.0141  22.5 A   17?  28.18 109.4    6 323 126  84
   2024 07 24 21:00  08 21 03.72    +42 10 10.4   272510 1.0141  22.4 A   17?  28.48 108.5    4 324 126  83
   2024 07 24 21:10  08 21 28.01    +42 08 44.2   273131 1.0141  22.4 A   17?  28.76 107.7    3 325 126  83
   2024 07 24 21:20  08 21 52.64    +42 07 21.0   273746 1.0141  22.4 A   17?  29.03 106.9    2 327 126  83
   2024 07 24 21:30  08 22 17.59    +42 06 01.1   274354 1.0141  22.4 A   17?  29.28 106.1    1 328 126  83
   2024 07 24 21:40  08 22 42.85    +42 04 44.6   274957 1.0140  22.4     17?  29.52 105.2    1 330 126  83
   2024 07 24 21:50  08 23 08.40    +42 03 31.4   275552 1.0140  22.4  m  17?  29.73 104.4    0 331 126  83
   ................
   2024 07 25 03:10  08 37 08.35    +41 58 39.1   290639 1.0139  22.6 Am  17?  26.44  79.6    0  26 125  82
   2024 07 25 03:20  08 37 31.31    +41 59 31.0   290986 1.0139  22.7 Am  17?  26.04  78.8    0  28 125  82
   2024 07 25 03:30  08 37 53.84    +42 00 25.8   291326 1.0139  22.7 Am  17?  25.62  77.9    1  30 125  82
   2024 07 25 03:40  08 38 15.93    +42 01 23.4   291660 1.0139  22.7 Am  17?  25.19  77.1    2  31 125  82
   2024 07 25 03:50  08 38 37.58    +42 02 23.6   291988 1.0139  22.8 Am  17?  24.75  76.2    3  33 125  81
   2024 07 25 04:00  08 38 58.75    +42 03 26.4   292310 1.0139  22.8 Nm  17?  24.29  75.3    4  34 125  81
   2024 07 25 04:10  08 39 19.45    +42 04 31.6   292626 1.0139  22.8 Nm  17?  23.82  74.5    5  36 125  81
   2024 07 25 04:20  08 39 39.66    +42 05 39.1   292937 1.0139  22.9 Nm  17?  23.34  73.6    6  37 125  81
   2024 07 25 04:30  08 39 59.35    +42 06 48.7   293243 1.0139  22.9 Nm  17?  22.85  72.6    7  38 125  81
   2024 07 25 04:40  08 40 18.54    +42 08 00.4   293543 1.0139  22.9 Cm  17?  22.35  71.7    8  40 125  81
   2024 07 25 04:50  08 40 37.19    +42 09 13.8   293839 1.0139  23.0 Cm  17?  21.84  70.8    9  41 125  81
   ................
   2024 07 25 19:50  08 48 29.79    +41 53 58.9   326093 1.0137  23.1 C   17?  18.41 124.3   16 311 117  75
   2024 07 25 20:00  08 48 43.54    +41 52 17.4   326550 1.0136  23.1 C   17?  18.76 123.1   15 312 117  75
   2024 07 25 20:10  08 48 57.75    +41 50 37.2   327003 1.0136  23.1 N   17?  19.11 121.9   13 313 117  74
   2024 07 25 20:20  08 49 12.39    +41 48 58.5   327453 1.0136  23.1 N   17?  19.45 120.7   12 315 117  74
   2024 07 25 20:30  08 49 27.46    +41 47 21.5   327900 1.0136  23.1 N   17?  19.78 119.6   11 316 117  74
   2024 07 25 20:40  08 49 42.95    +41 45 46.3   328342 1.0136  23.0 N   17?  20.09 118.5    9 317 117  74
   2024 07 25 20:50  08 49 58.84    +41 44 13.0   328780 1.0136  23.0 A   17?  20.40 117.4    8 319 117  74
   2024 07 25 21:00  08 50 15.12    +41 42 41.7   329214 1.0136  23.0 A   17?  20.70 116.3    7 320 117  74
   2024 07 25 21:10  08 50 31.79    +41 41 12.5   329642 1.0136  23.0 A   17?  20.99 115.2    6 321 117  74
   2024 07 25 21:20  08 50 48.82    +41 39 45.6   330066 1.0136  23.0 A   17?  21.27 114.2    5 323 117  74
   2024 07 25 21:30  08 51 06.21    +41 38 21.1   330485 1.0136  23.0 A   17?  21.53 113.2    4 324 117  74
   2024 07 25 21:40  08 51 23.93    +41 36 59.1   330899 1.0136  23.0     17?  21.78 112.2    3 326 117  74
   2024 07 25 21:50  08 51 41.98    +41 35 39.7   331307 1.0136  23.0     17?  22.02 111.2    2 327 117  74
   2024 07 25 22:00  08 52 00.34    +41 34 22.9   331709 1.0136  23.0     17?  22.24 110.2    1 329 117  74
   2024 07 25 22:10  08 52 18.99    +41 33 09.0   332105 1.0136  23.0  m  17?  22.45 109.2    0 330 117  74
   ................
   2024 07 26 03:40  09 03 18.76    +41 23 06.6   341130 1.0135  23.6 Am  17?  20.40  80.6    0  28 116  72
   2024 07 26 03:50  09 03 36.38    +41 23 42.5   341281 1.0135  23.6 Am  17?  20.07  79.7    0  30 116  72
   2024 07 26 04:00  09 03 53.66    +41 24 21.0   341425 1.0135  23.6 Nm  17?  19.72  78.8    1  31 116  71
   2024 07 26 04:10  09 04 10.58    +41 25 01.8   341563 1.0135  23.7 Nm  17?  19.37  77.9    2  33 116  71
   2024 07 26 04:20  09 04 27.13    +41 25 45.0   341696 1.0135  23.7 Nm  17?  19.00  76.9    3  34 116  71
   2024 07 26 04:30  09 04 43.30    +41 26 30.4   341823 1.0135  23.7 Nm  17?  18.62  76.0    4  36 116  71
   2024 07 26 04:40  09 04 59.08    +41 27 17.8   341945 1.0135  23.8 Cm  17?  18.24  75.0    5  37 116  71
   2024 07 26 04:50  09 05 14.45    +41 28 07.3   342062 1.0135  23.8 Cm  17?  17.84  74.0    6  39 116  71
   ................
   2024 07 26 19:50  09 10 30.84    +41 07 46.2   358404 1.0134  23.9 C   17?  15.50 130.6   18 308 108  64
   2024 07 26 20:00  09 10 41.42    +41 06 06.4   358706 1.0134  23.9 C   17?  15.82 129.2   17 309 108  64
   2024 07 26 20:10  09 10 52.43    +41 04 27.5   359006 1.0134  23.8 N   17?  16.14 127.8   15 310 108  64
   2024 07 26 20:20  09 11 03.87    +41 02 49.6   359303 1.0134  23.8 N   17?  16.46 126.5   14 312 108  64
   2024 07 26 20:30  09 11 15.72    +41 01 13.0   359597 1.0134  23.8 N   17?  16.77 125.2   13 313 108  64
   2024 07 26 20:40  09 11 27.98    +40 59 37.6   359888 1.0134  23.8 N   17?  17.08 123.9   11 314 108  64
   2024 07 26 20:50  09 11 40.64    +40 58 03.6   360175 1.0134  23.8 A   17?  17.37 122.7   10 316 108  63
   2024 07 26 21:00  09 11 53.69    +40 56 31.3   360458 1.0134  23.8 A   17?  17.66 121.5    9 317 108  63
   2024 07 26 21:10  09 12 07.13    +40 55 00.6   360737 1.0134  23.8 A   17?  17.95 120.3    7 318 108  63
   2024 07 26 21:20  09 12 20.94    +40 53 31.6   361012 1.0134  23.8 A   17?  18.22 119.1    6 320 108  63
   2024 07 26 21:30  09 12 35.10    +40 52 04.6   361282 1.0134  23.8     17?  18.48 118.0    5 321 107  63
   2024 07 26 21:40  09 12 49.62    +40 50 39.6   361547 1.0134  23.8     17?  18.74 116.8    4 323 107  63
   2024 07 26 21:50  09 13 04.47    +40 49 16.8   361807 1.0134  23.8     17?  18.98 115.7    3 324 107  63
   2024 07 26 22:00  09 13 19.64    +40 47 56.1   362062 1.0134  23.8     17?  19.22 114.7    2 326 107  63
   2024 07 26 22:10  09 13 35.12    +40 46 37.7   362311 1.0134  23.8     17?  19.44 113.6    1 327 107  63
   2024 07 26 22:20  09 13 50.90    +40 45 21.8   362554 1.0134  23.8     17?  19.65 112.6    0 329 107  63
   ................
   2024 07 27 04:10  09 24 00.38    +40 32 03.8   366589 1.0133  24.6 Nm  17?  17.80  81.1    0  31 106  60
   2024 07 27 04:20  09 24 15.59    +40 32 33.1   366576 1.0133  24.6 Nm  17?  17.48  80.2    1  32 106  60
   2024 07 27 04:30  09 24 30.49    +40 33 04.6   366557 1.0133  24.7 Nm  17?  17.15  79.3    2  34 106  60
   2024 07 27 04:40  09 24 45.05    +40 33 38.2   366533 1.0133  24.7 Cm  17?  16.81  78.3    3  35 106  60
   2024 07 27 04:50  09 24 59.27    +40 34 13.9   366504 1.0133  24.7 Cm  17?  16.46  77.3    4  37 106  60
   2024 07 27 05:00  09 25 13.13    +40 34 51.5   366469 1.0133  24.8 Cm  17?  16.10  76.4    5  38 106  60
   ................
   2024 07 27 19:50  09 29 22.35    +40 09 17.1   369197 1.0132  24.7 C   17?  14.45 135.2   20 305  98  53
   2024 07 27 20:00  09 29 31.42    +40 07 34.9   369360 1.0132  24.7 C   17?  14.77 133.7   18 307  98  53
   2024 07 27 20:10  09 29 40.91    +40 05 53.4   369522 1.0132  24.7 N   17?  15.09 132.2   17 308  98  53
   2024 07 27 20:20  09 29 50.82    +40 04 12.7   369681 1.0132  24.7 N   17?  15.40 130.8   15 309  98  53
   2024 07 27 20:30  09 30 01.16    +40 02 32.7   369838 1.0132  24.7 N   17?  15.71 129.4   14 310  98  52
   2024 07 27 20:40  09 30 11.90    +40 00 53.8   369992 1.0132  24.7 N   17?  16.01 128.0   13 312  98  52
   2024 07 27 20:50  09 30 23.06    +39 59 16.0   370142 1.0132  24.7 A   17?  16.31 126.7   11 313  98  52
   2024 07 27 21:00  09 30 34.60    +39 57 39.5   370289 1.0132  24.7 A   17?  16.61 125.3   10 314  98  52
   2024 07 27 21:10  09 30 46.54    +39 56 04.3   370432 1.0132  24.7 A   17?  16.90 124.1    9 316  98  52
   2024 07 27 21:20  09 30 58.86    +39 54 30.6   370572 1.0132  24.7 A   17?  17.18 122.8    7 317  98  52
   2024 07 27 21:30  09 31 11.56    +39 52 58.5   370707 1.0132  24.7     17?  17.45 121.6    6 318  98  52
   2024 07 27 21:40  09 31 24.61    +39 51 28.1   370837 1.0132  24.7     17?  17.72 120.4    5 320  98  52
   2024 07 27 21:50  09 31 38.01    +39 49 59.5   370963 1.0132  24.7     17?  17.97 119.3    4 321  98  52
   2024 07 27 22:00  09 31 51.76    +39 48 32.9   371083 1.0132  24.7     17?  18.22 118.1    2 323  98  52
   2024 07 27 22:10  09 32 05.83    +39 47 08.2   371199 1.0132  24.7     17?  18.46 117.0    1 324  98  52
   2024 07 27 22:20  09 32 20.21    +39 45 45.7   371308 1.0132  24.7     17?  18.69 115.9    0 326  97  51
   2024 07 27 22:30  09 32 34.90    +39 44 25.4   371413 1.0132  24.7     17?  18.90 114.8    0 327  97  51
   ................
   

Euclid (JPL-ID: -680)

   Date (UTC) HH:MM   RA              Dec         delta   r     elong SM  mag  '/hr    PA   alt  az moo ill
   ---- -- -- -----  -------------   -----------  ------ ------ ----- --  --- ------ ------ --- --- --- ---
   2024 07 14 00:00  19 34 02.27    -08 11 58.5   0.0117 1.0279 166.5     21?   2.25 271.0   40 173  92  50
   2024 07 14 00:10  19 34 00.76    -08 11 57.9   0.0117 1.0279 166.5     21?   2.26 271.4   40 176  92  50
   2024 07 14 00:20  19 33 59.23    -08 11 57.2   0.0117 1.0279 166.5     21?   2.26 271.8   40 179  92  50
   2024 07 14 00:30  19 33 57.71    -08 11 56.3   0.0117 1.0279 166.5  t  21?   2.26 272.2   40 183  92  50
   2024 07 14 00:40  19 33 56.20    -08 11 55.3   0.0117 1.0279 166.5     21?   2.25 272.6   40 186  92  50
   2024 07 14 00:50  19 33 54.68    -08 11 54.2   0.0117 1.0279 166.5     21?   2.24 273.0   40 189  92  50
   2024 07 14 01:00  19 33 53.18    -08 11 52.9   0.0117 1.0279 166.5     21?   2.22 273.4   40 192  92  50
   2024 07 14 01:10  19 33 51.70    -08 11 51.4   0.0117 1.0279 166.5     21?   2.20 273.8   39 196  91  50
   2024 07 14 01:20  19 33 50.22    -08 11 49.8   0.0117 1.0279 166.5     21?   2.18 274.3   39 199  91  50
   2024 07 14 01:30  19 33 48.77    -08 11 48.0   0.0117 1.0279 166.5     21?   2.15 274.7   38 202  91  50
   2024 07 14 01:40  19 33 47.34    -08 11 46.1   0.0117 1.0279 166.5     21?   2.12 275.2   37 205  91  50
   2024 07 14 01:50  19 33 45.93    -08 11 44.0   0.0117 1.0279 166.5     21?   2.08 275.7   36 208  91  51
   2024 07 14 02:00  19 33 44.56    -08 11 41.8   0.0117 1.0279 166.5     21?   2.03 276.2   35 211  91  51
   2024 07 14 02:10  19 33 43.21    -08 11 39.5   0.0117 1.0279 166.5     21?   1.99 276.8   34 213  91  51
   2024 07 14 02:20  19 33 41.90    -08 11 37.0   0.0117 1.0279 166.5     21?   1.94 277.3   33 216  91  51
   2024 07 14 02:30  19 33 40.63    -08 11 34.5   0.0117 1.0279 166.5     21?   1.88 278.0   32 219  91  51
   2024 07 14 02:40  19 33 39.39    -08 11 31.7   0.0117 1.0279 166.5     21?   1.82 278.6   31 221  91  51
   2024 07 14 02:50  19 33 38.20    -08 11 28.9   0.0117 1.0279 166.5     21?   1.76 279.3   30 224  90  51
   2024 07 14 03:00  19 33 37.06    -08 11 25.9   0.0117 1.0279 166.5 A   21?   1.69 280.1   28 226  90  51
   2024 07 14 03:10  19 33 35.96    -08 11 22.8   0.0117 1.0279 166.5 A   21?   1.62 281.0   27 228  90  51
   2024 07 14 03:20  19 33 34.91    -08 11 19.6   0.0117 1.0279 166.5 A   21?   1.55 281.9   25 231  90  51
   2024 07 14 03:30  19 33 33.92    -08 11 16.3   0.0117 1.0279 166.5 A   21?   1.48 282.9   24 233  90  51
   2024 07 14 03:40  19 33 32.98    -08 11 13.0   0.0117 1.0279 166.5 A   21?   1.40 284.1   22 235  90  51
   2024 07 14 03:50  19 33 32.09    -08 11 09.5   0.0117 1.0279 166.5 N   21?   1.32 285.4   21 237  90  51
   2024 07 14 04:00  19 33 31.27    -08 11 05.9   0.0117 1.0279 166.5 N   21?   1.23 286.9   19 239  90  52
   2024 07 14 04:10  19 33 30.50    -08 11 02.2   0.0117 1.0279 166.5 N   21?   1.15 288.6   17 241  90  52
   2024 07 14 04:20  19 33 29.80    -08 10 58.5   0.0117 1.0279 166.5 N   21?   1.06 290.6   16 243  90  52
   2024 07 14 04:30  19 33 29.16    -08 10 54.7   0.0117 1.0279 166.5 C   21?   0.98 293.0   14 245  89  52
   2024 07 14 04:40  19 33 28.59    -08 10 50.8   0.0117 1.0279 166.5 C   21?   0.89 295.9   12 247  89  52
   ................
   2024 07 14 20:00  19 34 53.43    -08 09 57.9   0.0117 1.0278 166.5 Cm  21?   0.86 252.2   13 113  82  58
   2024 07 14 20:10  19 34 52.84    -08 10 00.5   0.0117 1.0278 166.6 Cm  21?   0.95 254.3   15 115  82  58
   2024 07 14 20:20  19 34 52.19    -08 10 03.0   0.0117 1.0278 166.6 Nm  21?   1.04 256.1   16 117  82  58
   2024 07 14 20:30  19 34 51.48    -08 10 05.4   0.0117 1.0278 166.6 Nm  21?   1.13 257.6   18 119  82  58
   2024 07 14 20:40  19 34 50.70    -08 10 07.7   0.0117 1.0278 166.6 Nm  21?   1.22 258.9   20 120  82  58
   2024 07 14 20:50  19 34 49.87    -08 10 10.0   0.0117 1.0278 166.6 Nm  21?   1.30 260.1   21 123  82  58
   2024 07 14 21:00  19 34 48.97    -08 10 12.2   0.0117 1.0278 166.6 Am  21?   1.38 261.1   23 125  82  58
   2024 07 14 21:10  19 34 48.02    -08 10 14.2   0.0117 1.0278 166.6 Am  21?   1.46 261.9   24 127  82  58
   2024 07 14 21:20  19 34 47.02    -08 10 16.2   0.0117 1.0278 166.6 Am  21?   1.54 262.7   26 129  82  58
   2024 07 14 21:30  19 34 45.97    -08 10 18.0   0.0117 1.0278 166.6 Am  21?   1.61 263.5   27 131  82  58
   2024 07 14 21:40  19 34 44.86    -08 10 19.7   0.0117 1.0278 166.6 Am  21?   1.68 264.1   29 134  82  59
   2024 07 14 21:50  19 34 43.71    -08 10 21.3   0.0117 1.0278 166.6  m  21?   1.75 264.7   30 136  82  59
   2024 07 14 22:00  19 34 42.52    -08 10 22.8   0.0117 1.0278 166.6  m  21?   1.81 265.3   31 138  82  59
   2024 07 14 22:10  19 34 41.28    -08 10 24.2   0.0117 1.0278 166.6  m  21?   1.87 265.9   32 141  82  59
   2024 07 14 22:20  19 34 40.01    -08 10 25.4   0.0117 1.0278 166.6  m  21?   1.92 266.4   34 144  81  59
   2024 07 14 22:30  19 34 38.69    -08 10 26.5   0.0117 1.0278 166.6  m  21?   1.97 266.8   35 146  81  59
   2024 07 14 22:40  19 34 37.35    -08 10 27.5   0.0117 1.0278 166.6  m  21?   2.02 267.3   36 149  81  59
   2024 07 14 22:50  19 34 35.98    -08 10 28.3   0.0117 1.0278 166.6  m  21?   2.06 267.8   37 152  81  59
   2024 07 14 23:00  19 34 34.57    -08 10 29.0   0.0117 1.0278 166.6  m  21?   2.10 268.2   37 155  81  59
   2024 07 14 23:10  19 34 33.15    -08 10 29.5   0.0117 1.0278 166.6  m  21?   2.13 268.6   38 158  81  59
   2024 07 14 23:20  19 34 31.70    -08 10 29.9   0.0117 1.0278 166.6  m  21?   2.16 269.0   39 161  81  59
   2024 07 14 23:30  19 34 30.24    -08 10 30.1   0.0117 1.0278 166.6  m  21?   2.19 269.4   39 164  81  59
   2024 07 14 23:40  19 34 28.76    -08 10 30.2   0.0117 1.0278 166.6  m  21?   2.21 269.8   40 168  81  59
   2024 07 14 23:50  19 34 27.26    -08 10 30.1   0.0117 1.0278 166.6  m  21?   2.22 270.2   40 171  81  59
   2024 07 15 00:00  19 34 25.76    -08 10 29.9   0.0117 1.0278 166.6     21?   2.23 270.6   40 174  81  59
   2024 07 15 00:10  19 34 24.26    -08 10 29.5   0.0117 1.0278 166.6     21?   2.24 271.0   40 177  81  59
   2024 07 15 00:20  19 34 22.75    -08 10 29.0   0.0117 1.0278 166.6  t  21?   2.24 271.4   40 181  81  59
   2024 07 15 00:30  19 34 21.24    -08 10 28.3   0.0117 1.0278 166.6     21?   2.24 271.8   40 184  81  59
   2024 07 15 00:40  19 34 19.74    -08 10 27.5   0.0117 1.0278 166.6     21?   2.23 272.2   40 187  80  60
   2024 07 15 00:50  19 34 18.25    -08 10 26.5   0.0117 1.0278 166.6     21?   2.21 272.6   40 190  80  60
   2024 07 15 01:00  19 34 16.76    -08 10 25.4   0.0117 1.0278 166.6     21?   2.20 273.0   39 194  80  60
   2024 07 15 01:10  19 34 15.29    -08 10 24.1   0.0117 1.0278 166.6     21?   2.17 273.4   39 197  80  60
   2024 07 15 01:20  19 34 13.84    -08 10 22.6   0.0117 1.0278 166.6     21?   2.15 273.8   38 200  80  60
   2024 07 15 01:30  19 34 12.41    -08 10 21.1   0.0117 1.0278 166.6     21?   2.12 274.3   38 203  80  60
   2024 07 15 01:40  19 34 11.00    -08 10 19.3   0.0117 1.0278 166.6     21?   2.08 274.8   37 206  80  60
   2024 07 15 01:50  19 34 09.62    -08 10 17.5   0.0117 1.0278 166.6     21?   2.04 275.3   36 209  80  60
   2024 07 15 02:00  19 34 08.27    -08 10 15.5   0.0117 1.0278 166.6     21?   2.00 275.8   35 212  80  60
   2024 07 15 02:10  19 34 06.95    -08 10 13.3   0.0117 1.0278 166.6     21?   1.95 276.3   34 214  80  60
   2024 07 15 02:20  19 34 05.66    -08 10 11.1   0.0117 1.0278 166.6     21?   1.89 276.9   33 217  80  60
   2024 07 15 02:30  19 34 04.41    -08 10 08.7   0.0117 1.0278 166.6     21?   1.84 277.5   32 220  79  60
   2024 07 15 02:40  19 34 03.21    -08 10 06.1   0.0117 1.0278 166.6     21?   1.78 278.2   30 222  79  60
   2024 07 15 02:50  19 34 02.05    -08 10 03.5   0.0117 1.0278 166.6     21?   1.71 278.9   29 225  79  60
   2024 07 15 03:00  19 34 00.93    -08 10 00.7   0.0117 1.0278 166.6 A   21?   1.65 279.7   28 227  79  60
   2024 07 15 03:10  19 33 59.86    -08 09 57.8   0.0117 1.0278 166.6 A   21?   1.58 280.6   26 229  79  61
   2024 07 15 03:20  19 33 58.85    -08 09 54.8   0.0117 1.0278 166.6 A   21?   1.50 281.5   25 232  79  61
   2024 07 15 03:30  19 33 57.88    -08 09 51.7   0.0117 1.0278 166.6 A   21?   1.42 282.6   23 234  79  61
   2024 07 15 03:40  19 33 56.98    -08 09 48.5   0.0117 1.0278 166.6 A   21?   1.35 283.7   22 236  79  61
   2024 07 15 03:50  19 33 56.13    -08 09 45.3   0.0117 1.0278 166.6 N   21?   1.26 285.1   20 238  79  61
   2024 07 15 04:00  19 33 55.34    -08 09 41.9   0.0117 1.0278 166.6 N   21?   1.18 286.6   18 240  79  61
   2024 07 15 04:10  19 33 54.61    -08 09 38.4   0.0117 1.0278 166.6 N   21?   1.09 288.4   17 242  78  61
   2024 07 15 04:20  19 33 53.94    -08 09 34.9   0.0117 1.0278 166.6 N   21?   1.01 290.5   15 244  78  61
   2024 07 15 04:30  19 33 53.34    -08 09 31.3   0.0117 1.0278 166.6 C   21?   0.92 293.1   13 246  78  61
   2024 07 15 04:40  19 33 52.80    -08 09 27.7   0.0117 1.0278 166.6 C   21?   0.83 296.1   12 247  78  61
   ................
   2024 07 15 20:00  19 35 18.76    -08 08 57.7   0.0117 1.0278 166.6 Cm  21?   0.88 251.3   13 113  71  68
   2024 07 15 20:10  19 35 18.17    -08 09 00.5   0.0117 1.0278 166.6 Cm  21?   0.97 253.5   15 115  71  68
   2024 07 15 20:20  19 35 17.51    -08 09 03.2   0.0117 1.0278 166.6 Nm  21?   1.06 255.3   17 117  71  68
   2024 07 15 20:30  19 35 16.78    -08 09 05.8   0.0117 1.0278 166.6 Nm  21?   1.15 256.9   19 119  71  68
   2024 07 15 20:40  19 35 16.00    -08 09 08.3   0.0117 1.0278 166.6 Nm  21?   1.23 258.2   20 121  71  68
   2024 07 15 20:50  19 35 15.16    -08 09 10.8   0.0117 1.0278 166.6 Nm  21?   1.32 259.4   22 123  71  68
   2024 07 15 21:00  19 35 14.26    -08 09 13.1   0.0117 1.0278 166.6 Am  21?   1.40 260.4   23 125  70  68
   2024 07 15 21:10  19 35 13.30    -08 09 15.4   0.0117 1.0278 166.6 Am  21?   1.47 261.3   25 127  70  68
   2024 07 15 21:20  19 35 12.30    -08 09 17.5   0.0117 1.0278 166.6 Am  21?   1.55 262.1   26 130  70  68
   2024 07 15 21:30  19 35 11.24    -08 09 19.5   0.0117 1.0278 166.6 Am  21?   1.62 262.9   28 132  70  68
   2024 07 15 21:40  19 35 10.13    -08 09 21.4   0.0117 1.0278 166.6 Am  21?   1.69 263.6   29 134  70  68
   2024 07 15 21:50  19 35 08.98    -08 09 23.2   0.0117 1.0278 166.6  m  21?   1.75 264.2   30 137  70  68
   2024 07 15 22:00  19 35 07.78    -08 09 24.8   0.0117 1.0278 166.6  m  21?   1.81 264.8   32 139  70  68
   2024 07 15 22:10  19 35 06.55    -08 09 26.4   0.0117 1.0278 166.6  m  21?   1.87 265.3   33 142  70  68
   2024 07 15 22:20  19 35 05.27    -08 09 27.8   0.0117 1.0278 166.6  m  21?   1.92 265.9   34 145  70  68
   2024 07 15 22:30  19 35 03.96    -08 09 29.0   0.0117 1.0278 166.6  m  21?   1.97 266.4   35 147  70  68
   2024 07 15 22:40  19 35 02.62    -08 09 30.1   0.0117 1.0278 166.6  m  21?   2.02 266.8   36 150  70  68
   2024 07 15 22:50  19 35 01.25    -08 09 31.1   0.0117 1.0278 166.6  m  21?   2.06 267.3   37 153  70  68
   2024 07 15 23:00  19 34 59.86    -08 09 32.0   0.0117 1.0278 166.6  m  21?   2.09 267.7   38 156  70  68
   2024 07 15 23:10  19 34 58.44    -08 09 32.7   0.0117 1.0278 166.6  m  21?   2.12 268.1   38 159  70  68
   2024 07 15 23:20  19 34 57.00    -08 09 33.2   0.0117 1.0278 166.6  m  21?   2.15 268.6   39 162  70  68
   2024 07 15 23:30  19 34 55.54    -08 09 33.6   0.0117 1.0278 166.6  m  21?   2.17 269.0   40 165  70  68
   2024 07 15 23:40  19 34 54.07    -08 09 33.9   0.0117 1.0278 166.6  m  21?   2.19 269.4   40 169  69  68
   2024 07 15 23:50  19 34 52.59    -08 09 34.0   0.0117 1.0278 166.6  m  21?   2.21 269.8   40 172  69  69
   2024 07 16 00:00  19 34 51.10    -08 09 33.9   0.0117 1.0278 166.6  m  21?   2.21 270.2   40 175  69  69
   2024 07 16 00:10  19 34 49.60    -08 09 33.7   0.0117 1.0278 166.6  m  21?   2.22 270.6   41 178  69  69
   2024 07 16 00:20  19 34 48.11    -08 09 33.3   0.0117 1.0278 166.6  t  21?   2.22 271.0   40 182  69  69
   2024 07 16 00:30  19 34 46.62    -08 09 32.8   0.0117 1.0278 166.6     21?   2.21 271.4   40 185  69  69
   2024 07 16 00:40  19 34 45.13    -08 09 32.1   0.0117 1.0278 166.6     21?   2.20 271.8   40 188  69  69
   2024 07 16 00:50  19 34 43.66    -08 09 31.3   0.0117 1.0278 166.6     21?   2.19 272.2   40 192  69  69
   2024 07 16 01:00  19 34 42.19    -08 09 30.3   0.0117 1.0278 166.6     21?   2.17 272.6   39 195  69  69
   2024 07 16 01:10  19 34 40.74    -08 09 29.2   0.0117 1.0278 166.6     21?   2.14 273.0   39 198  69  69
   2024 07 16 01:20  19 34 39.31    -08 09 28.0   0.0117 1.0278 166.6     21?   2.11 273.5   38 201  69  69
   2024 07 16 01:30  19 34 37.90    -08 09 26.6   0.0117 1.0278 166.6     21?   2.08 273.9   37 204  69  69
   2024 07 16 01:40  19 34 36.51    -08 09 25.0   0.0117 1.0278 166.6     21?   2.04 274.4   37 207  69  69
   2024 07 16 01:50  19 34 35.16    -08 09 23.3   0.0117 1.0278 166.6     21?   2.00 274.9   36 210  68  69
   2024 07 16 02:00  19 34 33.83    -08 09 21.5   0.0117 1.0278 166.6     21?   1.96 275.4   35 213  68  69
   2024 07 16 02:10  19 34 32.53    -08 09 19.5   0.0117 1.0278 166.6     21?   1.91 275.9   34 215  68  69
   2024 07 16 02:20  19 34 31.28    -08 09 17.4   0.0117 1.0278 166.6     21?   1.85 276.5   32 218  68  69
   2024 07 16 02:30  19 34 30.06    -08 09 15.2   0.0117 1.0278 166.6     21?   1.79 277.2   31 221  68  69
   2024 07 16 02:40  19 34 28.88    -08 09 12.8   0.0117 1.0278 166.6     21?   1.73 277.8   30 223  68  70
   2024 07 16 02:50  19 34 27.75    -08 09 10.4   0.0117 1.0278 166.6     21?   1.67 278.6   29 225  68  70
   2024 07 16 03:00  19 34 26.66    -08 09 07.8   0.0117 1.0278 166.6 A   21?   1.60 279.3   27 228  68  70
   2024 07 16 03:10  19 34 25.63    -08 09 05.1   0.0117 1.0278 166.6 A   21?   1.53 280.2   26 230  68  70
   2024 07 16 03:20  19 34 24.64    -08 09 02.3   0.0117 1.0278 166.6 A   21?   1.45 281.2   24 232  68  70
   2024 07 16 03:30  19 34 23.71    -08 08 59.4   0.0117 1.0278 166.6 A   21?   1.37 282.3   23 234  67  70
   2024 07 16 03:40  19 34 22.84    -08 08 56.4   0.0117 1.0278 166.6 A   21?   1.29 283.5   21 237  67  70
   2024 07 16 03:50  19 34 22.02    -08 08 53.3   0.0117 1.0278 166.6 N   21?   1.21 284.9   20 239  67  70
   2024 07 16 04:00  19 34 21.27    -08 08 50.1   0.0117 1.0278 166.6 N   21?   1.12 286.5   18 241  67  70
   2024 07 16 04:10  19 34 20.57    -08 08 46.8   0.0117 1.0278 166.6 N   21?   1.04 288.3   16 242  67  70
   2024 07 16 04:20  19 34 19.94    -08 08 43.5   0.0117 1.0278 166.6 N   21?   0.95 290.6   15 244  67  70
   2024 07 16 04:30  19 34 19.38    -08 08 40.1   0.0117 1.0278 166.6 C   21?   0.86 293.3   13 246  67  70
   2024 07 16 04:40  19 34 18.88    -08 08 36.7   0.0117 1.0278 166.6 C   21?   0.77 296.6   11 248  67  70
   2024 07 16 04:50  19 34 18.45    -08 08 33.1   0.0117 1.0278 166.6 C   21?   0.69 300.8    9 250  67  70
   ................
   2024 07 16 20:00  19 35 45.99    -08 08 28.4   0.0117 1.0277 166.7 Cm  21?   0.90 250.5   14 114  59  76
   2024 07 16 20:10  19 35 45.39    -08 08 31.3   0.0117 1.0277 166.7 Cm  21?   0.99 252.7   16 116  59  76
   2024 07 16 20:20  19 35 44.72    -08 08 34.2   0.0117 1.0277 166.7 Nm  21?   1.08 254.6   17 118  59  77
   2024 07 16 20:30  19 35 43.99    -08 08 37.0   0.0117 1.0277 166.7 Nm  21?   1.16 256.2   19 120  59  77
   2024 07 16 20:40  19 35 43.20    -08 08 39.7   0.0117 1.0277 166.7 Nm  21?   1.25 257.5   21 122  59  77
   2024 07 16 20:50  19 35 42.35    -08 08 42.3   0.0117 1.0277 166.7 Nm  21?   1.33 258.7   22 124  59  77
   2024 07 16 21:00  19 35 41.44    -08 08 44.8   0.0117 1.0277 166.7 Am  21?   1.41 259.8   24 126  59  77
   2024 07 16 21:10  19 35 40.48    -08 08 47.2   0.0117 1.0277 166.7 Am  21?   1.48 260.7   25 128  59  77
   2024 07 16 21:20  19 35 39.47    -08 08 49.5   0.0117 1.0277 166.7 Am  21?   1.56 261.5   27 131  59  77
   2024 07 16 21:30  19 35 38.41    -08 08 51.7   0.0117 1.0277 166.7 Am  21?   1.63 262.3   28 133  59  77
   2024 07 16 21:40  19 35 37.30    -08 08 53.8   0.0117 1.0277 166.7 Am  21?   1.69 263.0   30 135  59  77
   2024 07 16 21:50  19 35 36.15    -08 08 55.7   0.0117 1.0277 166.7  m  21?   1.76 263.7   31 138  59  77
   2024 07 16 22:00  19 35 34.95    -08 08 57.5   0.0117 1.0277 166.7  m  21?   1.81 264.3   32 140  59  77
   2024 07 16 22:10  19 35 33.72    -08 08 59.2   0.0117 1.0277 166.7  m  21?   1.87 264.8   33 143  58  77
   2024 07 16 22:20  19 35 32.44    -08 09 00.8   0.0117 1.0277 166.7  m  21?   1.92 265.4   34 146  58  77
   2024 07 16 22:30  19 35 31.14    -08 09 02.2   0.0117 1.0277 166.7  m  21?   1.97 265.9   35 148  58  77
   2024 07 16 22:40  19 35 29.80    -08 09 03.5   0.0117 1.0277 166.7  m  21?   2.01 266.4   36 151  58  77
   2024 07 16 22:50  19 35 28.43    -08 09 04.6   0.0117 1.0277 166.7  m  21?   2.05 266.8   37 154  58  77
   2024 07 16 23:00  19 35 27.04    -08 09 05.6   0.0117 1.0277 166.7  m  21?   2.08 267.3   38 157  58  77
   2024 07 16 23:10  19 35 25.63    -08 09 06.4   0.0117 1.0277 166.7  m  21?   2.11 267.7   39 160  58  77
   2024 07 16 23:20  19 35 24.20    -08 09 07.1   0.0117 1.0277 166.7  m  21?   2.14 268.1   39 163  58  77
   2024 07 16 23:30  19 35 22.75    -08 09 07.7   0.0117 1.0277 166.7  m  21?   2.16 268.6   40 167  58  77
   2024 07 16 23:40  19 35 21.29    -08 09 08.1   0.0117 1.0277 166.7  m  21?   2.18 269.0   40 170  58  77
   2024 07 16 23:50  19 35 19.82    -08 09 08.3   0.0117 1.0277 166.7  m  21?   2.19 269.4   40 173  58  77
   2024 07 17 00:00  19 35 18.34    -08 09 08.4   0.0117 1.0277 166.6  m  21?   2.20 269.8   40 176  58  77
   2024 07 17 00:10  19 35 16.86    -08 09 08.4   0.0117 1.0277 166.6  t  21?   2.20 270.2   41 180  58  77
   2024 07 17 00:20  19 35 15.38    -08 09 08.2   0.0117 1.0277 166.6  m  21?   2.19 270.6   40 183  58  77
   2024 07 17 00:30  19 35 13.91    -08 09 07.8   0.0117 1.0277 166.6  m  21?   2.19 271.0   40 186  58  78
   2024 07 17 00:40  19 35 12.44    -08 09 07.3   0.0117 1.0277 166.6  m  21?   2.18 271.4   40 189  57  78
   2024 07 17 00:50  19 35 10.98    -08 09 06.6   0.0117 1.0277 166.6  m  21?   2.16 271.8   40 193  57  78
   2024 07 17 01:00  19 35 09.53    -08 09 05.8   0.0117 1.0277 166.6     21?   2.14 272.2   39 196  57  78
   2024 07 17 01:10  19 35 08.10    -08 09 04.8   0.0117 1.0277 166.6     21?   2.11 272.6   39 199  57  78
   2024 07 17 01:20  19 35 06.69    -08 09 03.7   0.0117 1.0277 166.6     21?   2.08 273.1   38 202  57  78
   2024 07 17 01:30  19 35 05.31    -08 09 02.5   0.0117 1.0277 166.6     21?   2.05 273.5   37 205  57  78
   2024 07 17 01:40  19 35 03.94    -08 09 01.1   0.0117 1.0277 166.6     21?   2.01 274.0   36 208  57  78
   2024 07 17 01:50  19 35 02.61    -08 08 59.5   0.0117 1.0277 166.6     21?   1.96 274.5   35 211  57  78
   2024 07 17 02:00  19 35 01.31    -08 08 57.9   0.0117 1.0277 166.6     21?   1.92 275.0   34 214  57  78
   2024 07 17 02:10  19 35 00.04    -08 08 56.1   0.0117 1.0277 166.6     21?   1.86 275.6   33 216  57  78
   2024 07 17 02:20  19 34 58.81    -08 08 54.1   0.0117 1.0277 166.6     21?   1.81 276.2   32 219  57  78
   2024 07 17 02:30  19 34 57.62    -08 08 52.1   0.0117 1.0277 166.6     21?   1.75 276.8   31 221  57  78
   2024 07 17 02:40  19 34 56.47    -08 08 49.9   0.0117 1.0277 166.6     21?   1.69 277.5   29 224  56  78
   2024 07 17 02:50  19 34 55.37    -08 08 47.6   0.0117 1.0277 166.6     21?   1.62 278.2   28 226  56  78
   2024 07 17 03:00  19 34 54.31    -08 08 45.2   0.0117 1.0277 166.6 A   21?   1.55 279.0   27 229  56  78
   2024 07 17 03:10  19 34 53.31    -08 08 42.6   0.0117 1.0277 166.6 A   21?   1.48 279.9   25 231  56  78
   2024 07 17 03:20  19 34 52.36    -08 08 40.0   0.0117 1.0277 166.6 A   21?   1.40 280.9   24 233  56  78
   2024 07 17 03:30  19 34 51.46    -08 08 37.3   0.0117 1.0277 166.6 A   21?   1.32 282.0   22 235  56  79
   2024 07 17 03:40  19 34 50.62    -08 08 34.4   0.0117 1.0277 166.6 A   21?   1.24 283.2   21 237  56  79
   2024 07 17 03:50  19 34 49.84    -08 08 31.5   0.0117 1.0277 166.6 N   21?   1.15 284.7   19 239  56  79
   2024 07 17 04:00  19 34 49.12    -08 08 28.5   0.0117 1.0277 166.6 N   21?   1.07 286.3   17 241  56  79
   2024 07 17 04:10  19 34 48.46    -08 08 25.4   0.0117 1.0277 166.6 N   21?   0.98 288.3   16 243  56  79
   2024 07 17 04:20  19 34 47.86    -08 08 22.3   0.0117 1.0277 166.6 N   21?   0.89 290.7   14 245  56  79
   2024 07 17 04:30  19 34 47.33    -08 08 19.1   0.0117 1.0277 166.6 C   21?   0.80 293.6   12 247  55  79
   2024 07 17 04:40  19 34 46.87    -08 08 15.8   0.0117 1.0277 166.6 C   21?   0.72 297.3   10 249  55  79
   2024 07 17 04:50  19 34 46.48    -08 08 12.5   0.0117 1.0277 166.6 C   21?   0.63 301.9    9 250  55  79
   ................
   2024 07 17 19:50  19 36 15.68    -08 08 24.9   0.0117 1.0277 166.7 Cm  21?   0.83 247.0   13 113  48  84
   2024 07 17 20:00  19 36 15.13    -08 08 28.1   0.0117 1.0277 166.7 Cm  21?   0.92 249.8   15 115  48  84
   2024 07 17 20:10  19 36 14.52    -08 08 31.2   0.0117 1.0277 166.7 Cm  21?   1.01 252.0   16 117  47  85
   2024 07 17 20:20  19 36 13.84    -08 08 34.3   0.0117 1.0277 166.7 Nm  21?   1.09 253.9   18 119  47  85
   2024 07 17 20:30  19 36 13.11    -08 08 37.2   0.0117 1.0277 166.7 Nm  21?   1.18 255.5   20 121  47  85
   2024 07 17 20:40  19 36 12.31    -08 08 40.1   0.0117 1.0277 166.7 Nm  21?   1.26 256.9   21 123  47  85
   2024 07 17 20:50  19 36 11.45    -08 08 42.9   0.0117 1.0277 166.7 Nm  21?   1.34 258.1   23 125  47  85
   2024 07 17 21:00  19 36 10.54    -08 08 45.5   0.0117 1.0277 166.7 Am  21?   1.42 259.2   24 127  47  85
   2024 07 17 21:10  19 36 09.58    -08 08 48.1   0.0117 1.0277 166.6 Am  21?   1.49 260.1   26 129  47  85
   2024 07 17 21:20  19 36 08.56    -08 08 50.5   0.0117 1.0277 166.6 Am  21?   1.56 261.0   27 131  47  85
   2024 07 17 21:30  19 36 07.50    -08 08 52.9   0.0117 1.0277 166.6 Am  21?   1.63 261.8   29 134  47  85
   2024 07 17 21:40  19 36 06.39    -08 08 55.1   0.0117 1.0277 166.6 Am  21?   1.70 262.5   30 136  47  85
   2024 07 17 21:50  19 36 05.23    -08 08 57.2   0.0117 1.0277 166.6  m  21?   1.76 263.2   31 139  47  85
   2024 07 17 22:00  19 36 04.04    -08 08 59.2   0.0117 1.0277 166.6  m  21?   1.82 263.8   32 141  47  85
   2024 07 17 22:10  19 36 02.80    -08 09 01.0   0.0117 1.0277 166.6  m  21?   1.87 264.4   34 144  47  85
   2024 07 17 22:20  19 36 01.53    -08 09 02.7   0.0117 1.0277 166.6  m  21?   1.92 264.9   35 147  47  85
   2024 07 17 22:30  19 36 00.23    -08 09 04.3   0.0117 1.0277 166.6  m  21?   1.97 265.5   36 149  47  85
   2024 07 17 22:40  19 35 58.89    -08 09 05.7   0.0117 1.0277 166.6  m  21?   2.01 266.0   37 152  47  85
   2024 07 17 22:50  19 35 57.53    -08 09 07.0   0.0117 1.0277 166.6  m  21?   2.04 266.4   37 155  47  85
   2024 07 17 23:00  19 35 56.14    -08 09 08.1   0.0117 1.0277 166.6  m  21?   2.08 266.9   38 158  47  85
   2024 07 17 23:10  19 35 54.74    -08 09 09.1   0.0117 1.0277 166.6  m  21?   2.10 267.3   39 161  46  85
   2024 07 17 23:20  19 35 53.31    -08 09 09.9   0.0117 1.0277 166.6  m  21?   2.13 267.8   39 164  46  85
   2024 07 17 23:30  19 35 51.87    -08 09 10.6   0.0117 1.0277 166.6  m  21?   2.15 268.2   40 168  46  85
   2024 07 17 23:40  19 35 50.42    -08 09 11.2   0.0117 1.0277 166.6  m  21?   2.16 268.6   40 171  46  85
   2024 07 17 23:50  19 35 48.96    -08 09 11.6   0.0117 1.0277 166.6  m  21?   2.17 269.0   40 174  46  85
   2024 07 18 00:00  19 35 47.50    -08 09 11.8   0.0117 1.0277 166.6  m  21?   2.18 269.4   40 177  46  85
   2024 07 18 00:10  19 35 46.03    -08 09 11.9   0.0117 1.0277 166.6  t  21?   2.18 269.8   41 181  46  85
   2024 07 18 00:20  19 35 44.57    -08 09 11.8   0.0117 1.0277 166.6  m  21?   2.17 270.2   40 184  46  85
   2024 07 18 00:30  19 35 43.11    -08 09 11.6   0.0117 1.0277 166.6  m  21?   2.16 270.6   40 187  46  85
   2024 07 18 00:40  19 35 41.66    -08 09 11.2   0.0117 1.0277 166.6  m  21?   2.15 271.0   40 191  46  85
   2024 07 18 00:50  19 35 40.22    -08 09 10.7   0.0117 1.0277 166.6  m  21?   2.13 271.4   39 194  46  85
   2024 07 18 01:00  19 35 38.79    -08 09 10.0   0.0117 1.0277 166.6  m  21?   2.11 271.9   39 197  46  86
   2024 07 18 01:10  19 35 37.38    -08 09 09.2   0.0117 1.0277 166.6  m  21?   2.08 272.3   38 200  46  86
   2024 07 18 01:20  19 35 35.99    -08 09 08.2   0.0117 1.0277 166.6  m  21?   2.05 272.7   38 203  46  86
   2024 07 18 01:30  19 35 34.62    -08 09 07.1   0.0117 1.0277 166.6  m  21?   2.01 273.2   37 206  45  86
   2024 07 18 01:40  19 35 33.28    -08 09 05.9   0.0117 1.0277 166.6     21?   1.97 273.7   36 209  45  86
   2024 07 18 01:50  19 35 31.97    -08 09 04.5   0.0117 1.0277 166.6     21?   1.93 274.2   35 212  45  86
   2024 07 18 02:00  19 35 30.70    -08 09 03.0   0.0117 1.0276 166.6     21?   1.88 274.7   34 215  45  86
   2024 07 18 02:10  19 35 29.45    -08 09 01.3   0.0117 1.0276 166.6     21?   1.82 275.2   33 217  45  86
   2024 07 18 02:20  19 35 28.25    -08 08 59.5   0.0117 1.0276 166.6     21?   1.77 275.8   32 220  45  86
   2024 07 18 02:30  19 35 27.09    -08 08 57.6   0.0117 1.0276 166.6     21?   1.71 276.5   30 222  45  86
   2024 07 18 02:40  19 35 25.97    -08 08 55.6   0.0117 1.0276 166.6     21?   1.64 277.1   29 225  45  86
   2024 07 18 02:50  19 35 24.90    -08 08 53.4   0.0117 1.0276 166.6     21?   1.57 277.9   28 227  45  86
   2024 07 18 03:00  19 35 23.87    -08 08 51.2   0.0117 1.0276 166.6 A   21?   1.50 278.7   26 229  45  86
   2024 07 18 03:10  19 35 22.90    -08 08 48.8   0.0117 1.0276 166.6 A   21?   1.43 279.6   25 232  45  86
   2024 07 18 03:20  19 35 21.98    -08 08 46.3   0.0117 1.0276 166.6 A   21?   1.35 280.6   23 234  45  86
   2024 07 18 03:30  19 35 21.11    -08 08 43.8   0.0117 1.0276 166.6 A   21?   1.27 281.7   22 236  44  86
   2024 07 18 03:40  19 35 20.31    -08 08 41.1   0.0117 1.0276 166.6 A   21?   1.19 283.0   20 238  44  86
   2024 07 18 03:50  19 35 19.56    -08 08 38.3   0.0117 1.0276 166.6 N   21?   1.10 284.5   18 240  44  86
   2024 07 18 04:00  19 35 18.87    -08 08 35.5   0.0117 1.0276 166.6 N   21?   1.01 286.3   17 242  44  86
   2024 07 18 04:10  19 35 18.25    -08 08 32.6   0.0117 1.0276 166.6 N   21?   0.93 288.3   15 244  44  86
   2024 07 18 04:20  19 35 17.69    -08 08 29.6   0.0117 1.0276 166.6 N   21?   0.84 290.9   13 246  44  86
   2024 07 18 04:30  19 35 17.20    -08 08 26.6   0.0117 1.0276 166.6 C   21?   0.75 294.0   12 247  44  86
   2024 07 18 04:40  19 35 16.77    -08 08 23.5   0.0117 1.0276 166.6 C   21?   0.66 298.1   10 249  44  87
   2024 07 18 04:50  19 35 16.41    -08 08 20.3   0.0117 1.0276 166.6 C   21?   0.57 303.3    8 251  44  87
   ................
   2024 07 18 19:50  19 36 46.67    -08 08 52.1   0.0117 1.0276 166.6 Cm  21?   0.85 246.4   13 114  36  91
   2024 07 18 20:00  19 36 46.12    -08 08 55.5   0.0117 1.0276 166.6 Cm  21?   0.94 249.1   15 115  36  91
   2024 07 18 20:10  19 36 45.49    -08 08 58.7   0.0117 1.0276 166.6 Cm  21?   1.02 251.4   17 117  36  91
   2024 07 18 20:20  19 36 44.81    -08 09 01.9   0.0117 1.0276 166.6 Nm  21?   1.11 253.3   19 119  36  91
   2024 07 18 20:30  19 36 44.06    -08 09 05.0   0.0117 1.0276 166.6 Nm  21?   1.19 254.9   20 121  36  91
   2024 07 18 20:40  19 36 43.26    -08 09 08.1   0.0117 1.0276 166.6 Nm  21?   1.27 256.3   22 123  36  91
   2024 07 18 20:50  19 36 42.40    -08 09 11.0   0.0117 1.0276 166.6 Nm  21?   1.35 257.6   23 125  36  91
   2024 07 18 21:00  19 36 41.48    -08 09 13.8   0.0117 1.0276 166.6 Am  21?   1.43 258.6   25 128  36  91
   2024 07 18 21:10  19 36 40.51    -08 09 16.5   0.0117 1.0276 166.6 Am  21?   1.50 259.6   26 130  36  91
   2024 07 18 21:20  19 36 39.49    -08 09 19.1   0.0117 1.0276 166.6 Am  21?   1.57 260.5   28 132  36  91
   2024 07 18 21:30  19 36 38.42    -08 09 21.6   0.0117 1.0276 166.6 Am  21?   1.64 261.3   29 134  36  91
   2024 07 18 21:40  19 36 37.31    -08 09 24.0   0.0117 1.0276 166.6 Am  21?   1.70 262.0   30 137  36  91
   2024 07 18 21:50  19 36 36.15    -08 09 26.2   0.0117 1.0276 166.6  m  21?   1.76 262.7   32 139  35  91
   2024 07 18 22:00  19 36 34.95    -08 09 28.3   0.0117 1.0276 166.6  m  21?   1.82 263.4   33 142  35  92
   2024 07 18 22:10  19 36 33.72    -08 09 30.3   0.0117 1.0276 166.6  m  21?   1.87 264.0   34 145  35  92
   2024 07 18 22:20  19 36 32.45    -08 09 32.1   0.0117 1.0276 166.6  m  21?   1.92 264.5   35 147  35  92
   2024 07 18 22:30  19 36 31.15    -08 09 33.8   0.0117 1.0276 166.6  m  21?   1.96 265.0   36 150  35  92
   2024 07 18 22:40  19 36 29.82    -08 09 35.4   0.0117 1.0276 166.6  m  21?   2.00 265.5   37 153  35  92
   2024 07 18 22:50  19 36 28.46    -08 09 36.8   0.0117 1.0276 166.6  m  21?   2.04 266.0   38 156  35  92
   2024 07 18 23:00  19 36 27.08    -08 09 38.1   0.0117 1.0276 166.6  m  21?   2.07 266.5   38 159  35  92
   2024 07 18 23:10  19 36 25.68    -08 09 39.2   0.0117 1.0276 166.6  m  21?   2.10 266.9   39 162  35  92
   2024 07 18 23:20  19 36 24.26    -08 09 40.2   0.0117 1.0276 166.6  m  21?   2.12 267.4   40 166  35  92
   2024 07 18 23:30  19 36 22.83    -08 09 41.0   0.0117 1.0276 166.6  m  21?   2.13 267.8   40 169  35  92
   2024 07 18 23:40  19 36 21.39    -08 09 41.7   0.0117 1.0276 166.6  m  21?   2.15 268.2   40 172  35  92
   2024 07 18 23:50  19 36 19.94    -08 09 42.2   0.0117 1.0276 166.6  m  21?   2.16 268.6   40 175  35  92
   2024 07 19 00:00  19 36 18.49    -08 09 42.6   0.0117 1.0276 166.6  m  21?   2.16 269.0   41 179  35  92
   2024 07 19 00:10  19 36 17.03    -08 09 42.8   0.0117 1.0276 166.6  t  21?   2.16 269.4   40 182  35  92
   2024 07 19 00:20  19 36 15.58    -08 09 42.9   0.0117 1.0276 166.6  m  21?   2.15 269.8   40 185  35  92
   2024 07 19 00:30  19 36 14.14    -08 09 42.8   0.0117 1.0276 166.6  m  21?   2.14 270.3   40 188  35  92
   2024 07 19 00:40  19 36 12.70    -08 09 42.6   0.0117 1.0276 166.5  m  21?   2.13 270.7   40 192  34  92
   2024 07 19 00:50  19 36 11.27    -08 09 42.2   0.0117 1.0276 166.5  m  21?   2.11 271.1   39 195  34  92
   2024 07 19 01:00  19 36 09.86    -08 09 41.6   0.0117 1.0276 166.5  m  21?   2.08 271.5   39 198  34  92
   2024 07 19 01:10  19 36 08.47    -08 09 41.0   0.0117 1.0276 166.5  m  21?   2.05 271.9   38 201  34  92
   2024 07 19 01:20  19 36 07.10    -08 09 40.1   0.0117 1.0276 166.5  m  21?   2.02 272.4   37 204  34  92
   2024 07 19 01:30  19 36 05.76    -08 09 39.2   0.0117 1.0276 166.5  m  21?   1.98 272.8   37 207  34  92
   2024 07 19 01:40  19 36 04.44    -08 09 38.0   0.0117 1.0276 166.5  m  21?   1.94 273.3   36 210  34  92
   2024 07 19 01:50  19 36 03.15    -08 09 36.8   0.0117 1.0276 166.5  m  21?   1.89 273.8   35 213  34  92
   2024 07 19 02:00  19 36 01.90    -08 09 35.4   0.0117 1.0276 166.5  m  21?   1.84 274.4   34 215  34  92
   2024 07 19 02:10  19 36 00.68    -08 09 33.9   0.0117 1.0276 166.5  m  21?   1.79 274.9   32 218  34  92
   2024 07 19 02:20  19 35 59.51    -08 09 32.2   0.0117 1.0276 166.5  m  21?   1.73 275.5   31 221  34  92
   2024 07 19 02:30  19 35 58.37    -08 09 30.5   0.0117 1.0276 166.5     21?   1.66 276.1   30 223  34  92
   2024 07 19 02:40  19 35 57.28    -08 09 28.6   0.0117 1.0276 166.5     21?   1.60 276.8   29 226  34  92
   2024 07 19 02:50  19 35 56.24    -08 09 26.6   0.0117 1.0276 166.5     21?   1.53 277.6   27 228  34  92
   2024 07 19 03:00  19 35 55.24    -08 09 24.5   0.0117 1.0276 166.5     21?   1.46 278.4   26 230  33  92
   2024 07 19 03:10  19 35 54.30    -08 09 22.2   0.0117 1.0276 166.5 A   21?   1.38 279.3   24 232  33  92
   2024 07 19 03:20  19 35 53.41    -08 09 19.9   0.0117 1.0276 166.5 A   21?   1.30 280.3   23 235  33  92
   2024 07 19 03:30  19 35 52.57    -08 09 17.5   0.0117 1.0276 166.5 A   21?   1.22 281.5   21 237  33  92
   2024 07 19 03:40  19 35 51.80    -08 09 15.0   0.0117 1.0276 166.5 A   21?   1.14 282.8   19 239  33  93
   2024 07 19 03:50  19 35 51.08    -08 09 12.4   0.0117 1.0276 166.5 N   21?   1.05 284.4   18 241  33  93
   2024 07 19 04:00  19 35 50.43    -08 09 09.7   0.0117 1.0276 166.5 N   21?   0.96 286.2   16 243  33  93
   2024 07 19 04:10  19 35 49.84    -08 09 06.9   0.0117 1.0276 166.5 N   21?   0.87 288.4   14 244  33  93
   2024 07 19 04:20  19 35 49.31    -08 09 04.1   0.0117 1.0276 166.5 N   21?   0.78 291.1   13 246  33  93
   2024 07 19 04:30  19 35 48.86    -08 09 01.2   0.0117 1.0276 166.5 C   21?   0.69 294.6   11 248  33  93
   2024 07 19 04:40  19 35 48.47    -08 08 58.3   0.0117 1.0276 166.5 C   21?   0.61 299.1    9 250  33  93
   2024 07 19 04:50  19 35 48.14    -08 08 55.3   0.0117 1.0276 166.5 C   21?   0.52 305.0    7 252  33  93
   ................
   2024 07 19 19:50  19 37 19.36    -08 09 45.8   0.0117 1.0275 166.5 Cm  21?   0.87 245.8   14 114  26  96
   2024 07 19 20:00  19 37 18.79    -08 09 49.3   0.0117 1.0275 166.5 Cm  21?   0.96 248.5   16 116  26  96
   2024 07 19 20:10  19 37 18.16    -08 09 52.7   0.0117 1.0275 166.5 Cm  21?   1.04 250.8   17 118  26  96
   2024 07 19 20:20  19 37 17.46    -08 09 56.1   0.0117 1.0275 166.5 Nm  21?   1.13 252.7   19 120  26  96
   2024 07 19 20:30  19 37 16.71    -08 09 59.4   0.0117 1.0275 166.5 Nm  21?   1.21 254.4   21 122  26  96
   2024 07 19 20:40  19 37 15.89    -08 10 02.5   0.0117 1.0275 166.5 Nm  21?   1.29 255.8   22 124  25  96
   2024 07 19 20:50  19 37 15.02    -08 10 05.6   0.0117 1.0275 166.5 Nm  21?   1.37 257.0   24 126  25  96
   2024 07 19 21:00  19 37 14.10    -08 10 08.6   0.0117 1.0275 166.5 Am  21?   1.44 258.1   25 128  25  96
   2024 07 19 21:10  19 37 13.12    -08 10 11.4   0.0117 1.0275 166.5 Am  21?   1.51 259.1   27 131  25  96
   2024 07 19 21:20  19 37 12.10    -08 10 14.2   0.0117 1.0275 166.5 Am  21?   1.58 260.0   28 133  25  96
   2024 07 19 21:30  19 37 11.03    -08 10 16.8   0.0117 1.0275 166.5 Am  21?   1.65 260.8   30 135  25  96
   2024 07 19 21:40  19 37 09.91    -08 10 19.3   0.0117 1.0275 166.5  m  21?   1.71 261.6   31 138  25  96
   2024 07 19 21:50  19 37 08.75    -08 10 21.7   0.0117 1.0275 166.5  m  21?   1.77 262.3   32 140  25  96
   2024 07 19 22:00  19 37 07.55    -08 10 24.0   0.0117 1.0275 166.5  m  21?   1.82 262.9   33 143  25  96
   2024 07 19 22:10  19 37 06.31    -08 10 26.1   0.0117 1.0275 166.5  m  21?   1.87 263.5   34 146  25  96
   2024 07 19 22:20  19 37 05.04    -08 10 28.1   0.0117 1.0275 166.5  m  21?   1.92 264.1   35 148  25  96
   2024 07 19 22:30  19 37 03.74    -08 10 29.9   0.0117 1.0275 166.5  m  21?   1.96 264.6   36 151  25  96
   2024 07 19 22:40  19 37 02.41    -08 10 31.6   0.0117 1.0275 166.5  m  21?   2.00 265.2   37 154  25  96
   2024 07 19 22:50  19 37 01.06    -08 10 33.2   0.0117 1.0275 166.5  m  21?   2.03 265.6   38 157  25  96
   2024 07 19 23:00  19 36 59.68    -08 10 34.6   0.0117 1.0275 166.5  m  21?   2.06 266.1   39 160  25  96
   2024 07 19 23:10  19 36 58.28    -08 10 35.8   0.0117 1.0275 166.5  m  21?   2.09 266.6   39 163  25  96
   2024 07 19 23:20  19 36 56.87    -08 10 36.9   0.0117 1.0275 166.5  m  21?   2.11 267.0   40 167  25  96
   2024 07 19 23:30  19 36 55.45    -08 10 37.9   0.0117 1.0275 166.5  m  21?   2.12 267.4   40 170  25  96
   2024 07 19 23:40  19 36 54.01    -08 10 38.7   0.0117 1.0275 166.5  m  21?   2.14 267.9   40 173  25  96
   2024 07 19 23:50  19 36 52.57    -08 10 39.4   0.0117 1.0275 166.5  m  21?   2.14 268.3   40 176  25  97
   2024 07 20 00:00  19 36 51.13    -08 10 39.9   0.0117 1.0275 166.5  t  21?   2.14 268.7   40 180  25  97
   2024 07 20 00:10  19 36 49.69    -08 10 40.2   0.0117 1.0275 166.5  m  21?   2.14 269.1   40 183  25  97
   2024 07 20 00:20  19 36 48.25    -08 10 40.4   0.0117 1.0275 166.4  m  21?   2.13 269.5   40 186  24  97
   2024 07 20 00:30  19 36 46.82    -08 10 40.5   0.0117 1.0275 166.4  m  21?   2.12 269.9   40 190  24  97
   2024 07 20 00:40  19 36 45.39    -08 10 40.3   0.0117 1.0275 166.4  m  21?   2.10 270.3   40 193  24  97
   2024 07 20 00:50  19 36 43.98    -08 10 40.1   0.0117 1.0275 166.4  m  21?   2.08 270.7   39 196  24  97
   2024 07 20 01:00  19 36 42.59    -08 10 39.7   0.0117 1.0275 166.4  m  21?   2.06 271.2   39 199  24  97
   2024 07 20 01:10  19 36 41.22    -08 10 39.1   0.0117 1.0275 166.4  m  21?   2.02 271.6   38 202  24  97
   2024 07 20 01:20  19 36 39.87    -08 10 38.4   0.0117 1.0275 166.4  m  21?   1.99 272.0   37 205  24  97
   2024 07 20 01:30  19 36 38.54    -08 10 37.6   0.0117 1.0275 166.4  m  21?   1.95 272.5   36 208  24  97
   2024 07 20 01:40  19 36 37.25    -08 10 36.6   0.0117 1.0275 166.4  m  21?   1.91 273.0   35 211  24  97
   2024 07 20 01:50  19 36 35.98    -08 10 35.5   0.0117 1.0275 166.4  m  21?   1.86 273.5   34 214  24  97
   2024 07 20 02:00  19 36 34.75    -08 10 34.2   0.0117 1.0275 166.4  m  21?   1.81 274.0   33 216  24  97
   2024 07 20 02:10  19 36 33.56    -08 10 32.8   0.0117 1.0275 166.4  m  21?   1.75 274.6   32 219  24  97
   2024 07 20 02:20  19 36 32.40    -08 10 31.3   0.0117 1.0275 166.4  m  21?   1.69 275.2   31 221  24  97
   2024 07 20 02:30  19 36 31.29    -08 10 29.7   0.0117 1.0275 166.4  m  21?   1.63 275.8   29 224  24  97
   2024 07 20 02:40  19 36 30.23    -08 10 27.9   0.0117 1.0275 166.4  m  21?   1.56 276.5   28 226  24  97
   2024 07 20 02:50  19 36 29.21    -08 10 26.1   0.0117 1.0275 166.4  m  21?   1.49 277.3   27 229  24  97
   2024 07 20 03:00  19 36 28.24    -08 10 24.1   0.0117 1.0275 166.4  m  21?   1.41 278.1   25 231  24  97
   2024 07 20 03:10  19 36 27.33    -08 10 22.0   0.0117 1.0275 166.4 Am  21?   1.34 279.0   24 233  23  97
   2024 07 20 03:20  19 36 26.46    -08 10 19.8   0.0117 1.0275 166.4 Am  21?   1.26 280.1   22 235  23  97
   2024 07 20 03:30  19 36 25.66    -08 10 17.6   0.0117 1.0275 166.4 A   21?   1.17 281.2   21 237  23  97
   2024 07 20 03:40  19 36 24.92    -08 10 15.2   0.0117 1.0275 166.4 A   21?   1.09 282.6   19 239  23  97
   2024 07 20 03:50  19 36 24.23    -08 10 12.7   0.0117 1.0275 166.4 N   21?   1.00 284.2   17 241  23  97
   2024 07 20 04:00  19 36 23.61    -08 10 10.2   0.0117 1.0275 166.4 N   21?   0.91 286.1   16 243  23  97
   2024 07 20 04:10  19 36 23.05    -08 10 07.6   0.0117 1.0275 166.4 N   21?   0.82 288.5   14 245  23  97
   2024 07 20 04:20  19 36 22.56    -08 10 04.9   0.0117 1.0275 166.4 N   21?   0.73 291.4   12 247  23  97
   2024 07 20 04:30  19 36 22.13    -08 10 02.2   0.0117 1.0275 166.4 C   21?   0.64 295.2   10 249  23  97
   2024 07 20 04:40  19 36 21.78    -08 09 59.4   0.0117 1.0275 166.4 C   21?   0.56 300.2    9 250  23  97
   2024 07 20 04:50  19 36 21.49    -08 09 56.6   0.0117 1.0275 166.4 C   21?   0.47 307.0    7 252  23  97
   ................
   2024 07 20 19:50  19 37 53.50    -08 11 05.5   0.0117 1.0274 166.4 Cm  21?   0.90 245.3   15 115  19  99
   2024 07 20 20:00  19 37 52.92    -08 11 09.2   0.0117 1.0274 166.4 Cm  21?   0.98 248.0   16 117  19  99
   2024 07 20 20:10  19 37 52.28    -08 11 12.8   0.0117 1.0274 166.4 Cm  21?   1.06 250.3   18 119  19  99
   2024 07 20 20:20  19 37 51.57    -08 11 16.3   0.0117 1.0274 166.4 Nm  21?   1.15 252.2   20 121  19  99
   2024 07 20 20:30  19 37 50.80    -08 11 19.7   0.0117 1.0274 166.4 Nm  21?   1.23 253.9   21 123  19  99
   2024 07 20 20:40  19 37 49.98    -08 11 23.1   0.0117 1.0274 166.4 Nm  21?   1.31 255.3   23 125  19  99
   2024 07 20 20:50  19 37 49.10    -08 11 26.3   0.0117 1.0274 166.4 Nm  21?   1.38 256.5   24 127  19  99
   2024 07 20 21:00  19 37 48.17    -08 11 29.4   0.0117 1.0274 166.4 Am  21?   1.46 257.7   26 129  19  99
   2024 07 20 21:10  19 37 47.18    -08 11 32.4   0.0117 1.0274 166.4 Am  21?   1.53 258.7   27 131  19  99
   2024 07 20 21:20  19 37 46.15    -08 11 35.3   0.0117 1.0274 166.4 Am  21?   1.59 259.6   29 134  19  99
   2024 07 20 21:30  19 37 45.07    -08 11 38.1   0.0117 1.0274 166.4 Am  21?   1.66 260.4   30 136  19  99
   2024 07 20 21:40  19 37 43.95    -08 11 40.8   0.0117 1.0274 166.4  m  21?   1.72 261.2   31 139  19  99
   2024 07 20 21:50  19 37 42.78    -08 11 43.3   0.0117 1.0274 166.4  m  21?   1.78 261.9   32 141  19  99
   2024 07 20 22:00  19 37 41.58    -08 11 45.7   0.0117 1.0274 166.4  m  21?   1.83 262.5   34 144  19  99
   2024 07 20 22:10  19 37 40.34    -08 11 47.9   0.0117 1.0274 166.4  m  21?   1.88 263.1   35 147  19  99
   2024 07 20 22:20  19 37 39.07    -08 11 50.1   0.0117 1.0274 166.3  m  21?   1.92 263.7   36 149  19  99
   2024 07 20 22:30  19 37 37.76    -08 11 52.0   0.0117 1.0274 166.3  m  21?   1.96 264.2   37 152  19  99
   2024 07 20 22:40  19 37 36.43    -08 11 53.9   0.0117 1.0274 166.3  m  21?   2.00 264.8   37 155  19  99
   2024 07 20 22:50  19 37 35.08    -08 11 55.6   0.0117 1.0274 166.3  m  21?   2.03 265.3   38 158  19  99
   2024 07 20 23:00  19 37 33.71    -08 11 57.1   0.0117 1.0274 166.3  m  21?   2.06 265.7   39 161  19  99
   2024 07 20 23:10  19 37 32.31    -08 11 58.5   0.0117 1.0274 166.3  m  21?   2.08 266.2   39 164  19  99
   2024 07 20 23:20  19 37 30.90    -08 11 59.7   0.0117 1.0274 166.3  m  21?   2.10 266.6   40 168  19  99
   2024 07 20 23:30  19 37 29.49    -08 12 00.8   0.0117 1.0274 166.3  m  21?   2.12 267.1   40 171  19  99
   2024 07 20 23:40  19 37 28.06    -08 12 01.8   0.0117 1.0274 166.3  m  21?   2.13 267.5   40 174  19  99
   2024 07 20 23:50  19 37 26.63    -08 12 02.6   0.0117 1.0274 166.3  m  21?   2.13 267.9   40 177  19  99
   2024 07 21 00:00  19 37 25.19    -08 12 03.2   0.0117 1.0274 166.3  t  21?   2.13 268.3   40 181  19  99
   2024 07 21 00:10  19 37 23.76    -08 12 03.7   0.0117 1.0274 166.3  m  21?   2.13 268.7   40 184  19  99
   2024 07 21 00:20  19 37 22.33    -08 12 04.0   0.0117 1.0274 166.3  m  21?   2.12 269.2   40 187  19  99
   2024 07 21 00:30  19 37 20.91    -08 12 04.2   0.0117 1.0274 166.3  m  21?   2.10 269.6   40 191  19  99
   2024 07 21 00:40  19 37 19.50    -08 12 04.2   0.0117 1.0274 166.3  m  21?   2.08 270.0   39 194  19  99
   2024 07 21 00:50  19 37 18.10    -08 12 04.0   0.0117 1.0274 166.3  m  21?   2.06 270.4   39 197  19  99
   2024 07 21 01:00  19 37 16.72    -08 12 03.8   0.0117 1.0274 166.3  m  21?   2.03 270.8   38 200  19  99
   2024 07 21 01:10  19 37 15.36    -08 12 03.3   0.0117 1.0274 166.3  m  21?   2.00 271.3   38 203  19  99
   2024 07 21 01:20  19 37 14.03    -08 12 02.8   0.0117 1.0274 166.3  m  21?   1.96 271.7   37 206  19  99
   2024 07 21 01:30  19 37 12.72    -08 12 02.1   0.0117 1.0274 166.3  m  21?   1.92 272.2   36 209  18  99
   2024 07 21 01:40  19 37 11.44    -08 12 01.2   0.0117 1.0274 166.3  m  21?   1.88 272.6   35 212  18  99
   2024 07 21 01:50  19 37 10.20    -08 12 00.2   0.0117 1.0274 166.3  m  21?   1.83 273.1   34 215  18  99
   2024 07 21 02:00  19 37 08.99    -08 11 59.1   0.0117 1.0274 166.3  m  21?   1.77 273.7   33 217  18  99
   2024 07 21 02:10  19 37 07.82    -08 11 57.8   0.0117 1.0274 166.3  m  21?   1.72 274.2   32 220  18  99
   2024 07 21 02:20  19 37 06.68    -08 11 56.5   0.0117 1.0274 166.3  m  21?   1.65 274.8   30 222  18  99
   2024 07 21 02:30  19 37 05.60    -08 11 55.0   0.0117 1.0274 166.2  m  21?   1.59 275.5   29 225  18  99
   2024 07 21 02:40  19 37 04.56    -08 11 53.3   0.0117 1.0274 166.2  m  21?   1.52 276.2   28 227  18  99
   2024 07 21 02:50  19 37 03.56    -08 11 51.6   0.0117 1.0274 166.2  m  21?   1.45 276.9   26 229  18  99
   2024 07 21 03:00  19 37 02.62    -08 11 49.8   0.0117 1.0274 166.2  m  21?   1.37 277.7   25 232  18  99
   2024 07 21 03:10  19 37 01.73    -08 11 47.8   0.0117 1.0274 166.2 Am  21?   1.29 278.7   23 234  18  99
   2024 07 21 03:20  19 37 00.90    -08 11 45.8   0.0117 1.0274 166.2 Am  21?   1.21 279.7   22 236  18  99
   2024 07 21 03:30  19 37 00.12    -08 11 43.6   0.0117 1.0274 166.2 Am  21?   1.13 281.0   20 238  18  99
   2024 07 21 03:40  19 36 59.41    -08 11 41.4   0.0117 1.0274 166.2 Am  21?   1.04 282.4   18 240  18  99
   2024 07 21 03:50  19 36 58.75    -08 11 39.1   0.0117 1.0274 166.2 Nm  21?   0.96 284.0   17 242  18  99
   2024 07 21 04:00  19 36 58.16    -08 11 36.7   0.0117 1.0274 166.2 Nm  21?   0.87 286.0   15 244  18  99
   2024 07 21 04:10  19 36 57.63    -08 11 34.3   0.0117 1.0274 166.2 Nm  21?   0.78 288.5   13 246  18  99
   2024 07 21 04:20  19 36 57.17    -08 11 31.8   0.0117 1.0274 166.2 Nm  21?   0.69 291.6   12 247  18  99
   2024 07 21 04:30  19 36 56.77    -08 11 29.2   0.0117 1.0274 166.2 Cm  21?   0.60 295.7   10 249  18  99
   2024 07 21 04:40  19 36 56.45    -08 11 26.6   0.0117 1.0274 166.2 C   21?   0.51 301.3    8 251  18  99
   2024 07 21 04:50  19 36 56.19    -08 11 23.9   0.0117 1.0274 166.2 C   21?   0.42 309.2    6 253  18  99
   ................
   2024 07 21 19:50  19 38 28.81    -08 12 51.4   0.0117 1.0274 166.2 C   21?   0.92 244.9   15 115  21  99
   2024 07 21 20:00  19 38 28.21    -08 12 55.3   0.0117 1.0274 166.2 C   21?   1.01 247.6   17 117  21  99
   2024 07 21 20:10  19 38 27.56    -08 12 59.1   0.0117 1.0274 166.2 C   21?   1.09 249.8   19 119  21  99
   2024 07 21 20:20  19 38 26.84    -08 13 02.7   0.0117 1.0273 166.2 Nm  21?   1.17 251.7   20 121  21  99
   2024 07 21 20:30  19 38 26.06    -08 13 06.3   0.0117 1.0273 166.2 Nm  21?   1.25 253.4   22 123  21  99
   2024 07 21 20:40  19 38 25.22    -08 13 09.8   0.0117 1.0273 166.2 Nm  21?   1.33 254.8   23 125  21  99
   2024 07 21 20:50  19 38 24.33    -08 13 13.2   0.0117 1.0273 166.2 Nm  21?   1.40 256.1   25 128  21  99
   2024 07 21 21:00  19 38 23.39    -08 13 16.5   0.0117 1.0273 166.2 Am  21?   1.47 257.2   26 130  21  99
   2024 07 21 21:10  19 38 22.39    -08 13 19.6   0.0117 1.0273 166.2 Am  21?   1.54 258.2   28 132  21  99
   2024 07 21 21:20  19 38 21.35    -08 13 22.7   0.0117 1.0273 166.2 Am  21?   1.61 259.1   29 135  21  99
   2024 07 21 21:30  19 38 20.26    -08 13 25.6   0.0117 1.0273 166.2 Am  21?   1.67 260.0   30 137  21  99
   2024 07 21 21:40  19 38 19.13    -08 13 28.4   0.0117 1.0273 166.2  m  21?   1.73 260.7   32 139  21  99
   2024 07 21 21:50  19 38 17.96    -08 13 31.1   0.0117 1.0273 166.2  m  21?   1.79 261.4   33 142  21  99
   2024 07 21 22:00  19 38 16.75    -08 13 33.6   0.0117 1.0273 166.2  m  21?   1.84 262.1   34 145  21  99
   2024 07 21 22:10  19 38 15.50    -08 13 36.0   0.0117 1.0273 166.2  m  21?   1.89 262.7   35 148  21  99
   2024 07 21 22:20  19 38 14.23    -08 13 38.3   0.0117 1.0273 166.2  m  21?   1.93 263.3   36 150  21  99
   2024 07 21 22:30  19 38 12.92    -08 13 40.4   0.0117 1.0273 166.2  m  21?   1.97 263.8   37 153  21  99
   2024 07 21 22:40  19 38 11.59    -08 13 42.4   0.0117 1.0273 166.2  m  21?   2.00 264.4   38 156  21  99
   2024 07 21 22:50  19 38 10.23    -08 13 44.2   0.0117 1.0273 166.2  m  21?   2.04 264.9   38 159  21  99
   2024 07 21 23:00  19 38 08.86    -08 13 45.9   0.0117 1.0273 166.2  m  21?   2.06 265.4   39 162  21  99
   2024 07 21 23:10  19 38 07.47    -08 13 47.4   0.0117 1.0273 166.2  m  21?   2.08 265.8   39 166  21  99
   2024 07 21 23:20  19 38 06.06    -08 13 48.8   0.0117 1.0273 166.1  m  21?   2.10 266.3   40 169  21  99
   2024 07 21 23:30  19 38 04.64    -08 13 50.0   0.0117 1.0273 166.1  m  21?   2.11 266.7   40 172  21  99
   2024 07 21 23:40  19 38 03.22    -08 13 51.1   0.0117 1.0273 166.1  m  21?   2.12 267.1   40 175  21  99
   2024 07 21 23:50  19 38 01.79    -08 13 52.0   0.0117 1.0273 166.1  m  21?   2.12 267.6   40 179  22  99
   2024 07 22 00:00  19 38 00.36    -08 13 52.8   0.0117 1.0273 166.1  t  21?   2.12 268.0   40 182  22  99
   2024 07 22 00:10  19 37 58.94    -08 13 53.4   0.0117 1.0273 166.1  m  21?   2.11 268.4   40 185  22  99
   2024 07 22 00:20  19 37 57.52    -08 13 53.9   0.0117 1.0273 166.1  m  21?   2.10 268.8   40 188  22  99
   2024 07 22 00:30  19 37 56.10    -08 13 54.2   0.0117 1.0273 166.1  m  21?   2.09 269.2   40 192  22  99
   2024 07 22 00:40  19 37 54.70    -08 13 54.3   0.0117 1.0273 166.1  m  21?   2.07 269.6   39 195  22  99
   2024 07 22 00:50  19 37 53.32    -08 13 54.3   0.0117 1.0273 166.1  m  21?   2.04 270.0   39 198  22  99
   2024 07 22 01:00  19 37 51.95    -08 13 54.2   0.0117 1.0273 166.1  m  21?   2.01 270.5   38 201  22  99
   2024 07 22 01:10  19 37 50.61    -08 13 53.9   0.0117 1.0273 166.1  m  21?   1.98 270.9   37 204  22  99
   2024 07 22 01:20  19 37 49.29    -08 13 53.4   0.0117 1.0273 166.1  m  21?   1.94 271.3   36 207  22  99
   2024 07 22 01:30  19 37 47.99    -08 13 52.9   0.0117 1.0273 166.1  m  21?   1.90 271.8   36 210  22  99
   2024 07 22 01:40  19 37 46.73    -08 13 52.1   0.0117 1.0273 166.1  m  21?   1.85 272.3   35 213  22  99
   2024 07 22 01:50  19 37 45.50    -08 13 51.3   0.0117 1.0273 166.1  m  21?   1.80 272.8   33 215  22  99
   2024 07 22 02:00  19 37 44.31    -08 13 50.3   0.0117 1.0273 166.1  m  21?   1.74 273.3   32 218  22  99
   2024 07 22 02:10  19 37 43.16    -08 13 49.2   0.0117 1.0273 166.1  m  21?   1.69 273.8   31 221  22  99
   2024 07 22 02:20  19 37 42.05    -08 13 47.9   0.0117 1.0273 166.1  m  21?   1.62 274.4   30 223  22  99
   2024 07 22 02:30  19 37 40.98    -08 13 46.6   0.0117 1.0273 166.1  m  21?   1.56 275.1   28 226  22  99
   2024 07 22 02:40  19 37 39.96    -08 13 45.1   0.0117 1.0273 166.1  m  21?   1.49 275.8   27 228  22  99
   2024 07 22 02:50  19 37 38.99    -08 13 43.5   0.0117 1.0273 166.0  m  21?   1.41 276.5   26 230  22  99
   2024 07 22 03:00  19 37 38.07    -08 13 41.8   0.0117 1.0273 166.0  m  21?   1.34 277.4   24 232  22  99
   2024 07 22 03:10  19 37 37.21    -08 13 40.0   0.0117 1.0273 166.0 Am  21?   1.26 278.3   23 234  22  99
   2024 07 22 03:20  19 37 36.40    -08 13 38.1   0.0117 1.0273 166.0 Am  21?   1.17 279.4   21 237  22  99
   2024 07 22 03:30  19 37 35.65    -08 13 36.1   0.0117 1.0273 166.0 Am  21?   1.09 280.6   19 239  22  99
   2024 07 22 03:40  19 37 34.96    -08 13 34.0   0.0117 1.0273 166.0 Am  21?   1.00 282.0   18 241  22  99
   2024 07 22 03:50  19 37 34.33    -08 13 31.9   0.0117 1.0273 166.0 Am  21?   0.91 283.7   16 242  22  99
   2024 07 22 04:00  19 37 33.76    -08 13 29.6   0.0117 1.0273 166.0 Nm  21?   0.82 285.8   14 244  22  99
   2024 07 22 04:10  19 37 33.26    -08 13 27.3   0.0117 1.0273 166.0 Nm  21?   0.73 288.4   13 246  22  99
   2024 07 22 04:20  19 37 32.83    -08 13 25.0   0.0117 1.0273 166.0 Nm  21?   0.64 291.8   11 248  22  99
   2024 07 22 04:30  19 37 32.46    -08 13 22.6   0.0117 1.0273 166.0 Cm  21?   0.55 296.2    9 250  22  99
   2024 07 22 04:40  19 37 32.16    -08 13 20.1   0.0117 1.0273 166.0 Cm  21?   0.46 302.5    7 251  22  99
   2024 07 22 04:50  19 37 31.94    -08 13 17.6   0.0117 1.0273 166.0 Cm  21?   0.38 311.5    6 253  22  99
   ................
   2024 07 22 19:50  19 39 04.96    -08 15 04.4   0.0117 1.0273 166.0 C   21?   0.95 244.6   16 116  30  97
   2024 07 22 20:00  19 39 04.34    -08 15 08.4   0.0117 1.0273 166.0 C   21?   1.04 247.2   17 118  30  96
   2024 07 22 20:10  19 39 03.67    -08 15 12.3   0.0117 1.0273 166.0 C   21?   1.12 249.4   19 120  30  96
   2024 07 22 20:20  19 39 02.93    -08 15 16.2   0.0117 1.0273 166.0 N   21?   1.20 251.3   21 122  30  96
   2024 07 22 20:30  19 39 02.14    -08 15 19.9   0.0117 1.0273 166.0 N   21?   1.28 252.9   22 124  30  96
   2024 07 22 20:40  19 39 01.29    -08 15 23.6   0.0117 1.0273 166.0 N   21?   1.35 254.3   24 126  30  96
   2024 07 22 20:50  19 39 00.39    -08 15 27.2   0.0117 1.0273 166.0 Nm  21?   1.43 255.6   25 128  30  96
   2024 07 22 21:00  19 38 59.43    -08 15 30.6   0.0117 1.0273 166.0 Am  21?   1.50 256.7   27 131  30  96
   2024 07 22 21:10  19 38 58.42    -08 15 33.9   0.0117 1.0272 166.0 Am  21?   1.57 257.8   28 133  30  96
   2024 07 22 21:20  19 38 57.37    -08 15 37.2   0.0117 1.0272 166.0 Am  21?   1.63 258.7   29 135  30  96
   2024 07 22 21:30  19 38 56.27    -08 15 40.2   0.0117 1.0272 166.0 Am  21?   1.69 259.5   31 138  30  96
   2024 07 22 21:40  19 38 55.13    -08 15 43.2   0.0117 1.0272 166.0  m  21?   1.75 260.3   32 140  30  96
   2024 07 22 21:50  19 38 53.94    -08 15 46.0   0.0117 1.0272 166.0  m  21?   1.80 261.0   33 143  30  96
   2024 07 22 22:00  19 38 52.73    -08 15 48.7   0.0117 1.0272 166.0  m  21?   1.85 261.7   34 146  30  96
   2024 07 22 22:10  19 38 51.47    -08 15 51.3   0.0117 1.0272 166.0  m  21?   1.90 262.3   35 148  31  96
   2024 07 22 22:20  19 38 50.19    -08 15 53.7   0.0117 1.0272 166.0  m  21?   1.94 262.9   36 151  31  96
   2024 07 22 22:30  19 38 48.88    -08 15 56.0   0.0117 1.0272 166.0  m  21?   1.98 263.4   37 154  31  96
   2024 07 22 22:40  19 38 47.54    -08 15 58.1   0.0117 1.0272 166.0  m  21?   2.01 264.0   38 157  31  96
   2024 07 22 22:50  19 38 46.18    -08 16 00.1   0.0117 1.0272 165.9  m  21?   2.04 264.5   39 160  31  96
   2024 07 22 23:00  19 38 44.80    -08 16 01.9   0.0117 1.0272 165.9  m  21?   2.07 265.0   39 163  31  96
   2024 07 22 23:10  19 38 43.41    -08 16 03.6   0.0117 1.0272 165.9  m  21?   2.09 265.4   40 167  31  96
   2024 07 22 23:20  19 38 42.00    -08 16 05.1   0.0117 1.0272 165.9  m  21?   2.10 265.9   40 170  31  96
   2024 07 22 23:30  19 38 40.59    -08 16 06.5   0.0117 1.0272 165.9  m  21?   2.11 266.3   40 173  31  96
   2024 07 22 23:40  19 38 39.17    -08 16 07.7   0.0117 1.0272 165.9  m  21?   2.12 266.7   40 176  31  96
   2024 07 22 23:50  19 38 37.74    -08 16 08.8   0.0117 1.0272 165.9  t  21?   2.12 267.2   40 180  31  96
   2024 07 23 00:00  19 38 36.31    -08 16 09.7   0.0117 1.0272 165.9  m  21?   2.12 267.6   40 183  31  96
   2024 07 23 00:10  19 38 34.89    -08 16 10.4   0.0117 1.0272 165.9  m  21?   2.11 268.0   40 186  31  96
   2024 07 23 00:20  19 38 33.48    -08 16 11.0   0.0117 1.0272 165.9  m  21?   2.09 268.4   40 189  31  96
   2024 07 23 00:30  19 38 32.07    -08 16 11.5   0.0117 1.0272 165.9  m  21?   2.08 268.8   40 193  31  96
   2024 07 23 00:40  19 38 30.68    -08 16 11.8   0.0117 1.0272 165.9  m  21?   2.06 269.2   39 196  31  96
   2024 07 23 00:50  19 38 29.30    -08 16 11.9   0.0117 1.0272 165.9  m  21?   2.03 269.6   38 199  32  96
   2024 07 23 01:00  19 38 27.95    -08 16 11.9   0.0117 1.0272 165.9  m  21?   2.00 270.1   38 202  32  96
   2024 07 23 01:10  19 38 26.61    -08 16 11.7   0.0117 1.0272 165.9  m  21?   1.96 270.5   37 205  32  96
   2024 07 23 01:20  19 38 25.31    -08 16 11.4   0.0117 1.0272 165.9  m  21?   1.92 270.9   36 208  32  96
   2024 07 23 01:30  19 38 24.03    -08 16 11.0   0.0117 1.0272 165.9  m  21?   1.88 271.4   35 211  32  96
   2024 07 23 01:40  19 38 22.78    -08 16 10.4   0.0117 1.0272 165.9  m  21?   1.83 271.9   34 214  32  96
   2024 07 23 01:50  19 38 21.56    -08 16 09.7   0.0117 1.0272 165.9  m  21?   1.78 272.3   33 216  32  96
   2024 07 23 02:00  19 38 20.39    -08 16 08.9   0.0117 1.0272 165.8  m  21?   1.72 272.9   32 219  32  96
   2024 07 23 02:10  19 38 19.25    -08 16 07.9   0.0117 1.0272 165.8  m  21?   1.66 273.4   31 221  32  96
   2024 07 23 02:20  19 38 18.16    -08 16 06.8   0.0117 1.0272 165.8  m  21?   1.59 274.0   29 224  32  96
   2024 07 23 02:30  19 38 17.11    -08 16 05.6   0.0117 1.0272 165.8  m  21?   1.53 274.6   28 226  32  96
   2024 07 23 02:40  19 38 16.11    -08 16 04.2   0.0117 1.0272 165.8  m  21?   1.46 275.3   27 229  32  96
   2024 07 23 02:50  19 38 15.16    -08 16 02.8   0.0117 1.0272 165.8  m  21?   1.38 276.1   25 231  32  96
   2024 07 23 03:00  19 38 14.26    -08 16 01.2   0.0117 1.0272 165.8  m  21?   1.30 276.9   24 233  32  96
   2024 07 23 03:10  19 38 13.42    -08 15 59.6   0.0117 1.0272 165.8 Am  21?   1.22 277.8   22 235  32  96
   2024 07 23 03:20  19 38 12.63    -08 15 57.8   0.0117 1.0272 165.8 Am  21?   1.14 278.9   20 237  32  96
   2024 07 23 03:30  19 38 11.90    -08 15 56.0   0.0117 1.0272 165.8 Am  21?   1.05 280.1   19 239  32  96
   2024 07 23 03:40  19 38 11.24    -08 15 54.1   0.0117 1.0272 165.8 Am  21?   0.96 281.6   17 241  32  96
   2024 07 23 03:50  19 38 10.63    -08 15 52.0   0.0117 1.0272 165.8 Am  21?   0.87 283.3   16 243  33  95
   2024 07 23 04:00  19 38 10.09    -08 15 50.0   0.0117 1.0272 165.8 Nm  21?   0.78 285.5   14 245  33  95
   2024 07 23 04:10  19 38 09.62    -08 15 47.8   0.0117 1.0272 165.8 Nm  21?   0.69 288.2   12 247  33  95
   2024 07 23 04:20  19 38 09.21    -08 15 45.6   0.0117 1.0272 165.8 Nm  21?   0.60 291.7   10 249  33  95
   2024 07 23 04:30  19 38 08.87    -08 15 43.4   0.0117 1.0272 165.8 Nm  21?   0.51 296.6    9 250  33  95
   2024 07 23 04:40  19 38 08.60    -08 15 41.0   0.0117 1.0272 165.8 Cm  21?   0.42 303.5    7 252  33  95
   2024 07 23 04:50  19 38 08.40    -08 15 38.7   0.0117 1.0272 165.8 Cm  21?   0.34 313.9    5 254  33  95
   ................
   2024 07 23 19:50  19 39 41.62    -08 17 45.8   0.0117 1.0272 165.8 C   21?   0.99 244.3   16 117  41  91
   2024 07 23 20:00  19 39 40.99    -08 17 50.0   0.0117 1.0272 165.8 C   21?   1.07 246.8   18 119  42  91
   2024 07 23 20:10  19 39 40.29    -08 17 54.1   0.0117 1.0272 165.8 C   21?   1.15 249.0   20 121  42  91
   2024 07 23 20:20  19 39 39.54    -08 17 58.2   0.0117 1.0271 165.8 N   21?   1.23 250.8   21 123  42  91
   2024 07 23 20:30  19 39 38.73    -08 18 02.1   0.0117 1.0271 165.8 N   21?   1.31 252.5   23 125  42  91
   2024 07 23 20:40  19 39 37.86    -08 18 06.0   0.0117 1.0271 165.8 N   21?   1.38 253.9   24 127  42  91
   2024 07 23 20:50  19 39 36.94    -08 18 09.7   0.0117 1.0271 165.8 A   21?   1.45 255.1   26 129  42  91
   2024 07 23 21:00  19 39 35.97    -08 18 13.3   0.0117 1.0271 165.8 A   21?   1.52 256.3   27 131  42  91
   2024 07 23 21:10  19 39 34.95    -08 18 16.8   0.0117 1.0271 165.8 A   21?   1.59 257.3   29 134  42  91
   2024 07 23 21:20  19 39 33.88    -08 18 20.2   0.0117 1.0271 165.7 Am  21?   1.65 258.2   30 136  42  91
   2024 07 23 21:30  19 39 32.76    -08 18 23.5   0.0117 1.0271 165.7 Am  21?   1.71 259.1   31 139  42  91
   2024 07 23 21:40  19 39 31.61    -08 18 26.6   0.0117 1.0271 165.7  m  21?   1.77 259.8   32 141  42  91
   2024 07 23 21:50  19 39 30.42    -08 18 29.6   0.0117 1.0271 165.7  m  21?   1.82 260.6   34 144  43  91
   2024 07 23 22:00  19 39 29.19    -08 18 32.5   0.0117 1.0271 165.7  m  21?   1.87 261.2   35 147  43  91
   2024 07 23 22:10  19 39 27.93    -08 18 35.2   0.0117 1.0271 165.7  m  21?   1.91 261.9   36 149  43  91
   2024 07 23 22:20  19 39 26.64    -08 18 37.8   0.0117 1.0271 165.7  m  21?   1.96 262.4   36 152  43  91
   2024 07 23 22:30  19 39 25.32    -08 18 40.3   0.0117 1.0271 165.7  m  21?   1.99 263.0   37 155  43  91
   2024 07 23 22:40  19 39 23.97    -08 18 42.5   0.0117 1.0271 165.7  m  21?   2.02 263.5   38 158  43  91
   2024 07 23 22:50  19 39 22.61    -08 18 44.7   0.0117 1.0271 165.7  m  21?   2.05 264.0   39 161  43  91
   2024 07 23 23:00  19 39 21.22    -08 18 46.7   0.0117 1.0271 165.7  m  21?   2.07 264.5   39 165  43  91
   2024 07 23 23:10  19 39 19.83    -08 18 48.5   0.0117 1.0271 165.7  m  21?   2.09 265.0   40 168  43  91
   2024 07 23 23:20  19 39 18.42    -08 18 50.2   0.0117 1.0271 165.7  m  21?   2.11 265.4   40 171  43  91
   2024 07 23 23:30  19 39 17.00    -08 18 51.7   0.0117 1.0271 165.7  m  21?   2.11 265.9   40 174  43  91
   2024 07 23 23:40  19 39 15.58    -08 18 53.1   0.0117 1.0271 165.7  m  21?   2.12 266.3   40 177  43  90
   2024 07 23 23:50  19 39 14.15    -08 18 54.3   0.0117 1.0271 165.7  t  21?   2.12 266.7   40 181  44  90
   2024 07 24 00:00  19 39 12.73    -08 18 55.4   0.0117 1.0271 165.7  m  21?   2.11 267.2   40 184  44  90
   2024 07 24 00:10  19 39 11.31    -08 18 56.3   0.0117 1.0271 165.7  m  21?   2.10 267.6   40 187  44  90
   2024 07 24 00:20  19 39 09.90    -08 18 57.0   0.0117 1.0271 165.6  m  21?   2.09 268.0   40 191  44  90
   2024 07 24 00:30  19 39 08.50    -08 18 57.6   0.0117 1.0271 165.6  m  21?   2.07 268.4   39 194  44  90
   2024 07 24 00:40  19 39 07.11    -08 18 58.1   0.0117 1.0271 165.6  m  21?   2.05 268.8   39 197  44  90
   2024 07 24 00:50  19 39 05.74    -08 18 58.4   0.0117 1.0271 165.6  m  21?   2.02 269.2   38 200  44  90
   2024 07 24 01:00  19 39 04.39    -08 18 58.5   0.0117 1.0271 165.6  m  21?   1.98 269.6   37 203  44  90
   2024 07 24 01:10  19 39 03.07    -08 18 58.5   0.0117 1.0271 165.6  m  21?   1.95 270.0   37 206  44  90
   2024 07 24 01:20  19 39 01.77    -08 18 58.4   0.0117 1.0271 165.6  m  21?   1.91 270.5   36 209  44  90
   2024 07 24 01:30  19 39 00.50    -08 18 58.1   0.0117 1.0271 165.6  m  21?   1.86 270.9   35 212  44  90
   2024 07 24 01:40  19 38 59.26    -08 18 57.6   0.0117 1.0271 165.6  m  21?   1.81 271.4   34 214  44  90
   2024 07 24 01:50  19 38 58.06    -08 18 57.1   0.0117 1.0271 165.6  m  21?   1.76 271.9   33 217  44  90
   2024 07 24 02:00  19 38 56.90    -08 18 56.4   0.0117 1.0271 165.6  m  21?   1.70 272.4   31 220  44  90
   2024 07 24 02:10  19 38 55.78    -08 18 55.6   0.0117 1.0271 165.6  m  21?   1.64 272.9   30 222  44  90
   2024 07 24 02:20  19 38 54.70    -08 18 54.6   0.0117 1.0271 165.6  m  21?   1.57 273.5   29 225  45  90
   2024 07 24 02:30  19 38 53.67    -08 18 53.5   0.0117 1.0271 165.6  m  21?   1.50 274.1   27 227  45  90
   2024 07 24 02:40  19 38 52.68    -08 18 52.4   0.0117 1.0271 165.6  m  21?   1.43 274.8   26 229  45  90
   2024 07 24 02:50  19 38 51.75    -08 18 51.1   0.0117 1.0271 165.6  m  21?   1.35 275.5   25 232  45  90
   2024 07 24 03:00  19 38 50.87    -08 18 49.7   0.0117 1.0271 165.6  m  21?   1.27 276.4   23 234  45  90
   2024 07 24 03:10  19 38 50.05    -08 18 48.2   0.0117 1.0271 165.5 Am  21?   1.19 277.3   22 236  45  90
   2024 07 24 03:20  19 38 49.28    -08 18 46.6   0.0117 1.0271 165.5 Am  21?   1.11 278.3   20 238  45  90
   2024 07 24 03:30  19 38 48.58    -08 18 44.9   0.0117 1.0271 165.5 Am  21?   1.02 279.6   18 240  45  90
   2024 07 24 03:40  19 38 47.93    -08 18 43.1   0.0117 1.0271 165.5 Am  21?   0.93 281.0   17 242  45  90
   2024 07 24 03:50  19 38 47.35    -08 18 41.3   0.0117 1.0271 165.5 Am  21?   0.84 282.8   15 244  45  90
   2024 07 24 04:00  19 38 46.83    -08 18 39.4   0.0117 1.0271 165.5 Nm  21?   0.75 285.0   13 246  45  90
   2024 07 24 04:10  19 38 46.38    -08 18 37.4   0.0117 1.0271 165.5 Nm  21?   0.65 287.8   11 247  45  90
   2024 07 24 04:20  19 38 45.99    -08 18 35.4   0.0117 1.0271 165.5 Nm  21?   0.56 291.5   10 249  45  90
   2024 07 24 04:30  19 38 45.68    -08 18 33.3   0.0117 1.0271 165.5 Nm  21?   0.47 296.7    8 251  45  90
   2024 07 24 04:40  19 38 45.43    -08 18 31.1   0.0117 1.0271 165.5 Cm  21?   0.38 304.4    6 253  45  89
   2024 07 24 04:50  19 38 45.26    -08 18 29.0   0.0117 1.0271 165.5 Cm  21?   0.30 316.4    4 254  45  89
   ................
   2024 07 24 19:50  19 40 18.51    -08 20 57.6   0.0117 1.0270 165.5 C   21?   1.03 243.9   17 117  54  84
   2024 07 24 20:00  19 40 17.86    -08 21 02.1   0.0117 1.0270 165.5 C   21?   1.11 246.4   18 119  55  84
   2024 07 24 20:10  19 40 17.15    -08 21 06.4   0.0117 1.0270 165.5 N   21?   1.18 248.5   20 121  55  84
   2024 07 24 20:20  19 40 16.37    -08 21 10.7   0.0117 1.0270 165.5 N   21?   1.26 250.4   22 123  55  84
   2024 07 24 20:30  19 40 15.54    -08 21 14.8   0.0117 1.0270 165.5 N   21?   1.34 252.0   23 126  55  84
   2024 07 24 20:40  19 40 14.66    -08 21 18.9   0.0117 1.0270 165.5 N   21?   1.41 253.4   25 128  55  84
   2024 07 24 20:50  19 40 13.72    -08 21 22.8   0.0117 1.0270 165.5 A   21?   1.48 254.6   26 130  55  84
   2024 07 24 21:00  19 40 12.73    -08 21 26.6   0.0117 1.0270 165.5 A   21?   1.55 255.8   28 132  55  83
   2024 07 24 21:10  19 40 11.69    -08 21 30.3   0.0117 1.0270 165.5 A   21?   1.62 256.8   29 135  55  83
   2024 07 24 21:20  19 40 10.61    -08 21 33.9   0.0117 1.0270 165.5 A   21?   1.68 257.7   30 137  55  83
   2024 07 24 21:30  19 40 09.48    -08 21 37.4   0.0117 1.0270 165.5 A   21?   1.74 258.6   32 140  55  83
   2024 07 24 21:40  19 40 08.31    -08 21 40.7   0.0117 1.0270 165.5     21?   1.79 259.3   33 142  56  83
   2024 07 24 21:50  19 40 07.11    -08 21 43.9   0.0117 1.0270 165.5  m  21?   1.84 260.1   34 145  56  83
   2024 07 24 22:00  19 40 05.87    -08 21 47.0   0.0117 1.0270 165.4  m  21?   1.89 260.7   35 148  56  83
   2024 07 24 22:10  19 40 04.59    -08 21 49.9   0.0117 1.0270 165.4  m  21?   1.93 261.4   36 150  56  83
   2024 07 24 22:20  19 40 03.29    -08 21 52.6   0.0117 1.0270 165.4  m  21?   1.97 262.0   37 153  56  83
   2024 07 24 22:30  19 40 01.96    -08 21 55.3   0.0117 1.0270 165.4  m  21?   2.01 262.5   38 156  56  83
   2024 07 24 22:40  19 40 00.61    -08 21 57.7   0.0117 1.0270 165.4  m  21?   2.04 263.1   38 159  56  83
   2024 07 24 22:50  19 39 59.24    -08 22 00.0   0.0117 1.0270 165.4  m  21?   2.06 263.6   39 162  56  83
   2024 07 24 23:00  19 39 57.85    -08 22 02.2   0.0117 1.0270 165.4  m  21?   2.08 264.1   39 166  56  83
   2024 07 24 23:10  19 39 56.45    -08 22 04.2   0.0117 1.0270 165.4  m  21?   2.10 264.5   40 169  56  83
   2024 07 24 23:20  19 39 55.03    -08 22 06.1   0.0116 1.0270 165.4  m  21?   2.11 265.0   40 172  56  83
   2024 07 24 23:30  19 39 53.61    -08 22 07.8   0.0116 1.0270 165.4  m  21?   2.12 265.4   40 175  57  83
   2024 07 24 23:40  19 39 52.19    -08 22 09.3   0.0116 1.0270 165.4  m  21?   2.12 265.9   40 179  57  83
   2024 07 24 23:50  19 39 50.76    -08 22 10.7   0.0116 1.0270 165.4  t  21?   2.12 266.3   40 182  57  83
   2024 07 25 00:00  19 39 49.34    -08 22 11.9   0.0116 1.0270 165.4  m  21?   2.11 266.7   40 185  57  83
   2024 07 25 00:10  19 39 47.92    -08 22 13.0   0.0116 1.0270 165.4  m  21?   2.10 267.1   40 188  57  82
   2024 07 25 00:20  19 39 46.51    -08 22 13.9   0.0116 1.0270 165.4  m  21?   2.09 267.5   40 192  57  82
   2024 07 25 00:30  19 39 45.11    -08 22 14.7   0.0116 1.0270 165.4  m  21?   2.06 267.9   39 195  57  82
   2024 07 25 00:40  19 39 43.73    -08 22 15.3   0.0117 1.0270 165.3  m  21?   2.04 268.3   39 198  57  82
   2024 07 25 00:50  19 39 42.37    -08 22 15.8   0.0117 1.0270 165.3  m  21?   2.01 268.7   38 201  57  82
   2024 07 25 01:00  19 39 41.02    -08 22 16.1   0.0117 1.0270 165.3  m  21?   1.97 269.1   37 204  57  82
   2024 07 25 01:10  19 39 39.71    -08 22 16.2   0.0117 1.0270 165.3  m  21?   1.94 269.6   36 207  57  82
   2024 07 25 01:20  19 39 38.42    -08 22 16.2   0.0117 1.0270 165.3  m  21?   1.89 270.0   35 210  57  82
   2024 07 25 01:30  19 39 37.16    -08 22 16.1   0.0117 1.0270 165.3  m  21?   1.85 270.4   34 213  58  82
   2024 07 25 01:40  19 39 35.93    -08 22 15.9   0.0117 1.0270 165.3  m  21?   1.79 270.9   33 215  58  82
   2024 07 25 01:50  19 39 34.74    -08 22 15.5   0.0117 1.0270 165.3  m  21?   1.74 271.4   32 218  58  82
   2024 07 25 02:00  19 39 33.59    -08 22 14.9   0.0117 1.0270 165.3  m  21?   1.68 271.9   31 221  58  82
   2024 07 25 02:10  19 39 32.48    -08 22 14.3   0.0117 1.0270 165.3  m  21?   1.61 272.4   30 223  58  82
   2024 07 25 02:20  19 39 31.42    -08 22 13.5   0.0117 1.0270 165.3  m  21?   1.55 272.9   28 225  58  82
   2024 07 25 02:30  19 39 30.40    -08 22 12.6   0.0117 1.0270 165.3  m  21?   1.48 273.5   27 228  58  82
   2024 07 25 02:40  19 39 29.43    -08 22 11.6   0.0117 1.0270 165.3  m  21?   1.40 274.2   26 230  58  82
   2024 07 25 02:50  19 39 28.52    -08 22 10.5   0.0117 1.0270 165.3  m  21?   1.32 274.9   24 232  58  82
   2024 07 25 03:00  19 39 27.66    -08 22 09.2   0.0117 1.0270 165.3  m  21?   1.24 275.7   23 234  58  82
   2024 07 25 03:10  19 39 26.85    -08 22 07.9   0.0117 1.0270 165.3 Am  21?   1.16 276.6   21 236  58  82
   2024 07 25 03:20  19 39 26.10    -08 22 06.5   0.0117 1.0270 165.3 Am  21?   1.07 277.7   19 238  58  82
   2024 07 25 03:30  19 39 25.42    -08 22 05.0   0.0117 1.0270 165.2 Am  21?   0.99 278.9   18 240  58  82
   2024 07 25 03:40  19 39 24.79    -08 22 03.4   0.0117 1.0270 165.2 Am  21?   0.90 280.3   16 242  58  82
   2024 07 25 03:50  19 39 24.23    -08 22 01.7   0.0117 1.0270 165.2 Am  21?   0.80 282.0   14 244  58  81
   2024 07 25 04:00  19 39 23.73    -08 22 00.0   0.0117 1.0270 165.2 Nm  21?   0.71 284.2   13 246  59  81
   2024 07 25 04:10  19 39 23.30    -08 21 58.2   0.0117 1.0270 165.2 Nm  21?   0.62 287.1   11 248  59  81
   2024 07 25 04:20  19 39 22.94    -08 21 56.3   0.0117 1.0270 165.2 Nm  21?   0.52 291.0    9 250  59  81
   2024 07 25 04:30  19 39 22.65    -08 21 54.4   0.0117 1.0270 165.2 Nm  21?   0.43 296.6    7 251  59  81
   2024 07 25 04:40  19 39 22.42    -08 21 52.5   0.0117 1.0270 165.2 Cm  21?   0.34 305.2    5 253  59  81
   2024 07 25 04:50  19 39 22.27    -08 21 50.5   0.0117 1.0270 165.2 Cm  21?   0.26 319.2    4 255  59  81
   ................
   2024 07 25 19:50  19 40 55.46    -08 24 42.2   0.0117 1.0269 165.2 C   21?   1.06 243.6   17 118  68  75
   2024 07 25 20:00  19 40 54.78    -08 24 46.9   0.0117 1.0269 165.2 C   21?   1.14 246.0   19 120  68  75
   2024 07 25 20:10  19 40 54.05    -08 24 51.5   0.0117 1.0269 165.2 N   21?   1.22 248.1   21 122  68  74
   2024 07 25 20:20  19 40 53.25    -08 24 55.9   0.0117 1.0269 165.2 N   21?   1.30 249.9   22 124  68  74
   2024 07 25 20:30  19 40 52.40    -08 25 00.3   0.0116 1.0269 165.2 N   21?   1.37 251.5   24 126  68  74
   2024 07 25 20:40  19 40 51.50    -08 25 04.6   0.0116 1.0269 165.2 N   21?   1.44 252.9   25 128  68  74
   2024 07 25 20:50  19 40 50.54    -08 25 08.8   0.0116 1.0269 165.2 A   21?   1.51 254.1   27 131  68  74
   2024 07 25 21:00  19 40 49.53    -08 25 12.8   0.0116 1.0269 165.2 A   21?   1.58 255.2   28 133  69  74
   2024 07 25 21:10  19 40 48.48    -08 25 16.7   0.0116 1.0269 165.2 A   21?   1.65 256.3   29 135  69  74
   2024 07 25 21:20  19 40 47.38    -08 25 20.5   0.0116 1.0269 165.2 A   21?   1.71 257.2   31 138  69  74
   2024 07 25 21:30  19 40 46.24    -08 25 24.2   0.0116 1.0269 165.2 A   21?   1.76 258.0   32 140  69  74
   2024 07 25 21:40  19 40 45.05    -08 25 27.7   0.0116 1.0269 165.1     21?   1.82 258.8   33 143  69  74
   2024 07 25 21:50  19 40 43.83    -08 25 31.1   0.0116 1.0269 165.1     21?   1.87 259.6   34 146  69  74
   2024 07 25 22:00  19 40 42.58    -08 25 34.4   0.0116 1.0269 165.1     21?   1.91 260.2   35 149  69  74
   2024 07 25 22:10  19 40 41.30    -08 25 37.5   0.0116 1.0269 165.1  m  21?   1.95 260.9   36 151  69  74
   2024 07 25 22:20  19 40 39.98    -08 25 40.4   0.0116 1.0269 165.1  m  21?   1.99 261.5   37 154  69  73
   2024 07 25 22:30  19 40 38.64    -08 25 43.3   0.0116 1.0269 165.1  m  21?   2.02 262.0   38 157  70  73
   2024 07 25 22:40  19 40 37.28    -08 25 45.9   0.0116 1.0269 165.1  m  21?   2.05 262.6   38 160  70  73
   2024 07 25 22:50  19 40 35.90    -08 25 48.4   0.0116 1.0269 165.1  m  21?   2.07 263.1   39 163  70  73
   2024 07 25 23:00  19 40 34.51    -08 25 50.8   0.0116 1.0269 165.1  m  21?   2.09 263.6   39 167  70  73
   2024 07 25 23:10  19 40 33.10    -08 25 53.0   0.0116 1.0269 165.1  m  21?   2.11 264.0   40 170  70  73
   2024 07 25 23:20  19 40 31.68    -08 25 55.0   0.0116 1.0269 165.1  m  21?   2.12 264.5   40 173  70  73
   2024 07 25 23:30  19 40 30.25    -08 25 56.9   0.0116 1.0269 165.1  m  21?   2.13 264.9   40 176  70  73
   2024 07 25 23:40  19 40 28.83    -08 25 58.7   0.0116 1.0269 165.1  t  21?   2.13 265.4   40 180  70  73
   2024 07 25 23:50  19 40 27.40    -08 26 00.2   0.0116 1.0269 165.1  m  21?   2.12 265.8   40 183  70  73
   2024 07 26 00:00  19 40 25.97    -08 26 01.6   0.0116 1.0269 165.1  m  21?   2.11 266.2   40 186  70  73
   2024 07 26 00:10  19 40 24.56    -08 26 02.9   0.0116 1.0269 165.1  m  21?   2.10 266.6   40 189  70  73
   2024 07 26 00:20  19 40 23.15    -08 26 04.0   0.0116 1.0269 165.0  m  21?   2.08 267.0   39 193  71  73
   2024 07 26 00:30  19 40 21.75    -08 26 04.9   0.0116 1.0269 165.0  m  21?   2.06 267.4   39 196  71  73
   2024 07 26 00:40  19 40 20.37    -08 26 05.7   0.0116 1.0269 165.0  m  21?   2.03 267.8   38 199  71  73
   2024 07 26 00:50  19 40 19.02    -08 26 06.4   0.0116 1.0269 165.0  m  21?   2.00 268.2   38 202  71  72
   2024 07 26 01:00  19 40 17.68    -08 26 06.9   0.0116 1.0269 165.0  m  21?   1.97 268.6   37 205  71  72
   2024 07 26 01:10  19 40 16.37    -08 26 07.2   0.0116 1.0269 165.0  m  21?   1.92 269.0   36 208  71  72
   2024 07 26 01:20  19 40 15.09    -08 26 07.4   0.0116 1.0269 165.0  m  21?   1.88 269.4   35 211  71  72
   2024 07 26 01:30  19 40 13.83    -08 26 07.5   0.0116 1.0269 165.0  m  21?   1.83 269.9   34 214  71  72
   2024 07 26 01:40  19 40 12.62    -08 26 07.4   0.0116 1.0269 165.0  m  21?   1.78 270.3   33 216  71  72
   2024 07 26 01:50  19 40 11.44    -08 26 07.1   0.0116 1.0269 165.0  m  21?   1.72 270.8   32 219  71  72
   2024 07 26 02:00  19 40 10.30    -08 26 06.8   0.0116 1.0269 165.0  m  21?   1.66 271.3   31 221  71  72
   2024 07 26 02:10  19 40 09.21    -08 26 06.3   0.0116 1.0269 165.0  m  21?   1.59 271.8   29 224  71  72
   2024 07 26 02:20  19 40 08.15    -08 26 05.7   0.0116 1.0269 165.0  m  21?   1.53 272.3   28 226  71  72
   2024 07 26 02:30  19 40 07.15    -08 26 05.0   0.0116 1.0269 165.0  m  21?   1.45 272.9   26 228  72  72
   2024 07 26 02:40  19 40 06.20    -08 26 04.2   0.0116 1.0269 164.9  m  21?   1.38 273.5   25 231  72  72
   2024 07 26 02:50  19 40 05.30    -08 26 03.2   0.0116 1.0269 164.9  m  21?   1.30 274.2   23 233  72  72
   2024 07 26 03:00  19 40 04.45    -08 26 02.2   0.0116 1.0269 164.9  m  21?   1.22 275.0   22 235  72  72
   2024 07 26 03:10  19 40 03.67    -08 26 01.0   0.0116 1.0269 164.9  m  21?   1.13 275.9   20 237  72  72
   2024 07 26 03:20  19 40 02.94    -08 25 59.8   0.0116 1.0269 164.9 Am  21?   1.04 276.9   19 239  72  72
   2024 07 26 03:30  19 40 02.27    -08 25 58.5   0.0116 1.0269 164.9 Am  21?   0.96 278.0   17 241  72  72
   2024 07 26 03:40  19 40 01.66    -08 25 57.1   0.0117 1.0269 164.9 Am  21?   0.86 279.4   15 243  72  72
   2024 07 26 03:50  19 40 01.12    -08 25 55.6   0.0117 1.0269 164.9 Am  21?   0.77 281.2   14 245  72  72
   2024 07 26 04:00  19 40 00.65    -08 25 54.0   0.0117 1.0269 164.9 Nm  21?   0.68 283.3   12 247  72  71
   2024 07 26 04:10  19 40 00.24    -08 25 52.4   0.0117 1.0269 164.9 Nm  21?   0.58 286.2   10 248  72  71
   2024 07 26 04:20  19 39 59.90    -08 25 50.8   0.0117 1.0269 164.9 Nm  21?   0.48 290.3    8 250  72  71
   2024 07 26 04:30  19 39 59.63    -08 25 49.1   0.0117 1.0269 164.9 Nm  21?   0.39 296.2    7 252  72  71
   2024 07 26 04:40  19 39 59.43    -08 25 47.3   0.0117 1.0269 164.9 Cm  21?   0.30 305.8    5 254  72  71
   2024 07 26 04:50  19 39 59.30    -08 25 45.5   0.0117 1.0269 164.9 Cm  21?   0.23 322.5    3 255  72  71
   ................
   2024 07 26 19:50  19 41 32.38    -08 29 01.8   0.0116 1.0268 164.9 C   21?   1.10 243.1   18 119  81  64
   2024 07 26 20:00  19 41 31.68    -08 29 06.7   0.0116 1.0268 164.9 C   21?   1.18 245.5   19 121  81  64
   2024 07 26 20:10  19 41 30.93    -08 29 11.5   0.0116 1.0268 164.9 N   21?   1.26 247.5   21 123  81  64
   2024 07 26 20:20  19 41 30.11    -08 29 16.3   0.0116 1.0268 164.9 N   21?   1.33 249.3   23 125  82  64
   2024 07 26 20:30  19 41 29.24    -08 29 20.9   0.0116 1.0268 164.8 N   21?   1.41 250.9   24 127  82  64
   2024 07 26 20:40  19 41 28.32    -08 29 25.4   0.0116 1.0268 164.8 N   21?   1.48 252.3   26 129  82  64
   2024 07 26 20:50  19 41 27.34    -08 29 29.8   0.0116 1.0268 164.8 A   21?   1.55 253.5   27 132  82  63
   2024 07 26 21:00  19 41 26.32    -08 29 34.1   0.0116 1.0268 164.8 A   21?   1.61 254.7   28 134  82  63
   2024 07 26 21:10  19 41 25.24    -08 29 38.2   0.0116 1.0268 164.8 A   21?   1.67 255.7   30 136  82  63
   2024 07 26 21:20  19 41 24.13    -08 29 42.2   0.0116 1.0268 164.8 A   21?   1.73 256.6   31 139  82  63
   2024 07 26 21:30  19 41 22.97    -08 29 46.1   0.0116 1.0268 164.8     21?   1.79 257.5   32 141  82  63
   2024 07 26 21:40  19 41 21.77    -08 29 49.9   0.0116 1.0268 164.8     21?   1.84 258.3   33 144  82  63
   2024 07 26 21:50  19 41 20.54    -08 29 53.5   0.0116 1.0268 164.8     21?   1.89 259.0   34 147  83  63
   2024 07 26 22:00  19 41 19.27    -08 29 57.0   0.0116 1.0268 164.8     21?   1.93 259.7   35 150  83  63
   2024 07 26 22:10  19 41 17.98    -08 30 00.3   0.0116 1.0268 164.8     21?   1.97 260.3   36 152  83  63
   2024 07 26 22:20  19 41 16.65    -08 30 03.5   0.0116 1.0268 164.8     21?   2.01 260.9   37 155  83  63
   2024 07 26 22:30  19 41 15.30    -08 30 06.5   0.0116 1.0268 164.8  m  21?   2.04 261.5   38 158  83  63
   2024 07 26 22:40  19 41 13.93    -08 30 09.4   0.0116 1.0268 164.8  m  21?   2.07 262.0   38 161  83  63
   2024 07 26 22:50  19 41 12.55    -08 30 12.1   0.0116 1.0268 164.8  m  21?   2.09 262.6   39 165  83  62
   2024 07 26 23:00  19 41 11.14    -08 30 14.7   0.0116 1.0268 164.8  m  21?   2.11 263.0   39 168  83  62
   2024 07 26 23:10  19 41 09.73    -08 30 17.1   0.0116 1.0268 164.7  m  21?   2.12 263.5   40 171  83  62
   2024 07 26 23:20  19 41 08.30    -08 30 19.3   0.0116 1.0268 164.7  m  21?   2.13 264.0   40 174  84  62
   2024 07 26 23:30  19 41 06.88    -08 30 21.4   0.0116 1.0268 164.7  m  21?   2.13 264.4   40 177  84  62
   2024 07 26 23:40  19 41 05.45    -08 30 23.4   0.0116 1.0268 164.7  t  21?   2.13 264.8   40 181  84  62
   2024 07 26 23:50  19 41 04.02    -08 30 25.1   0.0116 1.0268 164.7  m  21?   2.12 265.3   40 184  84  62
   2024 07 27 00:00  19 41 02.59    -08 30 26.7   0.0116 1.0268 164.7  m  21?   2.11 265.7   40 187  84  62
   2024 07 27 00:10  19 41 01.17    -08 30 28.2   0.0116 1.0268 164.7  m  21?   2.10 266.1   40 191  84  62
   2024 07 27 00:20  19 40 59.77    -08 30 29.5   0.0116 1.0268 164.7  m  21?   2.08 266.5   39 194  84  62
   2024 07 27 00:30  19 40 58.38    -08 30 30.6   0.0116 1.0268 164.7  m  21?   2.06 266.9   39 197  84  62
   2024 07 27 00:40  19 40 57.00    -08 30 31.6   0.0116 1.0268 164.7  m  21?   2.03 267.3   38 200  84  62
   2024 07 27 00:50  19 40 55.65    -08 30 32.4   0.0116 1.0268 164.7  m  21?   1.99 267.7   37 203  84  62
   2024 07 27 01:00  19 40 54.32    -08 30 33.1   0.0116 1.0268 164.7  m  21?   1.96 268.0   36 206  84  61
   2024 07 27 01:10  19 40 53.01    -08 30 33.7   0.0116 1.0268 164.7  m  21?   1.91 268.4   36 209  85  61
   2024 07 27 01:20  19 40 51.74    -08 30 34.0   0.0116 1.0268 164.7  m  21?   1.87 268.9   35 212  85  61
   2024 07 27 01:30  19 40 50.50    -08 30 34.3   0.0116 1.0268 164.6  m  21?   1.82 269.3   34 214  85  61
   2024 07 27 01:40  19 40 49.29    -08 30 34.4   0.0116 1.0268 164.6  m  21?   1.76 269.7   32 217  85  61
   2024 07 27 01:50  19 40 48.12    -08 30 34.4   0.0116 1.0268 164.6  m  21?   1.70 270.1   31 220  85  61
   2024 07 27 02:00  19 40 47.00    -08 30 34.2   0.0116 1.0268 164.6  m  21?   1.64 270.6   30 222  85  61
   2024 07 27 02:10  19 40 45.91    -08 30 33.9   0.0116 1.0268 164.6  m  21?   1.57 271.1   29 225  85  61
   2024 07 27 02:20  19 40 44.88    -08 30 33.5   0.0116 1.0268 164.6  m  21?   1.50 271.6   27 227  85  61
   2024 07 27 02:30  19 40 43.89    -08 30 33.0   0.0116 1.0268 164.6  m  21?   1.43 272.2   26 229  85  61
   2024 07 27 02:40  19 40 42.95    -08 30 32.3   0.0116 1.0268 164.6  m  21?   1.35 272.8   24 231  85  61
   2024 07 27 02:50  19 40 42.07    -08 30 31.6   0.0116 1.0268 164.6  m  21?   1.27 273.4   23 234  85  61
   2024 07 27 03:00  19 40 41.24    -08 30 30.7   0.0116 1.0268 164.6  m  21?   1.19 274.2   21 236  85  61
   2024 07 27 03:10  19 40 40.47    -08 30 29.8   0.0116 1.0268 164.6  m  21?   1.10 275.0   20 238  85  61
   2024 07 27 03:20  19 40 39.76    -08 30 28.7   0.0116 1.0268 164.6 Am  21?   1.01 276.0   18 240  86  61
   2024 07 27 03:30  19 40 39.11    -08 30 27.6   0.0116 1.0268 164.6 Am  21?   0.92 277.1   16 242  86  61
   2024 07 27 03:40  19 40 38.53    -08 30 26.4   0.0116 1.0268 164.6 Am  21?   0.83 278.4   15 244  86  61
   2024 07 27 03:50  19 40 38.01    -08 30 25.1   0.0116 1.0268 164.6 Am  21?   0.74 280.1   13 245  86  60
   2024 07 27 04:00  19 40 37.55    -08 30 23.8   0.0116 1.0268 164.5 Nm  21?   0.64 282.3   11 247  86  60
   2024 07 27 04:10  19 40 37.16    -08 30 22.4   0.0116 1.0268 164.5 Nm  21?   0.54 285.2   10 249  86  60
   2024 07 27 04:20  19 40 36.85    -08 30 20.9   0.0116 1.0268 164.5 Nm  21?   0.45 289.3    8 251  86  60
   2024 07 27 04:30  19 40 36.60    -08 30 19.4   0.0116 1.0268 164.5 Nm  21?   0.35 295.7    6 252  86  60
   2024 07 27 04:40  19 40 36.42    -08 30 17.8   0.0116 1.0268 164.5 Cm  21?   0.26 306.6    4 254  86  60
   2024 07 27 04:50  19 40 36.32    -08 30 16.3   0.0116 1.0268 164.5 Cm  21?   0.19 327.1    2 256  86  60
   2024 07 27 05:00  19 40 36.28    -08 30 14.7   0.0116 1.0267 164.5 Cm  21?   0.16   1.7    0 257  86  60
   ................
   2024 07 27 19:50  19 42 09.34    -08 33 58.4   0.0116 1.0267 164.5 C   21?   1.14 242.6   18 120  94  53
   2024 07 27 20:00  19 42 08.62    -08 34 03.6   0.0116 1.0267 164.5 C   21?   1.22 244.9   20 122  95  53
   2024 07 27 20:10  19 42 07.85    -08 34 08.6   0.0116 1.0267 164.5 N   21?   1.30 247.0   21 124  95  53
   2024 07 27 20:20  19 42 07.01    -08 34 13.6   0.0116 1.0267 164.5 N   21?   1.37 248.7   23 126  95  53
   2024 07 27 20:30  19 42 06.13    -08 34 18.5   0.0116 1.0267 164.5 N   21?   1.44 250.3   25 128  95  52
   2024 07 27 20:40  19 42 05.18    -08 34 23.3   0.0116 1.0267 164.5 N   21?   1.51 251.7   26 130  95  52
   2024 07 27 20:50  19 42 04.19    -08 34 27.9   0.0116 1.0267 164.5 A   21?   1.58 252.9   27 132  95  52
   2024 07 27 21:00  19 42 03.15    -08 34 32.4   0.0116 1.0267 164.5 A   21?   1.64 254.1   29 135  95  52
   2024 07 27 21:10  19 42 02.06    -08 34 36.8   0.0116 1.0267 164.5 A   21?   1.70 255.1   30 137  95  52
   2024 07 27 21:20  19 42 00.93    -08 34 41.1   0.0116 1.0267 164.5 A   21?   1.76 256.0   31 140  96  52
   2024 07 27 21:30  19 41 59.76    -08 34 45.2   0.0116 1.0267 164.4     21?   1.81 256.9   33 142  96  52
   2024 07 27 21:40  19 41 58.54    -08 34 49.2   0.0116 1.0267 164.4     21?   1.86 257.7   34 145  96  52
   2024 07 27 21:50  19 41 57.30    -08 34 53.1   0.0116 1.0267 164.4     21?   1.91 258.4   35 148  96  52
   2024 07 27 22:00  19 41 56.02    -08 34 56.8   0.0116 1.0267 164.4     21?   1.95 259.1   36 150  96  52
   2024 07 27 22:10  19 41 54.71    -08 35 00.4   0.0116 1.0267 164.4     21?   1.99 259.7   36 153  96  52
   2024 07 27 22:20  19 41 53.38    -08 35 03.8   0.0116 1.0267 164.4     21?   2.02 260.4   37 156  96  51
   2024 07 27 22:30  19 41 52.02    -08 35 07.0   0.0116 1.0267 164.4     21?   2.05 260.9   38 159  96  51
   2024 07 27 22:40  19 41 50.64    -08 35 10.1   0.0116 1.0267 164.4     21?   2.08 261.5   39 162  96  51
   2024 07 27 22:50  19 41 49.25    -08 35 13.1   0.0116 1.0267 164.4     21?   2.10 262.0   39 166  97  51
   2024 07 27 23:00  19 41 47.84    -08 35 15.8   0.0116 1.0266 164.4  m  21?   2.12 262.5   40 169  97  51
   2024 07 27 23:10  19 41 46.42    -08 35 18.5   0.0116 1.0266 164.4  m  21?   2.13 263.0   40 172  97  51
   2024 07 27 23:20  19 41 44.99    -08 35 20.9   0.0116 1.0266 164.4  m  21?   2.13 263.4   40 175  97  51
   2024 07 27 23:30  19 41 43.56    -08 35 23.2   0.0116 1.0266 164.4  m  21?   2.14 263.9   40 179  97  51
   2024 07 27 23:40  19 41 42.13    -08 35 25.4   0.0116 1.0266 164.4  t  21?   2.13 264.3   40 182  97  51
   2024 07 27 23:50  19 41 40.70    -08 35 27.4   0.0116 1.0266 164.3  m  21?   2.13 264.7   40 185  97  51
   2024 07 28 00:00  19 41 39.28    -08 35 29.2   0.0116 1.0266 164.3  m  21?   2.11 265.1   40 188  97  51
   

CAPSTONE (JPL-ID: -1176)

   Date (UTC) HH:MM   RA              Dec         delta   r     elong SM  mag  '/hr    PA   alt  az moo ill
   ---- -- -- -----  -------------   -----------  ------ ------ ----- --  --- ------ ------ --- --- --- ---
   2024 07 14 20:00  13 35 32.34    -20 01 16.5   410725 1.0168  96.8 Cm  16?  19.84 103.1   24 206   7  58
   2024 07 14 20:10  13 35 46.13    -20 02 00.9   410736 1.0168  96.9 Cm  16?  20.03 102.5   23 208   7  58
   2024 07 14 20:20  13 36 00.09    -20 02 43.7   410755 1.0168  96.9 Nm  16?  20.24 101.8   22 210   7  58
   2024 07 14 20:30  13 36 14.24    -20 03 24.7   410780 1.0168  96.9 Nm  16?  20.46 101.2   21 213   7  58
   2024 07 14 20:40  13 36 28.57    -20 04 04.1   410812 1.0168  97.0 Nm  16?  20.71 100.6   20 215   7  58
   2024 07 14 20:50  13 36 43.12    -20 04 41.8   410851 1.0168  97.0 Nm  16?  20.97 100.1   19 217   7  58
   2024 07 14 21:00  13 36 57.88    -20 05 18.0   410896 1.0168  97.1 Am  16?  21.25  99.5   18 219   7  58
   2024 07 14 21:10  13 37 12.86    -20 05 52.7   410947 1.0168  97.2 Am  16?  21.54  99.0   17 221   7  58
   2024 07 14 21:20  13 37 28.09    -20 06 25.9   411003 1.0168  97.2 Am  16?  21.86  98.5   16 223   7  58
   2024 07 14 21:30  13 37 43.56    -20 06 57.6   411065 1.0168  97.3 Am  16?  22.19  98.0   14 225   7  58
   2024 07 14 21:40  13 37 59.28    -20 07 27.9   411133 1.0168  97.3 Am  16?  22.53  97.5   13 227   7  59
   2024 07 14 21:50  13 38 15.28    -20 07 56.8   411205 1.0168  97.4  m  16?  22.89  97.0   11 229   7  59
   2024 07 14 22:00  13 38 31.54    -20 08 24.5   411283 1.0168  97.4  m  16?  23.26  96.6   10 231   7  59
   2024 07 14 22:10  13 38 48.09    -20 08 50.9   411365 1.0168  97.5  m  16?  23.64  96.2    9 232   7  59
   2024 07 14 22:20  13 39 04.92    -20 09 16.0   411451 1.0168  97.5  m  16?  24.04  95.8    7 234   7  59
   2024 07 14 22:30  13 39 22.05    -20 09 40.0   411540 1.0168  97.6  m  16?  24.45  95.4    6 236   7  59
   2024 07 14 22:40  13 39 39.49    -20 10 03.0   411634 1.0168  97.7  m  16?  24.86  95.1    4 238   7  59
   2024 07 14 22:50  13 39 57.23    -20 10 24.8   411730 1.0168  97.7  m  16?  25.29  94.8    2 239   7  59
   2024 07 14 23:00  13 40 15.28    -20 10 45.7   411830 1.0168  97.8  m  16?  25.72  94.5    1 241   7  59
   2024 07 14 23:10  13 40 33.65    -20 11 05.7   411932 1.0168  97.8  m  16?  26.17  94.2    0 242   7  59
   ................
   2024 07 15 20:00  14 31 34.03    -21 06 28.4   397730 1.0173 108.6 Cm  16?  28.79  83.5   26 192   3  68
   2024 07 15 20:10  14 31 54.58    -21 05 55.1   397675 1.0173 108.7 Cm  16?  29.11  83.1   26 195   3  68
   2024 07 15 20:20  14 32 15.34    -21 05 19.1   397629 1.0173 108.8 Nm  16?  29.46  82.6   25 197   3  68
   2024 07 15 20:30  14 32 36.34    -21 04 40.4   397590 1.0173 108.8 Nm  16?  29.83  82.2   25 200   3  68
   2024 07 15 20:40  14 32 57.59    -21 03 59.1   397559 1.0173 108.9 Nm  16?  30.23  81.8   24 202   3  68
   2024 07 15 20:50  14 33 19.11    -21 03 15.1   397534 1.0173 109.0 Nm  16?  30.66  81.4   23 204   3  68
   2024 07 15 21:00  14 33 40.91    -21 02 28.4   397517 1.0173 109.1 Am  16?  31.11  81.0   23 207   3  68
   2024 07 15 21:10  14 34 03.02    -21 01 39.1   397507 1.0173 109.1 Am  16?  31.58  80.7   22 209   3  68
   2024 07 15 21:20  14 34 25.45    -21 00 47.2   397504 1.0173 109.2 Am  16?  32.08  80.4   21 211   3  68
   2024 07 15 21:30  14 34 48.22    -20 59 52.7   397508 1.0173 109.3 Am  16?  32.61  80.1   20 213   3  68
   2024 07 15 21:40  14 35 11.34    -20 58 55.6   397518 1.0173 109.4 Am  16?  33.16  79.8   19 216   3  68
   2024 07 15 21:50  14 35 34.84    -20 57 56.0   397534 1.0173 109.4  m  16?  33.74  79.5   18 218   3  68
   2024 07 15 22:00  14 35 58.72    -20 56 53.8   397557 1.0173 109.5  m  16?  34.34  79.3   17 220   2  68
   2024 07 15 22:10  14 36 23.02    -20 55 49.1   397585 1.0173 109.6  m  16?  34.96  79.0   15 222   2  68
   2024 07 15 22:20  14 36 47.75    -20 54 42.0   397619 1.0173 109.7  m  16?  35.61  78.8   14 224   2  68
   2024 07 15 22:30  14 37 12.92    -20 53 32.4   397659 1.0173 109.7  m  16?  36.29  78.7   13 225   2  68
   2024 07 15 22:40  14 37 38.55    -20 52 20.5   397704 1.0173 109.8  m  16?  36.99  78.5   12 227   2  68
   2024 07 15 22:50  14 38 04.67    -20 51 06.2   397753 1.0173 109.9  m  16?  37.72  78.4   10 229   2  68
   2024 07 15 23:00  14 38 31.29    -20 49 49.6   397808 1.0173 110.0  m  16?  38.48  78.3    9 231   2  68
   2024 07 15 23:10  14 38 58.44    -20 48 30.7   397867 1.0173 110.1  m  16?  39.26  78.2    8 233   2  68
   2024 07 15 23:20  14 39 26.13    -20 47 09.6   397930 1.0173 110.2  m  16?  40.07  78.1    6 234   2  68
   2024 07 15 23:30  14 39 54.38    -20 45 46.4   397997 1.0173 110.3  m  16?  40.91  78.0    5 236   2  68
   2024 07 15 23:40  14 40 23.22    -20 44 21.1   398067 1.0173 110.4  m  16?  41.78  78.0    3 238   2  68
   2024 07 15 23:50  14 40 52.67    -20 42 53.7   398141 1.0173 110.5  m  16?  42.68  78.0    2 239   2  69
   2024 07 16 00:00  14 41 22.75    -20 41 24.4   398217 1.0173 110.6  m  16?  43.62  78.0    0 241   2  69
   ................
   2024 07 16 20:00  15 38 05.05    -28 48 20.1   397380 1.0178 124.0 Cm  17?  26.95 143.5   20 176   5  76
   2024 07 16 20:10  15 38 17.20    -28 51 55.6   397411 1.0178 124.1 Ce  17?  26.69 143.1   20 179   5  76
   2024 07 16 20:20  15 38 29.35    -28 55 27.9   397449 1.0178 124.1 Nt  17?  26.44 142.7   20 181   5  77
   2024 07 16 20:30  15 38 41.52    -28 58 57.1   397495 1.0178 124.2 Nm  17?  26.20 142.2   19 183   5  77
   2024 07 16 20:40  15 38 53.71    -29 02 23.2   397549 1.0178 124.2 Nm  17?  25.97 141.7   19 186   5  77
   2024 07 16 20:50  15 39 05.95    -29 05 46.1   397610 1.0178 124.3 Nm  17?  25.76 141.2   19 188   5  77
   2024 07 16 21:00  15 39 18.25    -29 09 05.8   397678 1.0178 124.3 Am  17?  25.57 140.6   19 190   5  77
   2024 07 16 21:10  15 39 30.62    -29 12 22.5   397753 1.0178 124.3 Am  17?  25.39 140.0   18 192   5  77
   2024 07 16 21:20  15 39 43.08    -29 15 36.1   397836 1.0179 124.4 Am  17?  25.23 139.4   18 194   5  77
   2024 07 16 21:30  15 39 55.64    -29 18 46.6   397926 1.0179 124.4 Am  17?  25.09 138.7   17 197   5  77
   2024 07 16 21:40  15 40 08.32    -29 21 54.1   398022 1.0179 124.5 Am  17?  24.97 138.0   16 199   5  77
   2024 07 16 21:50  15 40 21.13    -29 24 58.6   398126 1.0179 124.5  m  17?  24.87 137.2   16 201   5  77
   2024 07 16 22:00  15 40 34.09    -29 28 00.1   398237 1.0179 124.6  m  17?  24.78 136.4   15 203   5  77
   2024 07 16 22:10  15 40 47.22    -29 30 58.7   398354 1.0179 124.6  m  17?  24.72 135.6   14 205   5  77
   2024 07 16 22:20  15 41 00.51    -29 33 54.5   398477 1.0179 124.7  m  17?  24.68 134.8   13 207   5  77
   2024 07 16 22:30  15 41 14.00    -29 36 47.4   398607 1.0179 124.7  m  17?  24.66 133.9   12 209   5  77
   2024 07 16 22:40  15 41 27.68    -29 39 37.5   398743 1.0179 124.8  m  17?  24.65 133.0   11 211   5  77
   2024 07 16 22:50  15 41 41.58    -29 42 24.9   398884 1.0179 124.8  m  17?  24.68 132.1   10 213   5  77
   2024 07 16 23:00  15 41 55.70    -29 45 09.7   399032 1.0179 124.9  m  17?  24.72 131.2    9 215   6  77
   2024 07 16 23:10  15 42 10.06    -29 47 51.8   399184 1.0179 124.9  m  17?  24.78 130.3    8 216   6  77
   2024 07 16 23:20  15 42 24.67    -29 50 31.5   399342 1.0179 125.0  m  17?  24.87 129.4    7 218   6  77
   2024 07 16 23:30  15 42 39.54    -29 53 08.6   399505 1.0179 125.0  m  17?  24.98 128.5    6 220   6  77
   2024 07 16 23:40  15 42 54.68    -29 55 43.4   399673 1.0179 125.1  m  17?  25.11 127.5    5 222   6  77
   2024 07 16 23:50  15 43 10.10    -29 58 15.9   399845 1.0179 125.1  m  17?  25.26 126.6    3 223   6  77
   2024 07 17 00:00  15 43 25.80    -30 00 46.2   400022 1.0179 125.2  m  17?  25.43 125.7    2 225   6  77
   2024 07 17 00:10  15 43 41.81    -30 03 14.3   400202 1.0179 125.2  m  17?  25.62 124.9    1 227   6  77
   2024 07 17 00:20  15 43 58.12    -30 05 40.4   400386 1.0179 125.3  m  17?  25.83 124.0    0 228   6  77
   ................
   2024 07 17 19:50  16 29 41.13    -35 16 51.6   401079 1.0181 134.2 Cm  17?  22.49 128.3   12 165   8  84
   2024 07 17 20:00  16 29 55.46    -35 19 10.1   401042 1.0181 134.3 Cm  17?  22.21 127.9   12 167   8  84
   2024 07 17 20:10  16 30 09.71    -35 21 25.6   401012 1.0182 134.3 Cm  17?  21.95 127.4   12 169   8  85
   2024 07 17 20:20  16 30 23.89    -35 23 38.1   400988 1.0182 134.4 Nm  17?  21.69 126.9   13 171   8  85
   2024 07 17 20:30  16 30 38.01    -35 25 47.5   400972 1.0182 134.4 Nm  17?  21.46 126.4   13 173   8  85
   2024 07 17 20:40  16 30 52.08    -35 27 53.8   400962 1.0182 134.4 Nm  17?  21.24 125.8   13 175   8  85
   2024 07 17 20:50  16 31 06.14    -35 29 57.1   400959 1.0182 134.5 Nm  17?  21.03 125.1   13 177   8  85
   2024 07 17 21:00  16 31 20.19    -35 31 57.2   400963 1.0182 134.5 Ae  17?  20.85 124.5   13 179   8  85
   2024 07 17 21:10  16 31 34.24    -35 33 54.2   400973 1.0182 134.5 At  17?  20.68 123.7   13 181   8  85
   2024 07 17 21:20  16 31 48.32    -35 35 48.1   400991 1.0182 134.6 Am  17?  20.54 123.0   13 183   8  85
   2024 07 17 21:30  16 32 02.43    -35 37 38.8   401015 1.0182 134.6 Am  17?  20.41 122.1   13 185   8  85
   2024 07 17 21:40  16 32 16.61    -35 39 26.5   401047 1.0182 134.7 Am  17?  20.30 121.3   12 187   8  85
   2024 07 17 21:50  16 32 30.85    -35 41 11.0   401085 1.0182 134.7  m  17?  20.22 120.4   12 189   8  85
   2024 07 17 22:00  16 32 45.18    -35 42 52.5   401130 1.0182 134.7  m  17?  20.16 119.5   12 191   8  85
   2024 07 17 22:10  16 32 59.61    -35 44 30.9   401181 1.0182 134.8  m  17?  20.12 118.6   11 193   8  85
   2024 07 17 22:20  16 33 14.16    -35 46 06.2   401239 1.0182 134.8  m  17?  20.11 117.6   11 195   8  85
   2024 07 17 22:30  16 33 28.84    -35 47 38.6   401303 1.0182 134.9  m  17?  20.12 116.6   10 197   8  85
   2024 07 17 22:40  16 33 43.67    -35 49 08.0   401374 1.0182 134.9  m  17?  20.15 115.7   10 199   8  85
   2024 07 17 22:50  16 33 58.67    -35 50 34.4   401450 1.0182 134.9  m  17?  20.21 114.7    9 201   8  85
   2024 07 17 23:00  16 34 13.84    -35 51 58.0   401533 1.0182 135.0  m  17?  20.29 113.7    8 203   8  85
   2024 07 17 23:10  16 34 29.20    -35 53 18.8   401622 1.0182 135.0  m  17?  20.40 112.7    8 205   8  85
   2024 07 17 23:20  16 34 44.76    -35 54 36.7   401717 1.0182 135.1  m  17?  20.52 111.7    7 206   8  85
   2024 07 17 23:30  16 35 00.55    -35 55 52.0   401817 1.0182 135.1  m  17?  20.68 110.7    6 208   8  85
   2024 07 17 23:40  16 35 16.56    -35 57 04.6   401922 1.0182 135.2  m  17?  20.85 109.8    5 210   8  85
   2024 07 17 23:50  16 35 32.82    -35 58 14.7   402033 1.0182 135.2  m  17?  21.05 108.9    4 212   8  85
   2024 07 18 00:00  16 35 49.34    -35 59 22.2   402149 1.0182 135.3  m  17?  21.26 108.0    3 213   8  85
   2024 07 18 00:10  16 36 06.12    -36 00 27.3   402269 1.0182 135.3  m  17?  21.50 107.1    2 215   8  85
   2024 07 18 00:20  16 36 23.18    -36 01 30.0   402394 1.0182 135.4  m  17?  21.76 106.2    1 217   9  85
   2024 07 18 00:30  16 36 40.53    -36 02 30.5   402524 1.0182 135.4  m  17?  22.04 105.4    0 218   9  85
   ................
   2024 07 18 19:50  17 27 22.44    -38 40 01.6   400799 1.0184 144.0 Cm  17?  21.77 112.4    5 155  10  91
   2024 07 18 20:00  17 27 39.51    -38 41 23.8   400700 1.0184 144.0 Cm  17?  21.46 111.9    6 157  10  91
   2024 07 18 20:10  17 27 56.40    -38 42 43.1   400607 1.0184 144.1 Cm  17?  21.16 111.3    6 159  10  91
   2024 07 18 20:20  17 28 13.14    -38 43 59.4   400519 1.0184 144.1 Nm  17?  20.88 110.8    7 161  10  91
   2024 07 18 20:30  17 28 29.72    -38 45 12.7   400438 1.0184 144.1 Nm  17?  20.61 110.1    7 163  10  91
   2024 07 18 20:40  17 28 46.17    -38 46 22.9   400362 1.0184 144.2 Nm  17?  20.36 109.5    8 165  10  91
   2024 07 18 20:50  17 29 02.51    -38 47 30.0   400293 1.0184 144.2 Nm  17?  20.13 108.8    8 166  10  91
   2024 07 18 21:00  17 29 18.74    -38 48 33.9   400230 1.0184 144.2 Am  17?  19.92 108.0    9 168  10  91
   2024 07 18 21:10  17 29 34.89    -38 49 34.7   400173 1.0184 144.3 Am  17?  19.73 107.2    9 170  10  91
   2024 07 18 21:20  17 29 50.97    -38 50 32.2   400123 1.0184 144.3 Am  17?  19.57 106.4    9 172  10  91
   2024 07 18 21:30  17 30 07.00    -38 51 26.4   400079 1.0184 144.4 Am  17?  19.42 105.5    9 174  10  91
   2024 07 18 21:40  17 30 22.98    -38 52 17.4   400042 1.0184 144.4 Am  17?  19.30 104.6   10 176  10  91
   2024 07 18 21:50  17 30 38.95    -38 53 05.1   400011 1.0184 144.4  m  17?  19.20 103.6   10 178  10  91
   2024 07 18 22:00  17 30 54.91    -38 53 49.5   399987 1.0184 144.5  t  17?  19.12 102.7   10 180  10  92
   2024 07 18 22:10  17 31 10.89    -38 54 30.6   399969 1.0184 144.5  m  17?  19.07 101.7   10 182  10  92
   2024 07 18 22:20  17 31 26.89    -38 55 08.4   399958 1.0184 144.5  m  17?  19.04 100.7   10 184  10  92
   2024 07 18 22:30  17 31 42.94    -38 55 42.9   399953 1.0184 144.6  m  17?  19.04  99.8    9 186  10  92
   2024 07 18 22:40  17 31 59.04    -38 56 14.1   399954 1.0184 144.6  m  17?  19.07  98.7    9 188  10  92
   2024 07 18 22:50  17 32 15.23    -38 56 42.0   399962 1.0184 144.7  m  17?  19.12  97.7    9 189  10  92
   2024 07 18 23:00  17 32 31.51    -38 57 06.8   399977 1.0184 144.7  m  17?  19.19  96.7    8 191  10  92
   2024 07 18 23:10  17 32 47.90    -38 57 28.3   399997 1.0184 144.8  m  17?  19.29  95.7    8 193  10  92
   2024 07 18 23:20  17 33 04.41    -38 57 46.6   400024 1.0184 144.8  m  17?  19.41  94.8    8 195  10  92
   2024 07 18 23:30  17 33 21.07    -38 58 01.8   400057 1.0184 144.8  m  17?  19.56  93.8    7 197  10  92
   2024 07 18 23:40  17 33 37.88    -38 58 13.9   400096 1.0184 144.9  m  17?  19.73  92.9    6 199  10  92
   2024 07 18 23:50  17 33 54.86    -38 58 22.9   400141 1.0184 144.9  m  17?  19.93  92.0    6 201  10  92
   2024 07 19 00:00  17 34 12.03    -38 58 29.0   400191 1.0184 145.0  m  17?  20.14  91.1    5 202  10  92
   2024 07 19 00:10  17 34 29.40    -38 58 32.1   400247 1.0184 145.0  m  17?  20.38  90.3    4 204  10  92
   2024 07 19 00:20  17 34 46.99    -38 58 32.4   400309 1.0184 145.1  m  17?  20.64  89.5    4 206  10  92
   2024 07 19 00:30  17 35 04.80    -38 58 29.9   400376 1.0184 145.1  m  17?  20.91  88.8    3 207  10  92
   2024 07 19 00:40  17 35 22.85    -38 58 24.6   400448 1.0184 145.2  m  17?  21.21  88.0    2 209  10  92
   2024 07 19 00:50  17 35 41.16    -38 58 16.7   400525 1.0184 145.2  m  17?  21.52  87.4    1 211  10  92
   2024 07 19 01:00  17 35 59.73    -38 58 06.2   400606 1.0184 145.3  m  17?  21.85  86.7    0 212  10  92
   2024 07 19 01:10  17 36 18.58    -38 57 53.3   400693 1.0184 145.3  m  17?  22.20  86.2    0 214  10  92
   ................
   2024 07 19 19:50  18 29 13.41    -39 08 07.3   396402 1.0185 153.6 Cm  17?  22.87  95.7    0 146  10  96
   2024 07 19 20:00  18 29 32.82    -39 08 29.3   396242 1.0185 153.6 Cm  17?  22.53  95.1    0 147  10  96
   2024 07 19 20:10  18 29 51.98    -39 08 48.8   396087 1.0185 153.6 Cm  17?  22.21  94.5    1 149  10  96
   2024 07 19 20:20  18 30 10.88    -39 09 05.5   395937 1.0185 153.7 Nm  17?  21.90  93.8    2 151  10  96
   2024 07 19 20:30  18 30 29.54    -39 09 19.6   395793 1.0185 153.7 Nm  17?  21.61  93.2    3 152  10  96
   2024 07 19 20:40  18 30 47.98    -39 09 30.8   395653 1.0185 153.8 Nm  17?  21.34  92.4    4 154  10  96
   2024 07 19 20:50  18 31 06.20    -39 09 39.1   395518 1.0185 153.8 Nm  17?  21.08  91.7    5 156  10  96
   2024 07 19 21:00  18 31 24.22    -39 09 44.5   395390 1.0185 153.8 Am  17?  20.85  90.9    5 157  10  96
   2024 07 19 21:10  18 31 42.05    -39 09 46.8   395266 1.0185 153.9 Am  17?  20.64  90.0    6 159  10  96
   2024 07 19 21:20  18 31 59.72    -39 09 46.1   395149 1.0185 153.9 Am  17?  20.45  89.2    7 161  10  96
   2024 07 19 21:30  18 32 17.22    -39 09 42.2   395037 1.0185 154.0 Am  17?  20.28  88.3    7 163  10  96
   2024 07 19 21:40  18 32 34.59    -39 09 35.2   394932 1.0185 154.0  m  17?  20.14  87.3    8 165  10  96
   2024 07 19 21:50  18 32 51.83    -39 09 24.9   394833 1.0185 154.0  m  17?  20.02  86.4    8 167  10  96
   2024 07 19 22:00  18 33 08.95    -39 09 11.3   394739 1.0185 154.1  m  17?  19.92  85.4    8 168  10  96
   2024 07 19 22:10  18 33 25.99    -39 08 54.5   394653 1.0185 154.1  m  17?  19.85  84.5    9 170  10  96
   2024 07 19 22:20  18 33 42.95    -39 08 34.3   394572 1.0185 154.2  m  17?  19.81  83.5    9 172  10  96
   2024 07 19 22:30  18 33 59.84    -39 08 10.8   394498 1.0185 154.2  m  17?  19.79  82.5    9 174  10  96
   2024 07 19 22:40  18 34 16.69    -39 07 43.9   394430 1.0185 154.2  m  17?  19.79  81.5    9 176  10  96
   2024 07 19 22:50  18 34 33.51    -39 07 13.6   394369 1.0185 154.3  m  17?  19.83  80.5    9 178  10  96
   2024 07 19 23:00  18 34 50.32    -39 06 39.9   394314 1.0185 154.3  t  17?  19.88  79.6   10 180  10  96
   2024 07 19 23:10  18 35 07.14    -39 06 02.8   394266 1.0185 154.4  m  17?  19.96  78.6    9 182  10  96
   2024 07 19 23:20  18 35 23.97    -39 05 22.4   394224 1.0185 154.4  m  17?  20.07  77.7    9 184  10  96
   2024 07 19 23:30  18 35 40.85    -39 04 38.5   394189 1.0185 154.4  m  17?  20.20  76.8    9 186  10  96
   2024 07 19 23:40  18 35 57.78    -39 03 51.4   394160 1.0185 154.5  m  17?  20.35  75.9    9 188  10  96
   2024 07 19 23:50  18 36 14.78    -39 03 00.8   394138 1.0185 154.5  m  17?  20.53  75.1    9 189  10  97
   2024 07 20 00:00  18 36 31.87    -39 02 07.0   394122 1.0185 154.6  m  17?  20.72  74.3    8 191  10  97
   2024 07 20 00:10  18 36 49.06    -39 01 09.9   394112 1.0185 154.6  m  17?  20.94  73.5    8 193  10  97
   2024 07 20 00:20  18 37 06.37    -39 00 09.6   394108 1.0185 154.7  m  17?  21.18  72.8    8 195  10  97
   2024 07 20 00:30  18 37 23.82    -38 59 06.0   394111 1.0185 154.7  m  17?  21.44  72.1    7 197  10  97
   2024 07 20 00:40  18 37 41.42    -38 57 59.3   394120 1.0185 154.8  m  17?  21.72  71.5    7 199  10  97
   2024 07 20 00:50  18 37 59.18    -38 56 49.5   394134 1.0185 154.8  m  17?  22.01  70.9    6 201  10  97
   2024 07 20 01:00  18 38 17.12    -38 55 36.7   394154 1.0185 154.9  m  17?  22.32  70.4    5 202  10  97
   2024 07 20 01:10  18 38 35.26    -38 54 20.9   394180 1.0185 154.9  m  17?  22.65  69.9    5 204  10  97
   2024 07 20 01:20  18 38 53.61    -38 53 02.2   394212 1.0185 155.0  m  17?  22.99  69.4    4 206  10  97
   2024 07 20 01:30  18 39 12.18    -38 51 40.6   394249 1.0185 155.0  m  17?  23.35  69.0    3 208  10  97
   2024 07 20 01:40  18 39 30.98    -38 50 16.3   394291 1.0185 155.1  m  18?  23.72  68.6    2 209  10  97
   2024 07 20 01:50  18 39 50.04    -38 48 49.3   394338 1.0185 155.2  m  18?  24.10  68.3    1 211  10  97
   2024 07 20 02:00  18 40 09.35    -38 47 19.6   394390 1.0185 155.2  m  18?  24.49  68.0    0 212  10  97
   2024 07 20 02:10  18 40 28.93    -38 45 47.5   394447 1.0185 155.3  m  18?  24.89  67.8    0 214  10  97
   ................
   2024 07 20 20:30  19 32 57.86    -36 25 04.2   387384 1.0185 162.9 Nm  18?  24.46  75.8    0 141   9  99
   2024 07 20 20:40  19 33 17.37    -36 24 03.7   387185 1.0185 162.9 Nm  18?  24.18  75.1    1 143   9  99
   2024 07 20 20:50  19 33 36.59    -36 23 00.8   386990 1.0185 162.9 Nm  18?  23.91  74.3    2 144   9  99
   2024 07 20 21:00  19 33 55.52    -36 21 55.4   386800 1.0185 163.0 Am  18?  23.67  73.5    3 146   9  99
   2024 07 20 21:10  19 34 14.19    -36 20 47.3   386615 1.0185 163.0 Am  18?  23.45  72.6    4 148   9  99
   2024 07 20 21:20  19 34 32.60    -36 19 36.5   386434 1.0185 163.1 Am  18?  23.24  71.8    5 149   9  99
   2024 07 20 21:30  19 34 50.76    -36 18 22.9   386259 1.0185 163.1 Am  18?  23.07  70.9    6 151   9  99
   2024 07 20 21:40  19 35 08.69    -36 17 06.5   386089 1.0185 163.1  m  18?  22.91  70.0    6 153   9  99
   2024 07 20 21:50  19 35 26.41    -36 15 47.2   385925 1.0185 163.2  m  18?  22.78  69.1    7 155   9  99
   2024 07 20 22:00  19 35 43.91    -36 14 24.8   385767 1.0185 163.2  m  18?  22.67  68.1    8 156   9  99
   2024 07 20 22:10  19 36 01.23    -36 12 59.5   385614 1.0185 163.3  m  18?  22.58  67.2    9 158   9  99
   2024 07 20 22:20  19 36 18.37    -36 11 31.0   385468 1.0185 163.3  m  18?  22.52  66.3    9 160   9  99
   2024 07 20 22:30  19 36 35.34    -36 09 59.4   385327 1.0185 163.3  m  18?  22.49  65.4   10 162   9  99
   2024 07 20 22:40  19 36 52.17    -36 08 24.7   385193 1.0185 163.4  m  18?  22.48  64.4   11 164   9  99
   2024 07 20 22:50  19 37 08.87    -36 06 46.6   385066 1.0185 163.4  m  18?  22.49  63.5   11 166   9  99
   2024 07 20 23:00  19 37 25.45    -36 05 05.4   384945 1.0185 163.5  m  18?  22.53  62.7   11 168   9  99
   2024 07 20 23:10  19 37 41.94    -36 03 20.8   384830 1.0185 163.5  m  18?  22.59  61.8   12 170   9  99
   2024 07 20 23:20  19 37 58.34    -36 01 32.9   384722 1.0185 163.5  m  18?  22.67  60.9   12 172   9  99
   2024 07 20 23:30  19 38 14.67    -35 59 41.7   384621 1.0185 163.6  m  18?  22.78  60.1   12 174   9  99
   2024 07 20 23:40  19 38 30.95    -35 57 47.2   384527 1.0185 163.6  m  18?  22.91  59.4   13 176   9  99
   2024 07 20 23:50  19 38 47.19    -35 55 49.3   384439 1.0185 163.7  m  18?  23.06  58.6   13 178   9  99
   2024 07 21 00:00  19 39 03.42    -35 53 48.0   384359 1.0185 163.7  t  18?  23.23  57.9   13 180   9  99
   2024 07 21 00:10  19 39 19.65    -35 51 43.4   384285 1.0185 163.8  e  18?  23.43  57.2   13 182   9  99
   2024 07 21 00:20  19 39 35.88    -35 49 35.4   384218 1.0185 163.8  m  18?  23.64  56.6   13 184   9  99
   2024 07 21 00:30  19 39 52.16    -35 47 24.1   384158 1.0185 163.9  m  18?  23.87  56.0   13 186   9  99
   2024 07 21 00:40  19 40 08.47    -35 45 09.5   384105 1.0185 163.9  m  18?  24.12  55.4   12 188   8  99
   2024 07 21 00:50  19 40 24.86    -35 42 51.6   384058 1.0185 164.0  m  18?  24.38  54.9   12 190   8  99
   2024 07 21 01:00  19 40 41.32    -35 40 30.5   384018 1.0185 164.0  m  18?  24.67  54.5   12 192   8  99
   2024 07 21 01:10  19 40 57.87    -35 38 06.1   383985 1.0185 164.1  m  18?  24.96  54.1   11 194   8  99
   2024 07 21 01:20  19 41 14.54    -35 35 38.5   383959 1.0185 164.1  m  18?  25.27  53.7   11 196   8  99
   2024 07 21 01:30  19 41 31.34    -35 33 07.8   383939 1.0185 164.2  m  18?  25.60  53.3   10 198   8  99
   2024 07 21 01:40  19 41 48.27    -35 30 34.0   383925 1.0185 164.2  m  18?  25.94  53.1   10 200   8  99
   2024 07 21 01:50  19 42 05.36    -35 27 57.1   383918 1.0185 164.3  m  18?  26.29  52.8    9 202   8  99
   2024 07 21 02:00  19 42 22.62    -35 25 17.3   383917 1.0185 164.4  m  18?  26.65  52.6    9 204   8  99
   2024 07 21 02:10  19 42 40.07    -35 22 34.6   383922 1.0185 164.4  m  18?  27.02  52.4    8 206   8  99
   2024 07 21 02:20  19 42 57.72    -35 19 49.0   383933 1.0185 164.5  m  18?  27.40  52.3    7 207   8  99
   2024 07 21 02:30  19 43 15.57    -35 17 00.6   383950 1.0185 164.5  m  18?  27.79  52.2    6 209   8  99
   2024 07 21 02:40  19 43 33.65    -35 14 09.5   383972 1.0185 164.6  m  18?  28.18  52.1    5 211   8  99
   2024 07 21 02:50  19 43 51.97    -35 11 15.8   384000 1.0185 164.7  m  18?  28.59  52.1    4 213   8  99
   2024 07 21 03:00  19 44 10.54    -35 08 19.5   384033 1.0185 164.7  m  18?  29.00  52.1    3 214   8  99
   2024 07 21 03:10  19 44 29.36    -35 05 20.8   384071 1.0185 164.8 Am  18?  29.41  52.1    2 216   8  99
   2024 07 21 03:20  19 44 48.46    -35 02 19.7   384114 1.0185 164.8 Am  18?  29.84  52.2    1 218   8  99
   2024 07 21 03:30  19 45 07.83    -34 59 16.3   384162 1.0185 164.9 Am  18?  30.26  52.3    0 219   8  99
   ................
   2024 07 21 20:50  20 33 04.45    -29 56 26.9   375677 1.0184 168.5 Nm  18?  30.34  56.1    0 131   6  99
   2024 07 21 21:00  20 33 23.70    -29 53 37.3   375437 1.0184 168.5 Am  18?  30.14  55.3    1 133   6  99
   2024 07 21 21:10  20 33 42.64    -29 50 45.2   375201 1.0184 168.5 Am  18?  29.96  54.5    3 134   6  99
   2024 07 21 21:20  20 34 01.27    -29 47 50.6   374969 1.0184 168.5 Am  18?  29.80  53.7    4 136   6  99
   2024 07 21 21:30  20 34 19.61    -29 44 53.5   374741 1.0184 168.5 Am  18?  29.66  52.9    5 138   6  99
   2024 07 21 21:40  20 34 37.66    -29 41 53.8   374519 1.0184 168.5  m  18?  29.54  52.1    6 139   6  99
   2024 07 21 21:50  20 34 55.43    -29 38 51.3   374301 1.0184 168.5  m  18?  29.44  51.2    8 141   6  99
   2024 07 21 22:00  20 35 12.94    -29 35 46.0   374088 1.0184 168.5  m  18?  29.37  50.4    9 143   6  99
   2024 07 21 22:10  20 35 30.19    -29 32 37.8   373880 1.0184 168.5  m  18?  29.32  49.6   10 145   6  99
   2024 07 21 22:20  20 35 47.21    -29 29 26.7   373679 1.0184 168.5  m  18?  29.29  48.8   11 147   6  99
   2024 07 21 22:30  20 36 03.99    -29 26 12.6   373483 1.0184 168.5  m  18?  29.28  47.9   12 148   6  99
   2024 07 21 22:40  20 36 20.56    -29 22 55.4   373293 1.0184 168.5  m  18?  29.29  47.1   13 150   6  99
   2024 07 21 22:50  20 36 36.93    -29 19 35.1   373109 1.0184 168.5  m  18?  29.33  46.4   14 152   6  99
   2024 07 21 23:00  20 36 53.10    -29 16 11.6   372932 1.0184 168.5  m  18?  29.39  45.6   15 154   6  99
   2024 07 21 23:10  20 37 09.10    -29 12 44.8   372761 1.0184 168.6  m  18?  29.47  44.9   16 156   5  99
   2024 07 21 23:20  20 37 24.94    -29 09 14.8   372597 1.0184 168.6  m  18?  29.57  44.2   16 158   5  99
   2024 07 21 23:30  20 37 40.64    -29 05 41.4   372440 1.0184 168.6  m  18?  29.70  43.5   17 161   5  99
   2024 07 21 23:40  20 37 56.20    -29 02 04.7   372290 1.0184 168.6  m  18?  29.84  42.8   18 163   5  99
   2024 07 21 23:50  20 38 11.64    -28 58 24.6   372147 1.0184 168.6  m  18?  30.00  42.2   18 165   5  99
   2024 07 22 00:00  20 38 26.99    -28 54 41.0   372011 1.0184 168.6  m  18?  30.19  41.6   19 167   5  99
   2024 07 22 00:10  20 38 42.25    -28 50 54.0   371883 1.0184 168.6  m  18?  30.39  41.0   19 169   5  99
   2024 07 22 00:20  20 38 57.44    -28 47 03.5   371762 1.0184 168.6  m  18?  30.61  40.5   19 172   5  99
   2024 07 22 00:30  20 39 12.58    -28 43 09.5   371649 1.0184 168.6  m  18?  30.84  40.0   20 174   5  99
   2024 07 22 00:40  20 39 27.69    -28 39 12.0   371543 1.0184 168.7  m  18?  31.09  39.6   20 176   5  99
   2024 07 22 00:50  20 39 42.77    -28 35 11.0   371445 1.0184 168.7  m  18?  31.36  39.2   20 178   5  99
   2024 07 22 01:00  20 39 57.85    -28 31 06.5   371355 1.0184 168.7  t  18?  31.65  38.8   20 181   5  99
   2024 07 22 01:10  20 40 12.94    -28 26 58.5   371272 1.0184 168.7  e  18?  31.94  38.4   20 183   5  99
   2024 07 22 01:20  20 40 28.05    -28 22 47.0   371197 1.0184 168.7  m  18?  32.26  38.1   20 185   5  99
   2024 07 22 01:30  20 40 43.21    -28 18 32.0   371129 1.0184 168.7  m  18?  32.58  37.9   20 188   5  99
   2024 07 22 01:40  20 40 58.43    -28 14 13.5   371069 1.0184 168.7  m  18?  32.92  37.6   20 190   5  99
   2024 07 22 01:50  20 41 13.73    -28 09 51.5   371017 1.0184 168.7  m  18?  33.27  37.4   19 192   5  99
   2024 07 22 02:00  20 41 29.12    -28 05 26.1   370972 1.0184 168.8  m  18?  33.63  37.3   19 194   5  99
   2024 07 22 02:10  20 41 44.61    -28 00 57.3   370935 1.0184 168.8  m  18?  34.00  37.2   19 197   5  99
   2024 07 22 02:20  20 42 00.23    -27 56 25.1   370905 1.0184 168.8  m  18?  34.38  37.1   18 199   5  99
   2024 07 22 02:30  20 42 15.98    -27 51 49.6   370883 1.0184 168.8  m  18?  34.77  37.0   18 201   5  99
   2024 07 22 02:40  20 42 31.89    -27 47 10.8   370867 1.0184 168.8  m  18?  35.17  37.0   17 203   5  99
   2024 07 22 02:50  20 42 47.96    -27 42 28.7   370859 1.0184 168.8  m  18?  35.57  37.0   16 205   5  99
   2024 07 22 03:00  20 43 04.21    -27 37 43.4   370857 1.0184 168.8  m  18?  35.99  37.0   15 208   5  99
   2024 07 22 03:10  20 43 20.66    -27 32 54.9   370863 1.0184 168.8 Am  18?  36.41  37.1   15 210   5  99
   2024 07 22 03:20  20 43 37.31    -27 28 03.3   370875 1.0184 168.8 Am  18?  36.84  37.1   14 212   4  99
   2024 07 22 03:30  20 43 54.19    -27 23 08.6   370893 1.0184 168.8 Am  18?  37.27  37.3   13 214   4  99
   2024 07 22 03:40  20 44 11.29    -27 18 10.9   370918 1.0184 168.8 Am  18?  37.72  37.4   12 216   4  99
   2024 07 22 03:50  20 44 28.65    -27 13 10.2   370949 1.0184 168.8 Am  18?  38.16  37.5   11 218   4  99
   2024 07 22 04:00  20 44 46.26    -27 08 06.6   370986 1.0184 168.8 Nm  18?  38.61  37.7   10 219   4  99
   2024 07 22 04:10  20 45 04.13    -27 03 00.2   371028 1.0184 168.8 Nm  18?  39.07  37.9    9 221   4  99
   2024 07 22 04:20  20 45 22.29    -26 57 51.1   371076 1.0184 168.8 Nm  18?  39.53  38.1    7 223   4  99
   2024 07 22 04:30  20 45 40.73    -26 52 39.2   371130 1.0184 168.8 Cm  18?  40.00  38.3    6 225   4  99
   2024 07 22 04:40  20 45 59.48    -26 47 24.6   371188 1.0184 168.8 Cm  18?  40.47  38.6    5 227   4  99
   2024 07 22 04:50  20 46 18.53    -26 42 07.5   371251 1.0184 168.8 Cm  18?  40.94  38.8    4 229   4  99
   ................
   2024 07 22 21:10  21 47 09.03    -20 00 08.1   368678 1.0182 157.0 Ar  17?  46.16  98.6    0 116   2  96
   2024 07 22 21:20  21 47 41.12    -20 01 16.6   368552 1.0182 156.9 Am  17?  45.35  98.5    1 118   3  96
   2024 07 22 21:30  21 48 12.67    -20 02 23.0   368428 1.0182 156.8 Am  17?  44.56  98.3    2 119   3  96
   2024 07 22 21:40  21 48 43.68    -20 03 27.3   368307 1.0182 156.7  m  17?  43.79  98.2    4 121   3  96
   2024 07 22 21:50  21 49 14.17    -20 04 29.5   368190 1.0182 156.6  m  17?  43.04  98.1    5 122   3  96
   2024 07 22 22:00  21 49 44.16    -20 05 29.5   368076 1.0182 156.5  m  17?  42.31  97.9    7 124   3  96
   2024 07 22 22:10  21 50 13.66    -20 06 27.4   367967 1.0182 156.4  m  17?  41.60  97.8    8 126   3  96
   2024 07 22 22:20  21 50 42.68    -20 07 22.9   367862 1.0182 156.3  m  17?  40.91  97.6   10 128   3  96
   2024 07 22 22:30  21 51 11.24    -20 08 16.2   367761 1.0182 156.2  m  17?  40.24  97.3   11 129   3  96
   2024 07 22 22:40  21 51 39.36    -20 09 07.1   367666 1.0182 156.1  m  17?  39.59  97.1   13 131   3  96
   2024 07 22 22:50  21 52 07.04    -20 09 55.6   367575 1.0182 155.9  m  17?  38.97  96.9   14 133   3  96
   2024 07 22 23:00  21 52 34.30    -20 10 41.7   367490 1.0182 155.9  m  17?  38.36  96.6   15 135   3  96
   2024 07 22 23:10  21 53 01.16    -20 11 25.4   367410 1.0181 155.8  m  17?  37.78  96.4   16 137   3  96
   2024 07 22 23:20  21 53 27.63    -20 12 06.6   367336 1.0181 155.7  m  17?  37.22  96.1   18 139   3  96
   2024 07 22 23:30  21 53 53.73    -20 12 45.2   367268 1.0181 155.6  m  17?  36.68  95.8   19 141   3  96
   2024 07 22 23:40  21 54 19.48    -20 13 21.3   367207 1.0181 155.5  m  17?  36.16  95.5   20 143   3  96
   2024 07 22 23:50  21 54 44.88    -20 13 54.9   367152 1.0181 155.4  m  17?  35.66  95.1   21 145   3  96
   2024 07 23 00:00  21 55 09.95    -20 14 25.9   367103 1.0181 155.3  m  17?  35.19  94.8   22 147   3  96
   2024 07 23 00:10  21 55 34.72    -20 14 54.2   367062 1.0181 155.2  m  17?  34.74  94.4   23 150   4  96
   2024 07 23 00:20  21 55 59.19    -20 15 19.9   367027 1.0181 155.1  m  17?  34.32  94.0   24 152   4  96
   2024 07 23 00:30  21 56 23.38    -20 15 42.9   367000 1.0181 155.0  m  17?  33.92  93.6   24 154   4  96
   2024 07 23 00:40  21 56 47.31    -20 16 03.3   366980 1.0181 154.9  m  17?  33.55  93.2   25 157   4  96
   2024 07 23 00:50  21 57 10.99    -20 16 20.9   366967 1.0181 154.8  m  17?  33.20  92.7   26 159   4  96
   2024 07 23 01:00  21 57 34.44    -20 16 35.9   366962 1.0181 154.8  m  17?  32.88  92.3   26 162   4  96
   2024 07 23 01:10  21 57 57.68    -20 16 48.2   366964 1.0181 154.7  m  17?  32.58  91.8   27 164   4  96
   2024 07 23 01:20  21 58 20.73    -20 16 57.7   366975 1.0181 154.6  m  17?  32.30  91.4   27 166   4  96
   2024 07 23 01:30  21 58 43.60    -20 17 04.5   366993 1.0181 154.5  m  17?  32.06  90.9   28 169   4  96
   2024 07 23 01:40  21 59 06.30    -20 17 08.6   367019 1.0181 154.4  m  17?  31.84  90.4   28 172   4  96
   2024 07 23 01:50  21 59 28.86    -20 17 10.0   367053 1.0181 154.4  m  17?  31.64  89.9   28 174   4  96
   2024 07 23 02:00  21 59 51.28    -20 17 08.7   367095 1.0181 154.3  m  17?  31.47  89.4   28 177   4  96
   2024 07 23 02:10  22 00 13.60    -20 17 04.7   367145 1.0181 154.2  m  17?  31.33  88.9   28 179   4  96
   2024 07 23 02:20  22 00 35.82    -20 16 58.0   367203 1.0181 154.1  t  17?  31.21  88.4   28 182   4  96
   2024 07 23 02:30  22 00 57.96    -20 16 48.6   367269 1.0181 154.0  m  17?  31.12  88.0   28 184   4  96
   2024 07 23 02:40  22 01 20.04    -20 16 36.6   367343 1.0181 153.9  m  17?  31.06  87.5   28 187   4  96
   2024 07 23 02:50  22 01 42.07    -20 16 21.9   367425 1.0181 153.9  m  17?  31.02  87.0   28 190   4  96
   2024 07 23 03:00  22 02 04.07    -20 16 04.6   367515 1.0181 153.8  m  17?  31.00  86.5   27 192   4  96
   2024 07 23 03:10  22 02 26.06    -20 15 44.8   367612 1.0181 153.7 Am  17?  31.01  86.0   27 195   4  96
   2024 07 23 03:20  22 02 48.05    -20 15 22.4   367718 1.0181 153.6 Am  17?  31.04  85.6   27 197   4  96
   2024 07 23 03:30  22 03 10.05    -20 14 57.4   367831 1.0181 153.6 Am  17?  31.10  85.1   26 200   4  96
   2024 07 23 03:40  22 03 32.09    -20 14 30.0   367952 1.0181 153.5 Am  17?  31.18  84.7   25 202   4  96
   2024 07 23 03:50  22 03 54.17    -20 14 00.2   368080 1.0181 153.4 Am  17?  31.28  84.2   25 204   4  95
   2024 07 23 04:00  22 04 16.32    -20 13 27.9   368216 1.0181 153.3 Nm  17?  31.40  83.8   24 207   4  95
   2024 07 23 04:10  22 04 38.54    -20 12 53.3   368359 1.0181 153.2 Nm  17?  31.54  83.4   23 209   4  95
   2024 07 23 04:20  22 05 00.85    -20 12 16.3   368509 1.0181 153.1 Nm  17?  31.71  83.0   22 211   5  95
   2024 07 23 04:30  22 05 23.26    -20 11 37.1   368666 1.0181 153.1 Nm  17?  31.89  82.7   21 213   5  95
   2024 07 23 04:40  22 05 45.80    -20 10 55.7   368829 1.0181 153.0 Cm  17?  32.09  82.3   20 216   5  95
   2024 07 23 04:50  22 06 08.46    -20 10 12.1   368999 1.0181 152.9 Cm  17?  32.32  82.0   19 218   5  95
   ................
   2024 07 23 22:10  22 56 45.28    -18 28 17.8   376877 1.0178 141.5  r  17?  31.78  81.3    0 114   8  91
   2024 07 23 22:20  22 57 07.20    -18 27 29.7   376744 1.0178 141.4  m  17?  31.32  81.0    1 116   8  91
   2024 07 23 22:30  22 57 28.77    -18 26 40.5   376613 1.0178 141.3  m  17?  30.85  80.7    3 117   8  91
   2024 07 23 22:40  22 57 50.00    -18 25 50.4   376485 1.0178 141.3  m  17?  30.40  80.4    4 119   8  91
   2024 07 23 22:50  22 58 10.90    -18 24 59.2   376361 1.0178 141.2  m  17?  29.96  80.0    6 120   8  91
   2024 07 23 23:00  22 58 31.48    -18 24 06.8   376239 1.0178 141.1  m  17?  29.53  79.6    7 122   8  91
   2024 07 23 23:10  22 58 51.73    -18 23 13.3   376122 1.0178 141.0  m  17?  29.11  79.2    9 124   8  91
   2024 07 23 23:20  22 59 11.67    -18 22 18.6   376008 1.0178 141.0  m  17?  28.70  78.8   11 126   8  91
   2024 07 23 23:30  22 59 31.30    -18 21 22.6   375899 1.0178 140.9  m  17?  28.31  78.4   12 127   8  91
   2024 07 23 23:40  22 59 50.63    -18 20 25.2   375795 1.0178 140.8  m  17?  27.93  78.0   13 129   8  90
   2024 07 23 23:50  23 00 09.67    -18 19 26.5   375695 1.0178 140.7  m  17?  27.56  77.5   15 131   8  90
   2024 07 24 00:00  23 00 28.43    -18 18 26.4   375601 1.0178 140.7  m  17?  27.21  77.0   16 133   8  90
   2024 07 24 00:10  23 00 46.92    -18 17 24.8   375512 1.0178 140.6  m  17?  26.88  76.6   18 135   8  90
   2024 07 24 00:20  23 01 05.15    -18 16 21.7   375429 1.0178 140.5  m  17?  26.56  76.1   19 137   8  90
   2024 07 24 00:30  23 01 23.13    -18 15 17.1   375352 1.0178 140.5  m  17?  26.26  75.5   20 139   8  90
   2024 07 24 00:40  23 01 40.87    -18 14 10.9   375281 1.0178 140.4  m  17?  25.98  75.0   21 141   8  90
   2024 07 24 00:50  23 01 58.38    -18 13 03.1   375217 1.0178 140.3  m  17?  25.72  74.5   22 144   8  90
   2024 07 24 01:00  23 02 15.67    -18 11 53.6   375159 1.0178 140.3  m  17?  25.48  73.9   23 146   8  90
   2024 07 24 01:10  23 02 32.75    -18 10 42.5   375108 1.0177 140.2  m  17?  25.26  73.4   24 148   8  90
   2024 07 24 01:20  23 02 49.64    -18 09 29.6   375063 1.0177 140.1  m  17?  25.05  72.8   25 150   8  90
   2024 07 24 01:30  23 03 06.36    -18 08 15.0   375026 1.0177 140.1  m  17?  24.87  72.3   26 153   8  90
   2024 07 24 01:40  23 03 22.90    -18 06 58.7   374997 1.0177 140.0  m  17?  24.71  71.8   27 155   8  90
   2024 07 24 01:50  23 03 39.29    -18 05 40.5   374975 1.0177 140.0  m  17?  24.57  71.2   28 158   8  90
   2024 07 24 02:00  23 03 55.54    -18 04 20.6   374960 1.0177 139.9  m  17?  24.45  70.7   28 160   8  90
   2024 07 24 02:10  23 04 11.67    -18 02 58.9   374953 1.0177 139.8  m  17?  24.36  70.1   29 163   8  90
   2024 07 24 02:20  23 04 27.68    -18 01 35.4   374954 1.0177 139.8  m  17?  24.28  69.6   30 165   8  90
   2024 07 24 02:30  23 04 43.59    -18 00 10.0   374963 1.0177 139.7  m  17?  24.22  69.1   30 168   8  90
   2024 07 24 02:40  23 04 59.42    -17 58 42.8   374980 1.0177 139.7  m  17?  24.19  68.6   30 171   8  90
   2024 07 24 02:50  23 05 15.18    -17 57 13.8   375005 1.0177 139.6  m  17?  24.18  68.1   31 173   8  90
   2024 07 24 03:00  23 05 30.88    -17 55 43.0   375039 1.0177 139.5  m  17?  24.19  67.7   31 176   8  90
   2024 07 24 03:10  23 05 46.54    -17 54 10.3   375080 1.0177 139.5 Am  17?  24.21  67.2   31 179   8  90
   2024 07 24 03:20  23 06 02.18    -17 52 35.8   375129 1.0177 139.4 At  17?  24.26  66.8   31 182   8  90
   2024 07 24 03:30  23 06 17.80    -17 50 59.5   375187 1.0177 139.4 Am  17?  24.33  66.4   31 184   8  90
   2024 07 24 03:40  23 06 33.43    -17 49 21.4   375252 1.0177 139.3 Am  17?  24.42  66.0   31 187   8  90
   2024 07 24 03:50  23 06 49.07    -17 47 41.4   375326 1.0177 139.2 Am  17?  24.53  65.7   30 190   8  90
   2024 07 24 04:00  23 07 04.74    -17 45 59.8   375408 1.0177 139.2 Nm  17?  24.65  65.4   30 192   8  90
   2024 07 24 04:10  23 07 20.46    -17 44 16.3   375498 1.0177 139.1 Nm  17?  24.80  65.1   30 195   8  90
   2024 07 24 04:20  23 07 36.24    -17 42 31.2   375595 1.0177 139.1 Nm  17?  24.96  64.8   29 198   8  90
   2024 07 24 04:30  23 07 52.10    -17 40 44.3   375701 1.0177 139.0 Nm  17?  25.14  64.6   28 200   8  90
   2024 07 24 04:40  23 08 08.04    -17 38 55.8   375814 1.0177 138.9 Cm  17?  25.34  64.4   28 203   8  89
   2024 07 24 04:50  23 08 24.08    -17 37 05.7   375935 1.0177 138.9 Cm  17?  25.55  64.2   27 205   8  89
   ................
   2024 07 24 22:50  23 52 04.18    -14 04 47.1   383270 1.0173 128.6  m  17?  29.48  69.7    0 109  10  83
   2024 07 24 23:00  23 52 23.03    -14 03 04.8   383110 1.0173 128.5  m  17?  29.06  69.3    2 111  10  83
   2024 07 24 23:10  23 52 41.55    -14 01 21.8   382951 1.0173 128.4  m  17?  28.65  68.8    4 112  10  83
   2024 07 24 23:20  23 52 59.75    -13 59 38.1   382795 1.0173 128.3  m  17?  28.24  68.4    6 114  10  83
   2024 07 24 23:30  23 53 17.63    -13 57 53.6   382642 1.0173 128.3  m  17?  27.85  67.9    7 115  10  83
   2024 07 24 23:40  23 53 35.19    -13 56 08.4   382492 1.0173 128.2  m  17?  27.46  67.4    9 117  10  83
   2024 07 24 23:50  23 53 52.45    -13 54 22.3   382345 1.0173 128.1  m  17?  27.09  66.8   11 119  10  83
   2024 07 25 00:00  23 54 09.41    -13 52 35.3   382202 1.0173 128.1  m  17?  26.73  66.3   12 121  10  83
   2024 07 25 00:10  23 54 26.07    -13 50 47.5   382064 1.0173 128.0  m  17?  26.38  65.7   14 122  10  82
   2024 07 25 00:20  23 54 42.44    -13 48 58.6   381929 1.0173 127.9  m  17?  26.05  65.2   15 124  10  82
   2024 07 25 00:30  23 54 58.54    -13 47 08.8   381800 1.0173 127.9  m  17?  25.73  64.6   17 126  10  82
   2024 07 25 00:40  23 55 14.36    -13 45 18.0   381675 1.0173 127.8  m  17?  25.43  64.0   18 128  10  82
   2024 07 25 00:50  23 55 29.92    -13 43 26.2   381556 1.0173 127.7  m  17?  25.14  63.4   20 130  10  82
   2024 07 25 01:00  23 55 45.22    -13 41 33.2   381442 1.0173 127.7  m  17?  24.86  62.8   21 132  10  82
   2024 07 25 01:10  23 56 00.28    -13 39 39.2   381334 1.0173 127.6  m  17?  24.61  62.2   23 134  10  82
   2024 07 25 01:20  23 56 15.11    -13 37 44.0   381233 1.0173 127.6  m  17?  24.37  61.6   24 136  10  82
   2024 07 25 01:30  23 56 29.71    -13 35 47.6   381137 1.0173 127.5  m  17?  24.15  61.0   25 139  10  82
   2024 07 25 01:40  23 56 44.10    -13 33 50.0   381048 1.0173 127.4  m  17?  23.95  60.4   26 141  10  82
   2024 07 25 01:50  23 56 58.28    -13 31 51.3   380966 1.0173 127.4  m  17?  23.76  59.8   28 143  10  82
   2024 07 25 02:00  23 57 12.28    -13 29 51.3   380891 1.0173 127.3  m  17?  23.60  59.3   29 146  10  82
   2024 07 25 02:10  23 57 26.09    -13 27 50.0   380823 1.0173 127.3  m  17?  23.45  58.7   30 148  10  82
   2024 07 25 02:20  23 57 39.75    -13 25 47.5   380763 1.0173 127.2  m  17?  23.32  58.1   31 151  10  82
   2024 07 25 02:30  23 57 53.24    -13 23 43.8   380710 1.0173 127.2  m  17?  23.21  57.6   31 153  10  82
   2024 07 25 02:40  23 58 06.60    -13 21 38.7   380664 1.0173 127.1  m  17?  23.12  57.0   32 156  10  82
   2024 07 25 02:50  23 58 19.83    -13 19 32.3   380627 1.0173 127.1  m  17?  23.04  56.5   33 159  10  82
   2024 07 25 03:00  23 58 32.95    -13 17 24.6   380597 1.0173 127.0  m  17?  22.99  56.1   34 162  10  82
   2024 07 25 03:10  23 58 45.97    -13 15 15.6   380576 1.0173 126.9 Am  17?  22.95  55.6   34 164  10  82
   2024 07 25 03:20  23 58 58.90    -13 13 05.3   380562 1.0172 126.9 Am  17?  22.93  55.2   35 167  10  82
   2024 07 25 03:30  23 59 11.76    -13 10 53.7   380557 1.0172 126.8 Am  17?  22.93  54.8   35 170  10  82
   2024 07 25 03:40  23 59 24.55    -13 08 40.8   380560 1.0172 126.8 Am  17?  22.95  54.4   35 173  10  82
   2024 07 25 03:50  23 59 37.31    -13 06 26.6   380572 1.0172 126.7 Am  17?  22.98  54.1   36 176  10  81
   2024 07 25 04:00  23 59 50.03    -13 04 11.0   380592 1.0172 126.7 Nm  17?  23.03  53.8   36 179  10  81
   2024 07 25 04:10  00 00 02.74    -13 01 54.2   380620 1.0172 126.6 Nt  17?  23.10  53.5   36 182  10  81
   2024 07 25 04:20  00 00 15.45    -12 59 36.1   380657 1.0172 126.6 Nm  17?  23.19  53.2   36 185  10  81
   2024 07 25 04:30  00 00 28.16    -12 57 16.7   380702 1.0172 126.5 Nm  17?  23.29  53.0   35 188  10  81
   2024 07 25 04:40  00 00 40.91    -12 54 56.0   380755 1.0172 126.5 Cm  17?  23.40  52.9   35 191  10  81
   2024 07 25 04:50  00 00 53.69    -12 52 34.1   380816 1.0172 126.4 Cm  17?  23.53  52.7   35 194  10  81
   ................
   2024 07 25 23:10  00 40 00.06    -08 13 40.1   386561 1.0168 116.6  m  16?  29.99  61.4    0 101  10  73
   2024 07 25 23:20  00 40 17.63    -08 11 16.2   386366 1.0168 116.5  m  16?  29.60  60.9    2 102  10  73
   2024 07 25 23:30  00 40 34.88    -08 08 51.9   386173 1.0168 116.4  m  16?  29.21  60.4    4 104  10  73
   2024 07 25 23:40  00 40 51.82    -08 06 27.1   385982 1.0168 116.4  m  16?  28.83  59.8    5 105  10  73
   2024 07 25 23:50  00 41 08.45    -08 04 01.7   385793 1.0168 116.3  m  16?  28.46  59.3    7 107  10  73
   2024 07 26 00:00  00 41 24.76    -08 01 35.9   385606 1.0168 116.2  m  16?  28.10  58.7    9 109  10  73
   2024 07 26 00:10  00 41 40.76    -07 59 09.5   385422 1.0168 116.2  m  16?  27.75  58.1   11 110  10  73
   2024 07 26 00:20  00 41 56.47    -07 56 42.5   385241 1.0168 116.1  m  16?  27.40  57.5   13 112  10  73
   2024 07 26 00:30  00 42 11.87    -07 54 14.9   385063 1.0168 116.0  m  16?  27.07  56.9   14 114  10  73
   2024 07 26 00:40  00 42 26.99    -07 51 46.6   384890 1.0168 116.0  m  16?  26.75  56.3   16 116  10  73
   2024 07 26 00:50  00 42 41.82    -07 49 17.8   384720 1.0168 115.9  m  16?  26.44  55.7   18 118  10  72
   2024 07 26 01:00  00 42 56.37    -07 46 48.2   384555 1.0168 115.8  m  16?  26.14  55.0   19 119  10  72
   2024 07 26 01:10  00 43 10.65    -07 44 18.0   384394 1.0168 115.8  m  16?  25.86  54.4   21 121  10  72
   2024 07 26 01:20  00 43 24.66    -07 41 47.1   384238 1.0168 115.7  m  16?  25.59  53.8   22 123  10  72
   2024 07 26 01:30  00 43 38.42    -07 39 15.5   384088 1.0168 115.6  m  16?  25.34  53.2   24 125  10  72
   2024 07 26 01:40  00 43 51.94    -07 36 43.1   383943 1.0168 115.6  m  16?  25.09  52.5   26 127  10  72
   2024 07 26 01:50  00 44 05.21    -07 34 10.0   383805 1.0168 115.5  m  16?  24.87  51.9   27 130  10  72
   2024 07 26 02:00  00 44 18.26    -07 31 36.2   383672 1.0167 115.5  m  16?  24.66  51.3   28 132  10  72
   2024 07 26 02:10  00 44 31.09    -07 29 01.6   383546 1.0167 115.4  m  16?  24.46  50.7   30 134  10  72
   2024 07 26 02:20  00 44 43.71    -07 26 26.2   383426 1.0167 115.4  m  16?  24.28  50.1   31 137  10  72
   2024 07 26 02:30  00 44 56.14    -07 23 50.1   383313 1.0167 115.3  m  16?  24.12  49.5   32 139  10  72
   2024 07 26 02:40  00 45 08.38    -07 21 13.1   383208 1.0167 115.2  m  16?  23.97  49.0   34 142  10  72
   2024 07 26 02:50  00 45 20.45    -07 18 35.4   383109 1.0167 115.2  m  16?  23.83  48.5   35 144  10  72
   2024 07 26 03:00  00 45 32.35    -07 15 56.8   383019 1.0167 115.1  m  16?  23.71  47.9   36 147  10  72
   2024 07 26 03:10  00 45 44.11    -07 13 17.5   382935 1.0167 115.1  m  16?  23.61  47.5   37 150  10  72
   2024 07 26 03:20  00 45 55.73    -07 10 37.4   382860 1.0167 115.0 Am  16?  23.53  47.0   38 152  10  72
   2024 07 26 03:30  00 46 07.22    -07 07 56.4   382793 1.0167 115.0 Am  16?  23.45  46.6   39 155  10  72
   2024 07 26 03:40  00 46 18.61    -07 05 14.7   382733 1.0167 114.9 Am  16?  23.40  46.2   39 158  10  72
   2024 07 26 03:50  00 46 29.90    -07 02 32.2   382682 1.0167 114.9 Am  16?  23.36  45.8   40 161  10  72
   2024 07 26 04:00  00 46 41.10    -06 59 48.9   382639 1.0167 114.8 Nm  16?  23.33  45.5   41 165  10  71
   2024 07 26 04:10  00 46 52.23    -06 57 04.8   382605 1.0167 114.8 Nm  16?  23.32  45.2   41 168  10  71
   2024 07 26 04:20  00 47 03.30    -06 54 19.9   382579 1.0167 114.7 Nm  16?  23.32  44.9   41 171  10  71
   2024 07 26 04:30  00 47 14.33    -06 51 34.2   382562 1.0167 114.7 Nm  16?  23.34  44.7   42 174  10  71
   2024 07 26 04:40  00 47 25.34    -06 48 47.8   382553 1.0167 114.6 Cm  16?  23.37  44.5   42 178  10  71
   2024 07 26 04:50  00 47 36.32    -06 46 00.6   382553 1.0167 114.6 Ct  16?  23.42  44.3   42 181  10  71
   ................
   2024 07 26 23:20  01 23 51.43    -01 14 42.3   386286 1.0162 104.9  r  16?  32.38  55.0    0  91   9  62
   2024 07 26 23:30  01 24 08.95    -01 11 36.2   386061 1.0162 104.9  m  16?  32.02  54.5    1  92   9  62
   2024 07 26 23:40  01 24 26.16    -01 08 29.7   385837 1.0162 104.8  m  16?  31.66  53.9    3  94   9  62
   2024 07 26 23:50  01 24 43.05    -01 05 22.8   385613 1.0162 104.7  m  16?  31.31  53.3    5  95   9  62
   2024 07 27 00:00  01 24 59.63    -01 02 15.5   385391 1.0162 104.6  m  16?  30.96  52.8    6  97   9  62
   2024 07 27 00:10  01 25 15.90    -00 59 07.7   385169 1.0162 104.6  m  16?  30.62  52.2    8  98   9  62
   2024 07 27 00:20  01 25 31.86    -00 55 59.5   384949 1.0162 104.5  m  16?  30.28  51.6   10 100   9  62
   2024 07 27 00:30  01 25 47.51    -00 52 50.8   384732 1.0162 104.4  m  16?  29.95  51.0   12 102   9  62
   2024 07 27 00:40  01 26 02.86    -00 49 41.7   384517 1.0162 104.3  m  16?  29.63  50.3   14 103   9  62
   2024 07 27 00:50  01 26 17.91    -00 46 32.2   384304 1.0162 104.3  m  16?  29.32  49.7   16 105   9  62
   2024 07 27 01:00  01 26 32.66    -00 43 22.3   384095 1.0162 104.2  m  16?  29.01  49.1   17 107   9  61
   2024 07 27 01:10  01 26 47.12    -00 40 11.9   383889 1.0162 104.1  m  16?  28.71  48.5   19 108   9  61
   2024 07 27 01:20  01 27 01.30    -00 37 01.1   383687 1.0162 104.1  m  16?  28.43  47.8   21 110   9  61
   2024 07 27 01:30  01 27 15.20    -00 33 49.9   383489 1.0162 104.0  m  16?  28.15  47.2   23 112   9  61
   2024 07 27 01:40  01 27 28.83    -00 30 38.3   383296 1.0162 103.9  m  16?  27.89  46.6   25 114   9  61
   2024 07 27 01:50  01 27 42.19    -00 27 26.2   383108 1.0162 103.9  m  16?  27.63  46.0   26 116   9  61
   2024 07 27 02:00  01 27 55.29    -00 24 13.7   382924 1.0162 103.8  m  16?  27.39  45.3   28 118   9  61
   2024 07 27 02:10  01 28 08.15    -00 21 00.9   382746 1.0162 103.7  m  16?  27.16  44.7   30 120   9  61
   2024 07 27 02:20  01 28 20.76    -00 17 47.6   382574 1.0162 103.7  m  16?  26.94  44.1   31 122   9  61
   2024 07 27 02:30  01 28 33.14    -00 14 33.9   382408 1.0161 103.6  m  16?  26.73  43.6   33 124   9  61
   2024 07 27 02:40  01 28 45.30    -00 11 19.9   382248 1.0161 103.6  m  16?  26.53  43.0   34 127   9  61
   2024 07 27 02:50  01 28 57.25    -00 08 05.5   382094 1.0161 103.5  m  16?  26.35  42.4   36 129   9  61
   2024 07 27 03:00  01 29 08.99    -00 04 50.7   381947 1.0161 103.5  m  16?  26.18  41.9   37 132   9  61
   2024 07 27 03:10  01 29 20.55    -00 01 35.6   381808 1.0161 103.4  m  16?  26.02  41.4   39 134   9  61
   2024 07 27 03:20  01 29 31.92    +00 01 39.9   381675 1.0161 103.3 Am  16?  25.87  40.9   40 137   9  61
   2024 07 27 03:30  01 29 43.12    +00 04 55.7   381550 1.0161 103.3 Am  16?  25.74  40.5   41 140   9  61
   2024 07 27 03:40  01 29 54.17    +00 08 11.9   381432 1.0161 103.2 Am  16?  25.62  40.0   43 143   9  61
   2024 07 27 03:50  01 30 05.08    +00 11 28.3   381322 1.0161 103.2 Am  16?  25.51  39.6   44 146   9  60
   2024 07 27 04:00  01 30 15.85    +00 14 45.1   381221 1.0161 103.1 Nm  16?  25.41  39.3   45 149   9  60
   2024 07 27 04:10  01 30 26.50    +00 18 02.1   381127 1.0161 103.1 Nm  16?  25.33  38.9   46 152   9  60
   2024 07 27 04:20  01 30 37.05    +00 21 19.4   381041 1.0161 103.0 Nm  16?  25.25  38.6   47 155   9  60
   2024 07 27 04:30  01 30 47.50    +00 24 37.0   380964 1.0161 103.0 Nm  16?  25.19  38.4   47 159   9  60
   2024 07 27 04:40  01 30 57.87    +00 27 54.8   380895 1.0161 102.9 Cm  16?  25.14  38.1   48 162   9  60
   2024 07 27 04:50  01 31 08.18    +00 31 12.8   380835 1.0161 102.9 Cm  16?  25.11  37.9   48 166   9  60
   2024 07 27 05:00  01 31 18.43    +00 34 31.1   380783 1.0161 102.8 Cm  16?  25.08  37.8   49 170   9  60
   ................
   2024 07 27 23:30  02 06 31.13    +07 04 54.4   382425 1.0156  93.1  r  16?  37.06  48.9    0  80   7  51
   2024 07 27 23:40  02 06 49.71    +07 08 58.9   382180 1.0156  93.0  m  16?  36.77  48.3    1  81   7  51
   2024 07 27 23:50  02 07 07.99    +07 13 04.0   381935 1.0156  92.9  m  16?  36.47  47.8    3  83   7  51
   2024 07 28 00:00  02 07 25.96    +07 17 09.9   381689 1.0156  92.8  m  16?  36.18  47.2    5  84   7  51
   

Titan-3C RB (JPL-ID: -102770)

   Date (UTC) HH:MM   RA              Dec         delta   r     elong SM  mag  '/hr    PA   alt  az moo ill
   ---- -- -- -----  -------------   -----------  ------ ------ ----- --  --- ------ ------ --- --- --- ---
   2024 07 14 00:00  23 22 30.97    +13 26 23.8    99068 1.0168 113.8     13?  95.60  92.7   29  97 151  50
   2024 07 14 00:10  23 23 35.64    +13 25 35.6    99457 1.0168 113.6     13?  93.31  93.1   31  99 151  50
   2024 07 14 00:20  23 24 38.75    +13 24 43.5    99840 1.0168 113.4     13?  91.09  93.4   33 101 152  50
   2024 07 14 00:30  23 25 40.34    +13 23 47.5   100215 1.0168 113.2     13?  88.95  93.7   34 102 152  50
   2024 07 14 00:40  23 26 40.46    +13 22 47.6   100585 1.0168 113.0     13?  86.89  94.1   36 104 152  50
   2024 07 14 00:50  23 27 39.18    +13 21 43.8   100948 1.0168 112.8     13?  84.90  94.4   38 106 152  50
   2024 07 14 01:00  23 28 36.53    +13 20 36.0   101306 1.0168 112.6     13?  82.99  94.8   39 108 152  50
   2024 07 14 01:10  23 29 32.56    +13 19 24.1   101658 1.0168 112.4     13?  81.16  95.2   41 110 152  50
   2024 07 14 01:20  23 30 27.33    +13 18 08.2   102005 1.0168 112.3     13?  79.41  95.6   42 112 153  50
   2024 07 14 01:30  23 31 20.89    +13 16 48.1   102348 1.0168 112.1     13?  77.73  96.0   44 114 153  50
   2024 07 14 01:40  23 32 13.28    +13 15 24.0   102686 1.0168 111.9     13?  76.13  96.5   45 117 153  50
   2024 07 14 01:50  23 33 04.57    +13 13 55.6   103020 1.0168 111.8     13?  74.62  96.9   47 119 153  51
   2024 07 14 02:00  23 33 54.79    +13 12 23.1   103350 1.0168 111.6     13?  73.18  97.4   48 121 153  51
   2024 07 14 02:10  23 34 44.01    +13 10 46.4   103676 1.0168 111.5     13?  71.82  97.9   50 124 153  51
   2024 07 14 02:20  23 35 32.27    +13 09 05.4   103999 1.0168 111.3     13?  70.54  98.4   51 127 153  51
   2024 07 14 02:30  23 36 19.63    +13 07 20.2   104319 1.0168 111.2     13?  69.34  98.9   53 130 153  51
   2024 07 14 02:40  23 37 06.13    +13 05 30.7   104635 1.0168 111.0     13?  68.23  99.4   54 133 153  51
   2024 07 14 02:50  23 37 51.83    +13 03 36.9   104950 1.0168 110.9     13?  67.19  99.9   55 136 154  51
   2024 07 14 03:00  23 38 36.79    +13 01 38.9   105261 1.0168 110.7 A   13?  66.23 100.4   56 140 154  51
   2024 07 14 03:10  23 39 21.04    +12 59 36.7   105571 1.0168 110.6 A   13?  65.36 100.9   57 144 154  51
   2024 07 14 03:20  23 40 04.66    +12 57 30.1   105878 1.0168 110.5 A   13?  64.56 101.4   58 147 154  51
   2024 07 14 03:30  23 40 47.68    +12 55 19.4   106183 1.0167 110.3 A   13?  63.85 101.9   59 152 154  51
   2024 07 14 03:40  23 41 30.15    +12 53 04.4   106487 1.0167 110.2 A   13?  63.21 102.4   60 156 154  51
   2024 07 14 03:50  23 42 12.14    +12 50 45.2   106789 1.0167 110.1 N   13?  62.65 103.0   60 160 154  51
   2024 07 14 04:00  23 42 53.69    +12 48 21.8   107089 1.0167 110.0 N   13?  62.16 103.5   61 165 154  52
   2024 07 14 04:10  23 43 34.86    +12 45 54.3   107388 1.0167 109.9 N   13?  61.76 103.9   61 170 154  52
   2024 07 14 04:20  23 44 15.68    +12 43 22.7   107686 1.0167 109.7 N   13?  61.43 104.4   61 174 154  52
   2024 07 14 04:30  23 44 56.22    +12 40 47.0   107982 1.0167 109.6 Ce  13?  61.17 104.9   61 179 154  52
   2024 07 14 04:40  23 45 36.53    +12 38 07.3   108277 1.0167 109.5 Ct  13?  60.98 105.3   61 184 154  52
   ................
   2024 07 15 00:50  02 16 50.85    +03 16 06.5    85543 1.0164  79.7     13? 183.36 107.2    0  85 167  60
   2024 07 15 01:00  02 18 48.56    +03 06 56.3    84539 1.0164  79.3     13? 185.91 107.5    1  87 166  60
   2024 07 15 01:10  02 20 47.75    +02 57 29.6    83521 1.0164  78.9     13? 188.62 107.8    3  88 166  60
   2024 07 15 01:20  02 22 48.51    +02 47 45.4    82490 1.0164  78.5     13? 191.52 108.1    4  90 166  60
   2024 07 15 01:30  02 24 50.95    +02 37 42.8    81446 1.0164  78.1     13? 194.61 108.4    6  91 166  60
   2024 07 15 01:40  02 26 55.20    +02 27 20.9    80389 1.0163  77.7     13? 197.91 108.6    7  93 165  60
   2024 07 15 01:50  02 29 01.37    +02 16 38.4    79319 1.0163  77.3     13? 201.44 108.9    8  94 165  60
   2024 07 15 02:00  02 31 09.61    +02 05 34.4    78236 1.0163  76.9     13? 205.21 109.2   10  96 164  60
   2024 07 15 02:10  02 33 20.06    +01 54 07.5    77140 1.0163  76.5     13? 209.25 109.5   11  97 164  60
   2024 07 15 02:20  02 35 32.88    +01 42 16.6    76030 1.0163  76.0     13? 213.58 109.8   12  99 164  60
   2024 07 15 02:30  02 37 48.26    +01 30 00.1    74908 1.0163  75.6     12? 218.23 110.1   14 100 163  60
   2024 07 15 02:40  02 40 06.39    +01 17 16.7    73772 1.0163  75.1     12? 223.21 110.4   15 101 163  60
   2024 07 15 02:50  02 42 27.47    +01 04 04.6    72623 1.0163  74.7     12? 228.57 110.7   16 103 162  60
   2024 07 15 03:00  02 44 51.73    +00 50 22.0    71460 1.0163  74.2 A   12? 234.33 111.0   18 105 162  60
   2024 07 15 03:10  02 47 19.42    +00 36 07.2    70284 1.0163  73.7 A   12? 240.53 111.3   19 106 161  61
   2024 07 15 03:20  02 49 50.82    +00 21 18.1    69093 1.0163  73.3 A   12? 247.20 111.6   20 108 161  61
   2024 07 15 03:30  02 52 26.22    +00 05 52.3    67889 1.0163  72.8 A   12? 254.41 111.8   21 109 160  61
   2024 07 15 03:40  02 55 05.96    -00 10 12.5    66671 1.0163  72.3 A   12? 262.18 112.1   22 111 160  61
   2024 07 15 03:50  02 57 50.38    -00 26 59.0    65438 1.0163  71.7 N   12? 270.59 112.4   23 113 159  61
   2024 07 15 04:00  03 00 39.90    -00 44 30.3    64191 1.0163  71.2 N   12? 279.70 112.6   24 114 159  61
   2024 07 15 04:10  03 03 34.94    -01 02 49.4    62929 1.0163  70.7 N   12? 289.57 112.9   25 116 158  61
   2024 07 15 04:20  03 06 36.00    -01 21 59.9    61651 1.0163  70.1 N   12? 300.29 113.1   26 118 157  61
   2024 07 15 04:30  03 09 43.62    -01 42 05.8    60358 1.0163  69.5 C   12? 311.95 113.4   27 119 157  61
   2024 07 15 04:40  03 12 58.40    -02 03 11.4    59049 1.0163  68.9 C   12? 324.67 113.6   28 121 156  61
   ................
   2024 07 15 21:00  23 06 05.72    +13 22 03.0    94238 1.0167 118.9 Am  13? 139.49  90.0    0  72 127  68
   2024 07 15 21:10  23 07 40.15    +13 22 01.1    94753 1.0167 118.6 Am  13? 136.18  90.1    2  73 127  68
   2024 07 15 21:20  23 09 12.34    +13 21 56.3    95255 1.0167 118.3 Am  13? 132.94  90.2    3  75 128  68
   2024 07 15 21:30  23 10 42.33    +13 21 48.6    95744 1.0167 118.0 Am  13? 129.77  90.4    5  76 128  68
   2024 07 15 21:40  23 12 10.18    +13 21 38.0    96220 1.0167 117.7 Am  13? 126.67  90.5    6  77 128  68
   2024 07 15 21:50  23 13 35.93    +13 21 24.6    96685 1.0167 117.4  m  13? 123.65  90.6    8  79 128  68
   2024 07 15 22:00  23 14 59.62    +13 21 08.2    97138 1.0167 117.1  m  13? 120.69  90.8    9  80 129  68
   2024 07 15 22:10  23 16 21.31    +13 20 49.0    97579 1.0167 116.9  m  13? 117.81  91.0   11  82 129  68
   2024 07 15 22:20  23 17 41.04    +13 20 26.7    98010 1.0167 116.6  m  13? 114.99  91.1   13  83 129  68
   2024 07 15 22:30  23 18 58.86    +13 20 01.5    98430 1.0167 116.3  m  13? 112.24  91.3   14  84 129  68
   2024 07 15 22:40  23 20 14.80    +13 19 33.2    98840 1.0167 116.1  m  13? 109.55  91.5   16  86 130  68
   2024 07 15 22:50  23 21 28.92    +13 19 01.9    99240 1.0167 115.8  m  13? 106.93  91.7   18  87 130  68
   2024 07 15 23:00  23 22 41.25    +13 18 27.5    99631 1.0167 115.6  m  13? 104.37  91.9   19  89 130  68
   2024 07 15 23:10  23 23 51.84    +13 17 49.9   100013 1.0167 115.4  m  13? 101.88  92.2   21  90 130  68
   2024 07 15 23:20  23 25 00.74    +13 17 09.1   100386 1.0167 115.1  m  13?  99.45  92.4   23  92 131  68
   2024 07 15 23:30  23 26 07.98    +13 16 25.0   100750 1.0167 114.9  m  13?  97.09  92.7   24  93 131  68
   2024 07 15 23:40  23 27 13.61    +13 15 37.6   101107 1.0167 114.7  m  13?  94.79  92.9   26  95 131  68
   2024 07 15 23:50  23 28 17.68    +13 14 46.9   101456 1.0167 114.5  m  13?  92.57  93.2   28  96 131  69
   2024 07 16 00:00  23 29 20.22    +13 13 52.7   101798 1.0167 114.3  m  13?  90.40  93.5   29  98 131  69
   2024 07 16 00:10  23 30 21.29    +13 12 55.0   102134 1.0167 114.1  m  13?  88.31  93.8   31  99 131  69
   2024 07 16 00:20  23 31 20.92    +13 11 53.8   102462 1.0167 113.9  m  13?  86.28  94.2   33 101 132  69
   2024 07 16 00:30  23 32 19.15    +13 10 49.0   102785 1.0167 113.7     13?  84.32  94.5   34 103 132  69
   2024 07 16 00:40  23 33 16.05    +13 09 40.5   103101 1.0167 113.5     13?  82.43  94.8   36 105 132  69
   2024 07 16 00:50  23 34 11.64    +13 08 28.3   103412 1.0167 113.4     13?  80.61  95.2   38 107 132  69
   2024 07 16 01:00  23 35 05.97    +13 07 12.4   103718 1.0167 113.2     13?  78.86  95.6   39 109 132  69
   2024 07 16 01:10  23 35 59.10    +13 05 52.6   104019 1.0167 113.0     13?  77.18  96.0   41 111 132  69
   2024 07 16 01:20  23 36 51.07    +13 04 29.0   104316 1.0167 112.9     13?  75.58  96.5   42 113 132  69
   2024 07 16 01:30  23 37 41.92    +13 03 01.5   104608 1.0167 112.7     13?  74.04  96.9   44 115 133  69
   2024 07 16 01:40  23 38 31.70    +13 01 30.1   104896 1.0167 112.5     13?  72.59  97.3   46 117 133  69
   2024 07 16 01:50  23 39 20.46    +12 59 54.7   105180 1.0167 112.4     13?  71.20  97.8   47 120 133  69
   2024 07 16 02:00  23 40 08.25    +12 58 15.2   105461 1.0167 112.2     13?  69.89  98.3   49 122 133  69
   2024 07 16 02:10  23 40 55.12    +12 56 31.7   105739 1.0167 112.1     13?  68.66  98.8   50 125 133  69
   2024 07 16 02:20  23 41 41.11    +12 54 44.2   106014 1.0167 112.0     13?  67.50  99.3   51 128 133  69
   2024 07 16 02:30  23 42 26.27    +12 52 52.5   106286 1.0167 111.8     13?  66.42  99.8   53 131 133  69
   2024 07 16 02:40  23 43 10.66    +12 50 56.8   106555 1.0167 111.7     13?  65.42 100.3   54 134 133  70
   2024 07 16 02:50  23 43 54.31    +12 48 56.9   106823 1.0167 111.6     13?  64.49 100.8   55 137 133  70
   2024 07 16 03:00  23 44 37.29    +12 46 52.8   107088 1.0167 111.4 A   13?  63.64 101.3   56 141 133  70
   2024 07 16 03:10  23 45 19.64    +12 44 44.7   107351 1.0167 111.3 A   13?  62.87 101.9   57 145 133  70
   2024 07 16 03:20  23 46 01.42    +12 42 32.4   107612 1.0167 111.2 A   13?  62.17 102.4   58 148 133  70
   2024 07 16 03:30  23 46 42.66    +12 40 15.9   107872 1.0167 111.1 A   13?  61.55 102.9   59 153 134  70
   2024 07 16 03:40  23 47 23.43    +12 37 55.4   108130 1.0166 110.9 A   13?  61.01 103.4   60 157 134  70
   2024 07 16 03:50  23 48 03.76    +12 35 30.7   108387 1.0166 110.8 N   13?  60.54 103.9   60 161 134  70
   2024 07 16 04:00  23 48 43.72    +12 33 02.0   108642 1.0166 110.7 N   13?  60.15 104.4   61 166 134  70
   2024 07 16 04:10  23 49 23.35    +12 30 29.2   108897 1.0166 110.6 N   13?  59.82 104.9   61 171 134  70
   2024 07 16 04:20  23 50 02.69    +12 27 52.4   109150 1.0166 110.5 N   13?  59.58 105.4   61 176 134  70
   2024 07 16 04:30  23 50 41.81    +12 25 11.6   109403 1.0166 110.4 Ct  13?  59.40 105.8   61 180 134  70
   2024 07 16 04:40  23 51 20.73    +12 22 26.9   109654 1.0166 110.3 C   13?  59.29 106.2   61 185 134  70
   2024 07 16 04:50  23 51 59.53    +12 19 38.3   109904 1.0166 110.1 C   13?  59.25 106.6   61 190 134  70
   ................
   2024 07 17 01:00  02 30 16.44    +02 09 41.2    79914 1.0162  78.9     13? 211.08 108.1    0  87 151  78
   2024 07 17 01:10  02 32 31.54    +01 58 36.7    78824 1.0162  78.4     13? 215.09 108.3    1  88 151  78
   2024 07 17 01:20  02 34 49.04    +01 47 09.5    77719 1.0162  78.0     13? 219.36 108.6    3  90 152  78
   2024 07 17 01:30  02 37 09.09    +01 35 18.3    76600 1.0162  77.5     12? 223.94 108.9    4  91 152  78
   2024 07 17 01:40  02 39 31.89    +01 23 01.7    75467 1.0162  77.0     12? 228.83 109.2    5  93 152  78
   2024 07 17 01:50  02 41 57.63    +01 10 18.0    74319 1.0162  76.6     12? 234.08 109.4    7  94 152  78
   2024 07 17 02:00  02 44 26.52    +00 57 05.7    73158 1.0162  76.1     12? 239.71 109.7    8  96 152  78
   2024 07 17 02:10  02 46 58.82    +00 43 22.9    71981 1.0162  75.6     12? 245.75 110.0    9  97 152  78
   2024 07 17 02:20  02 49 34.76    +00 29 07.8    70790 1.0162  75.1     12? 252.25 110.3   11  98 152  78
   2024 07 17 02:30  02 52 14.65    +00 14 18.1    69584 1.0162  74.5     12? 259.24 110.5   12 100 152  78
   2024 07 17 02:40  02 54 58.78    -00 01 08.3    68364 1.0162  74.0     12? 266.78 110.8   13 101 152  78
   2024 07 17 02:50  02 57 47.52    -00 17 14.0    67128 1.0162  73.5     12? 274.92 111.1   14 103 152  78
   2024 07 17 03:00  03 00 41.22    -00 34 01.7    65877 1.0162  72.9 A   12? 283.72 111.3   15 104 152  78
   2024 07 17 03:10  03 03 40.32    -00 51 34.5    64611 1.0162  72.3 A   12? 293.24 111.6   16 106 152  78
   2024 07 17 03:20  03 06 45.27    -01 09 55.6    63329 1.0162  71.8 A   12? 303.57 111.8   17 107 152  78
   2024 07 17 03:30  03 09 56.59    -01 29 08.6    62031 1.0162  71.2 A   12? 314.79 112.1   18 109 152  79
   2024 07 17 03:40  03 13 14.86    -01 49 17.5    60717 1.0162  70.5 A   12? 327.00 112.3   19 110 152  79
   2024 07 17 03:50  03 16 40.70    -02 10 26.8    59387 1.0162  69.9 N   12? 340.32 112.5   20 112 152  79
   2024 07 17 04:00  03 20 14.85    -02 32 41.5    58040 1.0162  69.2 N   12? 354.87 112.7   21 113 151  79
   2024 07 17 04:10  03 23 58.11    -02 56 06.9    56675 1.0162  68.5 N   12? 370.81 113.0   22 115 151  79
   2024 07 17 04:20  03 27 51.38    -03 20 49.3    55294 1.0162  67.8 N   12? 388.30 113.1   23 116 151  79
   2024 07 17 04:30  03 31 55.70    -03 46 55.5    53895 1.0162  67.1 C   12? 407.57 113.3   23 118 151  79
   2024 07 17 04:40  03 36 12.25    -04 14 33.2    52477 1.0162  66.3 C   12? 428.84 113.5   24 119 150  79
   2024 07 17 04:50  03 40 42.37    -04 43 51.2    51041 1.0162  65.5 C   12? 452.40 113.7   24 121 150  79
   ................
   2024 07 17 21:00  23 13 52.68    +13 11 52.9    97756 1.0166 119.2 Am  13? 130.59  90.6    0  72 105  85
   2024 07 17 21:10  23 15 21.07    +13 11 36.5    98207 1.0166 118.9 Am  13? 127.63  90.7    2  74 105  85
   2024 07 17 21:20  23 16 47.45    +13 11 17.7    98647 1.0166 118.6 Am  13? 124.73  90.9    3  75 105  85
   2024 07 17 21:30  23 18 11.86    +13 10 56.6    99074 1.0166 118.3 Am  13? 121.89  91.0    5  76 106  85
   2024 07 17 21:40  23 19 34.34    +13 10 33.1    99489 1.0166 118.1 Am  13? 119.11  91.1    6  78 106  85
   2024 07 17 21:50  23 20 54.93    +13 10 07.2    99893 1.0166 117.8  m  13? 116.38  91.3    8  79 106  85
   2024 07 17 22:00  23 22 13.66    +13 09 38.8   100286 1.0166 117.6  m  13? 113.71  91.5    9  80 106  85
   2024 07 17 22:10  23 23 30.58    +13 09 08.0   100668 1.0166 117.3  m  13? 111.10  91.6   11  82 107  85
   2024 07 17 22:20  23 24 45.72    +13 08 34.5   101040 1.0166 117.1  m  13? 108.54  91.8   13  83 107  85
   2024 07 17 22:30  23 25 59.12    +13 07 58.5   101402 1.0166 116.8  m  13? 106.03  92.0   14  85 107  85
   2024 07 17 22:40  23 27 10.80    +13 07 19.8   101755 1.0166 116.6  m  13? 103.58  92.2   16  86 107  85
   2024 07 17 22:50  23 28 20.82    +13 06 38.3   102098 1.0166 116.4  m  13? 101.19  92.4   18  88 107  85
   2024 07 17 23:00  23 29 29.21    +13 05 54.1   102432 1.0166 116.1  m  13?  98.85  92.6   19  89 108  85
   2024 07 17 23:10  23 30 36.00    +13 05 07.0   102758 1.0166 115.9  m  13?  96.56  92.8   21  90 108  85
   2024 07 17 23:20  23 31 41.23    +13 04 17.0   103076 1.0166 115.7  m  14?  94.34  93.1   23  92 108  85
   2024 07 17 23:30  23 32 44.95    +13 03 24.0   103386 1.0166 115.5  m  14?  92.17  93.3   24  93 108  85
   2024 07 17 23:40  23 33 47.18    +13 02 27.9   103689 1.0166 115.3  m  14?  90.06  93.6   26  95 108  85
   2024 07 17 23:50  23 34 47.96    +13 01 28.7   103985 1.0166 115.1  m  14?  88.01  93.9   28  97 108  85
   2024 07 18 00:00  23 35 47.34    +13 00 26.3   104274 1.0166 114.9  m  14?  86.02  94.2   29  98 109  85
   2024 07 18 00:10  23 36 45.36    +12 59 20.6   104556 1.0166 114.7  m  14?  84.09  94.6   31 100 109  85
   2024 07 18 00:20  23 37 42.05    +12 58 11.6   104833 1.0166 114.5  m  14?  82.22  94.9   33 102 109  85
   2024 07 18 00:30  23 38 37.45    +12 56 59.2   105104 1.0166 114.4  m  14?  80.41  95.3   34 103 109  85
   2024 07 18 00:40  23 39 31.61    +12 55 43.3   105369 1.0166 114.2  m  14?  78.67  95.6   36 105 109  85
   2024 07 18 00:50  23 40 24.57    +12 54 23.9   105630 1.0166 114.0  m  14?  76.99  96.0   38 107 109  85
   2024 07 18 01:00  23 41 16.36    +12 53 00.9   105885 1.0166 113.9  m  14?  75.38  96.4   39 109 109  86
   2024 07 18 01:10  23 42 07.03    +12 51 34.3   106137 1.0166 113.7  m  14?  73.84  96.8   41 111 109  86
   2024 07 18 01:20  23 42 56.63    +12 50 03.9   106384 1.0166 113.5  m  14?  72.36  97.3   43 113 110  86
   2024 07 18 01:30  23 43 45.20    +12 48 29.8   106627 1.0166 113.4  m  14?  70.96  97.7   44 116 110  86
   2024 07 18 01:40  23 44 32.78    +12 46 52.0   106867 1.0166 113.2     14?  69.62  98.2   46 118 110  86
   2024 07 18 01:50  23 45 19.42    +12 45 10.2   107103 1.0166 113.1     14?  68.35  98.7   47 120 110  86
   2024 07 18 02:00  23 46 05.16    +12 43 24.6   107336 1.0166 113.0     14?  67.16  99.2   49 123 110  86
   2024 07 18 02:10  23 46 50.06    +12 41 35.1   107566 1.0166 112.8     14?  66.03  99.7   50 126 110  86
   2024 07 18 02:20  23 47 34.14    +12 39 41.6   107794 1.0166 112.7     14?  64.98 100.2   51 129 110  86
   2024 07 18 02:30  23 48 17.47    +12 37 44.1   108019 1.0166 112.6     14?  64.01 100.7   53 132 110  86
   2024 07 18 02:40  23 49 00.09    +12 35 42.6   108243 1.0165 112.4     14?  63.10 101.2   54 135 110  86
   2024 07 18 02:50  23 49 42.04    +12 33 37.1   108464 1.0165 112.3     14?  62.27 101.7   55 138 110  86
   2024 07 18 03:00  23 50 23.38    +12 31 27.6   108683 1.0165 112.2 A   14?  61.52 102.3   56 142 110  86
   2024 07 18 03:10  23 51 04.15    +12 29 14.0   108901 1.0165 112.1 A   14?  60.84 102.8   57 146 110  86
   2024 07 18 03:20  23 51 44.40    +12 26 56.3   109117 1.0165 111.9 A   14?  60.23 103.3   58 150 110  86
   2024 07 18 03:30  23 52 24.18    +12 24 34.6   109332 1.0165 111.8 A   14?  59.70 103.8   59 154 110  86
   2024 07 18 03:40  23 53 03.53    +12 22 08.9   109545 1.0165 111.7 A   14?  59.24 104.4   60 158 110  86
   2024 07 18 03:50  23 53 42.51    +12 19 39.1   109758 1.0165 111.6 N   14?  58.85 104.9   60 163 110  86
   2024 07 18 04:00  23 54 21.17    +12 17 05.4   109969 1.0165 111.5 N   14?  58.54 105.3   61 167 110  86
   2024 07 18 04:10  23 54 59.55    +12 14 27.6   110180 1.0165 111.4 N   14?  58.29 105.8   61 172 111  86
   2024 07 18 04:20  23 55 37.69    +12 11 45.9   110389 1.0165 111.3 N   14?  58.12 106.3   61 177 111  86
   2024 07 18 04:30  23 56 15.65    +12 09 00.2   110598 1.0165 111.2 Ct  14?  58.02 106.7   61 182 111  86
   2024 07 18 04:40  23 56 53.48    +12 06 10.7   110806 1.0165 111.1 C   14?  57.98 107.1   61 186 111  87
   2024 07 18 04:50  23 57 31.22    +12 03 17.3   111014 1.0165 111.0 C   14?  58.01 107.5   60 191 111  87
   ................
   2024 07 19 01:10  02 45 55.84    +00 49 47.2    73643 1.0161  77.6  m  12? 250.85 108.9    0  88 130  92
   2024 07 19 01:20  02 48 36.07    +00 36 02.3    72458 1.0161  77.0  m  12? 257.24 109.1    1  90 130  92
   2024 07 19 01:30  02 51 20.21    +00 21 45.0    71256 1.0161  76.5  m  12? 264.09 109.4    2  91 130  92
   2024 07 19 01:40  02 54 08.57    +00 06 53.0    70039 1.0161  75.9  m  12? 271.47 109.6    3  93 131  92
   2024 07 19 01:50  02 57 01.46    -00 08 35.9    68806 1.0161  75.4  m  12? 279.41 109.9    5  94 131  92
   2024 07 19 02:00  02 59 59.26    -00 24 44.3    67557 1.0161  74.8  m  12? 287.98 110.1    6  95 131  92
   2024 07 19 02:10  03 03 02.36    -00 41 35.0    66292 1.0161  74.2  m  12? 297.24 110.4    7  97 132  92
   2024 07 19 02:20  03 06 11.20    -00 59 11.1    65011 1.0161  73.6  m  12? 307.26 110.6    8  98 132  92
   2024 07 19 02:30  03 09 26.27    -01 17 35.9    63713 1.0161  73.0     12? 318.12 110.9    9  99 132  92
   2024 07 19 02:40  03 12 48.12    -01 36 53.1    62399 1.0161  72.3     12? 329.92 111.1   10 101 133  92
   2024 07 19 02:50  03 16 17.36    -01 57 06.7    61067 1.0161  71.6     12? 342.76 111.3   11 102 133  92
   2024 07 19 03:00  03 19 54.66    -02 18 21.4    59719 1.0161  70.9     12? 356.77 111.5   12 104 133  92
   2024 07 19 03:10  03 23 40.79    -02 40 42.1    58353 1.0161  70.2 A   12? 372.08 111.7   13 105 134  92
   2024 07 19 03:20  03 27 36.61    -03 04 14.5    56970 1.0161  69.5 A   12? 388.86 111.9   14 106 134  92
   2024 07 19 03:30  03 31 43.09    -03 29 04.7    55568 1.0161  68.7 A   12? 407.29 112.1   14 108 134  92
   2024 07 19 03:40  03 36 01.33    -03 55 19.7    54149 1.0161  67.9 A   12? 427.60 112.3   15 109 135  93
   2024 07 19 03:50  03 40 32.61    -04 23 07.5    52711 1.0161  67.1 N   12? 450.04 112.5   16 110 135  93
   2024 07 19 04:00  03 45 18.35    -04 52 36.8    51255 1.0161  66.2 N   12? 474.91 112.6   16 112 135  93
   2024 07 19 04:10  03 50 20.24    -05 23 57.6    49779 1.0161  65.4 N   12? 502.57 112.8   17 113 136  93
   2024 07 19 04:20  03 55 40.18    -05 57 21.4    48285 1.0161  64.4 N   12? 533.45 112.9   17 114 136  93
   2024 07 19 04:30  04 01 20.42    -06 33 00.9    46771 1.0160  63.4 C   12? 568.05 113.0   18 116 136  93
   2024 07 19 04:40  04 07 23.59    -07 11 10.8    45238 1.0160  62.4 C   12? 607.00 113.1   18 117 136  93
   2024 07 19 04:50  04 13 52.80    -07 52 07.9    43686 1.0160  61.3 C   12? 651.04 113.1   18 118 137  93
   ................
   2024 07 19 21:00  23 21 13.06    +13 00 57.9   101006 1.0165 119.6 Am  14? 123.01  91.3    0  72  81  96
   2024 07 19 21:10  23 22 36.31    +13 00 29.3   101397 1.0165 119.3 Am  14? 120.35  91.4    2  74  81  96
   2024 07 19 21:20  23 23 57.74    +12 59 58.7   101776 1.0165 119.1 Am  14? 117.73  91.5    3  75  81  96
   2024 07 19 21:30  23 25 17.38    +12 59 26.2   102144 1.0165 118.8 Am  14? 115.16  91.6    5  77  81  96
   2024 07 19 21:40  23 26 35.28    +12 58 51.6   102500 1.0165 118.6  m  14? 112.63  91.8    6  78  82  96
   2024 07 19 21:50  23 27 51.45    +12 58 15.0   102846 1.0165 118.3  m  14? 110.15  91.9    8  79  82  96
   2024 07 19 22:00  23 29 05.93    +12 57 36.3   103181 1.0165 118.1  m  14? 107.71  92.1   10  81  82  96
   2024 07 19 22:10  23 30 18.75    +12 56 55.3   103506 1.0165 117.8  m  14? 105.32  92.3   11  82  82  96
   2024 07 19 22:20  23 31 29.93    +12 56 12.1   103822 1.0165 117.6  m  14? 102.98  92.4   13  84  82  96
   2024 07 19 22:30  23 32 39.52    +12 55 26.5   104128 1.0165 117.4  m  14? 100.68  92.6   14  85  83  96
   2024 07 19 22:40  23 33 47.54    +12 54 38.5   104425 1.0165 117.2  m  14?  98.43  92.8   16  86  83  96
   2024 07 19 22:50  23 34 54.03    +12 53 48.1   104713 1.0165 116.9  m  14?  96.23  93.1   18  88  83  96
   2024 07 19 23:00  23 35 59.00    +12 52 55.0   104993 1.0165 116.7  m  14?  94.07  93.3   20  89  83  96
   2024 07 19 23:10  23 37 02.51    +12 51 59.4   105265 1.0165 116.5  m  14?  91.97  93.5   21  91  83  96
   2024 07 19 23:20  23 38 04.57    +12 51 01.0   105530 1.0165 116.3  m  14?  89.91  93.8   23  92  83  96
   2024 07 19 23:30  23 39 05.23    +12 49 59.8   105787 1.0165 116.1  m  14?  87.91  94.1   25  94  83  96
   2024 07 19 23:40  23 40 04.51    +12 48 55.7   106037 1.0165 115.9  m  14?  85.96  94.3   26  96  84  96
   2024 07 19 23:50  23 41 02.45    +12 47 48.7   106281 1.0165 115.7  m  14?  84.06  94.6   28  97  84  97
   2024 07 20 00:00  23 41 59.09    +12 46 38.6   106518 1.0165 115.6  m  14?  82.22  95.0   30  99  84  97
   2024 07 20 00:10  23 42 54.46    +12 45 25.5   106750 1.0165 115.4  m  14?  80.43  95.3   31 100  84  97
   2024 07 20 00:20  23 43 48.59    +12 44 09.1   106976 1.0165 115.2  m  14?  78.70  95.7   33 102  84  97
   2024 07 20 00:30  23 44 41.54    +12 42 49.5   107196 1.0164 115.0  m  14?  77.03  96.0   35 104  84  97
   2024 07 20 00:40  23 45 33.32    +12 41 26.6   107412 1.0164 114.9  m  14?  75.41  96.4   36 106  84  97
   2024 07 20 00:50  23 46 23.98    +12 40 00.3   107623 1.0164 114.7  m  14?  73.86  96.8   38 108  84  97
   2024 07 20 01:00  23 47 13.57    +12 38 30.5   107830 1.0164 114.6  m  14?  72.37  97.2   40 110  84  97
   2024 07 20 01:10  23 48 02.11    +12 36 57.2   108032 1.0164 114.4  m  14?  70.94  97.7   41 112  85  97
   2024 07 20 01:20  23 48 49.66    +12 35 20.3   108231 1.0164 114.3  m  14?  69.58  98.1   43 114  85  97
   2024 07 20 01:30  23 49 36.25    +12 33 39.8   108427 1.0164 114.1  m  14?  68.29  98.6   44 116  85  97
   2024 07 20 01:40  23 50 21.92    +12 31 55.5   108619 1.0164 114.0  m  14?  67.06  99.1   46 119  85  97
   2024 07 20 01:50  23 51 06.72    +12 30 07.6   108808 1.0164 113.8  m  14?  65.89  99.6   47 121  85  97
   2024 07 20 02:00  23 51 50.68    +12 28 15.8   108994 1.0164 113.7  m  14?  64.80 100.0   49 124  85  97
   2024 07 20 02:10  23 52 33.86    +12 26 20.2   109178 1.0164 113.6  m  14?  63.78 100.5   50 127  85  97
   2024 07 20 02:20  23 53 16.30    +12 24 20.7   109359 1.0164 113.5  m  14?  62.82 101.1   52 130  85  97
   2024 07 20 02:30  23 53 58.05    +12 22 17.3   109539 1.0164 113.3  m  14?  61.94 101.6   53 133  85  97
   2024 07 20 02:40  23 54 39.14    +12 20 10.0   109716 1.0164 113.2  m  14?  61.13 102.1   54 136  85  97
   2024 07 20 02:50  23 55 19.63    +12 17 58.7   109892 1.0164 113.1  m  14?  60.39 102.7   55 139  85  97
   2024 07 20 03:00  23 55 59.55    +12 15 43.5   110066 1.0164 113.0  m  14?  59.72 103.2   56 143  85  97
   2024 07 20 03:10  23 56 38.96    +12 13 24.2   110239 1.0164 112.9 Am  14?  59.12 103.7   57 147  85  97
   2024 07 20 03:20  23 57 17.91    +12 11 01.0   110410 1.0164 112.7 Am  14?  58.60 104.3   58 151  85  97
   2024 07 20 03:30  23 57 56.44    +12 08 33.8   110581 1.0164 112.6 A   14?  58.15 104.8   59 155  85  97
   2024 07 20 03:40  23 58 34.59    +12 06 02.6   110750 1.0164 112.5 A   14?  57.76 105.3   60 159  85  97
   2024 07 20 03:50  23 59 12.42    +12 03 27.4   110919 1.0164 112.4 N   14?  57.45 105.8   60 164  85  97
   2024 07 20 04:00  23 59 49.98    +12 00 48.3   111087 1.0164 112.3 N   14?  57.21 106.3   60 169  85  97
   2024 07 20 04:10  00 00 27.30    +11 58 05.1   111254 1.0164 112.2 N   14?  57.04 106.7   61 173  85  97
   2024 07 20 04:20  00 01 04.43    +11 55 18.1   111420 1.0164 112.1 Ne  14?  56.94 107.2   61 178  85  97
   2024 07 20 04:30  00 01 41.43    +11 52 27.2   111586 1.0164 112.0 Ct  14?  56.91 107.6   61 183  85  97
   2024 07 20 04:40  00 02 18.34    +11 49 32.4   111751 1.0164 111.9 C   14?  56.94 108.0   60 188  85  97
   2024 07 20 04:50  00 02 55.20    +11 46 33.7   111915 1.0164 111.8 C   14?  57.04 108.4   60 192  85  97
   ................
   2024 07 21 01:30  03 07 57.96    -01 07 48.2    65403 1.0160  75.0  m  12? 320.70 109.8    0  91 108  99
   2024 07 21 01:40  03 11 22.62    -01 26 18.2    64093 1.0160  74.3  m  12? 332.12 110.0    1  92 108  99
   2024 07 21 01:50  03 14 54.48    -01 45 41.0    62766 1.0159  73.6  m  12? 344.52 110.3    2  94 109  99
   2024 07 21 02:00  03 18 34.17    -02 06 00.7    61422 1.0159  72.9  m  12? 358.02 110.5    3  95 109  99
   2024 07 21 02:10  03 22 22.43    -02 27 22.0    60059 1.0159  72.2  m  12? 372.75 110.7    3  96 110  99
   2024 07 21 02:20  03 26 20.06    -02 49 49.8    58679 1.0159  71.4  m  12? 388.84 110.9    4  97 110  99
   2024 07 21 02:30  03 30 27.97    -03 13 30.0    57280 1.0159  70.6  m  12? 406.48 111.1    5  99 111  99
   2024 07 21 02:40  03 34 47.20    -03 38 28.7    55862 1.0159  69.8  m  12? 425.87 111.3    6 100 112  99
   2024 07 21 02:50  03 39 18.92    -04 04 53.1    54426 1.0159  69.0  m  12? 447.24 111.4    7 101 112  99
   2024 07 21 03:00  03 44 04.49    -04 32 51.1    52971 1.0159  68.1  m  12? 470.86 111.6    7 102 113  99
   2024 07 21 03:10  03 49 05.44    -05 02 31.7    51498 1.0159  67.1 Am  12? 497.05 111.7    8 104 114  99
   2024 07 21 03:20  03 54 23.54    -05 34 04.8    50005 1.0159  66.2 Am  12? 526.20 111.8    8 105 115  99
   2024 07 21 03:30  04 00 00.87    -06 07 41.9    48493 1.0159  65.2 Am  12? 558.77 111.9    9 106 115  99
   2024 07 21 03:40  04 05 59.82    -06 43 35.9    46962 1.0159  64.1 Am  12? 595.29 112.0    9 107 116  99
   2024 07 21 03:50  04 12 23.21    -07 22 01.3    45412 1.0159  63.0 Nm  12? 636.42 112.1    9 108 117  99
   2024 07 21 04:00  04 19 14.37    -08 03 14.7    43843 1.0159  61.8 Nm  12? 682.96 112.1   10 109 118  99
   2024 07 21 04:10  04 26 37.27    -08 47 34.8    42256 1.0159  60.6 Ne  12? 735.87 112.1    9 110 119  99
   2024 07 21 04:20  04 34 36.63    -09 35 23.1    40652 1.0159  59.3 Nm  12? 796.33 112.0    9 111 120  99
   2024 07 21 04:30  04 43 18.17    -10 27 03.4    39032 1.0159  57.9 Cm  12? 865.81 111.9    9 112 121  99
   2024 07 21 04:40  04 52 48.86    -11 23 02.5    37397 1.0159  56.5 C   12? 946.11 111.8    8 113 122  99
   2024 07 21 04:50  05 03 17.21    -12 23 49.8    35749 1.0159  55.0 C   11? 1039.4 111.5    8 114 123  99
   ................
   2024 07 21 21:00  23 28 15.13    +12 49 59.3   103979 1.0163 120.1 Am  14? 116.50  91.9    0  73  55  99
   2024 07 21 21:10  23 29 33.95    +12 49 19.4   104312 1.0163 119.8 Am  14? 114.08  92.0    2  74  55  99
   2024 07 21 21:20  23 30 51.11    +12 48 38.0   104634 1.0163 119.6 Am  14? 111.69  92.1    3  76  56  99
   2024 07 21 21:30  23 32 06.63    +12 47 54.8   104945 1.0163 119.3 Am  14? 109.34  92.3    5  77  56  99
   2024 07 21 21:40  23 33 20.56    +12 47 09.9   105245 1.0163 119.1  m  14? 107.02  92.4    6  78  56  99
   2024 07 21 21:50  23 34 32.90    +12 46 23.2   105535 1.0163 118.9  m  14? 104.74  92.6    8  80  56  99
   2024 07 21 22:00  23 35 43.69    +12 45 34.6   105815 1.0163 118.6  m  14? 102.50  92.8   10  81  56  99
   2024 07 21 22:10  23 36 52.94    +12 44 44.0   106086 1.0163 118.4  m  14? 100.30  92.9   11  83  56  99
   2024 07 21 22:20  23 38 00.69    +12 43 51.3   106347 1.0163 118.2  m  14?  98.14  93.1   13  84  56  99
   2024 07 21 22:30  23 39 06.97    +12 42 56.5   106599 1.0163 118.0  m  14?  96.02  93.3   15  85  56  99
   2024 07 21 22:40  23 40 11.79    +12 41 59.4   106843 1.0163 117.8  m  14?  93.93  93.5   16  87  57  99
   2024 07 21 22:50  23 41 15.18    +12 41 00.0   107078 1.0163 117.6  m  14?  91.89  93.8   18  88  57  99
   2024 07 21 23:00  23 42 17.18    +12 39 58.3   107306 1.0163 117.4  m  14?  89.90  94.0   20  90  57  99
   2024 07 21 23:10  23 43 17.80    +12 38 54.0   107526 1.0163 117.2  m  14?  87.94  94.3   21  91  57  99
   2024 07 21 23:20  23 44 17.09    +12 37 47.2   107739 1.0163 117.0  m  14?  86.04  94.5   23  93  57  99
   2024 07 21 23:30  23 45 15.06    +12 36 37.7   107945 1.0163 116.8  m  14?  84.17  94.8   25  94  57  99
   2024 07 21 23:40  23 46 11.76    +12 35 25.5   108144 1.0163 116.6  m  14?  82.36  95.1   26  96  57  99
   2024 07 21 23:50  23 47 07.20    +12 34 10.4   108338 1.0163 116.4  m  14?  80.60  95.4   28  98  57  99
   2024 07 22 00:00  23 48 01.43    +12 32 52.5   108525 1.0163 116.3  m  14?  78.88  95.8   30  99  57  99
   2024 07 22 00:10  23 48 54.47    +12 31 31.5   108707 1.0163 116.1  m  14?  77.22  96.1   32 101  58  99
   2024 07 22 00:20  23 49 46.36    +12 30 07.5   108884 1.0163 115.9  m  14?  75.61  96.5   33 103  58  99
   2024 07 22 00:30  23 50 37.14    +12 28 40.4   109056 1.0163 115.8  m  14?  74.05  96.9   35 105  58  99
   2024 07 22 00:40  23 51 26.83    +12 27 10.0   109223 1.0163 115.6  m  14?  72.56  97.3   37 106  58  99
   2024 07 22 00:50  23 52 15.48    +12 25 36.3   109386 1.0163 115.5  m  14?  71.12  97.7   38 108  58  99
   2024 07 22 01:00  23 53 03.11    +12 23 59.2   109545 1.0163 115.3  m  14?  69.73  98.1   40 110  58  99
   2024 07 22 01:10  23 53 49.78    +12 22 18.7   109700 1.0163 115.2  m  14?  68.41  98.6   41 113  58  99
   2024 07 22 01:20  23 54 35.52    +12 20 34.7   109852 1.0163 115.0  m  14?  67.15  99.0   43 115  58  99
   2024 07 22 01:30  23 55 20.36    +12 18 47.1   110001 1.0163 114.9  m  14?  65.96  99.5   45 117  58  99
   2024 07 22 01:40  23 56 04.35    +12 16 55.9   110146 1.0163 114.8  m  14?  64.82 100.0   46 119  58  99
   2024 07 22 01:50  23 56 47.53    +12 15 01.0   110289 1.0163 114.6  m  14?  63.76 100.5   48 122  58  99
   2024 07 22 02:00  23 57 29.93    +12 13 02.4   110430 1.0163 114.5  m  14?  62.76 101.0   49 125  58  99
   2024 07 22 02:10  23 58 11.61    +12 11 00.0   110568 1.0163 114.4  m  14?  61.82 101.5   50 128  58  99
   2024 07 22 02:20  23 58 52.60    +12 08 53.8   110704 1.0163 114.2  m  14?  60.96 102.1   52 130  58  99
   2024 07 22 02:30  23 59 32.95    +12 06 43.7   110839 1.0163 114.1  m  14?  60.16 102.6   53 134  58  99
   2024 07 22 02:40  00 00 12.71    +12 04 29.8   110971 1.0163 114.0  m  14?  59.43 103.1   54 137  58  99
   2024 07 22 02:50  00 00 51.91    +12 02 11.9   111103 1.0163 113.9  m  14?  58.77 103.7   55 140  58  99
   2024 07 22 03:00  00 01 30.60    +11 59 50.2   111233 1.0163 113.8  m  14?  58.19 104.2   56 144  58  99
   2024 07 22 03:10  00 02 08.83    +11 57 24.5   111361 1.0163 113.7 Am  14?  57.67 104.8   57 148  58  99
   2024 07 22 03:20  00 02 46.64    +11 54 54.8   111489 1.0163 113.6 Am  14?  57.22 105.3   58 152  58  99
   2024 07 22 03:30  00 03 24.08    +11 52 21.1   111616 1.0163 113.5 Am  14?  56.84 105.8   59 156  58  99
   2024 07 22 03:40  00 04 01.19    +11 49 43.5   111742 1.0163 113.4 Am  14?  56.53 106.3   59 161  59  99
   2024 07 22 03:50  00 04 38.02    +11 47 02.0   111867 1.0163 113.2 Am  14?  56.30 106.8   60 165  59  99
   2024 07 22 04:00  00 05 14.62    +11 44 16.5   111992 1.0163 113.1 Nm  14?  56.13 107.3   60 170  59  99
   2024 07 22 04:10  00 05 51.03    +11 41 27.1   112116 1.0163 113.0 Nm  14?  56.02 107.7   60 175  59  99
   2024 07 22 04:20  00 06 27.31    +11 38 33.7   112239 1.0163 112.9 Ne  14?  55.99 108.2   60 179  59  99
   2024 07 22 04:30  00 07 03.48    +11 35 36.5   112362 1.0163 112.8 Ct  14?  56.02 108.6   60 184  59  99
   2024 07 22 04:40  00 07 39.61    +11 32 35.4   112485 1.0163 112.7 Cm  14?  56.12 109.0   60 189  59  99
   2024 07 22 04:50  00 08 15.74    +11 29 30.5   112607 1.0162 112.6 Cm  14?  56.28 109.3   60 193  59  99
   ................
   2024 07 23 02:10  03 46 27.84    -04 42 48.1    53328 1.0158  69.3  m  12? 488.70 110.8    0  95  88  96
   2024 07 23 02:20  03 51 41.81    -05 12 34.1    51841 1.0158  68.3  m  12? 515.99 111.0    0  96  89  96
   2024 07 23 02:30  03 57 13.80    -05 44 12.8    50335 1.0158  67.3  m  12? 546.37 111.1    0  97  90  96
   2024 07 23 02:40  04 03 05.97    -06 17 55.4    48810 1.0158  66.2  m  12? 580.32 111.2    0  99  92  96
   2024 07 23 02:50  04 09 20.87    -06 53 54.8    47265 1.0158  65.0  m  12? 618.39 111.2    1 100  93  96
   2024 07 23 03:00  04 16 01.46    -07 32 25.3    45702 1.0158  63.9  m  12? 661.29 111.3    1 101  94  96
   2024 07 23 03:10  04 23 11.24    -08 13 43.1    44120 1.0158  62.6 Am  12? 709.84 111.3    1 102  96  96
   2024 07 23 03:20  04 30 54.40    -08 58 06.5    42520 1.0158  61.3 Ae  12? 765.04 111.2    1 103  97  96
   2024 07 23 03:30  04 39 15.92    -09 45 55.9    40904 1.0158  59.9 Am  12? 828.13 111.2    1 103  99  96
   2024 07 23 03:40  04 48 21.83    -10 37 34.1    39272 1.0158  58.4 Am  12? 900.63 111.0    0 104 100  96
   2024 07 23 03:50  04 58 19.46    -11 33 26.2    37627 1.0158  56.8 Am  12? 984.38 110.8    0 105 102  95
   ................
   2024 07 23 21:00  23 35 02.30    +12 38 56.4   106637 1.0162 120.6 A   14? 110.98  92.6    0  73  30  91
   2024 07 23 21:10  23 36 17.33    +12 38 05.8   106916 1.0162 120.4 A   14? 108.75  92.7    2  74  30  91
   2024 07 23 21:20  23 37 30.85    +12 37 13.8   107183 1.0162 120.2 Am  14? 106.55  92.8    3  76  30  91
   2024 07 23 21:30  23 38 42.86    +12 36 20.4   107440 1.0162 119.9 Am  14? 104.39  93.0    5  77  30  91
   2024 07 23 21:40  23 39 53.38    +12 35 25.3   107687 1.0162 119.7  m  14? 102.25  93.1    6  79  30  91
   2024 07 23 21:50  23 41 02.44    +12 34 28.6   107924 1.0162 119.5  m  14? 100.14  93.3    8  80  30  91
   2024 07 23 22:00  23 42 10.06    +12 33 30.2   108152 1.0162 119.2  m  14?  98.06  93.5   10  82  30  91
   2024 07 23 22:10  23 43 16.26    +12 32 29.9   108370 1.0162 119.0  m  14?  96.02  93.6   11  83  30  91
   2024 07 23 22:20  23 44 21.06    +12 31 27.7   108580 1.0162 118.8  m  14?  94.01  93.8   13  84  30  91
   2024 07 23 22:30  23 45 24.48    +12 30 23.5   108781 1.0162 118.6  m  14?  92.04  94.1   15  86  30  91
   2024 07 23 22:40  23 46 26.54    +12 29 17.2   108973 1.0162 118.4  m  14?  90.10  94.3   16  87  30  91
   2024 07 23 22:50  23 47 27.28    +12 28 08.7   109159 1.0162 118.2  m  14?  88.20  94.5   18  89  30  91
   2024 07 23 23:00  23 48 26.71    +12 26 58.0   109336 1.0162 118.0  m  14?  86.33  94.8   20  90  31  91
   2024 07 23 23:10  23 49 24.85    +12 25 44.9   109506 1.0162 117.8  m  14?  84.51  95.0   22  92  31  91
   2024 07 23 23:20  23 50 21.74    +12 24 29.3   109670 1.0162 117.7  m  14?  82.73  95.3   23  93  31  91
   2024 07 23 23:30  23 51 17.41    +12 23 11.1   109827 1.0162 117.5  m  14?  80.99  95.6   25  95  31  91
   2024 07 23 23:40  23 52 11.87    +12 21 50.3   109978 1.0162 117.3  m  14?  79.29  95.9   27  97  31  90
   2024 07 23 23:50  23 53 05.16    +12 20 26.8   110123 1.0162 117.1  m  14?  77.64  96.3   28  98  31  90
   2024 07 24 00:00  23 53 57.31    +12 19 00.4   110263 1.0162 117.0  m  14?  76.04  96.6   30 100  31  90
   2024 07 24 00:10  23 54 48.34    +12 17 31.2   110398 1.0162 116.8  m  14?  74.49  97.0   32 102  31  90
   2024 07 24 00:20  23 55 38.30    +12 15 58.9   110527 1.0162 116.7  m  14?  72.98  97.4   33 103  31  90
   2024 07 24 00:30  23 56 27.20    +12 14 23.6   110652 1.0162 116.5  m  14?  71.53  97.8   35 105  31  90
   2024 07 24 00:40  23 57 15.09    +12 12 45.1   110773 1.0162 116.4  m  14?  70.14  98.2   37 107  31  90
   2024 07 24 00:50  23 58 02.00    +12 11 03.4   110890 1.0162 116.2  m  14?  68.79  98.6   38 109  31  90
   2024 07 24 01:00  23 58 47.97    +12 09 18.3   111003 1.0162 116.1  m  14?  67.51  99.1   40 111  31  90
   2024 07 24 01:10  23 59 33.02    +12 07 29.9   111113 1.0161 115.9  m  14?  66.28  99.6   42 113  31  90
   2024 07 24 01:20  00 00 17.20    +12 05 38.0   111219 1.0161 115.8  m  14?  65.11 100.0   43 116  31  90
   2024 07 24 01:30  00 01 00.54    +12 03 42.6   111323 1.0161 115.7  m  14?  64.01 100.5   45 118  31  90
   2024 07 24 01:40  00 01 43.09    +12 01 43.7   111423 1.0161 115.5  m  14?  62.96 101.0   46 120  31  90
   2024 07 24 01:50  00 02 24.88    +11 59 41.1   111522 1.0161 115.4  m  14?  61.98 101.5   48 123  31  90
   2024 07 24 02:00  00 03 05.96    +11 57 34.8   111618 1.0161 115.3  m  14?  61.06 102.0   49 126  31  90
   2024 07 24 02:10  00 03 46.35    +11 55 24.8   111712 1.0161 115.2  m  14?  60.21 102.6   50 128  31  90
   2024 07 24 02:20  00 04 26.11    +11 53 11.0   111805 1.0161 115.1  m  14?  59.43 103.1   52 131  31  90
   2024 07 24 02:30  00 05 05.28    +11 50 53.4   111896 1.0161 114.9  m  14?  58.71 103.7   53 135  31  90
   2024 07 24 02:40  00 05 43.91    +11 48 31.9   111985 1.0161 114.8  m  14?  58.06 104.2   54 138  31  90
   2024 07 24 02:50  00 06 22.02    +11 46 06.6   112073 1.0161 114.7  m  14?  57.48 104.8   55 142  31  90
   2024 07 24 03:00  00 06 59.67    +11 43 37.3   112160 1.0161 114.6  m  14?  56.96 105.3   56 145  31  90
   2024 07 24 03:10  00 07 36.91    +11 41 04.2   112246 1.0161 114.5 Am  14?  56.52 105.9   57 149  31  90
   2024 07 24 03:20  00 08 13.77    +11 38 27.1   112331 1.0161 114.4 Am  14?  56.14 106.4   58 153  31  90
   2024 07 24 03:30  00 08 50.30    +11 35 46.1   112415 1.0161 114.3 Am  14?  55.84 106.9   59 158  31  90
   2024 07 24 03:40  00 09 26.55    +11 33 01.1   112499 1.0161 114.2 Am  14?  55.60 107.4   59 162  31  90
   2024 07 24 03:50  00 10 02.57    +11 30 12.1   112582 1.0161 114.1 Am  14?  55.43 107.9   60 167  31  90
   2024 07 24 04:00  00 10 38.39    +11 27 19.3   112665 1.0161 114.0 Nm  14?  55.32 108.4   60 171  31  90
   2024 07 24 04:10  00 11 14.07    +11 24 22.5   112747 1.0161 113.9 Nm  14?  55.29 108.8   60 176  31  90
   2024 07 24 04:20  00 11 49.65    +11 21 21.8   112828 1.0161 113.8 Nt  14?  55.31 109.2   60 181  31  90
   2024 07 24 04:30  00 12 25.17    +11 18 17.2   112910 1.0161 113.7 Nm  14?  55.41 109.6   60 185  31  90
   2024 07 24 04:40  00 13 00.68    +11 15 08.8   112991 1.0161 113.6 Cm  14?  55.57 110.0   60 190  31  89
   2024 07 24 04:50  00 13 36.23    +11 11 56.5   113071 1.0161 113.5 Cm  14?  55.79 110.3   59 194  31  89
   ................
   2024 07 25 21:00  23 41 33.22    +12 27 12.6   108955 1.0160 121.2 A   14? 106.45  93.2    0  73  14  74
   2024 07 25 21:10  23 42 45.12    +12 26 12.0   109182 1.0160 121.0 A   14? 104.38  93.3    2  75  14  74
   2024 07 25 21:20  23 43 55.60    +12 25 10.2   109399 1.0160 120.8 A   14? 102.34  93.5    3  76  14  74
   2024 07 25 21:30  23 45 04.68    +12 24 07.1   109605 1.0160 120.5 A   14? 100.33  93.6    5  78  14  74
   2024 07 25 21:40  23 46 12.38    +12 23 02.4   109801 1.0160 120.3     14?  98.33  93.8    7  79  14  74
   2024 07 25 21:50  23 47 18.72    +12 21 56.3   109988 1.0160 120.1     14?  96.37  94.0    8  81  14  74
   2024 07 25 22:00  23 48 23.71    +12 20 48.5   110166 1.0160 119.9     14?  94.43  94.2   10  82  13  74
   2024 07 25 22:10  23 49 27.36    +12 19 39.0   110335 1.0160 119.7  m  14?  92.52  94.3   12  83  13  74
   2024 07 25 22:20  23 50 29.71    +12 18 27.7   110496 1.0160 119.5  m  14?  90.64  94.6   13  85  13  73
   2024 07 25 22:30  23 51 30.76    +12 17 14.5   110648 1.0160 119.3  m  14?  88.79  94.8   15  86  13  73
   2024 07 25 22:40  23 52 30.55    +12 15 59.3   110792 1.0160 119.1  m  14?  86.97  95.0   17  88  13  73
   2024 07 25 22:50  23 53 29.08    +12 14 42.0   110930 1.0160 118.9  m  14?  85.19  95.3   18  89  13  73
   2024 07 25 23:00  23 54 26.38    +12 13 22.4   111060 1.0160 118.7  m  14?  83.44  95.5   20  91  13  73
   2024 07 25 23:10  23 55 22.48    +12 12 00.6   111183 1.0160 118.6  m  14?  81.73  95.8   22  92  12  73
   2024 07 25 23:20  23 56 17.39    +12 10 36.4   111299 1.0160 118.4  m  14?  80.05  96.1   23  94  12  73
   2024 07 25 23:30  23 57 11.15    +12 09 09.7   111410 1.0160 118.2  m  14?  78.42  96.4   25  95  12  73
   2024 07 25 23:40  23 58 03.78    +12 07 40.4   111515 1.0160 118.1  m  14?  76.83  96.8   27  97  12  73
   2024 07 25 23:50  23 58 55.30    +12 06 08.4   111614 1.0160 117.9  m  14?  75.28  97.1   29  99  12  73
   2024 07 26 00:00  23 59 45.74    +12 04 33.7   111708 1.0160 117.7  m  14?  73.77  97.5   30 100  12  73
   2024 07 26 00:10  00 00 35.13    +12 02 56.1   111797 1.0160 117.6  m  14?  72.32  97.8   32 102  12  73
   2024 07 26 00:20  00 01 23.51    +12 01 15.6   111881 1.0160 117.4  m  14?  70.91  98.3   34 104  12  73
   2024 07 26 00:30  00 02 10.89    +11 59 32.0   111962 1.0160 117.3  m  14?  69.55  98.7   35 106  11  73
   2024 07 26 00:40  00 02 57.32    +11 57 45.3   112038 1.0160 117.1  m  14?  68.24  99.1   37 108  11  73
   2024 07 26 00:50  00 03 42.82    +11 55 55.4   112110 1.0160 117.0  m  14?  66.98  99.6   39 110  11  72
   2024 07 26 01:00  00 04 27.44    +11 54 02.3   112179 1.0160 116.9  m  14?  65.79 100.0   40 112  11  72
   2024 07 26 01:10  00 05 11.19    +11 52 05.8   112245 1.0160 116.7  m  14?  64.64 100.5   42 114  11  72
   2024 07 26 01:20  00 05 54.13    +11 50 05.8   112308 1.0160 116.6  m  14?  63.56 101.0   43 116  11  72
   2024 07 26 01:30  00 06 36.28    +11 48 02.4   112368 1.0160 116.5  m  14?  62.53 101.5   45 119  11  72
   2024 07 26 01:40  00 07 17.69    +11 45 55.5   112426 1.0160 116.3  m  14?  61.57 102.0   46 121  11  72
   2024 07 26 01:50  00 07 58.38    +11 43 44.9   112482 1.0160 116.2  m  14?  60.66 102.5   48 124  10  72
   2024 07 26 02:00  00 08 38.41    +11 41 30.7   112535 1.0160 116.1  m  14?  59.82 103.1   49 127  10  72
   2024 07 26 02:10  00 09 17.81    +11 39 12.8   112587 1.0160 116.0  m  14?  59.05 103.6   51 129  10  72
   2024 07 26 02:20  00 09 56.62    +11 36 51.1   112637 1.0160 115.9  m  14?  58.34 104.2   52 133  10  72
   2024 07 26 02:30  00 10 34.88    +11 34 25.7   112686 1.0160 115.8  m  14?  57.69 104.7   53 136  10  72
   2024 07 26 02:40  00 11 12.64    +11 31 56.3   112733 1.0160 115.7  m  14?  57.11 105.3   54 139  10  72
   2024 07 26 02:50  00 11 49.94    +11 29 23.2   112780 1.0160 115.5  m  14?  56.60 105.8   55 143  10  72
   2024 07 26 03:00  00 12 26.81    +11 26 46.1   112825 1.0160 115.4  m  14?  56.16 106.4   56 147  10  72
   2024 07 26 03:10  00 13 03.31    +11 24 05.1   112869 1.0160 115.3  m  14?  55.78 106.9   57 150  10  72
   2024 07 26 03:20  00 13 39.48    +11 21 20.2   112913 1.0160 115.2 Am  14?  55.47 107.4   58 155  10  72
   2024 07 26 03:30  00 14 15.37    +11 18 31.3   112956 1.0159 115.1 Am  14?  55.23 107.9   59 159  10  72
   2024 07 26 03:40  00 14 51.01    +11 15 38.5   112999 1.0159 115.0 Am  14?  55.05 108.4   59 163  10  72
   2024 07 26 03:50  00 15 26.45    +11 12 41.8   113041 1.0159 114.9 Am  14?  54.95 108.9   60 168   9  72
   2024 07 26 04:00  00 16 01.74    +11 09 41.1   113082 1.0159 114.8 Nm  14?  54.90 109.4   60 172   9  71
   2024 07 26 04:10  00 16 36.93    +11 06 36.5   113124 1.0159 114.7 Nm  14?  54.93 109.8   60 177   9  71
   2024 07 26 04:20  00 17 12.05    +11 03 28.0   113165 1.0159 114.6 Nt  14?  55.02 110.2   60 182   9  71
   2024 07 26 04:30  00 17 47.16    +11 00 15.5   113205 1.0159 114.5 Nm  14?  55.17 110.6   60 186   9  71
   2024 07 26 04:40  00 18 22.30    +10 56 59.2   113245 1.0159 114.5 Cm  14?  55.39 110.9   59 191   9  71
   2024 07 26 04:50  00 18 57.51    +10 53 39.1   113285 1.0159 114.4 Cm  14?  55.67 111.2   59 195   9  71
   ................
   2024 07 27 21:00  23 47 45.64    +12 14 18.1   110957 1.0159 121.9 A   14? 102.81  93.8    0  74  31  52
   2024 07 27 21:10  23 48 54.98    +12 13 08.9   111134 1.0159 121.7 A   14? 100.88  93.9    2  75  31  52
   2024 07 27 21:20  23 50 02.99    +12 11 58.6   111302 1.0158 121.5 A   14?  98.97  94.1    4  77  31  52
   2024 07 27 21:30  23 51 09.70    +12 10 47.0   111459 1.0158 121.2     14?  97.08  94.3    5  78  31  52
   2024 07 27 21:40  23 52 15.11    +12 09 34.0   111607 1.0158 121.0     14?  95.21  94.4    7  80  31  52
   2024 07 27 21:50  23 53 19.23    +12 08 19.6   111746 1.0158 120.8     14?  93.37  94.6    8  81  30  52
   2024 07 27 22:00  23 54 22.09    +12 07 03.6   111876 1.0158 120.6     14?  91.55  94.8   10  82  30  52
   2024 07 27 22:10  23 55 23.70    +12 05 45.9   111998 1.0158 120.4     14?  89.75  95.0   12  84  30  52
   2024 07 27 22:20  23 56 24.07    +12 04 26.5   112111 1.0158 120.2     14?  87.98  95.2   14  85  30  51
   2024 07 27 22:30  23 57 23.22    +12 03 05.2   112217 1.0158 120.0     14?  86.24  95.5   15  87  30  51
   2024 07 27 22:40  23 58 21.18    +12 01 42.0   112315 1.0158 119.9     14?  84.53  95.7   17  88  30  51
   2024 07 27 22:50  23 59 17.95    +12 00 16.7   112406 1.0158 119.7     14?  82.85  96.0   19  90  30  51
   2024 07 27 23:00  00 00 13.56    +11 58 49.3   112490 1.0158 119.5  m  14?  81.20  96.2   20  91  29  51
   2024 07 27 23:10  00 01 08.03    +11 57 19.6   112568 1.0158 119.3  m  14?  79.58  96.5   22  93  29  51
   2024 07 27 23:20  00 02 01.38    +11 55 47.5   112639 1.0158 119.2  m  14?  78.00  96.8   24  94  29  51
   2024 07 27 23:30  00 02 53.64    +11 54 13.0   112705 1.0158 119.0  m  14?  76.46  97.2   25  96  29  51
   2024 07 27 23:40  00 03 44.82    +11 52 36.0   112765 1.0158 118.8  m  14?  74.96  97.5   27  98  29  51
   2024 07 27 23:50  00 04 34.96    +11 50 56.2   112820 1.0158 118.7  m  14?  73.50  97.9   29  99  29  51
   2024 07 28 00:00  00 05 24.08    +11 49 13.8   112869 1.0158 118.5  m  14?  72.08  98.3   31 101  29  51
   

Gaia (JPL-ID: -139479)

   Date (UTC) HH:MM   RA              Dec         delta   r     elong SM  mag  '/hr    PA   alt  az moo ill
   ---- -- -- -----  -------------   -----------  ------ ------ ----- --  --- ------ ------ --- --- --- ---
   2024 07 14 00:00  19 58 31.43    -27 16 53.6   0.0095 1.0260 172.0     20?   0.60  47.0   21 169  94  50
   2024 07 14 00:10  19 58 31.75    -27 16 49.3   0.0095 1.0260 172.0     20?   0.62  41.5   21 171  94  50
   2024 07 14 00:20  19 58 32.05    -27 16 44.3   0.0095 1.0260 172.0     20?   0.66  36.9   21 174  94  50
   2024 07 14 00:30  19 58 32.35    -27 16 38.7   0.0095 1.0260 172.0     20?   0.70  33.1   21 176  93  50
   2024 07 14 00:40  19 58 32.63    -27 16 32.6   0.0095 1.0260 172.0     20?   0.75  30.2   21 178  93  50
   2024 07 14 00:50  19 58 32.92    -27 16 25.8   0.0095 1.0260 172.0  t  20?   0.81  28.0   21 181  93  50
   2024 07 14 01:00  19 58 33.20    -27 16 18.4   0.0095 1.0260 172.0     20?   0.86  26.5   21 183  93  50
   2024 07 14 01:10  19 58 33.50    -27 16 10.4   0.0095 1.0260 172.1     20?   0.92  25.4   21 186  93  50
   2024 07 14 01:20  19 58 33.80    -27 16 01.7   0.0095 1.0260 172.1     20?   0.98  24.8   21 188  93  50
   2024 07 14 01:30  19 58 34.12    -27 15 52.5   0.0095 1.0260 172.1     20?   1.05  24.6   21 190  93  50
   2024 07 14 01:40  19 58 34.46    -27 15 42.7   0.0095 1.0260 172.1     20?   1.12  24.7   20 193  93  50
   2024 07 14 01:50  19 58 34.83    -27 15 32.3   0.0095 1.0260 172.1     20?   1.18  25.0   20 195  93  51
   2024 07 14 02:00  19 58 35.22    -27 15 21.3   0.0095 1.0260 172.1     20?   1.25  25.6   19 197  93  51
   2024 07 14 02:10  19 58 35.64    -27 15 09.7   0.0095 1.0260 172.1     20?   1.33  26.3   19 200  93  51
   2024 07 14 02:20  19 58 36.11    -27 14 57.5   0.0095 1.0260 172.1     20?   1.40  27.2   18 202  93  51
   2024 07 14 02:30  19 58 36.61    -27 14 44.8   0.0095 1.0260 172.1     20?   1.47  28.1   17 204  92  51
   2024 07 14 02:40  19 58 37.15    -27 14 31.6   0.0095 1.0260 172.1     20?   1.55  29.2   16 206  92  51
   2024 07 14 02:50  19 58 37.75    -27 14 17.8   0.0095 1.0260 172.1     20?   1.63  30.4   15 208  92  51
   2024 07 14 03:00  19 58 38.40    -27 14 03.5   0.0095 1.0260 172.1 A   20?   1.71  31.6   15 210  92  51
   2024 07 14 03:10  19 58 39.10    -27 13 48.7   0.0095 1.0260 172.1 A   20?   1.79  32.8   14 212  92  51
   2024 07 14 03:20  19 58 39.86    -27 13 33.4   0.0095 1.0260 172.1 A   20?   1.88  34.1   13 214  92  51
   2024 07 14 03:30  19 58 40.69    -27 13 17.6   0.0095 1.0260 172.1 A   20?   1.97  35.4   11 216  92  51
   2024 07 14 03:40  19 58 41.58    -27 13 01.4   0.0095 1.0260 172.1 A   20?   2.06  36.8   10 218  92  51
   2024 07 14 03:50  19 58 42.54    -27 12 44.8   0.0095 1.0260 172.1 N   20?   2.15  38.1    9 220  92  51
   2024 07 14 04:00  19 58 43.57    -27 12 27.7   0.0095 1.0260 172.1 N   20?   2.24  39.4    8 222  92  52
   2024 07 14 04:10  19 58 44.68    -27 12 10.2   0.0095 1.0260 172.1 N   20?   2.34  40.8    6 224  91  52
   2024 07 14 04:20  19 58 45.86    -27 11 52.4   0.0095 1.0260 172.1 N   20?   2.43  42.1    5 226  91  52
   2024 07 14 04:30  19 58 47.13    -27 11 34.2   0.0095 1.0260 172.1 C   20?   2.53  43.4    4 227  91  52
   2024 07 14 04:40  19 58 48.48    -27 11 15.6   0.0095 1.0260 172.1 C   20?   2.63  44.7    2 229  91  52
   ................
   2024 07 14 20:30  20 04 23.29    -26 59 49.8   0.0096 1.0259 171.7 Nr  20?   2.16 103.8    0 126  84  58
   2024 07 14 20:40  20 04 24.81    -26 59 54.9   0.0096 1.0259 171.7 Nm  20?   2.04 103.8    1 128  84  58
   2024 07 14 20:50  20 04 26.25    -26 59 59.7   0.0096 1.0259 171.7 Nm  20?   1.92 103.8    2 129  84  58
   2024 07 14 21:00  20 04 27.60    -27 00 04.2   0.0096 1.0259 171.7 Am  20?   1.80 103.6    4 131  84  58
   2024 07 14 21:10  20 04 28.87    -27 00 08.3   0.0096 1.0259 171.7 Am  20?   1.69 103.4    5 133  84  58
   2024 07 14 21:20  20 04 30.06    -27 00 12.1   0.0096 1.0259 171.7 Am  20?   1.58 103.0    6 135  84  58
   2024 07 14 21:30  20 04 31.17    -27 00 15.5   0.0096 1.0259 171.7 Am  20?   1.47 102.5    8 136  84  58
   2024 07 14 21:40  20 04 32.20    -27 00 18.5   0.0096 1.0259 171.7 Am  20?   1.36 101.7    9 138  84  59
   2024 07 14 21:50  20 04 33.17    -27 00 21.1   0.0096 1.0259 171.7  m  20?   1.26 100.7   10 140  84  59
   2024 07 14 22:00  20 04 34.06    -27 00 23.3   0.0096 1.0259 171.7  m  20?   1.16  99.4   11 142  84  59
   2024 07 14 22:10  20 04 34.88    -27 00 25.0   0.0096 1.0259 171.7  m  20?   1.07  97.8   12 144  84  59
   2024 07 14 22:20  20 04 35.65    -27 00 26.2   0.0096 1.0259 171.7  m  20?   0.98  95.7   14 146  84  59
   2024 07 14 22:30  20 04 36.35    -27 00 26.9   0.0096 1.0259 171.7  m  20?   0.90  93.0   15 148  84  59
   2024 07 14 22:40  20 04 37.00    -27 00 27.2   0.0096 1.0259 171.7  m  20?   0.83  89.8   16 150  84  59
   2024 07 14 22:50  20 04 37.59    -27 00 26.9   0.0096 1.0259 171.7  m  20?   0.76  85.9   16 152  84  59
   2024 07 14 23:00  20 04 38.14    -27 00 26.1   0.0096 1.0259 171.7  m  20?   0.71  81.2   17 155  84  59
   2024 07 14 23:10  20 04 38.64    -27 00 24.8   0.0095 1.0259 171.7  m  20?   0.66  75.7   18 157  83  59
   2024 07 14 23:20  20 04 39.10    -27 00 22.9   0.0095 1.0259 171.7  m  20?   0.63  69.6   19 159  83  59
   2024 07 14 23:30  20 04 39.53    -27 00 20.4   0.0095 1.0259 171.7  m  20?   0.61  63.1   19 161  83  59
   2024 07 14 23:40  20 04 39.92    -27 00 17.4   0.0095 1.0259 171.7  m  20?   0.60  56.4   20 164  83  59
   2024 07 14 23:50  20 04 40.28    -27 00 13.8   0.0095 1.0259 171.8  m  20?   0.61  49.9   20 166  83  59
   2024 07 15 00:00  20 04 40.62    -27 00 09.6   0.0095 1.0259 171.8     20?   0.63  44.0   21 168  83  59
   2024 07 15 00:10  20 04 40.93    -27 00 04.8   0.0095 1.0259 171.8     20?   0.66  38.8   21 171  83  59
   2024 07 15 00:20  20 04 41.23    -26 59 59.4   0.0095 1.0259 171.8     20?   0.69  34.5   21 173  83  59
   2024 07 15 00:30  20 04 41.52    -26 59 53.4   0.0095 1.0259 171.8     20?   0.74  31.0   22 175  83  59
   2024 07 15 00:40  20 04 41.81    -26 59 46.8   0.0095 1.0259 171.8     20?   0.79  28.3   22 178  83  60
   2024 07 15 00:50  20 04 42.08    -26 59 39.6   0.0095 1.0259 171.8  t  20?   0.84  26.3   22 180  83  60
   2024 07 15 01:00  20 04 42.36    -26 59 31.8   0.0095 1.0259 171.8     20?   0.89  24.8   22 183  83  60
   2024 07 15 01:10  20 04 42.65    -26 59 23.4   0.0095 1.0259 171.8     20?   0.95  23.9   21 185  83  60
   2024 07 15 01:20  20 04 42.95    -26 59 14.3   0.0095 1.0259 171.8     20?   1.02  23.4   21 187  83  60
   2024 07 15 01:30  20 04 43.26    -26 59 04.7   0.0095 1.0259 171.8     20?   1.08  23.2   21 190  82  60
   2024 07 15 01:40  20 04 43.59    -26 58 54.5   0.0096 1.0259 171.8     20?   1.14  23.3   21 192  82  60
   2024 07 15 01:50  20 04 43.94    -26 58 43.7   0.0096 1.0259 171.8     20?   1.21  23.7   20 195  82  60
   2024 07 15 02:00  20 04 44.32    -26 58 32.4   0.0096 1.0259 171.8     20?   1.28  24.2   20 197  82  60
   2024 07 15 02:10  20 04 44.73    -26 58 20.4   0.0096 1.0259 171.8     20?   1.35  25.0   19 199  82  60
   2024 07 15 02:20  20 04 45.18    -26 58 07.9   0.0096 1.0259 171.8     20?   1.42  25.8   18 201  82  60
   2024 07 15 02:30  20 04 45.67    -26 57 54.8   0.0096 1.0259 171.8     20?   1.50  26.8   18 204  82  60
   2024 07 15 02:40  20 04 46.19    -26 57 41.2   0.0096 1.0259 171.8     20?   1.57  27.9   17 206  82  60
   2024 07 15 02:50  20 04 46.77    -26 57 27.1   0.0096 1.0259 171.8     20?   1.65  29.1   16 208  82  60
   2024 07 15 03:00  20 04 47.40    -26 57 12.4   0.0096 1.0259 171.8 A   20?   1.73  30.3   15 210  82  60
   2024 07 15 03:10  20 04 48.08    -26 56 57.3   0.0096 1.0259 171.8 A   20?   1.81  31.6   14 212  82  61
   2024 07 15 03:20  20 04 48.82    -26 56 41.7   0.0096 1.0259 171.9 A   20?   1.89  32.9   13 214  81  61
   2024 07 15 03:30  20 04 49.63    -26 56 25.6   0.0096 1.0259 171.9 A   20?   1.98  34.2   12 216  81  61
   2024 07 15 03:40  20 04 50.49    -26 56 09.0   0.0096 1.0259 171.9 A   20?   2.07  35.6   11 218  81  61
   2024 07 15 03:50  20 04 51.43    -26 55 52.0   0.0096 1.0259 171.9 N   20?   2.16  36.9   10 220  81  61
   2024 07 15 04:00  20 04 52.44    -26 55 34.6   0.0096 1.0259 171.9 N   20?   2.25  38.3    8 222  81  61
   2024 07 15 04:10  20 04 53.52    -26 55 16.8   0.0096 1.0259 171.9 N   20?   2.34  39.6    7 224  81  61
   2024 07 15 04:20  20 04 54.68    -26 54 58.6   0.0096 1.0259 171.9 N   20?   2.44  41.0    6 226  81  61
   2024 07 15 04:30  20 04 55.92    -26 54 40.1   0.0096 1.0259 171.9 C   20?   2.53  42.3    4 227  81  61
   2024 07 15 04:40  20 04 57.24    -26 54 21.2   0.0096 1.0259 171.9 C   20?   2.63  43.6    3 229  81  61
   ................
   2024 07 15 20:30  20 10 30.02    -26 41 59.2   0.0096 1.0259 171.4 Nr  20?   2.16 102.1    0 125  74  68
   2024 07 15 20:40  20 10 31.55    -26 42 03.7   0.0096 1.0259 171.4 Nm  20?   2.04 102.0    1 127  74  68
   2024 07 15 20:50  20 10 32.99    -26 42 07.8   0.0096 1.0259 171.4 Nm  20?   1.92 101.9    2 129  73  68
   2024 07 15 21:00  20 10 34.35    -26 42 11.7   0.0096 1.0259 171.4 Am  20?   1.80 101.7    4 130  73  68
   2024 07 15 21:10  20 10 35.62    -26 42 15.2   0.0096 1.0259 171.4 Am  20?   1.69 101.3    5 132  73  68
   2024 07 15 21:20  20 10 36.82    -26 42 18.4   0.0096 1.0259 171.4 Am  20?   1.58 100.8    6 134  73  68
   2024 07 15 21:30  20 10 37.93    -26 42 21.2   0.0096 1.0259 171.4 Am  20?   1.47 100.2    8 136  73  68
   2024 07 15 21:40  20 10 38.98    -26 42 23.7   0.0096 1.0259 171.4 Am  20?   1.36  99.3    9 138  73  68
   2024 07 15 21:50  20 10 39.94    -26 42 25.7   0.0096 1.0259 171.4  m  20?   1.26  98.2   10 140  73  68
   2024 07 15 22:00  20 10 40.84    -26 42 27.3   0.0096 1.0259 171.4  m  20?   1.17  96.7   11 141  73  68
   2024 07 15 22:10  20 10 41.67    -26 42 28.5   0.0096 1.0259 171.4  m  20?   1.07  94.8   13 143  73  68
   2024 07 15 22:20  20 10 42.44    -26 42 29.2   0.0096 1.0259 171.4  m  20?   0.99  92.6   14 145  73  68
   2024 07 15 22:30  20 10 43.15    -26 42 29.4   0.0096 1.0259 171.4  m  20?   0.91  89.7   15 148  73  68
   2024 07 15 22:40  20 10 43.80    -26 42 29.1   0.0096 1.0259 171.4  m  20?   0.84  86.3   16 150  73  68
   2024 07 15 22:50  20 10 44.39    -26 42 28.3   0.0096 1.0259 171.5  m  20?   0.77  82.2   17 152  73  68
   2024 07 15 23:00  20 10 44.94    -26 42 27.0   0.0096 1.0259 171.5  m  20?   0.72  77.3   17 154  73  68
   2024 07 15 23:10  20 10 45.44    -26 42 25.2   0.0096 1.0259 171.5  m  20?   0.68  71.8   18 156  73  68
   2024 07 15 23:20  20 10 45.91    -26 42 22.8   0.0096 1.0259 171.5  m  20?   0.65  65.7   19 158  73  68
   2024 07 15 23:30  20 10 46.33    -26 42 19.9   0.0096 1.0259 171.5  m  20?   0.63  59.3   20 161  73  68
   2024 07 15 23:40  20 10 46.72    -26 42 16.4   0.0096 1.0259 171.5  m  20?   0.63  52.9   20 163  72  68
   2024 07 15 23:50  20 10 47.08    -26 42 12.3   0.0096 1.0259 171.5  m  20?   0.64  46.7   21 165  72  69
   2024 07 16 00:00  20 10 47.41    -26 42 07.7   0.0096 1.0259 171.5  m  20?   0.66  41.2   21 168  72  69
   2024 07 16 00:10  20 10 47.73    -26 42 02.5   0.0096 1.0259 171.5  m  20?   0.69  36.3   21 170  72  69
   2024 07 16 00:20  20 10 48.02    -26 41 56.6   0.0096 1.0259 171.5  m  20?   0.72  32.3   22 172  72  69
   2024 07 16 00:30  20 10 48.31    -26 41 50.2   0.0096 1.0259 171.5     20?   0.77  29.0   22 175  72  69
   2024 07 16 00:40  20 10 48.59    -26 41 43.2   0.0096 1.0259 171.5     20?   0.82  26.5   22 177  72  69
   2024 07 16 00:50  20 10 48.86    -26 41 35.6   0.0096 1.0259 171.5  t  20?   0.87  24.6   22 180  72  69
   2024 07 16 01:00  20 10 49.13    -26 41 27.4   0.0096 1.0259 171.5     20?   0.93  23.3   22 182  72  69
   2024 07 16 01:10  20 10 49.41    -26 41 18.6   0.0096 1.0259 171.5     20?   0.99  22.4   22 185  72  69
   2024 07 16 01:20  20 10 49.70    -26 41 09.2   0.0096 1.0259 171.5     20?   1.05  21.9   22 187  72  69
   2024 07 16 01:30  20 10 50.00    -26 40 59.2   0.0096 1.0259 171.5     20?   1.11  21.8   21 189  72  69
   2024 07 16 01:40  20 10 50.31    -26 40 48.6   0.0096 1.0259 171.5     20?   1.17  21.9   21 192  72  69
   2024 07 16 01:50  20 10 50.65    -26 40 37.5   0.0096 1.0259 171.5     20?   1.24  22.3   21 194  71  69
   2024 07 16 02:00  20 10 51.02    -26 40 25.7   0.0096 1.0259 171.5     20?   1.31  22.9   20 196  71  69
   2024 07 16 02:10  20 10 51.42    -26 40 13.4   0.0096 1.0259 171.5     20?   1.37  23.6   19 199  71  69
   2024 07 16 02:20  20 10 51.85    -26 40 00.6   0.0096 1.0259 171.5     20?   1.44  24.5   19 201  71  69
   2024 07 16 02:30  20 10 52.32    -26 39 47.2   0.0096 1.0259 171.6     20?   1.52  25.5   18 203  71  69
   2024 07 16 02:40  20 10 52.83    -26 39 33.2   0.0096 1.0259 171.6     20?   1.59  26.6   17 205  71  70
   2024 07 16 02:50  20 10 53.39    -26 39 18.8   0.0096 1.0259 171.6     20?   1.67  27.8   16 208  71  70
   2024 07 16 03:00  20 10 53.99    -26 39 03.8   0.0096 1.0259 171.6 A   20?   1.74  29.0   16 210  71  70
   2024 07 16 03:10  20 10 54.65    -26 38 48.3   0.0096 1.0259 171.6 A   20?   1.82  30.3   15 212  71  70
   2024 07 16 03:20  20 10 55.37    -26 38 32.4   0.0096 1.0259 171.6 A   20?   1.91  31.7   13 214  71  70
   2024 07 16 03:30  20 10 56.15    -26 38 15.9   0.0096 1.0259 171.6 A   20?   1.99  33.0   12 216  71  70
   2024 07 16 03:40  20 10 57.00    -26 37 59.0   0.0096 1.0259 171.6 A   20?   2.07  34.4   11 218  71  70
   2024 07 16 03:50  20 10 57.91    -26 37 41.7   0.0096 1.0259 171.6 N   20?   2.16  35.8   10 220  70  70
   2024 07 16 04:00  20 10 58.89    -26 37 24.0   0.0096 1.0259 171.6 N   20?   2.25  37.1    9 222  70  70
   2024 07 16 04:10  20 10 59.94    -26 37 05.9   0.0096 1.0259 171.6 N   20?   2.34  38.5    8 224  70  70
   2024 07 16 04:20  20 11 01.07    -26 36 47.4   0.0096 1.0259 171.6 N   20?   2.44  39.9    6 225  70  70
   2024 07 16 04:30  20 11 02.28    -26 36 28.6   0.0096 1.0259 171.6 C   20?   2.53  41.3    5 227  70  70
   2024 07 16 04:40  20 11 03.57    -26 36 09.4   0.0096 1.0259 171.6 C   20?   2.63  42.6    3 229  70  70
   2024 07 16 04:50  20 11 04.95    -26 35 49.9   0.0096 1.0259 171.6 C   20?   2.73  43.9    2 231  70  70
   ................
   2024 07 16 20:30  20 16 34.09    -26 22 52.9   0.0096 1.0258 171.2 Nr  20?   2.16 100.4    0 125  62  77
   2024 07 16 20:40  20 16 35.62    -26 22 56.7   0.0096 1.0258 171.2 Nm  20?   2.04 100.3    1 127  62  77
   2024 07 16 20:50  20 16 37.07    -26 23 00.3   0.0096 1.0258 171.2 Nm  20?   1.92 100.1    2 128  62  77
   2024 07 16 21:00  20 16 38.43    -26 23 03.6   0.0096 1.0258 171.2 Am  20?   1.80  99.8    3 130  62  77
   2024 07 16 21:10  20 16 39.71    -26 23 06.5   0.0096 1.0258 171.2 Am  20?   1.69  99.3    5 132  62  77
   2024 07 16 21:20  20 16 40.91    -26 23 09.1   0.0096 1.0258 171.2 Am  20?   1.58  98.7    6 133  62  77
   2024 07 16 21:30  20 16 42.03    -26 23 11.3   0.0096 1.0258 171.2 Am  20?   1.47  97.9    8 135  62  77
   2024 07 16 21:40  20 16 43.07    -26 23 13.2   0.0096 1.0258 171.2 Am  20?   1.36  96.9    9 137  62  77
   2024 07 16 21:50  20 16 44.04    -26 23 14.7   0.0096 1.0258 171.2  m  20?   1.26  95.6   10 139  62  77
   2024 07 16 22:00  20 16 44.94    -26 23 15.7   0.0096 1.0258 171.2  m  20?   1.17  94.0   11 141  62  77
   2024 07 16 22:10  20 16 45.78    -26 23 16.4   0.0096 1.0258 171.2  m  20?   1.08  92.0   13 143  62  77
   2024 07 16 22:20  20 16 46.55    -26 23 16.5   0.0096 1.0258 171.2  m  20?   0.99  89.5   14 145  62  77
   2024 07 16 22:30  20 16 47.26    -26 23 16.2   0.0096 1.0258 171.2  m  20?   0.91  86.5   15 147  62  77
   2024 07 16 22:40  20 16 47.91    -26 23 15.4   0.0096 1.0258 171.2  m  20?   0.84  82.9   16 149  62  77
   2024 07 16 22:50  20 16 48.51    -26 23 14.2   0.0096 1.0258 171.2  m  20?   0.78  78.6   17 151  62  77
   2024 07 16 23:00  20 16 49.05    -26 23 12.4   0.0096 1.0258 171.2  m  20?   0.73  73.6   17 153  62  77
   2024 07 16 23:10  20 16 49.56    -26 23 10.0   0.0096 1.0258 171.2  m  20?   0.69  68.1   18 156  62  77
   2024 07 16 23:20  20 16 50.01    -26 23 07.2   0.0096 1.0258 171.2  m  20?   0.67  62.0   19 158  61  77
   2024 07 16 23:30  20 16 50.44    -26 23 03.8   0.0096 1.0258 171.2  m  20?   0.65  55.8   20 160  61  77
   2024 07 16 23:40  20 16 50.82    -26 22 59.9   0.0096 1.0258 171.2  m  20?   0.65  49.6   20 162  61  77
   2024 07 16 23:50  20 16 51.18    -26 22 55.3   0.0096 1.0258 171.2  m  20?   0.67  43.7   21 165  61  77
   2024 07 17 00:00  20 16 51.51    -26 22 50.3   0.0096 1.0258 171.2  m  20?   0.69  38.5   21 167  61  77
   2024 07 17 00:10  20 16 51.82    -26 22 44.6   0.0096 1.0258 171.2  m  20?   0.72  33.9   22 169  61  77
   2024 07 17 00:20  20 16 52.11    -26 22 38.4   0.0096 1.0258 171.2  m  20?   0.76  30.1   22 172  61  77
   2024 07 17 00:30  20 16 52.39    -26 22 31.5   0.0096 1.0258 171.2  m  20?   0.80  27.1   22 174  61  78
   2024 07 17 00:40  20 16 52.66    -26 22 24.1   0.0096 1.0258 171.2  m  20?   0.85  24.7   22 177  61  78
   2024 07 17 00:50  20 16 52.92    -26 22 16.1   0.0096 1.0258 171.2  m  20?   0.90  22.9   22 179  61  78
   2024 07 17 01:00  20 16 53.18    -26 22 07.5   0.0096 1.0258 171.2  t  20?   0.96  21.7   22 182  61  78
   2024 07 17 01:10  20 16 53.45    -26 21 58.3   0.0096 1.0258 171.2     20?   1.01  20.9   22 184  61  78
   2024 07 17 01:20  20 16 53.73    -26 21 48.6   0.0096 1.0258 171.2     20?   1.07  20.4   22 186  61  78
   2024 07 17 01:30  20 16 54.01    -26 21 38.2   0.0096 1.0258 171.2     20?   1.14  20.3   22 189  61  78
   2024 07 17 01:40  20 16 54.32    -26 21 27.3   0.0096 1.0258 171.2     20?   1.20  20.5   21 191  60  78
   2024 07 17 01:50  20 16 54.64    -26 21 15.8   0.0096 1.0258 171.2     20?   1.26  20.9   21 194  60  78
   2024 07 17 02:00  20 16 55.00    -26 21 03.7   0.0096 1.0258 171.3     20?   1.33  21.5   20 196  60  78
   2024 07 17 02:10  20 16 55.38    -26 20 51.1   0.0096 1.0258 171.3     20?   1.40  22.3   20 198  60  78
   2024 07 17 02:20  20 16 55.79    -26 20 37.9   0.0096 1.0258 171.3     20?   1.47  23.2   19 201  60  78
   2024 07 17 02:30  20 16 56.24    -26 20 24.1   0.0096 1.0258 171.3     20?   1.54  24.2   19 203  60  78
   2024 07 17 02:40  20 16 56.73    -26 20 09.9   0.0096 1.0258 171.3     20?   1.61  25.3   18 205  60  78
   2024 07 17 02:50  20 16 57.27    -26 19 55.1   0.0096 1.0258 171.3     20?   1.68  26.5   17 207  60  78
   2024 07 17 03:00  20 16 57.85    -26 19 39.8   0.0096 1.0258 171.3 A   20?   1.76  27.8   16 209  60  78
   2024 07 17 03:10  20 16 58.49    -26 19 24.0   0.0096 1.0258 171.3 A   20?   1.84  29.1   15 212  60  78
   2024 07 17 03:20  20 16 59.19    -26 19 07.8   0.0096 1.0258 171.3 A   20?   1.92  30.4   14 214  60  78
   2024 07 17 03:30  20 16 59.94    -26 18 51.0   0.0096 1.0258 171.3 A   20?   2.00  31.8   13 216  60  79
   2024 07 17 03:40  20 17 00.76    -26 18 33.9   0.0096 1.0258 171.3 A   20?   2.08  33.2   12 218  59  79
   2024 07 17 03:50  20 17 01.65    -26 18 16.2   0.0096 1.0258 171.3 N   20?   2.17  34.6   11 220  59  79
   2024 07 17 04:00  20 17 02.60    -26 17 58.2   0.0096 1.0258 171.3 N   20?   2.26  36.0    9 221  59  79
   2024 07 17 04:10  20 17 03.63    -26 17 39.8   0.0096 1.0258 171.3 N   20?   2.35  37.4    8 223  59  79
   2024 07 17 04:20  20 17 04.73    -26 17 21.0   0.0096 1.0258 171.3 N   20?   2.44  38.8    7 225  59  79
   2024 07 17 04:30  20 17 05.90    -26 17 01.9   0.0096 1.0258 171.3 C   20?   2.53  40.2    5 227  59  79
   2024 07 17 04:40  20 17 07.16    -26 16 42.4   0.0096 1.0258 171.3 C   20?   2.63  41.6    4 229  59  79
   2024 07 17 04:50  20 17 08.51    -26 16 22.6   0.0096 1.0258 171.3 C   20?   2.73  42.9    3 230  59  79
   ................
   2024 07 17 20:30  20 22 35.16    -26 02 33.6   0.0096 1.0258 170.9 Nr  20?   2.16  98.8    0 124  51  85
   2024 07 17 20:40  20 22 36.70    -26 02 36.8   0.0096 1.0258 170.9 Nm  20?   2.03  98.6    0 126  51  85
   2024 07 17 20:50  20 22 38.14    -26 02 39.7   0.0096 1.0258 170.9 Nm  20?   1.92  98.3    2 128  51  85
   2024 07 17 21:00  20 22 39.51    -26 02 42.4   0.0096 1.0258 170.9 Am  20?   1.80  97.9    3 129  51  85
   2024 07 17 21:10  20 22 40.79    -26 02 44.7   0.0096 1.0258 170.9 Am  20?   1.68  97.3    5 131  51  85
   2024 07 17 21:20  20 22 41.99    -26 02 46.7   0.0096 1.0258 170.9 Am  20?   1.57  96.6    6 133  51  85
   2024 07 17 21:30  20 22 43.11    -26 02 48.4   0.0096 1.0258 170.9 Am  20?   1.47  95.7    8 135  51  85
   2024 07 17 21:40  20 22 44.15    -26 02 49.7   0.0096 1.0258 170.9 Am  20?   1.36  94.6    9 136  51  85
   2024 07 17 21:50  20 22 45.12    -26 02 50.6   0.0096 1.0258 170.9  m  20?   1.26  93.1   10 138  51  85
   2024 07 17 22:00  20 22 46.02    -26 02 51.2   0.0096 1.0258 170.9  m  20?   1.17  91.3   11 140  50  85
   2024 07 17 22:10  20 22 46.85    -26 02 51.2   0.0096 1.0258 170.9  m  20?   1.08  89.2   13 142  50  85
   2024 07 17 22:20  20 22 47.62    -26 02 50.9   0.0096 1.0258 170.9  m  20?   1.00  86.5   14 144  50  85
   2024 07 17 22:30  20 22 48.33    -26 02 50.1   0.0096 1.0258 170.9  m  20?   0.92  83.3   15 146  50  85
   2024 07 17 22:40  20 22 48.98    -26 02 48.8   0.0096 1.0258 170.9  m  20?   0.85  79.5   16 148  50  85
   2024 07 17 22:50  20 22 49.58    -26 02 47.0   0.0096 1.0258 170.9  m  20?   0.79  75.1   17 151  50  85
   2024 07 17 23:00  20 22 50.12    -26 02 44.7   0.0096 1.0258 170.9  m  20?   0.75  70.1   18 153  50  85
   2024 07 17 23:10  20 22 50.62    -26 02 41.9   0.0096 1.0258 170.9  m  20?   0.71  64.5   18 155  50  85
   2024 07 17 23:20  20 22 51.08    -26 02 38.6   0.0096 1.0258 170.9  m  20?   0.69  58.5   19 157  50  85
   2024 07 17 23:30  20 22 51.49    -26 02 34.8   0.0096 1.0258 170.9  m  20?   0.68  52.4   20 159  50  85
   2024 07 17 23:40  20 22 51.88    -26 02 30.4   0.0096 1.0258 170.9  m  20?   0.68  46.4   21 162  50  85
   2024 07 17 23:50  20 22 52.23    -26 02 25.4   0.0096 1.0258 170.9  m  20?   0.69  40.9   21 164  50  85
   2024 07 18 00:00  20 22 52.55    -26 02 19.9   0.0096 1.0258 170.9  m  20?   0.72  35.9   22 167  50  85
   2024 07 18 00:10  20 22 52.85    -26 02 13.9   0.0096 1.0258 170.9  m  20?   0.75  31.6   22 169  50  85
   2024 07 18 00:20  20 22 53.14    -26 02 07.2   0.0096 1.0258 170.9  m  20?   0.79  28.0   22 171  50  85
   2024 07 18 00:30  20 22 53.40    -26 02 00.0   0.0096 1.0258 170.9  m  20?   0.83  25.1   22 174  50  85
   2024 07 18 00:40  20 22 53.66    -26 01 52.2   0.0096 1.0258 170.9  m  20?   0.88  22.9   23 176  49  85
   2024 07 18 00:50  20 22 53.92    -26 01 43.8   0.0096 1.0258 170.9  m  20?   0.93  21.2   23 179  49  85
   2024 07 18 01:00  20 22 54.17    -26 01 34.8   0.0096 1.0258 170.9  t  20?   0.99  20.1   23 181  49  86
   2024 07 18 01:10  20 22 54.42    -26 01 25.3   0.0096 1.0258 170.9  m  20?   1.04  19.3   23 184  49  86
   2024 07 18 01:20  20 22 54.68    -26 01 15.2   0.0096 1.0258 170.9  m  20?   1.10  18.9   22 186  49  86
   2024 07 18 01:30  20 22 54.96    -26 01 04.5   0.0096 1.0258 170.9  m  20?   1.16  18.9   22 188  49  86
   2024 07 18 01:40  20 22 55.25    -26 00 53.2   0.0096 1.0258 171.0     20?   1.22  19.1   22 191  49  86
   2024 07 18 01:50  20 22 55.56    -26 00 41.4   0.0096 1.0258 171.0     20?   1.29  19.5   21 193  49  86
   2024 07 18 02:00  20 22 55.89    -26 00 29.0   0.0096 1.0258 171.0     20?   1.35  20.1   21 196  49  86
   2024 07 18 02:10  20 22 56.25    -26 00 16.0   0.0096 1.0258 171.0     20?   1.42  20.9   20 198  49  86
   2024 07 18 02:20  20 22 56.64    -26 00 02.5   0.0096 1.0258 171.0     20?   1.48  21.8   20 200  49  86
   2024 07 18 02:30  20 22 57.07    -25 59 48.5   0.0096 1.0258 171.0     20?   1.55  22.8   19 203  49  86
   2024 07 18 02:40  20 22 57.55    -25 59 33.9   0.0096 1.0258 171.0     20?   1.62  24.0   18 205  49  86
   2024 07 18 02:50  20 22 58.06    -25 59 18.8   0.0096 1.0258 171.0     20?   1.70  25.2   17 207  49  86
   2024 07 18 03:00  20 22 58.62    -25 59 03.2   0.0096 1.0258 171.0 A   20?   1.77  26.5   17 209  48  86
   2024 07 18 03:10  20 22 59.24    -25 58 47.2   0.0096 1.0258 171.0 A   20?   1.85  27.8   16 211  48  86
   2024 07 18 03:20  20 22 59.91    -25 58 30.6   0.0096 1.0258 171.0 A   20?   1.92  29.2   15 213  48  86
   2024 07 18 03:30  20 23 00.63    -25 58 13.6   0.0096 1.0258 171.0 A   20?   2.00  30.6   13 215  48  86
   2024 07 18 03:40  20 23 01.43    -25 57 56.2   0.0096 1.0258 171.0 A   20?   2.09  32.0   12 217  48  86
   2024 07 18 03:50  20 23 02.28    -25 57 38.3   0.0096 1.0258 171.0 N   20?   2.17  33.4   11 219  48  86
   2024 07 18 04:00  20 23 03.20    -25 57 20.0   0.0096 1.0258 171.0 N   20?   2.26  34.8   10 221  48  86
   2024 07 18 04:10  20 23 04.20    -25 57 01.3   0.0096 1.0258 171.0 N   20?   2.34  36.3    9 223  48  86
   2024 07 18 04:20  20 23 05.27    -25 56 42.2   0.0096 1.0258 171.0 N   20?   2.44  37.7    7 225  48  86
   2024 07 18 04:30  20 23 06.42    -25 56 22.8   0.0096 1.0258 171.0 C   20?   2.53  39.1    6 227  48  86
   2024 07 18 04:40  20 23 07.64    -25 56 03.1   0.0096 1.0258 171.0 C   20?   2.62  40.5    5 229  48  87
   2024 07 18 04:50  20 23 08.95    -25 55 43.0   0.0096 1.0258 171.0 C   20?   2.72  41.9    3 230  47  87
   ................
   2024 07 18 20:40  20 28 34.37    -25 41 06.8   0.0096 1.0257 170.6 Nm  20?   2.03  96.9    0 125  39  91
   2024 07 18 20:50  20 28 35.82    -25 41 09.2   0.0096 1.0257 170.6 Nm  20?   1.91  96.5    2 127  39  91
   2024 07 18 21:00  20 28 37.18    -25 41 11.3   0.0096 1.0257 170.6 Am  20?   1.79  96.0    3 129  39  91
   2024 07 18 21:10  20 28 38.45    -25 41 13.0   0.0096 1.0257 170.6 Am  20?   1.68  95.4    5 130  39  91
   2024 07 18 21:20  20 28 39.65    -25 41 14.5   0.0096 1.0257 170.6 Am  20?   1.57  94.6    6 132  39  91
   2024 07 18 21:30  20 28 40.77    -25 41 15.6   0.0096 1.0257 170.6 Am  20?   1.46  93.6    8 134  39  91
   2024 07 18 21:40  20 28 41.81    -25 41 16.4   0.0096 1.0257 170.6 Am  20?   1.36  92.3    9 136  39  91
   2024 07 18 21:50  20 28 42.78    -25 41 16.7   0.0096 1.0257 170.6  m  20?   1.26  90.7   10 138  39  91
   2024 07 18 22:00  20 28 43.67    -25 41 16.7   0.0096 1.0257 170.6  m  20?   1.17  88.8   12 140  39  92
   2024 07 18 22:10  20 28 44.50    -25 41 16.3   0.0096 1.0257 170.6  m  20?   1.08  86.4   13 142  39  92
   2024 07 18 22:20  20 28 45.27    -25 41 15.4   0.0096 1.0257 170.6  m  20?   1.00  83.6   14 144  39  92
   2024 07 18 22:30  20 28 45.97    -25 41 14.1   0.0096 1.0257 170.6  m  20?   0.92  80.3   15 146  38  92
   2024 07 18 22:40  20 28 46.62    -25 41 12.3   0.0096 1.0257 170.6  m  20?   0.86  76.3   16 148  38  92
   2024 07 18 22:50  20 28 47.21    -25 41 10.1   0.0096 1.0257 170.6  m  20?   0.80  71.8   17 150  38  92
   2024 07 18 23:00  20 28 47.75    -25 41 07.3   0.0096 1.0257 170.6  m  20?   0.76  66.6   18 152  38  92
   2024 07 18 23:10  20 28 48.24    -25 41 04.1   0.0096 1.0257 170.6  m  20?   0.73  61.0   19 154  38  92
   2024 07 18 23:20  20 28 48.69    -25 41 00.3   0.0096 1.0257 170.6  m  20?   0.71  55.1   19 157  38  92
   2024 07 18 23:30  20 28 49.10    -25 40 56.0   0.0096 1.0257 170.6  m  20?   0.70  49.1   20 159  38  92
   2024 07 18 23:40  20 28 49.47    -25 40 51.2   0.0096 1.0257 170.6  m  20?   0.70  43.4   21 161  38  92
   2024 07 18 23:50  20 28 49.82    -25 40 45.8   0.0096 1.0257 170.6  m  20?   0.72  38.0   21 164  38  92
   2024 07 19 00:00  20 28 50.13    -25 40 39.9   0.0096 1.0257 170.6  m  20?   0.74  33.3   22 166  38  92
   2024 07 19 00:10  20 28 50.42    -25 40 33.4   0.0096 1.0257 170.6  m  20?   0.78  29.2   22 168  38  92
   2024 07 19 00:20  20 28 50.69    -25 40 26.4   0.0096 1.0257 170.6  m  20?   0.81  25.9   23 171  38  92
   2024 07 19 00:30  20 28 50.95    -25 40 18.8   0.0096 1.0257 170.6  m  20?   0.86  23.1   23 173  38  92
   2024 07 19 00:40  20 28 51.20    -25 40 10.6   0.0096 1.0257 170.6  m  20?   0.91  21.0   23 176  38  92
   2024 07 19 00:50  20 28 51.44    -25 40 01.9   0.0096 1.0257 170.6  m  20?   0.96  19.5   23 178  38  92
   2024 07 19 01:00  20 28 51.67    -25 39 52.5   0.0096 1.0257 170.6  t  20?   1.01  18.4   23 181  38  92
   2024 07 19 01:10  20 28 51.91    -25 39 42.7   0.0096 1.0257 170.6  m  20?   1.07  17.7   23 183  37  92
   2024 07 19 01:20  20 28 52.16    -25 39 32.2   0.0096 1.0257 170.7  m  20?   1.13  17.4   23 186  37  92
   2024 07 19 01:30  20 28 52.42    -25 39 21.2   0.0096 1.0257 170.7  m  20?   1.19  17.3   23 188  37  92
   2024 07 19 01:40  20 28 52.69    -25 39 09.6   0.0096 1.0257 170.7  m  20?   1.25  17.6   22 190  37  92
   2024 07 19 01:50  20 28 52.98    -25 38 57.4   0.0096 1.0257 170.7  m  20?   1.31  18.0   22 193  37  92
   2024 07 19 02:00  20 28 53.29    -25 38 44.7   0.0096 1.0257 170.7  m  20?   1.37  18.6   21 195  37  92
   2024 07 19 02:10  20 28 53.63    -25 38 31.5   0.0096 1.0257 170.7  m  20?   1.44  19.5   21 198  37  92
   2024 07 19 02:20  20 28 54.00    -25 38 17.7   0.0096 1.0257 170.7  m  20?   1.50  20.4   20 200  37  92
   2024 07 19 02:30  20 28 54.41    -25 38 03.3   0.0096 1.0257 170.7     20?   1.57  21.4   20 202  37  92
   2024 07 19 02:40  20 28 54.86    -25 37 48.5   0.0096 1.0257 170.7     20?   1.64  22.6   19 204  37  92
   2024 07 19 02:50  20 28 55.35    -25 37 33.1   0.0096 1.0257 170.7     20?   1.71  23.8   18 207  37  92
   2024 07 19 03:00  20 28 55.88    -25 37 17.3   0.0096 1.0257 170.7     20?   1.78  25.1   17 209  37  92
   2024 07 19 03:10  20 28 56.47    -25 37 01.0   0.0096 1.0257 170.7 A   20?   1.85  26.5   16 211  37  92
   2024 07 19 03:20  20 28 57.11    -25 36 44.1   0.0096 1.0257 170.7 A   20?   1.93  27.9   15 213  36  92
   2024 07 19 03:30  20 28 57.81    -25 36 26.9   0.0096 1.0257 170.7 A   20?   2.01  29.3   14 215  36  92
   2024 07 19 03:40  20 28 58.57    -25 36 09.2   0.0096 1.0257 170.7 A   20?   2.09  30.7   13 217  36  93
   2024 07 19 03:50  20 28 59.40    -25 35 51.1   0.0096 1.0257 170.7 N   20?   2.17  32.2   12 219  36  93
   2024 07 19 04:00  20 29 00.29    -25 35 32.5   0.0096 1.0257 170.7 N   20?   2.25  33.7   10 221  36  93
   2024 07 19 04:10  20 29 01.25    -25 35 13.6   0.0096 1.0257 170.7 N   20?   2.34  35.1    9 223  36  93
   2024 07 19 04:20  20 29 02.29    -25 34 54.3   0.0096 1.0257 170.7 N   20?   2.43  36.6    8 225  36  93
   2024 07 19 04:30  20 29 03.40    -25 34 34.7   0.0096 1.0257 170.7 C   20?   2.52  38.0    7 227  36  93
   2024 07 19 04:40  20 29 04.59    -25 34 14.7   0.0096 1.0257 170.8 C   20?   2.61  39.5    5 228  36  93
   2024 07 19 04:50  20 29 05.86    -25 33 54.4   0.0096 1.0257 170.8 C   20?   2.71  40.9    4 230  36  93
   ................
   2024 07 19 20:40  20 34 28.20    -25 18 30.6   0.0097 1.0257 170.3 Nm  20?   2.02  95.3    0 125  27  96
   2024 07 19 20:50  20 34 29.64    -25 18 32.3   0.0097 1.0257 170.3 Nm  20?   1.90  94.8    2 126  27  96
   2024 07 19 21:00  20 34 30.99    -25 18 33.8   0.0097 1.0257 170.3 Am  20?   1.79  94.2    3 128  27  96
   2024 07 19 21:10  20 34 32.27    -25 18 35.1   0.0097 1.0257 170.3 Am  20?   1.67  93.5    5 130  27  96
   2024 07 19 21:20  20 34 33.46    -25 18 36.0   0.0097 1.0257 170.3 Am  20?   1.56  92.6    6 132  27  96
   2024 07 19 21:30  20 34 34.57    -25 18 36.5   0.0097 1.0257 170.3 Am  20?   1.45  91.5    8 133  27  96
   2024 07 19 21:40  20 34 35.60    -25 18 36.7   0.0097 1.0257 170.3  m  20?   1.35  90.0    9 135  26  96
   2024 07 19 21:50  20 34 36.56    -25 18 36.6   0.0097 1.0257 170.3  m  20?   1.25  88.3   10 137  26  96
   2024 07 19 22:00  20 34 37.45    -25 18 36.1   0.0097 1.0257 170.3  m  20?   1.16  86.3   12 139  26  96
   2024 07 19 22:10  20 34 38.27    -25 18 35.1   0.0097 1.0257 170.3  m  20?   1.08  83.8   13 141  26  96
   2024 07 19 22:20  20 34 39.03    -25 18 33.8   0.0097 1.0257 170.3  m  20?   1.00  80.8   14 143  26  96
   2024 07 19 22:30  20 34 39.73    -25 18 32.0   0.0097 1.0257 170.3  m  20?   0.93  77.2   15 145  26  96
   2024 07 19 22:40  20 34 40.36    -25 18 29.7   0.0097 1.0257 170.3  m  20?   0.86  73.1   16 147  26  96
   2024 07 19 22:50  20 34 40.95    -25 18 27.0   0.0096 1.0257 170.3  m  20?   0.81  68.4   17 149  26  96
   2024 07 19 23:00  20 34 41.48    -25 18 23.8   0.0096 1.0257 170.3  m  20?   0.77  63.2   18 152  26  96
   2024 07 19 23:10  20 34 41.96    -25 18 20.1   0.0096 1.0257 170.3  m  20?   0.74  57.6   19 154  26  96
   2024 07 19 23:20  20 34 42.40    -25 18 15.9   0.0096 1.0257 170.3  m  20?   0.72  51.7   20 156  26  96
   2024 07 19 23:30  20 34 42.80    -25 18 11.2   0.0096 1.0257 170.3  m  20?   0.72  45.9   20 158  26  96
   2024 07 19 23:40  20 34 43.16    -25 18 05.9   0.0096 1.0257 170.3  m  20?   0.72  40.3   21 161  26  96
   2024 07 19 23:50  20 34 43.49    -25 18 00.2   0.0096 1.0257 170.3  m  20?   0.74  35.2   22 163  26  97
   2024 07 20 00:00  20 34 43.79    -25 17 53.9   0.0096 1.0257 170.3  m  20?   0.77  30.7   22 165  26  97
   2024 07 20 00:10  20 34 44.07    -25 17 47.0   0.0096 1.0257 170.3  m  20?   0.80  26.8   22 168  26  97
   2024 07 20 00:20  20 34 44.33    -25 17 39.6   0.0096 1.0257 170.3  m  20?   0.84  23.6   23 170  26  97
   2024 07 20 00:30  20 34 44.57    -25 17 31.6   0.0096 1.0257 170.3  m  20?   0.88  21.1   23 173  25  97
   2024 07 20 00:40  20 34 44.80    -25 17 23.1   0.0096 1.0257 170.3  m  20?   0.93  19.1   23 175  25  97
   2024 07 20 00:50  20 34 45.02    -25 17 14.0   0.0096 1.0257 170.3  m  20?   0.98  17.6   23 178  25  97
   2024 07 20 01:00  20 34 45.24    -25 17 04.4   0.0096 1.0257 170.3  t  20?   1.04  16.6   23 180  25  97
   2024 07 20 01:10  20 34 45.47    -25 16 54.1   0.0096 1.0257 170.4  m  20?   1.09  16.0   23 183  25  97
   2024 07 20 01:20  20 34 45.69    -25 16 43.4   0.0096 1.0257 170.4  m  20?   1.15  15.7   23 185  25  97
   2024 07 20 01:30  20 34 45.93    -25 16 32.0   0.0096 1.0257 170.4  m  20?   1.21  15.7   23 188  25  97
   2024 07 20 01:40  20 34 46.18    -25 16 20.1   0.0096 1.0257 170.4  m  20?   1.27  16.0   23 190  25  97
   2024 07 20 01:50  20 34 46.45    -25 16 07.7   0.0096 1.0257 170.4  m  20?   1.33  16.4   22 192  25  97
   2024 07 20 02:00  20 34 46.74    -25 15 54.7   0.0096 1.0257 170.4  m  20?   1.39  17.1   22 195  25  97
   2024 07 20 02:10  20 34 47.06    -25 15 41.2   0.0096 1.0257 170.4  m  20?   1.45  17.9   21 197  25  97
   2024 07 20 02:20  20 34 47.40    -25 15 27.1   0.0097 1.0257 170.4  m  20?   1.52  18.9   21 200  25  97
   2024 07 20 02:30  20 34 47.78    -25 15 12.5   0.0097 1.0257 170.4  m  20?   1.58  20.0   20 202  25  97
   2024 07 20 02:40  20 34 48.20    -25 14 57.4   0.0097 1.0257 170.4  m  20?   1.65  21.1   19 204  25  97
   2024 07 20 02:50  20 34 48.67    -25 14 41.8   0.0097 1.0257 170.4  m  20?   1.72  22.4   18 206  24  97
   2024 07 20 03:00  20 34 49.17    -25 14 25.7   0.0097 1.0257 170.4  m  20?   1.79  23.7   18 209  24  97
   2024 07 20 03:10  20 34 49.73    -25 14 09.2   0.0097 1.0257 170.4 Am  20?   1.86  25.1   17 211  24  97
   2024 07 20 03:20  20 34 50.34    -25 13 52.1   0.0097 1.0257 170.4 Am  20?   1.93  26.5   16 213  24  97
   2024 07 20 03:30  20 34 51.01    -25 13 34.6   0.0097 1.0257 170.4 A   20?   2.01  28.0   15 215  24  97
   2024 07 20 03:40  20 34 51.74    -25 13 16.7   0.0097 1.0257 170.4 A   20?   2.09  29.5   13 217  24  97
   2024 07 20 03:50  20 34 52.53    -25 12 58.4   0.0097 1.0256 170.4 N   20?   2.17  31.0   12 219  24  97
   2024 07 20 04:00  20 34 53.39    -25 12 39.6   0.0097 1.0256 170.4 N   20?   2.25  32.4   11 221  24  97
   2024 07 20 04:10  20 34 54.31    -25 12 20.5   0.0097 1.0256 170.4 N   20?   2.33  33.9   10 223  24  97
   2024 07 20 04:20  20 34 55.31    -25 12 01.0   0.0097 1.0256 170.5 N   20?   2.42  35.4    8 225  24  97
   2024 07 20 04:30  20 34 56.39    -25 11 41.1   0.0097 1.0256 170.5 C   20?   2.51  36.9    7 227  24  97
   2024 07 20 04:40  20 34 57.54    -25 11 20.9   0.0097 1.0256 170.5 C   20?   2.60  38.4    6 228  24  97
   2024 07 20 04:50  20 34 58.77    -25 11 00.5   0.0097 1.0256 170.5 C   20?   2.69  39.8    4 230  23  97
   ................
   2024 07 20 20:40  20 40 17.68    -24 54 52.1   0.0097 1.0256 170.0 Nm  20?   2.01  93.7    0 124  14  99
   2024 07 20 20:50  20 40 19.11    -24 54 53.3   0.0097 1.0256 170.0 Nm  20?   1.89  93.2    2 126  14  99
   2024 07 20 21:00  20 40 20.46    -24 54 54.3   0.0097 1.0256 170.0 Am  20?   1.77  92.5    3 128  14  99
   2024 07 20 21:10  20 40 21.72    -24 54 55.0   0.0097 1.0256 170.0 Am  20?   1.66  91.7    5 129  14  99
   2024 07 20 21:20  20 40 22.90    -24 54 55.3   0.0097 1.0256 170.0 Am  20?   1.55  90.7    6 131  14  99
   2024 07 20 21:30  20 40 24.00    -24 54 55.4   0.0097 1.0256 170.0 Am  20?   1.44  89.4    8 133  14  99
   2024 07 20 21:40  20 40 25.02    -24 54 55.1   0.0097 1.0256 170.0  m  20?   1.34  87.9    9 135  14  99
   2024 07 20 21:50  20 40 25.97    -24 54 54.4   0.0097 1.0256 170.0  m  20?   1.25  86.0   10 137  14  99
   2024 07 20 22:00  20 40 26.85    -24 54 53.4   0.0097 1.0256 170.0  m  20?   1.16  83.8   12 139  14  99
   2024 07 20 22:10  20 40 27.66    -24 54 52.0   0.0097 1.0256 170.0  m  20?   1.07  81.1   13 141  14  99
   2024 07 20 22:20  20 40 28.41    -24 54 50.1   0.0097 1.0256 170.0  m  20?   0.99  78.0   14 143  14  99
   2024 07 20 22:30  20 40 29.09    -24 54 47.9   0.0097 1.0256 170.0  m  20?   0.92  74.3   15 145  14  99
   2024 07 20 22:40  20 40 29.72    -24 54 45.2   0.0097 1.0256 170.0  m  20?   0.86  70.0   16 147  14  99
   2024 07 20 22:50  20 40 30.29    -24 54 42.0   0.0097 1.0256 170.0  m  20?   0.81  65.2   17 149  13  99
   2024 07 20 23:00  20 40 30.80    -24 54 38.4   0.0097 1.0256 170.0  m  20?   0.77  59.9   18 151  13  99
   2024 07 20 23:10  20 40 31.27    -24 54 34.3   0.0097 1.0256 170.0  m  20?   0.75  54.2   19 153  13  99
   2024 07 20 23:20  20 40 31.70    -24 54 29.6   0.0097 1.0256 170.0  m  20?   0.73  48.4   20 155  13  99
   2024 07 20 23:30  20 40 32.08    -24 54 24.5   0.0097 1.0256 170.0  m  20?   0.73  42.6   21 158  13  99
   2024 07 20 23:40  20 40 32.43    -24 54 18.9   0.0097 1.0256 170.0  m  20?   0.74  37.2   21 160  13  99
   2024 07 20 23:50  20 40 32.74    -24 54 12.7   0.0097 1.0256 170.0  m  20?   0.76  32.3   22 162  13  99
   2024 07 21 00:00  20 40 33.03    -24 54 06.1   0.0097 1.0256 170.0  m  20?   0.79  28.0   22 165  13  99
   2024 07 21 00:10  20 40 33.29    -24 53 58.8   0.0097 1.0256 170.0  m  20?   0.82  24.3   23 167  13  99
   2024 07 21 00:20  20 40 33.53    -24 53 51.1   0.0097 1.0256 170.0  m  20?   0.86  21.3   23 170  13  99
   2024 07 21 00:30  20 40 33.75    -24 53 42.8   0.0097 1.0256 170.0  m  20?   0.91  18.8   23 172  13  99
   2024 07 21 00:40  20 40 33.97    -24 53 33.9   0.0097 1.0256 170.0  m  20?   0.96  17.0   24 175  13  99
   2024 07 21 00:50  20 40 34.17    -24 53 24.5   0.0097 1.0256 170.1  m  20?   1.01  15.6   24 177  13  99
   2024 07 21 01:00  20 40 34.37    -24 53 14.6   0.0097 1.0256 170.1  t  20?   1.06  14.7   24 180  13  99
   2024 07 21 01:10  20 40 34.57    -24 53 04.0   0.0097 1.0256 170.1  m  20?   1.11  14.1   24 182  13  99
   2024 07 21 01:20  20 40 34.77    -24 52 53.0   0.0097 1.0256 170.1  m  20?   1.17  13.9   24 185  12  99
   2024 07 21 01:30  20 40 34.98    -24 52 41.4   0.0097 1.0256 170.1  m  20?   1.23  13.9   23 187  12  99
   2024 07 21 01:40  20 40 35.21    -24 52 29.2   0.0097 1.0256 170.1  m  20?   1.28  14.2   23 190  12  99
   2024 07 21 01:50  20 40 35.45    -24 52 16.5   0.0097 1.0256 170.1  m  20?   1.34  14.7   23 192  12  99
   2024 07 21 02:00  20 40 35.72    -24 52 03.2   0.0097 1.0256 170.1  m  20?   1.40  15.4   22 194  12  99
   2024 07 21 02:10  20 40 36.01    -24 51 49.5   0.0097 1.0256 170.1  m  20?   1.46  16.3   22 197  12  99
   2024 07 21 02:20  20 40 36.33    -24 51 35.2   0.0097 1.0256 170.1  m  20?   1.53  17.3   21 199  12  99
   2024 07 21 02:30  20 40 36.68    -24 51 20.3   0.0097 1.0256 170.1  m  20?   1.59  18.4   21 202  12  99
   2024 07 21 02:40  20 40 37.07    -24 51 05.0   0.0097 1.0256 170.1  m  20?   1.65  19.6   20 204  12  99
   2024 07 21 02:50  20 40 37.50    -24 50 49.2   0.0097 1.0256 170.1  m  20?   1.72  20.9   19 206  12  99
   2024 07 21 03:00  20 40 37.98    -24 50 32.9   0.0097 1.0256 170.1  m  20?   1.79  22.2   18 208  12  99
   2024 07 21 03:10  20 40 38.50    -24 50 16.1   0.0097 1.0256 170.1 Am  20?   1.86  23.7   17 211  12  99
   2024 07 21 03:20  20 40 39.08    -24 49 58.9   0.0097 1.0256 170.1 Am  20?   1.93  25.1   16 213  12  99
   2024 07 21 03:30  20 40 39.71    -24 49 41.2   0.0097 1.0256 170.1 Am  20?   2.00  26.6   15 215  12  99
   2024 07 21 03:40  20 40 40.40    -24 49 23.1   0.0097 1.0256 170.1 Am  20?   2.08  28.1   14 217  11  99
   2024 07 21 03:50  20 40 41.16    -24 49 04.5   0.0097 1.0256 170.1 Nm  20?   2.16  29.6   13 219  11  99
   2024 07 21 04:00  20 40 41.98    -24 48 45.6   0.0097 1.0256 170.2 Nm  20?   2.24  31.2   12 221  11  99
   2024 07 21 04:10  20 40 42.87    -24 48 26.3   0.0097 1.0256 170.2 Nm  20?   2.32  32.7   10 223  11  99
   2024 07 21 04:20  20 40 43.83    -24 48 06.6   0.0097 1.0256 170.2 Nm  20?   2.40  34.2    9 225  11  99
   2024 07 21 04:30  20 40 44.86    -24 47 46.6   0.0097 1.0256 170.2 Cm  20?   2.49  35.7    8 226  11  99
   2024 07 21 04:40  20 40 45.97    -24 47 26.2   0.0097 1.0256 170.2 C   20?   2.58  37.2    6 228  11  99
   2024 07 21 04:50  20 40 47.16    -24 47 05.6   0.0097 1.0256 170.2 C   20?   2.67  38.7    5 230  11  99
   ................
   2024 07 21 20:40  20 46 02.28    -24 30 16.2   0.0097 1.0255 169.7 Nm  20?   1.99  92.2    0 124   2  99
   2024 07 21 20:50  20 46 03.70    -24 30 16.9   0.0097 1.0255 169.7 Nm  20?   1.87  91.6    2 125   2  99
   2024 07 21 21:00  20 46 05.03    -24 30 17.3   0.0097 1.0255 169.7 Am  20?   1.76  90.8    4 127   2  99
   2024 07 21 21:10  20 46 06.27    -24 30 17.5   0.0097 1.0255 169.7 Am  20?   1.64  89.9    5 129   2  99
   2024 07 21 21:20  20 46 07.44    -24 30 17.3   0.0097 1.0255 169.7 Am  20?   1.54  88.8    6 131   2  99
   2024 07 21 21:30  20 46 08.52    -24 30 16.9   0.0097 1.0255 169.7 Am  20?   1.43  87.4    8 132   2  99
   2024 07 21 21:40  20 46 09.53    -24 30 16.1   0.0097 1.0255 169.7  m  20?   1.33  85.8    9 134   2  99
   2024 07 21 21:50  20 46 10.46    -24 30 15.0   0.0097 1.0255 169.7  m  20?   1.23  83.8   11 136   2  99
   2024 07 21 22:00  20 46 11.33    -24 30 13.5   0.0097 1.0255 169.7  m  20?   1.14  81.4   12 138   2  99
   2024 07 21 22:10  20 46 12.12    -24 30 11.6   0.0097 1.0255 169.7  m  20?   1.06  78.5   13 140   1  99
   2024 07 21 22:20  20 46 12.85    -24 30 09.3   0.0097 1.0255 169.7  m  20?   0.98  75.2   14 142   1  99
   2024 07 21 22:30  20 46 13.52    -24 30 06.6   0.0097 1.0255 169.7  m  20?   0.92  71.3   15 144   1  99
   2024 07 21 22:40  20 46 14.13    -24 30 03.4   0.0097 1.0255 169.7  m  20?   0.86  66.9   16 146   1  99
   2024 07 21 22:50  20 46 14.68    -24 29 59.9   0.0097 1.0255 169.7  m  20?   0.81  61.9   17 148   1  99
   2024 07 21 23:00  20 46 15.18    -24 29 55.8   0.0097 1.0255 169.7  m  20?   0.78  56.5   18 150   1  99
   2024 07 21 23:10  20 46 15.63    -24 29 51.3   0.0097 1.0255 169.7  m  20?   0.75  50.8   19 153   1  99
   2024 07 21 23:20  20 46 16.04    -24 29 46.3   0.0097 1.0255 169.7  m  20?   0.74  45.0   20 155   1  99
   2024 07 21 23:30  20 46 16.40    -24 29 40.8   0.0097 1.0255 169.7  m  20?   0.74  39.3   21 157   1  99
   2024 07 21 23:40  20 46 16.73    -24 29 34.8   0.0097 1.0255 169.7  m  20?   0.76  34.0   22 160   1  99
   2024 07 21 23:50  20 46 17.02    -24 29 28.3   0.0097 1.0255 169.7  m  20?   0.78  29.3   22 162   1  99
   2024 07 22 00:00  20 46 17.29    -24 29 21.3   0.0097 1.0255 169.7  m  20?   0.81  25.1   23 164   1  99
   2024 07 22 00:10  20 46 17.53    -24 29 13.7   0.0097 1.0255 169.7  m  20?   0.84  21.6   23 167   1  99
   2024 07 22 00:20  20 46 17.75    -24 29 05.6   0.0097 1.0255 169.7  m  20?   0.88  18.7   24 169   1  99
   2024 07 22 00:30  20 46 17.95    -24 28 57.0   0.0097 1.0255 169.7  m  20?   0.93  16.5   24 172   1  99
   2024 07 22 00:40  20 46 18.14    -24 28 47.9   0.0097 1.0255 169.8  m  20?   0.98  14.7   24 174   1  99
   2024 07 22 00:50  20 46 18.32    -24 28 38.2   0.0097 1.0255 169.8  m  20?   1.03  13.4   24 177   1  99
   2024 07 22 01:00  20 46 18.49    -24 28 27.9   0.0097 1.0255 169.8  m  20?   1.08  12.6   24 179   1  99
   2024 07 22 01:10  20 46 18.66    -24 28 17.1   0.0097 1.0255 169.8  t  20?   1.13  12.1   24 182   1  99
   2024 07 22 01:20  20 46 18.84    -24 28 05.8   0.0097 1.0255 169.8  m  20?   1.19  11.9   24 184   1  99
   2024 07 22 01:30  20 46 19.03    -24 27 53.9   0.0097 1.0255 169.8  m  20?   1.24  12.0   24 187   1  99
   2024 07 22 01:40  20 46 19.23    -24 27 41.5   0.0097 1.0255 169.8  m  20?   1.30  12.4   24 189   1  99
   2024 07 22 01:50  20 46 19.44    -24 27 28.6   0.0097 1.0255 169.8  m  20?   1.36  12.9   23 192   1  99
   2024 07 22 02:00  20 46 19.67    -24 27 15.1   0.0097 1.0255 169.8  m  20?   1.41  13.6   23 194   1  99
   2024 07 22 02:10  20 46 19.93    -24 27 01.1   0.0097 1.0255 169.8  m  20?   1.47  14.5   22 197   1  99
   2024 07 22 02:20  20 46 20.22    -24 26 46.6   0.0097 1.0255 169.8  m  20?   1.53  15.6   22 199   1  99
   2024 07 22 02:30  20 46 20.54    -24 26 31.6   0.0097 1.0255 169.8  m  20?   1.60  16.7   21 201   1  99
   2024 07 22 02:40  20 46 20.90    -24 26 16.1   0.0097 1.0255 169.8  m  20?   1.66  17.9   20 204   1  99
   2024 07 22 02:50  20 46 21.29    -24 26 00.0   0.0097 1.0255 169.8  m  20?   1.72  19.3   20 206   1  99
   2024 07 22 03:00  20 46 21.74    -24 25 43.6   0.0097 1.0255 169.8  m  20?   1.79  20.7   19 208   1  99
   2024 07 22 03:10  20 46 22.22    -24 25 26.6   0.0097 1.0255 169.8 Am  20?   1.86  22.1   18 210   1  99
   2024 07 22 03:20  20 46 22.76    -24 25 09.2   0.0097 1.0255 169.8 Am  20?   1.93  23.6   17 213   1  99
   2024 07 22 03:30  20 46 23.36    -24 24 51.3   0.0097 1.0255 169.9 Am  20?   2.00  25.1   16 215   2  99
   2024 07 22 03:40  20 46 24.01    -24 24 33.1   0.0097 1.0255 169.9 Am  20?   2.07  26.7   15 217   2  99
   2024 07 22 03:50  20 46 24.73    -24 24 14.4   0.0097 1.0255 169.9 Am  20?   2.15  28.2   13 219   2  99
   2024 07 22 04:00  20 46 25.51    -24 23 55.3   0.0097 1.0255 169.9 Nm  20?   2.22  29.8   12 221   2  99
   2024 07 22 04:10  20 46 26.35    -24 23 35.8   0.0097 1.0255 169.9 Nm  20?   2.30  31.4   11 223   2  99
   2024 07 22 04:20  20 46 27.27    -24 23 16.0   0.0097 1.0255 169.9 Nm  20?   2.39  33.0   10 225   2  99
   2024 07 22 04:30  20 46 28.26    -24 22 55.8   0.0097 1.0255 169.9 Cm  20?   2.47  34.5    8 226   2  99
   2024 07 22 04:40  20 46 29.33    -24 22 35.4   0.0097 1.0255 169.9 Cm  20?   2.56  36.1    7 228   2  99
   2024 07 22 04:50  20 46 30.47    -24 22 14.6   0.0097 1.0255 169.9 Cm  20?   2.65  37.6    5 230   2  99
   ................
   2024 07 22 20:40  20 51 41.42    -24 04 48.0   0.0097 1.0255 169.4 N   20?   1.97  90.7    0 123  11  96
   2024 07 22 20:50  20 51 42.82    -24 04 48.2   0.0097 1.0255 169.4 Nm  20?   1.85  90.0    2 125  11  96
   2024 07 22 21:00  20 51 44.13    -24 04 48.1   0.0097 1.0255 169.4 Am  20?   1.74  89.2    4 126  11  96
   2024 07 22 21:10  20 51 45.35    -24 04 47.8   0.0097 1.0255 169.4 Am  20?   1.62  88.2    5 128  11  96
   2024 07 22 21:20  20 51 46.50    -24 04 47.1   0.0097 1.0255 169.4 Am  20?   1.51  87.0    7 130  11  96
   2024 07 22 21:30  20 51 47.56    -24 04 46.2   0.0097 1.0255 169.4 Am  20?   1.41  85.5    8 132  11  96
   2024 07 22 21:40  20 51 48.55    -24 04 45.0   0.0097 1.0255 169.4  m  20?   1.31  83.7    9 134  11  96
   2024 07 22 21:50  20 51 49.46    -24 04 43.4   0.0097 1.0255 169.4  m  20?   1.22  81.5   11 135  11  96
   2024 07 22 22:00  20 51 50.31    -24 04 41.4   0.0097 1.0255 169.4  m  20?   1.13  79.0   12 137  12  96
   2024 07 22 22:10  20 51 51.08    -24 04 39.1   0.0097 1.0255 169.4  m  20?   1.05  76.0   13 139  12  96
   2024 07 22 22:20  20 51 51.79    -24 04 36.4   0.0097 1.0255 169.4  m  20?   0.97  72.4   14 141  12  96
   2024 07 22 22:30  20 51 52.43    -24 04 33.3   0.0097 1.0255 169.4  m  20?   0.91  68.3   16 143  12  96
   2024 07 22 22:40  20 51 53.02    -24 04 29.7   0.0097 1.0255 169.4  m  20?   0.85  63.7   17 146  12  96
   2024 07 22 22:50  20 51 53.55    -24 04 25.8   0.0097 1.0255 169.4  m  20?   0.81  58.6   18 148  12  96
   2024 07 22 23:00  20 51 54.03    -24 04 21.3   0.0097 1.0255 169.4  m  20?   0.78  53.0   19 150  12  96
   2024 07 22 23:10  20 51 54.46    -24 04 16.4   0.0097 1.0255 169.4  m  20?   0.76  47.2   20 152  12  96
   2024 07 22 23:20  20 51 54.84    -24 04 11.1   0.0097 1.0255 169.4  m  20?   0.75  41.4   20 154  12  96
   2024 07 22 23:30  20 51 55.18    -24 04 05.2   0.0097 1.0255 169.4  m  20?   0.75  35.8   21 157  12  96
   2024 07 22 23:40  20 51 55.49    -24 03 58.9   0.0097 1.0255 169.4  m  20?   0.77  30.7   22 159  12  96
   2024 07 22 23:50  20 51 55.76    -24 03 52.1   0.0097 1.0255 169.4  m  20?   0.79  26.1   22 161  12  96
   2024 07 23 00:00  20 51 56.00    -24 03 44.7   0.0097 1.0255 169.4  m  20?   0.82  22.1   23 164  12  96
   2024 07 23 00:10  20 51 56.21    -24 03 36.9   0.0097 1.0255 169.5  m  20?   0.86  18.7   23 166  12  96
   2024 07 23 00:20  20 51 56.40    -24 03 28.5   0.0097 1.0255 169.5  m  20?   0.90  16.0   24 169  13  96
   2024 07 23 00:30  20 51 56.58    -24 03 19.6   0.0097 1.0255 169.5  m  20?   0.94  13.9   24 171  13  96
   2024 07 23 00:40  20 51 56.74    -24 03 10.1   0.0097 1.0255 169.5  m  20?   0.99  12.2   24 174  13  96
   2024 07 23 00:50  20 51 56.89    -24 03 00.2   0.0097 1.0255 169.5  m  20?   1.04  11.1   25 176  13  96
   2024 07 23 01:00  20 51 57.04    -24 02 49.7   0.0097 1.0255 169.5  m  20?   1.09  10.3   25 179  13  96
   2024 07 23 01:10  20 51 57.18    -24 02 38.6   0.0097 1.0255 169.5  t  20?   1.15   9.9   25 181  13  96
   2024 07 23 01:20  20 51 57.33    -24 02 27.1   0.0097 1.0255 169.5  m  20?   1.20   9.8   25 184  13  96
   2024 07 23 01:30  20 51 57.48    -24 02 15.0   0.0097 1.0255 169.5  m  20?   1.26   9.9   24 186  13  96
   2024 07 23 01:40  20 51 57.65    -24 02 02.4   0.0097 1.0255 169.5  m  20?   1.31  10.3   24 189  13  96
   2024 07 23 01:50  20 51 57.83    -24 01 49.2   0.0097 1.0255 169.5  m  20?   1.37  10.9   24 191  13  96
   2024 07 23 02:00  20 51 58.03    -24 01 35.5   0.0097 1.0254 169.5  m  20?   1.42  11.7   23 194  13  96
   2024 07 23 02:10  20 51 58.26    -24 01 21.4   0.0097 1.0254 169.5  m  20?   1.48  12.6   23 196  13  96
   2024 07 23 02:20  20 51 58.51    -24 01 06.7   0.0097 1.0254 169.5  m  20?   1.54  13.7   22 199  13  96
   2024 07 23 02:30  20 51 58.79    -24 00 51.5   0.0097 1.0254 169.5  m  20?   1.60  14.9   22 201  13  96
   2024 07 23 02:40  20 51 59.11    -24 00 35.8   0.0097 1.0254 169.5  m  20?   1.66  16.1   21 203  14  96
   2024 07 23 02:50  20 51 59.47    -24 00 19.6   0.0097 1.0254 169.5  m  20?   1.72  17.5   20 206  14  96
   2024 07 23 03:00  20 51 59.87    -24 00 03.0   0.0097 1.0254 169.6  m  20?   1.78  18.9   19 208  14  96
   2024 07 23 03:10  20 52 00.32    -23 59 45.9   0.0097 1.0254 169.6 Am  20?   1.85  20.4   18 210  14  96
   2024 07 23 03:20  20 52 00.82    -23 59 28.3   0.0097 1.0254 169.6 Am  20?   1.92  22.0   17 212  14  96
   2024 07 23 03:30  20 52 01.38    -23 59 10.4   0.0097 1.0254 169.6 Am  20?   1.99  23.6   16 214  14  96
   2024 07 23 03:40  20 52 01.99    -23 58 52.0   0.0097 1.0254 169.6 Am  20?   2.06  25.1   15 217  14  96
   2024 07 23 03:50  20 52 02.66    -23 58 33.2   0.0097 1.0254 169.6 Am  20?   2.13  26.8   14 219  14  95
   2024 07 23 04:00  20 52 03.39    -23 58 14.0   0.0097 1.0254 169.6 Nm  20?   2.21  28.4   13 221  14  95
   2024 07 23 04:10  20 52 04.19    -23 57 54.4   0.0097 1.0254 169.6 Nm  20?   2.28  30.0   11 223  14  95
   2024 07 23 04:20  20 52 05.07    -23 57 34.5   0.0097 1.0254 169.6 Nm  20?   2.36  31.6   10 224  14  95
   2024 07 23 04:30  20 52 06.01    -23 57 14.2   0.0097 1.0254 169.6 Nm  20?   2.45  33.2    9 226  14  95
   2024 07 23 04:40  20 52 07.03    -23 56 53.6   0.0097 1.0254 169.6 Cm  20?   2.53  34.8    7 228  14  95
   2024 07 23 04:50  20 52 08.12    -23 56 32.7   0.0097 1.0254 169.6 Cm  20?   2.62  36.4    6 230  14  95
   ................
   2024 07 23 20:30  20 57 13.08    -23 38 33.0   0.0097 1.0254 169.1 Nr  20?   2.06  89.9    0 121  24  91
   2024 07 23 20:40  20 57 14.53    -23 38 32.9   0.0097 1.0254 169.1 N   20?   1.94  89.3    1 122  24  91
   2024 07 23 20:50  20 57 15.90    -23 38 32.6   0.0097 1.0254 169.1 A   20?   1.82  88.6    2 124  24  91
   2024 07 23 21:00  20 57 17.19    -23 38 32.1   0.0097 1.0254 169.1 A   20?   1.71  87.6    4 126  24  91
   2024 07 23 21:10  20 57 18.39    -23 38 31.3   0.0097 1.0254 169.1 A   20?   1.60  86.5    5 128  24  91
   2024 07 23 21:20  20 57 19.51    -23 38 30.2   0.0097 1.0254 169.1 Am  20?   1.49  85.2    7 129  24  91
   2024 07 23 21:30  20 57 20.55    -23 38 28.8   0.0097 1.0254 169.1 Am  20?   1.38  83.6    8 131  25  91
   2024 07 23 21:40  20 57 21.51    -23 38 27.2   0.0097 1.0254 169.1  m  20?   1.29  81.6    9 133  25  91
   2024 07 23 21:50  20 57 22.40    -23 38 25.1   0.0097 1.0254 169.1  m  20?   1.19  79.3   11 135  25  91
   2024 07 23 22:00  20 57 23.22    -23 38 22.8   0.0097 1.0254 169.1  m  20?   1.11  76.6   12 137  25  91
   2024 07 23 22:10  20 57 23.97    -23 38 20.0   0.0097 1.0254 169.1  m  20?   1.03  73.4   13 139  25  91
   2024 07 23 22:20  20 57 24.65    -23 38 16.9   0.0097 1.0254 169.1  m  20?   0.95  69.6   15 141  25  91
   2024 07 23 22:30  20 57 25.27    -23 38 13.4   0.0097 1.0254 169.1  m  20?   0.89  65.3   16 143  25  91
   2024 07 23 22:40  20 57 25.83    -23 38 09.5   0.0097 1.0254 169.1  m  20?   0.84  60.4   17 145  25  91
   2024 07 23 22:50  20 57 26.34    -23 38 05.2   0.0097 1.0254 169.1  m  20?   0.80  55.1   18 147  25  91
   2024 07 23 23:00  20 57 26.79    -23 38 00.4   0.0097 1.0254 169.1  m  20?   0.77  49.4   19 149  25  91
   2024 07 23 23:10  20 57 27.19    -23 37 55.2   0.0097 1.0254 169.1  m  20?   0.75  43.5   20 152  25  91
   2024 07 23 23:20  20 57 27.55    -23 37 49.5   0.0097 1.0254 169.2  m  20?   0.75  37.7   21 154  25  91
   2024 07 23 23:30  20 57 27.86    -23 37 43.3   0.0097 1.0254 169.2  m  20?   0.76  32.2   21 156  26  91
   2024 07 23 23:40  20 57 28.14    -23 37 36.7   0.0097 1.0254 169.2  m  20?   0.77  27.1   22 159  26  90
   2024 07 23 23:50  20 57 28.38    -23 37 29.5   0.0097 1.0254 169.2  m  20?   0.80  22.7   23 161  26  90
   2024 07 24 00:00  20 57 28.59    -23 37 21.9   0.0097 1.0254 169.2  m  20?   0.83  18.8   23 163  26  90
   2024 07 24 00:10  20 57 28.77    -23 37 13.8   0.0097 1.0254 169.2  m  20?   0.87  15.7   24 166  26  90
   2024 07 24 00:20  20 57 28.93    -23 37 05.1   0.0097 1.0254 169.2  m  20?   0.91  13.1   24 168  26  90
   2024 07 24 00:30  20 57 29.08    -23 36 55.9   0.0097 1.0254 169.2  m  20?   0.96  11.1   25 171  26  90
   2024 07 24 00:40  20 57 29.21    -23 36 46.3   0.0097 1.0254 169.2  m  20?   1.01   9.6   25 173  26  90
   2024 07 24 00:50  20 57 29.32    -23 36 36.1   0.0097 1.0254 169.2  m  20?   1.06   8.5   25 176  26  90
   2024 07 24 01:00  20 57 29.44    -23 36 25.3   0.0097 1.0254 169.2  m  20?   1.11   7.8   25 178  26  90
   2024 07 24 01:10  20 57 29.55    -23 36 14.1   0.0097 1.0254 169.2  t  20?   1.16   7.5   25 181  26  90
   2024 07 24 01:20  20 57 29.66    -23 36 02.3   0.0097 1.0254 169.2  m  20?   1.21   7.4   25 184  26  90
   2024 07 24 01:30  20 57 29.78    -23 35 50.0   0.0097 1.0254 169.2  m  20?   1.27   7.6   25 186  26  90
   2024 07 24 01:40  20 57 29.91    -23 35 37.2   0.0097 1.0254 169.2  m  20?   1.32   8.1   25 189  26  90
   2024 07 24 01:50  20 57 30.06    -23 35 23.9   0.0097 1.0254 169.2  m  20?   1.37   8.7   24 191  27  90
   2024 07 24 02:00  20 57 30.22    -23 35 10.1   0.0097 1.0254 169.2  m  20?   1.43   9.6   24 194  27  90
   2024 07 24 02:10  20 57 30.41    -23 34 55.7   0.0097 1.0254 169.2  m  20?   1.48  10.5   23 196  27  90
   2024 07 24 02:20  20 57 30.62    -23 34 40.9   0.0097 1.0254 169.3  m  20?   1.54  11.6   23 198  27  90
   2024 07 24 02:30  20 57 30.86    -23 34 25.6   0.0097 1.0254 169.3  m  20?   1.60  12.9   22 201  27  90
   2024 07 24 02:40  20 57 31.14    -23 34 09.7   0.0097 1.0254 169.3  m  20?   1.66  14.2   21 203  27  90
   2024 07 24 02:50  20 57 31.46    -23 33 53.5   0.0097 1.0254 169.3  m  20?   1.72  15.6   21 206  27  90
   2024 07 24 03:00  20 57 31.82    -23 33 36.7   0.0097 1.0254 169.3  m  20?   1.78  17.1   20 208  27  90
   2024 07 24 03:10  20 57 32.23    -23 33 19.5   0.0097 1.0254 169.3 Am  20?   1.84  18.7   19 210  27  90
   2024 07 24 03:20  20 57 32.68    -23 33 01.9   0.0097 1.0254 169.3 Am  20?   1.91  20.2   18 212  27  90
   2024 07 24 03:30  20 57 33.19    -23 32 43.8   0.0097 1.0254 169.3 Am  20?   1.97  21.9   17 214  27  90
   2024 07 24 03:40  20 57 33.76    -23 32 25.3   0.0097 1.0254 169.3 Am  20?   2.04  23.5   16 216  27  90
   2024 07 24 03:50  20 57 34.38    -23 32 06.4   0.0097 1.0254 169.3 Am  20?   2.11  25.2   15 219  27  90
   2024 07 24 04:00  20 57 35.07    -23 31 47.1   0.0097 1.0254 169.3 Nm  20?   2.18  26.9   13 221  27  90
   2024 07 24 04:10  20 57 35.83    -23 31 27.5   0.0097 1.0254 169.3 Nm  20?   2.26  28.6   12 223  28  90
   2024 07 24 04:20  20 57 36.65    -23 31 07.5   0.0097 1.0254 169.3 Nm  20?   2.34  30.2   11 224  28  90
   2024 07 24 04:30  20 57 37.54    -23 30 47.2   0.0097 1.0254 169.3 Nm  20?   2.42  31.9    9 226  28  90
   2024 07 24 04:40  20 57 38.51    -23 30 26.5   0.0097 1.0254 169.3 Cm  20?   2.50  33.5    8 228  28  89
   2024 07 24 04:50  20 57 39.56    -23 30 05.6   0.0097 1.0254 169.3 Cm  20?   2.58  35.2    7 230  28  89
   ................
   2024 07 24 20:30  21 02 39.66    -23 11 37.2   0.0098 1.0253 168.8 Nr  20?   2.03  88.6    0 120  37  84
   2024 07 24 20:40  21 02 41.09    -23 11 36.6   0.0098 1.0253 168.8 N   20?   1.91  87.9    1 122  37  84
   2024 07 24 20:50  21 02 42.43    -23 11 35.9   0.0097 1.0253 168.8 A   20?   1.79  87.1    2 124  37  84
   2024 07 24 21:00  21 02 43.68    -23 11 34.9   0.0097 1.0253 168.8 A   20?   1.68  86.1    4 125  37  83
   2024 07 24 21:10  21 02 44.85    -23 11 33.6   0.0097 1.0253 168.8 A   20?   1.56  84.9    5 127  38  83
   2024 07 24 21:20  21 02 45.94    -23 11 32.1   0.0097 1.0253 168.8 A   20?   1.46  83.4    7 129  38  83
   2024 07 24 21:30  21 02 46.95    -23 11 30.4   0.0097 1.0253 168.8 A   20?   1.35  81.7    8 131  38  83
   2024 07 24 21:40  21 02 47.89    -23 11 28.3   0.0097 1.0253 168.8     20?   1.26  79.6   10 132  38  83
   2024 07 24 21:50  21 02 48.75    -23 11 25.9   0.0097 1.0253 168.8  m  20?   1.16  77.1   11 134  38  83
   2024 07 24 22:00  21 02 49.53    -23 11 23.1   0.0097 1.0253 168.9  m  20?   1.08  74.2   12 136  38  83
   2024 07 24 22:10  21 02 50.25    -23 11 20.0   0.0097 1.0253 168.9  m  20?   1.00  70.7   14 138  38  83
   2024 07 24 22:20  21 02 50.91    -23 11 16.5   0.0097 1.0253 168.9  m  20?   0.93  66.7   15 140  38  83
   2024 07 24 22:30  21 02 51.50    -23 11 12.7   0.0097 1.0253 168.9  m  20?   0.87  62.1   16 142  38  83
   2024 07 24 22:40  21 02 52.03    -23 11 08.4   0.0097 1.0253 168.9  m  20?   0.82  57.0   17 144  38  83
   2024 07 24 22:50  21 02 52.50    -23 11 03.7   0.0097 1.0253 168.9  m  20?   0.79  51.4   18 147  39  83
   2024 07 24 23:00  21 02 52.92    -23 10 58.6   0.0097 1.0253 168.9  m  20?   0.76  45.6   19 149  39  83
   2024 07 24 23:10  21 02 53.29    -23 10 53.1   0.0097 1.0253 168.9  m  20?   0.75  39.6   20 151  39  83
   2024 07 24 23:20  21 02 53.62    -23 10 47.1   0.0097 1.0253 168.9  m  20?   0.75  33.8   21 153  39  83
   2024 07 24 23:30  21 02 53.90    -23 10 40.6   0.0097 1.0253 168.9  m  20?   0.76  28.3   22 156  39  83
   2024 07 24 23:40  21 02 54.14    -23 10 33.7   0.0097 1.0253 168.9  m  20?   0.78  23.4   22 158  39  83
   2024 07 24 23:50  21 02 54.35    -23 10 26.3   0.0097 1.0253 168.9  m  20?   0.81  19.0   23 160  39  83
   2024 07 25 00:00  21 02 54.53    -23 10 18.4   0.0097 1.0253 168.9  m  20?   0.84  15.4   24 163  39  83
   2024 07 25 00:10  21 02 54.68    -23 10 10.0   0.0097 1.0253 168.9  m  20?   0.88  12.4   24 165  39  82
   2024 07 25 00:20  21 02 54.81    -23 10 01.1   0.0097 1.0253 168.9  m  20?   0.93  10.0   25 168  39  82
   2024 07 25 00:30  21 02 54.92    -23 09 51.7   0.0097 1.0253 168.9  m  20?   0.97   8.1   25 170  39  82
   2024 07 25 00:40  21 02 55.01    -23 09 41.8   0.0097 1.0253 168.9  m  20?   1.02   6.7   25 173  39  82
   2024 07 25 00:50  21 02 55.09    -23 09 31.4   0.0097 1.0253 168.9  m  20?   1.07   5.7   25 175  40  82
   2024 07 25 01:00  21 02 55.17    -23 09 20.5   0.0097 1.0253 168.9  m  20?   1.12   5.1   26 178  40  82
   2024 07 25 01:10  21 02 55.24    -23 09 09.1   0.0097 1.0253 168.9  t  20?   1.17   4.9   26 181  40  82
   2024 07 25 01:20  21 02 55.32    -23 08 57.1   0.0097 1.0253 169.0  m  20?   1.22   4.9   25 183  40  82
   2024 07 25 01:30  21 02 55.40    -23 08 44.7   0.0097 1.0253 169.0  m  20?   1.28   5.2   25 186  40  82
   2024 07 25 01:40  21 02 55.49    -23 08 31.7   0.0097 1.0253 169.0  m  20?   1.33   5.7   25 188  40  82
   2024 07 25 01:50  21 02 55.60    -23 08 18.2   0.0097 1.0253 169.0  m  20?   1.38   6.4   25 191  40  82
   2024 07 25 02:00  21 02 55.72    -23 08 04.3   0.0097 1.0253 169.0  m  20?   1.43   7.3   24 193  40  82
   2024 07 25 02:10  21 02 55.87    -23 07 49.8   0.0097 1.0253 169.0  m  20?   1.49   8.3   24 196  40  82
   2024 07 25 02:20  21 02 56.04    -23 07 34.9   0.0097 1.0253 169.0  m  20?   1.54   9.5   23 198  40  82
   2024 07 25 02:30  21 02 56.24    -23 07 19.4   0.0097 1.0253 169.0  m  20?   1.60  10.8   23 201  40  82
   2024 07 25 02:40  21 02 56.48    -23 07 03.5   0.0097 1.0253 169.0  m  20?   1.65  12.1   22 203  40  82
   2024 07 25 02:50  21 02 56.75    -23 06 47.1   0.0097 1.0253 169.0  m  20?   1.71  13.6   21 205  40  82
   2024 07 25 03:00  21 02 57.06    -23 06 30.3   0.0097 1.0253 169.0  m  20?   1.77  15.2   20 208  40  82
   2024 07 25 03:10  21 02 57.42    -23 06 13.0   0.0097 1.0253 169.0 Am  20?   1.83  16.8   19 210  41  82
   2024 07 25 03:20  21 02 57.83    -23 05 55.3   0.0097 1.0253 169.0 Am  20?   1.89  18.4   18 212  41  82
   2024 07 25 03:30  21 02 58.30    -23 05 37.2   0.0097 1.0253 169.0 Am  20?   1.95  20.1   17 214  41  82
   2024 07 25 03:40  21 02 58.81    -23 05 18.6   0.0097 1.0253 169.0 Am  20?   2.02  21.8   16 216  41  82
   2024 07 25 03:50  21 02 59.39    -23 04 59.7   0.0097 1.0253 169.0 Am  20?   2.09  23.5   15 218  41  81
   2024 07 25 04:00  21 03 00.03    -23 04 40.4   0.0097 1.0253 169.0 Nm  20?   2.16  25.3   14 221  41  81
   2024 07 25 04:10  21 03 00.73    -23 04 20.7   0.0097 1.0253 169.0 Nm  20?   2.23  27.0   13 222  41  81
   2024 07 25 04:20  21 03 01.50    -23 04 00.7   0.0097 1.0253 169.1 Nm  20?   2.31  28.7   11 224  41  81
   2024 07 25 04:30  21 03 02.34    -23 03 40.3   0.0097 1.0253 169.1 Nm  20?   2.38  30.5   10 226  41  81
   2024 07 25 04:40  21 03 03.26    -23 03 19.7   0.0098 1.0253 169.1 Cm  20?   2.46  32.2    9 228  41  81
   2024 07 25 04:50  21 03 04.25    -23 02 58.7   0.0098 1.0253 169.1 Cm  20?   2.54  33.9    7 230  41  81
   ................
   2024 07 25 20:30  21 07 59.22    -22 44 05.5   0.0098 1.0252 168.6 Nr  20?   1.99  87.3    0 120  50  74
   2024 07 25 20:40  21 08 00.62    -22 44 04.5   0.0098 1.0252 168.6 N   20?   1.87  86.6    1 121  50  74
   2024 07 25 20:50  21 08 01.92    -22 44 03.3   0.0098 1.0252 168.6 A   20?   1.75  85.7    2 123  51  74
   2024 07 25 21:00  21 08 03.14    -22 44 01.9   0.0098 1.0252 168.6 A   20?   1.64  84.6    4 125  51  74
   2024 07 25 21:10  21 08 04.28    -22 44 00.3   0.0098 1.0252 168.6 A   20?   1.53  83.3    5 126  51  74
   2024 07 25 21:20  21 08 05.34    -22 43 58.4   0.0098 1.0252 168.6 A   20?   1.42  81.7    7 128  51  74
   2024 07 25 21:30  21 08 06.31    -22 43 56.2   0.0098 1.0252 168.6 A   20?   1.32  79.8    8 130  51  74
   2024 07 25 21:40  21 08 07.22    -22 43 53.8   0.0098 1.0252 168.6     20?   1.22  77.5   10 132  51  74
   2024 07 25 21:50  21 08 08.04    -22 43 51.0   0.0098 1.0252 168.6     20?   1.13  74.8   11 134  51  74
   2024 07 25 22:00  21 08 08.80    -22 43 47.9   0.0098 1.0252 168.6     20?   1.05  71.7   13 136  51  74
   2024 07 25 22:10  21 08 09.48    -22 43 44.4   0.0098 1.0252 168.6  m  20?   0.97  68.0   14 138  51  74
   2024 07 25 22:20  21 08 10.10    -22 43 40.6   0.0098 1.0252 168.6  m  20?   0.91  63.7   15 140  51  73
   2024 07 25 22:30  21 08 10.66    -22 43 36.4   0.0098 1.0252 168.6  m  20?   0.85  58.8   16 142  52  73
   2024 07 25 22:40  21 08 11.15    -22 43 31.8   0.0098 1.0252 168.6  m  20?   0.80  53.4   17 144  52  73
   2024 07 25 22:50  21 08 11.59    -22 43 26.8   0.0098 1.0252 168.6  m  20?   0.77  47.6   18 146  52  73
   2024 07 25 23:00  21 08 11.98    -22 43 21.4   0.0098 1.0252 168.6  m  20?   0.75  41.5   19 148  52  73
   2024 07 25 23:10  21 08 12.32    -22 43 15.6   0.0098 1.0252 168.6  m  20?   0.74  35.4   20 151  52  73
   2024 07 25 23:20  21 08 12.61    -22 43 09.3   0.0098 1.0252 168.6  m  20?   0.75  29.6   21 153  52  73
   2024 07 25 23:30  21 08 12.85    -22 43 02.6   0.0098 1.0252 168.6  m  20?   0.76  24.2   22 155  52  73
   2024 07 25 23:40  21 08 13.06    -22 42 55.4   0.0098 1.0252 168.6  m  20?   0.79  19.4   23 158  52  73
   2024 07 25 23:50  21 08 13.24    -22 42 47.8   0.0098 1.0252 168.6  m  20?   0.82  15.2   24 160  52  73
   2024 07 26 00:00  21 08 13.38    -22 42 39.6   0.0098 1.0252 168.7  m  20?   0.85  11.8   24 162  52  73
   2024 07 26 00:10  21 08 13.49    -22 42 31.0   0.0098 1.0252 168.7  m  20?   0.90   8.9   25 165  52  73
   2024 07 26 00:20  21 08 13.58    -22 42 21.9   0.0098 1.0252 168.7  m  20?   0.94   6.7   25 167  53  73
   2024 07 26 00:30  21 08 13.65    -22 42 12.4   0.0098 1.0252 168.7  m  20?   0.99   4.9   25 170  53  73
   2024 07 26 00:40  21 08 13.71    -22 42 02.3   0.0098 1.0252 168.7  m  20?   1.04   3.7   26 173  53  73
   2024 07 26 00:50  21 08 13.75    -22 41 51.7   0.0098 1.0252 168.7  m  20?   1.08   2.8   26 175  53  72
   2024 07 26 01:00  21 08 13.79    -22 41 40.6   0.0098 1.0252 168.7  m  20?   1.13   2.3   26 178  53  72
   2024 07 26 01:10  21 08 13.82    -22 41 29.0   0.0098 1.0252 168.7  t  20?   1.18   2.2   26 180  53  72
   2024 07 26 01:20  21 08 13.86    -22 41 16.9   0.0098 1.0252 168.7  m  20?   1.23   2.3   26 183  53  72
   2024 07 26 01:30  21 08 13.90    -22 41 04.3   0.0098 1.0252 168.7  m  20?   1.29   2.6   26 185  53  72
   2024 07 26 01:40  21 08 13.95    -22 40 51.3   0.0098 1.0252 168.7  m  20?   1.34   3.2   26 188  53  72
   2024 07 26 01:50  21 08 14.01    -22 40 37.7   0.0098 1.0252 168.7  m  20?   1.39   4.0   25 191  53  72
   2024 07 26 02:00  21 08 14.09    -22 40 23.6   0.0098 1.0252 168.7  m  20?   1.44   4.9   25 193  53  72
   2024 07 26 02:10  21 08 14.19    -22 40 09.0   0.0098 1.0252 168.7  m  20?   1.49   6.0   24 196  53  72
   2024 07 26 02:20  21 08 14.32    -22 39 54.0   0.0098 1.0252 168.7  m  20?   1.54   7.2   24 198  54  72
   2024 07 26 02:30  21 08 14.48    -22 39 38.5   0.0098 1.0252 168.7  m  20?   1.59   8.5   23 200  54  72
   2024 07 26 02:40  21 08 14.67    -22 39 22.5   0.0098 1.0252 168.8  m  20?   1.65  10.0   22 203  54  72
   2024 07 26 02:50  21 08 14.89    -22 39 06.1   0.0098 1.0252 168.8  m  20?   1.70  11.5   22 205  54  72
   2024 07 26 03:00  21 08 15.16    -22 38 49.2   0.0098 1.0252 168.8  m  20?   1.76  13.1   21 208  54  72
   2024 07 26 03:10  21 08 15.48    -22 38 31.9   0.0098 1.0252 168.8  m  20?   1.81  14.8   20 210  54  72
   2024 07 26 03:20  21 08 15.84    -22 38 14.1   0.0098 1.0252 168.8 Am  20?   1.87  16.5   19 212  54  72
   2024 07 26 03:30  21 08 16.25    -22 37 55.9   0.0098 1.0252 168.8 Am  20?   1.93  18.2   18 214  54  72
   2024 07 26 03:40  21 08 16.72    -22 37 37.4   0.0098 1.0252 168.8 Am  20?   2.00  20.0   17 216  54  72
   2024 07 26 03:50  21 08 17.24    -22 37 18.4   0.0098 1.0252 168.8 Am  20?   2.06  21.8   16 218  54  72
   2024 07 26 04:00  21 08 17.83    -22 36 59.1   0.0098 1.0252 168.8 Nm  20?   2.13  23.6   14 220  54  71
   2024 07 26 04:10  21 08 18.48    -22 36 39.4   0.0098 1.0252 168.8 Nm  20?   2.20  25.4   13 222  54  71
   2024 07 26 04:20  21 08 19.20    -22 36 19.4   0.0098 1.0252 168.8 Nm  20?   2.27  27.2   12 224  54  71
   2024 07 26 04:30  21 08 19.99    -22 35 59.1   0.0098 1.0252 168.8 Nm  20?   2.35  29.0   10 226  54  71
   2024 07 26 04:40  21 08 20.85    -22 35 38.4   0.0098 1.0252 168.8 Cm  20?   2.42  30.8    9 228  55  71
   2024 07 26 04:50  21 08 21.78    -22 35 17.4   0.0098 1.0252 168.8 Cm  20?   2.50  32.5    8 230  55  71
   ................
   2024 07 26 20:30  21 13 11.42    -22 16 03.2   0.0098 1.0251 168.3 Nr  20?   1.95  86.1    0 119  63  64
   2024 07 26 20:40  21 13 12.77    -22 16 01.8   0.0098 1.0251 168.3 N   20?   1.83  85.3    1 121  63  64
   2024 07 26 20:50  21 13 14.04    -22 16 00.2   0.0098 1.0251 168.3 A   20?   1.71  84.3    2 123  64  63
   2024 07 26 21:00  21 13 15.22    -22 15 58.4   0.0098 1.0251 168.3 A   20?   1.60  83.1    4 124  64  63
   2024 07 26 21:10  21 13 16.33    -22 15 56.4   0.0098 1.0251 168.3 A   20?   1.49  81.6    6 126  64  63
   2024 07 26 21:20  21 13 17.35    -22 15 54.2   0.0098 1.0251 168.3 A   20?   1.38  79.9    7 128  64  63
   2024 07 26 21:30  21 13 18.29    -22 15 51.6   0.0098 1.0251 168.3     20?   1.28  77.8    9 130  64  63
   2024 07 26 21:40  21 13 19.15    -22 15 48.8   0.0098 1.0251 168.3     20?   1.19  75.4   10 131  64  63
   2024 07 26 21:50  21 13 19.94    -22 15 45.7   0.0098 1.0251 168.4     20?   1.10  72.5   11 133  64  63
   2024 07 26 22:00  21 13 20.66    -22 15 42.2   0.0098 1.0251 168.4     20?   1.01  69.1   13 135  64  63
   2024 07 26 22:10  21 13 21.31    -22 15 38.5   0.0098 1.0251 168.4     20?   0.94  65.1   14 137  64  63
   2024 07 26 22:20  21 13 21.89    -22 15 34.3   0.0098 1.0251 168.4     20?   0.88  60.5   15 139  65  63
   2024 07 26 22:30  21 13 22.41    -22 15 29.8   0.0098 1.0251 168.4  m  20?   0.83  55.3   16 141  65  63
   2024 07 26 22:40  21 13 22.87    -22 15 25.0   0.0098 1.0251 168.4  m  20?   0.78  49.6   18 143  65  63
   2024 07 26 22:50  21 13 23.27    -22 15 19.7   0.0098 1.0251 168.4  m  20?   0.76  43.5   19 146  65  62
   2024 07 26 23:00  21 13 23.62    -22 15 14.0   0.0098 1.0251 168.4  m  20?   0.74  37.2   20 148  65  62
   2024 07 26 23:10  21 13 23.92    -22 15 07.9   0.0098 1.0251 168.4  m  20?   0.74  31.1   21 150  65  62
   2024 07 26 23:20  21 13 24.17    -22 15 01.4   0.0098 1.0251 168.4  m  20?   0.75  25.3   22 152  65  62
   2024 07 26 23:30  21 13 24.38    -22 14 54.4   0.0098 1.0251 168.4  m  20?   0.77  20.0   22 155  65  62
   2024 07 26 23:40  21 13 24.55    -22 14 47.0   0.0098 1.0251 168.4  m  20?   0.79  15.3   23 157  65  62
   2024 07 26 23:50  21 13 24.69    -22 14 39.1   0.0098 1.0251 168.4  m  20?   0.83  11.3   24 160  65  62
   2024 07 27 00:00  21 13 24.79    -22 14 30.8   0.0098 1.0251 168.4  m  20?   0.87   8.0   24 162  66  62
   2024 07 27 00:10  21 13 24.86    -22 14 22.0   0.0098 1.0251 168.4  m  20?   0.91   5.4   25 164  66  62
   2024 07 27 00:20  21 13 24.92    -22 14 12.7   0.0098 1.0251 168.4  m  20?   0.95   3.3   25 167  66  62
   2024 07 27 00:30  21 13 24.95    -22 14 02.9   0.0098 1.0251 168.4  m  20?   1.00   1.7   26 170  66  62
   2024 07 27 00:40  21 13 24.96    -22 13 52.7   0.0098 1.0251 168.4  m  20?   1.05   0.6   26 172  66  62
   2024 07 27 00:50  21 13 24.97    -22 13 41.9   0.0098 1.0251 168.4  m  20?   1.10 359.8   26 175  66  62
   2024 07 27 01:00  21 13 24.96    -22 13 30.7   0.0098 1.0251 168.5  m  20?   1.15 359.4   26 177  66  61
   2024 07 27 01:10  21 13 24.95    -22 13 19.0   0.0098 1.0251 168.5  t  20?   1.20 359.3   26 180  66  61
   2024 07 27 01:20  21 13 24.95    -22 13 06.8   0.0098 1.0251 168.5  m  20?   1.25 359.5   26 183  66  61
   2024 07 27 01:30  21 13 24.94    -22 12 54.1   0.0098 1.0251 168.5  m  20?   1.29 359.9   26 185  66  61
   2024 07 27 01:40  21 13 24.95    -22 12 40.9   0.0098 1.0251 168.5  m  20?   1.34   0.6   26 188  66  61
   2024 07 27 01:50  21 13 24.97    -22 12 27.2   0.0098 1.0251 168.5  m  20?   1.39   1.4   26 190  66  61
   2024 07 27 02:00  21 13 25.00    -22 12 13.1   0.0098 1.0251 168.5  m  20?   1.44   2.4   25 193  67  61
   2024 07 27 02:10  21 13 25.06    -22 11 58.5   0.0098 1.0251 168.5  m  20?   1.49   3.6   25 195  67  61
   2024 07 27 02:20  21 13 25.14    -22 11 43.4   0.0098 1.0251 168.5  m  20?   1.54   4.8   24 198  67  61
   2024 07 27 02:30  21 13 25.25    -22 11 27.8   0.0098 1.0251 168.5  m  20?   1.59   6.2   24 200  67  61
   2024 07 27 02:40  21 13 25.39    -22 11 11.8   0.0098 1.0251 168.5  m  20?   1.64   7.7   23 203  67  61
   2024 07 27 02:50  21 13 25.57    -22 10 55.3   0.0098 1.0251 168.5  m  20?   1.69   9.3   22 205  67  61
   2024 07 27 03:00  21 13 25.79    -22 10 38.4   0.0098 1.0251 168.5  m  20?   1.74  11.0   21 207  67  61
   2024 07 27 03:10  21 13 26.06    -22 10 21.0   0.0098 1.0251 168.5  m  20?   1.80  12.7   20 210  67  61
   2024 07 27 03:20  21 13 26.37    -22 10 03.3   0.0098 1.0251 168.5 Am  20?   1.86  14.5   19 212  67  61
   2024 07 27 03:30  21 13 26.73    -22 09 45.1   0.0098 1.0251 168.5 Am  20?   1.91  16.3   18 214  67  61
   2024 07 27 03:40  21 13 27.15    -22 09 26.6   0.0098 1.0251 168.6 Am  20?   1.97  18.1   17 216  67  61
   2024 07 27 03:50  21 13 27.62    -22 09 07.6   0.0098 1.0251 168.6 Am  20?   2.04  20.0   16 218  67  60
   2024 07 27 04:00  21 13 28.15    -22 08 48.3   0.0098 1.0251 168.6 Nm  20?   2.10  21.9   15 221  67  60
   2024 07 27 04:10  21 13 28.75    -22 08 28.7   0.0098 1.0251 168.6 Nm  20?   2.17  23.7   14 223  68  60
   2024 07 27 04:20  21 13 29.42    -22 08 08.7   0.0098 1.0251 168.6 Nm  20?   2.24  25.6   12 224  68  60
   2024 07 27 04:30  21 13 30.15    -22 07 48.4   0.0098 1.0251 168.6 Nm  20?   2.31  27.5   11 226  68  60
   2024 07 27 04:40  21 13 30.96    -22 07 27.8   0.0098 1.0251 168.6 Cm  20?   2.38  29.3   10 228  68  60
   2024 07 27 04:50  21 13 31.84    -22 07 06.8   0.0098 1.0251 168.6 Cm  20?   2.46  31.1    8 230  68  60
   2024 07 27 05:00  21 13 32.79    -22 06 45.7   0.0098 1.0251 168.6 Cm  20?   2.54  32.9    7 232  68  60
   ................
   2024 07 27 20:30  21 18 16.01    -21 47 34.8   0.0098 1.0251 168.1 Nr  20?   1.90  84.9    0 119  76  52
   2024 07 27 20:40  21 18 17.32    -21 47 33.1   0.0098 1.0251 168.1 N   20?   1.78  84.0    1 120  76  52
   2024 07 27 20:50  21 18 18.55    -21 47 31.1   0.0098 1.0251 168.1 A   20?   1.67  82.9    3 122  76  52
   2024 07 27 21:00  21 18 19.69    -21 47 29.0   0.0098 1.0250 168.1 A   20?   1.55  81.6    4 124  76  52
   2024 07 27 21:10  21 18 20.76    -21 47 26.6   0.0098 1.0250 168.1 A   20?   1.44  80.0    6 125  77  52
   2024 07 27 21:20  21 18 21.74    -21 47 24.0   0.0098 1.0250 168.1 A   20?   1.34  78.1    7 127  77  52
   2024 07 27 21:30  21 18 22.64    -21 47 21.2   0.0098 1.0250 168.1     20?   1.24  75.8    9 129  77  52
   2024 07 27 21:40  21 18 23.46    -21 47 18.0   0.0098 1.0250 168.1     20?   1.15  73.2   10 131  77  52
   2024 07 27 21:50  21 18 24.22    -21 47 14.6   0.0098 1.0250 168.1     20?   1.06  70.0   12 133  77  52
   2024 07 27 22:00  21 18 24.89    -21 47 10.8   0.0098 1.0250 168.1     20?   0.98  66.3   13 135  77  52
   2024 07 27 22:10  21 18 25.51    -21 47 06.7   0.0098 1.0250 168.1     20?   0.91  62.0   14 137  77  52
   2024 07 27 22:20  21 18 26.05    -21 47 02.3   0.0098 1.0250 168.1     20?   0.85  57.1   16 139  77  51
   2024 07 27 22:30  21 18 26.53    -21 46 57.5   0.0098 1.0250 168.1     20?   0.80  51.5   17 141  77  51
   2024 07 27 22:40  21 18 26.95    -21 46 52.4   0.0098 1.0250 168.1     20?   0.76  45.5   18 143  78  51
   2024 07 27 22:50  21 18 27.32    -21 46 46.8   0.0098 1.0250 168.2     20?   0.74  39.2   19 145  78  51
   2024 07 27 23:00  21 18 27.63    -21 46 40.9   0.0098 1.0250 168.2  m  20?   0.73  32.8   20 147  78  51
   2024 07 27 23:10  21 18 27.89    -21 46 34.5   0.0098 1.0250 168.2  m  20?   0.73  26.6   21 150  78  51
   2024 07 27 23:20  21 18 28.10    -21 46 27.8   0.0098 1.0250 168.2  m  20?   0.75  20.8   22 152  78  51
   2024 07 27 23:30  21 18 28.27    -21 46 20.6   0.0098 1.0250 168.2  m  20?   0.77  15.6   23 154  78  51
   2024 07 27 23:40  21 18 28.40    -21 46 13.0   0.0098 1.0250 168.2  m  20?   0.80  11.1   24 157  78  51
   2024 07 27 23:50  21 18 28.49    -21 46 04.9   0.0098 1.0250 168.2  m  20?   0.84   7.3   24 159  78  51
   2024 07 28 00:00  21 18 28.56    -21 45 56.4   0.0098 1.0250 168.2  m  20?   0.88   4.2   25 162  78  51
   

MMS-1 (JPL-ID: -140482)

   Date (UTC) HH:MM   RA              Dec         delta   r     elong SM  mag  '/hr    PA   alt  az moo ill
   ---- -- -- -----  -------------   -----------  ------ ------ ----- --  --- ------ ------ --- --- --- ---
   2024 07 14 00:20  02 05 21.12    +09 07 17.3    36836 1.0165  79.3     11? 808.06  59.0    0  77 168  50
   2024 07 14 00:30  02 13 42.03    +10 20 28.1    34534 1.0165  77.0     11? 918.28  59.9    1  77 166  50
   2024 07 14 00:40  02 23 23.01    +11 41 45.0    32185 1.0165  74.3     11? 1057.0  60.9    2  76 164  50
   2024 07 14 00:50  02 34 48.37    +13 12 29.3    29790 1.0165  71.2     11? 1235.3  62.3    2  74 161  50
   2024 07 14 01:00  02 48 33.30    +14 54 09.8    27351 1.0164  67.5     11? 1469.5  64.0    3  73 157  50
   2024 07 14 01:10  03 05 30.18    +16 48 05.8    24876 1.0164  63.1  e  10? 1785.3  66.2    3  70 153  50
   2024 07 14 01:20  03 26 59.49    +18 54 39.2    22381 1.0164  57.6     10? 2223.2  69.2    2  67 148  50
   2024 07 14 01:30  03 55 07.86    +21 10 57.9    19895 1.0164  50.6     10? 2847.9  73.2    1  62 141  50
   ................
   2024 07 14 23:40  22 34 45.63    -33 41 01.4   155223 1.0173 139.3  m  15?  22.44  39.5    0 137 110  59
   2024 07 14 23:50  22 34 56.63    -33 38 07.1   155610 1.0173 139.2  m  15?  22.04  36.9    1 139 110  59
   2024 07 15 00:00  22 35 06.80    -33 35 09.7   155995 1.0173 139.2     15?  21.72  34.3    2 140 110  59
   2024 07 15 00:10  22 35 16.19    -33 32 09.0   156380 1.0173 139.2     15?  21.48  31.7    4 142 110  59
   2024 07 15 00:20  22 35 24.83    -33 29 04.8   156764 1.0173 139.2     15?  21.32  29.1    5 144 110  59
   2024 07 15 00:30  22 35 32.74    -33 25 57.0   157149 1.0173 139.1     15?  21.25  26.5    6 145 110  59
   2024 07 15 00:40  22 35 39.97    -33 22 45.3   157533 1.0173 139.1     15?  21.25  24.1    7 147 110  60
   2024 07 15 00:50  22 35 46.55    -33 19 29.6   157918 1.0173 139.1     15?  21.31  21.7    8 149 110  60
   2024 07 15 01:00  22 35 52.53    -33 16 09.9   158303 1.0173 139.1     15?  21.44  19.5    9 151 110  60
   2024 07 15 01:10  22 35 57.94    -33 12 45.9   158690 1.0173 139.1     15?  21.63  17.4   10 153 110  60
   2024 07 15 01:20  22 36 02.81    -33 09 17.6   159077 1.0173 139.1     15?  21.87  15.4   11 155 110  60
   2024 07 15 01:30  22 36 07.19    -33 05 44.9   159466 1.0173 139.1     15?  22.15  13.7   12 157 110  60
   2024 07 15 01:40  22 36 11.12    -33 02 07.6   159856 1.0173 139.1     15?  22.48  12.1   12 159 110  60
   2024 07 15 01:50  22 36 14.64    -32 58 25.8   160248 1.0173 139.1     15?  22.83  10.6   13 161 110  60
   2024 07 15 02:00  22 36 17.79    -32 54 39.3   160642 1.0173 139.1     15?  23.22   9.3   14 163 110  60
   2024 07 15 02:10  22 36 20.61    -32 50 48.1   161038 1.0173 139.1     15?  23.62   8.2   14 165 110  60
   2024 07 15 02:20  22 36 23.15    -32 46 52.1   161437 1.0173 139.1     15?  24.05   7.3   15 167 110  60
   2024 07 15 02:30  22 36 25.43    -32 42 51.4   161837 1.0173 139.1     15?  24.49   6.5   15 169 110  60
   2024 07 15 02:40  22 36 27.51    -32 38 46.0   162240 1.0173 139.1     15?  24.94   5.8   16 171 110  60
   2024 07 15 02:50  22 36 29.42    -32 34 35.7   162646 1.0173 139.1     15?  25.39   5.3   16 173 110  60
   2024 07 15 03:00  22 36 31.21    -32 30 20.7   163054 1.0173 139.1 A   15?  25.85   4.9   16 175 109  60
   2024 07 15 03:10  22 36 32.91    -32 26 01.0   163465 1.0173 139.1 A   15?  26.31   4.6   16 178 109  61
   2024 07 15 03:20  22 36 34.57    -32 21 36.6   163879 1.0173 139.1 At  15?  26.78   4.5   16 180 109  61
   2024 07 15 03:30  22 36 36.22    -32 17 07.5   164296 1.0173 139.1 Ae  15?  27.24   4.5   16 182 109  61
   2024 07 15 03:40  22 36 37.91    -32 12 33.9   164716 1.0173 139.1 A   15?  27.69   4.5   16 184 109  61
   2024 07 15 03:50  22 36 39.68    -32 07 55.8   165138 1.0173 139.1 N   15?  28.15   4.7   16 186 109  61
   2024 07 15 04:00  22 36 41.55    -32 03 13.3   165564 1.0173 139.1 N   15?  28.59   5.0   16 189 109  61
   2024 07 15 04:10  22 36 43.57    -31 58 26.5   165992 1.0173 139.1 N   15?  29.04   5.3   16 191 109  61
   2024 07 15 04:20  22 36 45.78    -31 53 35.4   166423 1.0173 139.1 N   15?  29.48   5.7   15 193 109  61
   2024 07 15 04:30  22 36 48.21    -31 48 40.3   166858 1.0173 139.1 C   15?  29.91   6.2   15 195 109  61
   2024 07 15 04:40  22 36 50.89    -31 43 41.2   167294 1.0173 139.1 C   15?  30.33   6.8   15 197 109  61
   ................
   2024 07 15 23:30  23 17 29.38    -24 28 56.9   186323 1.0172 130.5  m  15?  16.77  44.4    0 123 111  68
   2024 07 15 23:40  23 17 37.62    -24 26 56.0   186082 1.0172 130.5  m  15?  16.30  41.6    1 124 111  68
   2024 07 15 23:50  23 17 45.21    -24 24 53.0   185841 1.0172 130.5  m  15?  15.90  38.7    3 126 111  69
   2024 07 16 00:00  23 17 52.16    -24 22 47.8   185600 1.0172 130.4  m  15?  15.56  35.7    4 128 111  69
   2024 07 16 00:10  23 17 58.49    -24 20 40.1   185359 1.0172 130.4  m  15?  15.30  32.6    6 130 111  69
   2024 07 16 00:20  23 18 04.20    -24 18 29.9   185119 1.0172 130.4  m  15?  15.10  29.5    7 131 111  69
   2024 07 16 00:30  23 18 09.32    -24 16 17.0   184880 1.0172 130.4     15?  14.97  26.3    9 133 111  69
   2024 07 16 00:40  23 18 13.87    -24 14 01.2   184642 1.0172 130.4     15?  14.91  23.1   10 135 111  69
   2024 07 16 00:50  23 18 17.86    -24 11 42.4   184405 1.0172 130.3     15?  14.93  20.0   11 137 111  69
   2024 07 16 01:00  23 18 21.31    -24 09 20.5   184170 1.0172 130.3     15?  15.00  17.0   13 139 111  69
   2024 07 16 01:10  23 18 24.24    -24 06 55.2   183937 1.0172 130.3     15?  15.14  14.1   14 141 111  69
   2024 07 16 01:20  23 18 26.69    -24 04 26.6   183707 1.0172 130.3     15?  15.33  11.4   15 143 111  69
   2024 07 16 01:30  23 18 28.66    -24 01 54.5   183478 1.0172 130.3     15?  15.57   8.9   16 145 111  69
   2024 07 16 01:40  23 18 30.19    -23 59 18.7   183253 1.0172 130.3     15?  15.86   6.6   17 147 111  69
   2024 07 16 01:50  23 18 31.29    -23 56 39.2   183030 1.0172 130.3     15?  16.18   4.5   18 149 111  69
   2024 07 16 02:00  23 18 32.01    -23 53 55.8   182811 1.0172 130.3     15?  16.54   2.6   19 151 111  69
   2024 07 16 02:10  23 18 32.35    -23 51 08.5   182595 1.0172 130.3     15?  16.92   0.9   20 153 111  69
   2024 07 16 02:20  23 18 32.36    -23 48 17.2   182382 1.0172 130.3     15?  17.32 359.4   21 156 111  69
   2024 07 16 02:30  23 18 32.07    -23 45 21.7   182173 1.0172 130.3     15?  17.75 358.1   22 158 111  69
   2024 07 16 02:40  23 18 31.49    -23 42 22.1   181968 1.0172 130.3     15?  18.18 357.0   23 160 111  70
   2024 07 16 02:50  23 18 30.66    -23 39 18.3   181766 1.0172 130.3     15?  18.63 356.0   23 163 111  70
   2024 07 16 03:00  23 18 29.62    -23 36 10.1   181569 1.0172 130.3 A   15?  19.08 355.3   24 165 111  70
   2024 07 16 03:10  23 18 28.39    -23 32 57.7   181376 1.0172 130.3 A   15?  19.53 354.7   24 168 111  70
   2024 07 16 03:20  23 18 27.01    -23 29 40.9   181187 1.0172 130.3 A   15?  19.98 354.3   25 170 111  70
   2024 07 16 03:30  23 18 25.51    -23 26 19.6   181002 1.0172 130.3 A   15?  20.44 354.0   25 173 110  70
   2024 07 16 03:40  23 18 23.91    -23 22 54.0   180822 1.0172 130.3 A   15?  20.89 353.9   25 175 110  70
   2024 07 16 03:50  23 18 22.27    -23 19 24.0   180646 1.0172 130.3 N   15?  21.33 353.8   25 178 110  70
   2024 07 16 04:00  23 18 20.60    -23 15 49.5   180475 1.0172 130.3 Nt  15?  21.77 353.9   25 181 110  70
   2024 07 16 04:10  23 18 18.94    -23 12 10.6   180308 1.0172 130.3 Ne  15?  22.21 354.2   25 183 110  70
   2024 07 16 04:20  23 18 17.33    -23 08 27.3   180145 1.0172 130.3 N   15?  22.63 354.5   25 186 110  70
   2024 07 16 04:30  23 18 15.80    -23 04 39.6   179987 1.0172 130.3 C   15?  23.06 354.9   25 188 110  70
   2024 07 16 04:40  23 18 14.38    -23 00 47.6   179833 1.0172 130.3 C   15?  23.47 355.4   25 191 110  70
   2024 07 16 04:50  23 18 13.10    -22 56 51.3   179684 1.0172 130.3 C   15?  23.88 356.0   25 193 110  70
   ................
   2024 07 16 23:30  00 03 23.63    -14 01 51.1   133292 1.0168 118.6  m  14?  47.48  47.8    0 108 114  77
   2024 07 16 23:40  00 03 47.45    -13 56 29.4   132347 1.0168 118.4  m  14?  47.19  46.6    2 110 114  77
   2024 07 16 23:50  00 04 10.67    -13 51 02.4   131397 1.0168 118.3  m  14?  46.94  45.4    4 112 114  77
   2024 07 17 00:00  00 04 33.29    -13 45 29.8   130442 1.0168 118.2  m  14?  46.73  44.2    5 113 115  77
   2024 07 17 00:10  00 04 55.30    -13 39 51.4   129482 1.0168 118.1  m  14?  46.57  42.9    7 115 115  77
   2024 07 17 00:20  00 05 16.72    -13 34 07.0   128518 1.0168 118.0  m  14?  46.45  41.6    9 116 115  77
   2024 07 17 00:30  00 05 37.54    -13 28 16.3   127550 1.0167 117.9  m  14?  46.38  40.3   10 118 115  78
   2024 07 17 00:40  00 05 57.78    -13 22 19.0   126578 1.0167 117.8  m  14?  46.37  39.0   12 120 115  78
   2024 07 17 00:50  00 06 17.45    -13 16 14.8   125602 1.0167 117.7  m  14?  46.41  37.7   14 121 115  78
   2024 07 17 01:00  00 06 36.55    -13 10 03.5   124623 1.0167 117.6     14?  46.51  36.3   15 123 115  78
   2024 07 17 01:10  00 06 55.10    -13 03 44.8   123640 1.0167 117.5     14?  46.67  35.0   17 125 115  78
   2024 07 17 01:20  00 07 13.12    -12 57 18.4   122655 1.0167 117.4     14?  46.89  33.7   18 127 115  78
   2024 07 17 01:30  00 07 30.62    -12 50 44.1   121666 1.0167 117.3     14?  47.17  32.4   20 129 115  78
   2024 07 17 01:40  00 07 47.62    -12 44 01.5   120675 1.0167 117.2     14?  47.51  31.1   22 131 115  78
   2024 07 17 01:50  00 08 04.14    -12 37 10.3   119682 1.0167 117.1     14?  47.92  29.9   23 133 115  78
   2024 07 17 02:00  00 08 20.20    -12 30 10.3   118686 1.0167 117.1     14?  48.38  28.7   24 135 115  78
   2024 07 17 02:10  00 08 35.83    -12 23 01.2   117688 1.0167 117.0     14?  48.92  27.6   26 137 115  78
   2024 07 17 02:20  00 08 51.05    -12 15 42.6   116687 1.0167 116.9     14?  49.51  26.5   27 139 115  78
   2024 07 17 02:30  00 09 05.89    -12 08 14.4   115685 1.0167 116.8     14?  50.17  25.4   28 142 115  78
   2024 07 17 02:40  00 09 20.38    -12 00 36.0   114681 1.0167 116.7     14?  50.89  24.5   30 144 115  78
   2024 07 17 02:50  00 09 34.56    -11 52 47.4   113674 1.0167 116.6     14?  51.67  23.6   31 147 115  78
   2024 07 17 03:00  00 09 48.45    -11 44 48.1   112666 1.0167 116.5 A   14?  52.52  22.7   32 149 115  78
   2024 07 17 03:10  00 10 02.09    -11 36 37.9   111656 1.0167 116.4 A   14?  53.42  21.9   33 152 115  78
   2024 07 17 03:20  00 10 15.52    -11 28 16.4   110645 1.0167 116.3 A   14?  54.39  21.2   34 154 115  78
   2024 07 17 03:30  00 10 28.79    -11 19 43.3   109631 1.0167 116.3 A   14?  55.41  20.6   35 157 116  79
   2024 07 17 03:40  00 10 41.93    -11 10 58.2   108616 1.0167 116.2 A   14?  56.49  20.0   35 160 116  79
   2024 07 17 03:50  00 10 54.98    -11 02 01.0   107598 1.0166 116.1 N   14?  57.64  19.5   36 163 116  79
   2024 07 17 04:00  00 11 08.00    -10 52 51.1   106579 1.0166 116.0 N   14?  58.84  19.1   37 166 116  79
   2024 07 17 04:10  00 11 21.03    -10 43 28.3   105558 1.0166 115.9 N   14?  60.10  18.7   37 169 116  79
   2024 07 17 04:20  00 11 34.13    -10 33 52.2   104535 1.0166 115.8 N   14?  61.42  18.5   38 172 116  79
   2024 07 17 04:30  00 11 47.34    -10 24 02.5   103509 1.0166 115.7 C   14?  62.80  18.3   38 175 116  79
   2024 07 17 04:40  00 12 00.72    -10 13 58.8   102481 1.0166 115.6 C   13?  64.24  18.1   39 178 116  79
   2024 07 17 04:50  00 12 14.33    -10 03 40.6   101451 1.0166 115.5 Ct  13?  65.75  18.0   39 181 116  79
   ................
   2024 07 17 23:50  21 43 43.28    -42 54 35.5    97655 1.0168 147.7  m  14?  72.29  40.6    0 154  62  85
   2024 07 18 00:00  21 44 25.31    -42 45 27.9    98658 1.0168 147.7  m  14?  70.85  39.4    1 155  62  85
   2024 07 18 00:10  21 45 05.40    -42 36 21.4    99653 1.0168 147.6  m  14?  69.56  38.2    1 157  62  85
   2024 07 18 00:20  21 45 43.69    -42 27 15.5   100641 1.0169 147.6  m  14?  68.40  37.0    2 158  62  85
   2024 07 18 00:30  21 46 20.29    -42 18 10.1   101621 1.0169 147.6  m  14?  67.36  35.9    3 160  63  85
   2024 07 18 00:40  21 46 55.33    -42 09 04.8   102595 1.0169 147.6  m  14?  66.44  34.8    4 162  63  85
   2024 07 18 00:50  21 47 28.90    -41 59 59.4   103563 1.0169 147.6  m  14?  65.63  33.7    4 163  63  85
   2024 07 18 01:00  21 48 01.13    -41 50 53.7   104525 1.0169 147.6  m  14?  64.92  32.7    5 165  63  86
   2024 07 18 01:10  21 48 32.11    -41 41 47.5   105481 1.0169 147.6  m  14?  64.30  31.8    6 167  63  86
   2024 07 18 01:20  21 49 01.95    -41 32 40.6   106432 1.0169 147.6  m  14?  63.76  30.9    6 168  63  86
   2024 07 18 01:30  21 49 30.75    -41 23 32.9   107379 1.0169 147.6  m  14?  63.31  30.0    7 170  63  86
   2024 07 18 01:40  21 49 58.59    -41 14 24.3   108321 1.0169 147.6     14?  62.92  29.2    7 172  63  86
   2024 07 18 01:50  21 50 25.58    -41 05 14.7   109258 1.0169 147.6     14?  62.60  28.5    7 174  63  86
   2024 07 18 02:00  21 50 51.79    -40 56 04.1   110192 1.0169 147.6     15?  62.34  27.8    8 175  63  86
   2024 07 18 02:10  21 51 17.30    -40 46 52.4   111122 1.0169 147.6     15?  62.13  27.2    8 177  63  86
   2024 07 18 02:20  21 51 42.21    -40 37 39.5   112049 1.0169 147.6     15?  61.96  26.7    8 179  63  86
   2024 07 18 02:30  21 52 06.59    -40 28 25.6   112972 1.0169 147.6  t  15?  61.84  26.3    8 181  63  86
   2024 07 18 02:40  21 52 30.51    -40 19 10.5   113893 1.0169 147.6     15?  61.75  25.9    8 183  63  86
   2024 07 18 02:50  21 52 54.04    -40 09 54.4   114810 1.0169 147.6  e  15?  61.70  25.5    8 185  63  86
   2024 07 18 03:00  21 53 17.26    -40 00 37.2   115725 1.0169 147.7 A   15?  61.67  25.3    8 187  63  86
   2024 07 18 03:10  21 53 40.22    -39 51 19.2   116637 1.0169 147.7 A   15?  61.67  25.1    8 188  63  86
   2024 07 18 03:20  21 54 03.00    -39 42 00.3   117547 1.0169 147.7 A   15?  61.69  24.9    8 190  63  86
   2024 07 18 03:30  21 54 25.65    -39 32 40.6   118455 1.0169 147.7 A   15?  61.73  24.9    8 192  64  86
   2024 07 18 03:40  21 54 48.23    -39 23 20.4   119361 1.0169 147.7 A   15?  61.79  24.9    8 194  64  86
   2024 07 18 03:50  21 55 10.79    -39 13 59.6   120264 1.0169 147.7 N   15?  61.85  24.9    7 196  64  86
   2024 07 18 04:00  21 55 33.38    -39 04 38.5   121165 1.0169 147.7 N   15?  61.93  25.0    7 198  64  86
   2024 07 18 04:10  21 55 56.06    -38 55 17.2   122065 1.0169 147.7 N   15?  62.02  25.2    6 200  64  86
   2024 07 18 04:20  21 56 18.87    -38 45 55.8   122962 1.0170 147.7 N   15?  62.12  25.4    6 201  64  86
   2024 07 18 04:30  21 56 41.86    -38 36 34.6   123858 1.0170 147.7 C   15?  62.23  25.6    5 203  64  86
   2024 07 18 04:40  21 57 05.06    -38 27 13.7   124751 1.0170 147.7 C   15?  62.34  25.9    5 205  64  87
   2024 07 18 04:50  21 57 28.51    -38 17 53.3   125643 1.0170 147.7 C   15?  62.45  26.2    4 207  64  87
   ................
   2024 07 18 23:20  22 57 06.23    -28 56 39.7   180259 1.0171 137.9  m  15?  16.14  41.3    0 130  68  92
   2024 07 18 23:30  22 57 14.00    -28 54 37.1   180324 1.0171 137.9  m  15?  15.74  38.2    1 131  68  92
   2024 07 18 23:40  22 57 21.08    -28 52 32.0   180388 1.0171 137.8  m  15?  15.41  35.0    3 133  68  92
   2024 07 18 23:50  22 57 27.49    -28 50 24.2   180452 1.0171 137.8  m  15?  15.17  31.8    4 134  68  92
   2024 07 19 00:00  22 57 33.25    -28 48 13.7   180517 1.0171 137.8  m  15?  15.00  28.5    5 136  68  92
   2024 07 19 00:10  22 57 38.39    -28 46 00.1   180583 1.0171 137.8  m  15?  14.91  25.2    7 138  68  92
   2024 07 19 00:20  22 57 42.92    -28 43 43.4   180650 1.0171 137.8  m  15?  14.89  21.9    8 140  68  92
   2024 07 19 00:30  22 57 46.87    -28 41 23.5   180718 1.0171 137.8  m  15?  14.94  18.8    9 142  68  92
   2024 07 19 00:40  22 57 50.26    -28 39 00.1   180788 1.0171 137.8  m  15?  15.07  15.8   10 143  68  92
   2024 07 19 00:50  22 57 53.14    -28 36 33.2   180860 1.0171 137.8  m  15?  15.25  13.0   11 145  68  92
   2024 07 19 01:00  22 57 55.51    -28 34 02.6   180934 1.0171 137.8  m  15?  15.48  10.4   13 147  68  92
   2024 07 19 01:10  22 57 57.41    -28 31 28.2   181010 1.0171 137.8  m  15?  15.77   8.0   14 149  68  92
   2024 07 19 01:20  22 57 58.87    -28 28 49.9   181089 1.0171 137.8  m  15?  16.09   5.9   15 151  68  92
   2024 07 19 01:30  22 57 59.92    -28 26 07.6   181170 1.0171 137.8  m  15?  16.45   3.9   15 154  68  92
   2024 07 19 01:40  22 58 00.59    -28 23 21.2   181255 1.0171 137.8  m  15?  16.84   2.2   16 156  68  92
   2024 07 19 01:50  22 58 00.91    -28 20 30.6   181343 1.0171 137.8  m  15?  17.25   0.7   17 158  68  92
   2024 07 19 02:00  22 58 00.91    -28 17 35.8   181434 1.0171 137.8  m  15?  17.67 359.3   18 160  68  92
   2024 07 19 02:10  22 58 00.63    -28 14 36.7   181528 1.0171 137.8  m  15?  18.11 358.2   18 162  68  92
   2024 07 19 02:20  22 58 00.10    -28 11 33.2   181626 1.0171 137.8  m  15?  18.56 357.3   19 165  68  92
   2024 07 19 02:30  22 57 59.36    -28 08 25.3   181728 1.0171 137.8     15?  19.02 356.6   19 167  68  92
   2024 07 19 02:40  22 57 58.43    -28 05 13.0   181833 1.0171 137.8     15?  19.48 356.0   20 169  68  92
   2024 07 19 02:50  22 57 57.35    -28 01 56.2   181943 1.0171 137.8     15?  19.93 355.6   20 171  68  92
   2024 07 19 03:00  22 57 56.16    -27 58 35.0   182057 1.0171 137.8     15?  20.39 355.3   21 174  68  92
   2024 07 19 03:10  22 57 54.88    -27 55 09.3   182174 1.0171 137.8 A   15?  20.84 355.2   21 176  68  92
   2024 07 19 03:20  22 57 53.57    -27 51 39.2   182296 1.0171 137.8 A   15?  21.29 355.2   21 179  67  92
   2024 07 19 03:30  22 57 52.24    -27 48 04.6   182422 1.0171 137.9 At  15?  21.73 355.3   21 181  67  92
   2024 07 19 03:40  22 57 50.94    -27 44 25.6   182552 1.0171 137.9 Ae  15?  22.16 355.5   21 183  67  93
   2024 07 19 03:50  22 57 49.69    -27 40 42.3   182686 1.0171 137.9 N   15?  22.59 355.9   21 186  67  93
   2024 07 19 04:00  22 57 48.54    -27 36 54.6   182825 1.0171 137.9 N   15?  23.01 356.3   21 188  67  93
   2024 07 19 04:10  22 57 47.51    -27 33 02.7   182967 1.0171 137.9 N   15?  23.42 356.8   20 190  67  93
   2024 07 19 04:20  22 57 46.63    -27 29 06.6   183114 1.0171 137.9 N   15?  23.82 357.4   20 193  67  93
   2024 07 19 04:30  22 57 45.95    -27 25 06.3   183265 1.0171 137.9 C   15?  24.22 358.1   20 195  67  93
   2024 07 19 04:40  22 57 45.49    -27 21 02.1   183419 1.0171 137.9 C   15?  24.61 358.9   19 198  67  93
   2024 07 19 04:50  22 57 45.29    -27 16 53.9   183578 1.0171 137.9 C   15?  24.99 359.7   19 200  67  93
   ................
   2024 07 19 23:10  23 35 04.77    -20 22 52.5   173458 1.0169 129.3  r  15?  22.71  46.8    0 116  67  96
   2024 07 19 23:20  23 35 16.14    -20 20 16.0   172938 1.0169 129.3  m  15?  22.19  44.7    1 118  67  96
   2024 07 19 23:30  23 35 26.84    -20 17 37.3   172417 1.0169 129.3  m  15?  21.71  42.5    2 120  67  96
   2024 07 19 23:40  23 35 36.88    -20 14 56.3   171894 1.0169 129.2  m  15?  21.29  40.3    4 121  67  96
   2024 07 19 23:50  23 35 46.26    -20 12 12.7   171370 1.0169 129.2  m  15?  20.92  37.9    6 123  67  97
   2024 07 20 00:00  23 35 55.01    -20 09 26.5   170845 1.0169 129.1  m  15?  20.60  35.5    7 125  67  97
   2024 07 20 00:10  23 36 03.13    -20 06 37.4   170321 1.0169 129.1  m  15?  20.35  33.0    9 126  67  97
   2024 07 20 00:20  23 36 10.63    -20 03 45.4   169796 1.0169 129.1  m  15?  20.16  30.5   10 128  67  97
   2024 07 20 00:30  23 36 17.53    -20 00 50.3   169272 1.0169 129.1  m  15?  20.03  28.0   12 130  67  97
   2024 07 20 00:40  23 36 23.84    -19 57 51.8   168748 1.0169 129.0  m  15?  19.97  25.5   13 132  67  97
   2024 07 20 00:50  23 36 29.58    -19 54 49.9   168225 1.0169 129.0  m  15?  19.96  23.0   15 134  67  97
   2024 07 20 01:00  23 36 34.77    -19 51 44.5   167703 1.0168 129.0  m  15?  20.02  20.6   16 136  67  97
   2024 07 20 01:10  23 36 39.42    -19 48 35.3   167182 1.0168 129.0  m  15?  20.13  18.2   17 138  67  97
   2024 07 20 01:20  23 36 43.56    -19 45 22.2   166663 1.0168 128.9  m  15?  20.30  16.0   19 140  67  97
   2024 07 20 01:30  23 36 47.21    -19 42 05.2   166145 1.0168 128.9  m  15?  20.52  13.9   20 142  67  97
   2024 07 20 01:40  23 36 50.39    -19 38 44.1   165630 1.0168 128.9  m  15?  20.78  11.9   21 144  66  97
   2024 07 20 01:50  23 36 53.13    -19 35 18.7   165117 1.0168 128.9  m  15?  21.09  10.0   22 146  66  97
   2024 07 20 02:00  23 36 55.45    -19 31 49.0   164607 1.0168 128.9  m  15?  21.43   8.3   23 149  66  97
   2024 07 20 02:10  23 36 57.37    -19 28 14.9   164099 1.0168 128.9  m  15?  21.81   6.8   24 151  66  97
   2024 07 20 02:20  23 36 58.94    -19 24 36.2   163593 1.0168 128.8  m  15?  22.21   5.4   25 153  66  97
   2024 07 20 02:30  23 37 00.17    -19 20 52.8   163091 1.0168 128.8  m  15?  22.64   4.1   26 156  66  97
   2024 07 20 02:40  23 37 01.10    -19 17 04.8   162592 1.0168 128.8  m  15?  23.09   3.0   27 158  66  97
   2024 07 20 02:50  23 37 01.75    -19 13 11.9   162096 1.0168 128.8  m  15?  23.56   2.1   27 161  66  97
   2024 07 20 03:00  23 37 02.17    -19 09 14.1   161603 1.0168 128.8  m  15?  24.05   1.3   28 164  66  97
   2024 07 20 03:10  23 37 02.37    -19 05 11.3   161113 1.0168 128.8 Am  15?  24.54   0.6   29 166  66  97
   2024 07 20 03:20  23 37 02.40    -19 01 03.6   160627 1.0168 128.8 Am  15?  25.04   0.1   29 169  66  97
   2024 07 20 03:30  23 37 02.29    -18 56 50.7   160145 1.0168 128.8 A   15?  25.55 359.7   29 172  66  97
   2024 07 20 03:40  23 37 02.07    -18 52 32.8   159666 1.0168 128.8 A   15?  26.07 359.4   30 174  66  97
   2024 07 20 03:50  23 37 01.78    -18 48 09.7   159191 1.0168 128.8 N   15?  26.58 359.2   30 177  66  97
   2024 07 20 04:00  23 37 01.46    -18 43 41.4   158719 1.0168 128.8 Nt  15?  27.10 359.2   30 180  66  97
   2024 07 20 04:10  23 37 01.14    -18 39 08.0   158251 1.0168 128.8 Ne  15?  27.62 359.3   30 183  66  97
   2024 07 20 04:20  23 37 00.86    -18 34 29.3   157786 1.0168 128.7 N   15?  28.15 359.5   30 185  66  97
   2024 07 20 04:30  23 37 00.65    -18 29 45.4   157325 1.0168 128.7 C   15?  28.67 359.7   30 188  66  97
   2024 07 20 04:40  23 37 00.55    -18 24 56.3   156867 1.0168 128.7 C   15?  29.19   0.2   30 191  66  97
   2024 07 20 04:50  23 37 00.60    -18 20 02.0   156412 1.0168 128.7 C   15?  29.71   0.6   29 194  66  97
   ................
   2024 07 20 23:30  01 13 25.88    +00 48 10.7    57548 1.0161 101.0  m  12? 315.55  53.2    0  88  84  99
   2024 07 20 23:40  01 16 18.94    +01 20 37.1    55664 1.0161 100.2  m  12? 334.86  53.2    1  89  85  99
   2024 07 20 23:50  01 19 22.95    +01 55 07.1    53750 1.0161  99.2  m  12? 356.69  53.2    3  90  86  99
   2024 07 21 00:00  01 22 39.51    +02 31 55.3    51803 1.0161  98.3  m  12? 381.49  53.2    5  91  87  99
   2024 07 21 00:10  01 26 10.53    +03 11 18.2    49824 1.0161  97.2  m  11? 409.86  53.3    6  91  88  99
   2024 07 21 00:20  01 29 58.34    +03 53 35.7    47811 1.0161  96.1  m  11? 442.54  53.5    8  92  89  99
   2024 07 21 00:30  01 34 05.81    +04 39 11.2    45761 1.0161  94.9  m  11? 480.47  53.7   10  92  90  99
   2024 07 21 00:40  01 38 36.51    +05 28 32.6    43674 1.0161  93.5  m  11? 524.88  54.0   11  92  91  99
   2024 07 21 00:50  01 43 34.96    +06 22 13.6    41547 1.0161  92.0  m  11? 577.41  54.4   13  92  93  99
   2024 07 21 01:00  01 49 06.93    +07 20 54.8    39379 1.0161  90.4  m  11? 640.23  54.9   14  92  94  99
   2024 07 21 01:10  01 55 19.96    +08 25 26.3    37167 1.0161  88.6  m  11? 716.32  55.4   16  92  96  99
   2024 07 21 01:20  02 02 24.06    +09 36 49.3    34912 1.0161  86.6  m  11? 809.82  56.2   17  92  98  99
   2024 07 21 01:30  02 10 32.84    +10 56 19.8    32609 1.0160  84.2  m  10? 926.63  57.1   18  91 100  99
   2024 07 21 01:40  02 20 05.25    +12 25 31.5    30261 1.0160  81.5  m  10? 1075.4  58.2   19  90 103  99
   2024 07 21 01:50  02 31 28.48    +14 06 19.0    27866 1.0160  78.4  m  10? 1269.1  59.6   20  88 106  99
   2024 07 21 02:00  02 45 22.80    +16 00 57.0    25429 1.0160  74.6  m  10? 1527.9  61.3   20  86 110  99
   2024 07 21 02:10  03 02 50.03    +18 11 47.7    22958 1.0160  70.0  e  10? 1883.6  63.7   20  83 115  99
   2024 07 21 02:20  03 25 28.68    +20 40 27.2    20473 1.0160  64.2  m  10? 2388.2  66.8   20  79 120  99
   2024 07 21 02:30  03 56 00.45    +23 24 52.2    18012 1.0160  56.7  m  10? 3126.2  71.1   17  74 128  99
   2024 07 21 02:40  04 38 50.25    +26 10 28.4    15654 1.0160  46.8  m  10? 4225.7  77.5   13  67 138  99
   2024 07 21 02:50  05 40 24.10    +28 06 13.8    13555 1.0160  33.1  m  10? 5824.0  86.8    6  57 152  99
   ................
   2024 07 21 23:10  22 31 30.08    -34 22 41.9   150462 1.0168 144.9  m  15?  23.98  39.0    0 137  26  99
   2024 07 21 23:20  22 31 41.94    -34 19 33.7   150899 1.0168 144.9  m  15?  23.55  36.5    1 139  26  99
   2024 07 21 23:30  22 31 52.94    -34 16 22.4   151334 1.0168 144.9  m  15?  23.21  33.9    2 141  26  99
   2024 07 21 23:40  22 32 03.10    -34 13 07.7   151769 1.0168 144.9  m  15?  22.96  31.4    3 142  26  99
   2024 07 21 23:50  22 32 12.48    -34 09 49.6   152203 1.0168 144.8  m  15?  22.79  28.9    4 144  26  99
   2024 07 22 00:00  22 32 21.09    -34 06 27.9   152636 1.0168 144.8  m  15?  22.70  26.4    5 146  25  99
   2024 07 22 00:10  22 32 28.99    -34 03 02.3   153070 1.0168 144.8  m  15?  22.68  24.0    6 148  25  99
   2024 07 22 00:20  22 32 36.22    -33 59 32.7   153503 1.0168 144.8  m  15?  22.74  21.8    7 149  25  99
   2024 07 22 00:30  22 32 42.80    -33 55 59.1   153936 1.0168 144.8  m  15?  22.86  19.6    8 151  25  99
   2024 07 22 00:40  22 32 48.79    -33 52 21.2   154370 1.0168 144.8  m  15?  23.04  17.6    9 153  25  99
   2024 07 22 00:50  22 32 54.22    -33 48 39.0   154805 1.0168 144.8  m  15?  23.27  15.7   10 155  25  99
   2024 07 22 01:00  22 32 59.14    -33 44 52.4   155241 1.0168 144.8  m  15?  23.54  14.0   11 157  25  99
   2024 07 22 01:10  22 33 03.59    -33 41 01.2   155678 1.0168 144.8  m  15?  23.86  12.4   12 159  25  99
   2024 07 22 01:20  22 33 07.61    -33 37 05.5   156117 1.0168 144.8  m  15?  24.21  11.0   12 161  25  99
   2024 07 22 01:30  22 33 11.24    -33 33 05.1   156557 1.0168 144.8  m  15?  24.59   9.8   13 163  25  99
   2024 07 22 01:40  22 33 14.52    -33 29 00.0   156998 1.0168 144.8  m  15?  24.99   8.7   14 165  25  99
   2024 07 22 01:50  22 33 17.51    -33 24 50.1   157442 1.0168 144.9  m  15?  25.41   7.7   14 167  25  99
   2024 07 22 02:00  22 33 20.23    -33 20 35.5   157888 1.0168 144.9  m  15?  25.84   6.9   15 169  25  99
   2024 07 22 02:10  22 33 22.74    -33 16 16.2   158336 1.0168 144.9  m  15?  26.29   6.3   15 171  25  99
   2024 07 22 02:20  22 33 25.08    -33 11 52.1   158786 1.0168 144.9  m  15?  26.74   5.8   15 173  25  99
   2024 07 22 02:30  22 33 27.28    -33 07 23.2   159239 1.0169 144.9  m  15?  27.20   5.4   16 176  25  99
   2024 07 22 02:40  22 33 29.40    -33 02 49.6   159694 1.0169 144.9  m  15?  27.66   5.1   16 178  25  99
   2024 07 22 02:50  22 33 31.46    -32 58 11.4   160151 1.0169 144.9  t  15?  28.11   5.0   16 180  25  99
   2024 07 22 03:00  22 33 33.52    -32 53 28.6   160611 1.0169 144.9  e  15?  28.57   4.9   16 182  25  99
   2024 07 22 03:10  22 33 35.61    -32 48 41.3   161074 1.0169 145.0 Am  15?  29.02   5.0   16 184  25  99
   2024 07 22 03:20  22 33 37.78    -32 43 49.5   161540 1.0169 145.0 Am  15?  29.47   5.2   16 187  25  99
   2024 07 22 03:30  22 33 40.05    -32 38 53.3   162008 1.0169 145.0 Am  15?  29.92   5.4   15 189  24  99
   2024 07 22 03:40  22 33 42.48    -32 33 52.9   162478 1.0169 145.0 Am  15?  30.36   5.7   15 191  24  99
   2024 07 22 03:50  22 33 45.09    -32 28 48.3   162952 1.0169 145.0 Am  15?  30.79   6.1   15 193  24  99
   2024 07 22 04:00  22 33 47.92    -32 23 39.7   163428 1.0169 145.0 Nm  15?  31.22   6.6   14 195  24  99
   2024 07 22 04:10  22 33 51.01    -32 18 27.2   163906 1.0169 145.0 Nm  15?  31.64   7.2   14 197  24  99
   2024 07 22 04:20  22 33 54.39    -32 13 11.0   164387 1.0169 145.0 Nm  15?  32.06   7.8   13 199  24  99
   2024 07 22 04:30  22 33 58.10    -32 07 51.2   164871 1.0169 145.1 Cm  15?  32.47   8.5   13 202  24  99
   2024 07 22 04:40  22 34 02.16    -32 02 27.9   165356 1.0169 145.1 Cm  15?  32.87   9.2   12 204  24  99
   2024 07 22 04:50  22 34 06.60    -31 57 01.4   165844 1.0169 145.1 Cm  15?  33.27  10.0   12 206  24  99
   ................
   2024 07 22 23:00  23 14 47.64    -24 56 18.4   187041 1.0168 137.2  m  15?  16.07  43.5    0 123  22  96
   2024 07 22 23:10  23 14 55.46    -24 54 20.5   186836 1.0168 137.1  m  15?  15.62  40.7    1 125  22  96
   2024 07 22 23:20  23 15 02.62    -24 52 20.4   186631 1.0168 137.1  m  15?  15.22  37.6    3 126  22  96
   2024 07 22 23:30  23 15 09.14    -24 50 18.2   186425 1.0168 137.1  m  15?  14.90  34.4    4 128  22  96
   2024 07 22 23:40  23 15 15.03    -24 48 13.6   186220 1.0168 137.1  m  15?  14.65  31.2    6 130  22  96
   2024 07 22 23:50  23 15 20.30    -24 46 06.5   186016 1.0168 137.0  m  15?  14.47  27.9    7 132  22  96
   2024 07 23 00:00  23 15 24.98    -24 43 56.6   185813 1.0168 137.0  m  15?  14.37  24.5    8 133  22  96
   2024 07 23 00:10  23 15 29.08    -24 41 44.0   185610 1.0168 137.0  m  15?  14.34  21.2   10 135  22  96
   2024 07 23 00:20  23 15 32.62    -24 39 28.3   185410 1.0168 137.0  m  15?  14.37  18.0   11 137  22  96
   2024 07 23 00:30  23 15 35.63    -24 37 09.5   185211 1.0168 137.0  m  15?  14.47  14.9   12 139  22  96
   2024 07 23 00:40  23 15 38.11    -24 34 47.5   185014 1.0168 137.0  m  15?  14.64  12.0   14 141  22  96
   2024 07 23 00:50  23 15 40.10    -24 32 22.1   184819 1.0168 137.0  m  15?  14.85   9.2   15 143  22  96
   2024 07 23 01:00  23 15 41.62    -24 29 53.2   184627 1.0168 137.0  m  15?  15.12   6.7   16 145  22  96
   2024 07 23 01:10  23 15 42.70    -24 27 20.7   184437 1.0168 137.0  m  15?  15.43   4.3   17 147  22  96
   2024 07 23 01:20  23 15 43.35    -24 24 44.4   184251 1.0168 137.0  m  15?  15.77   2.2   18 149  22  96
   2024 07 23 01:30  23 15 43.61    -24 22 04.4   184068 1.0168 137.0  m  15?  16.15   0.3   19 151  22  96
   2024 07 23 01:40  23 15 43.50    -24 19 20.4   183888 1.0168 137.0  m  15?  16.54 358.6   20 154  22  96
   2024 07 23 01:50  23 15 43.06    -24 16 32.5   183711 1.0168 137.0  m  15?  16.96 357.2   21 156  21  96
   2024 07 23 02:00  23 15 42.31    -24 13 40.4   183538 1.0168 137.0  m  15?  17.40 355.9   22 158  21  96
   2024 07 23 02:10  23 15 41.28    -24 10 44.3   183369 1.0168 137.0  m  15?  17.84 354.8   22 161  21  96
   2024 07 23 02:20  23 15 40.01    -24 07 43.9   183204 1.0168 137.0  m  15?  18.29 354.0   23 163  21  96
   2024 07 23 02:30  23 15 38.51    -24 04 39.3   183044 1.0168 137.0  m  15?  18.75 353.3   23 166  21  96
   2024 07 23 02:40  23 15 36.84    -24 01 30.3   182887 1.0168 137.0  m  15?  19.20 352.7   24 168  21  96
   2024 07 23 02:50  23 15 35.01    -23 58 17.1   182734 1.0168 137.0  m  15?  19.66 352.3   24 170  21  96
   2024 07 23 03:00  23 15 33.06    -23 54 59.5   182586 1.0168 137.1  m  15?  20.11 352.1   25 173  21  96
   2024 07 23 03:10  23 15 31.02    -23 51 37.5   182443 1.0168 137.1 Am  15?  20.56 352.0   25 176  21  96
   2024 07 23 03:20  23 15 28.93    -23 48 11.2   182304 1.0168 137.1 Am  15?  21.00 352.0   25 178  21  96
   2024 07 23 03:30  23 15 26.82    -23 44 40.4   182169 1.0168 137.1 At  15?  21.43 352.2   25 181  21  96
   2024 07 23 03:40  23 15 24.72    -23 41 05.4   182039 1.0168 137.1 Ae  15?  21.86 352.4   25 183  21  96
   2024 07 23 03:50  23 15 22.67    -23 37 25.9   181913 1.0168 137.1 Am  15?  22.28 352.8   25 186  21  95
   2024 07 23 04:00  23 15 20.69    -23 33 42.2   181791 1.0168 137.1 Nm  15?  22.69 353.3   25 188  21  95
   2024 07 23 04:10  23 15 18.83    -23 29 54.1   181675 1.0168 137.1 Nm  15?  23.09 353.8   24 191  21  95
   2024 07 23 04:20  23 15 17.11    -23 26 01.9   181562 1.0168 137.1 Nm  15?  23.49 354.5   24 193  21  95
   2024 07 23 04:30  23 15 15.57    -23 22 05.4   181454 1.0168 137.1 Nm  15?  23.88 355.2   24 196  20  95
   2024 07 23 04:40  23 15 14.24    -23 18 04.8   181349 1.0168 137.1 Cm  15?  24.26 356.0   23 198  20  95
   2024 07 23 04:50  23 15 13.15    -23 14 00.2   181249 1.0168 137.1 Cm  15?  24.64 356.9   23 201  20  95
   ................
   2024 07 23 23:00  23 57 28.97    -15 00 17.4   140338 1.0164 126.6  m  14?  40.77  46.9    0 110  19  91
   2024 07 23 23:10  23 57 49.13    -14 55 36.5   139461 1.0164 126.5  m  14?  40.39  45.6    2 111  19  91
   2024 07 23 23:20  23 58 08.64    -14 50 51.2   138579 1.0164 126.4  m  14?  40.05  44.2    3 113  19  91
   2024 07 23 23:30  23 58 27.50    -14 46 01.4   137692 1.0164 126.3  m  14?  39.75  42.8    5 114  19  91
   2024 07 23 23:40  23 58 45.72    -14 41 06.9   136803 1.0164 126.2  m  14?  39.49  41.3    7 116  19  90
   2024 07 23 23:50  23 59 03.30    -14 36 07.3   135909 1.0164 126.2  m  14?  39.29  39.9    9 118  19  90
   2024 07 24 00:00  23 59 20.25    -14 31 02.6   135013 1.0164 126.1  m  14?  39.13  38.3   10 119  19  90
   2024 07 24 00:10  23 59 36.58    -14 25 52.4   134113 1.0164 126.0  m  14?  39.03  36.8   12 121  19  90
   2024 07 24 00:20  23 59 52.29    -14 20 36.5   133211 1.0164 125.9  m  14?  38.98  35.3   14 123  19  90
   2024 07 24 00:30  00 00 07.40    -14 15 14.8   132306 1.0163 125.9  m  14?  38.99  33.7   15 125  19  90
   2024 07 24 00:40  00 00 21.92    -14 09 46.9   131399 1.0163 125.8  m  14?  39.06  32.2   17 127  19  90
   2024 07 24 00:50  00 00 35.86    -14 04 12.7   130490 1.0163 125.7  m  14?  39.18  30.7   18 129  19  90
   2024 07 24 01:00  00 00 49.24    -13 58 31.9   129579 1.0163 125.6  m  14?  39.37  29.2   20 130  19  90
   2024 07 24 01:10  00 01 02.08    -13 52 44.3   128666 1.0163 125.6  m  14?  39.61  27.7   21 132  19  90
   2024 07 24 01:20  00 01 14.40    -13 46 49.6   127752 1.0163 125.5  m  14?  39.91  26.3   23 135  19  90
   2024 07 24 01:30  00 01 26.21    -13 40 47.7   126836 1.0163 125.4  m  14?  40.28  25.0   24 137  19  90
   2024 07 24 01:40  00 01 37.55    -13 34 38.3   125920 1.0163 125.4  m  14?  40.69  23.6   25 139  19  90
   2024 07 24 01:50  00 01 48.43    -13 28 21.2   125002 1.0163 125.3  m  14?  41.17  22.4   27 141  19  90
   2024 07 24 02:00  00 01 58.88    -13 21 56.0   124084 1.0163 125.3  m  14?  41.70  21.2   28 144  19  90
   2024 07 24 02:10  00 02 08.94    -13 15 22.7   123165 1.0163 125.2  m  14?  42.28  20.1   29 146  19  90
   2024 07 24 02:20  00 02 18.63    -13 08 41.0   122245 1.0163 125.1  m  14?  42.91  19.1   30 148  19  90
   2024 07 24 02:30  00 02 27.98    -13 01 50.7   121325 1.0163 125.1  m  14?  43.60  18.1   31 151  19  90
   2024 07 24 02:40  00 02 37.03    -12 54 51.5   120404 1.0163 125.0  m  14?  44.33  17.3   32 154  19  90
   2024 07 24 02:50  00 02 45.81    -12 47 43.2   119483 1.0163 125.0  m  14?  45.10  16.5   33 156  19  90
   2024 07 24 03:00  00 02 54.36    -12 40 25.5   118561 1.0163 124.9  m  14?  45.93  15.8   34 159  19  90
   2024 07 24 03:10  00 03 02.72    -12 32 58.4   117639 1.0163 124.8 Am  14?  46.79  15.2   34 162  19  90
   2024 07 24 03:20  00 03 10.93    -12 25 21.5   116717 1.0163 124.8 Am  14?  47.70  14.7   35 165  19  90
   2024 07 24 03:30  00 03 19.03    -12 17 34.6   115794 1.0162 124.7 Am  14?  48.64  14.2   36 168  19  90
   2024 07 24 03:40  00 03 27.06    -12 09 37.5   114870 1.0162 124.7 Am  14?  49.63  13.9   36 170  19  90
   2024 07 24 03:50  00 03 35.08    -12 01 30.0   113947 1.0162 124.6 Am  14?  50.66  13.6   37 173  19  90
   2024 07 24 04:00  00 03 43.12    -11 53 11.9   113022 1.0162 124.5 Nm  14?  51.72  13.4   37 176  19  90
   2024 07 24 04:10  00 03 51.24    -11 44 42.9   112097 1.0162 124.5 Nt  14?  52.83  13.3   37 180  19  90
   2024 07 24 04:20  00 03 59.49    -11 36 02.9   111171 1.0162 124.4 Nm  14?  53.97  13.3   37 183  19  90
   2024 07 24 04:30  00 04 07.92    -11 27 11.5   110243 1.0162 124.3 Ne  14?  55.15  13.3   37 186  19  90
   2024 07 24 04:40  00 04 16.57    -11 18 08.6   109315 1.0162 124.3 Cm  14?  56.37  13.4   37 189  19  89
   2024 07 24 04:50  00 04 25.51    -11 08 54.0   108385 1.0162 124.2 Cm  14?  57.64  13.6   37 192  19  89
   ................
   2024 07 24 23:30  21 34 23.40    -44 49 00.0    87627 1.0163 150.2  m  14?  93.62  40.0    0 157  46  83
   2024 07 24 23:40  21 35 18.66    -44 37 09.4    88757 1.0163 150.3  m  14?  91.42  39.0    0 159  46  83
   2024 07 24 23:50  21 36 11.29    -44 25 24.8    89876 1.0163 150.3  m  14?  89.40  37.9    1 160  45  83
   2024 07 25 00:00  21 37 01.49    -44 13 45.6    90984 1.0163 150.4  m  14?  87.56  36.9    2 162  45  83
   2024 07 25 00:10  21 37 49.44    -44 02 11.3    92083 1.0163 150.4  m  14?  85.89  36.0    2 163  45  82
   2024 07 25 00:20  21 38 35.30    -43 50 41.4    93174 1.0163 150.5  m  14?  84.37  35.0    3 165  45  82
   2024 07 25 00:30  21 39 19.22    -43 39 15.5    94255 1.0163 150.5  m  14?  83.00  34.1    4 166  45  82
   2024 07 25 00:40  21 40 01.36    -43 27 53.2    95329 1.0163 150.6  m  14?  81.75  33.3    4 168  45  82
   2024 07 25 00:50  21 40 41.86    -43 16 34.2    96395 1.0163 150.7  m  14?  80.63  32.5    5 170  45  82
   2024 07 25 01:00  21 41 20.86    -43 05 18.1    97454 1.0163 150.7  m  14?  79.61  31.7    5 171  44  82
   2024 07 25 01:10  21 41 58.47    -42 54 04.7    98506 1.0163 150.8  m  14?  78.70  31.0    5 173  44  82
   2024 07 25 01:20  21 42 34.84    -42 42 53.8    99551 1.0163 150.8  m  14?  77.88  30.3    6 175  44  82
   2024 07 25 01:30  21 43 10.06    -42 31 45.1   100591 1.0163 150.9  m  14?  77.15  29.7    6 177  44  82
   2024 07 25 01:40  21 43 44.25    -42 20 38.5   101625 1.0163 150.9  m  14?  76.49  29.2    6 178  44  82
   2024 07 25 01:50  21 44 17.51    -42 09 33.8   102653 1.0163 151.0  t  14?  75.90  28.7    7 180  44  82
   2024 07 25 02:00  21 44 49.95    -41 58 31.0   103676 1.0163 151.1  m  14?  75.38  28.2    7 182  44  82
   2024 07 25 02:10  21 45 21.66    -41 47 30.0   104695 1.0163 151.1  m  15?  74.91  27.9    7 184  43  82
   2024 07 25 02:20  21 45 52.72    -41 36 30.6   105708 1.0163 151.2  e  15?  74.49  27.5    7 185  43  82
   2024 07 25 02:30  21 46 23.23    -41 25 32.9   106718 1.0164 151.2  m  15?  74.12  27.3    7 187  43  82
   2024 07 25 02:40  21 46 53.27    -41 14 36.9   107723 1.0164 151.3  m  15?  73.79  27.0    7 189  43  82
   2024 07 25 02:50  21 47 22.91    -41 03 42.5   108724 1.0164 151.4  m  15?  73.49  26.9    7 191  43  82
   2024 07 25 03:00  21 47 52.23    -40 52 49.8   109722 1.0164 151.4  m  15?  73.23  26.8    6 193  43  82
   2024 07 25 03:10  21 48 21.30    -40 41 58.9   110716 1.0164 151.5 Am  15?  73.00  26.7    6 194  43  82
   2024 07 25 03:20  21 48 50.18    -40 31 09.7   111706 1.0164 151.5 Am  15?  72.79  26.7    6 196  42  82
   2024 07 25 03:30  21 49 18.92    -40 20 22.4   112693 1.0164 151.6 Am  15?  72.61  26.8    5 198  42  82
   2024 07 25 03:40  21 49 47.61    -40 09 37.1   113676 1.0164 151.6 Am  15?  72.44  26.9    5 200  42  82
   2024 07 25 03:50  21 50 16.27    -39 58 53.9   114656 1.0164 151.7 Am  15?  72.29  27.0    4 202  42  81
   2024 07 25 04:00  21 50 44.98    -39 48 12.9   115633 1.0164 151.7 Nm  15?  72.16  27.2    4 203  42  81
   2024 07 25 04:10  21 51 13.77    -39 37 34.2   116607 1.0164 151.7 Nm  15?  72.05  27.5    3 205  42  81
   2024 07 25 04:20  21 51 42.69    -39 26 57.9   117578 1.0164 151.8 Nm  15?  71.94  27.8    3 207  42  81
   2024 07 25 04:30  21 52 11.79    -39 16 24.3   118546 1.0164 151.8 Nm  15?  71.85  28.1    2 209  42  81
   2024 07 25 04:40  21 52 41.10    -39 05 53.4   119510 1.0164 151.8 Cm  15?  71.76  28.4    1 210  42  81
   2024 07 25 04:50  21 53 10.65    -38 55 25.4   120471 1.0164 151.9 Cm  15?  71.69  28.8    0 212  41  81
   ................
   2024 07 25 22:50  22 55 02.89    -29 23 39.4   178025 1.0166 143.8  m  15?  16.30  39.9    0 130  36  73
   2024 07 25 23:00  22 55 10.55    -29 21 33.1   178130 1.0166 143.8  m  15?  15.91  36.8    1 131  36  73
   2024 07 25 23:10  22 55 17.50    -29 19 24.4   178235 1.0166 143.8  m  15?  15.60  33.5    2 133  36  73
   2024 07 25 23:20  22 55 23.77    -29 17 13.0   178340 1.0166 143.8  m  15?  15.37  30.3    4 135  36  73
   2024 07 25 23:30  22 55 29.38    -29 14 58.8   178445 1.0166 143.8  m  15?  15.22  26.9    5 136  36  73
   2024 07 25 23:40  22 55 34.35    -29 12 41.5   178552 1.0166 143.8  m  15?  15.14  23.7    6 138  36  73
   2024 07 25 23:50  22 55 38.70    -29 10 21.2   178659 1.0166 143.8  m  15?  15.14  20.4    8 140  36  73
   2024 07 26 00:00  22 55 42.46    -29 07 57.5   178767 1.0166 143.8  m  15?  15.22  17.3    9 142  36  73
   2024 07 26 00:10  22 55 45.66    -29 05 30.4   178877 1.0166 143.7  m  15?  15.36  14.4   10 144  36  73
   2024 07 26 00:20  22 55 48.32    -29 02 59.7   178989 1.0166 143.8  m  15?  15.56  11.6   11 146  36  73
   2024 07 26 00:30  22 55 50.48    -29 00 25.3   179102 1.0166 143.8  m  15?  15.81   9.1   12 148  36  73
   2024 07 26 00:40  22 55 52.16    -28 57 47.1   179218 1.0166 143.8  m  15?  16.11   6.7   13 150  36  73
   2024 07 26 00:50  22 55 53.39    -28 55 05.0   179337 1.0166 143.8  m  15?  16.45   4.6   14 152  36  72
   2024 07 26 01:00  22 55 54.20    -28 52 18.8   179458 1.0166 143.8  m  15?  16.82   2.7   15 154  36  72
   2024 07 26 01:10  22 55 54.63    -28 49 28.5   179582 1.0166 143.8  m  15?  17.22   1.0   16 156  36  72
   2024 07 26 01:20  22 55 54.71    -28 46 34.0   179709 1.0166 143.8  m  15?  17.65 359.5   17 158  37  72
   2024 07 26 01:30  22 55 54.46    -28 43 35.3   179839 1.0166 143.8  m  15?  18.08 358.2   17 160  37  72
   2024 07 26 01:40  22 55 53.93    -28 40 32.2   179972 1.0166 143.8  m  15?  18.53 357.2   18 162  37  72
   2024 07 26 01:50  22 55 53.14    -28 37 24.7   180109 1.0166 143.8  m  15?  18.99 356.3   19 165  37  72
   2024 07 26 02:00  22 55 52.14    -28 34 12.8   180250 1.0166 143.8  m  15?  19.45 355.6   19 167  37  72
   2024 07 26 02:10  22 55 50.95    -28 30 56.5   180395 1.0166 143.9  m  15?  19.91 355.1   19 169  37  72
   2024 07 26 02:20  22 55 49.61    -28 27 35.6   180543 1.0166 143.9  m  15?  20.37 354.7   20 171  37  72
   2024 07 26 02:30  22 55 48.16    -28 24 10.3   180695 1.0166 143.9  m  15?  20.83 354.4   20 174  37  72
   2024 07 26 02:40  22 55 46.63    -28 20 40.5   180851 1.0166 143.9  m  15?  21.28 354.3   20 176  37  72
   2024 07 26 02:50  22 55 45.05    -28 17 06.3   181012 1.0166 143.9  m  15?  21.73 354.3   20 178  37  72
   2024 07 26 03:00  22 55 43.47    -28 13 27.6   181176 1.0166 143.9  t  15?  22.17 354.5   21 181  37  72
   2024 07 26 03:10  22 55 41.91    -28 09 44.5   181344 1.0166 144.0  e  15?  22.60 354.7   20 183  37  72
   2024 07 26 03:20  22 55 40.40    -28 05 57.0   181517 1.0166 144.0 Am  15?  23.02 355.1   20 186  37  72
   2024 07 26 03:30  22 55 39.00    -28 02 05.2   181694 1.0166 144.0 Am  16?  23.44 355.5   20 188  37  72
   2024 07 26 03:40  22 55 37.72    -27 58 09.1   181874 1.0166 144.0 Am  16?  23.85 356.0   20 190  37  72
   2024 07 26 03:50  22 55 36.60    -27 54 08.9   182059 1.0166 144.0 Am  16?  24.25 356.7   20 193  37  72
   2024 07 26 04:00  22 55 35.67    -27 50 04.5   182248 1.0166 144.0 Nm  16?  24.64 357.4   19 195  37  71
   2024 07 26 04:10  22 55 34.97    -27 45 56.2   182440 1.0166 144.1 Nm  16?  25.02 358.1   19 197  37  71
   2024 07 26 04:20  22 55 34.52    -27 41 43.9   182637 1.0166 144.1 Nm  16?  25.40 359.0   18 200  37  71
   2024 07 26 04:30  22 55 34.36    -27 37 27.8   182837 1.0166 144.1 Nm  16?  25.77 359.9   18 202  37  71
   2024 07 26 04:40  22 55 34.52    -27 33 08.0   183041 1.0166 144.1 Cm  16?  26.14   0.9   17 204  37  71
   2024 07 26 04:50  22 55 35.03    -27 28 44.6   183248 1.0166 144.1 Cm  16?  26.50   1.9   16 206  37  71
   ................
   2024 07 26 22:50  23 32 11.76    -20 47 15.2   176378 1.0164 136.2  m  15?  20.66  43.5    1 118  37  62
   2024 07 26 23:00  23 32 21.58    -20 44 43.6   175901 1.0164 136.2  m  15?  20.20  41.2    2 120  37  62
   2024 07 26 23:10  23 32 30.74    -20 42 09.8   175423 1.0164 136.2  m  15?  19.79  38.7    4 122  37  62
   2024 07 26 23:20  23 32 39.26    -20 39 33.5   174944 1.0164 136.1  m  15?  19.44  36.2    5 123  37  62
   2024 07 26 23:30  23 32 47.13    -20 36 54.7   174465 1.0164 136.1  m  15?  19.15  33.6    7 125  37  62
   2024 07 26 23:40  23 32 54.38    -20 34 13.2   173986 1.0164 136.1  m  15?  18.92  31.0    9 127  37  62
   2024 07 26 23:50  23 33 01.02    -20 31 28.8   173507 1.0164 136.1  m  15?  18.75  28.3   10 129  37  62
   2024 07 27 00:00  23 33 07.06    -20 28 41.4   173028 1.0164 136.0  m  15?  18.65  25.6   12 130  37  62
   2024 07 27 00:10  23 33 12.52    -20 25 50.9   172550 1.0164 136.0  m  15?  18.62  22.9   13 132  37  62
   2024 07 27 00:20  23 33 17.42    -20 22 57.1   172073 1.0164 136.0  m  15?  18.64  20.3   14 134  37  62
   2024 07 27 00:30  23 33 21.76    -20 19 59.8   171598 1.0164 136.0  m  15?  18.73  17.8   16 136  37  62
   2024 07 27 00:40  23 33 25.58    -20 16 58.9   171124 1.0164 136.0  m  15?  18.87  15.3   17 138  37  62
   2024 07 27 00:50  23 33 28.89    -20 13 54.4   170651 1.0164 135.9  m  15?  19.06  13.0   18 140  37  62
   2024 07 27 01:00  23 33 31.72    -20 10 46.0   170181 1.0164 135.9  m  15?  19.31  10.8   20 142  37  61
   2024 07 27 01:10  23 33 34.08    -20 07 33.6   169713 1.0164 135.9  m  15?  19.59   8.8   21 145  37  61
   2024 07 27 01:20  23 33 36.01    -20 04 17.2   169248 1.0164 135.9  m  15?  19.92   6.9   22 147  37  61
   2024 07 27 01:30  23 33 37.53    -20 00 56.6   168785 1.0164 135.9  m  15?  20.28   5.2   23 149  37  61
   2024 07 27 01:40  23 33 38.66    -19 57 31.8   168325 1.0164 135.9  m  15?  20.67   3.7   24 151  38  61
   2024 07 27 01:50  23 33 39.44    -19 54 02.5   167868 1.0164 135.9  m  15?  21.09   2.3   25 154  38  61
   2024 07 27 02:00  23 33 39.89    -19 50 28.8   167414 1.0163 135.9  m  15?  21.52   1.1   26 156  38  61
   2024 07 27 02:10  23 33 40.04    -19 46 50.6   166963 1.0163 135.9  m  15?  21.98 359.9   26 159  38  61
   2024 07 27 02:20  23 33 39.92    -19 43 07.7   166516 1.0163 135.9  m  15?  22.45 359.0   27 161  38  61
   2024 07 27 02:30  23 33 39.57    -19 39 20.1   166072 1.0163 135.9  m  15?  22.92 358.3   28 164  38  61
   2024 07 27 02:40  23 33 39.01    -19 35 27.8   165632 1.0163 135.9  m  15?  23.41 357.7   28 167  38  61
   2024 07 27 02:50  23 33 38.29    -19 31 30.7   165196 1.0163 135.9  m  15?  23.90 357.2   29 169  38  61
   2024 07 27 03:00  23 33 37.43    -19 27 28.7   164763 1.0163 135.9  m  15?  24.40 356.8   29 172  38  61
   2024 07 27 03:10  23 33 36.46    -19 23 21.9   164334 1.0163 135.9  m  15?  24.89 356.6   29 175  38  61
   2024 07 27 03:20  23 33 35.43    -19 19 10.1   163909 1.0163 135.9 Am  15?  25.39 356.5   29 177  38  61
   2024 07 27 03:30  23 33 34.36    -19 14 53.4   163488 1.0163 135.9 At  15?  25.88 356.5   30 180  38  61
   2024 07 27 03:40  23 33 33.30    -19 10 31.8   163071 1.0163 135.9 Ae  15?  26.37 356.7   30 183  38  61
   2024 07 27 03:50  23 33 32.28    -19 06 05.2   162657 1.0163 135.9 Am  15?  26.86 356.9   29 186  38  60
   2024 07 27 04:00  23 33 31.33    -19 01 33.7   162247 1.0163 135.9 Nm  15?  27.35 357.2   29 188  38  60
   2024 07 27 04:10  23 33 30.49    -18 56 57.2   161841 1.0163 135.9 Nm  15?  27.83 357.6   29 191  38  60
   2024 07 27 04:20  23 33 29.80    -18 52 15.8   161439 1.0163 135.9 Nm  15?  28.31 358.2   29 194  38  60
   2024 07 27 04:30  23 33 29.29    -18 47 29.5   161040 1.0163 135.9 Nm  15?  28.79 358.8   28 196  38  60
   2024 07 27 04:40  23 33 29.01    -18 42 38.4   160644 1.0163 135.9 Cm  15?  29.27 359.4   28 199  38  60
   2024 07 27 04:50  23 33 28.97    -18 37 42.4   160252 1.0163 135.9 Cm  15?  29.75   0.2   27 202  38  60
   2024 07 27 05:00  23 33 29.23    -18 32 41.7   159863 1.0163 135.9 Cm  15?  30.23   1.1   26 204  38  60
   ................
   2024 07 27 22:50  00 48 20.46    -03 29 49.5    75143 1.0157 115.0  r  13? 178.12  50.6    0  94  25  51
   2024 07 27 23:00  00 49 53.61    -03 10 32.9    73537 1.0157 114.5  m  13? 184.08  50.2    1  95  24  51
   2024 07 27 23:10  00 51 29.45    -02 50 27.9    71910 1.0157 114.0  m  13? 190.57  49.9    3  96  24  51
   2024 07 27 23:20  00 53 08.25    -02 29 30.8    70264 1.0156 113.5  m  13? 197.64  49.6    5  97  24  51
   2024 07 27 23:30  00 54 50.31    -02 07 37.4    68597 1.0156 113.0  m  13? 205.38  49.3    6  98  23  51
   2024 07 27 23:40  00 56 35.99    -01 44 43.1    66909 1.0156 112.5  m  12? 213.87  49.0    8  99  23  51
   2024 07 27 23:50  00 58 25.67    -01 20 42.8    65199 1.0156 111.9  m  12? 223.20  48.7   10 100  22  51
   2024 07 28 00:00  01 00 19.83    -00 55 30.5    63467 1.0156 111.3  m  12? 233.48  48.5   12 102  22  51
   

MMS-2 (JPL-ID: -140483)

   Date (UTC) HH:MM   RA              Dec         delta   r     elong SM  mag  '/hr    PA   alt  az moo ill
   ---- -- -- -----  -------------   -----------  ------ ------ ----- --  --- ------ ------ --- --- --- ---
   2024 07 14 00:20  02 02 15.36    +08 39 50.2    37701 1.0165  80.2     11? 769.00  58.6    0  78 169  50
   2024 07 14 00:30  02 10 08.14    +09 50 13.3    35419 1.0165  78.0     11? 869.92  59.4    1  78 167  50
   2024 07 14 00:40  02 19 13.22    +11 08 14.7    33090 1.0165  75.5     11? 996.07  60.4    2  77 165  50
   2024 07 14 00:50  02 29 51.75    +12 35 12.3    30714 1.0165  72.5     11? 1156.8  61.6    3  76 162  50
   2024 07 14 01:00  02 42 33.92    +14 12 34.2    28294 1.0164  69.1     11? 1366.0  63.2    4  74 159  50
   2024 07 14 01:10  02 58 04.21    +16 01 48.6    25834 1.0164  65.0  e  10? 1645.1  65.2    4  72 155  50
   2024 07 14 01:20  03 17 30.14    +18 03 52.9    23346 1.0164  60.0     10? 2027.8  67.8    3  69 150  50
   2024 07 14 01:30  03 42 37.16    +20 17 44.1    20853 1.0164  53.7     10? 2567.8  71.3    2  65 144  50
   2024 07 14 01:40  04 16 12.15    +22 36 11.4    18401 1.0164  45.6     10? 3349.4  76.1    0  59 136  50
   ................
   2024 07 14 23:40  22 34 35.61    -33 42 51.3   154999 1.0173 139.3  m  15?  22.52  39.5    0 137 110  59
   2024 07 14 23:50  22 34 46.65    -33 39 56.5   155387 1.0173 139.3  m  15?  22.12  36.9    1 139 110  59
   2024 07 15 00:00  22 34 56.88    -33 36 58.5   155775 1.0173 139.2     15?  21.80  34.3    2 140 110  59
   2024 07 15 00:10  22 35 06.31    -33 33 57.2   156162 1.0173 139.2     15?  21.56  31.7    4 142 110  59
   2024 07 15 00:20  22 35 14.98    -33 30 52.4   156549 1.0173 139.2     15?  21.40  29.1    5 144 110  59
   2024 07 15 00:30  22 35 22.93    -33 27 43.9   156936 1.0173 139.2     15?  21.32  26.6    6 145 110  59
   2024 07 15 00:40  22 35 30.20    -33 24 31.6   157322 1.0173 139.2     15?  21.32  24.1    7 147 110  60
   2024 07 15 00:50  22 35 36.83    -33 21 15.4   157709 1.0173 139.1     15?  21.39  21.8    8 149 110  60
   2024 07 15 01:00  22 35 42.84    -33 17 55.0   158097 1.0173 139.1     15?  21.51  19.5    9 151 110  60
   2024 07 15 01:10  22 35 48.28    -33 14 30.4   158486 1.0173 139.1     15?  21.70  17.4   10 153 110  60
   2024 07 15 01:20  22 35 53.19    -33 11 01.5   158875 1.0173 139.1     15?  21.94  15.5   11 155 110  60
   2024 07 15 01:30  22 35 57.61    -33 07 28.1   159266 1.0173 139.1     15?  22.22  13.7   12 157 110  60
   2024 07 15 01:40  22 36 01.58    -33 03 50.2   159659 1.0173 139.1     15?  22.55  12.1   12 159 110  60
   2024 07 15 01:50  22 36 05.13    -33 00 07.8   160053 1.0173 139.1     15?  22.90  10.7   13 161 110  60
   2024 07 15 02:00  22 36 08.32    -32 56 20.6   160449 1.0173 139.1     15?  23.29   9.4   14 163 110  60
   2024 07 15 02:10  22 36 11.17    -32 52 28.8   160847 1.0173 139.1     15?  23.69   8.3   14 165 110  60
   2024 07 15 02:20  22 36 13.74    -32 48 32.2   161248 1.0173 139.1     15?  24.12   7.3   15 167 110  60
   2024 07 15 02:30  22 36 16.05    -32 44 30.9   161650 1.0173 139.1     15?  24.55   6.5   15 169 110  60
   2024 07 15 02:40  22 36 18.16    -32 40 24.8   162056 1.0173 139.1     15?  25.00   5.9   16 171 109  60
   2024 07 15 02:50  22 36 20.11    -32 36 13.9   162463 1.0173 139.1     15?  25.46   5.4   16 173 109  60
   2024 07 15 03:00  22 36 21.93    -32 31 58.3   162874 1.0173 139.1 A   15?  25.92   5.0   16 175 109  60
   2024 07 15 03:10  22 36 23.67    -32 27 37.9   163287 1.0173 139.1 A   15?  26.38   4.7   16 178 109  61
   2024 07 15 03:20  22 36 25.36    -32 23 12.9   163703 1.0173 139.1 At  15?  26.84   4.6   16 180 109  61
   2024 07 15 03:30  22 36 27.05    -32 18 43.2   164122 1.0173 139.1 Ae  15?  27.30   4.6   16 182 109  61
   2024 07 15 03:40  22 36 28.78    -32 14 09.0   164543 1.0173 139.1 A   15?  27.76   4.6   16 184 109  61
   2024 07 15 03:50  22 36 30.58    -32 09 30.2   164968 1.0173 139.2 N   15?  28.21   4.8   16 187 109  61
   2024 07 15 04:00  22 36 32.49    -32 04 47.1   165395 1.0173 139.2 N   15?  28.66   5.1   16 189 109  61
   2024 07 15 04:10  22 36 34.55    -31 59 59.6   165826 1.0173 139.2 N   15?  29.10   5.4   16 191 109  61
   2024 07 15 04:20  22 36 36.79    -31 55 08.0   166259 1.0173 139.2 N   15?  29.54   5.8   15 193 109  61
   2024 07 15 04:30  22 36 39.26    -31 50 12.2   166695 1.0173 139.2 C   15?  29.97   6.3   15 195 109  61
   2024 07 15 04:40  22 36 41.98    -31 45 12.5   167134 1.0173 139.2 C   15?  30.40   6.9   15 197 109  61
   ................
   2024 07 15 23:30  23 17 23.31    -24 30 11.1   186342 1.0172 130.5  m  15?  16.75  44.4    0 123 111  68
   2024 07 15 23:40  23 17 31.54    -24 28 10.3   186103 1.0172 130.5  m  15?  16.29  41.6    1 124 111  68
   2024 07 15 23:50  23 17 39.12    -24 26 07.5   185863 1.0172 130.5  m  15?  15.89  38.7    3 126 111  69
   2024 07 16 00:00  23 17 46.07    -24 24 02.3   185624 1.0172 130.5  m  15?  15.55  35.7    4 128 111  69
   2024 07 16 00:10  23 17 52.38    -24 21 54.8   185385 1.0172 130.4  m  15?  15.28  32.6    6 130 111  69
   2024 07 16 00:20  23 17 58.09    -24 19 44.7   185146 1.0172 130.4  m  15?  15.08  29.4    7 131 111  69
   2024 07 16 00:30  23 18 03.21    -24 17 31.9   184909 1.0172 130.4     15?  14.96  26.3    9 133 111  69
   2024 07 16 00:40  23 18 07.74    -24 15 16.2   184672 1.0172 130.4     15?  14.90  23.1   10 135 111  69
   2024 07 16 00:50  23 18 11.72    -24 12 57.5   184437 1.0172 130.4     15?  14.91  20.0   11 137 111  69
   2024 07 16 01:00  23 18 15.17    -24 10 35.6   184204 1.0172 130.4     15?  14.99  17.0   13 139 111  69
   2024 07 16 01:10  23 18 18.10    -24 08 10.5   183973 1.0172 130.3     15?  15.13  14.1   14 141 111  69
   2024 07 16 01:20  23 18 20.53    -24 05 42.0   183744 1.0172 130.3     15?  15.32  11.4   15 143 111  69
   2024 07 16 01:30  23 18 22.50    -24 03 10.0   183517 1.0172 130.3     15?  15.56   8.9   16 145 111  69
   2024 07 16 01:40  23 18 24.02    -24 00 34.3   183293 1.0172 130.3     15?  15.84   6.6   17 147 111  69
   2024 07 16 01:50  23 18 25.12    -23 57 54.9   183072 1.0172 130.3     15?  16.17   4.5   18 149 111  69
   2024 07 16 02:00  23 18 25.82    -23 55 11.6   182854 1.0172 130.3     15?  16.53   2.6   19 151 111  69
   2024 07 16 02:10  23 18 26.17    -23 52 24.4   182640 1.0172 130.3     15?  16.91   0.9   20 153 111  69
   2024 07 16 02:20  23 18 26.17    -23 49 33.1   182429 1.0172 130.3     15?  17.31 359.3   21 156 111  69
   2024 07 16 02:30  23 18 25.87    -23 46 37.8   182221 1.0172 130.3     15?  17.74 358.0   22 158 111  69
   2024 07 16 02:40  23 18 25.29    -23 43 38.3   182018 1.0172 130.3     15?  18.17 356.9   23 160 111  70
   2024 07 16 02:50  23 18 24.46    -23 40 34.6   181818 1.0172 130.3     15?  18.62 356.0   23 163 111  70
   2024 07 16 03:00  23 18 23.41    -23 37 26.5   181622 1.0172 130.3 A   15?  19.07 355.3   24 165 111  70
   2024 07 16 03:10  23 18 22.18    -23 34 14.2   181431 1.0172 130.3 A   15?  19.52 354.7   24 168 111  70
   2024 07 16 03:20  23 18 20.79    -23 30 57.5   181244 1.0172 130.3 A   15?  19.97 354.3   25 170 110  70
   2024 07 16 03:30  23 18 19.29    -23 27 36.4   181061 1.0172 130.3 A   15?  20.43 354.0   25 173 110  70
   2024 07 16 03:40  23 18 17.69    -23 24 10.8   180882 1.0172 130.3 A   15?  20.87 353.9   25 175 110  70
   2024 07 16 03:50  23 18 16.04    -23 20 40.9   180708 1.0172 130.3 N   15?  21.32 353.8   25 178 110  70
   2024 07 16 04:00  23 18 14.37    -23 17 06.5   180538 1.0172 130.3 Nt  15?  21.76 353.9   25 181 110  70
   2024 07 16 04:10  23 18 12.72    -23 13 27.7   180373 1.0172 130.3 Ne  15?  22.19 354.2   25 183 110  70
   2024 07 16 04:20  23 18 11.10    -23 09 44.5   180212 1.0172 130.3 N   15?  22.62 354.5   25 186 110  70
   2024 07 16 04:30  23 18 09.57    -23 05 57.0   180055 1.0172 130.3 C   15?  23.05 354.9   25 188 110  70
   2024 07 16 04:40  23 18 08.15    -23 02 05.1   179903 1.0172 130.3 C   15?  23.46 355.4   25 191 110  70
   2024 07 16 04:50  23 18 06.87    -22 58 08.9   179755 1.0172 130.3 C   15?  23.87 356.0   25 193 110  70
   ................
   2024 07 16 23:30  00 03 12.33    -14 04 22.2   133583 1.0168 118.6  m  14?  47.21  47.8    0 109 114  77
   2024 07 16 23:40  00 03 36.02    -13 59 02.2   132640 1.0168 118.5  m  14?  46.92  46.6    2 110 114  77
   2024 07 16 23:50  00 03 59.11    -13 53 37.0   131693 1.0168 118.4  m  14?  46.66  45.4    4 112 114  77
   2024 07 17 00:00  00 04 21.58    -13 48 06.3   130741 1.0168 118.3  m  14?  46.45  44.1    5 113 114  77
   2024 07 17 00:10  00 04 43.45    -13 42 29.9   129784 1.0168 118.2  m  14?  46.28  42.9    7 115 115  77
   2024 07 17 00:20  00 05 04.73    -13 36 47.4   128823 1.0168 118.1  m  14?  46.16  41.6    9 116 115  77
   2024 07 17 00:30  00 05 25.41    -13 30 58.7   127858 1.0167 118.0  m  14?  46.09  40.3   10 118 115  78
   2024 07 17 00:40  00 05 45.50    -13 25 03.4   126889 1.0167 117.9  m  14?  46.07  38.9   12 120 115  78
   2024 07 17 00:50  00 06 05.02    -13 19 01.4   125917 1.0167 117.8  m  14?  46.11  37.6   14 122 115  78
   2024 07 17 01:00  00 06 23.98    -13 12 52.2   124941 1.0167 117.7     14?  46.20  36.3   15 123 115  78
   2024 07 17 01:10  00 06 42.38    -13 06 35.7   123961 1.0167 117.6     14?  46.36  34.9   17 125 115  78
   2024 07 17 01:20  00 07 00.25    -13 00 11.6   122979 1.0167 117.5     14?  46.57  33.6   18 127 115  78
   2024 07 17 01:30  00 07 17.59    -12 53 39.6   121994 1.0167 117.4     14?  46.84  32.3   20 129 115  78
   2024 07 17 01:40  00 07 34.44    -12 46 59.4   121007 1.0167 117.3     14?  47.18  31.1   21 131 115  78
   2024 07 17 01:50  00 07 50.80    -12 40 10.8   120016 1.0167 117.2     14?  47.58  29.8   23 133 115  78
   2024 07 17 02:00  00 08 06.70    -12 33 13.3   119024 1.0167 117.1     14?  48.04  28.6   24 135 115  78
   2024 07 17 02:10  00 08 22.17    -12 26 06.9   118029 1.0167 117.0     14?  48.57  27.5   26 137 115  78
   2024 07 17 02:20  00 08 37.23    -12 18 51.0   117032 1.0167 116.9     14?  49.15  26.4   27 140 115  78
   2024 07 17 02:30  00 08 51.90    -12 11 25.6   116034 1.0167 116.9     14?  49.81  25.3   28 142 115  78
   2024 07 17 02:40  00 09 06.23    -12 03 50.2   115033 1.0167 116.8     14?  50.52  24.3   30 144 115  78
   2024 07 17 02:50  00 09 20.23    -11 56 04.5   114030 1.0167 116.7     14?  51.29  23.4   31 147 115  78
   2024 07 17 03:00  00 09 33.95    -11 48 08.3   113026 1.0167 116.6 A   14?  52.13  22.6   32 149 115  78
   2024 07 17 03:10  00 09 47.42    -11 40 01.3   112020 1.0167 116.5 A   14?  53.02  21.8   33 152 115  78
   2024 07 17 03:20  00 10 00.68    -11 31 43.1   111012 1.0167 116.4 A   14?  53.98  21.1   34 154 115  78
   2024 07 17 03:30  00 10 13.76    -11 23 13.4   110003 1.0167 116.3 A   14?  54.99  20.4   35 157 115  79
   2024 07 17 03:40  00 10 26.72    -11 14 31.8   108991 1.0167 116.2 A   14?  56.06  19.9   35 160 115  79
   2024 07 17 03:50  00 10 39.59    -11 05 38.2   107978 1.0166 116.2 N   14?  57.19  19.4   36 163 115  79
   2024 07 17 04:00  00 10 52.42    -10 56 32.1   106963 1.0166 116.1 N   14?  58.38  18.9   37 166 116  79
   2024 07 17 04:10  00 11 05.26    -10 47 13.2   105946 1.0166 116.0 N   14?  59.63  18.6   37 169 116  79
   2024 07 17 04:20  00 11 18.16    -10 37 41.2   104928 1.0166 115.9 N   14?  60.94  18.3   38 172 116  79
   2024 07 17 04:30  00 11 31.18    -10 27 55.7   103906 1.0166 115.8 C   14?  62.30  18.1   38 175 116  79
   2024 07 17 04:40  00 11 44.36    -10 17 56.3   102883 1.0166 115.7 C   13?  63.73  18.0   38 178 116  79
   2024 07 17 04:50  00 11 57.76    -10 07 42.7   101857 1.0166 115.6 Ct  13?  65.22  17.9   39 181 116  79
   ................
   2024 07 17 23:50  21 43 13.76    -42 59 03.5    97222 1.0168 147.7  m  14?  73.09  40.7    0 154  62  85
   2024 07 18 00:00  21 43 56.37    -42 49 50.6    98230 1.0168 147.7  m  14?  71.62  39.5    1 155  62  85
   2024 07 18 00:10  21 44 37.03    -42 40 38.9    99230 1.0168 147.7  m  14?  70.30  38.3    1 157  62  85
   2024 07 18 00:20  21 45 15.85    -42 31 28.0   100223 1.0169 147.7  m  14?  69.11  37.1    2 159  62  85
   2024 07 18 00:30  21 45 52.96    -42 22 17.6   101208 1.0169 147.6  m  14?  68.05  36.0    3 160  62  85
   2024 07 18 00:40  21 46 28.48    -42 13 07.5   102187 1.0169 147.6  m  14?  67.11  34.9    4 162  63  85
   2024 07 18 00:50  21 47 02.53    -42 03 57.5   103159 1.0169 147.6  m  14?  66.28  33.9    4 163  63  85
   2024 07 18 01:00  21 47 35.21    -41 54 47.2   104126 1.0169 147.6  m  14?  65.55  32.8    5 165  63  86
   2024 07 18 01:10  21 48 06.63    -41 45 36.5   105086 1.0169 147.6  m  14?  64.91  31.9    6 167  63  86
   2024 07 18 01:20  21 48 36.90    -41 36 25.3   106042 1.0169 147.6  m  14?  64.35  31.0    6 168  63  86
   2024 07 18 01:30  21 49 06.10    -41 27 13.4   106993 1.0169 147.6  m  14?  63.88  30.1    7 170  63  86
   2024 07 18 01:40  21 49 34.34    -41 18 00.7   107939 1.0169 147.6     14?  63.48  29.4    7 172  63  86
   2024 07 18 01:50  21 50 01.71    -41 08 47.1   108881 1.0169 147.6     14?  63.14  28.6    7 174  63  86
   2024 07 18 02:00  21 50 28.29    -40 59 32.5   109819 1.0169 147.6     15?  62.86  28.0    8 176  63  86
   2024 07 18 02:10  21 50 54.17    -40 50 16.9   110753 1.0169 147.7     15?  62.64  27.4    8 177  63  86
   2024 07 18 02:20  21 51 19.43    -40 41 00.3   111683 1.0169 147.7     15?  62.46  26.9    8 179  63  86
   2024 07 18 02:30  21 51 44.15    -40 31 42.7   112611 1.0169 147.7  t  15?  62.32  26.4    8 181  63  86
   2024 07 18 02:40  21 52 08.41    -40 22 24.0   113535 1.0169 147.7     15?  62.23  26.0    8 183  63  86
   2024 07 18 02:50  21 52 32.27    -40 13 04.4   114456 1.0169 147.7  e  15?  62.16  25.7    8 185  63  86
   2024 07 18 03:00  21 52 55.80    -40 03 43.8   115375 1.0169 147.7 A   15?  62.12  25.4    8 187  63  86
   2024 07 18 03:10  21 53 19.08    -39 54 22.5   116291 1.0169 147.7 A   15?  62.11  25.2    8 189  63  86
   2024 07 18 03:20  21 53 42.16    -39 45 00.3   117204 1.0169 147.7 A   15?  62.12  25.1    8 190  63  86
   2024 07 18 03:30  21 54 05.11    -39 35 37.5   118115 1.0169 147.7 A   15?  62.15  25.0    8 192  63  86
   2024 07 18 03:40  21 54 27.98    -39 26 14.1   119024 1.0169 147.7 A   15?  62.20  25.0    7 194  63  86
   2024 07 18 03:50  21 54 50.83    -39 16 50.3   119931 1.0169 147.7 N   15?  62.26  25.0    7 196  64  86
   2024 07 18 04:00  21 55 13.71    -39 07 26.2   120836 1.0169 147.7 N   15?  62.33  25.1    7 198  64  86
   2024 07 18 04:10  21 55 36.66    -38 58 02.0   121739 1.0169 147.7 N   15?  62.41  25.3    6 200  64  86
   2024 07 18 04:20  21 55 59.75    -38 48 37.8   122639 1.0170 147.7 N   15?  62.50  25.5    6 202  64  86
   2024 07 18 04:30  21 56 23.00    -38 39 13.9   123538 1.0170 147.7 C   15?  62.60  25.7    5 203  64  86
   2024 07 18 04:40  21 56 46.46    -38 29 50.3   124435 1.0170 147.7 C   15?  62.70  26.0    5 205  64  87
   2024 07 18 04:50  21 57 10.18    -38 20 27.2   125329 1.0170 147.7 C   15?  62.81  26.4    4 207  64  87
   ................
   2024 07 18 23:20  22 56 59.83    -28 57 53.4   180166 1.0171 137.9  m  15?  16.16  41.3    0 130  68  92
   2024 07 18 23:30  22 57 07.61    -28 55 50.6   180232 1.0171 137.9  m  15?  15.75  38.2    1 131  68  92
   2024 07 18 23:40  22 57 14.70    -28 53 45.4   180298 1.0171 137.9  m  15?  15.43  35.0    3 133  68  92
   2024 07 18 23:50  22 57 21.12    -28 51 37.5   180364 1.0171 137.8  m  15?  15.18  31.8    4 135  68  92
   2024 07 19 00:00  22 57 26.89    -28 49 26.8   180431 1.0171 137.8  m  15?  15.01  28.5    5 136  68  92
   2024 07 19 00:10  22 57 32.03    -28 47 13.2   180498 1.0171 137.8  m  15?  14.92  25.2    7 138  68  92
   2024 07 19 00:20  22 57 36.56    -28 44 56.4   180567 1.0171 137.8  m  15?  14.90  22.0    8 140  68  92
   2024 07 19 00:30  22 57 40.52    -28 42 36.3   180637 1.0171 137.8  m  15?  14.96  18.8    9 142  68  92
   2024 07 19 00:40  22 57 43.92    -28 40 12.8   180708 1.0171 137.8  m  15?  15.08  15.9   10 144  68  92
   2024 07 19 00:50  22 57 46.80    -28 37 45.7   180781 1.0171 137.8  m  15?  15.26  13.1   11 145  68  92
   2024 07 19 01:00  22 57 49.18    -28 35 15.0   180857 1.0171 137.8  m  15?  15.50  10.4   13 147  68  92
   2024 07 19 01:10  22 57 51.09    -28 32 40.4   180935 1.0171 137.8  m  15?  15.78   8.0   14 149  68  92
   2024 07 19 01:20  22 57 52.55    -28 30 02.0   181015 1.0171 137.8  m  15?  16.11   5.9   15 151  68  92
   2024 07 19 01:30  22 57 53.61    -28 27 19.5   181098 1.0171 137.8  m  15?  16.46   3.9   15 154  68  92
   2024 07 19 01:40  22 57 54.28    -28 24 33.0   181184 1.0171 137.8  m  15?  16.85   2.2   16 156  68  92
   2024 07 19 01:50  22 57 54.61    -28 21 42.3   181274 1.0171 137.8  m  15?  17.26   0.7   17 158  68  92
   2024 07 19 02:00  22 57 54.62    -28 18 47.3   181366 1.0171 137.8  m  15?  17.69 359.3   18 160  68  92
   2024 07 19 02:10  22 57 54.35    -28 15 48.0   181462 1.0171 137.8  m  15?  18.13 358.2   18 162  68  92
   2024 07 19 02:20  22 57 53.82    -28 12 44.4   181562 1.0171 137.8  m  15?  18.58 357.3   19 165  68  92
   2024 07 19 02:30  22 57 53.08    -28 09 36.4   181665 1.0171 137.8     15?  19.03 356.6   19 167  68  92
   2024 07 19 02:40  22 57 52.16    -28 06 23.9   181772 1.0171 137.8     15?  19.49 356.0   20 169  68  92
   2024 07 19 02:50  22 57 51.09    -28 03 07.0   181883 1.0171 137.8     15?  19.95 355.6   20 171  68  92
   2024 07 19 03:00  22 57 49.91    -27 59 45.6   181999 1.0171 137.8     15?  20.40 355.4   21 174  68  92
   2024 07 19 03:10  22 57 48.64    -27 56 19.7   182118 1.0171 137.9 A   15?  20.86 355.2   21 176  67  92
   2024 07 19 03:20  22 57 47.33    -27 52 49.4   182241 1.0171 137.9 A   15?  21.30 355.2   21 179  67  92
   2024 07 19 03:30  22 57 46.01    -27 49 14.7   182369 1.0171 137.9 At  15?  21.74 355.3   21 181  67  92
   2024 07 19 03:40  22 57 44.72    -27 45 35.5   182500 1.0171 137.9 Ae  15?  22.18 355.6   21 183  67  93
   2024 07 19 03:50  22 57 43.48    -27 41 52.0   182636 1.0171 137.9 N   15?  22.60 355.9   21 186  67  93
   2024 07 19 04:00  22 57 42.34    -27 38 04.2   182776 1.0171 137.9 N   15?  23.02 356.3   21 188  67  93
   2024 07 19 04:10  22 57 41.32    -27 34 12.1   182920 1.0171 137.9 N   15?  23.43 356.9   20 191  67  93
   2024 07 19 04:20  22 57 40.46    -27 30 15.8   183068 1.0171 137.9 N   15?  23.84 357.5   20 193  67  93
   2024 07 19 04:30  22 57 39.79    -27 26 15.4   183221 1.0171 137.9 C   15?  24.23 358.2   20 195  67  93
   2024 07 19 04:40  22 57 39.34    -27 22 11.0   183377 1.0171 137.9 C   15?  24.62 358.9   19 198  67  93
   2024 07 19 04:50  22 57 39.14    -27 18 02.7   183537 1.0171 137.9 C   15?  25.01 359.8   19 200  67  93
   ................
   2024 07 19 23:10  23 34 58.50    -20 24 13.5   173577 1.0169 129.4  r  15?  22.66  46.7    0 116  67  96
   2024 07 19 23:20  23 35 09.84    -20 21 37.3   173058 1.0169 129.3  m  15?  22.13  44.7    1 118  67  96
   2024 07 19 23:30  23 35 20.51    -20 18 58.9   172538 1.0169 129.3  m  15?  21.66  42.5    2 120  67  96
   2024 07 19 23:40  23 35 30.52    -20 16 18.3   172017 1.0169 129.2  m  15?  21.23  40.3    4 121  67  96
   2024 07 19 23:50  23 35 39.89    -20 13 35.1   171495 1.0169 129.2  m  15?  20.86  37.9    6 123  67  97
   2024 07 20 00:00  23 35 48.61    -20 10 49.2   170972 1.0169 129.2  m  15?  20.55  35.5    7 125  67  97
   2024 07 20 00:10  23 35 56.70    -20 08 00.6   170449 1.0169 129.1  m  15?  20.30  33.0    9 126  67  97
   2024 07 20 00:20  23 36 04.18    -20 05 08.9   169926 1.0169 129.1  m  15?  20.11  30.5   10 128  67  97
   2024 07 20 00:30  23 36 11.05    -20 02 14.2   169404 1.0169 129.1  m  15?  19.98  28.0   12 130  67  97
   2024 07 20 00:40  23 36 17.34    -19 59 16.1   168882 1.0169 129.1  m  15?  19.92  25.4   13 132  67  97
   2024 07 20 00:50  23 36 23.05    -19 56 14.6   168360 1.0169 129.0  m  15?  19.91  23.0   15 134  67  97
   2024 07 20 01:00  23 36 28.22    -19 53 09.5   167840 1.0168 129.0  m  15?  19.97  20.5   16 136  67  97
   2024 07 20 01:10  23 36 32.84    -19 50 00.8   167321 1.0168 129.0  m  15?  20.08  18.2   17 138  67  97
   2024 07 20 01:20  23 36 36.96    -19 46 48.1   166804 1.0168 129.0  m  15?  20.25  15.9   19 140  66  97
   2024 07 20 01:30  23 36 40.59    -19 43 31.5   166288 1.0168 128.9  m  15?  20.47  13.8   20 142  66  97
   2024 07 20 01:40  23 36 43.75    -19 40 10.8   165775 1.0168 128.9  m  15?  20.73  11.8   21 144  66  97
   2024 07 20 01:50  23 36 46.46    -19 36 45.9   165264 1.0168 128.9  m  15?  21.04  10.0   22 146  66  97
   2024 07 20 02:00  23 36 48.76    -19 33 16.6   164755 1.0168 128.9  m  15?  21.38   8.3   23 149  66  97
   2024 07 20 02:10  23 36 50.67    -19 29 42.9   164249 1.0168 128.9  m  15?  21.76   6.7   24 151  66  97
   2024 07 20 02:20  23 36 52.21    -19 26 04.6   163745 1.0168 128.9  m  15?  22.16   5.3   25 154  66  97
   2024 07 20 02:30  23 36 53.43    -19 22 21.7   163245 1.0168 128.9  m  15?  22.59   4.1   26 156  66  97
   2024 07 20 02:40  23 36 54.33    -19 18 34.1   162747 1.0168 128.9  m  15?  23.05   3.0   27 158  66  97
   2024 07 20 02:50  23 36 54.97    -19 14 41.7   162253 1.0168 128.8  m  15?  23.51   2.0   27 161  66  97
   2024 07 20 03:00  23 36 55.37    -19 10 44.4   161762 1.0168 128.8  m  15?  24.00   1.2   28 164  66  97
   2024 07 20 03:10  23 36 55.55    -19 06 42.1   161275 1.0168 128.8 Am  15?  24.49   0.6   29 166  66  97
   2024 07 20 03:20  23 36 55.56    -19 02 34.8   160791 1.0168 128.8 Am  15?  24.99   0.1   29 169  66  97
   2024 07 20 03:30  23 36 55.44    -18 58 22.5   160310 1.0168 128.8 A   15?  25.50 359.6   29 172  66  97
   2024 07 20 03:40  23 36 55.20    -18 54 05.0   159833 1.0168 128.8 A   15?  26.02 359.3   30 174  66  97
   2024 07 20 03:50  23 36 54.90    -18 49 42.5   159360 1.0168 128.8 N   15?  26.53 359.2   30 177  66  97
   2024 07 20 04:00  23 36 54.56    -18 45 14.7   158890 1.0168 128.8 Nt  15?  27.05 359.2   30 180  66  97
   2024 07 20 04:10  23 36 54.22    -18 40 41.8   158423 1.0168 128.8 Ne  15?  27.57 359.2   30 183  66  97
   2024 07 20 04:20  23 36 53.92    -18 36 03.6   157961 1.0168 128.8 N   15?  28.09 359.4   30 185  66  97
   2024 07 20 04:30  23 36 53.69    -18 31 20.3   157501 1.0168 128.8 C   15?  28.61 359.7   30 188  66  97
   2024 07 20 04:40  23 36 53.58    -18 26 31.8   157046 1.0168 128.8 C   15?  29.13   0.1   30 191  66  97
   2024 07 20 04:50  23 36 53.62    -18 21 38.1   156593 1.0168 128.7 C   15?  29.65   0.6   29 194  66  97
   ................
   2024 07 20 23:30  01 12 25.25    +00 36 43.8    58156 1.0161 101.3  m  12? 308.44  53.1    0  89  84  99
   2024 07 20 23:40  01 15 14.04    +01 08 30.3    56283 1.0161 100.5  m  12? 326.93  53.1    1  90  84  99
   2024 07 20 23:50  01 18 13.24    +01 42 16.1    54380 1.0161  99.6  m  12? 347.77  53.1    3  90  85  99
   2024 07 21 00:00  01 21 24.34    +02 18 14.8    52446 1.0161  98.6  m  12? 371.41  53.1    5  91  86  99
   2024 07 21 00:10  01 24 49.13    +02 56 42.3    50479 1.0161  97.6  m  11? 398.38  53.2    7  92  87  99
   2024 07 21 00:20  01 28 29.76    +03 37 57.2    48479 1.0161  96.5  m  11? 429.37  53.3    8  92  88  99
   2024 07 21 00:30  01 32 28.89    +04 22 21.7    46443 1.0161  95.3  m  11? 465.24  53.5   10  92  89  99
   2024 07 21 00:40  01 36 49.82    +05 10 21.9    44370 1.0161  94.0  m  11? 507.11  53.8   11  93  91  99
   2024 07 21 00:50  01 41 36.67    +06 02 29.6    42258 1.0161  92.6  m  11? 556.45  54.1   13  93  92  99
   2024 07 21 01:00  01 46 54.71    +06 59 22.9    40106 1.0161  91.1  m  11? 615.22  54.5   14  93  94  99
   2024 07 21 01:10  01 52 50.76    +08 01 48.3    37912 1.0161  89.3  m  11? 686.07  55.1   16  93  95  99
   2024 07 21 01:20  01 59 33.84    +09 10 43.2    35673 1.0161  87.4  m  11? 772.67  55.7   17  93  97  99
   2024 07 21 01:30  02 07 16.07    +10 27 18.4    33388 1.0160  85.2  m  11? 880.21  56.6   19  92  99  99
   2024 07 21 01:40  02 16 14.21    +11 53 01.5    31057 1.0160  82.6  m  10? 1016.2  57.6   20  91 102  99
   2024 07 21 01:50  02 26 52.06    +13 29 40.5    28679 1.0160  79.6  m  10? 1191.9  58.9   21  89 105  99
   2024 07 21 02:00  02 39 44.44    +15 19 25.4    26257 1.0160  76.1  m  10? 1424.4  60.5   21  87 108  99
   2024 07 21 02:10  02 55 44.20    +17 24 41.4    23798 1.0160  71.8  e  10? 1740.8  62.6   21  85 113  99
   2024 07 21 02:20  03 16 14.49    +19 47 36.5    21315 1.0160  66.5  m  10? 2184.8  65.4   21  81 118  99
   2024 07 21 02:30  03 43 30.84    +22 28 08.0    18839 1.0160  59.7  m  10? 2827.9  69.2   19  76 125  99
   2024 07 21 02:40  04 21 17.47    +25 18 02.8    16432 1.0160  50.8  m  10? 3783.2  74.8   16  70 134  99
   2024 07 21 02:50  05 15 24.67    +27 43 41.7    14215 1.0160  38.6  m  10? 5197.6  82.9   10  61 146  99
   2024 07 21 03:00  06 32 23.25    +28 07 30.1    12426 1.0160  21.8  m  10? 7111.6  94.7    0  51 163  99
   ................
   2024 07 21 23:10  22 31 20.84    -34 24 23.1   150247 1.0168 144.9  m  15?  24.06  39.0    0 137  26  99
   2024 07 21 23:20  22 31 32.75    -34 21 14.3   150686 1.0168 144.9  m  15?  23.63  36.5    1 139  26  99
   2024 07 21 23:30  22 31 43.79    -34 18 02.3   151124 1.0168 144.9  m  15?  23.29  33.9    2 141  26  99
   2024 07 21 23:40  22 31 54.01    -34 14 47.1   151561 1.0168 144.9  m  15?  23.04  31.4    3 142  26  99
   2024 07 21 23:50  22 32 03.42    -34 11 28.3   151997 1.0168 144.9  m  15?  22.87  28.9    4 144  25  99
   2024 07 22 00:00  22 32 12.08    -34 08 05.9   152432 1.0168 144.9  m  15?  22.78  26.4    5 146  25  99
   2024 07 22 00:10  22 32 20.02    -34 04 39.7   152867 1.0168 144.8  m  15?  22.76  24.1    6 148  25  99
   2024 07 22 00:20  22 32 27.29    -34 01 09.5   153303 1.0168 144.8  m  15?  22.82  21.8    7 149  25  99
   2024 07 22 00:30  22 32 33.91    -33 57 35.2   153738 1.0168 144.8  m  15?  22.93  19.6    8 151  25  99
   2024 07 22 00:40  22 32 39.94    -33 53 56.7   154174 1.0168 144.8  m  15?  23.11  17.6    9 153  25  99
   2024 07 22 00:50  22 32 45.41    -33 50 13.8   154611 1.0168 144.8  m  15?  23.34  15.8   10 155  25  99
   2024 07 22 01:00  22 32 50.37    -33 46 26.5   155049 1.0168 144.8  m  15?  23.62  14.0   11 157  25  99
   2024 07 22 01:10  22 32 54.85    -33 42 34.7   155488 1.0168 144.8  m  15?  23.93  12.5   12 159  25  99
   2024 07 22 01:20  22 32 58.91    -33 38 38.3   155929 1.0168 144.9  m  15?  24.28  11.1   12 161  25  99
   2024 07 22 01:30  22 33 02.57    -33 34 37.3   156371 1.0168 144.9  m  15?  24.66   9.8   13 163  25  99
   2024 07 22 01:40  22 33 05.90    -33 30 31.5   156814 1.0168 144.9  m  15?  25.06   8.7   14 165  25  99
   2024 07 22 01:50  22 33 08.92    -33 26 21.0   157260 1.0168 144.9  m  15?  25.48   7.8   14 167  25  99
   2024 07 22 02:00  22 33 11.68    -33 22 05.7   157708 1.0168 144.9  m  15?  25.91   7.0   15 169  25  99
   2024 07 22 02:10  22 33 14.22    -33 17 45.7   158158 1.0168 144.9  m  15?  26.36   6.4   15 171  25  99
   2024 07 22 02:20  22 33 16.59    -33 13 21.0   158610 1.0168 144.9  m  15?  26.81   5.9   15 173  25  99
   2024 07 22 02:30  22 33 18.83    -33 08 51.4   159064 1.0169 144.9  m  15?  27.27   5.5   15 176  25  99
   2024 07 22 02:40  22 33 20.99    -33 04 17.2   159521 1.0169 144.9  m  15?  27.72   5.2   16 178  25  99
   2024 07 22 02:50  22 33 23.09    -32 59 38.4   159981 1.0169 145.0  t  15?  28.18   5.1   16 180  25  99
   2024 07 22 03:00  22 33 25.18    -32 54 54.9   160443 1.0169 145.0  e  15?  28.64   5.0   16 182  25  99
   2024 07 22 03:10  22 33 27.31    -32 50 06.9   160907 1.0169 145.0 Am  15?  29.09   5.1   16 184  25  99
   2024 07 22 03:20  22 33 29.51    -32 45 14.5   161375 1.0169 145.0 Am  15?  29.54   5.2   16 187  25  99
   2024 07 22 03:30  22 33 31.83    -32 40 17.6   161844 1.0169 145.0 Am  15?  29.99   5.5   15 189  24  99
   2024 07 22 03:40  22 33 34.29    -32 35 16.6   162317 1.0169 145.0 Am  15?  30.43   5.8   15 191  24  99
   2024 07 22 03:50  22 33 36.94    -32 30 11.4   162792 1.0169 145.0 Am  15?  30.86   6.2   15 193  24  99
   2024 07 22 04:00  22 33 39.81    -32 25 02.2   163270 1.0169 145.0 Nm  15?  31.29   6.7   14 195  24  99
   2024 07 22 04:10  22 33 42.94    -32 19 49.1   163750 1.0169 145.1 Nm  15?  31.71   7.3   14 197  24  99
   2024 07 22 04:20  22 33 46.36    -32 14 32.2   164233 1.0169 145.1 Nm  15?  32.13   7.9   13 199  24  99
   2024 07 22 04:30  22 33 50.10    -32 09 11.8   164718 1.0169 145.1 Cm  15?  32.54   8.6   13 202  24  99
   2024 07 22 04:40  22 33 54.21    -32 03 47.9   165206 1.0169 145.1 Cm  15?  32.94   9.3   12 204  24  99
   2024 07 22 04:50  22 33 58.69    -31 58 20.8   165695 1.0169 145.1 Cm  15?  33.34  10.1   12 206  24  99
   ................
   2024 07 22 23:00  23 14 42.52    -24 57 20.9   187045 1.0168 137.2  m  15?  16.06  43.5    0 123  22  96
   2024 07 22 23:10  23 14 50.33    -24 55 23.0   186841 1.0168 137.1  m  15?  15.60  40.6    1 125  22  96
   2024 07 22 23:20  23 14 57.49    -24 53 23.1   186637 1.0168 137.1  m  15?  15.21  37.6    3 126  22  96
   2024 07 22 23:30  23 15 04.00    -24 51 21.0   186433 1.0168 137.1  m  15?  14.89  34.4    4 128  22  96
   2024 07 22 23:40  23 15 09.88    -24 49 16.4   186230 1.0168 137.1  m  15?  14.64  31.2    6 130  22  96
   2024 07 22 23:50  23 15 15.15    -24 47 09.3   186027 1.0168 137.1  m  15?  14.46  27.8    7 132  22  96
   2024 07 23 00:00  23 15 19.83    -24 44 59.6   185825 1.0168 137.1  m  15?  14.36  24.5    8 133  22  96
   2024 07 23 00:10  23 15 23.92    -24 42 47.0   185624 1.0168 137.0  m  15?  14.33  21.2   10 135  22  96
   2024 07 23 00:20  23 15 27.46    -24 40 31.4   185425 1.0168 137.0  m  15?  14.36  18.0   11 137  22  96
   2024 07 23 00:30  23 15 30.45    -24 38 12.7   185227 1.0168 137.0  m  15?  14.47  14.9   12 139  22  96
   2024 07 23 00:40  23 15 32.93    -24 35 50.7   185031 1.0168 137.0  m  15?  14.63  12.0   14 141  22  96
   2024 07 23 00:50  23 15 34.92    -24 33 25.3   184838 1.0168 137.0  m  15?  14.85   9.2   15 143  22  96
   2024 07 23 01:00  23 15 36.44    -24 30 56.5   184647 1.0168 137.0  m  15?  15.11   6.7   16 145  22  96
   2024 07 23 01:10  23 15 37.51    -24 28 24.0   184459 1.0168 137.0  m  15?  15.42   4.3   17 147  22  96
   2024 07 23 01:20  23 15 38.16    -24 25 47.9   184274 1.0168 137.0  m  15?  15.76   2.2   18 149  22  96
   2024 07 23 01:30  23 15 38.41    -24 23 07.9   184092 1.0168 137.0  m  15?  16.14   0.3   19 151  22  96
   2024 07 23 01:40  23 15 38.30    -24 20 24.0   183914 1.0168 137.0  m  15?  16.54 358.6   20 154  22  96
   2024 07 23 01:50  23 15 37.86    -24 17 36.1   183739 1.0168 137.0  m  15?  16.96 357.1   21 156  21  96
   2024 07 23 02:00  23 15 37.11    -24 14 44.1   183567 1.0168 137.0  m  15?  17.39 355.9   22 158  21  96
   2024 07 23 02:10  23 15 36.07    -24 11 48.0   183400 1.0168 137.0  m  15?  17.84 354.8   22 161  21  96
   2024 07 23 02:20  23 15 34.80    -24 08 47.7   183236 1.0168 137.0  m  15?  18.29 354.0   23 163  21  96
   2024 07 23 02:30  23 15 33.30    -24 05 43.1   183077 1.0168 137.1  m  15?  18.74 353.3   23 166  21  96
   2024 07 23 02:40  23 15 31.62    -24 02 34.3   182922 1.0168 137.1  m  15?  19.20 352.7   24 168  21  96
   2024 07 23 02:50  23 15 29.79    -23 59 21.1   182771 1.0168 137.1  m  15?  19.65 352.3   24 170  21  96
   2024 07 23 03:00  23 15 27.84    -23 56 03.5   182624 1.0168 137.1  m  15?  20.10 352.1   25 173  21  96
   2024 07 23 03:10  23 15 25.80    -23 52 41.6   182482 1.0168 137.1 Am  15?  20.55 352.0   25 176  21  96
   2024 07 23 03:20  23 15 23.71    -23 49 15.3   182344 1.0168 137.1 Am  15?  20.99 352.0   25 178  21  96
   2024 07 23 03:30  23 15 21.60    -23 45 44.7   182211 1.0168 137.1 At  15?  21.42 352.2   25 181  21  96
   2024 07 23 03:40  23 15 19.50    -23 42 09.7   182082 1.0168 137.1 Ae  15?  21.85 352.4   25 183  21  96
   2024 07 23 03:50  23 15 17.45    -23 38 30.3   181958 1.0168 137.1 Am  15?  22.27 352.8   25 186  21  95
   2024 07 23 04:00  23 15 15.48    -23 34 46.6   181838 1.0168 137.1 Nm  15?  22.68 353.3   25 188  21  95
   2024 07 23 04:10  23 15 13.61    -23 30 58.6   181722 1.0168 137.1 Nm  15?  23.08 353.8   24 191  21  95
   2024 07 23 04:20  23 15 11.90    -23 27 06.5   181611 1.0168 137.1 Nm  15?  23.48 354.5   24 193  21  95
   2024 07 23 04:30  23 15 10.36    -23 23 10.1   181504 1.0168 137.2 Nm  15?  23.87 355.2   24 196  20  95
   2024 07 23 04:40  23 15 09.03    -23 19 09.6   181401 1.0168 137.2 Cm  15?  24.25 356.0   23 198  20  95
   2024 07 23 04:50  23 15 07.94    -23 15 05.0   181303 1.0168 137.2 Cm  15?  24.63 356.9   23 201  20  95
   ................
   2024 07 23 23:00  23 57 20.38    -15 02 14.2   140569 1.0164 126.6  m  14?  40.59  46.9    0 110  19  91
   2024 07 23 23:10  23 57 40.45    -14 57 34.4   139693 1.0164 126.6  m  14?  40.21  45.6    2 111  19  91
   2024 07 23 23:20  23 57 59.87    -14 52 50.4   138814 1.0164 126.5  m  14?  39.86  44.2    3 113  19  91
   2024 07 23 23:30  23 58 18.64    -14 48 01.8   137930 1.0164 126.4  m  14?  39.56  42.8    5 114  19  91
   2024 07 23 23:40  23 58 36.77    -14 43 08.5   137042 1.0164 126.3  m  14?  39.31  41.3    7 116  19  90
   2024 07 23 23:50  23 58 54.26    -14 38 10.3   136151 1.0164 126.2  m  14?  39.10  39.8    9 118  19  90
   2024 07 24 00:00  23 59 11.12    -14 33 06.9   135257 1.0164 126.1  m  14?  38.94  38.3   10 119  19  90
   2024 07 24 00:10  23 59 27.35    -14 27 58.1   134360 1.0164 126.1  m  14?  38.84  36.8   12 121  19  90
   2024 07 24 00:20  23 59 42.97    -14 22 43.6   133460 1.0164 126.0  m  14?  38.79  35.2   14 123  19  90
   2024 07 24 00:30  23 59 57.98    -14 17 23.3   132558 1.0163 125.9  m  14?  38.79  33.7   15 125  19  90
   2024 07 24 00:40  00 00 12.41    -14 11 56.9   131653 1.0163 125.8  m  14?  38.86  32.1   17 127  19  90
   2024 07 24 00:50  00 00 26.25    -14 06 24.2   130747 1.0163 125.8  m  14?  38.98  30.6   18 129  19  90
   2024 07 24 01:00  00 00 39.54    -14 00 45.0   129838 1.0163 125.7  m  14?  39.16  29.1   20 131  19  90
   2024 07 24 01:10  00 00 52.28    -13 54 58.9   128928 1.0163 125.6  m  14?  39.40  27.7   21 133  19  90
   2024 07 24 01:20  00 01 04.50    -13 49 05.9   128017 1.0163 125.6  m  14?  39.70  26.2   23 135  19  90
   2024 07 24 01:30  00 01 16.22    -13 43 05.6   127104 1.0163 125.5  m  14?  40.06  24.9   24 137  19  90
   2024 07 24 01:40  00 01 27.46    -13 36 57.9   126190 1.0163 125.4  m  14?  40.48  23.6   25 139  19  90
   2024 07 24 01:50  00 01 38.24    -13 30 42.5   125276 1.0163 125.4  m  14?  40.95  22.3   27 141  19  90
   2024 07 24 02:00  00 01 48.60    -13 24 19.2   124360 1.0163 125.3  m  14?  41.47  21.1   28 144  19  90
   2024 07 24 02:10  00 01 58.56    -13 17 47.8   123444 1.0163 125.2  m  14?  42.05  20.0   29 146  19  90
   2024 07 24 02:20  00 02 08.15    -13 11 08.0   122527 1.0163 125.2  m  14?  42.68  19.0   30 148  19  90
   2024 07 24 02:30  00 02 17.40    -13 04 19.6   121610 1.0163 125.1  m  14?  43.36  18.0   31 151  19  90
   2024 07 24 02:40  00 02 26.35    -12 57 22.4   120692 1.0163 125.1  m  14?  44.09  17.2   32 154  19  90
   2024 07 24 02:50  00 02 35.03    -12 50 16.1   119774 1.0163 125.0  m  14?  44.86  16.4   33 156  19  90
   2024 07 24 03:00  00 02 43.48    -12 43 00.6   118855 1.0163 124.9  m  14?  45.68  15.7   34 159  19  90
   2024 07 24 03:10  00 02 51.73    -12 35 35.7   117936 1.0163 124.9 Am  14?  46.54  15.1   34 162  19  90
   2024 07 24 03:20  00 02 59.84    -12 28 01.0   117017 1.0163 124.8 Am  14?  47.44  14.6   35 165  19  90
   2024 07 24 03:30  00 03 07.83    -12 20 16.5   116097 1.0162 124.8 Am  14?  48.38  14.1   36 168  19  90
   2024 07 24 03:40  00 03 15.76    -12 12 21.8   115177 1.0162 124.7 Am  14?  49.36  13.8   36 171  19  90
   2024 07 24 03:50  00 03 23.67    -12 04 16.8   114256 1.0162 124.6 Am  14?  50.37  13.5   36 174  19  90
   2024 07 24 04:00  00 03 31.61    -11 56 01.2   113335 1.0162 124.6 Nm  14?  51.43  13.3   37 177  19  90
   2024 07 24 04:10  00 03 39.62    -11 47 34.9   112413 1.0162 124.5 Nt  14?  52.53  13.2   37 180  19  90
   2024 07 24 04:20  00 03 47.75    -11 38 57.6   111490 1.0162 124.5 Nm  14?  53.66  13.2   37 183  19  90
   2024 07 24 04:30  00 03 56.06    -11 30 09.0   110566 1.0162 124.4 Ne  14?  54.83  13.2   37 186  19  90
   2024 07 24 04:40  00 04 04.61    -11 21 09.1   109641 1.0162 124.3 Cm  14?  56.05  13.3   37 189  19  89
   2024 07 24 04:50  00 04 13.43    -11 11 57.4   108715 1.0162 124.2 Cm  14?  57.30  13.5   37 192  19  89
   ................
   2024 07 24 23:30  21 33 50.77    -44 53 49.3    87211 1.0162 150.2  m  14?  94.72  40.1    0 158  46  83
   2024 07 24 23:40  21 34 46.86    -44 41 51.5    88345 1.0163 150.3  m  14?  92.46  39.1    0 159  46  83
   2024 07 24 23:50  21 35 40.28    -44 29 59.9    89469 1.0163 150.3  m  14?  90.40  38.0    1 160  46  83
   2024 07 25 00:00  21 36 31.23    -44 18 14.0    90583 1.0163 150.4  m  14?  88.52  37.1    2 162  45  83
   2024 07 25 00:10  21 37 19.89    -44 06 33.3    91688 1.0163 150.4  m  14?  86.81  36.1    2 163  45  82
   2024 07 25 00:20  21 38 06.42    -43 54 57.1    92783 1.0163 150.5  m  14?  85.25  35.2    3 165  45  82
   2024 07 25 00:30  21 38 50.99    -43 43 25.2    93869 1.0163 150.5  m  14?  83.84  34.3    3 167  45  82
   2024 07 25 00:40  21 39 33.75    -43 31 57.0    94947 1.0163 150.6  m  14?  82.57  33.4    4 168  45  82
   2024 07 25 00:50  21 40 14.84    -43 20 32.4    96018 1.0163 150.7  m  14?  81.41  32.6    5 170  45  82
   2024 07 25 01:00  21 40 54.40    -43 09 10.8    97081 1.0163 150.7  m  14?  80.37  31.9    5 171  44  82
   2024 07 25 01:10  21 41 32.56    -42 57 52.1    98137 1.0163 150.8  m  14?  79.43  31.1    5 173  44  82
   2024 07 25 01:20  21 42 09.44    -42 46 36.0    99187 1.0163 150.8  m  14?  78.59  30.5    6 175  44  82
   2024 07 25 01:30  21 42 45.16    -42 35 22.4   100231 1.0163 150.9  m  14?  77.83  29.9    6 177  44  82
   2024 07 25 01:40  21 43 19.84    -42 24 10.9   101269 1.0163 151.0  m  14?  77.15  29.3    6 178  44  82
   2024 07 25 01:50  21 43 53.57    -42 13 01.6   102301 1.0163 151.0  t  14?  76.54  28.8    7 180  44  82
   2024 07 25 02:00  21 44 26.46    -42 01 54.3   103329 1.0163 151.1  m  14?  75.99  28.4    7 182  44  82
   2024 07 25 02:10  21 44 58.60    -41 50 48.8   104351 1.0163 151.1  m  14?  75.51  28.0    7 184  43  82
   2024 07 25 02:20  21 45 30.10    -41 39 45.2   105368 1.0163 151.2  e  15?  75.07  27.7    7 185  43  82
   2024 07 25 02:30  21 46 01.02    -41 28 43.3   106382 1.0164 151.3  m  15?  74.68  27.4    7 187  43  82
   2024 07 25 02:40  21 46 31.46    -41 17 43.2   107390 1.0164 151.3  m  15?  74.33  27.2    7 189  43  82
   2024 07 25 02:50  21 47 01.48    -41 06 45.0   108395 1.0164 151.4  m  15?  74.02  27.0    6 191  43  82
   2024 07 25 03:00  21 47 31.18    -40 55 48.5   109396 1.0164 151.4  m  15?  73.75  26.9    6 193  43  82
   2024 07 25 03:10  21 48 00.61    -40 44 53.8   110394 1.0164 151.5 Am  15?  73.50  26.9    6 195  43  82
   2024 07 25 03:20  21 48 29.85    -40 34 01.1   111387 1.0164 151.5 Am  15?  73.28  26.9    6 196  43  82
   2024 07 25 03:30  21 48 58.94    -40 23 10.3   112377 1.0164 151.6 Am  15?  73.08  26.9    5 198  42  82
   2024 07 25 03:40  21 49 27.97    -40 12 21.7   113364 1.0164 151.6 Am  15?  72.90  27.0    5 200  42  82
   2024 07 25 03:50  21 49 56.97    -40 01 35.1   114347 1.0164 151.7 Am  15?  72.75  27.2    4 202  42  81
   2024 07 25 04:00  21 50 26.00    -39 50 50.9   115328 1.0164 151.7 Nm  15?  72.60  27.4    4 203  42  81
   2024 07 25 04:10  21 50 55.11    -39 40 09.1   116305 1.0164 151.8 Nm  15?  72.48  27.6    3 205  42  81
   2024 07 25 04:20  21 51 24.34    -39 29 29.9   117278 1.0164 151.8 Nm  15?  72.36  27.9    3 207  42  81
   2024 07 25 04:30  21 51 53.74    -39 18 53.3   118249 1.0164 151.8 Nm  15?  72.26  28.2    2 209  42  81
   2024 07 25 04:40  21 52 23.34    -39 08 19.6   119216 1.0164 151.9 Cm  15?  72.16  28.5    1 210  42  81
   2024 07 25 04:50  21 52 53.19    -38 57 48.8   120181 1.0164 151.9 Cm  15?  72.08  28.9    0 212  41  81
   ................
   2024 07 25 22:50  22 54 57.37    -29 24 43.5   177930 1.0166 143.8  m  15?  16.32  39.9    0 130  36  73
   2024 07 25 23:00  22 55 05.03    -29 22 37.1   178036 1.0166 143.8  m  15?  15.93  36.8    1 131  36  73
   2024 07 25 23:10  22 55 12.00    -29 20 28.2   178143 1.0166 143.8  m  15?  15.62  33.5    2 133  36  73
   2024 07 25 23:20  22 55 18.27    -29 18 16.7   178249 1.0166 143.8  m  15?  15.38  30.3    4 135  36  73
   2024 07 25 23:30  22 55 23.89    -29 16 02.4   178356 1.0166 143.8  m  15?  15.23  26.9    5 136  36  73
   2024 07 25 23:40  22 55 28.86    -29 13 45.0   178464 1.0166 143.8  m  15?  15.16  23.7    6 138  36  73
   2024 07 25 23:50  22 55 33.22    -29 11 24.5   178572 1.0166 143.8  m  15?  15.16  20.4    8 140  36  73
   2024 07 26 00:00  22 55 36.99    -29 09 00.7   178682 1.0166 143.8  m  15?  15.24  17.3    9 142  36  73
   2024 07 26 00:10  22 55 40.20    -29 06 33.4   178793 1.0166 143.8  m  15?  15.38  14.4   10 144  36  73
   2024 07 26 00:20  22 55 42.87    -29 04 02.6   178907 1.0166 143.8  m  15?  15.58  11.6   11 146  36  73
   2024 07 26 00:30  22 55 45.03    -29 01 28.1   179022 1.0166 143.8  m  15?  15.83   9.1   12 148  36  73
   2024 07 26 00:40  22 55 46.71    -28 58 49.7   179139 1.0166 143.8  m  15?  16.13   6.7   13 150  36  73
   2024 07 26 00:50  22 55 47.95    -28 56 07.4   179259 1.0166 143.8  m  15?  16.47   4.6   14 152  36  72
   2024 07 26 01:00  22 55 48.77    -28 53 21.1   179381 1.0166 143.8  m  15?  16.84   2.7   15 154  36  72
   2024 07 26 01:10  22 55 49.20    -28 50 30.6   179507 1.0166 143.8  m  15?  17.24   1.0   16 156  36  72
   2024 07 26 01:20  22 55 49.29    -28 47 36.0   179635 1.0166 143.8  m  15?  17.66 359.5   17 158  37  72
   2024 07 26 01:30  22 55 49.05    -28 44 37.1   179766 1.0166 143.8  m  15?  18.10 358.3   17 160  37  72
   2024 07 26 01:40  22 55 48.52    -28 41 33.8   179901 1.0166 143.8  m  15?  18.55 357.2   18 162  37  72
   2024 07 26 01:50  22 55 47.74    -28 38 26.2   180040 1.0166 143.8  m  15?  19.00 356.3   19 165  37  72
   2024 07 26 02:00  22 55 46.75    -28 35 14.1   180182 1.0166 143.9  m  15?  19.46 355.6   19 167  37  72
   2024 07 26 02:10  22 55 45.57    -28 31 57.6   180328 1.0166 143.9  m  15?  19.93 355.1   19 169  37  72
   2024 07 26 02:20  22 55 44.24    -28 28 36.6   180477 1.0166 143.9  m  15?  20.39 354.7   20 171  37  72
   2024 07 26 02:30  22 55 42.79    -28 25 11.1   180631 1.0166 143.9  m  15?  20.85 354.5   20 174  37  72
   2024 07 26 02:40  22 55 41.27    -28 21 41.2   180789 1.0166 143.9  m  15?  21.30 354.4   20 176  37  72
   2024 07 26 02:50  22 55 39.70    -28 18 06.7   180950 1.0166 143.9  m  15?  21.75 354.4   20 179  37  72
   2024 07 26 03:00  22 55 38.12    -28 14 27.9   181116 1.0166 144.0  t  15?  22.19 354.5   20 181  37  72
   2024 07 26 03:10  22 55 36.57    -28 10 44.6   181286 1.0166 144.0  e  15?  22.62 354.8   20 183  37  72
   2024 07 26 03:20  22 55 35.08    -28 06 56.9   181460 1.0166 144.0 Am  15?  23.04 355.1   20 186  37  72
   2024 07 26 03:30  22 55 33.68    -28 03 04.9   181638 1.0166 144.0 Am  16?  23.46 355.5   20 188  37  72
   2024 07 26 03:40  22 55 32.41    -27 59 08.7   181820 1.0166 144.0 Am  16?  23.86 356.1   20 190  37  72
   2024 07 26 03:50  22 55 31.30    -27 55 08.3   182006 1.0166 144.0 Am  16?  24.26 356.7   20 193  37  72
   2024 07 26 04:00  22 55 30.38    -27 51 03.8   182196 1.0166 144.1 Nm  16?  24.65 357.4   19 195  37  71
   2024 07 26 04:10  22 55 29.69    -27 46 55.2   182390 1.0166 144.1 Nm  16?  25.04 358.2   19 197  37  71
   2024 07 26 04:20  22 55 29.25    -27 42 42.8   182588 1.0166 144.1 Nm  16?  25.42 359.0   18 200  37  71
   2024 07 26 04:30  22 55 29.11    -27 38 26.5   182789 1.0166 144.1 Nm  16?  25.79 359.9   18 202  37  71
   2024 07 26 04:40  22 55 29.28    -27 34 06.6   182994 1.0166 144.1 Cm  16?  26.15   0.9   17 204  37  71
   2024 07 26 04:50  22 55 29.80    -27 29 43.0   183202 1.0166 144.1 Cm  16?  26.52   2.0   16 206  37  71
   ................
   2024 07 26 22:50  23 32 06.68    -20 48 21.5   176466 1.0164 136.3  m  15?  20.62  43.5    1 118  37  62
   2024 07 26 23:00  23 32 16.48    -20 45 50.2   175991 1.0164 136.2  m  15?  20.16  41.2    2 120  37  62
   2024 07 26 23:10  23 32 25.62    -20 43 16.6   175514 1.0164 136.2  m  15?  19.75  38.7    4 122  37  62
   2024 07 26 23:20  23 32 34.12    -20 40 40.6   175037 1.0164 136.2  m  15?  19.40  36.2    5 123  37  62
   2024 07 26 23:30  23 32 41.98    -20 38 02.1   174559 1.0164 136.1  m  15?  19.11  33.6    7 125  37  62
   2024 07 26 23:40  23 32 49.21    -20 35 20.8   174081 1.0164 136.1  m  15?  18.88  30.9    9 127  37  62
   2024 07 26 23:50  23 32 55.83    -20 32 36.8   173604 1.0164 136.1  m  15?  18.72  28.2   10 129  37  62
   2024 07 27 00:00  23 33 01.85    -20 29 49.7   173127 1.0164 136.1  m  15?  18.62  25.6   12 130  37  62
   2024 07 27 00:10  23 33 07.30    -20 26 59.4   172650 1.0164 136.0  m  15?  18.58  22.9   13 132  37  62
   2024 07 27 00:20  23 33 12.17    -20 24 05.9   172175 1.0164 136.0  m  15?  18.61  20.3   14 134  37  62
   2024 07 27 00:30  23 33 16.50    -20 21 08.9   171701 1.0164 136.0  m  15?  18.69  17.7   16 136  37  62
   2024 07 27 00:40  23 33 20.30    -20 18 08.3   171228 1.0164 136.0  m  15?  18.83  15.3   17 138  37  62
   2024 07 27 00:50  23 33 23.60    -20 15 04.0   170757 1.0164 136.0  m  15?  19.03  13.0   18 140  37  62
   2024 07 27 01:00  23 33 26.41    -20 11 56.0   170289 1.0164 136.0  m  15?  19.27  10.8   20 142  37  61
   2024 07 27 01:10  23 33 28.76    -20 08 43.9   169822 1.0164 135.9  m  15?  19.56   8.8   21 145  37  61
   2024 07 27 01:20  23 33 30.67    -20 05 27.8   169358 1.0164 135.9  m  15?  19.89   6.9   22 147  37  61
   2024 07 27 01:30  23 33 32.17    -20 02 07.5   168897 1.0164 135.9  m  15?  20.25   5.2   23 149  37  61
   2024 07 27 01:40  23 33 33.29    -19 58 43.0   168438 1.0164 135.9  m  15?  20.64   3.6   24 151  38  61
   2024 07 27 01:50  23 33 34.06    -19 55 14.0   167983 1.0164 135.9  m  15?  21.05   2.2   25 154  38  61
   2024 07 27 02:00  23 33 34.49    -19 51 40.7   167530 1.0164 135.9  m  15?  21.49   1.0   26 156  38  61
   2024 07 27 02:10  23 33 34.63    -19 48 02.7   167081 1.0163 135.9  m  15?  21.94 359.9   26 159  38  61
   2024 07 27 02:20  23 33 34.50    -19 44 20.2   166635 1.0163 135.9  m  15?  22.41 359.0   27 161  38  61
   2024 07 27 02:30  23 33 34.14    -19 40 33.0   166193 1.0163 135.9  m  15?  22.89 358.2   28 164  38  61
   2024 07 27 02:40  23 33 33.57    -19 36 41.0   165755 1.0163 135.9  m  15?  23.38 357.6   28 167  38  61
   2024 07 27 02:50  23 33 32.83    -19 32 44.2   165320 1.0163 135.9  m  15?  23.87 357.1   29 169  38  61
   2024 07 27 03:00  23 33 31.96    -19 28 42.6   164889 1.0163 135.9  m  15?  24.36 356.8   29 172  38  61
   2024 07 27 03:10  23 33 30.98    -19 24 36.1   164462 1.0163 135.9  m  15?  24.86 356.6   29 175  38  61
   2024 07 27 03:20  23 33 29.94    -19 20 24.7   164038 1.0163 135.9 Am  15?  25.35 356.5   29 177  38  61
   2024 07 27 03:30  23 33 28.87    -19 16 08.4   163619 1.0163 135.9 At  15?  25.84 356.5   29 180  38  61
   2024 07 27 03:40  23 33 27.79    -19 11 47.2   163203 1.0163 135.9 Ae  15?  26.34 356.6   29 183  38  61
   2024 07 27 03:50  23 33 26.76    -19 07 20.9   162791 1.0163 135.9 Am  15?  26.82 356.9   29 186  38  60
   2024 07 27 04:00  23 33 25.80    -19 02 49.8   162383 1.0163 135.9 Nm  15?  27.31 357.2   29 188  38  60
   2024 07 27 04:10  23 33 24.96    -18 58 13.7   161978 1.0163 135.9 Nm  15?  27.79 357.6   29 191  38  60
   2024 07 27 04:20  23 33 24.26    -18 53 32.7   161577 1.0163 135.9 Nm  15?  28.27 358.1   29 194  38  60
   2024 07 27 04:30  23 33 23.74    -18 48 46.9   161180 1.0163 135.9 Nm  15?  28.75 358.7   28 196  38  60
   2024 07 27 04:40  23 33 23.44    -18 43 56.1   160786 1.0163 135.9 Cm  15?  29.23 359.4   28 199  38  60
   2024 07 27 04:50  23 33 23.40    -18 39 00.6   160396 1.0163 135.9 Cm  15?  29.71   0.2   27 202  38  60
   2024 07 27 05:00  23 33 23.65    -18 34 00.3   160008 1.0163 135.9 Cm  15?  30.19   1.0   26 204  38  60
   ................
   2024 07 27 22:50  00 47 51.40    -03 35 56.5    75580 1.0157 115.1  r  13? 175.84  50.5    0  94  25  51
   2024 07 27 23:00  00 49 23.29    -03 16 53.7    73980 1.0157 114.7  m  13? 181.64  50.2    1  95  25  51
   2024 07 27 23:10  00 50 57.77    -02 57 03.7    72360 1.0157 114.2  m  13? 187.94  49.8    3  96  24  51
   2024 07 27 23:20  00 52 35.10    -02 36 22.7    70721 1.0157 113.7  m  13? 194.81  49.5    5  97  24  51
   2024 07 27 23:30  00 54 15.58    -02 14 46.7    69061 1.0156 113.2  m  13? 202.32  49.2    7  98  23  51
   2024 07 27 23:40  00 55 59.54    -01 52 11.2    67380 1.0156 112.7  m  12? 210.55  48.9    8 100  23  51
   2024 07 27 23:50  00 57 47.35    -01 28 31.2    65677 1.0156 112.1  m  12? 219.58  48.6   10 101  22  51
   2024 07 28 00:00  00 59 39.46    -01 03 41.1    63953 1.0156 111.5  m  12? 229.53  48.4   12 102  22  51
   

MMS-3 (JPL-ID: -140484)

   Date (UTC) HH:MM   RA              Dec         delta   r     elong SM  mag  '/hr    PA   alt  az moo ill
   ---- -- -- -----  -------------   -----------  ------ ------ ----- --  --- ------ ------ --- --- --- ---
   2024 07 14 00:20  02 03 09.78    +08 48 03.2    37442 1.0165  80.0     11? 780.40  58.7    0  78 168  50
   2024 07 14 00:30  02 11 10.72    +09 59 16.1    35154 1.0165  77.7     11? 884.00  59.5    1  77 167  50
   2024 07 14 00:40  02 20 26.19    +11 18 15.5    32819 1.0165  75.1     11? 1013.8  60.5    2  77 164  50
   2024 07 14 00:50  02 31 18.22    +12 46 20.6    30437 1.0165  72.1     11? 1179.5  61.8    3  75 162  50
   2024 07 14 01:00  02 44 18.43    +14 24 59.7    28011 1.0164  68.6     11? 1395.8  63.4    3  74 159  50
   2024 07 14 01:10  03 00 13.50    +16 15 39.2    25547 1.0164  64.4  e  10? 1685.4  65.5    4  71 155  50
   2024 07 14 01:20  03 20 14.58    +18 19 07.6    23056 1.0164  59.3     10? 2083.7  68.2    3  68 150  50
   2024 07 14 01:30  03 46 13.08    +20 33 53.9    20565 1.0164  52.8     10? 2647.6  71.8    2  64 143  50
   2024 07 14 01:40  04 21 05.13    +22 51 29.0    18122 1.0164  44.4     10? 3465.7  76.9    0  58 135  50
   ................
   2024 07 14 23:40  22 34 38.14    -33 42 31.4   155072 1.0173 139.3  m  15?  22.50  39.5    0 137 110  59
   2024 07 14 23:50  22 34 49.17    -33 39 36.7   155460 1.0173 139.3  m  15?  22.09  36.9    1 139 110  59
   2024 07 15 00:00  22 34 59.38    -33 36 38.9   155848 1.0173 139.2     15?  21.77  34.3    2 140 110  59
   2024 07 15 00:10  22 35 08.79    -33 33 37.8   156234 1.0173 139.2     15?  21.53  31.7    4 142 110  59
   2024 07 15 00:20  22 35 17.45    -33 30 33.2   156620 1.0173 139.2     15?  21.38  29.1    5 144 110  59
   2024 07 15 00:30  22 35 25.39    -33 27 24.9   157006 1.0173 139.2     15?  21.30  26.6    6 145 110  59
   2024 07 15 00:40  22 35 32.65    -33 24 12.8   157392 1.0173 139.2     15?  21.30  24.1    7 147 110  60
   2024 07 15 00:50  22 35 39.26    -33 20 56.7   157779 1.0173 139.1     15?  21.36  21.7    8 149 110  60
   2024 07 15 01:00  22 35 45.26    -33 17 36.6   158166 1.0173 139.1     15?  21.49  19.5    9 151 110  60
   2024 07 15 01:10  22 35 50.69    -33 14 12.2   158554 1.0173 139.1     15?  21.68  17.4   10 153 110  60
   2024 07 15 01:20  22 35 55.59    -33 10 43.4   158943 1.0173 139.1     15?  21.92  15.5   11 155 110  60
   2024 07 15 01:30  22 35 59.99    -33 07 10.3   159333 1.0173 139.1     15?  22.20  13.7   12 157 110  60
   2024 07 15 01:40  22 36 03.95    -33 03 32.6   159725 1.0173 139.1     15?  22.52  12.1   12 159 110  60
   2024 07 15 01:50  22 36 07.49    -32 59 50.3   160119 1.0173 139.1     15?  22.88  10.7   13 161 110  60
   2024 07 15 02:00  22 36 10.66    -32 56 03.4   160514 1.0173 139.1     15?  23.26   9.4   14 163 110  60
   2024 07 15 02:10  22 36 13.51    -32 52 11.7   160912 1.0173 139.1     15?  23.67   8.3   14 165 110  60
   2024 07 15 02:20  22 36 16.06    -32 48 15.3   161312 1.0173 139.1     15?  24.10   7.3   15 167 110  60
   2024 07 15 02:30  22 36 18.37    -32 44 14.2   161714 1.0173 139.1     15?  24.53   6.5   15 169 110  60
   2024 07 15 02:40  22 36 20.47    -32 40 08.3   162119 1.0173 139.1     15?  24.98   5.9   16 171 110  60
   2024 07 15 02:50  22 36 22.40    -32 35 57.6   162526 1.0173 139.1     15?  25.44   5.3   16 173 109  60
   2024 07 15 03:00  22 36 24.21    -32 31 42.1   162936 1.0173 139.1 A   15?  25.90   5.0   16 175 109  60
   2024 07 15 03:10  22 36 25.94    -32 27 22.0   163348 1.0173 139.1 A   15?  26.36   4.7   16 178 109  61
   2024 07 15 03:20  22 36 27.62    -32 22 57.1   163764 1.0173 139.1 At  15?  26.82   4.6   16 180 109  61
   2024 07 15 03:30  22 36 29.30    -32 18 27.6   164182 1.0173 139.1 Ae  15?  27.28   4.5   16 182 109  61
   2024 07 15 03:40  22 36 31.01    -32 13 53.6   164603 1.0173 139.1 A   15?  27.74   4.6   16 184 109  61
   2024 07 15 03:50  22 36 32.80    -32 09 15.0   165027 1.0173 139.1 N   15?  28.19   4.8   16 187 109  61
   2024 07 15 04:00  22 36 34.70    -32 04 32.1   165454 1.0173 139.1 N   15?  28.64   5.0   16 189 109  61
   2024 07 15 04:10  22 36 36.74    -31 59 44.8   165884 1.0173 139.2 N   15?  29.08   5.4   16 191 109  61
   2024 07 15 04:20  22 36 38.98    -31 54 53.3   166317 1.0173 139.2 N   15?  29.52   5.8   15 193 109  61
   2024 07 15 04:30  22 36 41.43    -31 49 57.8   166753 1.0173 139.2 C   15?  29.95   6.3   15 195 109  61
   2024 07 15 04:40  22 36 44.14    -31 44 58.3   167191 1.0173 139.2 C   15?  30.38   6.9   15 197 109  61
   ................
   2024 07 15 23:30  23 17 24.34    -24 30 04.1   186358 1.0172 130.5  m  15?  16.75  44.4    0 123 111  68
   2024 07 15 23:40  23 17 32.58    -24 28 03.3   186118 1.0172 130.5  m  15?  16.29  41.6    1 124 111  68
   2024 07 15 23:50  23 17 40.16    -24 26 00.4   185879 1.0172 130.5  m  15?  15.88  38.7    3 126 111  69
   2024 07 16 00:00  23 17 47.10    -24 23 55.3   185639 1.0172 130.5  m  15?  15.55  35.7    4 128 111  69
   2024 07 16 00:10  23 17 53.41    -24 21 47.7   185400 1.0172 130.4  m  15?  15.28  32.6    6 130 111  69
   2024 07 16 00:20  23 17 59.12    -24 19 37.6   185161 1.0172 130.4  m  15?  15.08  29.4    7 131 111  69
   2024 07 16 00:30  23 18 04.23    -24 17 24.8   184923 1.0172 130.4     15?  14.96  26.3    9 133 111  69
   2024 07 16 00:40  23 18 08.77    -24 15 09.1   184686 1.0172 130.4     15?  14.90  23.1   10 135 111  69
   2024 07 16 00:50  23 18 12.75    -24 12 50.4   184451 1.0172 130.4     15?  14.91  20.0   11 137 111  69
   2024 07 16 01:00  23 18 16.19    -24 10 28.6   184217 1.0172 130.3     15?  14.99  17.0   13 139 111  69
   2024 07 16 01:10  23 18 19.12    -24 08 03.5   183985 1.0172 130.3     15?  15.12  14.1   14 141 111  69
   2024 07 16 01:20  23 18 21.55    -24 05 35.0   183756 1.0172 130.3     15?  15.32  11.4   15 143 111  69
   2024 07 16 01:30  23 18 23.52    -24 03 02.9   183529 1.0172 130.3     15?  15.56   8.9   16 145 111  69
   2024 07 16 01:40  23 18 25.04    -24 00 27.3   183305 1.0172 130.3     15?  15.84   6.6   17 147 111  69
   2024 07 16 01:50  23 18 26.14    -23 57 47.8   183084 1.0172 130.3     15?  16.17   4.5   18 149 111  69
   2024 07 16 02:00  23 18 26.84    -23 55 04.6   182866 1.0172 130.3     15?  16.52   2.6   19 151 111  69
   2024 07 16 02:10  23 18 27.18    -23 52 17.4   182651 1.0172 130.3     15?  16.91   0.9   20 153 111  69
   2024 07 16 02:20  23 18 27.19    -23 49 26.1   182439 1.0172 130.3     15?  17.31 359.3   21 156 111  69
   2024 07 16 02:30  23 18 26.88    -23 46 30.8   182232 1.0172 130.3     15?  17.74 358.0   22 158 111  69
   2024 07 16 02:40  23 18 26.30    -23 43 31.3   182028 1.0172 130.3     15?  18.17 356.9   23 160 111  70
   2024 07 16 02:50  23 18 25.47    -23 40 27.6   181828 1.0172 130.3     15?  18.62 356.0   23 163 111  70
   2024 07 16 03:00  23 18 24.42    -23 37 19.6   181632 1.0172 130.3 A   15?  19.07 355.3   24 165 111  70
   2024 07 16 03:10  23 18 23.18    -23 34 07.2   181440 1.0172 130.3 A   15?  19.52 354.7   24 168 111  70
   2024 07 16 03:20  23 18 21.80    -23 30 50.5   181252 1.0172 130.3 A   15?  19.97 354.3   25 170 110  70
   2024 07 16 03:30  23 18 20.29    -23 27 29.4   181069 1.0172 130.3 A   15?  20.43 354.0   25 173 110  70
   2024 07 16 03:40  23 18 18.69    -23 24 03.9   180890 1.0172 130.3 A   15?  20.87 353.8   25 175 110  70
   2024 07 16 03:50  23 18 17.04    -23 20 33.9   180716 1.0172 130.3 N   15?  21.32 353.8   25 178 110  70
   2024 07 16 04:00  23 18 15.37    -23 16 59.6   180546 1.0172 130.3 Nt  15?  21.76 353.9   25 181 110  70
   2024 07 16 04:10  23 18 13.71    -23 13 20.8   180380 1.0172 130.3 Ne  15?  22.19 354.2   25 183 110  70
   2024 07 16 04:20  23 18 12.10    -23 09 37.6   180219 1.0172 130.3 N   15?  22.62 354.5   25 186 110  70
   2024 07 16 04:30  23 18 10.56    -23 05 50.0   180062 1.0172 130.3 C   15?  23.04 354.9   25 188 110  70
   2024 07 16 04:40  23 18 09.14    -23 01 58.2   179909 1.0172 130.3 C   15?  23.46 355.4   25 191 110  70
   2024 07 16 04:50  23 18 07.86    -22 58 02.0   179761 1.0172 130.3 C   15?  23.87 356.0   25 193 110  70
   ................
   2024 07 16 23:30  00 03 13.54    -14 04 07.2   133555 1.0168 118.6  m  14?  47.24  47.8    0 109 114  77
   2024 07 16 23:40  00 03 37.24    -13 58 47.0   132612 1.0168 118.5  m  14?  46.95  46.6    2 110 114  77
   2024 07 16 23:50  00 04 00.34    -13 53 21.6   131664 1.0168 118.4  m  14?  46.69  45.4    4 112 114  77
   2024 07 17 00:00  00 04 22.82    -13 47 50.7   130712 1.0168 118.3  m  14?  46.48  44.1    5 113 114  77
   2024 07 17 00:10  00 04 44.71    -13 42 14.0   129755 1.0168 118.2  m  14?  46.31  42.9    7 115 115  77
   2024 07 17 00:20  00 05 06.00    -13 36 31.3   128793 1.0168 118.1  m  14?  46.19  41.6    9 116 115  77
   2024 07 17 00:30  00 05 26.69    -13 30 42.3   127828 1.0167 118.0  m  14?  46.12  40.3   10 118 115  78
   2024 07 17 00:40  00 05 46.80    -13 24 46.8   126859 1.0167 117.9  m  14?  46.10  38.9   12 120 115  78
   2024 07 17 00:50  00 06 06.33    -13 18 44.5   125886 1.0167 117.8  m  14?  46.14  37.6   14 122 115  78
   2024 07 17 01:00  00 06 25.30    -13 12 35.2   124909 1.0167 117.7     14?  46.24  36.3   15 123 115  78
   2024 07 17 01:10  00 06 43.71    -13 06 18.4   123930 1.0167 117.6     14?  46.39  34.9   17 125 115  78
   2024 07 17 01:20  00 07 01.59    -12 59 54.0   122947 1.0167 117.5     14?  46.60  33.6   18 127 115  78
   2024 07 17 01:30  00 07 18.95    -12 53 21.7   121962 1.0167 117.4     14?  46.88  32.3   20 129 115  78
   2024 07 17 01:40  00 07 35.81    -12 46 41.3   120974 1.0167 117.3     14?  47.21  31.1   21 131 115  78
   2024 07 17 01:50  00 07 52.19    -12 39 52.3   119983 1.0167 117.2     14?  47.61  29.8   23 133 115  78
   2024 07 17 02:00  00 08 08.10    -12 32 54.6   118990 1.0167 117.1     14?  48.08  28.6   24 135 115  78
   2024 07 17 02:10  00 08 23.59    -12 25 47.8   117995 1.0167 117.0     14?  48.60  27.5   26 137 115  78
   2024 07 17 02:20  00 08 38.66    -12 18 31.6   116998 1.0167 116.9     14?  49.19  26.4   27 140 115  78
   2024 07 17 02:30  00 08 53.35    -12 11 05.8   115998 1.0167 116.9     14?  49.85  25.3   28 142 115  78
   2024 07 17 02:40  00 09 07.69    -12 03 30.1   114997 1.0167 116.8     14?  50.56  24.4   30 144 115  78
   2024 07 17 02:50  00 09 21.71    -11 55 44.1   113994 1.0167 116.7     14?  51.33  23.4   31 147 115  78
   2024 07 17 03:00  00 09 35.44    -11 47 47.5   112990 1.0167 116.6 A   14?  52.17  22.6   32 149 115  78
   2024 07 17 03:10  00 09 48.93    -11 39 40.1   111983 1.0167 116.5 A   14?  53.07  21.8   33 152 115  78
   2024 07 17 03:20  00 10 02.20    -11 31 21.5   110975 1.0167 116.4 A   14?  54.02  21.1   34 154 115  78
   2024 07 17 03:30  00 10 15.30    -11 22 51.4   109965 1.0167 116.3 A   14?  55.04  20.4   35 157 115  79
   2024 07 17 03:40  00 10 28.28    -11 14 09.5   108953 1.0167 116.2 A   14?  56.11  19.9   35 160 115  79
   2024 07 17 03:50  00 10 41.17    -11 05 15.4   107939 1.0166 116.1 N   14?  57.24  19.4   36 163 116  79
   2024 07 17 04:00  00 10 54.01    -10 56 08.9   106924 1.0166 116.1 N   14?  58.43  19.0   37 166 116  79
   2024 07 17 04:10  00 11 06.87    -10 46 49.5   105906 1.0166 116.0 N   14?  59.68  18.6   37 169 116  79
   2024 07 17 04:20  00 11 19.79    -10 37 17.0   104887 1.0166 115.9 N   14?  60.99  18.3   38 172 116  79
   2024 07 17 04:30  00 11 32.82    -10 27 31.0   103865 1.0166 115.8 C   14?  62.36  18.1   38 175 116  79
   2024 07 17 04:40  00 11 46.02    -10 17 31.1   102841 1.0166 115.7 C   13?  63.79  18.0   38 178 116  79
   2024 07 17 04:50  00 11 59.44    -10 07 17.0   101815 1.0166 115.6 Ct  13?  65.28  17.9   39 181 116  79
   ................
   2024 07 17 23:50  21 43 16.40    -42 58 51.6    97271 1.0168 147.7  m  14?  73.00  40.7    0 154  62  85
   2024 07 18 00:00  21 43 58.95    -42 49 39.2    98279 1.0168 147.7  m  14?  71.54  39.5    1 155  62  85
   2024 07 18 00:10  21 44 39.54    -42 40 28.0    99278 1.0168 147.7  m  14?  70.22  38.3    1 157  62  85
   2024 07 18 00:20  21 45 18.31    -42 31 17.7   100270 1.0169 147.7  m  14?  69.04  37.1    2 159  62  85
   2024 07 18 00:30  21 45 55.36    -42 22 07.8   101255 1.0169 147.6  m  14?  67.98  36.0    3 160  62  85
   2024 07 18 00:40  21 46 30.83    -42 12 58.2   102233 1.0169 147.6  m  14?  67.04  34.9    4 162  63  85
   2024 07 18 00:50  21 47 04.83    -42 03 48.6   103205 1.0169 147.6  m  14?  66.21  33.8    4 163  63  85
   2024 07 18 01:00  21 47 37.46    -41 54 38.8   104171 1.0169 147.6  m  14?  65.48  32.8    5 165  63  86
   2024 07 18 01:10  21 48 08.84    -41 45 28.6   105131 1.0169 147.6  m  14?  64.84  31.9    6 167  63  86
   2024 07 18 01:20  21 48 39.06    -41 36 17.9   106087 1.0169 147.6  m  14?  64.29  31.0    6 168  63  86
   2024 07 18 01:30  21 49 08.22    -41 27 06.4   107037 1.0169 147.6  m  14?  63.82  30.1    7 170  63  86
   2024 07 18 01:40  21 49 36.42    -41 17 54.1   107983 1.0169 147.6     14?  63.42  29.3    7 172  63  86
   2024 07 18 01:50  21 50 03.74    -41 08 40.9   108924 1.0169 147.6     14?  63.08  28.6    7 174  63  86
   2024 07 18 02:00  21 50 30.28    -40 59 26.7   109862 1.0169 147.6     15?  62.81  28.0    8 176  63  86
   2024 07 18 02:10  21 50 56.12    -40 50 11.5   110795 1.0169 147.6     15?  62.58  27.4    8 177  63  86
   2024 07 18 02:20  21 51 21.35    -40 40 55.3   111726 1.0169 147.7     15?  62.41  26.8    8 179  63  86
   2024 07 18 02:30  21 51 46.03    -40 31 38.0   112653 1.0169 147.7  t  15?  62.27  26.4    8 181  63  86
   2024 07 18 02:40  21 52 10.25    -40 22 19.7   113576 1.0169 147.7     15?  62.18  26.0    8 183  63  86
   2024 07 18 02:50  21 52 34.07    -40 13 00.5   114497 1.0169 147.7  e  15?  62.11  25.7    8 185  63  86
   2024 07 18 03:00  21 52 57.58    -40 03 40.3   115416 1.0169 147.7 A   15?  62.08  25.4    8 187  63  86
   2024 07 18 03:10  21 53 20.82    -39 54 19.2   116331 1.0169 147.7 A   15?  62.07  25.2    8 189  63  86
   2024 07 18 03:20  21 53 43.87    -39 44 57.4   117245 1.0169 147.7 A   15?  62.08  25.1    8 190  63  86
   2024 07 18 03:30  21 54 06.79    -39 35 34.8   118155 1.0169 147.7 A   15?  62.11  25.0    8 192  63  86
   2024 07 18 03:40  21 54 29.63    -39 26 11.8   119064 1.0169 147.7 A   15?  62.16  25.0    7 194  63  86
   2024 07 18 03:50  21 54 52.44    -39 16 48.3   119971 1.0169 147.7 N   15?  62.22  25.0    7 196  64  86
   2024 07 18 04:00  21 55 15.29    -39 07 24.5   120875 1.0169 147.7 N   15?  62.29  25.1    7 198  64  86
   2024 07 18 04:10  21 55 38.22    -38 58 00.6   121777 1.0169 147.7 N   15?  62.37  25.3    6 200  64  86
   2024 07 18 04:20  21 56 01.27    -38 48 36.7   122678 1.0170 147.7 N   15?  62.46  25.5    6 202  64  86
   2024 07 18 04:30  21 56 24.50    -38 39 13.0   123576 1.0170 147.7 C   15?  62.56  25.7    5 203  64  86
   2024 07 18 04:40  21 56 47.93    -38 29 49.7   124472 1.0170 147.7 C   15?  62.67  26.0    5 205  64  87
   2024 07 18 04:50  21 57 11.62    -38 20 26.9   125367 1.0170 147.7 C   15?  62.77  26.3    4 207  64  87
   ................
   2024 07 18 23:20  22 56 59.88    -28 58 01.8   180189 1.0171 137.9  m  15?  16.15  41.3    0 130  68  92
   2024 07 18 23:30  22 57 07.66    -28 55 59.0   180255 1.0171 137.9  m  15?  15.75  38.2    1 131  68  92
   2024 07 18 23:40  22 57 14.74    -28 53 53.8   180321 1.0171 137.9  m  15?  15.42  35.0    3 133  68  92
   2024 07 18 23:50  22 57 21.16    -28 51 46.0   180387 1.0171 137.8  m  15?  15.18  31.8    4 135  68  92
   2024 07 19 00:00  22 57 26.92    -28 49 35.3   180453 1.0171 137.8  m  15?  15.01  28.5    5 136  68  92
   2024 07 19 00:10  22 57 32.06    -28 47 21.7   180521 1.0171 137.8  m  15?  14.92  25.2    7 138  68  92
   2024 07 19 00:20  22 57 36.59    -28 45 04.9   180589 1.0171 137.8  m  15?  14.90  21.9    8 140  68  92
   2024 07 19 00:30  22 57 40.55    -28 42 44.9   180659 1.0171 137.8  m  15?  14.95  18.8    9 142  68  92
   2024 07 19 00:40  22 57 43.95    -28 40 21.4   180730 1.0171 137.8  m  15?  15.08  15.8   10 144  68  92
   2024 07 19 00:50  22 57 46.82    -28 37 54.3   180804 1.0171 137.8  m  15?  15.26  13.0   11 145  68  92
   2024 07 19 01:00  22 57 49.20    -28 35 23.6   180879 1.0171 137.8  m  15?  15.49  10.4   13 147  68  92
   2024 07 19 01:10  22 57 51.10    -28 32 49.1   180957 1.0171 137.8  m  15?  15.78   8.0   14 149  68  92
   2024 07 19 01:20  22 57 52.56    -28 30 10.7   181037 1.0171 137.8  m  15?  16.10   5.9   15 151  68  92
   2024 07 19 01:30  22 57 53.62    -28 27 28.3   181120 1.0171 137.8  m  15?  16.46   3.9   15 154  68  92
   2024 07 19 01:40  22 57 54.29    -28 24 41.8   181206 1.0171 137.8  m  15?  16.85   2.2   16 156  68  92
   2024 07 19 01:50  22 57 54.61    -28 21 51.1   181296 1.0171 137.8  m  15?  17.26   0.7   17 158  68  92
   2024 07 19 02:00  22 57 54.62    -28 18 56.1   181388 1.0171 137.8  m  15?  17.69 359.3   18 160  68  92
   2024 07 19 02:10  22 57 54.34    -28 15 56.9   181484 1.0171 137.8  m  15?  18.13 358.2   18 162  68  92
   2024 07 19 02:20  22 57 53.82    -28 12 53.3   181584 1.0171 137.8  m  15?  18.58 357.3   19 165  68  92
   2024 07 19 02:30  22 57 53.07    -28 09 45.3   181687 1.0171 137.8     15?  19.03 356.6   19 167  68  92
   2024 07 19 02:40  22 57 52.15    -28 06 32.8   181794 1.0171 137.8     15?  19.49 356.0   20 169  68  92
   2024 07 19 02:50  22 57 51.08    -28 03 15.9   181905 1.0171 137.8     15?  19.95 355.6   20 171  68  92
   2024 07 19 03:00  22 57 49.89    -27 59 54.6   182020 1.0171 137.8     15?  20.40 355.3   21 174  68  92
   2024 07 19 03:10  22 57 48.62    -27 56 28.7   182140 1.0171 137.9 A   15?  20.85 355.2   21 176  67  92
   2024 07 19 03:20  22 57 47.31    -27 52 58.5   182263 1.0171 137.9 A   15?  21.30 355.2   21 179  67  92
   2024 07 19 03:30  22 57 45.99    -27 49 23.7   182390 1.0171 137.9 At  15?  21.74 355.3   21 181  67  92
   2024 07 19 03:40  22 57 44.69    -27 45 44.6   182522 1.0171 137.9 Ae  15?  22.17 355.6   21 183  67  93
   2024 07 19 03:50  22 57 43.45    -27 42 01.1   182658 1.0171 137.9 N   15?  22.60 355.9   21 186  67  93
   2024 07 19 04:00  22 57 42.31    -27 38 13.3   182798 1.0171 137.9 N   15?  23.02 356.3   21 188  67  93
   2024 07 19 04:10  22 57 41.28    -27 34 21.3   182942 1.0171 137.9 N   15?  23.43 356.9   20 191  67  93
   2024 07 19 04:20  22 57 40.42    -27 30 25.0   183090 1.0171 137.9 N   15?  23.83 357.5   20 193  67  93
   2024 07 19 04:30  22 57 39.75    -27 26 24.7   183242 1.0171 137.9 C   15?  24.23 358.2   20 195  67  93
   2024 07 19 04:40  22 57 39.30    -27 22 20.3   183398 1.0171 137.9 C   15?  24.62 358.9   19 198  67  93
   2024 07 19 04:50  22 57 39.10    -27 18 12.0   183558 1.0171 137.9 C   15?  25.00 359.8   19 200  67  93
   ................
   2024 07 19 23:10  23 34 57.96    -20 24 25.7   173600 1.0169 129.4  r  15?  22.65  46.7    0 116  67  96
   2024 07 19 23:20  23 35 09.29    -20 21 49.5   173082 1.0169 129.3  m  15?  22.12  44.7    1 118  67  96
   2024 07 19 23:30  23 35 19.96    -20 19 11.2   172562 1.0169 129.3  m  15?  21.65  42.5    2 120  67  96
   2024 07 19 23:40  23 35 29.97    -20 16 30.6   172041 1.0169 129.3  m  15?  21.22  40.3    4 121  67  96
   2024 07 19 23:50  23 35 39.33    -20 13 47.5   171519 1.0169 129.2  m  15?  20.85  37.9    6 123  67  97
   2024 07 20 00:00  23 35 48.04    -20 11 01.7   170996 1.0169 129.2  m  15?  20.54  35.5    7 125  67  97
   2024 07 20 00:10  23 35 56.13    -20 08 13.0   170474 1.0169 129.1  m  15?  20.29  33.0    9 126  67  97
   2024 07 20 00:20  23 36 03.60    -20 05 21.4   169951 1.0169 129.1  m  15?  20.10  30.5   10 128  67  97
   2024 07 20 00:30  23 36 10.47    -20 02 26.7   169428 1.0169 129.1  m  15?  19.97  27.9   12 130  67  97
   2024 07 20 00:40  23 36 16.75    -19 59 28.7   168906 1.0169 129.1  m  15?  19.91  25.4   13 132  67  97
   2024 07 20 00:50  23 36 22.46    -19 56 27.2   168385 1.0169 129.0  m  15?  19.91  22.9   15 134  67  97
   2024 07 20 01:00  23 36 27.62    -19 53 22.2   167865 1.0168 129.0  m  15?  19.96  20.5   16 136  67  97
   2024 07 20 01:10  23 36 32.25    -19 50 13.4   167346 1.0168 129.0  m  15?  20.08  18.2   17 138  67  97
   2024 07 20 01:20  23 36 36.36    -19 47 00.9   166829 1.0168 129.0  m  15?  20.24  15.9   19 140  66  97
   2024 07 20 01:30  23 36 39.98    -19 43 44.3   166313 1.0168 128.9  m  15?  20.46  13.8   20 142  66  97
   2024 07 20 01:40  23 36 43.13    -19 40 23.6   165800 1.0168 128.9  m  15?  20.73  11.8   21 144  66  97
   2024 07 20 01:50  23 36 45.85    -19 36 58.7   165289 1.0168 128.9  m  15?  21.03  10.0   22 146  66  97
   2024 07 20 02:00  23 36 48.14    -19 33 29.5   164780 1.0168 128.9  m  15?  21.38   8.2   23 149  66  97
   2024 07 20 02:10  23 36 50.04    -19 29 55.9   164274 1.0168 128.9  m  15?  21.75   6.7   24 151  66  97
   2024 07 20 02:20  23 36 51.58    -19 26 17.6   163771 1.0168 128.9  m  15?  22.16   5.3   25 154  66  97
   2024 07 20 02:30  23 36 52.79    -19 22 34.8   163270 1.0168 128.9  m  15?  22.59   4.1   26 156  66  97
   2024 07 20 02:40  23 36 53.70    -19 18 47.2   162773 1.0168 128.9  m  15?  23.04   3.0   27 158  66  97
   2024 07 20 02:50  23 36 54.33    -19 14 54.8   162279 1.0168 128.9  m  15?  23.51   2.0   27 161  66  97
   2024 07 20 03:00  23 36 54.72    -19 10 57.5   161788 1.0168 128.8  m  15?  23.99   1.2   28 164  66  97
   2024 07 20 03:10  23 36 54.90    -19 06 55.3   161301 1.0168 128.8 Am  15?  24.49   0.6   29 166  66  97
   2024 07 20 03:20  23 36 54.91    -19 02 48.1   160817 1.0168 128.8 Am  15?  24.99   0.0   29 169  66  97
   2024 07 20 03:30  23 36 54.78    -18 58 35.8   160336 1.0168 128.8 A   15?  25.50 359.6   29 172  66  97
   2024 07 20 03:40  23 36 54.54    -18 54 18.4   159859 1.0168 128.8 A   15?  26.01 359.3   30 174  66  97
   2024 07 20 03:50  23 36 54.23    -18 49 55.9   159386 1.0168 128.8 N   15?  26.53 359.2   30 177  66  97
   2024 07 20 04:00  23 36 53.89    -18 45 28.2   158916 1.0168 128.8 Nt  15?  27.05 359.2   30 180  66  97
   2024 07 20 04:10  23 36 53.54    -18 40 55.3   158450 1.0168 128.8 Ne  15?  27.57 359.2   30 183  66  97
   2024 07 20 04:20  23 36 53.24    -18 36 17.2   157987 1.0168 128.8 N   15?  28.09 359.4   30 185  66  97
   2024 07 20 04:30  23 36 53.01    -18 31 33.9   157528 1.0168 128.8 C   15?  28.61 359.7   30 188  66  97
   2024 07 20 04:40  23 36 52.90    -18 26 45.5   157073 1.0168 128.8 C   15?  29.12   0.1   30 191  66  97
   2024 07 20 04:50  23 36 52.93    -18 21 51.8   156620 1.0168 128.8 C   15?  29.64   0.6   29 194  66  97
   ................
   2024 07 20 23:30  01 12 18.25    +00 35 32.2    58222 1.0161 101.4  m  12? 307.68  53.1    0  89  84  99
   2024 07 20 23:40  01 15 06.57    +01 07 14.8    56351 1.0161 100.5  m  12? 326.08  53.0    1  90  84  99
   2024 07 20 23:50  01 18 05.24    +01 40 56.1    54449 1.0161  99.6  m  12? 346.82  53.0    3  90  85  99
   2024 07 21 00:00  01 21 15.75    +02 16 49.8    52516 1.0161  98.7  m  12? 370.33  53.1    5  91  86  99
   2024 07 21 00:10  01 24 39.85    +02 55 11.6    50551 1.0161  97.7  m  11? 397.16  53.1    7  92  87  99
   2024 07 21 00:20  01 28 19.71    +03 36 20.2    48552 1.0161  96.6  m  11? 427.97  53.3    8  92  88  99
   2024 07 21 00:30  01 32 17.94    +04 20 37.4    46517 1.0161  95.4  m  11? 463.62  53.5   10  93  89  99
   2024 07 21 00:40  01 36 37.81    +05 08 29.5    44446 1.0161  94.1  m  11? 505.23  53.7   11  93  91  99
   2024 07 21 00:50  01 41 23.41    +06 00 27.6    42336 1.0161  92.7  m  11? 554.23  54.1   13  93  92  99
   2024 07 21 01:00  01 46 39.96    +06 57 09.9    40186 1.0161  91.1  m  11? 612.58  54.5   14  93  93  99
   2024 07 21 01:10  01 52 34.21    +07 59 22.5    37993 1.0161  89.4  m  11? 682.88  55.0   16  93  95  99
   2024 07 21 01:20  01 59 15.05    +09 08 02.3    35756 1.0161  87.5  m  11? 768.77  55.7   17  93  97  99
   2024 07 21 01:30  02 06 54.49    +10 24 19.6    33473 1.0160  85.3  m  11? 875.36  56.5   19  92  99  99
   2024 07 21 01:40  02 15 49.04    +11 49 41.4    31144 1.0160  82.7  m  10? 1010.1  57.5   20  91 102  99
   2024 07 21 01:50  02 26 22.17    +13 25 55.1    28768 1.0160  79.8  m  10? 1183.9  58.8   21  90 105  99
   2024 07 21 02:00  02 39 08.16    +15 15 09.8    26348 1.0160  76.3  m  10? 1413.7  60.4   21  88 108  99
   2024 07 21 02:10  02 54 58.95    +17 19 51.0    23890 1.0160  72.0  e  10? 1726.1  62.5   21  85 112  99
   2024 07 21 02:20  03 15 16.22    +19 42 09.4    21407 1.0160  66.8  m  10? 2164.0  65.2   21  81 118  99
   2024 07 21 02:30  03 42 12.88    +22 22 12.3    18931 1.0160  60.1  m  10? 2797.6  69.0   19  77 124  99
   2024 07 21 02:40  04 19 28.99    +25 12 20.2    16518 1.0160  51.2  m  10? 3738.2  74.5   16  70 133  99
   2024 07 21 02:50  05 12 50.22    +27 40 28.9    14291 1.0160  39.2  m  10? 5132.7  82.5   10  62 145  99
   2024 07 21 03:00  06 28 52.60    +28 12 24.9    12479 1.0160  22.6  m  10? 7032.1  94.2    0  51 162  99
   ................
   2024 07 21 23:10  22 31 19.24    -34 24 54.1   150229 1.0168 144.9  m  15?  24.07  39.0    0 138  26  99
   2024 07 21 23:20  22 31 31.16    -34 21 45.1   150668 1.0168 144.9  m  15?  23.64  36.5    1 139  26  99
   2024 07 21 23:30  22 31 42.20    -34 18 33.1   151107 1.0168 144.9  m  15?  23.30  33.9    2 141  26  99
   2024 07 21 23:40  22 31 52.42    -34 15 17.7   151544 1.0168 144.9  m  15?  23.05  31.4    3 142  26  99
   2024 07 21 23:50  22 32 01.84    -34 11 58.9   151980 1.0168 144.9  m  15?  22.88  28.9    4 144  25  99
   2024 07 22 00:00  22 32 10.50    -34 08 36.4   152416 1.0168 144.9  m  15?  22.79  26.4    5 146  25  99
   2024 07 22 00:10  22 32 18.44    -34 05 10.1   152852 1.0168 144.9  m  15?  22.77  24.1    6 148  25  99
   2024 07 22 00:20  22 32 25.71    -34 01 39.9   153287 1.0168 144.8  m  15?  22.82  21.8    7 149  25  99
   2024 07 22 00:30  22 32 32.34    -33 58 05.5   153723 1.0168 144.8  m  15?  22.94  19.6    8 151  25  99
   2024 07 22 00:40  22 32 38.37    -33 54 26.9   154160 1.0168 144.8  m  15?  23.12  17.6    9 153  25  99
   2024 07 22 00:50  22 32 43.84    -33 50 44.0   154597 1.0168 144.8  m  15?  23.35  15.8   10 155  25  99
   2024 07 22 01:00  22 32 48.80    -33 46 56.6   155035 1.0168 144.8  m  15?  23.63  14.0   11 157  25  99
   2024 07 22 01:10  22 32 53.29    -33 43 04.7   155474 1.0168 144.8  m  15?  23.94  12.5   12 159  25  99
   2024 07 22 01:20  22 32 57.34    -33 39 08.2   155915 1.0168 144.9  m  15?  24.29  11.1   12 161  25  99
   2024 07 22 01:30  22 33 01.01    -33 35 07.1   156357 1.0168 144.9  m  15?  24.67   9.8   13 163  25  99
   2024 07 22 01:40  22 33 04.34    -33 31 01.2   156802 1.0168 144.9  m  15?  25.07   8.7   14 165  25  99
   2024 07 22 01:50  22 33 07.36    -33 26 50.6   157247 1.0168 144.9  m  15?  25.49   7.8   14 167  25  99
   2024 07 22 02:00  22 33 10.12    -33 22 35.3   157695 1.0168 144.9  m  15?  25.92   7.0   15 169  25  99
   2024 07 22 02:10  22 33 12.67    -33 18 15.2   158146 1.0168 144.9  m  15?  26.37   6.4   15 171  25  99
   2024 07 22 02:20  22 33 15.04    -33 13 50.4   158598 1.0168 144.9  m  15?  26.82   5.9   15 173  25  99
   2024 07 22 02:30  22 33 17.29    -33 09 20.8   159053 1.0169 144.9  m  15?  27.27   5.5   15 176  25  99
   2024 07 22 02:40  22 33 19.44    -33 04 46.5   159510 1.0169 144.9  m  15?  27.73   5.2   16 178  25  99
   2024 07 22 02:50  22 33 21.55    -33 00 07.5   159970 1.0169 145.0  t  15?  28.19   5.1   16 180  25  99
   2024 07 22 03:00  22 33 23.64    -32 55 24.0   160432 1.0169 145.0  e  15?  28.65   5.0   16 182  25  99
   2024 07 22 03:10  22 33 25.77    -32 50 35.9   160897 1.0169 145.0 Am  15?  29.10   5.1   16 184  25  99
   2024 07 22 03:20  22 33 27.98    -32 45 43.3   161365 1.0169 145.0 Am  15?  29.55   5.2   16 187  25  99
   2024 07 22 03:30  22 33 30.29    -32 40 46.4   161835 1.0169 145.0 Am  15?  30.00   5.5   15 189  24  99
   2024 07 22 03:40  22 33 32.76    -32 35 45.3   162308 1.0169 145.0 Am  15?  30.44   5.8   15 191  24  99
   2024 07 22 03:50  22 33 35.41    -32 30 40.0   162783 1.0169 145.0 Am  15?  30.87   6.2   15 193  24  99
   2024 07 22 04:00  22 33 38.29    -32 25 30.7   163261 1.0169 145.1 Nm  15?  31.30   6.7   14 195  24  99
   2024 07 22 04:10  22 33 41.42    -32 20 17.5   163742 1.0169 145.1 Nm  15?  31.72   7.3   14 197  24  99
   2024 07 22 04:20  22 33 44.84    -32 15 00.6   164225 1.0169 145.1 Nm  15?  32.13   7.9   13 199  24  99
   2024 07 22 04:30  22 33 48.59    -32 09 40.1   164710 1.0169 145.1 Cm  15?  32.54   8.6   13 202  24  99
   2024 07 22 04:40  22 33 52.70    -32 04 16.2   165198 1.0169 145.1 Cm  15?  32.95   9.3   12 204  24  99
   2024 07 22 04:50  22 33 57.19    -31 58 49.0   165688 1.0169 145.1 Cm  15?  33.35  10.1   11 206  24  99
   ................
   2024 07 22 23:00  23 14 41.05    -24 57 48.2   187068 1.0168 137.2  m  15?  16.05  43.5    0 123  22  96
   2024 07 22 23:10  23 14 48.86    -24 55 50.4   186865 1.0168 137.2  m  15?  15.60  40.6    1 125  22  96
   2024 07 22 23:20  23 14 56.01    -24 53 50.5   186661 1.0168 137.1  m  15?  15.21  37.6    3 126  22  96
   2024 07 22 23:30  23 15 02.52    -24 51 48.4   186458 1.0168 137.1  m  15?  14.89  34.4    4 128  22  96
   2024 07 22 23:40  23 15 08.40    -24 49 43.9   186254 1.0168 137.1  m  15?  14.64  31.1    6 130  22  96
   2024 07 22 23:50  23 15 13.66    -24 47 36.8   186052 1.0168 137.1  m  15?  14.46  27.8    7 132  22  96
   2024 07 23 00:00  23 15 18.33    -24 45 27.1   185850 1.0168 137.1  m  15?  14.35  24.5    8 133  22  96
   2024 07 23 00:10  23 15 22.42    -24 43 14.5   185650 1.0168 137.0  m  15?  14.32  21.2   10 135  22  96
   2024 07 23 00:20  23 15 25.95    -24 40 59.0   185451 1.0168 137.0  m  15?  14.36  18.0   11 137  22  96
   2024 07 23 00:30  23 15 28.95    -24 38 40.3   185253 1.0168 137.0  m  15?  14.46  14.9   12 139  22  96
   2024 07 23 00:40  23 15 31.42    -24 36 18.4   185058 1.0168 137.0  m  15?  14.62  11.9   14 141  22  96
   2024 07 23 00:50  23 15 33.40    -24 33 53.0   184865 1.0168 137.0  m  15?  14.84   9.2   15 143  22  96
   2024 07 23 01:00  23 15 34.92    -24 31 24.2   184675 1.0168 137.0  m  15?  15.11   6.6   16 145  22  96
   2024 07 23 01:10  23 15 35.98    -24 28 51.8   184487 1.0168 137.0  m  15?  15.42   4.3   17 147  22  96
   2024 07 23 01:20  23 15 36.63    -24 26 15.7   184302 1.0168 137.0  m  15?  15.76   2.2   18 149  22  96
   2024 07 23 01:30  23 15 36.88    -24 23 35.7   184121 1.0168 137.0  m  15?  16.14   0.3   19 152  22  96
   2024 07 23 01:40  23 15 36.77    -24 20 51.8   183943 1.0168 137.0  m  15?  16.54 358.6   20 154  22  96
   2024 07 23 01:50  23 15 36.32    -24 18 04.0   183768 1.0168 137.0  m  15?  16.95 357.1   21 156  21  96
   2024 07 23 02:00  23 15 35.56    -24 15 12.0   183597 1.0168 137.0  m  15?  17.39 355.9   21 158  21  96
   2024 07 23 02:10  23 15 34.53    -24 12 16.0   183430 1.0168 137.0  m  15?  17.83 354.8   22 161  21  96
   2024 07 23 02:20  23 15 33.25    -24 09 15.7   183267 1.0168 137.0  m  15?  18.28 353.9   23 163  21  96
   2024 07 23 02:30  23 15 31.75    -24 06 11.1   183107 1.0168 137.1  m  15?  18.74 353.2   23 166  21  96
   2024 07 23 02:40  23 15 30.07    -24 03 02.3   182953 1.0168 137.1  m  15?  19.19 352.7   24 168  21  96
   2024 07 23 02:50  23 15 28.23    -23 59 49.2   182802 1.0168 137.1  m  15?  19.65 352.3   24 170  21  96
   2024 07 23 03:00  23 15 26.28    -23 56 31.7   182656 1.0168 137.1  m  15?  20.10 352.1   25 173  21  96
   2024 07 23 03:10  23 15 24.24    -23 53 09.8   182514 1.0168 137.1 Am  15?  20.55 352.0   25 176  21  96
   2024 07 23 03:20  23 15 22.15    -23 49 43.5   182376 1.0168 137.1 Am  15?  20.99 352.0   25 178  21  96
   2024 07 23 03:30  23 15 20.03    -23 46 12.9   182243 1.0168 137.1 At  15?  21.42 352.2   25 181  21  96
   2024 07 23 03:40  23 15 17.93    -23 42 37.9   182115 1.0168 137.1 Ae  15?  21.85 352.4   25 183  21  96
   2024 07 23 03:50  23 15 15.88    -23 38 58.6   181991 1.0168 137.1 Am  15?  22.27 352.8   25 186  21  95
   2024 07 23 04:00  23 15 13.90    -23 35 15.0   181871 1.0168 137.1 Nm  15?  22.68 353.2   25 188  21  95
   2024 07 23 04:10  23 15 12.04    -23 31 27.0   181756 1.0168 137.1 Nm  15?  23.08 353.8   24 191  21  95
   2024 07 23 04:20  23 15 10.32    -23 27 34.9   181646 1.0168 137.2 Nm  15?  23.48 354.4   24 193  21  95
   2024 07 23 04:30  23 15 08.78    -23 23 38.5   181539 1.0168 137.2 Nm  15?  23.87 355.2   24 196  20  95
   2024 07 23 04:40  23 15 07.45    -23 19 38.1   181437 1.0168 137.2 Cm  15?  24.25 356.0   23 198  20  95
   2024 07 23 04:50  23 15 06.36    -23 15 33.6   181338 1.0168 137.2 Cm  15?  24.63 356.9   23 201  20  95
   ................
   2024 07 23 23:00  23 57 17.17    -15 03 00.2   140657 1.0164 126.7  m  14?  40.52  46.9    0 110  19  91
   2024 07 23 23:10  23 57 37.20    -14 58 20.9   139782 1.0164 126.6  m  14?  40.14  45.6    2 111  19  91
   2024 07 23 23:20  23 57 56.59    -14 53 37.3   138903 1.0164 126.5  m  14?  39.80  44.2    3 113  19  91
   2024 07 23 23:30  23 58 15.32    -14 48 49.1   138020 1.0164 126.4  m  14?  39.49  42.8    5 115  19  91
   2024 07 23 23:40  23 58 33.42    -14 43 56.3   137133 1.0164 126.3  m  14?  39.24  41.3    7 116  19  90
   2024 07 23 23:50  23 58 50.87    -14 38 58.5   136243 1.0164 126.2  m  14?  39.03  39.8    9 118  19  90
   2024 07 24 00:00  23 59 07.69    -14 33 55.5   135350 1.0164 126.1  m  14?  38.87  38.3   10 119  19  90
   2024 07 24 00:10  23 59 23.89    -14 28 47.1   134454 1.0164 126.1  m  14?  38.77  36.7   12 121  19  90
   2024 07 24 00:20  23 59 39.47    -14 23 33.2   133554 1.0164 126.0  m  14?  38.72  35.2   14 123  19  90
   2024 07 24 00:30  23 59 54.45    -14 18 13.3   132653 1.0163 125.9  m  14?  38.72  33.6   15 125  19  90
   2024 07 24 00:40  00 00 08.83    -14 12 47.4   131749 1.0163 125.8  m  14?  38.79  32.1   17 127  19  90
   2024 07 24 00:50  00 00 22.64    -14 07 15.2   130844 1.0163 125.8  m  14?  38.91  30.6   18 129  19  90
   2024 07 24 01:00  00 00 35.89    -14 01 36.5   129936 1.0163 125.7  m  14?  39.09  29.1   20 131  19  90
   2024 07 24 01:10  00 00 48.60    -13 55 51.0   129027 1.0163 125.6  m  14?  39.33  27.6   21 133  19  90
   2024 07 24 01:20  00 01 00.78    -13 49 58.5   128116 1.0163 125.6  m  14?  39.63  26.2   23 135  19  90
   2024 07 24 01:30  00 01 12.46    -13 43 58.8   127205 1.0163 125.5  m  14?  39.99  24.8   24 137  19  90
   2024 07 24 01:40  00 01 23.66    -13 37 51.7   126292 1.0163 125.4  m  14?  40.40  23.5   25 139  19  90
   2024 07 24 01:50  00 01 34.40    -13 31 36.9   125378 1.0163 125.4  m  14?  40.87  22.3   27 141  19  90
   2024 07 24 02:00  00 01 44.72    -13 25 14.2   124463 1.0163 125.3  m  14?  41.40  21.1   28 144  19  90
   2024 07 24 02:10  00 01 54.64    -13 18 43.3   123548 1.0163 125.3  m  14?  41.97  20.0   29 146  19  90
   2024 07 24 02:20  00 02 04.19    -13 12 04.2   122632 1.0163 125.2  m  14?  42.60  18.9   30 148  19  90
   2024 07 24 02:30  00 02 13.40    -13 05 16.4   121716 1.0163 125.1  m  14?  43.28  18.0   31 151  19  90
   2024 07 24 02:40  00 02 22.31    -12 58 19.9   120799 1.0163 125.1  m  14?  44.00  17.1   32 154  19  90
   2024 07 24 02:50  00 02 30.95    -12 51 14.3   119882 1.0163 125.0  m  14?  44.77  16.3   33 156  19  90
   2024 07 24 03:00  00 02 39.36    -12 43 59.6   118964 1.0163 125.0  m  14?  45.59  15.6   34 159  19  90
   2024 07 24 03:10  00 02 47.57    -12 36 35.4   118046 1.0163 124.9 Am  14?  46.45  15.0   34 162  19  90
   2024 07 24 03:20  00 02 55.64    -12 29 01.5   117128 1.0163 124.8 Am  14?  47.35  14.5   35 165  19  90
   2024 07 24 03:30  00 03 03.59    -12 21 17.7   116209 1.0163 124.8 Am  14?  48.28  14.1   36 168  19  90
   2024 07 24 03:40  00 03 11.48    -12 13 23.8   115290 1.0162 124.7 Am  14?  49.26  13.7   36 171  19  90
   2024 07 24 03:50  00 03 19.34    -12 05 19.7   114371 1.0162 124.7 Am  14?  50.28  13.5   36 174  19  90
   2024 07 24 04:00  00 03 27.24    -11 57 05.0   113450 1.0162 124.6 Nm  14?  51.33  13.3   37 177  19  90
   2024 07 24 04:10  00 03 35.20    -11 48 39.5   112530 1.0162 124.5 Nt  14?  52.42  13.2   37 180  19  90
   2024 07 24 04:20  00 03 43.29    -11 40 03.1   111608 1.0162 124.5 Nm  14?  53.55  13.1   37 183  19  90
   2024 07 24 04:30  00 03 51.56    -11 31 15.5   110685 1.0162 124.4 Ne  14?  54.72  13.2   37 186  19  90
   2024 07 24 04:40  00 04 00.06    -11 22 16.5   109762 1.0162 124.3 Cm  14?  55.93  13.3   37 189  19  89
   2024 07 24 04:50  00 04 08.83    -11 13 05.9   108837 1.0162 124.3 Cm  14?  57.18  13.5   37 192  19  89
   ................
   2024 07 24 23:30  21 33 38.01    -44 56 01.9    87060 1.0162 150.2  m  14?  95.13  40.1    0 158  46  83
   2024 07 24 23:40  21 34 34.41    -44 44 01.4    88197 1.0163 150.3  m  14?  92.85  39.1    0 159  46  83
   2024 07 24 23:50  21 35 28.13    -44 32 07.3    89323 1.0163 150.3  m  14?  90.77  38.1    1 160  46  83
   2024 07 25 00:00  21 36 19.36    -44 20 18.8    90439 1.0163 150.4  m  14?  88.88  37.1    2 162  45  83
   2024 07 25 00:10  21 37 08.28    -44 08 35.6    91545 1.0163 150.4  m  14?  87.15  36.1    2 163  45  82
   2024 07 25 00:20  21 37 55.07    -43 56 57.1    92642 1.0163 150.5  m  14?  85.58  35.2    3 165  45  82
   2024 07 25 00:30  21 38 39.88    -43 45 22.9    93730 1.0163 150.5  m  14?  84.16  34.3    3 167  45  82
   2024 07 25 00:40  21 39 22.87    -43 33 52.5    94810 1.0163 150.6  m  14?  82.87  33.5    4 168  45  82
   2024 07 25 00:50  21 40 04.18    -43 22 25.7    95883 1.0163 150.7  m  14?  81.71  32.7    5 170  45  82
   2024 07 25 01:00  21 40 43.96    -43 11 02.1    96948 1.0163 150.7  m  14?  80.65  31.9    5 172  45  82
   2024 07 25 01:10  21 41 22.32    -42 59 41.4    98006 1.0163 150.8  m  14?  79.71  31.2    5 173  44  82
   2024 07 25 01:20  21 41 59.40    -42 48 23.3    99057 1.0163 150.8  m  14?  78.85  30.5    6 175  44  82
   2024 07 25 01:30  21 42 35.31    -42 37 07.8   100103 1.0163 150.9  m  14?  78.08  29.9    6 177  44  82
   2024 07 25 01:40  21 43 10.16    -42 25 54.5   101142 1.0163 151.0  m  14?  77.40  29.4    6 178  44  82
   2024 07 25 01:50  21 43 44.07    -42 14 43.4   102176 1.0163 151.0  t  14?  76.78  28.9    6 180  44  82
   2024 07 25 02:00  21 44 17.13    -42 03 34.3   103205 1.0163 151.1  m  14?  76.23  28.4    7 182  44  82
   2024 07 25 02:10  21 44 49.44    -41 52 27.2   104228 1.0163 151.1  m  14?  75.73  28.0    7 184  44  82
   2024 07 25 02:20  21 45 21.08    -41 41 21.9   105247 1.0163 151.2  e  15?  75.29  27.7    7 186  43  82
   2024 07 25 02:30  21 45 52.16    -41 30 18.5   106262 1.0164 151.3  m  15?  74.89  27.5    7 187  43  82
   2024 07 25 02:40  21 46 22.75    -41 19 16.8   107272 1.0164 151.3  m  15?  74.54  27.2    7 189  43  82
   2024 07 25 02:50  21 46 52.92    -41 08 17.1   108278 1.0164 151.4  m  15?  74.22  27.1    6 191  43  82
   2024 07 25 03:00  21 47 22.76    -40 57 19.1   109281 1.0164 151.4  m  15?  73.94  27.0    6 193  43  82
   2024 07 25 03:10  21 47 52.33    -40 46 23.0   110279 1.0164 151.5 Am  15?  73.69  26.9    6 195  43  82
   2024 07 25 03:20  21 48 21.70    -40 35 28.9   111274 1.0164 151.5 Am  15?  73.46  26.9    6 196  43  82
   2024 07 25 03:30  21 48 50.92    -40 24 36.8   112266 1.0164 151.6 Am  15?  73.26  27.0    5 198  42  82
   2024 07 25 03:40  21 49 20.07    -40 13 46.9   113254 1.0164 151.6 Am  15?  73.08  27.1    5 200  42  82
   2024 07 25 03:50  21 49 49.20    -40 02 59.1   114238 1.0164 151.7 Am  15?  72.92  27.2    4 202  42  81
   2024 07 25 04:00  21 50 18.35    -39 52 13.6   115220 1.0164 151.7 Nm  15?  72.77  27.4    4 203  42  81
   2024 07 25 04:10  21 50 47.58    -39 41 30.6   116198 1.0164 151.8 Nm  15?  72.64  27.6    3 205  42  81
   2024 07 25 04:20  21 51 16.93    -39 30 50.2   117173 1.0164 151.8 Nm  15?  72.52  27.9    3 207  42  81
   2024 07 25 04:30  21 51 46.44    -39 20 12.5   118144 1.0164 151.8 Nm  15?  72.41  28.2    2 209  42  81
   2024 07 25 04:40  21 52 16.16    -39 09 37.7   119113 1.0164 151.9 Cm  15?  72.31  28.6    1 210  42  81
   2024 07 25 04:50  21 52 46.11    -38 59 05.9   120078 1.0164 151.9 Cm  15?  72.23  29.0    0 212  41  81
   ................
   2024 07 25 22:50  22 54 54.61    -29 25 30.0   177908 1.0166 143.9  m  15?  16.32  39.9    0 130  36  73
   2024 07 25 23:00  22 55 02.28    -29 23 23.5   178015 1.0166 143.8  m  15?  15.93  36.8    1 131  36  73
   2024 07 25 23:10  22 55 09.24    -29 21 14.6   178122 1.0166 143.8  m  15?  15.62  33.5    2 133  36  73
   2024 07 25 23:20  22 55 15.51    -29 19 03.1   178230 1.0166 143.8  m  15?  15.39  30.2    4 135  36  73
   2024 07 25 23:30  22 55 21.13    -29 16 48.7   178337 1.0166 143.8  m  15?  15.24  26.9    5 136  36  73
   2024 07 25 23:40  22 55 26.10    -29 14 31.3   178446 1.0166 143.8  m  15?  15.16  23.7    6 138  36  73
   2024 07 25 23:50  22 55 30.46    -29 12 10.7   178555 1.0166 143.8  m  15?  15.17  20.4    8 140  36  73
   2024 07 26 00:00  22 55 34.23    -29 09 46.8   178665 1.0166 143.8  m  15?  15.24  17.3    9 142  36  73
   2024 07 26 00:10  22 55 37.43    -29 07 19.5   178777 1.0166 143.8  m  15?  15.38  14.4   10 144  36  73
   2024 07 26 00:20  22 55 40.10    -29 04 48.7   178891 1.0166 143.8  m  15?  15.58  11.6   11 146  36  73
   2024 07 26 00:30  22 55 42.27    -29 02 14.1   179007 1.0166 143.8  m  15?  15.83   9.1   12 148  36  73
   2024 07 26 00:40  22 55 43.95    -28 59 35.7   179125 1.0166 143.8  m  15?  16.13   6.7   13 150  36  73
   2024 07 26 00:50  22 55 45.19    -28 56 53.3   179245 1.0166 143.8  m  15?  16.47   4.6   14 152  36  72
   2024 07 26 01:00  22 55 46.01    -28 54 06.9   179368 1.0166 143.8  m  15?  16.85   2.7   15 154  36  72
   2024 07 26 01:10  22 55 46.44    -28 51 16.4   179494 1.0166 143.8  m  15?  17.25   1.0   16 156  37  72
   2024 07 26 01:20  22 55 46.52    -28 48 21.7   179623 1.0166 143.8  m  15?  17.67 359.5   17 158  37  72
   2024 07 26 01:30  22 55 46.28    -28 45 22.8   179755 1.0166 143.8  m  15?  18.10 358.3   17 160  37  72
   2024 07 26 01:40  22 55 45.76    -28 42 19.4   179891 1.0166 143.8  m  15?  18.55 357.2   18 162  37  72
   2024 07 26 01:50  22 55 44.98    -28 39 11.7   180030 1.0166 143.9  m  15?  19.01 356.3   19 165  37  72
   2024 07 26 02:00  22 55 43.98    -28 35 59.6   180173 1.0166 143.9  m  15?  19.47 355.6   19 167  37  72
   2024 07 26 02:10  22 55 42.80    -28 32 43.0   180319 1.0166 143.9  m  15?  19.93 355.1   19 169  37  72
   2024 07 26 02:20  22 55 41.47    -28 29 22.0   180470 1.0166 143.9  m  15?  20.39 354.7   20 171  37  72
   2024 07 26 02:30  22 55 40.03    -28 25 56.4   180624 1.0166 143.9  m  15?  20.85 354.5   20 174  37  72
   2024 07 26 02:40  22 55 38.51    -28 22 26.4   180782 1.0166 143.9  m  15?  21.30 354.4   20 176  37  72
   2024 07 26 02:50  22 55 36.94    -28 18 51.9   180944 1.0166 144.0  m  15?  21.75 354.4   20 179  37  72
   2024 07 26 03:00  22 55 35.36    -28 15 13.0   181111 1.0166 144.0  t  15?  22.19 354.5   20 181  37  72
   2024 07 26 03:10  22 55 33.81    -28 11 29.6   181281 1.0166 144.0  e  15?  22.62 354.8   20 183  37  72
   2024 07 26 03:20  22 55 32.32    -28 07 41.9   181456 1.0166 144.0 Am  15?  23.05 355.1   20 186  37  72
   2024 07 26 03:30  22 55 30.92    -28 03 49.9   181634 1.0166 144.0 Am  16?  23.46 355.6   20 188  37  72
   2024 07 26 03:40  22 55 29.65    -27 59 53.6   181817 1.0166 144.0 Am  16?  23.87 356.1   20 190  37  72
   2024 07 26 03:50  22 55 28.55    -27 55 53.1   182004 1.0166 144.1 Am  16?  24.27 356.7   20 193  37  72
   2024 07 26 04:00  22 55 27.63    -27 51 48.5   182195 1.0166 144.1 Nm  16?  24.66 357.4   19 195  37  71
   2024 07 26 04:10  22 55 26.94    -27 47 39.9   182389 1.0166 144.1 Nm  16?  25.04 358.2   19 197  37  71
   2024 07 26 04:20  22 55 26.51    -27 43 27.4   182588 1.0166 144.1 Nm  16?  25.42 359.0   18 200  37  71
   2024 07 26 04:30  22 55 26.37    -27 39 11.0   182790 1.0166 144.1 Nm  16?  25.79 359.9   18 202  37  71
   2024 07 26 04:40  22 55 26.54    -27 34 51.0   182995 1.0166 144.1 Cm  16?  26.16   0.9   17 204  37  71
   2024 07 26 04:50  22 55 27.06    -27 30 27.4   183204 1.0166 144.1 Cm  16?  26.52   2.0   16 206  37  71
   ................
   2024 07 26 22:50  23 32 03.46    -20 49 11.9   176537 1.0164 136.3  m  15?  20.59  43.5    1 118  37  62
   2024 07 26 23:00  23 32 13.25    -20 46 40.7   176063 1.0164 136.2  m  15?  20.13  41.1    2 120  37  62
   2024 07 26 23:10  23 32 22.37    -20 44 07.3   175587 1.0164 136.2  m  15?  19.72  38.7    4 122  37  62
   2024 07 26 23:20  23 32 30.86    -20 41 31.5   175111 1.0164 136.2  m  15?  19.37  36.2    5 123  37  62
   2024 07 26 23:30  23 32 38.70    -20 38 53.2   174634 1.0164 136.1  m  15?  19.08  33.6    7 125  37  62
   2024 07 26 23:40  23 32 45.92    -20 36 12.1   174157 1.0164 136.1  m  15?  18.86  30.9    9 127  37  62
   2024 07 26 23:50  23 32 52.53    -20 33 28.2   173680 1.0164 136.1  m  15?  18.69  28.2   10 129  37  62
   2024 07 27 00:00  23 32 58.54    -20 30 41.3   173203 1.0164 136.1  m  15?  18.59  25.5   12 130  37  62
   2024 07 27 00:10  23 33 03.96    -20 27 51.2   172728 1.0164 136.0  m  15?  18.56  22.9   13 132  37  62
   2024 07 27 00:20  23 33 08.82    -20 24 57.8   172253 1.0164 136.0  m  15?  18.58  20.2   14 134  37  62
   2024 07 27 00:30  23 33 13.14    -20 22 01.0   171780 1.0164 136.0  m  15?  18.67  17.7   16 136  37  62
   2024 07 27 00:40  23 33 16.93    -20 19 00.6   171308 1.0164 136.0  m  15?  18.81  15.3   17 138  37  62
   2024 07 27 00:50  23 33 20.21    -20 15 56.6   170838 1.0164 136.0  m  15?  19.01  12.9   18 140  37  62
   2024 07 27 01:00  23 33 23.01    -20 12 48.6   170370 1.0164 136.0  m  15?  19.25  10.7   20 142  37  61
   2024 07 27 01:10  23 33 25.35    -20 09 36.8   169905 1.0164 136.0  m  15?  19.54   8.7   21 145  37  61
   2024 07 27 01:20  23 33 27.25    -20 06 20.9   169442 1.0164 136.0  m  15?  19.86   6.8   22 147  37  61
   2024 07 27 01:30  23 33 28.74    -20 03 00.8   168981 1.0164 136.0  m  15?  20.23   5.1   23 149  38  61
   2024 07 27 01:40  23 33 29.84    -19 59 36.4   168523 1.0164 135.9  m  15?  20.62   3.6   24 152  38  61
   2024 07 27 01:50  23 33 30.60    -19 56 07.7   168069 1.0164 135.9  m  15?  21.03   2.2   25 154  38  61
   2024 07 27 02:00  23 33 31.02    -19 52 34.5   167617 1.0164 135.9  m  15?  21.47   1.0   26 156  38  61
   2024 07 27 02:10  23 33 31.15    -19 48 56.8   167169 1.0163 135.9  m  15?  21.92 359.8   26 159  38  61
   2024 07 27 02:20  23 33 31.01    -19 45 14.4   166724 1.0163 135.9  m  15?  22.39 358.9   27 161  38  61
   2024 07 27 02:30  23 33 30.63    -19 41 27.4   166283 1.0163 135.9  m  15?  22.87 358.2   28 164  38  61
   2024 07 27 02:40  23 33 30.05    -19 37 35.6   165845 1.0163 135.9  m  15?  23.36 357.6   28 167  38  61
   2024 07 27 02:50  23 33 29.31    -19 33 39.1   165412 1.0163 135.9  m  15?  23.85 357.1   29 169  38  61
   2024 07 27 03:00  23 33 28.42    -19 29 37.7   164981 1.0163 135.9  m  15?  24.34 356.8   29 172  38  61
   2024 07 27 03:10  23 33 27.44    -19 25 31.4   164555 1.0163 135.9  m  15?  24.83 356.5   29 175  38  61
   2024 07 27 03:20  23 33 26.39    -19 21 20.3   164133 1.0163 135.9 Am  15?  25.33 356.5   29 177  38  61
   2024 07 27 03:30  23 33 25.30    -19 17 04.2   163714 1.0163 135.9 At  15?  25.82 356.5   29 180  38  61
   2024 07 27 03:40  23 33 24.22    -19 12 43.1   163299 1.0163 135.9 Ae  15?  26.31 356.6   29 183  38  61
   2024 07 27 03:50  23 33 23.18    -19 08 17.1   162888 1.0163 135.9 Am  15?  26.80 356.8   29 186  38  60
   2024 07 27 04:00  23 33 22.21    -19 03 46.2   162481 1.0163 135.9 Nm  15?  27.29 357.2   29 188  38  60
   2024 07 27 04:10  23 33 21.36    -18 59 10.4   162077 1.0163 135.9 Nm  15?  27.77 357.6   29 191  38  60
   2024 07 27 04:20  23 33 20.65    -18 54 29.7   161677 1.0163 135.9 Nm  15?  28.25 358.1   29 194  38  60
   2024 07 27 04:30  23 33 20.12    -18 49 44.0   161281 1.0163 135.9 Nm  15?  28.73 358.7   28 196  38  60
   2024 07 27 04:40  23 33 19.82    -18 44 53.6   160888 1.0163 135.9 Cm  15?  29.21 359.4   28 199  38  60
   2024 07 27 04:50  23 33 19.77    -18 39 58.3   160499 1.0163 135.9 Cm  15?  29.68   0.2   27 202  38  60
   2024 07 27 05:00  23 33 20.01    -18 34 58.2   160112 1.0163 135.9 Cm  15?  30.16   1.0   26 204  38  60
   ................
   2024 07 27 22:50  00 47 32.02    -03 39 53.2    75866 1.0157 115.2  r  13? 174.38  50.5    0  94  25  51
   2024 07 27 23:00  00 49 03.08    -03 20 59.2    74270 1.0157 114.8  m  13? 180.07  50.1    1  95  25  51
   2024 07 27 23:10  00 50 36.68    -03 01 18.5    72654 1.0157 114.3  m  13? 186.26  49.8    3  96  24  51
   2024 07 27 23:20  00 52 13.06    -02 40 47.6    71019 1.0157 113.8  m  13? 193.00  49.4    5  97  24  51
   2024 07 27 23:30  00 53 52.51    -02 19 22.5    69363 1.0156 113.3  m  13? 200.36  49.1    7  99  23  51
   2024 07 27 23:40  00 55 35.35    -01 56 58.8    67687 1.0156 112.8  m  13? 208.43  48.8    8 100  23  51
   2024 07 27 23:50  00 57 21.95    -01 33 31.6    65990 1.0156 112.2  m  12? 217.28  48.6   10 101  22  51
   2024 07 28 00:00  00 59 12.74    -01 08 55.4    64270 1.0156 111.7  m  12? 227.02  48.3   12 102  22  51
   

MMS-4 (JPL-ID: -140485)

   Date (UTC) HH:MM   RA              Dec         delta   r     elong SM  mag  '/hr    PA   alt  az moo ill
   ---- -- -- -----  -------------   -----------  ------ ------ ----- --  --- ------ ------ --- --- --- ---
   2024 07 14 00:10  01 43 45.89    +05 46 23.5    43920 1.0165  85.5     11? 560.79  56.5    0  82 172  50
   2024 07 14 00:20  01 49 15.27    +06 40 21.4    41772 1.0165  83.9     11? 617.62  56.9    1  82 171  50
   2024 07 14 00:30  01 55 22.14    +07 39 17.2    39581 1.0165  82.2     11? 685.70  57.4    2  82 170  50
   2024 07 14 00:40  02 02 14.98    +08 43 58.4    37347 1.0165  80.2     11? 768.31  58.1    4  81 169  50
   2024 07 14 00:50  02 10 05.09    +09 55 22.8    35066 1.0165  78.0     11? 870.03  58.9    5  81 167  50
   2024 07 14 01:00  02 19 07.85    +11 14 40.0    32740 1.0165  75.5     11? 997.37  59.9    6  80 165  50
   2024 07 14 01:10  02 29 44.70    +12 43 12.6    30368 1.0165  72.5     11? 1159.9  61.1    7  79 162  50
   2024 07 14 01:20  02 42 26.39    +14 22 35.3    27952 1.0164  69.1     11? 1371.9  62.6    7  77 159  50
   2024 07 14 01:30  02 57 58.33    +16 14 25.6    25497 1.0164  65.0  e  10? 1655.4  64.6    8  75 155  50
   2024 07 14 01:40  03 17 29.83    +18 19 53.1    23016 1.0164  59.9     10? 2045.2  67.3    7  72 150  50
   2024 07 14 01:50  03 42 49.71    +20 38 08.5    20533 1.0164  53.6     10? 2596.7  70.8    6  68 144  51
   2024 07 14 02:00  04 16 51.14    +23 02 07.2    18096 1.0164  45.4     10? 3397.0  75.7    3  62 136  51
   ................
   2024 07 14 23:40  22 33 42.20    -33 53 30.5   153958 1.0172 139.5  m  15?  22.90  39.5    0 137 110  59
   2024 07 14 23:50  22 33 53.45    -33 50 32.8   154359 1.0172 139.4  m  15?  22.49  37.0    1 139 110  59
   2024 07 15 00:00  22 34 03.88    -33 47 32.0   154759 1.0173 139.4     15?  22.16  34.4    2 140 110  59
   2024 07 15 00:10  22 34 13.50    -33 44 27.8   155158 1.0173 139.4     15?  21.92  31.8    4 142 110  59
   2024 07 15 00:20  22 34 22.37    -33 41 20.1   155557 1.0173 139.4     15?  21.76  29.2    5 144 110  59
   2024 07 15 00:30  22 34 30.50    -33 38 08.7   155955 1.0173 139.3     15?  21.68  26.7    6 146 110  59
   2024 07 15 00:40  22 34 37.95    -33 34 53.4   156354 1.0173 139.3     15?  21.67  24.3    7 147 110  60
   2024 07 15 00:50  22 34 44.75    -33 31 34.2   156753 1.0173 139.3     15?  21.74  22.0    8 149 110  60
   2024 07 15 01:00  22 34 50.93    -33 28 10.9   157152 1.0173 139.3     15?  21.86  19.8    9 151 110  60
   2024 07 15 01:10  22 34 56.54    -33 24 43.3   157552 1.0173 139.3     15?  22.05  17.7   10 153 110  60
   2024 07 15 01:20  22 35 01.62    -33 21 11.4   157954 1.0173 139.3     15?  22.28  15.8   11 155 110  60
   2024 07 15 01:30  22 35 06.20    -33 17 35.0   158356 1.0173 139.3     15?  22.56  14.0   11 157 109  60
   2024 07 15 01:40  22 35 10.32    -33 13 54.1   158760 1.0173 139.3     15?  22.88  12.4   12 159 109  60
   2024 07 15 01:50  22 35 14.04    -33 10 08.6   159166 1.0173 139.3     15?  23.24  11.0   13 161 109  60
   2024 07 15 02:00  22 35 17.38    -33 06 18.4   159573 1.0173 139.3     15?  23.62   9.7   14 163 109  60
   2024 07 15 02:10  22 35 20.39    -33 02 23.5   159983 1.0173 139.3     15?  24.02   8.6   14 165 109  60
   2024 07 15 02:20  22 35 23.11    -32 58 23.9   160394 1.0173 139.3     15?  24.45   7.7   15 167 109  60
   2024 07 15 02:30  22 35 25.58    -32 54 19.4   160808 1.0173 139.3     15?  24.88   6.9   15 169 109  60
   2024 07 15 02:40  22 35 27.85    -32 50 10.3   161225 1.0173 139.3     15?  25.33   6.3   15 171 109  60
   2024 07 15 02:50  22 35 29.96    -32 45 56.3   161643 1.0173 139.3     15?  25.79   5.7   16 173 109  60
   2024 07 15 03:00  22 35 31.94    -32 41 37.6   162065 1.0173 139.3 A   15?  26.24   5.4   16 176 109  60
   2024 07 15 03:10  22 35 33.84    -32 37 14.1   162489 1.0173 139.3 A   15?  26.71   5.1   16 178 109  61
   2024 07 15 03:20  22 35 35.69    -32 32 46.0   162916 1.0173 139.3 At  15?  27.17   5.0   16 180 109  61
   2024 07 15 03:30  22 35 37.55    -32 28 13.3   163345 1.0173 139.3 Ae  15?  27.63   4.9   16 182 109  61
   2024 07 15 03:40  22 35 39.44    -32 23 36.0   163778 1.0173 139.3 A   15?  28.08   5.0   16 184 109  61
   2024 07 15 03:50  22 35 41.41    -32 18 54.2   164213 1.0173 139.3 N   15?  28.54   5.2   16 187 109  61
   2024 07 15 04:00  22 35 43.49    -32 14 08.0   164651 1.0173 139.3 N   15?  28.98   5.4   16 189 109  61
   2024 07 15 04:10  22 35 45.72    -32 09 17.5   165092 1.0173 139.3 N   15?  29.43   5.8   16 191 109  61
   2024 07 15 04:20  22 35 48.14    -32 04 22.8   165536 1.0173 139.3 N   15?  29.86   6.2   15 193 109  61
   2024 07 15 04:30  22 35 50.79    -31 59 24.1   165983 1.0173 139.3 C   15?  30.30   6.7   15 195 109  61
   2024 07 15 04:40  22 35 53.69    -31 54 21.5   166432 1.0173 139.3 C   15?  30.72   7.3   14 198 109  61
   ................
   2024 07 15 23:30  23 16 46.35    -24 38 20.0   186640 1.0172 130.7  m  15?  16.61  44.3    0 123 111  68
   2024 07 15 23:40  23 16 54.51    -24 36 20.0   186410 1.0172 130.7  m  15?  16.15  41.5    1 125 111  68
   2024 07 15 23:50  23 17 02.02    -24 34 18.0   186180 1.0172 130.6  m  15?  15.75  38.6    3 126 111  69
   2024 07 16 00:00  23 17 08.89    -24 32 13.7   185950 1.0172 130.6  m  15?  15.42  35.6    4 128 111  69
   2024 07 16 00:10  23 17 15.14    -24 30 07.0   185721 1.0172 130.6  m  15?  15.15  32.4    6 130 111  69
   2024 07 16 00:20  23 17 20.77    -24 27 57.8   185491 1.0172 130.6  m  15?  14.96  29.3    7 131 111  69
   2024 07 16 00:30  23 17 25.82    -24 25 45.8   185263 1.0172 130.6     15?  14.84  26.0    9 133 111  69
   2024 07 16 00:40  23 17 30.28    -24 23 30.9   185036 1.0172 130.5     15?  14.78  22.9   10 135 111  69
   2024 07 16 00:50  23 17 34.20    -24 21 13.1   184811 1.0172 130.5     15?  14.80  19.7   11 137 111  69
   2024 07 16 01:00  23 17 37.57    -24 18 52.1   184587 1.0172 130.5     15?  14.88  16.7   13 139 111  69
   2024 07 16 01:10  23 17 40.44    -24 16 27.8   184365 1.0172 130.5     15?  15.02  13.9   14 141 111  69
   2024 07 16 01:20  23 17 42.81    -24 14 00.1   184146 1.0172 130.5     15?  15.22  11.1   15 143 111  69
   2024 07 16 01:30  23 17 44.71    -24 11 28.9   183929 1.0172 130.5     15?  15.46   8.6   16 145 111  69
   2024 07 16 01:40  23 17 46.17    -24 08 54.1   183715 1.0172 130.5     15?  15.75   6.3   17 147 111  69
   2024 07 16 01:50  23 17 47.21    -24 06 15.5   183503 1.0172 130.5     15?  16.08   4.2   18 149 111  69
   2024 07 16 02:00  23 17 47.86    -24 03 33.0   183295 1.0172 130.5     15?  16.44   2.3   19 151 111  69
   2024 07 16 02:10  23 17 48.15    -24 00 46.7   183090 1.0172 130.5     15?  16.82   0.6   20 154 111  69
   2024 07 16 02:20  23 17 48.10    -23 57 56.3   182889 1.0172 130.5     15?  17.23 359.1   21 156 111  69
   2024 07 16 02:30  23 17 47.75    -23 55 01.8   182691 1.0172 130.5     15?  17.65 357.8   22 158 111  69
   2024 07 16 02:40  23 17 47.12    -23 52 03.1   182498 1.0172 130.5     15?  18.09 356.7   23 161 111  70
   2024 07 16 02:50  23 17 46.24    -23 49 00.3   182308 1.0172 130.5     15?  18.53 355.8   23 163 110  70
   2024 07 16 03:00  23 17 45.15    -23 45 53.1   182122 1.0172 130.5 A   15?  18.98 355.1   24 166 110  70
   2024 07 16 03:10  23 17 43.88    -23 42 41.6   181940 1.0172 130.5 A   15?  19.44 354.5   24 168 110  70
   2024 07 16 03:20  23 17 42.46    -23 39 25.8   181763 1.0172 130.5 A   15?  19.89 354.1   25 171 110  70
   2024 07 16 03:30  23 17 40.91    -23 36 05.6   181590 1.0172 130.5 A   15?  20.34 353.8   25 173 110  70
   2024 07 16 03:40  23 17 39.29    -23 32 40.9   181421 1.0172 130.5 A   15?  20.79 353.7   25 176 110  70
   2024 07 16 03:50  23 17 37.61    -23 29 11.9   181257 1.0172 130.5 N   15?  21.23 353.7   25 178 110  70
   2024 07 16 04:00  23 17 35.91    -23 25 38.5   181097 1.0172 130.5 Nt  15?  21.67 353.8   25 181 110  70
   2024 07 16 04:10  23 17 34.22    -23 22 00.6   180941 1.0172 130.5 Ne  15?  22.10 354.0   25 183 110  70
   2024 07 16 04:20  23 17 32.59    -23 18 18.4   180790 1.0172 130.5 N   15?  22.53 354.4   25 186 110  70
   2024 07 16 04:30  23 17 31.03    -23 14 31.8   180644 1.0172 130.5 C   15?  22.95 354.8   25 188 110  70
   2024 07 16 04:40  23 17 29.59    -23 10 40.9   180502 1.0172 130.5 C   15?  23.36 355.4   25 191 110  70
   2024 07 16 04:50  23 17 28.29    -23 06 45.7   180364 1.0172 130.5 C   15?  23.77 356.0   24 193 110  70
   ................
   2024 07 16 23:30  00 01 57.45    -14 21 06.7   135557 1.0168 119.0  m  14?  45.46  47.7    0 109 114  77
   2024 07 16 23:40  00 02 20.24    -14 15 58.1   134633 1.0168 118.9  m  14?  45.14  46.5    2 110 114  77
   2024 07 16 23:50  00 02 42.41    -14 10 44.6   133704 1.0168 118.8  m  14?  44.86  45.2    4 112 114  77
   2024 07 17 00:00  00 03 03.97    -14 05 25.8   132771 1.0168 118.7  m  14?  44.62  43.9    5 114 114  77
   2024 07 17 00:10  00 03 24.91    -14 00 01.6   131834 1.0168 118.6  m  14?  44.42  42.6    7 115 114  77
   2024 07 17 00:20  00 03 45.24    -13 54 31.6   130892 1.0168 118.5  m  14?  44.27  41.3    9 117 114  77
   2024 07 17 00:30  00 04 04.96    -13 48 55.8   129947 1.0168 118.4  m  14?  44.17  39.9   10 119 114  78
   2024 07 17 00:40  00 04 24.09    -13 43 13.7   128998 1.0168 118.3  m  14?  44.12  38.6   12 120 114  78
   2024 07 17 00:50  00 04 42.64    -13 37 25.2   128046 1.0168 118.2  m  14?  44.13  37.2   14 122 114  78
   2024 07 17 01:00  00 05 00.61    -13 31 30.0   127091 1.0167 118.1     14?  44.20  35.8   15 124 114  78
   2024 07 17 01:10  00 05 18.02    -13 25 27.8   126132 1.0167 118.0     14?  44.32  34.4   17 126 114  78
   2024 07 17 01:20  00 05 34.88    -13 19 18.3   125171 1.0167 117.9     14?  44.50  33.1   18 128 114  78
   2024 07 17 01:30  00 05 51.21    -13 13 01.4   124208 1.0167 117.8     14?  44.74  31.7   20 129 114  78
   2024 07 17 01:40  00 06 07.03    -13 06 36.7   123242 1.0167 117.7     14?  45.04  30.4   21 131 115  78
   2024 07 17 01:50  00 06 22.36    -13 00 04.0   122274 1.0167 117.7     14?  45.41  29.1   23 134 115  78
   2024 07 17 02:00  00 06 37.22    -12 53 23.0   121304 1.0167 117.6     14?  45.83  27.9   24 136 115  78
   2024 07 17 02:10  00 06 51.63    -12 46 33.4   120332 1.0167 117.5     14?  46.32  26.7   26 138 115  78
   2024 07 17 02:20  00 07 05.62    -12 39 34.9   119358 1.0167 117.4     14?  46.87  25.6   27 140 115  78
   2024 07 17 02:30  00 07 19.22    -12 32 27.4   118383 1.0167 117.3     14?  47.47  24.5   28 142 115  78
   2024 07 17 02:40  00 07 32.45    -12 25 10.5   117406 1.0167 117.2     14?  48.14  23.5   29 145 115  78
   2024 07 17 02:50  00 07 45.35    -12 17 43.9   116428 1.0167 117.2     14?  48.87  22.5   31 147 115  78
   2024 07 17 03:00  00 07 57.95    -12 10 07.3   115448 1.0167 117.1 A   14?  49.65  21.7   32 150 115  78
   2024 07 17 03:10  00 08 10.29    -12 02 20.6   114467 1.0167 117.0 A   14?  50.49  20.9   33 152 115  78
   2024 07 17 03:20  00 08 22.40    -11 54 23.3   113485 1.0167 116.9 A   14?  51.38  20.1   34 155 115  78
   2024 07 17 03:30  00 08 34.33    -11 46 15.2   112501 1.0167 116.8 A   14?  52.33  19.5   34 158 115  79
   2024 07 17 03:40  00 08 46.10    -11 37 56.1   111516 1.0167 116.8 A   14?  53.33  18.9   35 161 115  79
   2024 07 17 03:50  00 08 57.78    -11 29 25.5   110530 1.0167 116.7 N   14?  54.39  18.4   36 163 115  79
   2024 07 17 04:00  00 09 09.39    -11 20 43.4   109542 1.0167 116.6 N   14?  55.50  18.0   36 166 115  79
   2024 07 17 04:10  00 09 21.00    -11 11 49.2   108552 1.0166 116.5 N   14?  56.66  17.6   37 169 115  79
   2024 07 17 04:20  00 09 32.64    -11 02 42.8   107561 1.0166 116.4 N   14?  57.87  17.3   37 172 115  79
   2024 07 17 04:30  00 09 44.37    -10 53 23.9   106569 1.0166 116.3 C   14?  59.14  17.1   38 175 115  79
   2024 07 17 04:40  00 09 56.24    -10 43 52.0   105574 1.0166 116.2 C   14?  60.46  17.0   38 178 115  79
   2024 07 17 04:50  00 10 08.31    -10 34 07.0   104578 1.0166 116.1 Ct  14?  61.84  17.0   38 181 115  79
   ................
   2024 07 17 23:50  21 39 40.21    -43 32 35.5    94262 1.0168 147.9  m  14?  78.91  41.2    0 155  61  85
   2024 07 18 00:00  21 40 27.13    -43 22 43.9    95307 1.0168 147.9  m  14?  77.23  40.1    0 156  61  85
   2024 07 18 00:10  21 41 11.90    -43 12 54.5    96342 1.0168 147.9  m  14?  75.70  38.9    1 158  62  85
   2024 07 18 00:20  21 41 54.66    -43 03 07.1    97370 1.0168 147.9  m  14?  74.32  37.8    2 159  62  85
   2024 07 18 00:30  21 42 35.53    -42 53 21.1    98389 1.0168 147.9  m  14?  73.08  36.7    3 161  62  85
   2024 07 18 00:40  21 43 14.67    -42 43 36.3    99401 1.0168 147.9  m  14?  71.97  35.7    3 162  62  85
   2024 07 18 00:50  21 43 52.18    -42 33 52.5   100407 1.0169 147.9  m  14?  70.98  34.7    4 164  62  85
   2024 07 18 01:00  21 44 28.19    -42 24 09.3   101405 1.0169 147.9  m  14?  70.09  33.7    5 166  62  86
   2024 07 18 01:10  21 45 02.82    -42 14 26.6   102398 1.0169 147.9  m  14?  69.31  32.8    5 167  62  86
   2024 07 18 01:20  21 45 36.18    -42 04 44.1   103385 1.0169 147.9  m  14?  68.62  31.9    6 169  62  86
   2024 07 18 01:30  21 46 08.37    -41 55 01.7   104366 1.0169 147.9  m  14?  68.02  31.1    6 171  62  86
   2024 07 18 01:40  21 46 39.50    -41 45 19.3   105342 1.0169 147.9     14?  67.50  30.3    7 173  62  86
   2024 07 18 01:50  21 47 09.66    -41 35 36.7   106313 1.0169 147.9     14?  67.04  29.6    7 174  62  86
   2024 07 18 02:00  21 47 38.96    -41 25 53.8   107280 1.0169 147.9     14?  66.66  29.0    7 176  62  86
   2024 07 18 02:10  21 48 07.47    -41 16 10.6   108242 1.0169 147.9     14?  66.33  28.4    7 178  62  86
   2024 07 18 02:20  21 48 35.29    -41 06 27.0   109201 1.0169 147.9  t  15?  66.05  27.9    8 180  63  86
   2024 07 18 02:30  21 49 02.50    -40 56 43.1   110156 1.0169 147.9     15?  65.82  27.4    8 182  63  86
   2024 07 18 02:40  21 49 29.18    -40 46 58.8   111107 1.0169 147.9     15?  65.63  27.0    8 183  63  86
   2024 07 18 02:50  21 49 55.41    -40 37 14.1   112055 1.0169 147.9  e  15?  65.48  26.7    8 185  63  86
   2024 07 18 03:00  21 50 21.25    -40 27 29.1   112999 1.0169 147.9 A   15?  65.36  26.4    8 187  63  86
   2024 07 18 03:10  21 50 46.78    -40 17 43.9   113941 1.0169 148.0 A   15?  65.28  26.2    8 189  63  86
   2024 07 18 03:20  21 51 12.07    -40 07 58.4   114880 1.0169 148.0 A   15?  65.21  26.1    8 191  63  86
   2024 07 18 03:30  21 51 37.18    -39 58 12.9   115816 1.0169 148.0 A   15?  65.17  26.0    7 193  63  86
   2024 07 18 03:40  21 52 02.16    -39 48 27.3   116749 1.0169 148.0 A   15?  65.15  26.0    7 194  63  86
   2024 07 18 03:50  21 52 27.08    -39 38 41.9   117680 1.0169 148.0 N   15?  65.15  26.0    7 196  63  86
   2024 07 18 04:00  21 52 52.00    -39 28 56.7   118608 1.0169 148.0 N   15?  65.16  26.1    6 198  63  86
   2024 07 18 04:10  21 53 16.95    -39 19 11.9   119534 1.0169 148.0 N   15?  65.18  26.2    6 200  63  86
   2024 07 18 04:20  21 53 41.99    -39 09 27.7   120458 1.0169 148.0 N   15?  65.21  26.4    5 202  63  86
   2024 07 18 04:30  21 54 07.17    -38 59 44.1   121379 1.0169 148.0 C   15?  65.26  26.6    5 204  63  86
   2024 07 18 04:40  21 54 32.52    -38 50 01.5   122298 1.0169 148.0 C   15?  65.31  26.9    4 205  63  87
   2024 07 18 04:50  21 54 58.10    -38 40 19.8   123215 1.0170 148.0 C   15?  65.37  27.2    3 207  63  87
   ................
   2024 07 18 23:20  22 56 10.23    -29 08 31.5   179647 1.0171 138.1  m  15?  16.22  41.2    0 130  68  92
   2024 07 18 23:30  22 56 18.04    -29 06 28.2   179725 1.0171 138.1  m  15?  15.82  38.1    1 131  68  92
   2024 07 18 23:40  22 56 25.16    -29 04 22.3   179803 1.0171 138.0  m  15?  15.49  34.9    3 133  68  92
   2024 07 18 23:50  22 56 31.60    -29 02 13.7   179881 1.0171 138.0  m  15?  15.25  31.7    4 135  68  92
   2024 07 19 00:00  22 56 37.40    -29 00 02.3   179960 1.0171 138.0  m  15?  15.08  28.4    5 136  68  92
   2024 07 19 00:10  22 56 42.56    -28 57 47.9   180039 1.0171 138.0  m  15?  14.99  25.1    7 138  68  92
   2024 07 19 00:20  22 56 47.12    -28 55 30.4   180120 1.0171 138.0  m  15?  14.98  21.9    8 140  68  92
   2024 07 19 00:30  22 56 51.10    -28 53 09.6   180202 1.0171 138.0  m  15?  15.04  18.8    9 142  68  92
   2024 07 19 00:40  22 56 54.52    -28 50 45.3   180286 1.0171 138.0  m  15?  15.16  15.8   10 144  68  92
   2024 07 19 00:50  22 56 57.42    -28 48 17.4   180371 1.0171 138.0  m  15?  15.34  13.0   11 146  68  92
   2024 07 19 01:00  22 56 59.82    -28 45 45.8   180459 1.0171 138.0  m  15?  15.58  10.5   12 148  68  92
   2024 07 19 01:10  22 57 01.74    -28 43 10.5   180549 1.0171 138.0  m  15?  15.87   8.1   13 150  68  92
   2024 07 19 01:20  22 57 03.23    -28 40 31.2   180641 1.0171 138.0  m  15?  16.19   5.9   14 152  68  92
   2024 07 19 01:30  22 57 04.30    -28 37 47.8   180736 1.0171 138.0  m  15?  16.55   4.0   15 154  68  92
   2024 07 19 01:40  22 57 05.00    -28 35 00.4   180835 1.0171 138.0  m  15?  16.94   2.3   16 156  68  92
   2024 07 19 01:50  22 57 05.35    -28 32 08.8   180936 1.0171 138.0  m  15?  17.35   0.8   17 158  68  92
   2024 07 19 02:00  22 57 05.39    -28 29 12.9   181040 1.0171 138.0  m  15?  17.78 359.5   18 160  68  92
   2024 07 19 02:10  22 57 05.14    -28 26 12.6   181148 1.0171 138.0  m  15?  18.22 358.4   18 163  68  92
   2024 07 19 02:20  22 57 04.64    -28 23 08.0   181260 1.0171 138.0  m  15?  18.67 357.5   19 165  68  92
   2024 07 19 02:30  22 57 03.94    -28 19 59.0   181375 1.0171 138.0     15?  19.13 356.7   19 167  67  92
   2024 07 19 02:40  22 57 03.05    -28 16 45.6   181494 1.0171 138.0     15?  19.59 356.2   20 169  67  92
   2024 07 19 02:50  22 57 02.01    -28 13 27.7   181617 1.0171 138.0     15?  20.04 355.8   20 172  67  92
   2024 07 19 03:00  22 57 00.86    -28 10 05.3   181745 1.0171 138.0     15?  20.50 355.5   20 174  67  92
   2024 07 19 03:10  22 56 59.64    -28 06 38.4   181876 1.0171 138.0 A   15?  20.95 355.4   21 176  67  92
   2024 07 19 03:20  22 56 58.37    -28 03 07.1   182011 1.0171 138.1 A   15?  21.40 355.4   21 179  67  92
   2024 07 19 03:30  22 56 57.10    -27 59 31.3   182150 1.0171 138.1 At  15?  21.84 355.5   21 181  67  92
   2024 07 19 03:40  22 56 55.85    -27 55 51.2   182294 1.0171 138.1 Ae  15?  22.27 355.8   21 184  67  93
   2024 07 19 03:50  22 56 54.67    -27 52 06.7   182441 1.0171 138.1 N   15?  22.70 356.1   21 186  67  93
   2024 07 19 04:00  22 56 53.58    -27 48 17.8   182593 1.0171 138.1 N   15?  23.12 356.5   20 188  67  93
   2024 07 19 04:10  22 56 52.62    -27 44 24.7   182749 1.0171 138.1 N   15?  23.53 357.1   20 191  67  93
   2024 07 19 04:20  22 56 51.81    -27 40 27.4   182909 1.0171 138.1 N   15?  23.93 357.7   20 193  67  93
   2024 07 19 04:30  22 56 51.21    -27 36 26.0   183073 1.0171 138.1 C   15?  24.33 358.4   19 195  67  93
   2024 07 19 04:40  22 56 50.83    -27 32 20.6   183240 1.0171 138.1 C   15?  24.72 359.1   19 198  67  93
   2024 07 19 04:50  22 56 50.70    -27 28 11.3   183412 1.0171 138.1 C   15?  25.10   0.0   18 200  67  93
   ................
   2024 07 19 23:10  23 34 04.55    -20 36 26.3   174720 1.0169 129.6  r  15?  22.17  46.7    0 117  66  96
   2024 07 19 23:20  23 34 15.64    -20 33 53.3   174215 1.0169 129.6  m  15?  21.65  44.6    1 118  66  96
   2024 07 19 23:30  23 34 26.07    -20 31 18.1   173709 1.0169 129.5  m  15?  21.17  42.4    2 120  66  96
   2024 07 19 23:40  23 34 35.84    -20 28 40.7   173202 1.0169 129.5  m  15?  20.75  40.1    4 122  66  96
   2024 07 19 23:50  23 34 44.95    -20 26 00.7   172694 1.0169 129.5  m  15?  20.38  37.7    6 123  66  97
   2024 07 20 00:00  23 34 53.43    -20 23 18.1   172186 1.0169 129.4  m  15?  20.08  35.2    7 125  66  97
   2024 07 20 00:10  23 35 01.29    -20 20 32.8   171677 1.0169 129.4  m  15?  19.83  32.7    9 127  66  97
   2024 07 20 00:20  23 35 08.53    -20 17 44.4   171168 1.0169 129.4  m  15?  19.64  30.1   10 128  66  97
   2024 07 20 00:30  23 35 15.16    -20 14 53.0   170660 1.0169 129.3  m  15?  19.52  27.5   12 130  66  97
   2024 07 20 00:40  23 35 21.22    -20 11 58.4   170152 1.0169 129.3  m  15?  19.46  25.0   13 132  66  97
   2024 07 20 00:50  23 35 26.71    -20 09 00.3   169646 1.0169 129.3  m  15?  19.46  22.4   15 134  66  97
   2024 07 20 01:00  23 35 31.64    -20 05 58.7   169140 1.0169 129.3  m  15?  19.53  20.0   16 136  66  97
   2024 07 20 01:10  23 35 36.05    -20 02 53.5   168636 1.0169 129.2  m  15?  19.65  17.6   17 138  66  97
   2024 07 20 01:20  23 35 39.95    -19 59 44.4   168134 1.0169 129.2  m  15?  19.82  15.3   19 140  66  97
   2024 07 20 01:30  23 35 43.36    -19 56 31.4   167633 1.0168 129.2  m  15?  20.04  13.2   20 142  66  97
   2024 07 20 01:40  23 35 46.31    -19 53 14.3   167135 1.0168 129.2  m  15?  20.31  11.2   21 145  66  97
   2024 07 20 01:50  23 35 48.82    -19 49 53.1   166639 1.0168 129.2  m  15?  20.62   9.3   22 147  66  97
   2024 07 20 02:00  23 35 50.91    -19 46 27.5   166145 1.0168 129.2  m  15?  20.97   7.6   23 149  66  97
   2024 07 20 02:10  23 35 52.62    -19 42 57.6   165654 1.0168 129.2  m  15?  21.35   6.1   24 151  66  97
   2024 07 20 02:20  23 35 53.97    -19 39 23.2   165166 1.0168 129.1  m  15?  21.75   4.7   25 154  66  97
   2024 07 20 02:30  23 35 54.99    -19 35 44.2   164681 1.0168 129.1  m  15?  22.18   3.4   26 156  66  97
   2024 07 20 02:40  23 35 55.71    -19 32 00.5   164200 1.0168 129.1  m  15?  22.63   2.4   27 159  66  97
   2024 07 20 02:50  23 35 56.17    -19 28 12.1   163721 1.0168 129.1  m  15?  23.10   1.4   27 161  66  97
   2024 07 20 03:00  23 35 56.38    -19 24 18.8   163246 1.0168 129.1  m  15?  23.58   0.6   28 164  66  97
   2024 07 20 03:10  23 35 56.39    -19 20 20.7   162774 1.0168 129.1 Am  15?  24.07 359.9   28 167  66  97
   2024 07 20 03:20  23 35 56.23    -19 16 17.6   162306 1.0168 129.1 Am  15?  24.57 359.4   29 169  66  97
   2024 07 20 03:30  23 35 55.94    -19 12 09.6   161841 1.0168 129.1 A   15?  25.07 359.1   29 172  66  97
   2024 07 20 03:40  23 35 55.54    -19 07 56.4   161381 1.0168 129.1 A   15?  25.58 358.8   29 175  66  97
   2024 07 20 03:50  23 35 55.08    -19 03 38.3   160923 1.0168 129.1 N   15?  26.09 358.7   30 177  66  97
   2024 07 20 04:00  23 35 54.58    -18 59 15.0   160470 1.0168 129.1 Nt  15?  26.60 358.7   30 180  66  97
   2024 07 20 04:10  23 35 54.09    -18 54 46.7   160020 1.0168 129.1 Ne  15?  27.11 358.8   30 183  65  97
   2024 07 20 04:20  23 35 53.64    -18 50 13.2   159573 1.0168 129.1 N   15?  27.62 359.0   30 186  65  97
   2024 07 20 04:30  23 35 53.26    -18 45 34.6   159131 1.0168 129.1 C   15?  28.13 359.3   30 188  65  97
   2024 07 20 04:40  23 35 53.00    -18 40 50.9   158692 1.0168 129.0 C   15?  28.64 359.6   29 191  65  97
   2024 07 20 04:50  23 35 52.89    -18 36 02.1   158256 1.0168 129.0 C   15?  29.15   0.2   29 194  65  97
   ................
   2024 07 20 23:30  01 04 14.61    -00 56 29.9    63428 1.0162 103.8  m  12? 255.41  52.2    0  91  81  99
   2024 07 20 23:40  01 06 31.91    -00 29 44.0    61646 1.0162 103.1  m  12? 268.15  52.0    2  92  82  99
   2024 07 20 23:50  01 08 55.96    -00 01 30.1    59838 1.0162 102.4  m  12? 282.31  51.9    4  93  82  99
   2024 07 21 00:00  01 11 27.62    +00 28 20.5    58003 1.0162 101.6  m  12? 298.12  51.8    6  94  83  99
   2024 07 21 00:10  01 14 07.87    +00 59 58.0    56140 1.0161 100.8  m  12? 315.86  51.7    7  95  84  99
   2024 07 21 00:20  01 16 57.88    +01 33 34.1    54248 1.0161  99.9  m  12? 335.84  51.7    9  96  85  99
   2024 07 21 00:30  01 19 59.05    +02 09 22.3    52326 1.0161  99.0  m  12? 358.49  51.7   11  96  86  99
   2024 07 21 00:40  01 23 13.04    +02 47 38.4    50373 1.0161  98.1  m  11? 384.31  51.8   12  97  86  99
   2024 07 21 00:50  01 26 41.87    +03 28 40.8    48386 1.0161  97.0  m  11? 413.94  51.9   14  98  88  99
   2024 07 21 01:00  01 30 28.03    +04 12 51.6    46365 1.0161  95.9  m  11? 448.19  52.1   16  98  89  99
   2024 07 21 01:10  01 34 34.56    +05 00 36.8    44308 1.0161  94.6  m  11? 488.12  52.3   17  98  90  99
   2024 07 21 01:20  01 39 05.31    +05 52 28.0    42213 1.0161  93.3  m  11? 535.10  52.7   19  99  91  99
   2024 07 21 01:30  01 44 05.15    +06 49 03.2    40078 1.0161  91.8  m  11? 590.96  53.1   21  99  93  99
   2024 07 21 01:40  01 49 40.40    +07 51 09.3    37901 1.0161  90.1  m  11? 658.17  53.6   22  99  94  99
   2024 07 21 01:50  01 55 59.34    +08 59 44.0    35680 1.0161  88.3  m  11? 740.15  54.2   23  98  96  99
   2024 07 21 02:00  02 03 13.16    +10 15 59.2    33414 1.0160  86.2  m  11? 841.73  55.0   25  98  98  99
   2024 07 21 02:10  02 11 37.23    +11 41 25.2    31101 1.0160  83.8  m  10? 969.89  55.9   26  97 101  99
   2024 07 21 02:20  02 21 33.33    +13 17 55.2    28740 1.0160  80.9  m  10? 1135.0  57.1   27  96 103  99
   2024 07 21 02:30  02 33 33.33    +15 07 49.6    26333 1.0160  77.6  m  10? 1353.0  58.6   28  94 107  99
   2024 07 21 02:40  02 48 25.52    +17 13 56.4    23884 1.0160  73.6  m  10? 1648.9  60.6   28  91 111  99
   2024 07 21 02:50  03 07 26.11    +19 39 13.1    21406 1.0160  68.6  e  10? 2063.6  63.2   28  87 116  99
   2024 07 21 03:00  03 32 40.30    +22 25 27.8    18924 1.0160  62.2  m  10? 2664.7  66.7   27  82 122  99
   2024 07 21 03:10  04 07 39.77    +25 28 43.9    16489 1.0160  53.8 Am  10? 3562.6  71.8   24  76 131  99
   2024 07 21 03:20  04 58 14.25    +28 24 42.8    14210 1.0160  42.4 Am  10? 4915.3  79.4   18  68 142  99
   2024 07 21 03:30  06 12 05.24    +29 50 35.0    12301 1.0160  26.6 Am  10? 6825.5  90.8    8  57 158  99
   ................
   2024 07 21 23:10  22 29 51.30    -34 42 31.0   148348 1.0168 145.2  m  15?  24.84  39.0    0 138  25  99
   2024 07 21 23:20  22 30 03.66    -34 39 16.2   148808 1.0168 145.1  m  15?  24.40  36.5    1 140  25  99
   2024 07 21 23:30  22 30 15.12    -34 35 58.3   149266 1.0168 145.1  m  15?  24.05  34.1    2 141  25  99
   2024 07 21 23:40  22 30 25.75    -34 32 37.0   149723 1.0168 145.1  m  15?  23.79  31.6    3 143  25  99
   2024 07 21 23:50  22 30 35.56    -34 29 12.3   150179 1.0168 145.1  m  15?  23.61  29.1    4 144  25  99
   2024 07 22 00:00  22 30 44.61    -34 25 43.9   150635 1.0168 145.1  m  15?  23.51  26.7    5 146  25  99
   2024 07 22 00:10  22 30 52.92    -34 22 11.6   151090 1.0168 145.1  m  15?  23.49  24.4    6 148  25  99
   2024 07 22 00:20  22 31 00.55    -34 18 35.4   151545 1.0168 145.1  m  15?  23.53  22.2    7 150  25  99
   2024 07 22 00:30  22 31 07.53    -34 14 55.0   152000 1.0168 145.1  m  15?  23.64  20.1    8 152  25  99
   2024 07 22 00:40  22 31 13.91    -34 11 10.4   152456 1.0168 145.1  m  15?  23.81  18.1    9 153  25  99
   2024 07 22 00:50  22 31 19.72    -34 07 21.5   152912 1.0168 145.1  m  15?  24.04  16.3   10 155  25  99
   2024 07 22 01:00  22 31 25.02    -34 03 28.1   153369 1.0168 145.1  m  15?  24.31  14.6   11 157  25  99
   2024 07 22 01:10  22 31 29.83    -33 59 30.2   153827 1.0168 145.1  m  15?  24.62  13.0   12 159  25  99
   2024 07 22 01:20  22 31 34.22    -33 55 27.6   154287 1.0168 145.1  m  15?  24.96  11.7   12 161  25  99
   2024 07 22 01:30  22 31 38.21    -33 51 20.5   154748 1.0168 145.1  m  15?  25.33  10.4   13 163  25  99
   2024 07 22 01:40  22 31 41.85    -33 47 08.5   155210 1.0168 145.1  m  15?  25.73   9.4   13 165  25  99
   2024 07 22 01:50  22 31 45.19    -33 42 51.9   155675 1.0168 145.1  m  15?  26.14   8.5   14 167  25  99
   2024 07 22 02:00  22 31 48.28    -33 38 30.5   156141 1.0168 145.1  m  15?  26.57   7.7   14 170  25  99
   2024 07 22 02:10  22 31 51.14    -33 34 04.4   156609 1.0168 145.1  m  15?  27.01   7.0   15 172  25  99
   2024 07 22 02:20  22 31 53.83    -33 29 33.5   157079 1.0168 145.1  m  15?  27.46   6.5   15 174  25  99
   2024 07 22 02:30  22 31 56.39    -33 24 57.8   157552 1.0168 145.1  m  15?  27.92   6.2   15 176  25  99
   2024 07 22 02:40  22 31 58.87    -33 20 17.5   158027 1.0168 145.2  m  15?  28.37   5.9   15 178  25  99
   2024 07 22 02:50  22 32 01.30    -33 15 32.5   158505 1.0168 145.2  t  15?  28.83   5.7   15 180  24  99
   2024 07 22 03:00  22 32 03.72    -33 10 43.0   158984 1.0168 145.2  e  15?  29.28   5.7   16 182  24  99
   2024 07 22 03:10  22 32 06.18    -33 05 48.9   159467 1.0168 145.2 Am  15?  29.73   5.8   15 185  24  99
   2024 07 22 03:20  22 32 08.71    -33 00 50.4   159952 1.0169 145.2 Am  15?  30.18   5.9   15 187  24  99
   2024 07 22 03:30  22 32 11.36    -32 55 47.6   160439 1.0169 145.2 Am  15?  30.63   6.1   15 189  24  99
   2024 07 22 03:40  22 32 14.17    -32 50 40.6   160929 1.0169 145.2 Am  15?  31.07   6.5   15 191  24  99
   2024 07 22 03:50  22 32 17.16    -32 45 29.4   161421 1.0169 145.3 Am  15?  31.50   6.9   15 193  24  99
   2024 07 22 04:00  22 32 20.38    -32 40 14.3   161916 1.0169 145.3 Nm  15?  31.92   7.3   14 195  24  99
   2024 07 22 04:10  22 32 23.87    -32 34 55.4   162414 1.0169 145.3 Nm  15?  32.35   7.9   14 198  24  99
   2024 07 22 04:20  22 32 27.64    -32 29 32.7   162913 1.0169 145.3 Nm  15?  32.76   8.5   13 200  24  99
   2024 07 22 04:30  22 32 31.75    -32 24 06.5   163415 1.0169 145.3 Cm  15?  33.17   9.2   13 202  24  99
   2024 07 22 04:40  22 32 36.22    -32 18 37.0   163919 1.0169 145.3 Cm  15?  33.58   9.9   12 204  24  99
   2024 07 22 04:50  22 32 41.08    -32 13 04.2   164426 1.0169 145.3 Cm  15?  33.98  10.7   11 206  24  99
   ................
   2024 07 22 23:00  23 13 47.92    -25 09 41.0   187283 1.0168 137.4  m  15?  15.91  43.4    0 124  22  96
   2024 07 22 23:10  23 13 55.65    -25 07 44.0   187093 1.0168 137.4  m  15?  15.45  40.5    1 125  22  96
   2024 07 22 23:20  23 14 02.73    -25 05 45.0   186904 1.0168 137.3  m  15?  15.07  37.4    3 127  22  96
   2024 07 22 23:30  23 14 09.16    -25 03 43.7   186714 1.0168 137.3  m  15?  14.75  34.2    4 128  22  96
   2024 07 22 23:40  23 14 14.96    -25 01 40.0   186525 1.0168 137.3  m  15?  14.50  30.9    6 130  22  96
   2024 07 22 23:50  23 14 20.15    -24 59 33.8   186336 1.0168 137.3  m  15?  14.33  27.6    7 132  22  96
   2024 07 23 00:00  23 14 24.75    -24 57 24.9   186148 1.0168 137.3  m  15?  14.23  24.2    8 134  22  96
   2024 07 23 00:10  23 14 28.77    -24 55 13.1   185962 1.0168 137.3  m  15?  14.21  20.9   10 136  22  96
   2024 07 23 00:20  23 14 32.22    -24 52 58.3   185777 1.0168 137.3  m  15?  14.25  17.7   11 137  22  96
   2024 07 23 00:30  23 14 35.15    -24 50 40.5   185594 1.0168 137.2  m  15?  14.36  14.6   12 139  22  96
   2024 07 23 00:40  23 14 37.55    -24 48 19.3   185412 1.0168 137.2  m  15?  14.53  11.6   14 141  22  96
   2024 07 23 00:50  23 14 39.47    -24 45 54.8   185234 1.0168 137.2  m  15?  14.75   8.9   15 143  22  96
   2024 07 23 01:00  23 14 40.91    -24 43 26.7   185057 1.0168 137.2  m  15?  15.02   6.3   16 145  22  96
   2024 07 23 01:10  23 14 41.92    -24 40 55.1   184884 1.0168 137.2  m  15?  15.33   4.0   17 147  22  96
   2024 07 23 01:20  23 14 42.50    -24 38 19.7   184713 1.0168 137.2  m  15?  15.68   1.9   18 150  21  96
   2024 07 23 01:30  23 14 42.70    -24 35 40.5   184546 1.0168 137.2  m  15?  16.06   0.0   19 152  21  96
   2024 07 23 01:40  23 14 42.53    -24 32 57.4   184382 1.0168 137.2  m  15?  16.46 358.3   20 154  21  96
   2024 07 23 01:50  23 14 42.03    -24 30 10.3   184221 1.0168 137.2  m  15?  16.88 356.9   21 156  21  96
   2024 07 23 02:00  23 14 41.22    -24 27 19.1   184065 1.0168 137.3  m  15?  17.32 355.6   21 159  21  96
   2024 07 23 02:10  23 14 40.14    -24 24 23.8   183912 1.0168 137.3  m  15?  17.76 354.6   22 161  21  96
   2024 07 23 02:20  23 14 38.82    -24 21 24.2   183763 1.0168 137.3  m  15?  18.21 353.7   23 163  21  96
   2024 07 23 02:30  23 14 37.28    -24 18 20.5   183618 1.0168 137.3  m  15?  18.67 353.1   23 166  21  96
   2024 07 23 02:40  23 14 35.56    -24 15 12.4   183478 1.0168 137.3  m  15?  19.12 352.5   24 168  21  96
   2024 07 23 02:50  23 14 33.69    -24 12 00.0   183341 1.0168 137.3  m  15?  19.58 352.2   24 171  21  96
   2024 07 23 03:00  23 14 31.71    -24 08 43.3   183209 1.0168 137.3  m  15?  20.03 352.0   24 173  21  96
   2024 07 23 03:10  23 14 29.64    -24 05 22.2   183082 1.0168 137.3 Am  15?  20.47 351.9   25 176  21  96
   2024 07 23 03:20  23 14 27.53    -24 01 56.8   182959 1.0168 137.3 Am  15?  20.91 351.9   25 178  21  96
   2024 07 23 03:30  23 14 25.39    -23 58 26.9   182840 1.0168 137.3 At  15?  21.34 352.1   25 181  21  96
   2024 07 23 03:40  23 14 23.27    -23 54 52.8   182726 1.0168 137.3 Ae  15?  21.77 352.3   25 183  21  96
   2024 07 23 03:50  23 14 21.21    -23 51 14.3   182617 1.0168 137.4 Am  15?  22.18 352.7   25 186  21  95
   2024 07 23 04:00  23 14 19.22    -23 47 31.5   182512 1.0168 137.4 Nm  15?  22.59 353.2   24 188  21  95
   2024 07 23 04:10  23 14 17.35    -23 43 44.4   182411 1.0168 137.4 Nm  15?  22.99 353.8   24 191  20  95
   2024 07 23 04:20  23 14 15.63    -23 39 53.2   182315 1.0168 137.4 Nm  15?  23.39 354.4   24 194  20  95
   2024 07 23 04:30  23 14 14.09    -23 35 57.7   182222 1.0168 137.4 Nm  15?  23.77 355.2   23 196  20  95
   2024 07 23 04:40  23 14 12.76    -23 31 58.2   182135 1.0168 137.4 Cm  15?  24.16 356.0   23 198  20  95
   2024 07 23 04:50  23 14 11.67    -23 27 54.7   182051 1.0168 137.4 Cm  15?  24.53 356.9   22 201  20  95
   ................
   2024 07 23 23:00  23 55 43.15    -15 24 30.4   143210 1.0164 127.1  m  15?  38.62  46.8    0 110  19  91
   2024 07 23 23:10  23 56 02.22    -15 20 03.5   142359 1.0164 127.0  m  15?  38.22  45.4    2 112  19  91
   2024 07 23 23:20  23 56 20.63    -15 15 32.6   141505 1.0164 126.9  m  14?  37.85  44.0    3 113  19  91
   2024 07 23 23:30  23 56 38.39    -15 10 57.5   140647 1.0164 126.9  m  14?  37.53  42.5    5 115  19  91
   2024 07 23 23:40  23 56 55.50    -15 06 17.9   139785 1.0164 126.8  m  14?  37.25  40.9    7 117  19  90
   2024 07 23 23:50  23 57 11.97    -15 01 33.6   138920 1.0164 126.7  m  14?  37.02  39.4    9 118  19  90
   2024 07 24 00:00  23 57 27.80    -14 56 44.5   138052 1.0164 126.6  m  14?  36.84  37.8   10 120  19  90
   2024 07 24 00:10  23 57 42.99    -14 51 50.4   137182 1.0164 126.6  m  14?  36.72  36.2   12 122  19  90
   2024 07 24 00:20  23 57 57.57    -14 46 50.9   136309 1.0164 126.5  m  14?  36.65  34.6   13 124  19  90
   2024 07 24 00:30  23 58 11.54    -14 41 45.9   135434 1.0164 126.4  m  14?  36.63  33.0   15 125  19  90
   2024 07 24 00:40  23 58 24.91    -14 36 35.2   134557 1.0164 126.4  m  14?  36.68  31.4   17 127  19  90
   2024 07 24 00:50  23 58 37.70    -14 31 18.6   133679 1.0164 126.3  m  14?  36.78  29.8   18 129  19  90
   2024 07 24 01:00  23 58 49.92    -14 25 55.8   132799 1.0163 126.2  m  14?  36.94  28.2   20 131  19  90
   2024 07 24 01:10  23 59 01.60    -14 20 26.6   131918 1.0163 126.2  m  14?  37.15  26.7   21 133  19  90
   2024 07 24 01:20  23 59 12.75    -14 14 50.9   131036 1.0163 126.1  m  14?  37.43  25.2   22 135  19  90
   2024 07 24 01:30  23 59 23.39    -14 09 08.3   130152 1.0163 126.0  m  14?  37.76  23.8   24 137  19  90
   2024 07 24 01:40  23 59 33.55    -14 03 18.8   129269 1.0163 126.0  m  14?  38.15  22.4   25 140  19  90
   2024 07 24 01:50  23 59 43.25    -13 57 22.1   128384 1.0163 125.9  m  14?  38.59  21.2   26 142  19  90
   2024 07 24 02:00  23 59 52.52    -13 51 17.9   127499 1.0163 125.9  m  14?  39.09  19.9   28 144  19  90
   2024 07 24 02:10  00 00 01.39    -13 45 06.1   126614 1.0163 125.8  m  14?  39.63  18.8   29 147  19  90
   2024 07 24 02:20  00 00 09.88    -13 38 46.5   125729 1.0163 125.8  m  14?  40.22  17.7   30 149  19  90
   2024 07 24 02:30  00 00 18.03    -13 32 18.8   124843 1.0163 125.7  m  14?  40.86  16.8   31 152  19  90
   2024 07 24 02:40  00 00 25.87    -13 25 42.9   123958 1.0163 125.7  m  14?  41.54  15.9   32 154  19  90
   2024 07 24 02:50  00 00 33.44    -13 18 58.6   123072 1.0163 125.6  m  14?  42.27  15.1   33 157  19  90
   2024 07 24 03:00  00 00 40.77    -13 12 05.7   122187 1.0163 125.6  m  14?  43.03  14.4   33 160  19  90
   2024 07 24 03:10  00 00 47.90    -13 05 03.9   121301 1.0163 125.5 Am  14?  43.83  13.8   34 163  19  90
   2024 07 24 03:20  00 00 54.87    -12 57 53.1   120416 1.0163 125.4 Am  14?  44.67  13.2   35 165  19  90
   2024 07 24 03:30  00 01 01.72    -12 50 33.2   119531 1.0163 125.4 Am  14?  45.55  12.8   35 168  19  90
   2024 07 24 03:40  00 01 08.49    -12 43 03.8   118646 1.0163 125.3 Am  14?  46.46  12.4   36 171  19  90
   2024 07 24 03:50  00 01 15.23    -12 35 24.9   117761 1.0163 125.3 Am  14?  47.40  12.2   36 174  19  90
   2024 07 24 04:00  00 01 21.99    -12 27 36.3   116876 1.0163 125.2 Nm  14?  48.37  12.0   36 177  19  90
   2024 07 24 04:10  00 01 28.80    -12 19 37.7   115990 1.0162 125.2 Nt  14?  49.38  11.9   36 180  19  90
   2024 07 24 04:20  00 01 35.73    -12 11 29.0   115105 1.0162 125.1 Nm  14?  50.42  11.9   36 183  19  90
   2024 07 24 04:30  00 01 42.81    -12 03 10.0   114219 1.0162 125.1 Ne  14?  51.49  12.0   36 186  18  90
   2024 07 24 04:40  00 01 50.10    -11 54 40.6   113332 1.0162 125.0 Cm  14?  52.60  12.1   36 189  18  89
   2024 07 24 04:50  00 01 57.65    -11 46 00.5   112444 1.0162 124.9 Cm  14?  53.74  12.3   36 192  18  89
   ................
   2024 07 24 23:40  21 28 05.11    -45 42 56.4    83515 1.0162 150.2  m  14? 106.16  40.3    0 160  47  83
   2024 07 24 23:50  21 29 09.10    -45 29 35.0    84703 1.0162 150.2  m  14? 103.47  39.3    0 162  47  83
   2024 07 25 00:00  21 30 10.04    -45 16 22.7    85880 1.0162 150.3  m  14? 101.00  38.4    1 163  47  83
   2024 07 25 00:10  21 31 08.17    -45 03 18.7    87045 1.0162 150.4  m  14?  98.75  37.5    2 165  47  82
   2024 07 25 00:20  21 32 03.69    -44 50 22.4    88200 1.0163 150.5  m  14?  96.69  36.6    2 166  46  82
   2024 07 25 00:30  21 32 56.81    -44 37 33.1    89345 1.0163 150.5  m  14?  94.80  35.8    3 168  46  82
   2024 07 25 00:40  21 33 47.72    -44 24 50.3    90480 1.0163 150.6  m  14?  93.08  35.0    3 169  46  82
   2024 07 25 00:50  21 34 36.59    -44 12 13.5    91606 1.0163 150.7  m  14?  91.51  34.2    4 171  46  82
   2024 07 25 01:00  21 35 23.58    -43 59 42.2    92723 1.0163 150.7  m  14?  90.08  33.5    4 173  46  82
   2024 07 25 01:10  21 36 08.86    -43 47 16.2    93833 1.0163 150.8  m  14?  88.78  32.8    5 174  46  82
   2024 07 25 01:20  21 36 52.56    -43 34 55.0    94934 1.0163 150.9  m  14?  87.59  32.1    5 176  45  82
   2024 07 25 01:30  21 37 34.84    -43 22 38.3    96029 1.0163 151.0  m  14?  86.51  31.6    5 178  45  82
   2024 07 25 01:40  21 38 15.82    -43 10 25.8    97116 1.0163 151.0  m  14?  85.53  31.0    6 179  45  82
   2024 07 25 01:50  21 38 55.62    -42 58 17.4    98197 1.0163 151.1  t  14?  84.64  30.5    6 181  45  82
   2024 07 25 02:00  21 39 34.36    -42 46 12.8    99272 1.0163 151.2  m  14?  83.82  30.1    6 183  45  82
   2024 07 25 02:10  21 40 12.16    -42 34 11.9   100341 1.0163 151.2  m  14?  83.08  29.7    6 185  45  82
   2024 07 25 02:20  21 40 49.11    -42 22 14.6   101404 1.0163 151.3  e  14?  82.40  29.4    6 186  44  82
   2024 07 25 02:30  21 41 25.32    -42 10 20.6   102462 1.0163 151.4  m  14?  81.79  29.1    6 188  44  82
   2024 07 25 02:40  21 42 00.88    -41 58 30.1   103515 1.0163 151.4  m  14?  81.22  28.9    6 190  44  82
   2024 07 25 02:50  21 42 35.88    -41 46 42.8   104562 1.0163 151.5  m  15?  80.71  28.7    6 192  44  82
   2024 07 25 03:00  21 43 10.40    -41 34 58.8   105606 1.0163 151.6  m  15?  80.24  28.6    5 193  44  82
   2024 07 25 03:10  21 43 44.52    -41 23 18.1   106644 1.0163 151.6 Am  15?  79.81  28.5    5 195  44  82
   2024 07 25 03:20  21 44 18.31    -41 11 40.6   107679 1.0164 151.7 Am  15?  79.41  28.5    5 197  44  82
   2024 07 25 03:30  21 44 51.85    -41 00 06.5   108709 1.0164 151.8 Am  15?  79.05  28.5    4 199  43  82
   2024 07 25 03:40  21 45 25.19    -40 48 35.8   109735 1.0164 151.8 Am  15?  78.71  28.6    4 200  43  82
   2024 07 25 03:50  21 45 58.40    -40 37 08.5   110757 1.0164 151.9 Am  15?  78.40  28.7    4 202  43  81
   2024 07 25 04:00  21 46 31.54    -40 25 44.6   111775 1.0164 151.9 Nm  15?  78.11  28.9    3 204  43  81
   2024 07 25 04:10  21 47 04.66    -40 14 24.4   112789 1.0164 152.0 Nm  15?  77.85  29.1    2 206  43  81
   2024 07 25 04:20  21 47 37.81    -40 03 07.9   113799 1.0164 152.0 Nm  15?  77.60  29.3    2 207  43  81
   2024 07 25 04:30  21 48 11.04    -39 51 55.1   114806 1.0164 152.0 Nm  15?  77.37  29.6    1 209  43  81
   2024 07 25 04:40  21 48 44.39    -39 40 46.3   115809 1.0164 152.1 Cm  15?  77.15  29.9    0 211  42  81
   2024 07 25 04:50  21 49 17.89    -39 29 41.5   116808 1.0164 152.1 Cm  15?  76.95  30.3    0 212  42  81
   ................
   2024 07 25 22:50  22 53 46.21    -29 40 30.5   176934 1.0166 144.1  m  15?  16.48  39.8    0 130  36  73
   2024 07 25 23:00  22 53 53.95    -29 38 22.7   177058 1.0166 144.0  m  15?  16.09  36.7    1 132  36  73
   2024 07 25 23:10  22 54 00.99    -29 36 12.3   177183 1.0166 144.0  m  15?  15.78  33.5    2 133  36  73
   2024 07 25 23:20  22 54 07.33    -29 33 59.3   177307 1.0166 144.0  m  15?  15.55  30.2    4 135  36  73
   2024 07 25 23:30  22 54 13.01    -29 31 43.4   177432 1.0166 144.0  m  15?  15.40  26.9    5 137  36  73
   2024 07 25 23:40  22 54 18.05    -29 29 24.4   177557 1.0166 144.0  m  15?  15.33  23.6    6 139  36  73
   2024 07 25 23:50  22 54 22.46    -29 27 02.3   177684 1.0166 144.0  m  15?  15.34  20.4    7 140  37  73
   2024 07 26 00:00  22 54 26.29    -29 24 36.9   177812 1.0166 144.0  m  15?  15.41  17.4    9 142  37  73
   2024 07 26 00:10  22 54 29.55    -29 22 07.9   177941 1.0166 144.0  m  15?  15.56  14.5   10 144  37  73
   2024 07 26 00:20  22 54 32.27    -29 19 35.4   178071 1.0166 144.0  m  15?  15.76  11.7   11 146  37  73
   2024 07 26 00:30  22 54 34.49    -29 16 59.1   178204 1.0166 144.0  m  15?  16.01   9.2   12 148  37  73
   2024 07 26 00:40  22 54 36.22    -29 14 19.0   178339 1.0166 144.0  m  15?  16.32   6.9   13 150  37  73
   2024 07 26 00:50  22 54 37.51    -29 11 34.9   178477 1.0166 144.0  m  15?  16.66   4.8   14 152  37  72
   2024 07 26 01:00  22 54 38.38    -29 08 46.7   178617 1.0166 144.0  m  15?  17.03   2.9   15 154  37  72
   2024 07 26 01:10  22 54 38.87    -29 05 54.4   178760 1.0166 144.0  m  15?  17.43   1.2   16 156  37  72
   2024 07 26 01:20  22 54 39.00    -29 02 57.9   178905 1.0166 144.0  m  15?  17.85 359.8   16 158  37  72
   2024 07 26 01:30  22 54 38.82    -28 59 57.1   179054 1.0166 144.0  m  15?  18.29 358.5   17 160  37  72
   2024 07 26 01:40  22 54 38.35    -28 56 51.9   179207 1.0166 144.1  m  15?  18.74 357.5   18 163  37  72
   2024 07 26 01:50  22 54 37.63    -28 53 42.3   179363 1.0166 144.1  m  15?  19.20 356.6   18 165  37  72
   2024 07 26 02:00  22 54 36.70    -28 50 28.2   179522 1.0166 144.1  m  15?  19.66 355.9   19 167  37  72
   2024 07 26 02:10  22 54 35.58    -28 47 09.7   179685 1.0166 144.1  m  15?  20.12 355.4   19 169  37  72
   2024 07 26 02:20  22 54 34.32    -28 43 46.7   179852 1.0166 144.1  m  15?  20.58 355.0   20 172  37  72
   2024 07 26 02:30  22 54 32.94    -28 40 19.2   180023 1.0166 144.1  m  15?  21.04 354.8   20 174  37  72
   2024 07 26 02:40  22 54 31.50    -28 36 47.2   180198 1.0166 144.2  m  15?  21.50 354.7   20 176  37  72
   2024 07 26 02:50  22 54 30.01    -28 33 10.7   180377 1.0166 144.2  m  15?  21.94 354.7   20 179  37  72
   2024 07 26 03:00  22 54 28.51    -28 29 29.8   180560 1.0166 144.2  t  15?  22.38 354.9   20 181  37  72
   2024 07 26 03:10  22 54 27.05    -28 25 44.4   180747 1.0166 144.2  e  15?  22.82 355.1   20 184  37  72
   2024 07 26 03:20  22 54 25.65    -28 21 54.7   180938 1.0166 144.2 Am  15?  23.24 355.5   20 186  37  72
   2024 07 26 03:30  22 54 24.34    -28 18 00.6   181133 1.0166 144.2 Am  15?  23.66 355.9   20 188  37  72
   2024 07 26 03:40  22 54 23.17    -28 14 02.3   181332 1.0166 144.3 Am  16?  24.06 356.4   20 191  37  72
   2024 07 26 03:50  22 54 22.17    -28 09 59.8   181535 1.0166 144.3 Am  16?  24.46 357.1   19 193  37  72
   2024 07 26 04:00  22 54 21.36    -28 05 53.3   181741 1.0166 144.3 Nm  16?  24.86 357.8   19 195  37  71
   2024 07 26 04:10  22 54 20.78    -28 01 42.7   181952 1.0166 144.3 Nm  16?  25.24 358.5   18 198  37  71
   2024 07 26 04:20  22 54 20.47    -27 57 28.2   182167 1.0166 144.3 Nm  16?  25.62 359.4   18 200  37  71
   2024 07 26 04:30  22 54 20.44    -27 53 09.9   182385 1.0166 144.3 Nm  16?  25.99   0.3   17 202  37  71
   2024 07 26 04:40  22 54 20.74    -27 48 47.9   182607 1.0166 144.3 Cm  16?  26.36   1.3   17 204  37  71
   2024 07 26 04:50  22 54 21.39    -27 44 22.4   182832 1.0166 144.3 Cm  16?  26.72   2.3   16 206  37  71
   ................
   2024 07 26 22:50  23 30 55.43    -21 04 58.8   177834 1.0164 136.6  m  15?  20.07  43.3    1 119  37  62
   2024 07 26 23:00  23 31 04.95    -21 02 31.1   177377 1.0164 136.5  m  15?  19.61  40.9    2 120  37  62
   2024 07 26 23:10  23 31 13.81    -21 00 01.2   176920 1.0164 136.5  m  15?  19.20  38.4    4 122  37  62
   2024 07 26 23:20  23 31 22.03    -20 57 28.9   176461 1.0164 136.5  m  15?  18.86  35.9    5 124  37  62
   2024 07 26 23:30  23 31 29.61    -20 54 54.2   176003 1.0164 136.4  m  15?  18.57  33.2    7 125  37  62
   2024 07 26 23:40  23 31 36.57    -20 52 16.7   175544 1.0164 136.4  m  15?  18.35  30.5    9 127  37  62
   2024 07 26 23:50  23 31 42.92    -20 49 36.4   175086 1.0164 136.4  m  15?  18.20  27.7   10 129  37  62
   2024 07 27 00:00  23 31 48.68    -20 46 53.2   174628 1.0164 136.4  m  15?  18.10  25.0   11 131  38  62
   2024 07 27 00:10  23 31 53.86    -20 44 06.8   174171 1.0164 136.4  m  15?  18.08  22.3   13 133  38  62
   2024 07 27 00:20  23 31 58.48    -20 41 17.2   173716 1.0164 136.3  m  15?  18.11  19.6   14 135  38  62
   2024 07 27 00:30  23 32 02.55    -20 38 24.2   173261 1.0164 136.3  m  15?  18.21  17.0   16 137  38  62
   2024 07 27 00:40  23 32 06.10    -20 35 27.6   172808 1.0164 136.3  m  15?  18.36  14.5   17 139  38  62
   2024 07 27 00:50  23 32 09.15    -20 32 27.4   172358 1.0164 136.3  m  15?  18.56  12.2   18 141  38  62
   2024 07 27 01:00  23 32 11.72    -20 29 23.4   171909 1.0164 136.3  m  15?  18.81  10.0   19 143  38  61
   2024 07 27 01:10  23 32 13.84    -20 26 15.4   171463 1.0164 136.3  m  15?  19.10   8.0   21 145  38  61
   2024 07 27 01:20  23 32 15.52    -20 23 03.5   171019 1.0164 136.3  m  15?  19.43   6.1   22 147  38  61
   2024 07 27 01:30  23 32 16.80    -20 19 47.4   170578 1.0164 136.3  m  15?  19.80   4.4   23 150  38  61
   2024 07 27 01:40  23 32 17.69    -20 16 27.1   170140 1.0164 136.3  m  15?  20.19   2.8   24 152  38  61
   2024 07 27 01:50  23 32 18.24    -20 13 02.5   169705 1.0164 136.3  m  15?  20.61   1.4   25 154  38  61
   2024 07 27 02:00  23 32 18.47    -20 09 33.5   169273 1.0164 136.3  m  15?  21.05   0.2   25 157  38  61
   2024 07 27 02:10  23 32 18.40    -20 06 00.0   168844 1.0164 136.3  m  15?  21.50 359.1   26 159  38  61
   2024 07 27 02:20  23 32 18.08    -20 02 22.0   168420 1.0164 136.3  m  15?  21.97 358.2   27 162  38  61
   2024 07 27 02:30  23 32 17.52    -19 58 39.3   167998 1.0164 136.3  m  15?  22.44 357.5   27 164  38  61
   2024 07 27 02:40  23 32 16.76    -19 54 51.9   167581 1.0163 136.3  m  15?  22.93 356.9   28 167  38  61
   2024 07 27 02:50  23 32 15.84    -19 50 59.9   167167 1.0163 136.3  m  15?  23.41 356.5   28 170  38  61
   2024 07 27 03:00  23 32 14.79    -19 47 03.0   166757 1.0163 136.3  m  15?  23.90 356.2   29 172  38  61
   2024 07 27 03:10  23 32 13.64    -19 43 01.3   166351 1.0163 136.3  m  15?  24.39 356.0   29 175  38  61
   2024 07 27 03:20  23 32 12.43    -19 38 54.9   165949 1.0163 136.3 Am  15?  24.87 355.9   29 178  38  61
   2024 07 27 03:30  23 32 11.19    -19 34 43.5   165551 1.0163 136.3 At  15?  25.36 355.9   29 180  38  61
   2024 07 27 03:40  23 32 09.96    -19 30 27.3   165157 1.0163 136.3 Ae  15?  25.84 356.1   29 183  38  61
   2024 07 27 03:50  23 32 08.78    -19 26 06.3   164767 1.0163 136.3 Am  15?  26.32 356.3   29 186  38  60
   2024 07 27 04:00  23 32 07.67    -19 21 40.4   164380 1.0163 136.3 Nm  15?  26.79 356.7   29 189  38  60
   2024 07 27 04:10  23 32 06.67    -19 17 09.7   163997 1.0163 136.3 Nm  15?  27.27 357.1   29 191  38  60
   2024 07 27 04:20  23 32 05.82    -19 12 34.1   163619 1.0163 136.3 Nm  15?  27.74 357.7   28 194  38  60
   2024 07 27 04:30  23 32 05.17    -19 07 53.8   163243 1.0163 136.3 Nm  15?  28.20 358.3   28 197  38  60
   2024 07 27 04:40  23 32 04.73    -19 03 08.7   162871 1.0163 136.3 Cm  15?  28.67 359.0   27 199  38  60
   2024 07 27 04:50  23 32 04.54    -18 58 18.9   162503 1.0163 136.3 Cm  15?  29.13 359.8   27 202  39  60
   2024 07 27 05:00  23 32 04.65    -18 53 24.5   162138 1.0163 136.3 Cm  15?  29.59   0.7   26 204  39  60
   ................
   2024 07 27 22:50  00 41 24.37    -04 57 04.3    81678 1.0157 117.1  r  13? 147.97  49.9    0  96  27  51
   2024 07 27 23:00  00 42 40.82    -04 40 51.8    80161 1.0157 116.7  m  13? 151.88  49.4    1  97  27  51
   2024 07 27 23:10  00 43 58.78    -04 24 03.9    78628 1.0157 116.3  m  13? 156.10  49.0    3  98  26  51
   2024 07 27 23:20  00 45 18.41    -04 06 38.2    77078 1.0157 115.9  m  13? 160.67  48.6    5 100  26  51
   2024 07 27 23:30  00 46 39.87    -03 48 32.0    75510 1.0157 115.5  m  13? 165.63  48.1    7 101  26  51
   2024 07 27 23:40  00 48 03.34    -03 29 42.4    73925 1.0157 115.1  m  13? 171.02  47.7    9 102  25  51
   2024 07 27 23:50  00 49 29.03    -03 10 06.3    72322 1.0157 114.6  m  13? 176.88  47.4   10 103  25  51
   2024 07 28 00:00  00 50 57.18    -02 49 40.1    70701 1.0157 114.2  m  13? 183.27  47.0   12 105  25  51
   

Bill Grays ephemeris for selected ARTSATs for this station you'll find for the next 72 hours here.

Website generated with AmrumHtml. Date: 07-14-2024